<?xml version="1.0" encoding="utf-8" standalone="yes"?>
<gpx version="1.1" creator="Locus Map, Android"
 xmlns="http://www.topografix.com/GPX/1/1"
 xmlns:xsi="http://www.w3.org/2001/XMLSchema-instance"
 xsi:schemaLocation="http://www.topografix.com/GPX/1/1 http://www.topografix.com/GPX/1/1/gpx.xsd"
 xmlns:gpxx="http://www.garmin.com/xmlschemas/GpxExtensions/v3"
 xmlns:gpxtrkx="http://www.garmin.com/xmlschemas/TrackStatsExtension/v1"
 xmlns:gpxtpx="http://www.garmin.com/xmlschemas/TrackPointExtension/v2"
 xmlns:locus="http://www.locusmap.eu">
	<metadata>
		<desc>File with points/tracks from Locus Map Classic/3.66.0</desc>
		<time>2023-03-11T16:07:26.789Z</time>
	</metadata>
<trk>
<name>Camogli - San Fruttuoso</name>
	<extensions>
		<line xmlns="http://www.topografix.com/GPX/gpx_style/0/2">
			<color>0000FF</color>
			<opacity>0.59</opacity>
			<width>6.0</width>
			<extensions>
				<locus:lsColorBase>#960000FF</locus:lsColorBase>
				<locus:lsWidth>6.0</locus:lsWidth>
				<locus:lsUnits>PIXELS</locus:lsUnits>
			</extensions>
		</line>
	</extensions>
<trkseg>
<trkpt lat="44.3457350" lon="9.1580080">
	<ele>15.40</ele>
	<time>2022-05-14T05:29:38.000Z</time>
</trkpt>
<trkpt lat="44.3457830" lon="9.1580030">
	<ele>15.60</ele>
	<time>2022-05-14T05:29:40.000Z</time>
</trkpt>
<trkpt lat="44.3457570" lon="9.1579950">
	<ele>15.80</ele>
	<time>2022-05-14T05:29:43.000Z</time>
</trkpt>
<trkpt lat="44.3457440" lon="9.1579800">
	<ele>15.80</ele>
	<time>2022-05-14T05:29:44.000Z</time>
</trkpt>
<trkpt lat="44.3457260" lon="9.1579690">
	<ele>15.80</ele>
	<time>2022-05-14T05:29:45.000Z</time>
</trkpt>
<trkpt lat="44.3457100" lon="9.1579610">
	<ele>15.80</ele>
	<time>2022-05-14T05:29:46.000Z</time>
</trkpt>
<trkpt lat="44.3456820" lon="9.1579570">
	<ele>15.20</ele>
	<time>2022-05-14T05:29:48.000Z</time>
</trkpt>
<trkpt lat="44.3456580" lon="9.1579580">
	<ele>15.20</ele>
	<time>2022-05-14T05:29:50.000Z</time>
</trkpt>
<trkpt lat="44.3456320" lon="9.1579480">
	<ele>14.80</ele>
	<time>2022-05-14T05:29:52.000Z</time>
</trkpt>
<trkpt lat="44.3455590" lon="9.1578870">
	<ele>13.80</ele>
	<time>2022-05-14T05:29:56.000Z</time>
</trkpt>
<trkpt lat="44.3455480" lon="9.1578770">
	<ele>13.60</ele>
	<time>2022-05-14T05:29:57.000Z</time>
</trkpt>
<trkpt lat="44.3455370" lon="9.1578640">
	<ele>13.40</ele>
	<time>2022-05-14T05:29:58.000Z</time>
</trkpt>
<trkpt lat="44.3455370" lon="9.1578450">
	<ele>12.80</ele>
	<time>2022-05-14T05:30:01.000Z</time>
</trkpt>
<trkpt lat="44.3455430" lon="9.1578460">
	<ele>12.60</ele>
	<time>2022-05-14T05:30:02.000Z</time>
</trkpt>
<trkpt lat="44.3455600" lon="9.1578470">
	<ele>12.20</ele>
	<time>2022-05-14T05:30:04.000Z</time>
</trkpt>
<trkpt lat="44.3455710" lon="9.1578680">
	<ele>11.80</ele>
	<time>2022-05-14T05:30:06.000Z</time>
</trkpt>
<trkpt lat="44.3455870" lon="9.1578690">
	<ele>11.60</ele>
	<time>2022-05-14T05:30:08.000Z</time>
</trkpt>
<trkpt lat="44.3456240" lon="9.1578590">
	<ele>10.80</ele>
	<time>2022-05-14T05:30:11.000Z</time>
</trkpt>
<trkpt lat="44.3456590" lon="9.1578580">
	<ele>10.40</ele>
	<time>2022-05-14T05:30:14.000Z</time>
</trkpt>
<trkpt lat="44.3456740" lon="9.1578580">
	<ele>10.00</ele>
	<time>2022-05-14T05:30:16.000Z</time>
</trkpt>
<trkpt lat="44.3457200" lon="9.1578610">
	<ele>9.40</ele>
	<time>2022-05-14T05:30:20.000Z</time>
</trkpt>
<trkpt lat="44.3457410" lon="9.1578650">
	<ele>9.00</ele>
	<time>2022-05-14T05:30:22.000Z</time>
</trkpt>
<trkpt lat="44.3457480" lon="9.1578570">
	<ele>8.60</ele>
	<time>2022-05-14T05:30:23.000Z</time>
</trkpt>
<trkpt lat="44.3457560" lon="9.1578410">
	<ele>8.20</ele>
	<time>2022-05-14T05:30:25.000Z</time>
</trkpt>
<trkpt lat="44.3457610" lon="9.1578300">
	<ele>8.00</ele>
	<time>2022-05-14T05:30:26.000Z</time>
</trkpt>
<trkpt lat="44.3457670" lon="9.1578120">
	<ele>8.00</ele>
	<time>2022-05-14T05:30:27.000Z</time>
</trkpt>
<trkpt lat="44.3457730" lon="9.1577900">
	<ele>7.60</ele>
	<time>2022-05-14T05:30:29.000Z</time>
</trkpt>
<trkpt lat="44.3457720" lon="9.1577720">
	<ele>7.20</ele>
	<time>2022-05-14T05:30:31.000Z</time>
</trkpt>
<trkpt lat="44.3457690" lon="9.1577770">
	<ele>6.40</ele>
	<time>2022-05-14T05:30:34.000Z</time>
</trkpt>
<trkpt lat="44.3457660" lon="9.1577960">
	<ele>6.00</ele>
	<time>2022-05-14T05:30:35.000Z</time>
</trkpt>
<trkpt lat="44.3457640" lon="9.1578060">
	<ele>7.80</ele>
	<time>2022-05-14T05:30:36.000Z</time>
</trkpt>
<trkpt lat="44.3457430" lon="9.1578610">
	<ele>9.40</ele>
	<time>2022-05-14T05:30:40.000Z</time>
</trkpt>
<trkpt lat="44.3457640" lon="9.1578900">
	<ele>8.80</ele>
	<time>2022-05-14T05:30:45.000Z</time>
</trkpt>
<trkpt lat="44.3457650" lon="9.1578860">
	<ele>9.00</ele>
	<time>2022-05-14T05:30:47.000Z</time>
</trkpt>
<trkpt lat="44.3457920" lon="9.1578740">
	<ele>9.00</ele>
	<time>2022-05-14T05:30:50.000Z</time>
</trkpt>
<trkpt lat="44.3458060" lon="9.1578700">
	<ele>9.00</ele>
	<time>2022-05-14T05:30:51.000Z</time>
</trkpt>
<trkpt lat="44.3458550" lon="9.1578360">
	<ele>8.80</ele>
	<time>2022-05-14T05:30:54.000Z</time>
</trkpt>
<trkpt lat="44.3458810" lon="9.1578060">
	<ele>8.80</ele>
	<time>2022-05-14T05:30:57.000Z</time>
</trkpt>
<trkpt lat="44.3458490" lon="9.1577800">
	<ele>8.60</ele>
	<time>2022-05-14T05:31:02.000Z</time>
</trkpt>
<trkpt lat="44.3457620" lon="9.1576800">
	<ele>9.00</ele>
	<time>2022-05-14T05:31:10.000Z</time>
</trkpt>
<trkpt lat="44.3457210" lon="9.1576340">
	<ele>9.00</ele>
	<time>2022-05-14T05:31:13.000Z</time>
</trkpt>
<trkpt lat="44.3456830" lon="9.1576120">
	<ele>9.20</ele>
	<time>2022-05-14T05:31:16.000Z</time>
</trkpt>
<trkpt lat="44.3456730" lon="9.1576140">
	<ele>9.20</ele>
	<time>2022-05-14T05:31:17.000Z</time>
</trkpt>
<trkpt lat="44.3456600" lon="9.1576060">
	<ele>9.20</ele>
	<time>2022-05-14T05:31:18.000Z</time>
</trkpt>
<trkpt lat="44.3455840" lon="9.1575730">
	<ele>9.40</ele>
	<time>2022-05-14T05:31:23.000Z</time>
</trkpt>
<trkpt lat="44.3455100" lon="9.1576140">
	<ele>10.00</ele>
	<time>2022-05-14T05:31:29.000Z</time>
</trkpt>
<trkpt lat="44.3454500" lon="9.1576190">
	<ele>10.00</ele>
	<time>2022-05-14T05:31:33.000Z</time>
</trkpt>
<trkpt lat="44.3454200" lon="9.1576260">
	<ele>10.20</ele>
	<time>2022-05-14T05:31:35.000Z</time>
</trkpt>
<trkpt lat="44.3453780" lon="9.1576220">
	<ele>10.40</ele>
	<time>2022-05-14T05:31:38.000Z</time>
</trkpt>
<trkpt lat="44.3453610" lon="9.1576240">
	<ele>10.40</ele>
	<time>2022-05-14T05:31:39.000Z</time>
</trkpt>
<trkpt lat="44.3453500" lon="9.1576210">
	<ele>10.40</ele>
	<time>2022-05-14T05:31:40.000Z</time>
</trkpt>
<trkpt lat="44.3452530" lon="9.1576210">
	<ele>10.80</ele>
	<time>2022-05-14T05:31:47.000Z</time>
</trkpt>
<trkpt lat="44.3452380" lon="9.1576300">
	<ele>10.80</ele>
	<time>2022-05-14T05:31:48.000Z</time>
</trkpt>
<trkpt lat="44.3452180" lon="9.1576450">
	<ele>11.00</ele>
	<time>2022-05-14T05:31:50.000Z</time>
</trkpt>
<trkpt lat="44.3451800" lon="9.1576770">
	<ele>11.40</ele>
	<time>2022-05-14T05:31:56.000Z</time>
</trkpt>
<trkpt lat="44.3451590" lon="9.1576900">
	<ele>11.60</ele>
	<time>2022-05-14T05:31:59.000Z</time>
</trkpt>
<trkpt lat="44.3451490" lon="9.1577060">
	<ele>11.80</ele>
	<time>2022-05-14T05:32:02.000Z</time>
</trkpt>
<trkpt lat="44.3451520" lon="9.1577880">
	<ele>11.80</ele>
	<time>2022-05-14T05:32:07.000Z</time>
</trkpt>
<trkpt lat="44.3451490" lon="9.1577990">
	<ele>11.80</ele>
	<time>2022-05-14T05:32:09.000Z</time>
</trkpt>
<trkpt lat="44.3451460" lon="9.1578020">
	<ele>11.80</ele>
	<time>2022-05-14T05:32:11.000Z</time>
</trkpt>
<trkpt lat="44.3451450" lon="9.1578050">
	<ele>11.80</ele>
	<time>2022-05-14T05:32:12.000Z</time>
</trkpt>
<trkpt lat="44.3451170" lon="9.1578370">
	<ele>11.80</ele>
	<time>2022-05-14T05:32:17.000Z</time>
</trkpt>
<trkpt lat="44.3450720" lon="9.1578690">
	<ele>12.00</ele>
	<time>2022-05-14T05:32:23.000Z</time>
</trkpt>
<trkpt lat="44.3450050" lon="9.1579130">
	<ele>12.20</ele>
	<time>2022-05-14T05:32:30.000Z</time>
</trkpt>
<trkpt lat="44.3449240" lon="9.1579920">
	<ele>12.60</ele>
	<time>2022-05-14T05:32:37.000Z</time>
</trkpt>
<trkpt lat="44.3449170" lon="9.1579900">
	<ele>12.60</ele>
	<time>2022-05-14T05:32:38.000Z</time>
</trkpt>
<trkpt lat="44.3448750" lon="9.1580030">
	<ele>13.00</ele>
	<time>2022-05-14T05:32:44.000Z</time>
</trkpt>
<trkpt lat="44.3448570" lon="9.1580080">
	<ele>13.00</ele>
	<time>2022-05-14T05:32:45.000Z</time>
</trkpt>
<trkpt lat="44.3447890" lon="9.1580280">
	<ele>13.40</ele>
	<time>2022-05-14T05:32:50.000Z</time>
</trkpt>
<trkpt lat="44.3447630" lon="9.1580480">
	<ele>13.60</ele>
	<time>2022-05-14T05:32:52.000Z</time>
</trkpt>
<trkpt lat="44.3447480" lon="9.1580480">
	<ele>13.60</ele>
	<time>2022-05-14T05:32:53.000Z</time>
</trkpt>
<trkpt lat="44.3447050" lon="9.1580550">
	<ele>14.00</ele>
	<time>2022-05-14T05:32:56.000Z</time>
</trkpt>
<trkpt lat="44.3446880" lon="9.1580770">
	<ele>14.20</ele>
	<time>2022-05-14T05:32:59.000Z</time>
</trkpt>
<trkpt lat="44.3446690" lon="9.1581040">
	<ele>14.40</ele>
	<time>2022-05-14T05:33:02.000Z</time>
</trkpt>
<trkpt lat="44.3446010" lon="9.1581650">
	<ele>14.60</ele>
	<time>2022-05-14T05:33:07.000Z</time>
</trkpt>
<trkpt lat="44.3445800" lon="9.1581930">
	<ele>14.60</ele>
	<time>2022-05-14T05:33:09.000Z</time>
</trkpt>
<trkpt lat="44.3445210" lon="9.1582170">
	<ele>15.40</ele>
	<time>2022-05-14T05:33:16.000Z</time>
</trkpt>
<trkpt lat="44.3445250" lon="9.1582230">
	<ele>15.60</ele>
	<time>2022-05-14T05:33:23.000Z</time>
</trkpt>
<trkpt lat="44.3445330" lon="9.1582240">
	<ele>15.60</ele>
	<time>2022-05-14T05:33:24.000Z</time>
</trkpt>
<trkpt lat="44.3445470" lon="9.1582550">
	<ele>15.00</ele>
	<time>2022-05-14T05:33:31.000Z</time>
</trkpt>
<trkpt lat="44.3445410" lon="9.1582230">
	<ele>15.00</ele>
	<time>2022-05-14T05:33:38.000Z</time>
</trkpt>
<trkpt lat="44.3444780" lon="9.1582180">
	<ele>15.40</ele>
	<time>2022-05-14T05:33:45.000Z</time>
</trkpt>
<trkpt lat="44.3443870" lon="9.1582470">
	<ele>15.60</ele>
	<time>2022-05-14T05:33:53.000Z</time>
</trkpt>
<trkpt lat="44.3443280" lon="9.1582570">
	<ele>15.80</ele>
	<time>2022-05-14T05:34:00.000Z</time>
</trkpt>
<trkpt lat="44.3443160" lon="9.1582550">
	<ele>16.00</ele>
	<time>2022-05-14T05:34:02.000Z</time>
</trkpt>
<trkpt lat="44.3442760" lon="9.1582670">
	<ele>16.20</ele>
	<time>2022-05-14T05:34:06.000Z</time>
</trkpt>
<trkpt lat="44.3442440" lon="9.1582700">
	<ele>16.60</ele>
	<time>2022-05-14T05:34:12.000Z</time>
</trkpt>
<trkpt lat="44.3442280" lon="9.1582700">
	<ele>16.60</ele>
	<time>2022-05-14T05:34:14.000Z</time>
</trkpt>
<trkpt lat="44.3441730" lon="9.1583020">
	<ele>17.40</ele>
	<time>2022-05-14T05:34:18.000Z</time>
</trkpt>
<trkpt lat="44.3441530" lon="9.1583180">
	<ele>17.60</ele>
	<time>2022-05-14T05:34:19.000Z</time>
</trkpt>
<trkpt lat="44.3441200" lon="9.1583460">
	<ele>18.00</ele>
	<time>2022-05-14T05:34:21.000Z</time>
</trkpt>
<trkpt lat="44.3441050" lon="9.1583460">
	<ele>18.40</ele>
	<time>2022-05-14T05:34:23.000Z</time>
</trkpt>
<trkpt lat="44.3440950" lon="9.1583440">
	<ele>18.60</ele>
	<time>2022-05-14T05:34:24.000Z</time>
</trkpt>
<trkpt lat="44.3440850" lon="9.1583330">
	<ele>19.00</ele>
	<time>2022-05-14T05:34:26.000Z</time>
</trkpt>
<trkpt lat="44.3440790" lon="9.1583340">
	<ele>19.00</ele>
	<time>2022-05-14T05:34:27.000Z</time>
</trkpt>
<trkpt lat="44.3440570" lon="9.1583340">
	<ele>20.00</ele>
	<time>2022-05-14T05:34:31.000Z</time>
</trkpt>
<trkpt lat="44.3440490" lon="9.1583220">
	<ele>20.60</ele>
	<time>2022-05-14T05:34:33.000Z</time>
</trkpt>
<trkpt lat="44.3440470" lon="9.1583180">
	<ele>21.00</ele>
	<time>2022-05-14T05:34:34.000Z</time>
</trkpt>
<trkpt lat="44.3440460" lon="9.1583140">
	<ele>21.20</ele>
	<time>2022-05-14T05:34:35.000Z</time>
</trkpt>
<trkpt lat="44.3440490" lon="9.1583270">
	<ele>21.60</ele>
	<time>2022-05-14T05:34:38.000Z</time>
</trkpt>
<trkpt lat="44.3440370" lon="9.1583320">
	<ele>22.00</ele>
	<time>2022-05-14T05:34:41.000Z</time>
</trkpt>
<trkpt lat="44.3440040" lon="9.1583480">
	<ele>22.20</ele>
	<time>2022-05-14T05:34:43.000Z</time>
</trkpt>
<trkpt lat="44.3439320" lon="9.1583760">
	<ele>22.80</ele>
	<time>2022-05-14T05:34:47.000Z</time>
</trkpt>
<trkpt lat="44.3439230" lon="9.1583740">
	<ele>23.00</ele>
	<time>2022-05-14T05:34:48.000Z</time>
</trkpt>
<trkpt lat="44.3438940" lon="9.1583770">
	<ele>23.40</ele>
	<time>2022-05-14T05:34:51.000Z</time>
</trkpt>
<trkpt lat="44.3438860" lon="9.1583760">
	<ele>23.60</ele>
	<time>2022-05-14T05:34:52.000Z</time>
</trkpt>
<trkpt lat="44.3438490" lon="9.1583960">
	<ele>24.60</ele>
	<time>2022-05-14T05:34:57.000Z</time>
</trkpt>
<trkpt lat="44.3437890" lon="9.1583990">
	<ele>25.60</ele>
	<time>2022-05-14T05:35:04.000Z</time>
</trkpt>
<trkpt lat="44.3437660" lon="9.1584060">
	<ele>25.60</ele>
	<time>2022-05-14T05:35:06.000Z</time>
</trkpt>
<trkpt lat="44.3437500" lon="9.1584100">
	<ele>25.80</ele>
	<time>2022-05-14T05:35:07.000Z</time>
</trkpt>
<trkpt lat="44.3437310" lon="9.1584070">
	<ele>26.00</ele>
	<time>2022-05-14T05:35:09.000Z</time>
</trkpt>
<trkpt lat="44.3436680" lon="9.1583960">
	<ele>26.80</ele>
	<time>2022-05-14T05:35:16.000Z</time>
</trkpt>
<trkpt lat="44.3436330" lon="9.1584080">
	<ele>27.80</ele>
	<time>2022-05-14T05:35:20.000Z</time>
</trkpt>
<trkpt lat="44.3436190" lon="9.1584060">
	<ele>27.80</ele>
	<time>2022-05-14T05:35:21.000Z</time>
</trkpt>
<trkpt lat="44.3435990" lon="9.1583900">
	<ele>28.40</ele>
	<time>2022-05-14T05:35:23.000Z</time>
</trkpt>
<trkpt lat="44.3435810" lon="9.1583570">
	<ele>29.00</ele>
	<time>2022-05-14T05:35:26.000Z</time>
</trkpt>
<trkpt lat="44.3435550" lon="9.1583610">
	<ele>29.40</ele>
	<time>2022-05-14T05:35:28.000Z</time>
</trkpt>
<trkpt lat="44.3435170" lon="9.1583610">
	<ele>30.00</ele>
	<time>2022-05-14T05:35:31.000Z</time>
</trkpt>
<trkpt lat="44.3434990" lon="9.1583910">
	<ele>30.40</ele>
	<time>2022-05-14T05:35:33.000Z</time>
</trkpt>
<trkpt lat="44.3434700" lon="9.1584400">
	<ele>31.20</ele>
	<time>2022-05-14T05:35:36.000Z</time>
</trkpt>
<trkpt lat="44.3434240" lon="9.1584660">
	<ele>32.00</ele>
	<time>2022-05-14T05:35:41.000Z</time>
</trkpt>
<trkpt lat="44.3434140" lon="9.1584450">
	<ele>32.20</ele>
	<time>2022-05-14T05:35:43.000Z</time>
</trkpt>
<trkpt lat="44.3433900" lon="9.1584440">
	<ele>32.40</ele>
	<time>2022-05-14T05:35:45.000Z</time>
</trkpt>
<trkpt lat="44.3433590" lon="9.1584650">
	<ele>32.60</ele>
	<time>2022-05-14T05:35:48.000Z</time>
</trkpt>
<trkpt lat="44.3433430" lon="9.1584750">
	<ele>33.00</ele>
	<time>2022-05-14T05:35:50.000Z</time>
</trkpt>
<trkpt lat="44.3432890" lon="9.1585010">
	<ele>33.20</ele>
	<time>2022-05-14T05:35:54.000Z</time>
</trkpt>
<trkpt lat="44.3432480" lon="9.1585220">
	<ele>33.20</ele>
	<time>2022-05-14T05:35:58.000Z</time>
</trkpt>
<trkpt lat="44.3431700" lon="9.1585110">
	<ele>33.20</ele>
	<time>2022-05-14T05:36:04.000Z</time>
</trkpt>
<trkpt lat="44.3431030" lon="9.1585520">
	<ele>33.20</ele>
	<time>2022-05-14T05:36:07.000Z</time>
</trkpt>
<trkpt lat="44.3430880" lon="9.1585510">
	<ele>33.20</ele>
	<time>2022-05-14T05:36:08.000Z</time>
</trkpt>
<trkpt lat="44.3430450" lon="9.1585530">
	<ele>33.00</ele>
	<time>2022-05-14T05:36:14.000Z</time>
</trkpt>
<trkpt lat="44.3430410" lon="9.1585470">
	<ele>33.00</ele>
	<time>2022-05-14T05:36:15.000Z</time>
</trkpt>
<trkpt lat="44.3430290" lon="9.1585370">
	<ele>32.80</ele>
	<time>2022-05-14T05:36:21.000Z</time>
</trkpt>
<trkpt lat="44.3430170" lon="9.1585290">
	<ele>32.80</ele>
	<time>2022-05-14T05:36:25.000Z</time>
</trkpt>
<trkpt lat="44.3430200" lon="9.1585210">
	<ele>33.00</ele>
	<time>2022-05-14T05:36:29.000Z</time>
</trkpt>
<trkpt lat="44.3430200" lon="9.1585210">
	<ele>33.00</ele>
	<time>2022-05-14T05:36:33.000Z</time>
</trkpt>
<trkpt lat="44.3430250" lon="9.1585210">
	<ele>33.00</ele>
	<time>2022-05-14T05:36:37.000Z</time>
</trkpt>
<trkpt lat="44.3430260" lon="9.1585210">
	<ele>33.00</ele>
	<time>2022-05-14T05:36:39.000Z</time>
</trkpt>
<trkpt lat="44.3430290" lon="9.1585210">
	<ele>33.00</ele>
	<time>2022-05-14T05:36:41.000Z</time>
</trkpt>
<trkpt lat="44.3430290" lon="9.1585120">
	<ele>33.00</ele>
	<time>2022-05-14T05:36:42.000Z</time>
</trkpt>
<trkpt lat="44.3430300" lon="9.1585090">
	<ele>33.00</ele>
	<time>2022-05-14T05:36:43.000Z</time>
</trkpt>
<trkpt lat="44.3430330" lon="9.1585070">
	<ele>33.20</ele>
	<time>2022-05-14T05:36:44.000Z</time>
</trkpt>
<trkpt lat="44.3430350" lon="9.1585040">
	<ele>33.40</ele>
	<time>2022-05-14T05:36:46.000Z</time>
</trkpt>
<trkpt lat="44.3430350" lon="9.1585030">
	<ele>34.20</ele>
	<time>2022-05-14T05:36:49.000Z</time>
</trkpt>
<trkpt lat="44.3430320" lon="9.1584940">
	<ele>35.00</ele>
	<time>2022-05-14T05:36:52.000Z</time>
</trkpt>
<trkpt lat="44.3430200" lon="9.1584900">
	<ele>35.20</ele>
	<time>2022-05-14T05:36:53.000Z</time>
</trkpt>
<trkpt lat="44.3429800" lon="9.1584840">
	<ele>35.80</ele>
	<time>2022-05-14T05:36:56.000Z</time>
</trkpt>
<trkpt lat="44.3429510" lon="9.1584450">
	<ele>36.40</ele>
	<time>2022-05-14T05:37:00.000Z</time>
</trkpt>
<trkpt lat="44.3429390" lon="9.1584180">
	<ele>36.60</ele>
	<time>2022-05-14T05:37:02.000Z</time>
</trkpt>
<trkpt lat="44.3428880" lon="9.1583970">
	<ele>37.40</ele>
	<time>2022-05-14T05:37:08.000Z</time>
</trkpt>
<trkpt lat="44.3428810" lon="9.1583950">
	<ele>37.60</ele>
	<time>2022-05-14T05:37:09.000Z</time>
</trkpt>
<trkpt lat="44.3428490" lon="9.1583910">
	<ele>38.40</ele>
	<time>2022-05-14T05:37:14.000Z</time>
</trkpt>
<trkpt lat="44.3428460" lon="9.1583820">
	<ele>38.60</ele>
	<time>2022-05-14T05:37:15.000Z</time>
</trkpt>
<trkpt lat="44.3428070" lon="9.1583980">
	<ele>39.60</ele>
	<time>2022-05-14T05:37:20.000Z</time>
</trkpt>
<trkpt lat="44.3427990" lon="9.1583900">
	<ele>39.80</ele>
	<time>2022-05-14T05:37:21.000Z</time>
</trkpt>
<trkpt lat="44.3427760" lon="9.1583680">
	<ele>40.60</ele>
	<time>2022-05-14T05:37:25.000Z</time>
</trkpt>
<trkpt lat="44.3427560" lon="9.1583600">
	<ele>41.40</ele>
	<time>2022-05-14T05:37:28.000Z</time>
</trkpt>
<trkpt lat="44.3427400" lon="9.1583640">
	<ele>41.80</ele>
	<time>2022-05-14T05:37:30.000Z</time>
</trkpt>
<trkpt lat="44.3426960" lon="9.1583590">
	<ele>43.00</ele>
	<time>2022-05-14T05:37:35.000Z</time>
</trkpt>
<trkpt lat="44.3426860" lon="9.1583580">
	<ele>43.20</ele>
	<time>2022-05-14T05:37:36.000Z</time>
</trkpt>
<trkpt lat="44.3426170" lon="9.1583640">
	<ele>44.20</ele>
	<time>2022-05-14T05:37:43.000Z</time>
</trkpt>
<trkpt lat="44.3425830" lon="9.1583810">
	<ele>44.40</ele>
	<time>2022-05-14T05:37:47.000Z</time>
</trkpt>
<trkpt lat="44.3425770" lon="9.1583640">
	<ele>44.80</ele>
	<time>2022-05-14T05:37:50.000Z</time>
</trkpt>
<trkpt lat="44.3425660" lon="9.1583690">
	<ele>44.80</ele>
	<time>2022-05-14T05:37:51.000Z</time>
</trkpt>
<trkpt lat="44.3425460" lon="9.1583850">
	<ele>45.00</ele>
	<time>2022-05-14T05:37:53.000Z</time>
</trkpt>
<trkpt lat="44.3425380" lon="9.1584050">
	<ele>45.20</ele>
	<time>2022-05-14T05:37:55.000Z</time>
</trkpt>
<trkpt lat="44.3425200" lon="9.1584270">
	<ele>45.60</ele>
	<time>2022-05-14T05:37:58.000Z</time>
</trkpt>
<trkpt lat="44.3425090" lon="9.1584320">
	<ele>45.60</ele>
	<time>2022-05-14T05:37:59.000Z</time>
</trkpt>
<trkpt lat="44.3424630" lon="9.1584450">
	<ele>46.20</ele>
	<time>2022-05-14T05:38:03.000Z</time>
</trkpt>
<trkpt lat="44.3424490" lon="9.1584530">
	<ele>46.20</ele>
	<time>2022-05-14T05:38:04.000Z</time>
</trkpt>
<trkpt lat="44.3423900" lon="9.1584500">
	<ele>47.00</ele>
	<time>2022-05-14T05:38:10.000Z</time>
</trkpt>
<trkpt lat="44.3423790" lon="9.1584500">
	<ele>47.40</ele>
	<time>2022-05-14T05:38:11.000Z</time>
</trkpt>
<trkpt lat="44.3423530" lon="9.1584580">
	<ele>47.80</ele>
	<time>2022-05-14T05:38:13.000Z</time>
</trkpt>
<trkpt lat="44.3423270" lon="9.1584670">
	<ele>48.20</ele>
	<time>2022-05-14T05:38:15.000Z</time>
</trkpt>
<trkpt lat="44.3423190" lon="9.1584660">
	<ele>48.60</ele>
	<time>2022-05-14T05:38:16.000Z</time>
</trkpt>
<trkpt lat="44.3423020" lon="9.1584640">
	<ele>49.40</ele>
	<time>2022-05-14T05:38:20.000Z</time>
</trkpt>
<trkpt lat="44.3422930" lon="9.1584600">
	<ele>49.60</ele>
	<time>2022-05-14T05:38:21.000Z</time>
</trkpt>
<trkpt lat="44.3422800" lon="9.1584550">
	<ele>49.80</ele>
	<time>2022-05-14T05:38:22.000Z</time>
</trkpt>
<trkpt lat="44.3422600" lon="9.1584480">
	<ele>50.20</ele>
	<time>2022-05-14T05:38:25.000Z</time>
</trkpt>
<trkpt lat="44.3422370" lon="9.1584780">
	<ele>50.40</ele>
	<time>2022-05-14T05:38:28.000Z</time>
</trkpt>
<trkpt lat="44.3422000" lon="9.1585030">
	<ele>50.80</ele>
	<time>2022-05-14T05:38:33.000Z</time>
</trkpt>
<trkpt lat="44.3421950" lon="9.1585050">
	<ele>50.80</ele>
	<time>2022-05-14T05:38:34.000Z</time>
</trkpt>
<trkpt lat="44.3421850" lon="9.1585180">
	<ele>50.80</ele>
	<time>2022-05-14T05:38:35.000Z</time>
</trkpt>
<trkpt lat="44.3421770" lon="9.1585230">
	<ele>50.80</ele>
	<time>2022-05-14T05:38:36.000Z</time>
</trkpt>
<trkpt lat="44.3421700" lon="9.1585260">
	<ele>50.80</ele>
	<time>2022-05-14T05:38:37.000Z</time>
</trkpt>
<trkpt lat="44.3421390" lon="9.1585550">
	<ele>50.80</ele>
	<time>2022-05-14T05:38:40.000Z</time>
</trkpt>
<trkpt lat="44.3421240" lon="9.1585670">
	<ele>50.80</ele>
	<time>2022-05-14T05:38:41.000Z</time>
</trkpt>
<trkpt lat="44.3421010" lon="9.1585910">
	<ele>51.00</ele>
	<time>2022-05-14T05:38:43.000Z</time>
</trkpt>
<trkpt lat="44.3420440" lon="9.1586520">
	<ele>50.60</ele>
	<time>2022-05-14T05:38:50.000Z</time>
</trkpt>
<trkpt lat="44.3420320" lon="9.1586630">
	<ele>50.60</ele>
	<time>2022-05-14T05:38:51.000Z</time>
</trkpt>
<trkpt lat="44.3420210" lon="9.1586670">
	<ele>50.60</ele>
	<time>2022-05-14T05:38:52.000Z</time>
</trkpt>
<trkpt lat="44.3419920" lon="9.1586990">
	<ele>50.80</ele>
	<time>2022-05-14T05:38:55.000Z</time>
</trkpt>
<trkpt lat="44.3419660" lon="9.1587330">
	<ele>50.80</ele>
	<time>2022-05-14T05:38:58.000Z</time>
</trkpt>
<trkpt lat="44.3418680" lon="9.1588000">
	<ele>51.00</ele>
	<time>2022-05-14T05:39:05.000Z</time>
</trkpt>
<trkpt lat="44.3418550" lon="9.1587940">
	<ele>51.00</ele>
	<time>2022-05-14T05:39:06.000Z</time>
</trkpt>
<trkpt lat="44.3417690" lon="9.1587700">
	<ele>51.80</ele>
	<time>2022-05-14T05:39:13.000Z</time>
</trkpt>
<trkpt lat="44.3417640" lon="9.1587600">
	<ele>52.00</ele>
	<time>2022-05-14T05:39:14.000Z</time>
</trkpt>
<trkpt lat="44.3417220" lon="9.1587180">
	<ele>53.00</ele>
	<time>2022-05-14T05:39:20.000Z</time>
</trkpt>
<trkpt lat="44.3417160" lon="9.1587110">
	<ele>53.40</ele>
	<time>2022-05-14T05:39:21.000Z</time>
</trkpt>
<trkpt lat="44.3417190" lon="9.1586910">
	<ele>53.60</ele>
	<time>2022-05-14T05:39:22.000Z</time>
</trkpt>
<trkpt lat="44.3417000" lon="9.1586700">
	<ele>54.00</ele>
	<time>2022-05-14T05:39:25.000Z</time>
</trkpt>
<trkpt lat="44.3416870" lon="9.1586690">
	<ele>54.40</ele>
	<time>2022-05-14T05:39:27.000Z</time>
</trkpt>
<trkpt lat="44.3416640" lon="9.1586700">
	<ele>55.40</ele>
	<time>2022-05-14T05:39:31.000Z</time>
</trkpt>
<trkpt lat="44.3416510" lon="9.1586590">
	<ele>55.80</ele>
	<time>2022-05-14T05:39:33.000Z</time>
</trkpt>
<trkpt lat="44.3416420" lon="9.1586580">
	<ele>56.20</ele>
	<time>2022-05-14T05:39:35.000Z</time>
</trkpt>
<trkpt lat="44.3416360" lon="9.1586620">
	<ele>56.40</ele>
	<time>2022-05-14T05:39:36.000Z</time>
</trkpt>
<trkpt lat="44.3416260" lon="9.1586690">
	<ele>56.80</ele>
	<time>2022-05-14T05:39:38.000Z</time>
</trkpt>
<trkpt lat="44.3416160" lon="9.1586680">
	<ele>57.00</ele>
	<time>2022-05-14T05:39:40.000Z</time>
</trkpt>
<trkpt lat="44.3416020" lon="9.1586390">
	<ele>57.60</ele>
	<time>2022-05-14T05:39:43.000Z</time>
</trkpt>
<trkpt lat="44.3415950" lon="9.1586250">
	<ele>57.80</ele>
	<time>2022-05-14T05:39:44.000Z</time>
</trkpt>
<trkpt lat="44.3415980" lon="9.1585990">
	<ele>58.00</ele>
	<time>2022-05-14T05:39:45.000Z</time>
</trkpt>
<trkpt lat="44.3416000" lon="9.1585570">
	<ele>58.40</ele>
	<time>2022-05-14T05:39:47.000Z</time>
</trkpt>
<trkpt lat="44.3415900" lon="9.1585480">
	<ele>58.80</ele>
	<time>2022-05-14T05:39:49.000Z</time>
</trkpt>
<trkpt lat="44.3415830" lon="9.1585440">
	<ele>59.00</ele>
	<time>2022-05-14T05:39:50.000Z</time>
</trkpt>
<trkpt lat="44.3415750" lon="9.1585350">
	<ele>59.60</ele>
	<time>2022-05-14T05:39:52.000Z</time>
</trkpt>
<trkpt lat="44.3415600" lon="9.1585350">
	<ele>60.00</ele>
	<time>2022-05-14T05:39:54.000Z</time>
</trkpt>
<trkpt lat="44.3415310" lon="9.1585460">
	<ele>60.80</ele>
	<time>2022-05-14T05:39:58.000Z</time>
</trkpt>
<trkpt lat="44.3415230" lon="9.1585440">
	<ele>61.00</ele>
	<time>2022-05-14T05:39:59.000Z</time>
</trkpt>
<trkpt lat="44.3415170" lon="9.1585480">
	<ele>61.00</ele>
	<time>2022-05-14T05:40:00.000Z</time>
</trkpt>
<trkpt lat="44.3415070" lon="9.1585530">
	<ele>61.40</ele>
	<time>2022-05-14T05:40:02.000Z</time>
</trkpt>
<trkpt lat="44.3414950" lon="9.1585370">
	<ele>62.20</ele>
	<time>2022-05-14T05:40:05.000Z</time>
</trkpt>
<trkpt lat="44.3414820" lon="9.1585260">
	<ele>62.60</ele>
	<time>2022-05-14T05:40:07.000Z</time>
</trkpt>
<trkpt lat="44.3414630" lon="9.1585170">
	<ele>62.80</ele>
	<time>2022-05-14T05:40:09.000Z</time>
</trkpt>
<trkpt lat="44.3414500" lon="9.1585160">
	<ele>63.40</ele>
	<time>2022-05-14T05:40:11.000Z</time>
</trkpt>
<trkpt lat="44.3414410" lon="9.1585140">
	<ele>63.60</ele>
	<time>2022-05-14T05:40:12.000Z</time>
</trkpt>
<trkpt lat="44.3414180" lon="9.1584970">
	<ele>64.40</ele>
	<time>2022-05-14T05:40:16.000Z</time>
</trkpt>
<trkpt lat="44.3414130" lon="9.1584930">
	<ele>64.60</ele>
	<time>2022-05-14T05:40:17.000Z</time>
</trkpt>
<trkpt lat="44.3413790" lon="9.1584580">
	<ele>65.60</ele>
	<time>2022-05-14T05:40:22.000Z</time>
</trkpt>
<trkpt lat="44.3413500" lon="9.1584660">
	<ele>66.20</ele>
	<time>2022-05-14T05:40:26.000Z</time>
</trkpt>
<trkpt lat="44.3413420" lon="9.1584640">
	<ele>66.60</ele>
	<time>2022-05-14T05:40:27.000Z</time>
</trkpt>
<trkpt lat="44.3413220" lon="9.1584690">
	<ele>67.00</ele>
	<time>2022-05-14T05:40:30.000Z</time>
</trkpt>
<trkpt lat="44.3413010" lon="9.1584760">
	<ele>67.20</ele>
	<time>2022-05-14T05:40:32.000Z</time>
</trkpt>
<trkpt lat="44.3412850" lon="9.1584830">
	<ele>67.60</ele>
	<time>2022-05-14T05:40:34.000Z</time>
</trkpt>
<trkpt lat="44.3412760" lon="9.1584850">
	<ele>67.60</ele>
	<time>2022-05-14T05:40:35.000Z</time>
</trkpt>
<trkpt lat="44.3412670" lon="9.1584910">
	<ele>67.80</ele>
	<time>2022-05-14T05:40:36.000Z</time>
</trkpt>
<trkpt lat="44.3411760" lon="9.1585400">
	<ele>68.40</ele>
	<time>2022-05-14T05:40:45.000Z</time>
</trkpt>
<trkpt lat="44.3411190" lon="9.1585740">
	<ele>68.80</ele>
	<time>2022-05-14T05:40:51.000Z</time>
</trkpt>
<trkpt lat="44.3410970" lon="9.1585840">
	<ele>68.80</ele>
	<time>2022-05-14T05:40:53.000Z</time>
</trkpt>
<trkpt lat="44.3410370" lon="9.1586090">
	<ele>69.40</ele>
	<time>2022-05-14T05:40:59.000Z</time>
</trkpt>
<trkpt lat="44.3410260" lon="9.1586240">
	<ele>69.40</ele>
	<time>2022-05-14T05:41:00.000Z</time>
</trkpt>
<trkpt lat="44.3410090" lon="9.1586520">
	<ele>69.60</ele>
	<time>2022-05-14T05:41:03.000Z</time>
</trkpt>
<trkpt lat="44.3410000" lon="9.1586690">
	<ele>69.80</ele>
	<time>2022-05-14T05:41:05.000Z</time>
</trkpt>
<trkpt lat="44.3409800" lon="9.1587110">
	<ele>70.00</ele>
	<time>2022-05-14T05:41:09.000Z</time>
</trkpt>
<trkpt lat="44.3409230" lon="9.1588080">
	<ele>70.60</ele>
	<time>2022-05-14T05:41:17.000Z</time>
</trkpt>
<trkpt lat="44.3409130" lon="9.1588160">
	<ele>70.80</ele>
	<time>2022-05-14T05:41:18.000Z</time>
</trkpt>
<trkpt lat="44.3409090" lon="9.1588240">
	<ele>70.80</ele>
	<time>2022-05-14T05:41:19.000Z</time>
</trkpt>
<trkpt lat="44.3408930" lon="9.1588140">
	<ele>71.00</ele>
	<time>2022-05-14T05:41:21.000Z</time>
</trkpt>
<trkpt lat="44.3408500" lon="9.1588290">
	<ele>71.60</ele>
	<time>2022-05-14T05:41:26.000Z</time>
</trkpt>
<trkpt lat="44.3408430" lon="9.1588410">
	<ele>71.80</ele>
	<time>2022-05-14T05:41:27.000Z</time>
</trkpt>
<trkpt lat="44.3408370" lon="9.1588540">
	<ele>72.00</ele>
	<time>2022-05-14T05:41:28.000Z</time>
</trkpt>
<trkpt lat="44.3407580" lon="9.1588980">
	<ele>73.00</ele>
	<time>2022-05-14T05:41:35.000Z</time>
</trkpt>
<trkpt lat="44.3407510" lon="9.1588880">
	<ele>73.20</ele>
	<time>2022-05-14T05:41:36.000Z</time>
</trkpt>
<trkpt lat="44.3407440" lon="9.1588770">
	<ele>73.40</ele>
	<time>2022-05-14T05:41:37.000Z</time>
</trkpt>
<trkpt lat="44.3407200" lon="9.1588510">
	<ele>74.20</ele>
	<time>2022-05-14T05:41:41.000Z</time>
</trkpt>
<trkpt lat="44.3407100" lon="9.1588410">
	<ele>74.40</ele>
	<time>2022-05-14T05:41:43.000Z</time>
</trkpt>
<trkpt lat="44.3406700" lon="9.1588660">
	<ele>75.20</ele>
	<time>2022-05-14T05:41:47.000Z</time>
</trkpt>
<trkpt lat="44.3406640" lon="9.1588750">
	<ele>75.40</ele>
	<time>2022-05-14T05:41:48.000Z</time>
</trkpt>
<trkpt lat="44.3406550" lon="9.1588950">
	<ele>76.00</ele>
	<time>2022-05-14T05:41:51.000Z</time>
</trkpt>
<trkpt lat="44.3406640" lon="9.1589070">
	<ele>76.20</ele>
	<time>2022-05-14T05:41:54.000Z</time>
</trkpt>
<trkpt lat="44.3406610" lon="9.1589370">
	<ele>76.20</ele>
	<time>2022-05-14T05:41:57.000Z</time>
</trkpt>
<trkpt lat="44.3406560" lon="9.1589410">
	<ele>76.60</ele>
	<time>2022-05-14T05:41:59.000Z</time>
</trkpt>
<trkpt lat="44.3406280" lon="9.1589480">
	<ele>77.00</ele>
	<time>2022-05-14T05:42:03.000Z</time>
</trkpt>
<trkpt lat="44.3406140" lon="9.1589720">
	<ele>77.40</ele>
	<time>2022-05-14T05:42:05.000Z</time>
</trkpt>
<trkpt lat="44.3406030" lon="9.1589880">
	<ele>77.60</ele>
	<time>2022-05-14T05:42:07.000Z</time>
</trkpt>
<trkpt lat="44.3405630" lon="9.1590290">
	<ele>78.40</ele>
	<time>2022-05-14T05:42:11.000Z</time>
</trkpt>
<trkpt lat="44.3405130" lon="9.1590840">
	<ele>79.20</ele>
	<time>2022-05-14T05:42:17.000Z</time>
</trkpt>
<trkpt lat="44.3405010" lon="9.1590910">
	<ele>79.40</ele>
	<time>2022-05-14T05:42:19.000Z</time>
</trkpt>
<trkpt lat="44.3404900" lon="9.1591020">
	<ele>79.80</ele>
	<time>2022-05-14T05:42:22.000Z</time>
</trkpt>
<trkpt lat="44.3404630" lon="9.1591320">
	<ele>80.60</ele>
	<time>2022-05-14T05:42:25.000Z</time>
</trkpt>
<trkpt lat="44.3404510" lon="9.1591290">
	<ele>80.60</ele>
	<time>2022-05-14T05:42:26.000Z</time>
</trkpt>
<trkpt lat="44.3404370" lon="9.1591260">
	<ele>80.80</ele>
	<time>2022-05-14T05:42:27.000Z</time>
</trkpt>
<trkpt lat="44.3404130" lon="9.1591390">
	<ele>81.20</ele>
	<time>2022-05-14T05:42:29.000Z</time>
</trkpt>
<trkpt lat="44.3403950" lon="9.1591360">
	<ele>81.60</ele>
	<time>2022-05-14T05:42:31.000Z</time>
</trkpt>
<trkpt lat="44.3403710" lon="9.1591120">
	<ele>82.40</ele>
	<time>2022-05-14T05:42:35.000Z</time>
</trkpt>
<trkpt lat="44.3403640" lon="9.1591140">
	<ele>82.60</ele>
	<time>2022-05-14T05:42:36.000Z</time>
</trkpt>
<trkpt lat="44.3403560" lon="9.1591180">
	<ele>82.80</ele>
	<time>2022-05-14T05:42:37.000Z</time>
</trkpt>
<trkpt lat="44.3403360" lon="9.1591310">
	<ele>83.20</ele>
	<time>2022-05-14T05:42:40.000Z</time>
</trkpt>
<trkpt lat="44.3403170" lon="9.1591330">
	<ele>84.00</ele>
	<time>2022-05-14T05:42:43.000Z</time>
</trkpt>
<trkpt lat="44.3403120" lon="9.1591250">
	<ele>84.20</ele>
	<time>2022-05-14T05:42:45.000Z</time>
</trkpt>
<trkpt lat="44.3402930" lon="9.1591170">
	<ele>85.00</ele>
	<time>2022-05-14T05:42:49.000Z</time>
</trkpt>
<trkpt lat="44.3402670" lon="9.1591180">
	<ele>86.20</ele>
	<time>2022-05-14T05:42:54.000Z</time>
</trkpt>
<trkpt lat="44.3402470" lon="9.1591170">
	<ele>86.80</ele>
	<time>2022-05-14T05:42:57.000Z</time>
</trkpt>
<trkpt lat="44.3402360" lon="9.1591050">
	<ele>87.20</ele>
	<time>2022-05-14T05:42:59.000Z</time>
</trkpt>
<trkpt lat="44.3402120" lon="9.1590850">
	<ele>88.20</ele>
	<time>2022-05-14T05:43:04.000Z</time>
</trkpt>
<trkpt lat="44.3401810" lon="9.1591010">
	<ele>89.60</ele>
	<time>2022-05-14T05:43:10.000Z</time>
</trkpt>
<trkpt lat="44.3401600" lon="9.1591060">
	<ele>90.80</ele>
	<time>2022-05-14T05:43:15.000Z</time>
</trkpt>
<trkpt lat="44.3401490" lon="9.1591130">
	<ele>91.40</ele>
	<time>2022-05-14T05:43:17.000Z</time>
</trkpt>
<trkpt lat="44.3401290" lon="9.1591100">
	<ele>91.80</ele>
	<time>2022-05-14T05:43:20.000Z</time>
</trkpt>
<trkpt lat="44.3400840" lon="9.1591310">
	<ele>92.80</ele>
	<time>2022-05-14T05:43:25.000Z</time>
</trkpt>
<trkpt lat="44.3400760" lon="9.1591230">
	<ele>93.00</ele>
	<time>2022-05-14T05:43:26.000Z</time>
</trkpt>
<trkpt lat="44.3400690" lon="9.1591130">
	<ele>93.20</ele>
	<time>2022-05-14T05:43:27.000Z</time>
</trkpt>
<trkpt lat="44.3400060" lon="9.1591150">
	<ele>94.20</ele>
	<time>2022-05-14T05:43:33.000Z</time>
</trkpt>
<trkpt lat="44.3399600" lon="9.1591030">
	<ele>94.80</ele>
	<time>2022-05-14T05:43:39.000Z</time>
</trkpt>
<trkpt lat="44.3399390" lon="9.1591160">
	<ele>95.20</ele>
	<time>2022-05-14T05:43:41.000Z</time>
</trkpt>
<trkpt lat="44.3398880" lon="9.1591680">
	<ele>95.80</ele>
	<time>2022-05-14T05:43:45.000Z</time>
</trkpt>
<trkpt lat="44.3398390" lon="9.1592210">
	<ele>96.20</ele>
	<time>2022-05-14T05:43:50.000Z</time>
</trkpt>
<trkpt lat="44.3398150" lon="9.1592520">
	<ele>96.80</ele>
	<time>2022-05-14T05:43:55.000Z</time>
</trkpt>
<trkpt lat="44.3397960" lon="9.1592540">
	<ele>97.20</ele>
	<time>2022-05-14T05:43:58.000Z</time>
</trkpt>
<trkpt lat="44.3397920" lon="9.1592590">
	<ele>97.40</ele>
	<time>2022-05-14T05:43:59.000Z</time>
</trkpt>
<trkpt lat="44.3397790" lon="9.1592770">
	<ele>97.60</ele>
	<time>2022-05-14T05:44:01.000Z</time>
</trkpt>
<trkpt lat="44.3397380" lon="9.1593260">
	<ele>98.00</ele>
	<time>2022-05-14T05:44:06.000Z</time>
</trkpt>
<trkpt lat="44.3397090" lon="9.1593470">
	<ele>98.20</ele>
	<time>2022-05-14T05:44:09.000Z</time>
</trkpt>
<trkpt lat="44.3396990" lon="9.1593550">
	<ele>98.40</ele>
	<time>2022-05-14T05:44:10.000Z</time>
</trkpt>
<trkpt lat="44.3396790" lon="9.1593740">
	<ele>98.60</ele>
	<time>2022-05-14T05:44:12.000Z</time>
</trkpt>
<trkpt lat="44.3396590" lon="9.1593860">
	<ele>99.20</ele>
	<time>2022-05-14T05:44:16.000Z</time>
</trkpt>
<trkpt lat="44.3396550" lon="9.1593910">
	<ele>99.20</ele>
	<time>2022-05-14T05:44:17.000Z</time>
</trkpt>
<trkpt lat="44.3396260" lon="9.1594060">
	<ele>99.60</ele>
	<time>2022-05-14T05:44:20.000Z</time>
</trkpt>
<trkpt lat="44.3396210" lon="9.1594050">
	<ele>99.80</ele>
	<time>2022-05-14T05:44:21.000Z</time>
</trkpt>
<trkpt lat="44.3395770" lon="9.1594160">
	<ele>100.80</ele>
	<time>2022-05-14T05:44:26.000Z</time>
</trkpt>
<trkpt lat="44.3395710" lon="9.1594150">
	<ele>101.00</ele>
	<time>2022-05-14T05:44:27.000Z</time>
</trkpt>
<trkpt lat="44.3395650" lon="9.1594070">
	<ele>101.20</ele>
	<time>2022-05-14T05:44:28.000Z</time>
</trkpt>
<trkpt lat="44.3395600" lon="9.1594060">
	<ele>101.40</ele>
	<time>2022-05-14T05:44:29.000Z</time>
</trkpt>
<trkpt lat="44.3395450" lon="9.1594010">
	<ele>101.80</ele>
	<time>2022-05-14T05:44:31.000Z</time>
</trkpt>
<trkpt lat="44.3395250" lon="9.1593800">
	<ele>102.40</ele>
	<time>2022-05-14T05:44:34.000Z</time>
</trkpt>
<trkpt lat="44.3395140" lon="9.1593670">
	<ele>102.80</ele>
	<time>2022-05-14T05:44:37.000Z</time>
</trkpt>
<trkpt lat="44.3395080" lon="9.1593600">
	<ele>103.00</ele>
	<time>2022-05-14T05:44:38.000Z</time>
</trkpt>
<trkpt lat="44.3394810" lon="9.1593590">
	<ele>103.80</ele>
	<time>2022-05-14T05:44:43.000Z</time>
</trkpt>
<trkpt lat="44.3394810" lon="9.1593630">
	<ele>104.00</ele>
	<time>2022-05-14T05:44:44.000Z</time>
</trkpt>
<trkpt lat="44.3394790" lon="9.1593700">
	<ele>104.00</ele>
	<time>2022-05-14T05:44:45.000Z</time>
</trkpt>
<trkpt lat="44.3394250" lon="9.1594040">
	<ele>104.80</ele>
	<time>2022-05-14T05:44:51.000Z</time>
</trkpt>
<trkpt lat="44.3394030" lon="9.1594110">
	<ele>105.20</ele>
	<time>2022-05-14T05:44:53.000Z</time>
</trkpt>
<trkpt lat="44.3393650" lon="9.1594440">
	<ele>105.60</ele>
	<time>2022-05-14T05:44:57.000Z</time>
</trkpt>
<trkpt lat="44.3393510" lon="9.1594540">
	<ele>105.60</ele>
	<time>2022-05-14T05:44:58.000Z</time>
</trkpt>
<trkpt lat="44.3393270" lon="9.1594620">
	<ele>106.20</ele>
	<time>2022-05-14T05:45:02.000Z</time>
</trkpt>
<trkpt lat="44.3393280" lon="9.1594590">
	<ele>106.40</ele>
	<time>2022-05-14T05:45:03.000Z</time>
</trkpt>
<trkpt lat="44.3393280" lon="9.1594480">
	<ele>106.60</ele>
	<time>2022-05-14T05:45:04.000Z</time>
</trkpt>
<trkpt lat="44.3393270" lon="9.1594400">
	<ele>106.80</ele>
	<time>2022-05-14T05:45:05.000Z</time>
</trkpt>
<trkpt lat="44.3393210" lon="9.1594400">
	<ele>107.00</ele>
	<time>2022-05-14T05:45:07.000Z</time>
</trkpt>
<trkpt lat="44.3393170" lon="9.1594380">
	<ele>107.40</ele>
	<time>2022-05-14T05:45:08.000Z</time>
</trkpt>
<trkpt lat="44.3393120" lon="9.1594240">
	<ele>108.20</ele>
	<time>2022-05-14T05:45:11.000Z</time>
</trkpt>
<trkpt lat="44.3393020" lon="9.1594060">
	<ele>108.40</ele>
	<time>2022-05-14T05:45:13.000Z</time>
</trkpt>
<trkpt lat="44.3392620" lon="9.1593640">
	<ele>109.60</ele>
	<time>2022-05-14T05:45:20.000Z</time>
</trkpt>
<trkpt lat="44.3392560" lon="9.1593610">
	<ele>109.80</ele>
	<time>2022-05-14T05:45:21.000Z</time>
</trkpt>
<trkpt lat="44.3392250" lon="9.1593600">
	<ele>110.80</ele>
	<time>2022-05-14T05:45:25.000Z</time>
</trkpt>
<trkpt lat="44.3391850" lon="9.1593660">
	<ele>111.40</ele>
	<time>2022-05-14T05:45:28.000Z</time>
</trkpt>
<trkpt lat="44.3391330" lon="9.1593930">
	<ele>111.80</ele>
	<time>2022-05-14T05:45:33.000Z</time>
</trkpt>
<trkpt lat="44.3391290" lon="9.1594020">
	<ele>111.80</ele>
	<time>2022-05-14T05:45:34.000Z</time>
</trkpt>
<trkpt lat="44.3390760" lon="9.1594500">
	<ele>112.60</ele>
	<time>2022-05-14T05:45:41.000Z</time>
</trkpt>
<trkpt lat="44.3390670" lon="9.1594670">
	<ele>112.80</ele>
	<time>2022-05-14T05:45:42.000Z</time>
</trkpt>
<trkpt lat="44.3390640" lon="9.1594780">
	<ele>113.00</ele>
	<time>2022-05-14T05:45:43.000Z</time>
</trkpt>
<trkpt lat="44.3390280" lon="9.1595440">
	<ele>113.60</ele>
	<time>2022-05-14T05:45:49.000Z</time>
</trkpt>
<trkpt lat="44.3390080" lon="9.1595720">
	<ele>113.80</ele>
	<time>2022-05-14T05:45:52.000Z</time>
</trkpt>
<trkpt lat="44.3389670" lon="9.1596000">
	<ele>114.00</ele>
	<time>2022-05-14T05:45:55.000Z</time>
</trkpt>
<trkpt lat="44.3389550" lon="9.1596130">
	<ele>114.00</ele>
	<time>2022-05-14T05:45:56.000Z</time>
</trkpt>
<trkpt lat="44.3388930" lon="9.1596480">
	<ele>114.60</ele>
	<time>2022-05-14T05:46:01.000Z</time>
</trkpt>
<trkpt lat="44.3388650" lon="9.1596400">
	<ele>114.80</ele>
	<time>2022-05-14T05:46:03.000Z</time>
</trkpt>
<trkpt lat="44.3388430" lon="9.1596390">
	<ele>115.00</ele>
	<time>2022-05-14T05:46:05.000Z</time>
</trkpt>
<trkpt lat="44.3388300" lon="9.1596550">
	<ele>115.20</ele>
	<time>2022-05-14T05:46:06.000Z</time>
</trkpt>
<trkpt lat="44.3388170" lon="9.1596700">
	<ele>115.60</ele>
	<time>2022-05-14T05:46:08.000Z</time>
</trkpt>
<trkpt lat="44.3387930" lon="9.1596680">
	<ele>116.00</ele>
	<time>2022-05-14T05:46:11.000Z</time>
</trkpt>
<trkpt lat="44.3387780" lon="9.1596690">
	<ele>116.20</ele>
	<time>2022-05-14T05:46:13.000Z</time>
</trkpt>
<trkpt lat="44.3387750" lon="9.1596770">
	<ele>116.40</ele>
	<time>2022-05-14T05:46:14.000Z</time>
</trkpt>
<trkpt lat="44.3387550" lon="9.1597010">
	<ele>116.80</ele>
	<time>2022-05-14T05:46:17.000Z</time>
</trkpt>
<trkpt lat="44.3387440" lon="9.1597080">
	<ele>117.00</ele>
	<time>2022-05-14T05:46:18.000Z</time>
</trkpt>
<trkpt lat="44.3387250" lon="9.1597200">
	<ele>117.40</ele>
	<time>2022-05-14T05:46:20.000Z</time>
</trkpt>
<trkpt lat="44.3387100" lon="9.1597140">
	<ele>117.80</ele>
	<time>2022-05-14T05:46:23.000Z</time>
</trkpt>
<trkpt lat="44.3387040" lon="9.1597130">
	<ele>118.20</ele>
	<time>2022-05-14T05:46:25.000Z</time>
</trkpt>
<trkpt lat="44.3387000" lon="9.1597190">
	<ele>118.40</ele>
	<time>2022-05-14T05:46:26.000Z</time>
</trkpt>
<trkpt lat="44.3386980" lon="9.1597280">
	<ele>118.60</ele>
	<time>2022-05-14T05:46:27.000Z</time>
</trkpt>
<trkpt lat="44.3386920" lon="9.1597380">
	<ele>119.00</ele>
	<time>2022-05-14T05:46:29.000Z</time>
</trkpt>
<trkpt lat="44.3386810" lon="9.1597570">
	<ele>119.40</ele>
	<time>2022-05-14T05:46:31.000Z</time>
</trkpt>
<trkpt lat="44.3386700" lon="9.1597550">
	<ele>119.60</ele>
	<time>2022-05-14T05:46:33.000Z</time>
</trkpt>
<trkpt lat="44.3386680" lon="9.1597480">
	<ele>119.80</ele>
	<time>2022-05-14T05:46:34.000Z</time>
</trkpt>
<trkpt lat="44.3386670" lon="9.1597410">
	<ele>119.80</ele>
	<time>2022-05-14T05:46:35.000Z</time>
</trkpt>
<trkpt lat="44.3386680" lon="9.1597200">
	<ele>120.40</ele>
	<time>2022-05-14T05:46:38.000Z</time>
</trkpt>
<trkpt lat="44.3386660" lon="9.1596900">
	<ele>121.40</ele>
	<time>2022-05-14T05:46:43.000Z</time>
</trkpt>
<trkpt lat="44.3386700" lon="9.1596590">
	<ele>122.20</ele>
	<time>2022-05-14T05:46:48.000Z</time>
</trkpt>
<trkpt lat="44.3386740" lon="9.1596480">
	<ele>122.60</ele>
	<time>2022-05-14T05:46:50.000Z</time>
</trkpt>
<trkpt lat="44.3386530" lon="9.1596430">
	<ele>123.60</ele>
	<time>2022-05-14T05:46:55.000Z</time>
</trkpt>
<trkpt lat="44.3386280" lon="9.1596270">
	<ele>124.60</ele>
	<time>2022-05-14T05:47:00.000Z</time>
</trkpt>
<trkpt lat="44.3386110" lon="9.1596060">
	<ele>125.40</ele>
	<time>2022-05-14T05:47:03.000Z</time>
</trkpt>
<trkpt lat="44.3386040" lon="9.1595940">
	<ele>125.80</ele>
	<time>2022-05-14T05:47:05.000Z</time>
</trkpt>
<trkpt lat="44.3385350" lon="9.1595970">
	<ele>126.80</ele>
	<time>2022-05-14T05:47:11.000Z</time>
</trkpt>
<trkpt lat="44.3385020" lon="9.1595930">
	<ele>127.60</ele>
	<time>2022-05-14T05:47:16.000Z</time>
</trkpt>
<trkpt lat="44.3384890" lon="9.1595850">
	<ele>128.00</ele>
	<time>2022-05-14T05:47:18.000Z</time>
</trkpt>
<trkpt lat="44.3384680" lon="9.1595700">
	<ele>128.40</ele>
	<time>2022-05-14T05:47:22.000Z</time>
</trkpt>
<trkpt lat="44.3384480" lon="9.1595470">
	<ele>129.00</ele>
	<time>2022-05-14T05:47:26.000Z</time>
</trkpt>
<trkpt lat="44.3384310" lon="9.1595510">
	<ele>129.20</ele>
	<time>2022-05-14T05:47:28.000Z</time>
</trkpt>
<trkpt lat="44.3383770" lon="9.1595400">
	<ele>129.60</ele>
	<time>2022-05-14T05:47:34.000Z</time>
</trkpt>
<trkpt lat="44.3383590" lon="9.1595290">
	<ele>130.00</ele>
	<time>2022-05-14T05:47:37.000Z</time>
</trkpt>
<trkpt lat="44.3383450" lon="9.1595370">
	<ele>130.40</ele>
	<time>2022-05-14T05:47:40.000Z</time>
</trkpt>
<trkpt lat="44.3383360" lon="9.1595420">
	<ele>130.60</ele>
	<time>2022-05-14T05:47:43.000Z</time>
</trkpt>
<trkpt lat="44.3383220" lon="9.1595400">
	<ele>131.00</ele>
	<time>2022-05-14T05:47:46.000Z</time>
</trkpt>
<trkpt lat="44.3383120" lon="9.1595410">
	<ele>131.20</ele>
	<time>2022-05-14T05:47:49.000Z</time>
</trkpt>
<trkpt lat="44.3383010" lon="9.1595490">
	<ele>131.80</ele>
	<time>2022-05-14T05:47:52.000Z</time>
</trkpt>
<trkpt lat="44.3383130" lon="9.1595390">
	<ele>132.00</ele>
	<time>2022-05-14T05:47:54.000Z</time>
</trkpt>
<trkpt lat="44.3383090" lon="9.1595400">
	<ele>132.20</ele>
	<time>2022-05-14T05:47:55.000Z</time>
</trkpt>
<trkpt lat="44.3382820" lon="9.1595490">
	<ele>132.80</ele>
	<time>2022-05-14T05:47:58.000Z</time>
</trkpt>
<trkpt lat="44.3382550" lon="9.1595520">
	<ele>133.20</ele>
	<time>2022-05-14T05:48:01.000Z</time>
</trkpt>
<trkpt lat="44.3382540" lon="9.1595520">
	<ele>133.40</ele>
	<time>2022-05-14T05:48:02.000Z</time>
</trkpt>
<trkpt lat="44.3382080" lon="9.1595410">
	<ele>134.20</ele>
	<time>2022-05-14T05:48:07.000Z</time>
</trkpt>
<trkpt lat="44.3382040" lon="9.1595230">
	<ele>134.40</ele>
	<time>2022-05-14T05:48:08.000Z</time>
</trkpt>
<trkpt lat="44.3381540" lon="9.1595450">
	<ele>135.20</ele>
	<time>2022-05-14T05:48:13.000Z</time>
</trkpt>
<trkpt lat="44.3381330" lon="9.1595610">
	<ele>135.60</ele>
	<time>2022-05-14T05:48:15.000Z</time>
</trkpt>
<trkpt lat="44.3381270" lon="9.1595530">
	<ele>136.00</ele>
	<time>2022-05-14T05:48:17.000Z</time>
</trkpt>
<trkpt lat="44.3381270" lon="9.1595270">
	<ele>136.60</ele>
	<time>2022-05-14T05:48:20.000Z</time>
</trkpt>
<trkpt lat="44.3380950" lon="9.1595290">
	<ele>137.40</ele>
	<time>2022-05-14T05:48:24.000Z</time>
</trkpt>
<trkpt lat="44.3380730" lon="9.1595480">
	<ele>137.80</ele>
	<time>2022-05-14T05:48:26.000Z</time>
</trkpt>
<trkpt lat="44.3380560" lon="9.1595510">
	<ele>138.40</ele>
	<time>2022-05-14T05:48:30.000Z</time>
</trkpt>
<trkpt lat="44.3380280" lon="9.1595810">
	<ele>139.00</ele>
	<time>2022-05-14T05:48:33.000Z</time>
</trkpt>
<trkpt lat="44.3379890" lon="9.1596030">
	<ele>139.40</ele>
	<time>2022-05-14T05:48:37.000Z</time>
</trkpt>
<trkpt lat="44.3379290" lon="9.1596320">
	<ele>140.00</ele>
	<time>2022-05-14T05:48:43.000Z</time>
</trkpt>
<trkpt lat="44.3379180" lon="9.1596320">
	<ele>140.00</ele>
	<time>2022-05-14T05:48:44.000Z</time>
</trkpt>
<trkpt lat="44.3378820" lon="9.1596220">
	<ele>141.00</ele>
	<time>2022-05-14T05:48:50.000Z</time>
</trkpt>
<trkpt lat="44.3378800" lon="9.1596090">
	<ele>141.20</ele>
	<time>2022-05-14T05:48:51.000Z</time>
</trkpt>
<trkpt lat="44.3378760" lon="9.1596070">
	<ele>142.20</ele>
	<time>2022-05-14T05:48:56.000Z</time>
</trkpt>
<trkpt lat="44.3379070" lon="9.1595460">
	<ele>143.40</ele>
	<time>2022-05-14T05:49:03.000Z</time>
</trkpt>
<trkpt lat="44.3379120" lon="9.1595370">
	<ele>143.60</ele>
	<time>2022-05-14T05:49:04.000Z</time>
</trkpt>
<trkpt lat="44.3379520" lon="9.1594790">
	<ele>144.40</ele>
	<time>2022-05-14T05:49:11.000Z</time>
</trkpt>
<trkpt lat="44.3379540" lon="9.1594680">
	<ele>144.60</ele>
	<time>2022-05-14T05:49:12.000Z</time>
</trkpt>
<trkpt lat="44.3379720" lon="9.1594220">
	<ele>145.40</ele>
	<time>2022-05-14T05:49:17.000Z</time>
</trkpt>
<trkpt lat="44.3379770" lon="9.1593990">
	<ele>146.00</ele>
	<time>2022-05-14T05:49:21.000Z</time>
</trkpt>
<trkpt lat="44.3379900" lon="9.1593710">
	<ele>146.60</ele>
	<time>2022-05-14T05:49:25.000Z</time>
</trkpt>
<trkpt lat="44.3379930" lon="9.1593550">
	<ele>147.20</ele>
	<time>2022-05-14T05:49:28.000Z</time>
</trkpt>
<trkpt lat="44.3379970" lon="9.1593160">
	<ele>147.80</ele>
	<time>2022-05-14T05:49:31.000Z</time>
</trkpt>
<trkpt lat="44.3379960" lon="9.1593030">
	<ele>148.20</ele>
	<time>2022-05-14T05:49:34.000Z</time>
</trkpt>
<trkpt lat="44.3379890" lon="9.1592630">
	<ele>148.80</ele>
	<time>2022-05-14T05:49:38.000Z</time>
</trkpt>
<trkpt lat="44.3380050" lon="9.1591890">
	<ele>150.00</ele>
	<time>2022-05-14T05:49:43.000Z</time>
</trkpt>
<trkpt lat="44.3380020" lon="9.1591270">
	<ele>151.00</ele>
	<time>2022-05-14T05:49:50.000Z</time>
</trkpt>
<trkpt lat="44.3379810" lon="9.1591060">
	<ele>151.80</ele>
	<time>2022-05-14T05:49:55.000Z</time>
</trkpt>
<trkpt lat="44.3379690" lon="9.1590950">
	<ele>152.20</ele>
	<time>2022-05-14T05:49:57.000Z</time>
</trkpt>
<trkpt lat="44.3379590" lon="9.1590800">
	<ele>152.80</ele>
	<time>2022-05-14T05:50:00.000Z</time>
</trkpt>
<trkpt lat="44.3379460" lon="9.1590730">
	<ele>153.20</ele>
	<time>2022-05-14T05:50:02.000Z</time>
</trkpt>
<trkpt lat="44.3379360" lon="9.1590500">
	<ele>154.00</ele>
	<time>2022-05-14T05:50:07.000Z</time>
</trkpt>
<trkpt lat="44.3379300" lon="9.1590480">
	<ele>154.40</ele>
	<time>2022-05-14T05:50:09.000Z</time>
</trkpt>
<trkpt lat="44.3379280" lon="9.1590340">
	<ele>155.60</ele>
	<time>2022-05-14T05:50:15.000Z</time>
</trkpt>
<trkpt lat="44.3379200" lon="9.1590340">
	<ele>155.80</ele>
	<time>2022-05-14T05:50:16.000Z</time>
</trkpt>
<trkpt lat="44.3379040" lon="9.1590040">
	<ele>156.60</ele>
	<time>2022-05-14T05:50:21.000Z</time>
</trkpt>
<trkpt lat="44.3378980" lon="9.1590070">
	<ele>156.80</ele>
	<time>2022-05-14T05:50:22.000Z</time>
</trkpt>
<trkpt lat="44.3378800" lon="9.1590090">
	<ele>157.80</ele>
	<time>2022-05-14T05:50:27.000Z</time>
</trkpt>
<trkpt lat="44.3378730" lon="9.1590120">
	<ele>158.00</ele>
	<time>2022-05-14T05:50:28.000Z</time>
</trkpt>
<trkpt lat="44.3378650" lon="9.1589950">
	<ele>159.00</ele>
	<time>2022-05-14T05:50:33.000Z</time>
</trkpt>
<trkpt lat="44.3378370" lon="9.1589890">
	<ele>160.00</ele>
	<time>2022-05-14T05:50:38.000Z</time>
</trkpt>
<trkpt lat="44.3378310" lon="9.1589900">
	<ele>160.20</ele>
	<time>2022-05-14T05:50:39.000Z</time>
</trkpt>
<trkpt lat="44.3378110" lon="9.1589760">
	<ele>161.20</ele>
	<time>2022-05-14T05:50:45.000Z</time>
</trkpt>
<trkpt lat="44.3378100" lon="9.1589750">
	<ele>161.40</ele>
	<time>2022-05-14T05:50:46.000Z</time>
</trkpt>
<trkpt lat="44.3377960" lon="9.1589900">
	<ele>162.20</ele>
	<time>2022-05-14T05:50:50.000Z</time>
</trkpt>
<trkpt lat="44.3377900" lon="9.1590000">
	<ele>162.40</ele>
	<time>2022-05-14T05:50:52.000Z</time>
</trkpt>
<trkpt lat="44.3377830" lon="9.1590000">
	<ele>162.40</ele>
	<time>2022-05-14T05:50:53.000Z</time>
</trkpt>
<trkpt lat="44.3377670" lon="9.1590230">
	<ele>163.20</ele>
	<time>2022-05-14T05:50:56.000Z</time>
</trkpt>
<trkpt lat="44.3377600" lon="9.1590250">
	<ele>163.40</ele>
	<time>2022-05-14T05:50:57.000Z</time>
</trkpt>
<trkpt lat="44.3377540" lon="9.1590250">
	<ele>163.60</ele>
	<time>2022-05-14T05:50:58.000Z</time>
</trkpt>
<trkpt lat="44.3377510" lon="9.1590210">
	<ele>163.80</ele>
	<time>2022-05-14T05:50:59.000Z</time>
</trkpt>
<trkpt lat="44.3377420" lon="9.1590050">
	<ele>164.40</ele>
	<time>2022-05-14T05:51:02.000Z</time>
</trkpt>
<trkpt lat="44.3377360" lon="9.1590070">
	<ele>164.60</ele>
	<time>2022-05-14T05:51:03.000Z</time>
</trkpt>
<trkpt lat="44.3377150" lon="9.1590240">
	<ele>164.80</ele>
	<time>2022-05-14T05:51:04.000Z</time>
</trkpt>
<trkpt lat="44.3376600" lon="9.1590340">
	<ele>165.20</ele>
	<time>2022-05-14T05:51:09.000Z</time>
</trkpt>
<trkpt lat="44.3376400" lon="9.1590040">
	<ele>165.60</ele>
	<time>2022-05-14T05:51:12.000Z</time>
</trkpt>
<trkpt lat="44.3376340" lon="9.1589750">
	<ele>165.80</ele>
	<time>2022-05-14T05:51:14.000Z</time>
</trkpt>
<trkpt lat="44.3376250" lon="9.1589730">
	<ele>165.80</ele>
	<time>2022-05-14T05:51:15.000Z</time>
</trkpt>
<trkpt lat="44.3376150" lon="9.1589620">
	<ele>166.00</ele>
	<time>2022-05-14T05:51:18.000Z</time>
</trkpt>
<trkpt lat="44.3376160" lon="9.1589630">
	<ele>166.00</ele>
	<time>2022-05-14T05:51:20.000Z</time>
</trkpt>
<trkpt lat="44.3376050" lon="9.1589780">
	<ele>166.20</ele>
	<time>2022-05-14T05:51:29.000Z</time>
</trkpt>
<trkpt lat="44.3375940" lon="9.1590010">
	<ele>166.20</ele>
	<time>2022-05-14T05:51:35.000Z</time>
</trkpt>
<trkpt lat="44.3375940" lon="9.1590010">
	<ele>166.20</ele>
	<time>2022-05-14T05:51:41.000Z</time>
</trkpt>
<trkpt lat="44.3375940" lon="9.1589930">
	<ele>166.80</ele>
	<time>2022-05-14T05:51:47.000Z</time>
</trkpt>
<trkpt lat="44.3375820" lon="9.1589820">
	<ele>167.60</ele>
	<time>2022-05-14T05:51:53.000Z</time>
</trkpt>
<trkpt lat="44.3375810" lon="9.1589790">
	<ele>167.80</ele>
	<time>2022-05-14T05:51:54.000Z</time>
</trkpt>
<trkpt lat="44.3375690" lon="9.1589420">
	<ele>168.80</ele>
	<time>2022-05-14T05:52:00.000Z</time>
</trkpt>
<trkpt lat="44.3375620" lon="9.1589110">
	<ele>169.60</ele>
	<time>2022-05-14T05:52:04.000Z</time>
</trkpt>
<trkpt lat="44.3375460" lon="9.1589010">
	<ele>170.00</ele>
	<time>2022-05-14T05:52:07.000Z</time>
</trkpt>
<trkpt lat="44.3375290" lon="9.1588750">
	<ele>171.00</ele>
	<time>2022-05-14T05:52:13.000Z</time>
</trkpt>
<trkpt lat="44.3374790" lon="9.1588350">
	<ele>172.20</ele>
	<time>2022-05-14T05:52:20.000Z</time>
</trkpt>
<trkpt lat="44.3374180" lon="9.1587960">
	<ele>173.00</ele>
	<time>2022-05-14T05:52:26.000Z</time>
</trkpt>
<trkpt lat="44.3373970" lon="9.1587960">
	<ele>173.40</ele>
	<time>2022-05-14T05:52:28.000Z</time>
</trkpt>
<trkpt lat="44.3373760" lon="9.1587780">
	<ele>173.80</ele>
	<time>2022-05-14T05:52:31.000Z</time>
</trkpt>
<trkpt lat="44.3373260" lon="9.1588070">
	<ele>174.40</ele>
	<time>2022-05-14T05:52:35.000Z</time>
</trkpt>
<trkpt lat="44.3372930" lon="9.1588140">
	<ele>174.80</ele>
	<time>2022-05-14T05:52:38.000Z</time>
</trkpt>
<trkpt lat="44.3372500" lon="9.1588240">
	<ele>175.60</ele>
	<time>2022-05-14T05:52:42.000Z</time>
</trkpt>
<trkpt lat="44.3372390" lon="9.1588210">
	<ele>176.00</ele>
	<time>2022-05-14T05:52:44.000Z</time>
</trkpt>
<trkpt lat="44.3372280" lon="9.1588070">
	<ele>176.80</ele>
	<time>2022-05-14T05:52:49.000Z</time>
</trkpt>
<trkpt lat="44.3372170" lon="9.1588050">
	<ele>177.20</ele>
	<time>2022-05-14T05:52:52.000Z</time>
</trkpt>
<trkpt lat="44.3372030" lon="9.1588040">
	<ele>177.80</ele>
	<time>2022-05-14T05:52:55.000Z</time>
</trkpt>
<trkpt lat="44.3371960" lon="9.1587810">
	<ele>178.40</ele>
	<time>2022-05-14T05:52:58.000Z</time>
</trkpt>
<trkpt lat="44.3371900" lon="9.1587670">
	<ele>179.00</ele>
	<time>2022-05-14T05:53:02.000Z</time>
</trkpt>
<trkpt lat="44.3371830" lon="9.1587300">
	<ele>180.20</ele>
	<time>2022-05-14T05:53:07.000Z</time>
</trkpt>
<trkpt lat="44.3371850" lon="9.1587240">
	<ele>180.20</ele>
	<time>2022-05-14T05:53:08.000Z</time>
</trkpt>
<trkpt lat="44.3371920" lon="9.1586930">
	<ele>181.20</ele>
	<time>2022-05-14T05:53:13.000Z</time>
</trkpt>
<trkpt lat="44.3372010" lon="9.1586810">
	<ele>182.00</ele>
	<time>2022-05-14T05:53:18.000Z</time>
</trkpt>
<trkpt lat="44.3372130" lon="9.1586730">
	<ele>182.40</ele>
	<time>2022-05-14T05:53:20.000Z</time>
</trkpt>
<trkpt lat="44.3372150" lon="9.1586810">
	<ele>183.20</ele>
	<time>2022-05-14T05:53:24.000Z</time>
</trkpt>
<trkpt lat="44.3372220" lon="9.1586870">
	<ele>183.40</ele>
	<time>2022-05-14T05:53:26.000Z</time>
</trkpt>
<trkpt lat="44.3372350" lon="9.1586810">
	<ele>184.20</ele>
	<time>2022-05-14T05:53:30.000Z</time>
</trkpt>
<trkpt lat="44.3372400" lon="9.1586740">
	<ele>184.60</ele>
	<time>2022-05-14T05:53:31.000Z</time>
</trkpt>
<trkpt lat="44.3372710" lon="9.1586580">
	<ele>185.00</ele>
	<time>2022-05-14T05:53:35.000Z</time>
</trkpt>
<trkpt lat="44.3372810" lon="9.1586400">
	<ele>185.60</ele>
	<time>2022-05-14T05:53:37.000Z</time>
</trkpt>
<trkpt lat="44.3372970" lon="9.1585970">
	<ele>186.20</ele>
	<time>2022-05-14T05:53:42.000Z</time>
</trkpt>
<trkpt lat="44.3373080" lon="9.1585800">
	<ele>186.60</ele>
	<time>2022-05-14T05:53:44.000Z</time>
</trkpt>
<trkpt lat="44.3373280" lon="9.1585360">
	<ele>187.60</ele>
	<time>2022-05-14T05:53:49.000Z</time>
</trkpt>
<trkpt lat="44.3373320" lon="9.1585210">
	<ele>188.00</ele>
	<time>2022-05-14T05:53:50.000Z</time>
</trkpt>
<trkpt lat="44.3373370" lon="9.1584420">
	<ele>189.00</ele>
	<time>2022-05-14T05:53:56.000Z</time>
</trkpt>
<trkpt lat="44.3373400" lon="9.1584180">
	<ele>189.20</ele>
	<time>2022-05-14T05:53:58.000Z</time>
</trkpt>
<trkpt lat="44.3373480" lon="9.1583590">
	<ele>190.00</ele>
	<time>2022-05-14T05:54:03.000Z</time>
</trkpt>
<trkpt lat="44.3373660" lon="9.1583200">
	<ele>190.40</ele>
	<time>2022-05-14T05:54:06.000Z</time>
</trkpt>
<trkpt lat="44.3373800" lon="9.1583110">
	<ele>191.00</ele>
	<time>2022-05-14T05:54:10.000Z</time>
</trkpt>
<trkpt lat="44.3373970" lon="9.1583060">
	<ele>191.60</ele>
	<time>2022-05-14T05:54:12.000Z</time>
</trkpt>
<trkpt lat="44.3374040" lon="9.1582680">
	<ele>192.20</ele>
	<time>2022-05-14T05:54:17.000Z</time>
</trkpt>
<trkpt lat="44.3374080" lon="9.1582610">
	<ele>192.40</ele>
	<time>2022-05-14T05:54:19.000Z</time>
</trkpt>
<trkpt lat="44.3374340" lon="9.1582230">
	<ele>193.20</ele>
	<time>2022-05-14T05:54:24.000Z</time>
</trkpt>
<trkpt lat="44.3374310" lon="9.1582210">
	<ele>193.60</ele>
	<time>2022-05-14T05:54:26.000Z</time>
</trkpt>
<trkpt lat="44.3374020" lon="9.1581860">
	<ele>194.20</ele>
	<time>2022-05-14T05:54:31.000Z</time>
</trkpt>
<trkpt lat="44.3373960" lon="9.1581820">
	<ele>194.40</ele>
	<time>2022-05-14T05:54:32.000Z</time>
</trkpt>
<trkpt lat="44.3373710" lon="9.1581700">
	<ele>195.40</ele>
	<time>2022-05-14T05:54:37.000Z</time>
</trkpt>
<trkpt lat="44.3373680" lon="9.1581690">
	<ele>195.60</ele>
	<time>2022-05-14T05:54:38.000Z</time>
</trkpt>
<trkpt lat="44.3373400" lon="9.1581500">
	<ele>196.60</ele>
	<time>2022-05-14T05:54:44.000Z</time>
</trkpt>
<trkpt lat="44.3373250" lon="9.1581490">
	<ele>197.20</ele>
	<time>2022-05-14T05:54:47.000Z</time>
</trkpt>
<trkpt lat="44.3373190" lon="9.1581540">
	<ele>197.60</ele>
	<time>2022-05-14T05:54:50.000Z</time>
</trkpt>
<trkpt lat="44.3372870" lon="9.1581730">
	<ele>198.20</ele>
	<time>2022-05-14T05:54:54.000Z</time>
</trkpt>
<trkpt lat="44.3372490" lon="9.1582030">
	<ele>198.40</ele>
	<time>2022-05-14T05:54:59.000Z</time>
</trkpt>
<trkpt lat="44.3372320" lon="9.1582150">
	<ele>198.60</ele>
	<time>2022-05-14T05:55:04.000Z</time>
</trkpt>
<trkpt lat="44.3372040" lon="9.1582170">
	<ele>198.60</ele>
	<time>2022-05-14T05:55:08.000Z</time>
</trkpt>
<trkpt lat="44.3371680" lon="9.1582390">
	<ele>198.60</ele>
	<time>2022-05-14T05:55:10.000Z</time>
</trkpt>
<trkpt lat="44.3371320" lon="9.1582190">
	<ele>198.80</ele>
	<time>2022-05-14T05:55:15.000Z</time>
</trkpt>
<trkpt lat="44.3370980" lon="9.1582730">
	<ele>198.80</ele>
	<time>2022-05-14T05:55:21.000Z</time>
</trkpt>
<trkpt lat="44.3370510" lon="9.1582800">
	<ele>199.00</ele>
	<time>2022-05-14T05:55:25.000Z</time>
</trkpt>
<trkpt lat="44.3370460" lon="9.1582810">
	<ele>199.20</ele>
	<time>2022-05-14T05:55:27.000Z</time>
</trkpt>
<trkpt lat="44.3370340" lon="9.1582860">
	<ele>199.80</ele>
	<time>2022-05-14T05:55:30.000Z</time>
</trkpt>
<trkpt lat="44.3370220" lon="9.1582920">
	<ele>200.60</ele>
	<time>2022-05-14T05:55:33.000Z</time>
</trkpt>
<trkpt lat="44.3370220" lon="9.1582800">
	<ele>200.80</ele>
	<time>2022-05-14T05:55:35.000Z</time>
</trkpt>
<trkpt lat="44.3369970" lon="9.1582930">
	<ele>201.40</ele>
	<time>2022-05-14T05:55:38.000Z</time>
</trkpt>
<trkpt lat="44.3369820" lon="9.1582590">
	<ele>202.00</ele>
	<time>2022-05-14T05:55:41.000Z</time>
</trkpt>
<trkpt lat="44.3369720" lon="9.1582320">
	<ele>202.00</ele>
	<time>2022-05-14T05:55:43.000Z</time>
</trkpt>
<trkpt lat="44.3369020" lon="9.1581730">
	<ele>202.20</ele>
	<time>2022-05-14T05:55:50.000Z</time>
</trkpt>
<trkpt lat="44.3368880" lon="9.1581440">
	<ele>202.00</ele>
	<time>2022-05-14T05:55:54.000Z</time>
</trkpt>
<trkpt lat="44.3368910" lon="9.1581470">
	<ele>202.00</ele>
	<time>2022-05-14T05:55:56.000Z</time>
</trkpt>
<trkpt lat="44.3368760" lon="9.1581380">
	<ele>202.00</ele>
	<time>2022-05-14T05:56:00.000Z</time>
</trkpt>
<trkpt lat="44.3368650" lon="9.1581500">
	<ele>202.00</ele>
	<time>2022-05-14T05:56:03.000Z</time>
</trkpt>
<trkpt lat="44.3368630" lon="9.1581550">
	<ele>202.20</ele>
	<time>2022-05-14T05:56:09.000Z</time>
</trkpt>
<trkpt lat="44.3368540" lon="9.1581600">
	<ele>201.80</ele>
	<time>2022-05-14T05:56:22.000Z</time>
</trkpt>
<trkpt lat="44.3368460" lon="9.1581600">
	<ele>201.80</ele>
	<time>2022-05-14T05:56:24.000Z</time>
</trkpt>
<trkpt lat="44.3368440" lon="9.1581600">
	<ele>201.80</ele>
	<time>2022-05-14T05:56:28.000Z</time>
</trkpt>
<trkpt lat="44.3368530" lon="9.1581460">
	<ele>202.00</ele>
	<time>2022-05-14T05:56:49.000Z</time>
</trkpt>
<trkpt lat="44.3368030" lon="9.1581260">
	<ele>202.00</ele>
	<time>2022-05-14T05:56:57.000Z</time>
</trkpt>
<trkpt lat="44.3367850" lon="9.1581270">
	<ele>202.00</ele>
	<time>2022-05-14T05:56:59.000Z</time>
</trkpt>
<trkpt lat="44.3367650" lon="9.1581130">
	<ele>202.00</ele>
	<time>2022-05-14T05:57:01.000Z</time>
</trkpt>
<trkpt lat="44.3367400" lon="9.1580880">
	<ele>201.60</ele>
	<time>2022-05-14T05:57:05.000Z</time>
</trkpt>
<trkpt lat="44.3367400" lon="9.1580840">
	<ele>201.60</ele>
	<time>2022-05-14T05:57:07.000Z</time>
</trkpt>
<trkpt lat="44.3367450" lon="9.1580810">
	<ele>201.60</ele>
	<time>2022-05-14T05:57:08.000Z</time>
</trkpt>
<trkpt lat="44.3367420" lon="9.1580510">
	<ele>201.00</ele>
	<time>2022-05-14T05:57:27.000Z</time>
</trkpt>
<trkpt lat="44.3367180" lon="9.1580320">
	<ele>201.00</ele>
	<time>2022-05-14T05:57:31.000Z</time>
</trkpt>
<trkpt lat="44.3367130" lon="9.1580300">
	<ele>201.00</ele>
	<time>2022-05-14T05:57:32.000Z</time>
</trkpt>
<trkpt lat="44.3366880" lon="9.1580300">
	<ele>201.00</ele>
	<time>2022-05-14T05:57:36.000Z</time>
</trkpt>
<trkpt lat="44.3366820" lon="9.1580350">
	<ele>201.00</ele>
	<time>2022-05-14T05:57:41.000Z</time>
</trkpt>
<trkpt lat="44.3366820" lon="9.1580350">
	<ele>201.00</ele>
	<time>2022-05-14T05:57:42.000Z</time>
</trkpt>
<trkpt lat="44.3366830" lon="9.1580320">
	<ele>200.80</ele>
	<time>2022-05-14T05:57:55.000Z</time>
</trkpt>
<trkpt lat="44.3366810" lon="9.1580320">
	<ele>201.20</ele>
	<time>2022-05-14T05:58:06.000Z</time>
</trkpt>
<trkpt lat="44.3366760" lon="9.1580340">
	<ele>201.20</ele>
	<time>2022-05-14T05:58:12.000Z</time>
</trkpt>
<trkpt lat="44.3366770" lon="9.1580200">
	<ele>201.20</ele>
	<time>2022-05-14T05:58:15.000Z</time>
</trkpt>
<trkpt lat="44.3366650" lon="9.1580410">
	<ele>201.20</ele>
	<time>2022-05-14T05:58:18.000Z</time>
</trkpt>
<trkpt lat="44.3366450" lon="9.1580320">
	<ele>201.20</ele>
	<time>2022-05-14T05:58:26.000Z</time>
</trkpt>
<trkpt lat="44.3366530" lon="9.1580310">
	<ele>201.20</ele>
	<time>2022-05-14T05:58:29.000Z</time>
</trkpt>
<trkpt lat="44.3366530" lon="9.1580320">
	<ele>201.20</ele>
	<time>2022-05-14T05:58:31.000Z</time>
</trkpt>
<trkpt lat="44.3366510" lon="9.1580290">
	<ele>201.20</ele>
	<time>2022-05-14T05:58:32.000Z</time>
</trkpt>
<trkpt lat="44.3366510" lon="9.1580280">
	<ele>201.20</ele>
	<time>2022-05-14T05:58:33.000Z</time>
</trkpt>
<trkpt lat="44.3366190" lon="9.1579810">
	<ele>201.20</ele>
	<time>2022-05-14T05:58:40.000Z</time>
</trkpt>
<trkpt lat="44.3365750" lon="9.1579290">
	<ele>201.20</ele>
	<time>2022-05-14T05:58:48.000Z</time>
</trkpt>
<trkpt lat="44.3365620" lon="9.1579250">
	<ele>201.20</ele>
	<time>2022-05-14T05:58:50.000Z</time>
</trkpt>
<trkpt lat="44.3365470" lon="9.1579210">
	<ele>201.20</ele>
	<time>2022-05-14T05:58:51.000Z</time>
</trkpt>
<trkpt lat="44.3365210" lon="9.1579040">
	<ele>201.20</ele>
	<time>2022-05-14T05:58:54.000Z</time>
</trkpt>
<trkpt lat="44.3365140" lon="9.1578980">
	<ele>201.20</ele>
	<time>2022-05-14T05:58:55.000Z</time>
</trkpt>
<trkpt lat="44.3364880" lon="9.1578970">
	<ele>201.20</ele>
	<time>2022-05-14T05:58:57.000Z</time>
</trkpt>
<trkpt lat="44.3364650" lon="9.1578970">
	<ele>200.60</ele>
	<time>2022-05-14T05:59:00.000Z</time>
</trkpt>
<trkpt lat="44.3364410" lon="9.1578750">
	<ele>199.80</ele>
	<time>2022-05-14T05:59:03.000Z</time>
</trkpt>
<trkpt lat="44.3363980" lon="9.1578750">
	<ele>199.40</ele>
	<time>2022-05-14T05:59:06.000Z</time>
</trkpt>
<trkpt lat="44.3363890" lon="9.1578710">
	<ele>199.40</ele>
	<time>2022-05-14T05:59:07.000Z</time>
</trkpt>
<trkpt lat="44.3363460" lon="9.1578820">
	<ele>198.80</ele>
	<time>2022-05-14T05:59:11.000Z</time>
</trkpt>
<trkpt lat="44.3363010" lon="9.1578840">
	<ele>198.20</ele>
	<time>2022-05-14T05:59:15.000Z</time>
</trkpt>
<trkpt lat="44.3362950" lon="9.1578930">
	<ele>198.00</ele>
	<time>2022-05-14T05:59:16.000Z</time>
</trkpt>
<trkpt lat="44.3362890" lon="9.1579030">
	<ele>197.80</ele>
	<time>2022-05-14T05:59:17.000Z</time>
</trkpt>
<trkpt lat="44.3362420" lon="9.1579460">
	<ele>197.00</ele>
	<time>2022-05-14T05:59:22.000Z</time>
</trkpt>
<trkpt lat="44.3362280" lon="9.1579550">
	<ele>196.80</ele>
	<time>2022-05-14T05:59:23.000Z</time>
</trkpt>
<trkpt lat="44.3361940" lon="9.1579680">
	<ele>196.60</ele>
	<time>2022-05-14T05:59:25.000Z</time>
</trkpt>
<trkpt lat="44.3360870" lon="9.1580140">
	<ele>195.60</ele>
	<time>2022-05-14T05:59:34.000Z</time>
</trkpt>
<trkpt lat="44.3360380" lon="9.1580190">
	<ele>195.20</ele>
	<time>2022-05-14T05:59:39.000Z</time>
</trkpt>
<trkpt lat="44.3360100" lon="9.1580040">
	<ele>195.00</ele>
	<time>2022-05-14T05:59:41.000Z</time>
</trkpt>
<trkpt lat="44.3358810" lon="9.1579690">
	<ele>195.00</ele>
	<time>2022-05-14T05:59:51.000Z</time>
</trkpt>
<trkpt lat="44.3358570" lon="9.1579630">
	<ele>195.00</ele>
	<time>2022-05-14T05:59:53.000Z</time>
</trkpt>
<trkpt lat="44.3358160" lon="9.1579560">
	<ele>195.20</ele>
	<time>2022-05-14T05:59:57.000Z</time>
</trkpt>
<trkpt lat="44.3358100" lon="9.1579500">
	<ele>195.20</ele>
	<time>2022-05-14T05:59:58.000Z</time>
</trkpt>
<trkpt lat="44.3358070" lon="9.1579460">
	<ele>195.20</ele>
	<time>2022-05-14T06:00:00.000Z</time>
</trkpt>
<trkpt lat="44.3358180" lon="9.1579310">
	<ele>195.20</ele>
	<time>2022-05-14T06:00:03.000Z</time>
</trkpt>
<trkpt lat="44.3358340" lon="9.1579630">
	<ele>195.60</ele>
	<time>2022-05-14T06:00:08.000Z</time>
</trkpt>
<trkpt lat="44.3358350" lon="9.1579660">
	<ele>195.60</ele>
	<time>2022-05-14T06:00:10.000Z</time>
</trkpt>
<trkpt lat="44.3358200" lon="9.1579680">
	<ele>195.40</ele>
	<time>2022-05-14T06:00:12.000Z</time>
</trkpt>
<trkpt lat="44.3357670" lon="9.1579880">
	<ele>195.20</ele>
	<time>2022-05-14T06:00:17.000Z</time>
</trkpt>
<trkpt lat="44.3356840" lon="9.1580090">
	<ele>195.00</ele>
	<time>2022-05-14T06:00:25.000Z</time>
</trkpt>
<trkpt lat="44.3356310" lon="9.1580230">
	<ele>195.00</ele>
	<time>2022-05-14T06:00:29.000Z</time>
</trkpt>
<trkpt lat="44.3356020" lon="9.1580550">
	<ele>195.00</ele>
	<time>2022-05-14T06:00:32.000Z</time>
</trkpt>
<trkpt lat="44.3355510" lon="9.1580610">
	<ele>195.20</ele>
	<time>2022-05-14T06:00:36.000Z</time>
</trkpt>
<trkpt lat="44.3355110" lon="9.1580750">
	<ele>195.40</ele>
	<time>2022-05-14T06:00:40.000Z</time>
</trkpt>
<trkpt lat="44.3354730" lon="9.1580940">
	<ele>195.60</ele>
	<time>2022-05-14T06:00:43.000Z</time>
</trkpt>
<trkpt lat="44.3354310" lon="9.1581010">
	<ele>195.80</ele>
	<time>2022-05-14T06:00:47.000Z</time>
</trkpt>
<trkpt lat="44.3353690" lon="9.1580880">
	<ele>195.80</ele>
	<time>2022-05-14T06:00:54.000Z</time>
</trkpt>
<trkpt lat="44.3353560" lon="9.1580850">
	<ele>195.80</ele>
	<time>2022-05-14T06:00:55.000Z</time>
</trkpt>
<trkpt lat="44.3353030" lon="9.1580680">
	<ele>195.80</ele>
	<time>2022-05-14T06:01:00.000Z</time>
</trkpt>
<trkpt lat="44.3352870" lon="9.1580620">
	<ele>195.80</ele>
	<time>2022-05-14T06:01:02.000Z</time>
</trkpt>
<trkpt lat="44.3352690" lon="9.1580560">
	<ele>195.60</ele>
	<time>2022-05-14T06:01:04.000Z</time>
</trkpt>
<trkpt lat="44.3351960" lon="9.1580340">
	<ele>195.00</ele>
	<time>2022-05-14T06:01:10.000Z</time>
</trkpt>
<trkpt lat="44.3351900" lon="9.1580360">
	<ele>194.80</ele>
	<time>2022-05-14T06:01:11.000Z</time>
</trkpt>
<trkpt lat="44.3351830" lon="9.1580360">
	<ele>194.80</ele>
	<time>2022-05-14T06:01:12.000Z</time>
</trkpt>
<trkpt lat="44.3351760" lon="9.1580390">
	<ele>194.60</ele>
	<time>2022-05-14T06:01:13.000Z</time>
</trkpt>
<trkpt lat="44.3351700" lon="9.1580450">
	<ele>194.40</ele>
	<time>2022-05-14T06:01:14.000Z</time>
</trkpt>
<trkpt lat="44.3351560" lon="9.1580450">
	<ele>194.20</ele>
	<time>2022-05-14T06:01:16.000Z</time>
</trkpt>
<trkpt lat="44.3351450" lon="9.1580390">
	<ele>193.80</ele>
	<time>2022-05-14T06:01:18.000Z</time>
</trkpt>
<trkpt lat="44.3351240" lon="9.1580470">
	<ele>193.40</ele>
	<time>2022-05-14T06:01:20.000Z</time>
</trkpt>
<trkpt lat="44.3350960" lon="9.1580460">
	<ele>193.00</ele>
	<time>2022-05-14T06:01:22.000Z</time>
</trkpt>
<trkpt lat="44.3350840" lon="9.1580490">
	<ele>192.80</ele>
	<time>2022-05-14T06:01:23.000Z</time>
</trkpt>
<trkpt lat="44.3350640" lon="9.1580620">
	<ele>192.40</ele>
	<time>2022-05-14T06:01:26.000Z</time>
</trkpt>
<trkpt lat="44.3350420" lon="9.1580540">
	<ele>192.00</ele>
	<time>2022-05-14T06:01:29.000Z</time>
</trkpt>
<trkpt lat="44.3350280" lon="9.1580480">
	<ele>192.00</ele>
	<time>2022-05-14T06:01:30.000Z</time>
</trkpt>
<trkpt lat="44.3350000" lon="9.1580550">
	<ele>191.60</ele>
	<time>2022-05-14T06:01:32.000Z</time>
</trkpt>
<trkpt lat="44.3349880" lon="9.1580530">
	<ele>191.40</ele>
	<time>2022-05-14T06:01:33.000Z</time>
</trkpt>
<trkpt lat="44.3349410" lon="9.1580320">
	<ele>190.80</ele>
	<time>2022-05-14T06:01:38.000Z</time>
</trkpt>
<trkpt lat="44.3349220" lon="9.1580170">
	<ele>190.40</ele>
	<time>2022-05-14T06:01:43.000Z</time>
</trkpt>
<trkpt lat="44.3349140" lon="9.1580060">
	<ele>190.40</ele>
	<time>2022-05-14T06:01:44.000Z</time>
</trkpt>
<trkpt lat="44.3349110" lon="9.1579770">
	<ele>190.20</ele>
	<time>2022-05-14T06:01:46.000Z</time>
</trkpt>
<trkpt lat="44.3349160" lon="9.1579620">
	<ele>190.20</ele>
	<time>2022-05-14T06:01:47.000Z</time>
</trkpt>
<trkpt lat="44.3348880" lon="9.1579430">
	<ele>190.00</ele>
	<time>2022-05-14T06:01:51.000Z</time>
</trkpt>
<trkpt lat="44.3348130" lon="9.1579580">
	<ele>190.00</ele>
	<time>2022-05-14T06:01:57.000Z</time>
</trkpt>
<trkpt lat="44.3347170" lon="9.1579720">
	<ele>189.80</ele>
	<time>2022-05-14T06:02:04.000Z</time>
</trkpt>
<trkpt lat="44.3346630" lon="9.1579740">
	<ele>189.80</ele>
	<time>2022-05-14T06:02:08.000Z</time>
</trkpt>
<trkpt lat="44.3346260" lon="9.1579720">
	<ele>189.80</ele>
	<time>2022-05-14T06:02:10.000Z</time>
</trkpt>
<trkpt lat="44.3345150" lon="9.1579800">
	<ele>190.00</ele>
	<time>2022-05-14T06:02:17.000Z</time>
</trkpt>
<trkpt lat="44.3344560" lon="9.1580040">
	<ele>190.60</ele>
	<time>2022-05-14T06:02:23.000Z</time>
</trkpt>
<trkpt lat="44.3344220" lon="9.1580110">
	<ele>190.60</ele>
	<time>2022-05-14T06:02:26.000Z</time>
</trkpt>
<trkpt lat="44.3343900" lon="9.1580070">
	<ele>191.00</ele>
	<time>2022-05-14T06:02:29.000Z</time>
</trkpt>
<trkpt lat="44.3343580" lon="9.1579970">
	<ele>191.20</ele>
	<time>2022-05-14T06:02:32.000Z</time>
</trkpt>
<trkpt lat="44.3343220" lon="9.1579950">
	<ele>191.40</ele>
	<time>2022-05-14T06:02:35.000Z</time>
</trkpt>
<trkpt lat="44.3342940" lon="9.1579960">
	<ele>191.60</ele>
	<time>2022-05-14T06:02:38.000Z</time>
</trkpt>
<trkpt lat="44.3342660" lon="9.1579960">
	<ele>191.60</ele>
	<time>2022-05-14T06:02:41.000Z</time>
</trkpt>
<trkpt lat="44.3342500" lon="9.1579970">
	<ele>191.80</ele>
	<time>2022-05-14T06:02:43.000Z</time>
</trkpt>
<trkpt lat="44.3342430" lon="9.1579970">
	<ele>191.80</ele>
	<time>2022-05-14T06:02:44.000Z</time>
</trkpt>
<trkpt lat="44.3342260" lon="9.1579760">
	<ele>192.00</ele>
	<time>2022-05-14T06:02:47.000Z</time>
</trkpt>
<trkpt lat="44.3342000" lon="9.1579570">
	<ele>192.20</ele>
	<time>2022-05-14T06:02:50.000Z</time>
</trkpt>
<trkpt lat="44.3341910" lon="9.1579500">
	<ele>192.20</ele>
	<time>2022-05-14T06:02:51.000Z</time>
</trkpt>
<trkpt lat="44.3341830" lon="9.1579350">
	<ele>192.20</ele>
	<time>2022-05-14T06:02:52.000Z</time>
</trkpt>
<trkpt lat="44.3341540" lon="9.1579090">
	<ele>192.20</ele>
	<time>2022-05-14T06:02:55.000Z</time>
</trkpt>
<trkpt lat="44.3340820" lon="9.1578640">
	<ele>192.40</ele>
	<time>2022-05-14T06:03:01.000Z</time>
</trkpt>
<trkpt lat="44.3340740" lon="9.1578480">
	<ele>192.60</ele>
	<time>2022-05-14T06:03:02.000Z</time>
</trkpt>
<trkpt lat="44.3340200" lon="9.1578080">
	<ele>192.60</ele>
	<time>2022-05-14T06:03:06.000Z</time>
</trkpt>
<trkpt lat="44.3339980" lon="9.1577480">
	<ele>193.00</ele>
	<time>2022-05-14T06:03:09.000Z</time>
</trkpt>
<trkpt lat="44.3339900" lon="9.1577190">
	<ele>193.20</ele>
	<time>2022-05-14T06:03:11.000Z</time>
</trkpt>
<trkpt lat="44.3339400" lon="9.1576590">
	<ele>193.20</ele>
	<time>2022-05-14T06:03:16.000Z</time>
</trkpt>
<trkpt lat="44.3338480" lon="9.1575680">
	<ele>192.80</ele>
	<time>2022-05-14T06:03:26.000Z</time>
</trkpt>
<trkpt lat="44.3337920" lon="9.1575610">
	<ele>193.60</ele>
	<time>2022-05-14T06:03:32.000Z</time>
</trkpt>
<trkpt lat="44.3337760" lon="9.1575600">
	<ele>194.00</ele>
	<time>2022-05-14T06:03:34.000Z</time>
</trkpt>
<trkpt lat="44.3337460" lon="9.1575670">
	<ele>194.40</ele>
	<time>2022-05-14T06:03:38.000Z</time>
</trkpt>
<trkpt lat="44.3337400" lon="9.1575630">
	<ele>194.40</ele>
	<time>2022-05-14T06:03:39.000Z</time>
</trkpt>
<trkpt lat="44.3337360" lon="9.1575640">
	<ele>194.60</ele>
	<time>2022-05-14T06:03:40.000Z</time>
</trkpt>
<trkpt lat="44.3337300" lon="9.1575640">
	<ele>195.00</ele>
	<time>2022-05-14T06:03:42.000Z</time>
</trkpt>
<trkpt lat="44.3337130" lon="9.1575610">
	<ele>195.40</ele>
	<time>2022-05-14T06:03:45.000Z</time>
</trkpt>
<trkpt lat="44.3337070" lon="9.1575680">
	<ele>195.60</ele>
	<time>2022-05-14T06:03:46.000Z</time>
</trkpt>
<trkpt lat="44.3337010" lon="9.1575770">
	<ele>195.80</ele>
	<time>2022-05-14T06:03:47.000Z</time>
</trkpt>
<trkpt lat="44.3336510" lon="9.1575900">
	<ele>196.40</ele>
	<time>2022-05-14T06:03:53.000Z</time>
</trkpt>
<trkpt lat="44.3336360" lon="9.1575900">
	<ele>196.60</ele>
	<time>2022-05-14T06:03:55.000Z</time>
</trkpt>
<trkpt lat="44.3336170" lon="9.1576050">
	<ele>196.80</ele>
	<time>2022-05-14T06:03:57.000Z</time>
</trkpt>
<trkpt lat="44.3336060" lon="9.1576070">
	<ele>196.80</ele>
	<time>2022-05-14T06:03:58.000Z</time>
</trkpt>
<trkpt lat="44.3335960" lon="9.1576050">
	<ele>197.00</ele>
	<time>2022-05-14T06:03:59.000Z</time>
</trkpt>
<trkpt lat="44.3335230" lon="9.1576270">
	<ele>197.40</ele>
	<time>2022-05-14T06:04:03.000Z</time>
</trkpt>
<trkpt lat="44.3334940" lon="9.1576290">
	<ele>197.60</ele>
	<time>2022-05-14T06:04:05.000Z</time>
</trkpt>
<trkpt lat="44.3334780" lon="9.1576380">
	<ele>197.80</ele>
	<time>2022-05-14T06:04:06.000Z</time>
</trkpt>
<trkpt lat="44.3334490" lon="9.1576460">
	<ele>198.20</ele>
	<time>2022-05-14T06:04:08.000Z</time>
</trkpt>
<trkpt lat="44.3334270" lon="9.1576600">
	<ele>198.20</ele>
	<time>2022-05-14T06:04:10.000Z</time>
</trkpt>
<trkpt lat="44.3333900" lon="9.1576590">
	<ele>198.20</ele>
	<time>2022-05-14T06:04:13.000Z</time>
</trkpt>
<trkpt lat="44.3333730" lon="9.1576450">
	<ele>198.40</ele>
	<time>2022-05-14T06:04:15.000Z</time>
</trkpt>
<trkpt lat="44.3333680" lon="9.1576490">
	<ele>198.40</ele>
	<time>2022-05-14T06:04:16.000Z</time>
</trkpt>
<trkpt lat="44.3333670" lon="9.1576590">
	<ele>198.60</ele>
	<time>2022-05-14T06:04:17.000Z</time>
</trkpt>
<trkpt lat="44.3333610" lon="9.1576730">
	<ele>199.00</ele>
	<time>2022-05-14T06:04:20.000Z</time>
</trkpt>
<trkpt lat="44.3333620" lon="9.1576780">
	<ele>199.00</ele>
	<time>2022-05-14T06:04:21.000Z</time>
</trkpt>
<trkpt lat="44.3333520" lon="9.1576680">
	<ele>199.20</ele>
	<time>2022-05-14T06:04:24.000Z</time>
</trkpt>
<trkpt lat="44.3333160" lon="9.1576920">
	<ele>199.20</ele>
	<time>2022-05-14T06:04:27.000Z</time>
</trkpt>
<trkpt lat="44.3332980" lon="9.1576960">
	<ele>199.40</ele>
	<time>2022-05-14T06:04:29.000Z</time>
</trkpt>
<trkpt lat="44.3332640" lon="9.1576920">
	<ele>199.80</ele>
	<time>2022-05-14T06:04:32.000Z</time>
</trkpt>
<trkpt lat="44.3332540" lon="9.1576850">
	<ele>199.80</ele>
	<time>2022-05-14T06:04:33.000Z</time>
</trkpt>
<trkpt lat="44.3332290" lon="9.1576810">
	<ele>200.00</ele>
	<time>2022-05-14T06:04:35.000Z</time>
</trkpt>
<trkpt lat="44.3332070" lon="9.1577000">
	<ele>200.00</ele>
	<time>2022-05-14T06:04:37.000Z</time>
</trkpt>
<trkpt lat="44.3331990" lon="9.1577020">
	<ele>200.00</ele>
	<time>2022-05-14T06:04:38.000Z</time>
</trkpt>
<trkpt lat="44.3331730" lon="9.1577160">
	<ele>200.20</ele>
	<time>2022-05-14T06:04:40.000Z</time>
</trkpt>
<trkpt lat="44.3331530" lon="9.1577250">
	<ele>200.20</ele>
	<time>2022-05-14T06:04:42.000Z</time>
</trkpt>
<trkpt lat="44.3331230" lon="9.1577310">
	<ele>200.20</ele>
	<time>2022-05-14T06:04:44.000Z</time>
</trkpt>
<trkpt lat="44.3330450" lon="9.1576920">
	<ele>200.20</ele>
	<time>2022-05-14T06:04:50.000Z</time>
</trkpt>
<trkpt lat="44.3330260" lon="9.1576780">
	<ele>200.20</ele>
	<time>2022-05-14T06:04:52.000Z</time>
</trkpt>
<trkpt lat="44.3329910" lon="9.1576550">
	<ele>200.00</ele>
	<time>2022-05-14T06:04:55.000Z</time>
</trkpt>
<trkpt lat="44.3329620" lon="9.1576530">
	<ele>200.00</ele>
	<time>2022-05-14T06:04:58.000Z</time>
</trkpt>
<trkpt lat="44.3329440" lon="9.1576590">
	<ele>199.80</ele>
	<time>2022-05-14T06:05:00.000Z</time>
</trkpt>
<trkpt lat="44.3329370" lon="9.1576660">
	<ele>199.80</ele>
	<time>2022-05-14T06:05:03.000Z</time>
</trkpt>
<trkpt lat="44.3329450" lon="9.1576640">
	<ele>199.80</ele>
	<time>2022-05-14T06:05:05.000Z</time>
</trkpt>
<trkpt lat="44.3329570" lon="9.1576510">
	<ele>199.80</ele>
	<time>2022-05-14T06:05:07.000Z</time>
</trkpt>
<trkpt lat="44.3329600" lon="9.1576450">
	<ele>199.80</ele>
	<time>2022-05-14T06:05:09.000Z</time>
</trkpt>
<trkpt lat="44.3329620" lon="9.1576470">
	<ele>199.80</ele>
	<time>2022-05-14T06:05:12.000Z</time>
</trkpt>
<trkpt lat="44.3329620" lon="9.1576470">
	<ele>199.80</ele>
	<time>2022-05-14T06:05:18.000Z</time>
</trkpt>
<trkpt lat="44.3329600" lon="9.1576540">
	<ele>199.60</ele>
	<time>2022-05-14T06:05:36.000Z</time>
</trkpt>
<trkpt lat="44.3329540" lon="9.1576650">
	<ele>200.20</ele>
	<time>2022-05-14T06:05:48.000Z</time>
</trkpt>
<trkpt lat="44.3329010" lon="9.1577120">
	<ele>200.00</ele>
	<time>2022-05-14T06:05:52.000Z</time>
</trkpt>
<trkpt lat="44.3327570" lon="9.1577250">
	<ele>200.20</ele>
	<time>2022-05-14T06:06:01.000Z</time>
</trkpt>
<trkpt lat="44.3326490" lon="9.1577120">
	<ele>200.60</ele>
	<time>2022-05-14T06:06:10.000Z</time>
</trkpt>
<trkpt lat="44.3325820" lon="9.1577320">
	<ele>200.80</ele>
	<time>2022-05-14T06:06:17.000Z</time>
</trkpt>
<trkpt lat="44.3324770" lon="9.1577460">
	<ele>201.00</ele>
	<time>2022-05-14T06:06:26.000Z</time>
</trkpt>
<trkpt lat="44.3323800" lon="9.1577810">
	<ele>201.60</ele>
	<time>2022-05-14T06:06:35.000Z</time>
</trkpt>
<trkpt lat="44.3323580" lon="9.1577910">
	<ele>201.80</ele>
	<time>2022-05-14T06:06:37.000Z</time>
</trkpt>
<trkpt lat="44.3323430" lon="9.1578020">
	<ele>202.00</ele>
	<time>2022-05-14T06:06:39.000Z</time>
</trkpt>
<trkpt lat="44.3323300" lon="9.1578120">
	<ele>202.60</ele>
	<time>2022-05-14T06:06:41.000Z</time>
</trkpt>
<trkpt lat="44.3323240" lon="9.1578140">
	<ele>202.80</ele>
	<time>2022-05-14T06:06:42.000Z</time>
</trkpt>
<trkpt lat="44.3323150" lon="9.1578190">
	<ele>202.80</ele>
	<time>2022-05-14T06:06:43.000Z</time>
</trkpt>
<trkpt lat="44.3323080" lon="9.1578210">
	<ele>203.20</ele>
	<time>2022-05-14T06:06:44.000Z</time>
</trkpt>
<trkpt lat="44.3322870" lon="9.1578560">
	<ele>204.00</ele>
	<time>2022-05-14T06:06:48.000Z</time>
</trkpt>
<trkpt lat="44.3322840" lon="9.1578620">
	<ele>204.20</ele>
	<time>2022-05-14T06:06:49.000Z</time>
</trkpt>
<trkpt lat="44.3322570" lon="9.1578770">
	<ele>205.20</ele>
	<time>2022-05-14T06:06:53.000Z</time>
</trkpt>
<trkpt lat="44.3322520" lon="9.1578810">
	<ele>205.40</ele>
	<time>2022-05-14T06:06:54.000Z</time>
</trkpt>
<trkpt lat="44.3322470" lon="9.1578990">
	<ele>206.20</ele>
	<time>2022-05-14T06:06:57.000Z</time>
</trkpt>
<trkpt lat="44.3322380" lon="9.1579160">
	<ele>206.40</ele>
	<time>2022-05-14T06:06:59.000Z</time>
</trkpt>
<trkpt lat="44.3322310" lon="9.1579210">
	<ele>206.60</ele>
	<time>2022-05-14T06:07:00.000Z</time>
</trkpt>
<trkpt lat="44.3322190" lon="9.1579420">
	<ele>207.20</ele>
	<time>2022-05-14T06:07:02.000Z</time>
</trkpt>
<trkpt lat="44.3322150" lon="9.1579560">
	<ele>207.40</ele>
	<time>2022-05-14T06:07:03.000Z</time>
</trkpt>
<trkpt lat="44.3322040" lon="9.1579800">
	<ele>207.80</ele>
	<time>2022-05-14T06:07:05.000Z</time>
</trkpt>
<trkpt lat="44.3321930" lon="9.1580350">
	<ele>208.40</ele>
	<time>2022-05-14T06:07:10.000Z</time>
</trkpt>
<trkpt lat="44.3321870" lon="9.1580500">
	<ele>208.60</ele>
	<time>2022-05-14T06:07:11.000Z</time>
</trkpt>
<trkpt lat="44.3321550" lon="9.1581320">
	<ele>208.80</ele>
	<time>2022-05-14T06:07:17.000Z</time>
</trkpt>
<trkpt lat="44.3321430" lon="9.1581230">
	<ele>208.80</ele>
	<time>2022-05-14T06:07:19.000Z</time>
</trkpt>
<trkpt lat="44.3321380" lon="9.1581170">
	<ele>208.80</ele>
	<time>2022-05-14T06:07:20.000Z</time>
</trkpt>
<trkpt lat="44.3321390" lon="9.1581370">
	<ele>208.60</ele>
	<time>2022-05-14T06:07:23.000Z</time>
</trkpt>
<trkpt lat="44.3321350" lon="9.1581760">
	<ele>208.80</ele>
	<time>2022-05-14T06:07:26.000Z</time>
</trkpt>
<trkpt lat="44.3321230" lon="9.1582090">
	<ele>208.80</ele>
	<time>2022-05-14T06:07:29.000Z</time>
</trkpt>
<trkpt lat="44.3321110" lon="9.1581940">
	<ele>208.80</ele>
	<time>2022-05-14T06:07:32.000Z</time>
</trkpt>
<trkpt lat="44.3321080" lon="9.1581960">
	<ele>208.80</ele>
	<time>2022-05-14T06:07:33.000Z</time>
</trkpt>
<trkpt lat="44.3321030" lon="9.1581960">
	<ele>208.60</ele>
	<time>2022-05-14T06:07:34.000Z</time>
</trkpt>
<trkpt lat="44.3320920" lon="9.1582060">
	<ele>208.40</ele>
	<time>2022-05-14T06:07:36.000Z</time>
</trkpt>
<trkpt lat="44.3320860" lon="9.1582140">
	<ele>208.40</ele>
	<time>2022-05-14T06:07:37.000Z</time>
</trkpt>
<trkpt lat="44.3320920" lon="9.1581960">
	<ele>208.20</ele>
	<time>2022-05-14T06:07:39.000Z</time>
</trkpt>
<trkpt lat="44.3320440" lon="9.1582090">
	<ele>207.40</ele>
	<time>2022-05-14T06:07:45.000Z</time>
</trkpt>
<trkpt lat="44.3320310" lon="9.1582230">
	<ele>207.20</ele>
	<time>2022-05-14T06:07:46.000Z</time>
</trkpt>
<trkpt lat="44.3320290" lon="9.1582230">
	<ele>207.20</ele>
	<time>2022-05-14T06:07:47.000Z</time>
</trkpt>
<trkpt lat="44.3320070" lon="9.1582230">
	<ele>206.80</ele>
	<time>2022-05-14T06:07:49.000Z</time>
</trkpt>
<trkpt lat="44.3319520" lon="9.1582270">
	<ele>206.00</ele>
	<time>2022-05-14T06:07:53.000Z</time>
</trkpt>
<trkpt lat="44.3319130" lon="9.1582400">
	<ele>205.40</ele>
	<time>2022-05-14T06:07:56.000Z</time>
</trkpt>
<trkpt lat="44.3318600" lon="9.1582840">
	<ele>205.20</ele>
	<time>2022-05-14T06:08:02.000Z</time>
</trkpt>
<trkpt lat="44.3318520" lon="9.1582810">
	<ele>205.00</ele>
	<time>2022-05-14T06:08:04.000Z</time>
</trkpt>
<trkpt lat="44.3318370" lon="9.1582780">
	<ele>205.00</ele>
	<time>2022-05-14T06:08:06.000Z</time>
</trkpt>
<trkpt lat="44.3317970" lon="9.1582690">
	<ele>205.00</ele>
	<time>2022-05-14T06:08:09.000Z</time>
</trkpt>
<trkpt lat="44.3317710" lon="9.1582670">
	<ele>205.00</ele>
	<time>2022-05-14T06:08:11.000Z</time>
</trkpt>
<trkpt lat="44.3316850" lon="9.1582900">
	<ele>205.20</ele>
	<time>2022-05-14T06:08:18.000Z</time>
</trkpt>
<trkpt lat="44.3316750" lon="9.1582740">
	<ele>205.40</ele>
	<time>2022-05-14T06:08:20.000Z</time>
</trkpt>
<trkpt lat="44.3316410" lon="9.1582710">
	<ele>205.40</ele>
	<time>2022-05-14T06:08:23.000Z</time>
</trkpt>
<trkpt lat="44.3316210" lon="9.1582530">
	<ele>205.40</ele>
	<time>2022-05-14T06:08:25.000Z</time>
</trkpt>
<trkpt lat="44.3316070" lon="9.1582180">
	<ele>205.00</ele>
	<time>2022-05-14T06:08:28.000Z</time>
</trkpt>
<trkpt lat="44.3316020" lon="9.1582050">
	<ele>204.80</ele>
	<time>2022-05-14T06:08:29.000Z</time>
</trkpt>
<trkpt lat="44.3315890" lon="9.1581820">
	<ele>204.60</ele>
	<time>2022-05-14T06:08:31.000Z</time>
</trkpt>
<trkpt lat="44.3315800" lon="9.1581500">
	<ele>204.40</ele>
	<time>2022-05-14T06:08:34.000Z</time>
</trkpt>
<trkpt lat="44.3315690" lon="9.1581270">
	<ele>204.00</ele>
	<time>2022-05-14T06:08:36.000Z</time>
</trkpt>
<trkpt lat="44.3315590" lon="9.1580700">
	<ele>203.40</ele>
	<time>2022-05-14T06:08:40.000Z</time>
</trkpt>
<trkpt lat="44.3315470" lon="9.1580360">
	<ele>202.80</ele>
	<time>2022-05-14T06:08:43.000Z</time>
</trkpt>
<trkpt lat="44.3315100" lon="9.1579710">
	<ele>201.80</ele>
	<time>2022-05-14T06:08:49.000Z</time>
</trkpt>
<trkpt lat="44.3314840" lon="9.1579070">
	<ele>201.00</ele>
	<time>2022-05-14T06:08:54.000Z</time>
</trkpt>
<trkpt lat="44.3314730" lon="9.1578820">
	<ele>200.60</ele>
	<time>2022-05-14T06:08:56.000Z</time>
</trkpt>
<trkpt lat="44.3314540" lon="9.1578490">
	<ele>200.00</ele>
	<time>2022-05-14T06:08:59.000Z</time>
</trkpt>
<trkpt lat="44.3314350" lon="9.1578250">
	<ele>199.80</ele>
	<time>2022-05-14T06:09:01.000Z</time>
</trkpt>
<trkpt lat="44.3314130" lon="9.1578120">
	<ele>199.60</ele>
	<time>2022-05-14T06:09:03.000Z</time>
</trkpt>
<trkpt lat="44.3313980" lon="9.1578050">
	<ele>199.00</ele>
	<time>2022-05-14T06:09:06.000Z</time>
</trkpt>
<trkpt lat="44.3313720" lon="9.1578080">
	<ele>198.40</ele>
	<time>2022-05-14T06:09:09.000Z</time>
</trkpt>
<trkpt lat="44.3313620" lon="9.1578160">
	<ele>198.20</ele>
	<time>2022-05-14T06:09:10.000Z</time>
</trkpt>
<trkpt lat="44.3313410" lon="9.1578330">
	<ele>198.00</ele>
	<time>2022-05-14T06:09:12.000Z</time>
</trkpt>
<trkpt lat="44.3313280" lon="9.1578300">
	<ele>198.00</ele>
	<time>2022-05-14T06:09:13.000Z</time>
</trkpt>
<trkpt lat="44.3312780" lon="9.1578100">
	<ele>197.40</ele>
	<time>2022-05-14T06:09:17.000Z</time>
</trkpt>
<trkpt lat="44.3312700" lon="9.1578070">
	<ele>197.40</ele>
	<time>2022-05-14T06:09:18.000Z</time>
</trkpt>
<trkpt lat="44.3312120" lon="9.1577850">
	<ele>197.20</ele>
	<time>2022-05-14T06:09:24.000Z</time>
</trkpt>
<trkpt lat="44.3311970" lon="9.1577880">
	<ele>197.20</ele>
	<time>2022-05-14T06:09:25.000Z</time>
</trkpt>
<trkpt lat="44.3311230" lon="9.1578040">
	<ele>196.80</ele>
	<time>2022-05-14T06:09:32.000Z</time>
</trkpt>
<trkpt lat="44.3310710" lon="9.1578760">
	<ele>196.80</ele>
	<time>2022-05-14T06:09:38.000Z</time>
</trkpt>
<trkpt lat="44.3310630" lon="9.1578870">
	<ele>196.80</ele>
	<time>2022-05-14T06:09:39.000Z</time>
</trkpt>
<trkpt lat="44.3310540" lon="9.1578900">
	<ele>196.80</ele>
	<time>2022-05-14T06:09:40.000Z</time>
</trkpt>
<trkpt lat="44.3310130" lon="9.1579110">
	<ele>196.80</ele>
	<time>2022-05-14T06:09:43.000Z</time>
</trkpt>
<trkpt lat="44.3309720" lon="9.1579670">
	<ele>196.20</ele>
	<time>2022-05-14T06:09:48.000Z</time>
</trkpt>
<trkpt lat="44.3309480" lon="9.1579840">
	<ele>196.00</ele>
	<time>2022-05-14T06:09:51.000Z</time>
</trkpt>
<trkpt lat="44.3308850" lon="9.1580200">
	<ele>195.20</ele>
	<time>2022-05-14T06:09:57.000Z</time>
</trkpt>
<trkpt lat="44.3308390" lon="9.1580330">
	<ele>194.00</ele>
	<time>2022-05-14T06:10:01.000Z</time>
</trkpt>
<trkpt lat="44.3308250" lon="9.1580390">
	<ele>193.80</ele>
	<time>2022-05-14T06:10:02.000Z</time>
</trkpt>
<trkpt lat="44.3307720" lon="9.1580500">
	<ele>193.00</ele>
	<time>2022-05-14T06:10:07.000Z</time>
</trkpt>
<trkpt lat="44.3307630" lon="9.1580490">
	<ele>192.80</ele>
	<time>2022-05-14T06:10:08.000Z</time>
</trkpt>
<trkpt lat="44.3307410" lon="9.1580480">
	<ele>192.40</ele>
	<time>2022-05-14T06:10:10.000Z</time>
</trkpt>
<trkpt lat="44.3307220" lon="9.1580660">
	<ele>191.80</ele>
	<time>2022-05-14T06:10:12.000Z</time>
</trkpt>
<trkpt lat="44.3307190" lon="9.1580710">
	<ele>191.60</ele>
	<time>2022-05-14T06:10:13.000Z</time>
</trkpt>
<trkpt lat="44.3307310" lon="9.1580730">
	<ele>191.40</ele>
	<time>2022-05-14T06:10:14.000Z</time>
</trkpt>
<trkpt lat="44.3307050" lon="9.1580620">
	<ele>191.20</ele>
	<time>2022-05-14T06:10:17.000Z</time>
</trkpt>
<trkpt lat="44.3306810" lon="9.1580680">
	<ele>190.80</ele>
	<time>2022-05-14T06:10:19.000Z</time>
</trkpt>
<trkpt lat="44.3306600" lon="9.1580650">
	<ele>190.40</ele>
	<time>2022-05-14T06:10:21.000Z</time>
</trkpt>
<trkpt lat="44.3306330" lon="9.1580830">
	<ele>189.60</ele>
	<time>2022-05-14T06:10:24.000Z</time>
</trkpt>
<trkpt lat="44.3305970" lon="9.1580800">
	<ele>188.80</ele>
	<time>2022-05-14T06:10:28.000Z</time>
</trkpt>
<trkpt lat="44.3305930" lon="9.1580790">
	<ele>188.60</ele>
	<time>2022-05-14T06:10:29.000Z</time>
</trkpt>
<trkpt lat="44.3305830" lon="9.1580870">
	<ele>188.40</ele>
	<time>2022-05-14T06:10:31.000Z</time>
</trkpt>
<trkpt lat="44.3305610" lon="9.1581060">
	<ele>188.00</ele>
	<time>2022-05-14T06:10:34.000Z</time>
</trkpt>
<trkpt lat="44.3305460" lon="9.1581430">
	<ele>187.40</ele>
	<time>2022-05-14T06:10:37.000Z</time>
</trkpt>
<trkpt lat="44.3305290" lon="9.1581710">
	<ele>187.20</ele>
	<time>2022-05-14T06:10:39.000Z</time>
</trkpt>
<trkpt lat="44.3305270" lon="9.1581820">
	<ele>187.00</ele>
	<time>2022-05-14T06:10:40.000Z</time>
</trkpt>
<trkpt lat="44.3305110" lon="9.1582050">
	<ele>187.00</ele>
	<time>2022-05-14T06:10:42.000Z</time>
</trkpt>
<trkpt lat="44.3304750" lon="9.1582490">
	<ele>186.80</ele>
	<time>2022-05-14T06:10:46.000Z</time>
</trkpt>
<trkpt lat="44.3304330" lon="9.1582600">
	<ele>186.40</ele>
	<time>2022-05-14T06:10:49.000Z</time>
</trkpt>
<trkpt lat="44.3304160" lon="9.1582620">
	<ele>186.40</ele>
	<time>2022-05-14T06:10:51.000Z</time>
</trkpt>
<trkpt lat="44.3303980" lon="9.1582530">
	<ele>186.40</ele>
	<time>2022-05-14T06:10:53.000Z</time>
</trkpt>
<trkpt lat="44.3303980" lon="9.1582370">
	<ele>186.40</ele>
	<time>2022-05-14T06:10:54.000Z</time>
</trkpt>
<trkpt lat="44.3303460" lon="9.1582140">
	<ele>187.00</ele>
	<time>2022-05-14T06:11:01.000Z</time>
</trkpt>
<trkpt lat="44.3303370" lon="9.1582070">
	<ele>187.20</ele>
	<time>2022-05-14T06:11:02.000Z</time>
</trkpt>
<trkpt lat="44.3303260" lon="9.1581990">
	<ele>187.60</ele>
	<time>2022-05-14T06:11:03.000Z</time>
</trkpt>
<trkpt lat="44.3302780" lon="9.1581790">
	<ele>187.80</ele>
	<time>2022-05-14T06:11:07.000Z</time>
</trkpt>
<trkpt lat="44.3302060" lon="9.1581990">
	<ele>188.00</ele>
	<time>2022-05-14T06:11:12.000Z</time>
</trkpt>
<trkpt lat="44.3301630" lon="9.1582190">
	<ele>188.20</ele>
	<time>2022-05-14T06:11:16.000Z</time>
</trkpt>
<trkpt lat="44.3301500" lon="9.1582260">
	<ele>188.20</ele>
	<time>2022-05-14T06:11:18.000Z</time>
</trkpt>
<trkpt lat="44.3301200" lon="9.1582320">
	<ele>188.40</ele>
	<time>2022-05-14T06:11:21.000Z</time>
</trkpt>
<trkpt lat="44.3301060" lon="9.1582400">
	<ele>188.60</ele>
	<time>2022-05-14T06:11:22.000Z</time>
</trkpt>
<trkpt lat="44.3300660" lon="9.1582210">
	<ele>189.00</ele>
	<time>2022-05-14T06:11:28.000Z</time>
</trkpt>
<trkpt lat="44.3300560" lon="9.1582110">
	<ele>189.20</ele>
	<time>2022-05-14T06:11:30.000Z</time>
</trkpt>
<trkpt lat="44.3300310" lon="9.1581670">
	<ele>189.60</ele>
	<time>2022-05-14T06:11:34.000Z</time>
</trkpt>
<trkpt lat="44.3300250" lon="9.1581510">
	<ele>189.60</ele>
	<time>2022-05-14T06:11:36.000Z</time>
</trkpt>
<trkpt lat="44.3300040" lon="9.1580670">
	<ele>190.60</ele>
	<time>2022-05-14T06:11:43.000Z</time>
</trkpt>
<trkpt lat="44.3299830" lon="9.1580120">
	<ele>191.80</ele>
	<time>2022-05-14T06:11:50.000Z</time>
</trkpt>
<trkpt lat="44.3299470" lon="9.1579280">
	<ele>192.80</ele>
	<time>2022-05-14T06:11:56.000Z</time>
</trkpt>
<trkpt lat="44.3299370" lon="9.1579040">
	<ele>193.20</ele>
	<time>2022-05-14T06:11:58.000Z</time>
</trkpt>
<trkpt lat="44.3299130" lon="9.1578730">
	<ele>194.00</ele>
	<time>2022-05-14T06:12:02.000Z</time>
</trkpt>
<trkpt lat="44.3298930" lon="9.1578590">
	<ele>194.20</ele>
	<time>2022-05-14T06:12:05.000Z</time>
</trkpt>
<trkpt lat="44.3298690" lon="9.1578460">
	<ele>194.80</ele>
	<time>2022-05-14T06:12:09.000Z</time>
</trkpt>
<trkpt lat="44.3298650" lon="9.1578390">
	<ele>195.00</ele>
	<time>2022-05-14T06:12:10.000Z</time>
</trkpt>
<trkpt lat="44.3298560" lon="9.1578320">
	<ele>195.20</ele>
	<time>2022-05-14T06:12:11.000Z</time>
</trkpt>
<trkpt lat="44.3298150" lon="9.1578160">
	<ele>195.80</ele>
	<time>2022-05-14T06:12:15.000Z</time>
</trkpt>
<trkpt lat="44.3297900" lon="9.1577940">
	<ele>196.00</ele>
	<time>2022-05-14T06:12:17.000Z</time>
</trkpt>
<trkpt lat="44.3297780" lon="9.1577760">
	<ele>196.20</ele>
	<time>2022-05-14T06:12:18.000Z</time>
</trkpt>
<trkpt lat="44.3297700" lon="9.1577580">
	<ele>196.40</ele>
	<time>2022-05-14T06:12:19.000Z</time>
</trkpt>
<trkpt lat="44.3297160" lon="9.1576860">
	<ele>197.20</ele>
	<time>2022-05-14T06:12:27.000Z</time>
</trkpt>
<trkpt lat="44.3297120" lon="9.1576810">
	<ele>197.20</ele>
	<time>2022-05-14T06:12:28.000Z</time>
</trkpt>
<trkpt lat="44.3296940" lon="9.1576720">
	<ele>197.80</ele>
	<time>2022-05-14T06:12:32.000Z</time>
</trkpt>
<trkpt lat="44.3296580" lon="9.1576670">
	<ele>198.00</ele>
	<time>2022-05-14T06:12:35.000Z</time>
</trkpt>
<trkpt lat="44.3295980" lon="9.1576330">
	<ele>198.20</ele>
	<time>2022-05-14T06:12:40.000Z</time>
</trkpt>
<trkpt lat="44.3295770" lon="9.1576320">
	<ele>198.20</ele>
	<time>2022-05-14T06:12:42.000Z</time>
</trkpt>
<trkpt lat="44.3295370" lon="9.1576160">
	<ele>199.00</ele>
	<time>2022-05-14T06:12:48.000Z</time>
</trkpt>
<trkpt lat="44.3295180" lon="9.1576110">
	<ele>199.40</ele>
	<time>2022-05-14T06:12:50.000Z</time>
</trkpt>
<trkpt lat="44.3294600" lon="9.1576210">
	<ele>200.00</ele>
	<time>2022-05-14T06:12:56.000Z</time>
</trkpt>
<trkpt lat="44.3294030" lon="9.1576280">
	<ele>200.20</ele>
	<time>2022-05-14T06:12:59.000Z</time>
</trkpt>
<trkpt lat="44.3293450" lon="9.1576410">
	<ele>200.00</ele>
	<time>2022-05-14T06:13:03.000Z</time>
</trkpt>
<trkpt lat="44.3293300" lon="9.1576470">
	<ele>199.80</ele>
	<time>2022-05-14T06:13:05.000Z</time>
</trkpt>
<trkpt lat="44.3292840" lon="9.1576820">
	<ele>199.80</ele>
	<time>2022-05-14T06:13:10.000Z</time>
</trkpt>
<trkpt lat="44.3292630" lon="9.1576830">
	<ele>199.80</ele>
	<time>2022-05-14T06:13:12.000Z</time>
</trkpt>
<trkpt lat="44.3292170" lon="9.1576880">
	<ele>199.80</ele>
	<time>2022-05-14T06:13:17.000Z</time>
</trkpt>
<trkpt lat="44.3291850" lon="9.1576710">
	<ele>200.00</ele>
	<time>2022-05-14T06:13:20.000Z</time>
</trkpt>
<trkpt lat="44.3291680" lon="9.1576680">
	<ele>200.20</ele>
	<time>2022-05-14T06:13:22.000Z</time>
</trkpt>
<trkpt lat="44.3291540" lon="9.1576620">
	<ele>200.20</ele>
	<time>2022-05-14T06:13:25.000Z</time>
</trkpt>
<trkpt lat="44.3291500" lon="9.1576590">
	<ele>200.40</ele>
	<time>2022-05-14T06:13:26.000Z</time>
</trkpt>
<trkpt lat="44.3291520" lon="9.1576560">
	<ele>200.40</ele>
	<time>2022-05-14T06:13:27.000Z</time>
</trkpt>
<trkpt lat="44.3291390" lon="9.1576390">
	<ele>200.60</ele>
	<time>2022-05-14T06:13:29.000Z</time>
</trkpt>
<trkpt lat="44.3291360" lon="9.1576070">
	<ele>200.60</ele>
	<time>2022-05-14T06:13:31.000Z</time>
</trkpt>
<trkpt lat="44.3291130" lon="9.1575410">
	<ele>201.40</ele>
	<time>2022-05-14T06:13:36.000Z</time>
</trkpt>
<trkpt lat="44.3291090" lon="9.1575290">
	<ele>201.60</ele>
	<time>2022-05-14T06:13:37.000Z</time>
</trkpt>
<trkpt lat="44.3291020" lon="9.1575160">
	<ele>201.60</ele>
	<time>2022-05-14T06:13:38.000Z</time>
</trkpt>
<trkpt lat="44.3290680" lon="9.1574750">
	<ele>202.60</ele>
	<time>2022-05-14T06:13:43.000Z</time>
</trkpt>
<trkpt lat="44.3290430" lon="9.1574340">
	<ele>203.40</ele>
	<time>2022-05-14T06:13:48.000Z</time>
</trkpt>
<trkpt lat="44.3290370" lon="9.1574230">
	<ele>203.60</ele>
	<time>2022-05-14T06:13:49.000Z</time>
</trkpt>
<trkpt lat="44.3290300" lon="9.1574000">
	<ele>203.80</ele>
	<time>2022-05-14T06:13:51.000Z</time>
</trkpt>
<trkpt lat="44.3290230" lon="9.1573810">
	<ele>204.20</ele>
	<time>2022-05-14T06:13:53.000Z</time>
</trkpt>
<trkpt lat="44.3290210" lon="9.1573620">
	<ele>204.60</ele>
	<time>2022-05-14T06:13:55.000Z</time>
</trkpt>
<trkpt lat="44.3289750" lon="9.1573050">
	<ele>205.80</ele>
	<time>2022-05-14T06:14:01.000Z</time>
</trkpt>
<trkpt lat="44.3289730" lon="9.1573000">
	<ele>206.00</ele>
	<time>2022-05-14T06:14:02.000Z</time>
</trkpt>
<trkpt lat="44.3289750" lon="9.1572770">
	<ele>206.60</ele>
	<time>2022-05-14T06:14:05.000Z</time>
</trkpt>
<trkpt lat="44.3289710" lon="9.1572520">
	<ele>207.00</ele>
	<time>2022-05-14T06:14:07.000Z</time>
</trkpt>
<trkpt lat="44.3289450" lon="9.1571870">
	<ele>208.00</ele>
	<time>2022-05-14T06:14:14.000Z</time>
</trkpt>
<trkpt lat="44.3289410" lon="9.1571780">
	<ele>208.20</ele>
	<time>2022-05-14T06:14:15.000Z</time>
</trkpt>
<trkpt lat="44.3289280" lon="9.1571620">
	<ele>208.60</ele>
	<time>2022-05-14T06:14:17.000Z</time>
</trkpt>
<trkpt lat="44.3289170" lon="9.1571330">
	<ele>209.20</ele>
	<time>2022-05-14T06:14:20.000Z</time>
</trkpt>
<trkpt lat="44.3289140" lon="9.1571210">
	<ele>209.20</ele>
	<time>2022-05-14T06:14:21.000Z</time>
</trkpt>
<trkpt lat="44.3288860" lon="9.1570910">
	<ele>209.80</ele>
	<time>2022-05-14T06:14:25.000Z</time>
</trkpt>
<trkpt lat="44.3288650" lon="9.1570800">
	<ele>210.20</ele>
	<time>2022-05-14T06:14:27.000Z</time>
</trkpt>
<trkpt lat="44.3288440" lon="9.1570790">
	<ele>210.40</ele>
	<time>2022-05-14T06:14:29.000Z</time>
</trkpt>
<trkpt lat="44.3287880" lon="9.1570790">
	<ele>211.20</ele>
	<time>2022-05-14T06:14:34.000Z</time>
</trkpt>
<trkpt lat="44.3287780" lon="9.1570830">
	<ele>211.20</ele>
	<time>2022-05-14T06:14:35.000Z</time>
</trkpt>
<trkpt lat="44.3287220" lon="9.1571080">
	<ele>211.80</ele>
	<time>2022-05-14T06:14:41.000Z</time>
</trkpt>
<trkpt lat="44.3286650" lon="9.1571050">
	<ele>212.00</ele>
	<time>2022-05-14T06:14:46.000Z</time>
</trkpt>
<trkpt lat="44.3286610" lon="9.1570960">
	<ele>212.20</ele>
	<time>2022-05-14T06:14:47.000Z</time>
</trkpt>
<trkpt lat="44.3286550" lon="9.1570880">
	<ele>212.40</ele>
	<time>2022-05-14T06:14:48.000Z</time>
</trkpt>
<trkpt lat="44.3286440" lon="9.1570680">
	<ele>212.40</ele>
	<time>2022-05-14T06:14:51.000Z</time>
</trkpt>
<trkpt lat="44.3286280" lon="9.1570590">
	<ele>212.60</ele>
	<time>2022-05-14T06:14:54.000Z</time>
</trkpt>
<trkpt lat="44.3286280" lon="9.1570580">
	<ele>212.60</ele>
	<time>2022-05-14T06:14:55.000Z</time>
</trkpt>
<trkpt lat="44.3286220" lon="9.1570410">
	<ele>212.60</ele>
	<time>2022-05-14T06:15:00.000Z</time>
</trkpt>
<trkpt lat="44.3285590" lon="9.1570160">
	<ele>212.60</ele>
	<time>2022-05-14T06:15:07.000Z</time>
</trkpt>
<trkpt lat="44.3285510" lon="9.1570040">
	<ele>212.60</ele>
	<time>2022-05-14T06:15:08.000Z</time>
</trkpt>
<trkpt lat="44.3284790" lon="9.1569220">
	<ele>212.60</ele>
	<time>2022-05-14T06:15:16.000Z</time>
</trkpt>
<trkpt lat="44.3284270" lon="9.1569150">
	<ele>212.80</ele>
	<time>2022-05-14T06:15:21.000Z</time>
</trkpt>
<trkpt lat="44.3283930" lon="9.1569030">
	<ele>212.80</ele>
	<time>2022-05-14T06:15:24.000Z</time>
</trkpt>
<trkpt lat="44.3283420" lon="9.1569080">
	<ele>213.00</ele>
	<time>2022-05-14T06:15:30.000Z</time>
</trkpt>
<trkpt lat="44.3283390" lon="9.1569020">
	<ele>213.00</ele>
	<time>2022-05-14T06:15:31.000Z</time>
</trkpt>
<trkpt lat="44.3283330" lon="9.1568740">
	<ele>212.20</ele>
	<time>2022-05-14T06:15:34.000Z</time>
</trkpt>
<trkpt lat="44.3283200" lon="9.1568550">
	<ele>211.80</ele>
	<time>2022-05-14T06:15:36.000Z</time>
</trkpt>
<trkpt lat="44.3283190" lon="9.1568430">
	<ele>211.60</ele>
	<time>2022-05-14T06:15:37.000Z</time>
</trkpt>
<trkpt lat="44.3283210" lon="9.1568200">
	<ele>211.20</ele>
	<time>2022-05-14T06:15:39.000Z</time>
</trkpt>
<trkpt lat="44.3283190" lon="9.1568100">
	<ele>211.20</ele>
	<time>2022-05-14T06:15:40.000Z</time>
</trkpt>
<trkpt lat="44.3283110" lon="9.1567880">
	<ele>210.60</ele>
	<time>2022-05-14T06:15:42.000Z</time>
</trkpt>
<trkpt lat="44.3282970" lon="9.1567790">
	<ele>210.40</ele>
	<time>2022-05-14T06:15:44.000Z</time>
</trkpt>
<trkpt lat="44.3282870" lon="9.1567820">
	<ele>210.40</ele>
	<time>2022-05-14T06:15:45.000Z</time>
</trkpt>
<trkpt lat="44.3282790" lon="9.1567730">
	<ele>210.20</ele>
	<time>2022-05-14T06:15:46.000Z</time>
</trkpt>
<trkpt lat="44.3282800" lon="9.1567600">
	<ele>210.00</ele>
	<time>2022-05-14T06:15:47.000Z</time>
</trkpt>
<trkpt lat="44.3282770" lon="9.1567270">
	<ele>209.20</ele>
	<time>2022-05-14T06:15:50.000Z</time>
</trkpt>
<trkpt lat="44.3282710" lon="9.1567160">
	<ele>209.00</ele>
	<time>2022-05-14T06:15:51.000Z</time>
</trkpt>
<trkpt lat="44.3282100" lon="9.1566650">
	<ele>208.00</ele>
	<time>2022-05-14T06:15:58.000Z</time>
</trkpt>
<trkpt lat="44.3282010" lon="9.1566620">
	<ele>208.00</ele>
	<time>2022-05-14T06:15:59.000Z</time>
</trkpt>
<trkpt lat="44.3281130" lon="9.1566590">
	<ele>207.60</ele>
	<time>2022-05-14T06:16:07.000Z</time>
</trkpt>
<trkpt lat="44.3280660" lon="9.1566890">
	<ele>207.80</ele>
	<time>2022-05-14T06:16:11.000Z</time>
</trkpt>
<trkpt lat="44.3280580" lon="9.1567000">
	<ele>208.00</ele>
	<time>2022-05-14T06:16:12.000Z</time>
</trkpt>
<trkpt lat="44.3280480" lon="9.1567030">
	<ele>208.00</ele>
	<time>2022-05-14T06:16:13.000Z</time>
</trkpt>
<trkpt lat="44.3280240" lon="9.1567130">
	<ele>208.40</ele>
	<time>2022-05-14T06:16:15.000Z</time>
</trkpt>
<trkpt lat="44.3280160" lon="9.1567150">
	<ele>208.60</ele>
	<time>2022-05-14T06:16:16.000Z</time>
</trkpt>
<trkpt lat="44.3280010" lon="9.1566850">
	<ele>208.80</ele>
	<time>2022-05-14T06:16:19.000Z</time>
</trkpt>
<trkpt lat="44.3280010" lon="9.1566820">
	<ele>208.80</ele>
	<time>2022-05-14T06:16:20.000Z</time>
</trkpt>
<trkpt lat="44.3279950" lon="9.1566300">
	<ele>208.80</ele>
	<time>2022-05-14T06:16:26.000Z</time>
</trkpt>
<trkpt lat="44.3280000" lon="9.1566100">
	<ele>208.20</ele>
	<time>2022-05-14T06:16:28.000Z</time>
</trkpt>
<trkpt lat="44.3280150" lon="9.1565140">
	<ele>207.40</ele>
	<time>2022-05-14T06:16:33.000Z</time>
</trkpt>
<trkpt lat="44.3280070" lon="9.1564630">
	<ele>207.40</ele>
	<time>2022-05-14T06:16:37.000Z</time>
</trkpt>
<trkpt lat="44.3280070" lon="9.1564330">
	<ele>207.60</ele>
	<time>2022-05-14T06:16:40.000Z</time>
</trkpt>
<trkpt lat="44.3280200" lon="9.1563650">
	<ele>208.60</ele>
	<time>2022-05-14T06:16:46.000Z</time>
</trkpt>
<trkpt lat="44.3280160" lon="9.1563480">
	<ele>209.20</ele>
	<time>2022-05-14T06:16:48.000Z</time>
</trkpt>
<trkpt lat="44.3279990" lon="9.1563060">
	<ele>209.60</ele>
	<time>2022-05-14T06:16:51.000Z</time>
</trkpt>
<trkpt lat="44.3279840" lon="9.1562850">
	<ele>210.00</ele>
	<time>2022-05-14T06:16:53.000Z</time>
</trkpt>
<trkpt lat="44.3279850" lon="9.1562780">
	<ele>210.20</ele>
	<time>2022-05-14T06:16:54.000Z</time>
</trkpt>
<trkpt lat="44.3279910" lon="9.1562250">
	<ele>210.80</ele>
	<time>2022-05-14T06:16:57.000Z</time>
</trkpt>
<trkpt lat="44.3279760" lon="9.1562080">
	<ele>211.40</ele>
	<time>2022-05-14T06:17:00.000Z</time>
</trkpt>
<trkpt lat="44.3279720" lon="9.1561550">
	<ele>211.60</ele>
	<time>2022-05-14T06:17:04.000Z</time>
</trkpt>
<trkpt lat="44.3279730" lon="9.1561110">
	<ele>211.40</ele>
	<time>2022-05-14T06:17:08.000Z</time>
</trkpt>
<trkpt lat="44.3279660" lon="9.1560890">
	<ele>211.20</ele>
	<time>2022-05-14T06:17:10.000Z</time>
</trkpt>
<trkpt lat="44.3279450" lon="9.1560140">
	<ele>210.20</ele>
	<time>2022-05-14T06:17:15.000Z</time>
</trkpt>
<trkpt lat="44.3279290" lon="9.1559690">
	<ele>210.20</ele>
	<time>2022-05-14T06:17:19.000Z</time>
</trkpt>
<trkpt lat="44.3278910" lon="9.1557900">
	<ele>209.60</ele>
	<time>2022-05-14T06:17:29.000Z</time>
</trkpt>
<trkpt lat="44.3278920" lon="9.1557740">
	<ele>209.80</ele>
	<time>2022-05-14T06:17:30.000Z</time>
</trkpt>
<trkpt lat="44.3278920" lon="9.1557440">
	<ele>209.80</ele>
	<time>2022-05-14T06:17:32.000Z</time>
</trkpt>
<trkpt lat="44.3278860" lon="9.1557220">
	<ele>209.80</ele>
	<time>2022-05-14T06:17:34.000Z</time>
</trkpt>
<trkpt lat="44.3278770" lon="9.1556770">
	<ele>210.20</ele>
	<time>2022-05-14T06:17:37.000Z</time>
</trkpt>
<trkpt lat="44.3278550" lon="9.1556070">
	<ele>210.40</ele>
	<time>2022-05-14T06:17:42.000Z</time>
</trkpt>
<trkpt lat="44.3278320" lon="9.1555780">
	<ele>210.20</ele>
	<time>2022-05-14T06:17:45.000Z</time>
</trkpt>
<trkpt lat="44.3278230" lon="9.1555710">
	<ele>210.20</ele>
	<time>2022-05-14T06:17:46.000Z</time>
</trkpt>
<trkpt lat="44.3278010" lon="9.1555610">
	<ele>210.60</ele>
	<time>2022-05-14T06:17:48.000Z</time>
</trkpt>
<trkpt lat="44.3277770" lon="9.1554940">
	<ele>210.80</ele>
	<time>2022-05-14T06:17:54.000Z</time>
</trkpt>
<trkpt lat="44.3277230" lon="9.1554120">
	<ele>211.00</ele>
	<time>2022-05-14T06:18:01.000Z</time>
</trkpt>
<trkpt lat="44.3276830" lon="9.1553600">
	<ele>210.80</ele>
	<time>2022-05-14T06:18:06.000Z</time>
</trkpt>
<trkpt lat="44.3276370" lon="9.1553370">
	<ele>211.00</ele>
	<time>2022-05-14T06:18:10.000Z</time>
</trkpt>
<trkpt lat="44.3276070" lon="9.1552860">
	<ele>211.40</ele>
	<time>2022-05-14T06:18:15.000Z</time>
</trkpt>
<trkpt lat="44.3275820" lon="9.1552650">
	<ele>211.40</ele>
	<time>2022-05-14T06:18:17.000Z</time>
</trkpt>
<trkpt lat="44.3274820" lon="9.1551780">
	<ele>211.40</ele>
	<time>2022-05-14T06:18:26.000Z</time>
</trkpt>
<trkpt lat="44.3274220" lon="9.1551230">
	<ele>211.60</ele>
	<time>2022-05-14T06:18:33.000Z</time>
</trkpt>
<trkpt lat="44.3273850" lon="9.1550680">
	<ele>212.00</ele>
	<time>2022-05-14T06:18:39.000Z</time>
</trkpt>
<trkpt lat="44.3273620" lon="9.1550530">
	<ele>212.40</ele>
	<time>2022-05-14T06:18:42.000Z</time>
</trkpt>
<trkpt lat="44.3273500" lon="9.1550390">
	<ele>212.40</ele>
	<time>2022-05-14T06:18:44.000Z</time>
</trkpt>
<trkpt lat="44.3273130" lon="9.1550130">
	<ele>212.40</ele>
	<time>2022-05-14T06:18:48.000Z</time>
</trkpt>
<trkpt lat="44.3272960" lon="9.1549810">
	<ele>212.40</ele>
	<time>2022-05-14T06:18:51.000Z</time>
</trkpt>
<trkpt lat="44.3272110" lon="9.1549170">
	<ele>212.20</ele>
	<time>2022-05-14T06:19:00.000Z</time>
</trkpt>
<trkpt lat="44.3271620" lon="9.1548810">
	<ele>211.80</ele>
	<time>2022-05-14T06:19:06.000Z</time>
</trkpt>
<trkpt lat="44.3271420" lon="9.1548780">
	<ele>211.80</ele>
	<time>2022-05-14T06:19:07.000Z</time>
</trkpt>
<trkpt lat="44.3270850" lon="9.1548470">
	<ele>211.20</ele>
	<time>2022-05-14T06:19:11.000Z</time>
</trkpt>
<trkpt lat="44.3270550" lon="9.1548200">
	<ele>210.80</ele>
	<time>2022-05-14T06:19:14.000Z</time>
</trkpt>
<trkpt lat="44.3270120" lon="9.1548160">
	<ele>210.20</ele>
	<time>2022-05-14T06:19:18.000Z</time>
</trkpt>
<trkpt lat="44.3269990" lon="9.1548110">
	<ele>210.00</ele>
	<time>2022-05-14T06:19:19.000Z</time>
</trkpt>
<trkpt lat="44.3269670" lon="9.1548080">
	<ele>209.80</ele>
	<time>2022-05-14T06:19:21.000Z</time>
</trkpt>
<trkpt lat="44.3269010" lon="9.1547530">
	<ele>209.00</ele>
	<time>2022-05-14T06:19:27.000Z</time>
</trkpt>
<trkpt lat="44.3268780" lon="9.1547500">
	<ele>208.40</ele>
	<time>2022-05-14T06:19:30.000Z</time>
</trkpt>
<trkpt lat="44.3268450" lon="9.1547360">
	<ele>207.80</ele>
	<time>2022-05-14T06:19:33.000Z</time>
</trkpt>
<trkpt lat="44.3268230" lon="9.1547340">
	<ele>207.60</ele>
	<time>2022-05-14T06:19:35.000Z</time>
</trkpt>
<trkpt lat="44.3268060" lon="9.1547250">
	<ele>207.40</ele>
	<time>2022-05-14T06:19:37.000Z</time>
</trkpt>
<trkpt lat="44.3267060" lon="9.1546620">
	<ele>207.00</ele>
	<time>2022-05-14T06:19:45.000Z</time>
</trkpt>
<trkpt lat="44.3266810" lon="9.1546530">
	<ele>206.80</ele>
	<time>2022-05-14T06:19:47.000Z</time>
</trkpt>
<trkpt lat="44.3266220" lon="9.1546630">
	<ele>207.20</ele>
	<time>2022-05-14T06:19:52.000Z</time>
</trkpt>
<trkpt lat="44.3266140" lon="9.1546730">
	<ele>207.20</ele>
	<time>2022-05-14T06:19:53.000Z</time>
</trkpt>
<trkpt lat="44.3266080" lon="9.1546760">
	<ele>207.20</ele>
	<time>2022-05-14T06:19:54.000Z</time>
</trkpt>
<trkpt lat="44.3265990" lon="9.1546780">
	<ele>207.60</ele>
	<time>2022-05-14T06:19:56.000Z</time>
</trkpt>
<trkpt lat="44.3265890" lon="9.1546710">
	<ele>207.60</ele>
	<time>2022-05-14T06:19:57.000Z</time>
</trkpt>
<trkpt lat="44.3265770" lon="9.1546640">
	<ele>207.60</ele>
	<time>2022-05-14T06:19:58.000Z</time>
</trkpt>
<trkpt lat="44.3265230" lon="9.1546480">
	<ele>206.60</ele>
	<time>2022-05-14T06:20:03.000Z</time>
</trkpt>
<trkpt lat="44.3264920" lon="9.1546610">
	<ele>205.80</ele>
	<time>2022-05-14T06:20:07.000Z</time>
</trkpt>
<trkpt lat="44.3264830" lon="9.1546670">
	<ele>205.60</ele>
	<time>2022-05-14T06:20:08.000Z</time>
</trkpt>
<trkpt lat="44.3264710" lon="9.1546620">
	<ele>205.40</ele>
	<time>2022-05-14T06:20:09.000Z</time>
</trkpt>
<trkpt lat="44.3264580" lon="9.1546570">
	<ele>205.40</ele>
	<time>2022-05-14T06:20:10.000Z</time>
</trkpt>
<trkpt lat="44.3264330" lon="9.1546510">
	<ele>204.60</ele>
	<time>2022-05-14T06:20:13.000Z</time>
</trkpt>
<trkpt lat="44.3264260" lon="9.1546470">
	<ele>204.40</ele>
	<time>2022-05-14T06:20:14.000Z</time>
</trkpt>
<trkpt lat="44.3264210" lon="9.1546460">
	<ele>204.40</ele>
	<time>2022-05-14T06:20:15.000Z</time>
</trkpt>
<trkpt lat="44.3264080" lon="9.1545970">
	<ele>203.80</ele>
	<time>2022-05-14T06:20:20.000Z</time>
</trkpt>
<trkpt lat="44.3263970" lon="9.1545780">
	<ele>203.60</ele>
	<time>2022-05-14T06:20:22.000Z</time>
</trkpt>
<trkpt lat="44.3263720" lon="9.1545470">
	<ele>203.60</ele>
	<time>2022-05-14T06:20:25.000Z</time>
</trkpt>
<trkpt lat="44.3263360" lon="9.1545240">
	<ele>203.60</ele>
	<time>2022-05-14T06:20:30.000Z</time>
</trkpt>
<trkpt lat="44.3263320" lon="9.1545190">
	<ele>203.80</ele>
	<time>2022-05-14T06:20:31.000Z</time>
</trkpt>
<trkpt lat="44.3262760" lon="9.1544860">
	<ele>204.00</ele>
	<time>2022-05-14T06:20:38.000Z</time>
</trkpt>
<trkpt lat="44.3262150" lon="9.1544790">
	<ele>203.80</ele>
	<time>2022-05-14T06:20:43.000Z</time>
</trkpt>
<trkpt lat="44.3261940" lon="9.1544650">
	<ele>203.80</ele>
	<time>2022-05-14T06:20:45.000Z</time>
</trkpt>
<trkpt lat="44.3261780" lon="9.1544670">
	<ele>203.80</ele>
	<time>2022-05-14T06:20:46.000Z</time>
</trkpt>
<trkpt lat="44.3261530" lon="9.1544620">
	<ele>203.80</ele>
	<time>2022-05-14T06:20:50.000Z</time>
</trkpt>
<trkpt lat="44.3261440" lon="9.1544590">
	<ele>203.60</ele>
	<time>2022-05-14T06:20:52.000Z</time>
</trkpt>
<trkpt lat="44.3261350" lon="9.1544550">
	<ele>203.60</ele>
	<time>2022-05-14T06:20:53.000Z</time>
</trkpt>
<trkpt lat="44.3261000" lon="9.1544270">
	<ele>203.80</ele>
	<time>2022-05-14T06:20:57.000Z</time>
</trkpt>
<trkpt lat="44.3260900" lon="9.1544240">
	<ele>204.00</ele>
	<time>2022-05-14T06:20:58.000Z</time>
</trkpt>
<trkpt lat="44.3260730" lon="9.1544130">
	<ele>204.20</ele>
	<time>2022-05-14T06:21:00.000Z</time>
</trkpt>
<trkpt lat="44.3260550" lon="9.1544010">
	<ele>204.20</ele>
	<time>2022-05-14T06:21:02.000Z</time>
</trkpt>
<trkpt lat="44.3260330" lon="9.1543950">
	<ele>204.40</ele>
	<time>2022-05-14T06:21:04.000Z</time>
</trkpt>
<trkpt lat="44.3260140" lon="9.1544080">
	<ele>204.40</ele>
	<time>2022-05-14T06:21:06.000Z</time>
</trkpt>
<trkpt lat="44.3260010" lon="9.1544160">
	<ele>204.40</ele>
	<time>2022-05-14T06:21:07.000Z</time>
</trkpt>
<trkpt lat="44.3259650" lon="9.1544140">
	<ele>204.40</ele>
	<time>2022-05-14T06:21:11.000Z</time>
</trkpt>
<trkpt lat="44.3259530" lon="9.1543980">
	<ele>204.20</ele>
	<time>2022-05-14T06:21:13.000Z</time>
</trkpt>
<trkpt lat="44.3258760" lon="9.1542950">
	<ele>204.00</ele>
	<time>2022-05-14T06:21:21.000Z</time>
</trkpt>
<trkpt lat="44.3258260" lon="9.1542290">
	<ele>204.00</ele>
	<time>2022-05-14T06:21:27.000Z</time>
</trkpt>
<trkpt lat="44.3258170" lon="9.1542230">
	<ele>204.20</ele>
	<time>2022-05-14T06:21:28.000Z</time>
</trkpt>
<trkpt lat="44.3257880" lon="9.1541980">
	<ele>204.20</ele>
	<time>2022-05-14T06:21:31.000Z</time>
</trkpt>
<trkpt lat="44.3257570" lon="9.1541700">
	<ele>204.20</ele>
	<time>2022-05-14T06:21:35.000Z</time>
</trkpt>
<trkpt lat="44.3257000" lon="9.1541070">
	<ele>204.60</ele>
	<time>2022-05-14T06:21:41.000Z</time>
</trkpt>
<trkpt lat="44.3256900" lon="9.1541030">
	<ele>204.60</ele>
	<time>2022-05-14T06:21:42.000Z</time>
</trkpt>
<trkpt lat="44.3256660" lon="9.1540730">
	<ele>204.80</ele>
	<time>2022-05-14T06:21:45.000Z</time>
</trkpt>
<trkpt lat="44.3256390" lon="9.1540530">
	<ele>205.20</ele>
	<time>2022-05-14T06:21:48.000Z</time>
</trkpt>
<trkpt lat="44.3256140" lon="9.1540480">
	<ele>205.20</ele>
	<time>2022-05-14T06:21:50.000Z</time>
</trkpt>
<trkpt lat="44.3255780" lon="9.1540210">
	<ele>205.80</ele>
	<time>2022-05-14T06:21:53.000Z</time>
</trkpt>
<trkpt lat="44.3255680" lon="9.1540100">
	<ele>205.80</ele>
	<time>2022-05-14T06:21:54.000Z</time>
</trkpt>
<trkpt lat="44.3255450" lon="9.1539720">
	<ele>206.00</ele>
	<time>2022-05-14T06:21:57.000Z</time>
</trkpt>
<trkpt lat="44.3255170" lon="9.1539530">
	<ele>206.00</ele>
	<time>2022-05-14T06:21:59.000Z</time>
</trkpt>
<trkpt lat="44.3254940" lon="9.1539220">
	<ele>205.80</ele>
	<time>2022-05-14T06:22:02.000Z</time>
</trkpt>
<trkpt lat="44.3254780" lon="9.1538970">
	<ele>205.60</ele>
	<time>2022-05-14T06:22:04.000Z</time>
</trkpt>
<trkpt lat="44.3253890" lon="9.1538440">
	<ele>205.20</ele>
	<time>2022-05-14T06:22:12.000Z</time>
</trkpt>
<trkpt lat="44.3253550" lon="9.1538270">
	<ele>205.20</ele>
	<time>2022-05-14T06:22:15.000Z</time>
</trkpt>
<trkpt lat="44.3253150" lon="9.1538430">
	<ele>205.60</ele>
	<time>2022-05-14T06:22:19.000Z</time>
</trkpt>
<trkpt lat="44.3252930" lon="9.1538580">
	<ele>206.40</ele>
	<time>2022-05-14T06:22:23.000Z</time>
</trkpt>
<trkpt lat="44.3252920" lon="9.1538570">
	<ele>206.60</ele>
	<time>2022-05-14T06:22:24.000Z</time>
</trkpt>
<trkpt lat="44.3252840" lon="9.1538590">
	<ele>206.80</ele>
	<time>2022-05-14T06:22:25.000Z</time>
</trkpt>
<trkpt lat="44.3252750" lon="9.1538730">
	<ele>207.20</ele>
	<time>2022-05-14T06:22:27.000Z</time>
</trkpt>
<trkpt lat="44.3252640" lon="9.1539070">
	<ele>207.60</ele>
	<time>2022-05-14T06:22:30.000Z</time>
</trkpt>
<trkpt lat="44.3252430" lon="9.1539350">
	<ele>207.80</ele>
	<time>2022-05-14T06:22:33.000Z</time>
</trkpt>
<trkpt lat="44.3252200" lon="9.1539570">
	<ele>207.60</ele>
	<time>2022-05-14T06:22:37.000Z</time>
</trkpt>
<trkpt lat="44.3252130" lon="9.1539650">
	<ele>207.20</ele>
	<time>2022-05-14T06:22:39.000Z</time>
</trkpt>
<trkpt lat="44.3252090" lon="9.1539680">
	<ele>207.00</ele>
	<time>2022-05-14T06:22:40.000Z</time>
</trkpt>
<trkpt lat="44.3251770" lon="9.1539840">
	<ele>206.00</ele>
	<time>2022-05-14T06:22:45.000Z</time>
</trkpt>
<trkpt lat="44.3251800" lon="9.1539960">
	<ele>205.80</ele>
	<time>2022-05-14T06:22:46.000Z</time>
</trkpt>
<trkpt lat="44.3251850" lon="9.1539990">
	<ele>205.40</ele>
	<time>2022-05-14T06:22:47.000Z</time>
</trkpt>
<trkpt lat="44.3251920" lon="9.1540180">
	<ele>204.80</ele>
	<time>2022-05-14T06:22:49.000Z</time>
</trkpt>
<trkpt lat="44.3251990" lon="9.1540270">
	<ele>204.60</ele>
	<time>2022-05-14T06:22:50.000Z</time>
</trkpt>
<trkpt lat="44.3252030" lon="9.1540550">
	<ele>204.60</ele>
	<time>2022-05-14T06:22:53.000Z</time>
</trkpt>
<trkpt lat="44.3251890" lon="9.1540680">
	<ele>204.80</ele>
	<time>2022-05-14T06:22:55.000Z</time>
</trkpt>
<trkpt lat="44.3251740" lon="9.1540840">
	<ele>205.20</ele>
	<time>2022-05-14T06:22:57.000Z</time>
</trkpt>
<trkpt lat="44.3251710" lon="9.1540960">
	<ele>205.40</ele>
	<time>2022-05-14T06:22:59.000Z</time>
</trkpt>
<trkpt lat="44.3251470" lon="9.1541200">
	<ele>205.80</ele>
	<time>2022-05-14T06:23:02.000Z</time>
</trkpt>
<trkpt lat="44.3251460" lon="9.1541220">
	<ele>205.80</ele>
	<time>2022-05-14T06:23:03.000Z</time>
</trkpt>
<trkpt lat="44.3251490" lon="9.1541200">
	<ele>206.20</ele>
	<time>2022-05-14T06:23:05.000Z</time>
</trkpt>
<trkpt lat="44.3251530" lon="9.1541150">
	<ele>206.40</ele>
	<time>2022-05-14T06:23:06.000Z</time>
</trkpt>
<trkpt lat="44.3251530" lon="9.1541100">
	<ele>206.40</ele>
	<time>2022-05-14T06:23:07.000Z</time>
</trkpt>
<trkpt lat="44.3251520" lon="9.1541010">
	<ele>206.80</ele>
	<time>2022-05-14T06:23:08.000Z</time>
</trkpt>
<trkpt lat="44.3251360" lon="9.1540640">
	<ele>207.40</ele>
	<time>2022-05-14T06:23:11.000Z</time>
</trkpt>
<trkpt lat="44.3251360" lon="9.1540470">
	<ele>207.80</ele>
	<time>2022-05-14T06:23:12.000Z</time>
</trkpt>
<trkpt lat="44.3251370" lon="9.1540180">
	<ele>208.20</ele>
	<time>2022-05-14T06:23:14.000Z</time>
</trkpt>
<trkpt lat="44.3251410" lon="9.1539790">
	<ele>208.60</ele>
	<time>2022-05-14T06:23:16.000Z</time>
</trkpt>
<trkpt lat="44.3251380" lon="9.1539640">
	<ele>208.60</ele>
	<time>2022-05-14T06:23:17.000Z</time>
</trkpt>
<trkpt lat="44.3251310" lon="9.1539460">
	<ele>208.80</ele>
	<time>2022-05-14T06:23:18.000Z</time>
</trkpt>
<trkpt lat="44.3251190" lon="9.1539300">
	<ele>208.80</ele>
	<time>2022-05-14T06:23:20.000Z</time>
</trkpt>
<trkpt lat="44.3251130" lon="9.1539270">
	<ele>209.00</ele>
	<time>2022-05-14T06:23:21.000Z</time>
</trkpt>
<trkpt lat="44.3250980" lon="9.1539190">
	<ele>209.00</ele>
	<time>2022-05-14T06:23:23.000Z</time>
</trkpt>
<trkpt lat="44.3250980" lon="9.1539120">
	<ele>209.00</ele>
	<time>2022-05-14T06:23:24.000Z</time>
</trkpt>
<trkpt lat="44.3250960" lon="9.1538780">
	<ele>208.40</ele>
	<time>2022-05-14T06:23:28.000Z</time>
</trkpt>
<trkpt lat="44.3251000" lon="9.1538690">
	<ele>208.20</ele>
	<time>2022-05-14T06:23:29.000Z</time>
</trkpt>
<trkpt lat="44.3250880" lon="9.1538260">
	<ele>207.80</ele>
	<time>2022-05-14T06:23:33.000Z</time>
</trkpt>
<trkpt lat="44.3250830" lon="9.1538040">
	<ele>207.60</ele>
	<time>2022-05-14T06:23:35.000Z</time>
</trkpt>
<trkpt lat="44.3250660" lon="9.1537950">
	<ele>207.60</ele>
	<time>2022-05-14T06:23:36.000Z</time>
</trkpt>
<trkpt lat="44.3250500" lon="9.1537770">
	<ele>207.40</ele>
	<time>2022-05-14T06:23:38.000Z</time>
</trkpt>
<trkpt lat="44.3250420" lon="9.1537570">
	<ele>207.20</ele>
	<time>2022-05-14T06:23:41.000Z</time>
</trkpt>
<trkpt lat="44.3250300" lon="9.1536910">
	<ele>207.60</ele>
	<time>2022-05-14T06:23:48.000Z</time>
</trkpt>
<trkpt lat="44.3250120" lon="9.1536640">
	<ele>207.60</ele>
	<time>2022-05-14T06:23:51.000Z</time>
</trkpt>
<trkpt lat="44.3249810" lon="9.1536220">
	<ele>207.80</ele>
	<time>2022-05-14T06:23:54.000Z</time>
</trkpt>
<trkpt lat="44.3249700" lon="9.1536030">
	<ele>208.00</ele>
	<time>2022-05-14T06:23:55.000Z</time>
</trkpt>
<trkpt lat="44.3249020" lon="9.1535490">
	<ele>208.80</ele>
	<time>2022-05-14T06:24:00.000Z</time>
</trkpt>
<trkpt lat="44.3249000" lon="9.1535390">
	<ele>209.00</ele>
	<time>2022-05-14T06:24:01.000Z</time>
</trkpt>
<trkpt lat="44.3248640" lon="9.1534760">
	<ele>209.80</ele>
	<time>2022-05-14T06:24:07.000Z</time>
</trkpt>
<trkpt lat="44.3248660" lon="9.1534290">
	<ele>210.00</ele>
	<time>2022-05-14T06:24:10.000Z</time>
</trkpt>
<trkpt lat="44.3248370" lon="9.1534210">
	<ele>210.40</ele>
	<time>2022-05-14T06:24:13.000Z</time>
</trkpt>
<trkpt lat="44.3247820" lon="9.1533830">
	<ele>211.20</ele>
	<time>2022-05-14T06:24:20.000Z</time>
</trkpt>
<trkpt lat="44.3247620" lon="9.1533680">
	<ele>211.60</ele>
	<time>2022-05-14T06:24:23.000Z</time>
</trkpt>
<trkpt lat="44.3247340" lon="9.1533680">
	<ele>212.40</ele>
	<time>2022-05-14T06:24:27.000Z</time>
</trkpt>
<trkpt lat="44.3247270" lon="9.1533660">
	<ele>212.80</ele>
	<time>2022-05-14T06:24:30.000Z</time>
</trkpt>
<trkpt lat="44.3247130" lon="9.1533540">
	<ele>213.60</ele>
	<time>2022-05-14T06:24:34.000Z</time>
</trkpt>
<trkpt lat="44.3247060" lon="9.1533470">
	<ele>214.20</ele>
	<time>2022-05-14T06:24:37.000Z</time>
</trkpt>
<trkpt lat="44.3246920" lon="9.1533400">
	<ele>214.60</ele>
	<time>2022-05-14T06:24:39.000Z</time>
</trkpt>
<trkpt lat="44.3246410" lon="9.1533360">
	<ele>215.00</ele>
	<time>2022-05-14T06:24:44.000Z</time>
</trkpt>
<trkpt lat="44.3245900" lon="9.1533060">
	<ele>214.80</ele>
	<time>2022-05-14T06:24:48.000Z</time>
</trkpt>
<trkpt lat="44.3245810" lon="9.1532930">
	<ele>214.80</ele>
	<time>2022-05-14T06:24:51.000Z</time>
</trkpt>
<trkpt lat="44.3245460" lon="9.1532710">
	<ele>215.00</ele>
	<time>2022-05-14T06:24:56.000Z</time>
</trkpt>
<trkpt lat="44.3245350" lon="9.1532640">
	<ele>215.00</ele>
	<time>2022-05-14T06:24:57.000Z</time>
</trkpt>
<trkpt lat="44.3245140" lon="9.1532480">
	<ele>215.40</ele>
	<time>2022-05-14T06:25:00.000Z</time>
</trkpt>
<trkpt lat="44.3245030" lon="9.1532090">
	<ele>215.80</ele>
	<time>2022-05-14T06:25:04.000Z</time>
</trkpt>
<trkpt lat="44.3244930" lon="9.1532100">
	<ele>215.80</ele>
	<time>2022-05-14T06:25:05.000Z</time>
</trkpt>
<trkpt lat="44.3244880" lon="9.1532080">
	<ele>216.00</ele>
	<time>2022-05-14T06:25:06.000Z</time>
</trkpt>
<trkpt lat="44.3244820" lon="9.1532040">
	<ele>216.20</ele>
	<time>2022-05-14T06:25:08.000Z</time>
</trkpt>
<trkpt lat="44.3244340" lon="9.1531820">
	<ele>216.00</ele>
	<time>2022-05-14T06:25:12.000Z</time>
</trkpt>
<trkpt lat="44.3244170" lon="9.1531630">
	<ele>216.00</ele>
	<time>2022-05-14T06:25:13.000Z</time>
</trkpt>
<trkpt lat="44.3243990" lon="9.1531470">
	<ele>215.80</ele>
	<time>2022-05-14T06:25:14.000Z</time>
</trkpt>
<trkpt lat="44.3243600" lon="9.1531160">
	<ele>215.80</ele>
	<time>2022-05-14T06:25:18.000Z</time>
</trkpt>
<trkpt lat="44.3242990" lon="9.1531440">
	<ele>215.80</ele>
	<time>2022-05-14T06:25:24.000Z</time>
</trkpt>
<trkpt lat="44.3242930" lon="9.1531300">
	<ele>215.80</ele>
	<time>2022-05-14T06:25:26.000Z</time>
</trkpt>
<trkpt lat="44.3242740" lon="9.1531320">
	<ele>215.80</ele>
	<time>2022-05-14T06:25:28.000Z</time>
</trkpt>
<trkpt lat="44.3242630" lon="9.1531420">
	<ele>216.00</ele>
	<time>2022-05-14T06:25:29.000Z</time>
</trkpt>
<trkpt lat="44.3242230" lon="9.1531700">
	<ele>216.40</ele>
	<time>2022-05-14T06:25:33.000Z</time>
</trkpt>
<trkpt lat="44.3242130" lon="9.1531670">
	<ele>216.80</ele>
	<time>2022-05-14T06:25:36.000Z</time>
</trkpt>
<trkpt lat="44.3241660" lon="9.1531520">
	<ele>217.40</ele>
	<time>2022-05-14T06:25:41.000Z</time>
</trkpt>
<trkpt lat="44.3241660" lon="9.1531250">
	<ele>217.80</ele>
	<time>2022-05-14T06:25:45.000Z</time>
</trkpt>
<trkpt lat="44.3241700" lon="9.1531180">
	<ele>218.00</ele>
	<time>2022-05-14T06:25:48.000Z</time>
</trkpt>
<trkpt lat="44.3241790" lon="9.1531160">
	<ele>218.00</ele>
	<time>2022-05-14T06:25:53.000Z</time>
</trkpt>
<trkpt lat="44.3241530" lon="9.1530890">
	<ele>218.00</ele>
	<time>2022-05-14T06:26:01.000Z</time>
</trkpt>
<trkpt lat="44.3241570" lon="9.1530460">
	<ele>218.00</ele>
	<time>2022-05-14T06:26:07.000Z</time>
</trkpt>
<trkpt lat="44.3241640" lon="9.1530270">
	<ele>218.40</ele>
	<time>2022-05-14T06:26:10.000Z</time>
</trkpt>
<trkpt lat="44.3241500" lon="9.1530080">
	<ele>219.00</ele>
	<time>2022-05-14T06:26:14.000Z</time>
</trkpt>
<trkpt lat="44.3241160" lon="9.1529990">
	<ele>219.00</ele>
	<time>2022-05-14T06:26:17.000Z</time>
</trkpt>
<trkpt lat="44.3240780" lon="9.1529620">
	<ele>218.40</ele>
	<time>2022-05-14T06:26:22.000Z</time>
</trkpt>
<trkpt lat="44.3240680" lon="9.1529140">
	<ele>218.00</ele>
	<time>2022-05-14T06:26:28.000Z</time>
</trkpt>
<trkpt lat="44.3240490" lon="9.1529070">
	<ele>217.80</ele>
	<time>2022-05-14T06:26:30.000Z</time>
</trkpt>
<trkpt lat="44.3240530" lon="9.1528470">
	<ele>217.40</ele>
	<time>2022-05-14T06:26:34.000Z</time>
</trkpt>
<trkpt lat="44.3240400" lon="9.1527930">
	<ele>217.20</ele>
	<time>2022-05-14T06:26:39.000Z</time>
</trkpt>
<trkpt lat="44.3240260" lon="9.1527670">
	<ele>217.20</ele>
	<time>2022-05-14T06:26:42.000Z</time>
</trkpt>
<trkpt lat="44.3240240" lon="9.1527300">
	<ele>217.20</ele>
	<time>2022-05-14T06:26:45.000Z</time>
</trkpt>
<trkpt lat="44.3239860" lon="9.1526980">
	<ele>218.00</ele>
	<time>2022-05-14T06:26:50.000Z</time>
</trkpt>
<trkpt lat="44.3239630" lon="9.1526760">
	<ele>218.40</ele>
	<time>2022-05-14T06:26:52.000Z</time>
</trkpt>
<trkpt lat="44.3239640" lon="9.1526620">
	<ele>218.60</ele>
	<time>2022-05-14T06:26:53.000Z</time>
</trkpt>
<trkpt lat="44.3239600" lon="9.1526380">
	<ele>218.80</ele>
	<time>2022-05-14T06:26:55.000Z</time>
</trkpt>
<trkpt lat="44.3239570" lon="9.1526240">
	<ele>219.00</ele>
	<time>2022-05-14T06:26:56.000Z</time>
</trkpt>
<trkpt lat="44.3239700" lon="9.1525730">
	<ele>219.80</ele>
	<time>2022-05-14T06:27:01.000Z</time>
</trkpt>
<trkpt lat="44.3239660" lon="9.1525570">
	<ele>220.20</ele>
	<time>2022-05-14T06:27:03.000Z</time>
</trkpt>
<trkpt lat="44.3239380" lon="9.1525410">
	<ele>221.00</ele>
	<time>2022-05-14T06:27:06.000Z</time>
</trkpt>
<trkpt lat="44.3239330" lon="9.1525380">
	<ele>221.20</ele>
	<time>2022-05-14T06:27:08.000Z</time>
</trkpt>
<trkpt lat="44.3239210" lon="9.1525420">
	<ele>222.00</ele>
	<time>2022-05-14T06:27:12.000Z</time>
</trkpt>
<trkpt lat="44.3239140" lon="9.1525490">
	<ele>222.40</ele>
	<time>2022-05-14T06:27:14.000Z</time>
</trkpt>
<trkpt lat="44.3239140" lon="9.1525460">
	<ele>223.00</ele>
	<time>2022-05-14T06:27:19.000Z</time>
</trkpt>
<trkpt lat="44.3239180" lon="9.1525230">
	<ele>223.40</ele>
	<time>2022-05-14T06:27:23.000Z</time>
</trkpt>
<trkpt lat="44.3239180" lon="9.1525180">
	<ele>223.60</ele>
	<time>2022-05-14T06:27:24.000Z</time>
</trkpt>
<trkpt lat="44.3239280" lon="9.1525130">
	<ele>223.80</ele>
	<time>2022-05-14T06:27:26.000Z</time>
</trkpt>
<trkpt lat="44.3239400" lon="9.1525020">
	<ele>224.60</ele>
	<time>2022-05-14T06:27:29.000Z</time>
</trkpt>
<trkpt lat="44.3239640" lon="9.1524720">
	<ele>225.40</ele>
	<time>2022-05-14T06:27:33.000Z</time>
</trkpt>
<trkpt lat="44.3239720" lon="9.1524680">
	<ele>225.60</ele>
	<time>2022-05-14T06:27:35.000Z</time>
</trkpt>
<trkpt lat="44.3239840" lon="9.1524250">
	<ele>226.60</ele>
	<time>2022-05-14T06:27:40.000Z</time>
</trkpt>
<trkpt lat="44.3239820" lon="9.1523900">
	<ele>227.20</ele>
	<time>2022-05-14T06:27:45.000Z</time>
</trkpt>
<trkpt lat="44.3239880" lon="9.1523400">
	<ele>227.80</ele>
	<time>2022-05-14T06:27:50.000Z</time>
</trkpt>
<trkpt lat="44.3240000" lon="9.1523080">
	<ele>228.00</ele>
	<time>2022-05-14T06:27:53.000Z</time>
</trkpt>
<trkpt lat="44.3239950" lon="9.1522930">
	<ele>227.80</ele>
	<time>2022-05-14T06:27:58.000Z</time>
</trkpt>
<trkpt lat="44.3239830" lon="9.1522960">
	<ele>228.20</ele>
	<time>2022-05-14T06:28:05.000Z</time>
</trkpt>
<trkpt lat="44.3239830" lon="9.1522960">
	<ele>228.00</ele>
	<time>2022-05-14T06:28:08.000Z</time>
</trkpt>
<trkpt lat="44.3239830" lon="9.1522960">
	<ele>227.80</ele>
	<time>2022-05-14T06:28:12.000Z</time>
</trkpt>
<trkpt lat="44.3239870" lon="9.1522890">
	<ele>227.60</ele>
	<time>2022-05-14T06:28:29.000Z</time>
</trkpt>
<trkpt lat="44.3239870" lon="9.1522860">
	<ele>227.60</ele>
	<time>2022-05-14T06:28:34.000Z</time>
</trkpt>
<trkpt lat="44.3240050" lon="9.1522530">
	<ele>227.80</ele>
	<time>2022-05-14T06:28:38.000Z</time>
</trkpt>
<trkpt lat="44.3240060" lon="9.1522390">
	<ele>227.80</ele>
	<time>2022-05-14T06:28:46.000Z</time>
</trkpt>
<trkpt lat="44.3240080" lon="9.1522200">
	<ele>227.40</ele>
	<time>2022-05-14T06:29:01.000Z</time>
</trkpt>
<trkpt lat="44.3240120" lon="9.1522170">
	<ele>227.40</ele>
	<time>2022-05-14T06:29:05.000Z</time>
</trkpt>
<trkpt lat="44.3240130" lon="9.1522160">
	<ele>227.40</ele>
	<time>2022-05-14T06:29:07.000Z</time>
</trkpt>
<trkpt lat="44.3240120" lon="9.1521960">
	<ele>227.20</ele>
	<time>2022-05-14T06:29:26.000Z</time>
</trkpt>
<trkpt lat="44.3238270" lon="9.1522610">
	<ele>227.00</ele>
	<time>2022-05-14T06:29:56.000Z</time>
</trkpt>
<trkpt lat="44.3238870" lon="9.1522850">
	<ele>227.00</ele>
	<time>2022-05-14T06:30:01.000Z</time>
</trkpt>
<trkpt lat="44.3239980" lon="9.1522460">
	<ele>227.00</ele>
	<time>2022-05-14T06:30:03.000Z</time>
</trkpt>
<trkpt lat="44.3241580" lon="9.1521570">
	<ele>227.20</ele>
	<time>2022-05-14T06:30:05.000Z</time>
</trkpt>
<trkpt lat="44.3240570" lon="9.1521860">
	<ele>227.80</ele>
	<time>2022-05-14T06:30:12.000Z</time>
</trkpt>
<trkpt lat="44.3240350" lon="9.1521660">
	<ele>227.80</ele>
	<time>2022-05-14T06:30:21.000Z</time>
</trkpt>
<trkpt lat="44.3240000" lon="9.1521690">
	<ele>226.80</ele>
	<time>2022-05-14T06:30:26.000Z</time>
</trkpt>
<trkpt lat="44.3239570" lon="9.1521780">
	<ele>225.60</ele>
	<time>2022-05-14T06:30:32.000Z</time>
</trkpt>
<trkpt lat="44.3239150" lon="9.1521510">
	<ele>224.60</ele>
	<time>2022-05-14T06:30:37.000Z</time>
</trkpt>
<trkpt lat="44.3238820" lon="9.1521410">
	<ele>223.60</ele>
	<time>2022-05-14T06:30:41.000Z</time>
</trkpt>
<trkpt lat="44.3238810" lon="9.1521270">
	<ele>223.40</ele>
	<time>2022-05-14T06:30:42.000Z</time>
</trkpt>
<trkpt lat="44.3238470" lon="9.1520830">
	<ele>222.40</ele>
	<time>2022-05-14T06:30:47.000Z</time>
</trkpt>
<trkpt lat="44.3237930" lon="9.1521030">
	<ele>221.80</ele>
	<time>2022-05-14T06:30:54.000Z</time>
</trkpt>
<trkpt lat="44.3237790" lon="9.1521010">
	<ele>221.40</ele>
	<time>2022-05-14T06:30:59.000Z</time>
</trkpt>
<trkpt lat="44.3237710" lon="9.1521020">
	<ele>221.40</ele>
	<time>2022-05-14T06:31:00.000Z</time>
</trkpt>
<trkpt lat="44.3237220" lon="9.1521130">
	<ele>221.20</ele>
	<time>2022-05-14T06:31:04.000Z</time>
</trkpt>
<trkpt lat="44.3237240" lon="9.1521120">
	<ele>221.20</ele>
	<time>2022-05-14T06:31:05.000Z</time>
</trkpt>
<trkpt lat="44.3237470" lon="9.1521040">
	<ele>221.20</ele>
	<time>2022-05-14T06:31:10.000Z</time>
</trkpt>
<trkpt lat="44.3237550" lon="9.1520880">
	<ele>221.00</ele>
	<time>2022-05-14T06:31:16.000Z</time>
</trkpt>
<trkpt lat="44.3237550" lon="9.1520880">
	<ele>221.00</ele>
	<time>2022-05-14T06:31:17.000Z</time>
</trkpt>
<trkpt lat="44.3237550" lon="9.1520970">
	<ele>221.20</ele>
	<time>2022-05-14T06:31:32.000Z</time>
</trkpt>
<trkpt lat="44.3237490" lon="9.1521030">
	<ele>221.20</ele>
	<time>2022-05-14T06:31:37.000Z</time>
</trkpt>
<trkpt lat="44.3236860" lon="9.1521280">
	<ele>220.80</ele>
	<time>2022-05-14T06:31:41.000Z</time>
</trkpt>
<trkpt lat="44.3235810" lon="9.1521830">
	<ele>220.60</ele>
	<time>2022-05-14T06:31:51.000Z</time>
</trkpt>
<trkpt lat="44.3235570" lon="9.1521750">
	<ele>220.20</ele>
	<time>2022-05-14T06:31:54.000Z</time>
</trkpt>
<trkpt lat="44.3235560" lon="9.1521710">
	<ele>220.00</ele>
	<time>2022-05-14T06:31:55.000Z</time>
</trkpt>
<trkpt lat="44.3235290" lon="9.1521690">
	<ele>219.40</ele>
	<time>2022-05-14T06:31:58.000Z</time>
</trkpt>
<trkpt lat="44.3235190" lon="9.1521700">
	<ele>219.20</ele>
	<time>2022-05-14T06:31:59.000Z</time>
</trkpt>
<trkpt lat="44.3235090" lon="9.1521710">
	<ele>219.20</ele>
	<time>2022-05-14T06:32:00.000Z</time>
</trkpt>
<trkpt lat="44.3234630" lon="9.1521630">
	<ele>219.20</ele>
	<time>2022-05-14T06:32:05.000Z</time>
</trkpt>
<trkpt lat="44.3234550" lon="9.1521560">
	<ele>219.20</ele>
	<time>2022-05-14T06:32:06.000Z</time>
</trkpt>
<trkpt lat="44.3234410" lon="9.1521540">
	<ele>219.40</ele>
	<time>2022-05-14T06:32:08.000Z</time>
</trkpt>
<trkpt lat="44.3233600" lon="9.1521400">
	<ele>219.80</ele>
	<time>2022-05-14T06:32:15.000Z</time>
</trkpt>
<trkpt lat="44.3232560" lon="9.1520920">
	<ele>220.00</ele>
	<time>2022-05-14T06:32:22.000Z</time>
</trkpt>
<trkpt lat="44.3232090" lon="9.1520850">
	<ele>220.00</ele>
	<time>2022-05-14T06:32:27.000Z</time>
</trkpt>
<trkpt lat="44.3231850" lon="9.1520910">
	<ele>220.20</ele>
	<time>2022-05-14T06:32:29.000Z</time>
</trkpt>
<trkpt lat="44.3231780" lon="9.1520920">
	<ele>220.40</ele>
	<time>2022-05-14T06:32:30.000Z</time>
</trkpt>
<trkpt lat="44.3231290" lon="9.1520910">
	<ele>221.20</ele>
	<time>2022-05-14T06:32:36.000Z</time>
</trkpt>
<trkpt lat="44.3231130" lon="9.1520810">
	<ele>221.20</ele>
	<time>2022-05-14T06:32:38.000Z</time>
</trkpt>
<trkpt lat="44.3230960" lon="9.1520630">
	<ele>221.40</ele>
	<time>2022-05-14T06:32:39.000Z</time>
</trkpt>
<trkpt lat="44.3230640" lon="9.1520240">
	<ele>221.40</ele>
	<time>2022-05-14T06:32:41.000Z</time>
</trkpt>
<trkpt lat="44.3230360" lon="9.1520080">
	<ele>221.60</ele>
	<time>2022-05-14T06:32:43.000Z</time>
</trkpt>
<trkpt lat="44.3230170" lon="9.1520180">
	<ele>221.60</ele>
	<time>2022-05-14T06:32:45.000Z</time>
</trkpt>
<trkpt lat="44.3229970" lon="9.1520150">
	<ele>221.80</ele>
	<time>2022-05-14T06:32:47.000Z</time>
</trkpt>
<trkpt lat="44.3229490" lon="9.1520070">
	<ele>222.20</ele>
	<time>2022-05-14T06:32:51.000Z</time>
</trkpt>
<trkpt lat="44.3229220" lon="9.1520100">
	<ele>222.20</ele>
	<time>2022-05-14T06:32:53.000Z</time>
</trkpt>
<trkpt lat="44.3228440" lon="9.1520570">
	<ele>222.40</ele>
	<time>2022-05-14T06:33:00.000Z</time>
</trkpt>
<trkpt lat="44.3227490" lon="9.1520780">
	<ele>222.80</ele>
	<time>2022-05-14T06:33:10.000Z</time>
</trkpt>
<trkpt lat="44.3227490" lon="9.1520810">
	<ele>222.80</ele>
	<time>2022-05-14T06:33:11.000Z</time>
</trkpt>
<trkpt lat="44.3227480" lon="9.1520840">
	<ele>222.80</ele>
	<time>2022-05-14T06:33:13.000Z</time>
</trkpt>
<trkpt lat="44.3227440" lon="9.1520930">
	<ele>222.40</ele>
	<time>2022-05-14T06:33:18.000Z</time>
</trkpt>
<trkpt lat="44.3227060" lon="9.1521080">
	<ele>221.80</ele>
	<time>2022-05-14T06:33:29.000Z</time>
</trkpt>
<trkpt lat="44.3226340" lon="9.1521420">
	<ele>221.80</ele>
	<time>2022-05-14T06:33:34.000Z</time>
</trkpt>
<trkpt lat="44.3226220" lon="9.1521500">
	<ele>221.80</ele>
	<time>2022-05-14T06:33:35.000Z</time>
</trkpt>
<trkpt lat="44.3225920" lon="9.1521720">
	<ele>221.80</ele>
	<time>2022-05-14T06:33:38.000Z</time>
</trkpt>
<trkpt lat="44.3225390" lon="9.1522640">
	<ele>221.60</ele>
	<time>2022-05-14T06:33:45.000Z</time>
</trkpt>
<trkpt lat="44.3225110" lon="9.1522960">
	<ele>221.40</ele>
	<time>2022-05-14T06:33:48.000Z</time>
</trkpt>
<trkpt lat="44.3224450" lon="9.1523830">
	<ele>221.20</ele>
	<time>2022-05-14T06:33:56.000Z</time>
</trkpt>
<trkpt lat="44.3224370" lon="9.1523950">
	<ele>221.20</ele>
	<time>2022-05-14T06:33:57.000Z</time>
</trkpt>
<trkpt lat="44.3224270" lon="9.1524020">
	<ele>221.20</ele>
	<time>2022-05-14T06:33:58.000Z</time>
</trkpt>
<trkpt lat="44.3223650" lon="9.1524990">
	<ele>221.60</ele>
	<time>2022-05-14T06:34:08.000Z</time>
</trkpt>
<trkpt lat="44.3223550" lon="9.1525100">
	<ele>221.80</ele>
	<time>2022-05-14T06:34:10.000Z</time>
</trkpt>
<trkpt lat="44.3223590" lon="9.1525250">
	<ele>222.40</ele>
	<time>2022-05-14T06:34:12.000Z</time>
</trkpt>
<trkpt lat="44.3223570" lon="9.1525370">
	<ele>223.00</ele>
	<time>2022-05-14T06:34:14.000Z</time>
</trkpt>
<trkpt lat="44.3223530" lon="9.1525470">
	<ele>223.40</ele>
	<time>2022-05-14T06:34:16.000Z</time>
</trkpt>
<trkpt lat="44.3223510" lon="9.1525520">
	<ele>223.40</ele>
	<time>2022-05-14T06:34:17.000Z</time>
</trkpt>
<trkpt lat="44.3223510" lon="9.1525620">
	<ele>223.60</ele>
	<time>2022-05-14T06:34:19.000Z</time>
</trkpt>
<trkpt lat="44.3223340" lon="9.1525820">
	<ele>223.60</ele>
	<time>2022-05-14T06:34:21.000Z</time>
</trkpt>
<trkpt lat="44.3223210" lon="9.1526010">
	<ele>223.60</ele>
	<time>2022-05-14T06:34:23.000Z</time>
</trkpt>
<trkpt lat="44.3222710" lon="9.1526340">
	<ele>223.60</ele>
	<time>2022-05-14T06:34:28.000Z</time>
</trkpt>
<trkpt lat="44.3222620" lon="9.1526470">
	<ele>223.60</ele>
	<time>2022-05-14T06:34:31.000Z</time>
</trkpt>
<trkpt lat="44.3222590" lon="9.1526480">
	<ele>223.60</ele>
	<time>2022-05-14T06:34:32.000Z</time>
</trkpt>
<trkpt lat="44.3222370" lon="9.1526450">
	<ele>223.60</ele>
	<time>2022-05-14T06:34:37.000Z</time>
</trkpt>
<trkpt lat="44.3222060" lon="9.1526550">
	<ele>223.60</ele>
	<time>2022-05-14T06:34:40.000Z</time>
</trkpt>
<trkpt lat="44.3221930" lon="9.1526620">
	<ele>223.60</ele>
	<time>2022-05-14T06:34:42.000Z</time>
</trkpt>
<trkpt lat="44.3221600" lon="9.1526750">
	<ele>223.40</ele>
	<time>2022-05-14T06:34:52.000Z</time>
</trkpt>
<trkpt lat="44.3221590" lon="9.1526730">
	<ele>223.60</ele>
	<time>2022-05-14T06:35:10.000Z</time>
</trkpt>
<trkpt lat="44.3221580" lon="9.1526730">
	<ele>223.80</ele>
	<time>2022-05-14T06:35:12.000Z</time>
</trkpt>
<trkpt lat="44.3221550" lon="9.1526730">
	<ele>223.80</ele>
	<time>2022-05-14T06:35:14.000Z</time>
</trkpt>
<trkpt lat="44.3221530" lon="9.1526730">
	<ele>223.80</ele>
	<time>2022-05-14T06:35:15.000Z</time>
</trkpt>
<trkpt lat="44.3221360" lon="9.1526760">
	<ele>224.60</ele>
	<time>2022-05-14T06:35:24.000Z</time>
</trkpt>
<trkpt lat="44.3220810" lon="9.1527010">
	<ele>225.40</ele>
	<time>2022-05-14T06:35:29.000Z</time>
</trkpt>
<trkpt lat="44.3220680" lon="9.1527070">
	<ele>225.40</ele>
	<time>2022-05-14T06:35:30.000Z</time>
</trkpt>
<trkpt lat="44.3220460" lon="9.1527300">
	<ele>225.60</ele>
	<time>2022-05-14T06:35:32.000Z</time>
</trkpt>
<trkpt lat="44.3219970" lon="9.1527780">
	<ele>226.00</ele>
	<time>2022-05-14T06:35:39.000Z</time>
</trkpt>
<trkpt lat="44.3219930" lon="9.1527700">
	<ele>226.40</ele>
	<time>2022-05-14T06:35:50.000Z</time>
</trkpt>
<trkpt lat="44.3219920" lon="9.1527570">
	<ele>225.80</ele>
	<time>2022-05-14T06:35:57.000Z</time>
</trkpt>
<trkpt lat="44.3219920" lon="9.1527570">
	<ele>226.00</ele>
	<time>2022-05-14T06:36:00.000Z</time>
</trkpt>
<trkpt lat="44.3219920" lon="9.1527570">
	<ele>226.00</ele>
	<time>2022-05-14T06:36:03.000Z</time>
</trkpt>
<trkpt lat="44.3219920" lon="9.1527570">
	<ele>226.00</ele>
	<time>2022-05-14T06:36:09.000Z</time>
</trkpt>
<trkpt lat="44.3219920" lon="9.1527560">
	<ele>226.00</ele>
	<time>2022-05-14T06:36:11.000Z</time>
</trkpt>
<trkpt lat="44.3219690" lon="9.1527460">
	<ele>226.00</ele>
	<time>2022-05-14T06:36:45.000Z</time>
</trkpt>
<trkpt lat="44.3219680" lon="9.1527640">
	<ele>226.40</ele>
	<time>2022-05-14T06:36:50.000Z</time>
</trkpt>
<trkpt lat="44.3219690" lon="9.1527820">
	<ele>226.40</ele>
	<time>2022-05-14T06:36:53.000Z</time>
</trkpt>
<trkpt lat="44.3219710" lon="9.1527860">
	<ele>226.00</ele>
	<time>2022-05-14T06:37:00.000Z</time>
</trkpt>
<trkpt lat="44.3219710" lon="9.1528510">
	<ele>225.80</ele>
	<time>2022-05-14T06:37:07.000Z</time>
</trkpt>
<trkpt lat="44.3219730" lon="9.1528710">
	<ele>226.00</ele>
	<time>2022-05-14T06:37:08.000Z</time>
</trkpt>
<trkpt lat="44.3219350" lon="9.1530020">
	<ele>226.00</ele>
	<time>2022-05-14T06:37:15.000Z</time>
</trkpt>
<trkpt lat="44.3219110" lon="9.1531010">
	<ele>225.80</ele>
	<time>2022-05-14T06:37:21.000Z</time>
</trkpt>
<trkpt lat="44.3219150" lon="9.1531280">
	<ele>225.80</ele>
	<time>2022-05-14T06:37:22.000Z</time>
</trkpt>
<trkpt lat="44.3219020" lon="9.1532370">
	<ele>225.80</ele>
	<time>2022-05-14T06:37:30.000Z</time>
</trkpt>
<trkpt lat="44.3218920" lon="9.1532840">
	<ele>226.60</ele>
	<time>2022-05-14T06:37:34.000Z</time>
</trkpt>
<trkpt lat="44.3218910" lon="9.1533170">
	<ele>226.60</ele>
	<time>2022-05-14T06:37:36.000Z</time>
</trkpt>
<trkpt lat="44.3218940" lon="9.1533590">
	<ele>226.60</ele>
	<time>2022-05-14T06:37:39.000Z</time>
</trkpt>
<trkpt lat="44.3218920" lon="9.1533890">
	<ele>226.60</ele>
	<time>2022-05-14T06:37:41.000Z</time>
</trkpt>
<trkpt lat="44.3218950" lon="9.1534000">
	<ele>226.60</ele>
	<time>2022-05-14T06:37:42.000Z</time>
</trkpt>
<trkpt lat="44.3218900" lon="9.1534180">
	<ele>226.60</ele>
	<time>2022-05-14T06:37:44.000Z</time>
</trkpt>
<trkpt lat="44.3218730" lon="9.1534380">
	<ele>226.40</ele>
	<time>2022-05-14T06:37:46.000Z</time>
</trkpt>
<trkpt lat="44.3218730" lon="9.1534550">
	<ele>226.40</ele>
	<time>2022-05-14T06:37:48.000Z</time>
</trkpt>
<trkpt lat="44.3218490" lon="9.1534690">
	<ele>225.60</ele>
	<time>2022-05-14T06:37:53.000Z</time>
</trkpt>
<trkpt lat="44.3218360" lon="9.1534760">
	<ele>225.20</ele>
	<time>2022-05-14T06:37:55.000Z</time>
</trkpt>
<trkpt lat="44.3218250" lon="9.1534870">
	<ele>224.80</ele>
	<time>2022-05-14T06:37:57.000Z</time>
</trkpt>
<trkpt lat="44.3218210" lon="9.1534910">
	<ele>224.60</ele>
	<time>2022-05-14T06:37:58.000Z</time>
</trkpt>
<trkpt lat="44.3218170" lon="9.1534930">
	<ele>224.40</ele>
	<time>2022-05-14T06:37:59.000Z</time>
</trkpt>
<trkpt lat="44.3217960" lon="9.1535060">
	<ele>223.40</ele>
	<time>2022-05-14T06:38:03.000Z</time>
</trkpt>
<trkpt lat="44.3217910" lon="9.1535120">
	<ele>223.20</ele>
	<time>2022-05-14T06:38:04.000Z</time>
</trkpt>
<trkpt lat="44.3217700" lon="9.1535350">
	<ele>222.40</ele>
	<time>2022-05-14T06:38:08.000Z</time>
</trkpt>
<trkpt lat="44.3217640" lon="9.1535400">
	<ele>222.20</ele>
	<time>2022-05-14T06:38:09.000Z</time>
</trkpt>
<trkpt lat="44.3217370" lon="9.1535430">
	<ele>221.80</ele>
	<time>2022-05-14T06:38:12.000Z</time>
</trkpt>
<trkpt lat="44.3217330" lon="9.1535470">
	<ele>221.60</ele>
	<time>2022-05-14T06:38:13.000Z</time>
</trkpt>
<trkpt lat="44.3217270" lon="9.1535470">
	<ele>221.40</ele>
	<time>2022-05-14T06:38:14.000Z</time>
</trkpt>
<trkpt lat="44.3217090" lon="9.1535490">
	<ele>220.80</ele>
	<time>2022-05-14T06:38:16.000Z</time>
</trkpt>
<trkpt lat="44.3217010" lon="9.1535490">
	<ele>220.60</ele>
	<time>2022-05-14T06:38:17.000Z</time>
</trkpt>
<trkpt lat="44.3216930" lon="9.1535520">
	<ele>220.20</ele>
	<time>2022-05-14T06:38:19.000Z</time>
</trkpt>
<trkpt lat="44.3216630" lon="9.1535620">
	<ele>219.20</ele>
	<time>2022-05-14T06:38:23.000Z</time>
</trkpt>
<trkpt lat="44.3216610" lon="9.1535730">
	<ele>219.20</ele>
	<time>2022-05-14T06:38:24.000Z</time>
</trkpt>
<trkpt lat="44.3216460" lon="9.1535730">
	<ele>218.20</ele>
	<time>2022-05-14T06:38:28.000Z</time>
</trkpt>
<trkpt lat="44.3216370" lon="9.1535640">
	<ele>218.00</ele>
	<time>2022-05-14T06:38:29.000Z</time>
</trkpt>
<trkpt lat="44.3216270" lon="9.1535550">
	<ele>218.00</ele>
	<time>2022-05-14T06:38:30.000Z</time>
</trkpt>
<trkpt lat="44.3215910" lon="9.1535460">
	<ele>217.40</ele>
	<time>2022-05-14T06:38:34.000Z</time>
</trkpt>
<trkpt lat="44.3215850" lon="9.1535370">
	<ele>217.20</ele>
	<time>2022-05-14T06:38:35.000Z</time>
</trkpt>
<trkpt lat="44.3215750" lon="9.1535300">
	<ele>217.00</ele>
	<time>2022-05-14T06:38:37.000Z</time>
</trkpt>
<trkpt lat="44.3215400" lon="9.1535280">
	<ele>216.40</ele>
	<time>2022-05-14T06:38:41.000Z</time>
</trkpt>
<trkpt lat="44.3215370" lon="9.1535330">
	<ele>216.20</ele>
	<time>2022-05-14T06:38:42.000Z</time>
</trkpt>
<trkpt lat="44.3215280" lon="9.1535460">
	<ele>216.20</ele>
	<time>2022-05-14T06:38:43.000Z</time>
</trkpt>
<trkpt lat="44.3215250" lon="9.1535540">
	<ele>215.80</ele>
	<time>2022-05-14T06:38:44.000Z</time>
</trkpt>
<trkpt lat="44.3215170" lon="9.1535820">
	<ele>215.00</ele>
	<time>2022-05-14T06:38:47.000Z</time>
</trkpt>
<trkpt lat="44.3215110" lon="9.1535860">
	<ele>214.80</ele>
	<time>2022-05-14T06:38:49.000Z</time>
</trkpt>
<trkpt lat="44.3214870" lon="9.1535940">
	<ele>213.60</ele>
	<time>2022-05-14T06:38:54.000Z</time>
</trkpt>
<trkpt lat="44.3214810" lon="9.1536090">
	<ele>213.40</ele>
	<time>2022-05-14T06:38:55.000Z</time>
</trkpt>
<trkpt lat="44.3214440" lon="9.1536950">
	<ele>212.80</ele>
	<time>2022-05-14T06:39:01.000Z</time>
</trkpt>
<trkpt lat="44.3214430" lon="9.1537270">
	<ele>212.40</ele>
	<time>2022-05-14T06:39:04.000Z</time>
</trkpt>
<trkpt lat="44.3214250" lon="9.1537730">
	<ele>212.00</ele>
	<time>2022-05-14T06:39:07.000Z</time>
</trkpt>
<trkpt lat="44.3214190" lon="9.1537840">
	<ele>211.80</ele>
	<time>2022-05-14T06:39:08.000Z</time>
</trkpt>
<trkpt lat="44.3214060" lon="9.1538020">
	<ele>211.60</ele>
	<time>2022-05-14T06:39:11.000Z</time>
</trkpt>
<trkpt lat="44.3214020" lon="9.1538150">
	<ele>211.20</ele>
	<time>2022-05-14T06:39:12.000Z</time>
</trkpt>
<trkpt lat="44.3213800" lon="9.1538460">
	<ele>210.80</ele>
	<time>2022-05-14T06:39:15.000Z</time>
</trkpt>
<trkpt lat="44.3213660" lon="9.1538740">
	<ele>210.20</ele>
	<time>2022-05-14T06:39:18.000Z</time>
</trkpt>
<trkpt lat="44.3213580" lon="9.1538970">
	<ele>210.00</ele>
	<time>2022-05-14T06:39:20.000Z</time>
</trkpt>
<trkpt lat="44.3213280" lon="9.1540080">
	<ele>209.20</ele>
	<time>2022-05-14T06:39:27.000Z</time>
</trkpt>
<trkpt lat="44.3213140" lon="9.1540330">
	<ele>209.20</ele>
	<time>2022-05-14T06:39:29.000Z</time>
</trkpt>
<trkpt lat="44.3212810" lon="9.1540760">
	<ele>209.00</ele>
	<time>2022-05-14T06:39:33.000Z</time>
</trkpt>
<trkpt lat="44.3212640" lon="9.1540910">
	<ele>208.80</ele>
	<time>2022-05-14T06:39:35.000Z</time>
</trkpt>
<trkpt lat="44.3212570" lon="9.1541010">
	<ele>208.80</ele>
	<time>2022-05-14T06:39:36.000Z</time>
</trkpt>
<trkpt lat="44.3212470" lon="9.1541340">
	<ele>208.60</ele>
	<time>2022-05-14T06:39:39.000Z</time>
</trkpt>
<trkpt lat="44.3212430" lon="9.1541440">
	<ele>208.60</ele>
	<time>2022-05-14T06:39:40.000Z</time>
</trkpt>
<trkpt lat="44.3212080" lon="9.1541580">
	<ele>208.20</ele>
	<time>2022-05-14T06:39:44.000Z</time>
</trkpt>
<trkpt lat="44.3212000" lon="9.1541610">
	<ele>208.00</ele>
	<time>2022-05-14T06:39:45.000Z</time>
</trkpt>
<trkpt lat="44.3211640" lon="9.1541880">
	<ele>207.20</ele>
	<time>2022-05-14T06:39:50.000Z</time>
</trkpt>
<trkpt lat="44.3211530" lon="9.1541960">
	<ele>207.00</ele>
	<time>2022-05-14T06:39:51.000Z</time>
</trkpt>
<trkpt lat="44.3211450" lon="9.1542060">
	<ele>206.80</ele>
	<time>2022-05-14T06:39:52.000Z</time>
</trkpt>
<trkpt lat="44.3211400" lon="9.1542220">
	<ele>206.80</ele>
	<time>2022-05-14T06:39:53.000Z</time>
</trkpt>
<trkpt lat="44.3211350" lon="9.1542550">
	<ele>206.60</ele>
	<time>2022-05-14T06:39:55.000Z</time>
</trkpt>
<trkpt lat="44.3211250" lon="9.1542940">
	<ele>206.60</ele>
	<time>2022-05-14T06:39:58.000Z</time>
</trkpt>
<trkpt lat="44.3211130" lon="9.1543250">
	<ele>206.40</ele>
	<time>2022-05-14T06:40:00.000Z</time>
</trkpt>
<trkpt lat="44.3211130" lon="9.1543430">
	<ele>206.40</ele>
	<time>2022-05-14T06:40:01.000Z</time>
</trkpt>
<trkpt lat="44.3210930" lon="9.1543770">
	<ele>206.00</ele>
	<time>2022-05-14T06:40:05.000Z</time>
</trkpt>
<trkpt lat="44.3210910" lon="9.1543880">
	<ele>206.00</ele>
	<time>2022-05-14T06:40:06.000Z</time>
</trkpt>
<trkpt lat="44.3210710" lon="9.1544340">
	<ele>205.60</ele>
	<time>2022-05-14T06:40:12.000Z</time>
</trkpt>
<trkpt lat="44.3210650" lon="9.1544500">
	<ele>205.60</ele>
	<time>2022-05-14T06:40:15.000Z</time>
</trkpt>
<trkpt lat="44.3210430" lon="9.1544470">
	<ele>205.00</ele>
	<time>2022-05-14T06:40:18.000Z</time>
</trkpt>
<trkpt lat="44.3210380" lon="9.1544530">
	<ele>205.00</ele>
	<time>2022-05-14T06:40:19.000Z</time>
</trkpt>
<trkpt lat="44.3210280" lon="9.1544600">
	<ele>204.80</ele>
	<time>2022-05-14T06:40:20.000Z</time>
</trkpt>
<trkpt lat="44.3210280" lon="9.1544730">
	<ele>204.60</ele>
	<time>2022-05-14T06:40:21.000Z</time>
</trkpt>
<trkpt lat="44.3210030" lon="9.1544660">
	<ele>203.60</ele>
	<time>2022-05-14T06:40:25.000Z</time>
</trkpt>
<trkpt lat="44.3209720" lon="9.1545270">
	<ele>203.80</ele>
	<time>2022-05-14T06:40:33.000Z</time>
</trkpt>
<trkpt lat="44.3209700" lon="9.1545720">
	<ele>204.60</ele>
	<time>2022-05-14T06:40:41.000Z</time>
</trkpt>
<trkpt lat="44.3209600" lon="9.1545770">
	<ele>204.80</ele>
	<time>2022-05-14T06:40:43.000Z</time>
</trkpt>
<trkpt lat="44.3209460" lon="9.1546010">
	<ele>205.40</ele>
	<time>2022-05-14T06:40:46.000Z</time>
</trkpt>
<trkpt lat="44.3209470" lon="9.1546160">
	<ele>205.60</ele>
	<time>2022-05-14T06:40:47.000Z</time>
</trkpt>
<trkpt lat="44.3209430" lon="9.1546180">
	<ele>205.80</ele>
	<time>2022-05-14T06:40:50.000Z</time>
</trkpt>
<trkpt lat="44.3209330" lon="9.1546010">
	<ele>205.60</ele>
	<time>2022-05-14T06:40:52.000Z</time>
</trkpt>
<trkpt lat="44.3209140" lon="9.1545870">
	<ele>205.00</ele>
	<time>2022-05-14T06:40:59.000Z</time>
</trkpt>
<trkpt lat="44.3208740" lon="9.1545810">
	<ele>204.40</ele>
	<time>2022-05-14T06:41:06.000Z</time>
</trkpt>
<trkpt lat="44.3208500" lon="9.1545410">
	<ele>204.40</ele>
	<time>2022-05-14T06:41:11.000Z</time>
</trkpt>
<trkpt lat="44.3208170" lon="9.1545200">
	<ele>203.60</ele>
	<time>2022-05-14T06:41:16.000Z</time>
</trkpt>
<trkpt lat="44.3208080" lon="9.1545210">
	<ele>203.40</ele>
	<time>2022-05-14T06:41:17.000Z</time>
</trkpt>
<trkpt lat="44.3207700" lon="9.1545000">
	<ele>202.40</ele>
	<time>2022-05-14T06:41:22.000Z</time>
</trkpt>
<trkpt lat="44.3207440" lon="9.1544780">
	<ele>202.00</ele>
	<time>2022-05-14T06:41:26.000Z</time>
</trkpt>
<trkpt lat="44.3207170" lon="9.1544770">
	<ele>201.40</ele>
	<time>2022-05-14T06:41:30.000Z</time>
</trkpt>
<trkpt lat="44.3206880" lon="9.1544840">
	<ele>200.80</ele>
	<time>2022-05-14T06:41:34.000Z</time>
</trkpt>
<trkpt lat="44.3206650" lon="9.1544780">
	<ele>200.40</ele>
	<time>2022-05-14T06:41:36.000Z</time>
</trkpt>
<trkpt lat="44.3206440" lon="9.1544490">
	<ele>199.80</ele>
	<time>2022-05-14T06:41:40.000Z</time>
</trkpt>
<trkpt lat="44.3206350" lon="9.1544400">
	<ele>199.60</ele>
	<time>2022-05-14T06:41:41.000Z</time>
</trkpt>
<trkpt lat="44.3206230" lon="9.1544340">
	<ele>199.20</ele>
	<time>2022-05-14T06:41:42.000Z</time>
</trkpt>
<trkpt lat="44.3206160" lon="9.1544290">
	<ele>199.00</ele>
	<time>2022-05-14T06:41:43.000Z</time>
</trkpt>
<trkpt lat="44.3205960" lon="9.1544200">
	<ele>198.60</ele>
	<time>2022-05-14T06:41:46.000Z</time>
</trkpt>
<trkpt lat="44.3205900" lon="9.1544160">
	<ele>198.40</ele>
	<time>2022-05-14T06:41:47.000Z</time>
</trkpt>
<trkpt lat="44.3205840" lon="9.1544080">
	<ele>198.20</ele>
	<time>2022-05-14T06:41:48.000Z</time>
</trkpt>
<trkpt lat="44.3205750" lon="9.1543850">
	<ele>197.40</ele>
	<time>2022-05-14T06:41:53.000Z</time>
</trkpt>
<trkpt lat="44.3205590" lon="9.1543760">
	<ele>197.00</ele>
	<time>2022-05-14T06:41:56.000Z</time>
</trkpt>
<trkpt lat="44.3205380" lon="9.1543440">
	<ele>196.40</ele>
	<time>2022-05-14T06:41:59.000Z</time>
</trkpt>
<trkpt lat="44.3205210" lon="9.1543290">
	<ele>196.00</ele>
	<time>2022-05-14T06:42:01.000Z</time>
</trkpt>
<trkpt lat="44.3205010" lon="9.1543230">
	<ele>195.00</ele>
	<time>2022-05-14T06:42:05.000Z</time>
</trkpt>
<trkpt lat="44.3204840" lon="9.1543240">
	<ele>194.80</ele>
	<time>2022-05-14T06:42:07.000Z</time>
</trkpt>
<trkpt lat="44.3204550" lon="9.1543340">
	<ele>194.00</ele>
	<time>2022-05-14T06:42:12.000Z</time>
</trkpt>
<trkpt lat="44.3204490" lon="9.1543350">
	<ele>193.80</ele>
	<time>2022-05-14T06:42:13.000Z</time>
</trkpt>
<trkpt lat="44.3204390" lon="9.1543210">
	<ele>192.80</ele>
	<time>2022-05-14T06:42:17.000Z</time>
</trkpt>
<trkpt lat="44.3204270" lon="9.1543280">
	<ele>192.80</ele>
	<time>2022-05-14T06:42:18.000Z</time>
</trkpt>
<trkpt lat="44.3203930" lon="9.1543570">
	<ele>191.60</ele>
	<time>2022-05-14T06:42:24.000Z</time>
</trkpt>
<trkpt lat="44.3203860" lon="9.1543610">
	<ele>191.40</ele>
	<time>2022-05-14T06:42:25.000Z</time>
</trkpt>
<trkpt lat="44.3203680" lon="9.1543550">
	<ele>190.80</ele>
	<time>2022-05-14T06:42:28.000Z</time>
</trkpt>
<trkpt lat="44.3203500" lon="9.1543510">
	<ele>190.40</ele>
	<time>2022-05-14T06:42:30.000Z</time>
</trkpt>
<trkpt lat="44.3203380" lon="9.1543480">
	<ele>190.20</ele>
	<time>2022-05-14T06:42:32.000Z</time>
</trkpt>
<trkpt lat="44.3203220" lon="9.1543200">
	<ele>189.80</ele>
	<time>2022-05-14T06:42:35.000Z</time>
</trkpt>
<trkpt lat="44.3203060" lon="9.1543000">
	<ele>189.40</ele>
	<time>2022-05-14T06:42:37.000Z</time>
</trkpt>
<trkpt lat="44.3202730" lon="9.1542840">
	<ele>189.00</ele>
	<time>2022-05-14T06:42:40.000Z</time>
</trkpt>
<trkpt lat="44.3202460" lon="9.1542500">
	<ele>188.40</ele>
	<time>2022-05-14T06:42:44.000Z</time>
</trkpt>
<trkpt lat="44.3202370" lon="9.1542380">
	<ele>188.20</ele>
	<time>2022-05-14T06:42:45.000Z</time>
</trkpt>
<trkpt lat="44.3202090" lon="9.1541770">
	<ele>187.20</ele>
	<time>2022-05-14T06:42:50.000Z</time>
</trkpt>
<trkpt lat="44.3201860" lon="9.1541460">
	<ele>187.00</ele>
	<time>2022-05-14T06:42:53.000Z</time>
</trkpt>
<trkpt lat="44.3201650" lon="9.1541100">
	<ele>186.40</ele>
	<time>2022-05-14T06:42:57.000Z</time>
</trkpt>
<trkpt lat="44.3201490" lon="9.1541070">
	<ele>186.20</ele>
	<time>2022-05-14T06:42:58.000Z</time>
</trkpt>
<trkpt lat="44.3201370" lon="9.1541090">
	<ele>186.20</ele>
	<time>2022-05-14T06:42:59.000Z</time>
</trkpt>
<trkpt lat="44.3201120" lon="9.1541020">
	<ele>185.80</ele>
	<time>2022-05-14T06:43:03.000Z</time>
</trkpt>
<trkpt lat="44.3201120" lon="9.1541020">
	<ele>185.40</ele>
	<time>2022-05-14T06:43:05.000Z</time>
</trkpt>
<trkpt lat="44.3201090" lon="9.1540920">
	<ele>185.00</ele>
	<time>2022-05-14T06:43:07.000Z</time>
</trkpt>
<trkpt lat="44.3201040" lon="9.1540830">
	<ele>184.80</ele>
	<time>2022-05-14T06:43:08.000Z</time>
</trkpt>
<trkpt lat="44.3200870" lon="9.1540710">
	<ele>184.40</ele>
	<time>2022-05-14T06:43:10.000Z</time>
</trkpt>
<trkpt lat="44.3200800" lon="9.1540710">
	<ele>184.20</ele>
	<time>2022-05-14T06:43:11.000Z</time>
</trkpt>
<trkpt lat="44.3200730" lon="9.1540700">
	<ele>184.00</ele>
	<time>2022-05-14T06:43:12.000Z</time>
</trkpt>
<trkpt lat="44.3200450" lon="9.1540630">
	<ele>183.20</ele>
	<time>2022-05-14T06:43:17.000Z</time>
</trkpt>
<trkpt lat="44.3200370" lon="9.1540590">
	<ele>182.80</ele>
	<time>2022-05-14T06:43:19.000Z</time>
</trkpt>
<trkpt lat="44.3200030" lon="9.1540420">
	<ele>182.40</ele>
	<time>2022-05-14T06:43:22.000Z</time>
</trkpt>
<trkpt lat="44.3199980" lon="9.1540240">
	<ele>182.40</ele>
	<time>2022-05-14T06:43:24.000Z</time>
</trkpt>
<trkpt lat="44.3199860" lon="9.1539990">
	<ele>182.20</ele>
	<time>2022-05-14T06:43:26.000Z</time>
</trkpt>
<trkpt lat="44.3199730" lon="9.1539940">
	<ele>182.20</ele>
	<time>2022-05-14T06:43:29.000Z</time>
</trkpt>
<trkpt lat="44.3199640" lon="9.1539910">
	<ele>182.20</ele>
	<time>2022-05-14T06:43:30.000Z</time>
</trkpt>
<trkpt lat="44.3199490" lon="9.1539980">
	<ele>182.00</ele>
	<time>2022-05-14T06:43:32.000Z</time>
</trkpt>
<trkpt lat="44.3199210" lon="9.1539900">
	<ele>181.20</ele>
	<time>2022-05-14T06:43:36.000Z</time>
</trkpt>
<trkpt lat="44.3199090" lon="9.1539890">
	<ele>180.60</ele>
	<time>2022-05-14T06:43:38.000Z</time>
</trkpt>
<trkpt lat="44.3198930" lon="9.1539860">
	<ele>180.20</ele>
	<time>2022-05-14T06:43:40.000Z</time>
</trkpt>
<trkpt lat="44.3198290" lon="9.1539570">
	<ele>179.00</ele>
	<time>2022-05-14T06:43:46.000Z</time>
</trkpt>
<trkpt lat="44.3197980" lon="9.1539540">
	<ele>178.20</ele>
	<time>2022-05-14T06:43:50.000Z</time>
</trkpt>
<trkpt lat="44.3197720" lon="9.1539240">
	<ele>178.00</ele>
	<time>2022-05-14T06:43:53.000Z</time>
</trkpt>
<trkpt lat="44.3197480" lon="9.1538370">
	<ele>177.40</ele>
	<time>2022-05-14T06:43:58.000Z</time>
</trkpt>
<trkpt lat="44.3197480" lon="9.1538100">
	<ele>177.40</ele>
	<time>2022-05-14T06:44:00.000Z</time>
</trkpt>
<trkpt lat="44.3197440" lon="9.1537410">
	<ele>177.20</ele>
	<time>2022-05-14T06:44:05.000Z</time>
</trkpt>
<trkpt lat="44.3197330" lon="9.1537120">
	<ele>177.20</ele>
	<time>2022-05-14T06:44:07.000Z</time>
</trkpt>
<trkpt lat="44.3197130" lon="9.1536950">
	<ele>177.00</ele>
	<time>2022-05-14T06:44:10.000Z</time>
</trkpt>
<trkpt lat="44.3196940" lon="9.1536890">
	<ele>176.40</ele>
	<time>2022-05-14T06:44:12.000Z</time>
</trkpt>
<trkpt lat="44.3196800" lon="9.1536840">
	<ele>176.20</ele>
	<time>2022-05-14T06:44:14.000Z</time>
</trkpt>
<trkpt lat="44.3196760" lon="9.1536770">
	<ele>175.60</ele>
	<time>2022-05-14T06:44:16.000Z</time>
</trkpt>
<trkpt lat="44.3196640" lon="9.1536660">
	<ele>175.40</ele>
	<time>2022-05-14T06:44:18.000Z</time>
</trkpt>
<trkpt lat="44.3196450" lon="9.1536620">
	<ele>175.20</ele>
	<time>2022-05-14T06:44:19.000Z</time>
</trkpt>
<trkpt lat="44.3196240" lon="9.1536520">
	<ele>174.80</ele>
	<time>2022-05-14T06:44:21.000Z</time>
</trkpt>
<trkpt lat="44.3196200" lon="9.1536440">
	<ele>174.60</ele>
	<time>2022-05-14T06:44:22.000Z</time>
</trkpt>
<trkpt lat="44.3196160" lon="9.1536380">
	<ele>173.80</ele>
	<time>2022-05-14T06:44:25.000Z</time>
</trkpt>
<trkpt lat="44.3196120" lon="9.1536250">
	<ele>173.60</ele>
	<time>2022-05-14T06:44:26.000Z</time>
</trkpt>
<trkpt lat="44.3196010" lon="9.1536130">
	<ele>173.40</ele>
	<time>2022-05-14T06:44:27.000Z</time>
</trkpt>
<trkpt lat="44.3195770" lon="9.1536160">
	<ele>172.80</ele>
	<time>2022-05-14T06:44:30.000Z</time>
</trkpt>
<trkpt lat="44.3195450" lon="9.1536190">
	<ele>172.40</ele>
	<time>2022-05-14T06:44:35.000Z</time>
</trkpt>
<trkpt lat="44.3195140" lon="9.1536220">
	<ele>171.60</ele>
	<time>2022-05-14T06:44:39.000Z</time>
</trkpt>
<trkpt lat="44.3194920" lon="9.1536230">
	<ele>171.20</ele>
	<time>2022-05-14T06:44:42.000Z</time>
</trkpt>
<trkpt lat="44.3194620" lon="9.1536290">
	<ele>170.00</ele>
	<time>2022-05-14T06:44:48.000Z</time>
</trkpt>
<trkpt lat="44.3194550" lon="9.1536260">
	<ele>169.60</ele>
	<time>2022-05-14T06:44:50.000Z</time>
</trkpt>
<trkpt lat="44.3194330" lon="9.1536350">
	<ele>169.20</ele>
	<time>2022-05-14T06:44:53.000Z</time>
</trkpt>
<trkpt lat="44.3194270" lon="9.1536430">
	<ele>169.00</ele>
	<time>2022-05-14T06:44:54.000Z</time>
</trkpt>
<trkpt lat="44.3194250" lon="9.1536500">
	<ele>168.80</ele>
	<time>2022-05-14T06:44:55.000Z</time>
</trkpt>
<trkpt lat="44.3194040" lon="9.1536600">
	<ele>168.20</ele>
	<time>2022-05-14T06:45:00.000Z</time>
</trkpt>
<trkpt lat="44.3193980" lon="9.1536580">
	<ele>167.80</ele>
	<time>2022-05-14T06:45:01.000Z</time>
</trkpt>
<trkpt lat="44.3193750" lon="9.1536600">
	<ele>167.00</ele>
	<time>2022-05-14T06:45:04.000Z</time>
</trkpt>
<trkpt lat="44.3193640" lon="9.1536640">
	<ele>166.80</ele>
	<time>2022-05-14T06:45:05.000Z</time>
</trkpt>
<trkpt lat="44.3193490" lon="9.1536810">
	<ele>166.40</ele>
	<time>2022-05-14T06:45:07.000Z</time>
</trkpt>
<trkpt lat="44.3193320" lon="9.1536970">
	<ele>165.60</ele>
	<time>2022-05-14T06:45:13.000Z</time>
</trkpt>
<trkpt lat="44.3193230" lon="9.1536660">
	<ele>164.60</ele>
	<time>2022-05-14T06:45:19.000Z</time>
</trkpt>
<trkpt lat="44.3193010" lon="9.1536270">
	<ele>163.60</ele>
	<time>2022-05-14T06:45:24.000Z</time>
</trkpt>
<trkpt lat="44.3192960" lon="9.1536230">
	<ele>163.40</ele>
	<time>2022-05-14T06:45:25.000Z</time>
</trkpt>
<trkpt lat="44.3192430" lon="9.1536000">
	<ele>162.60</ele>
	<time>2022-05-14T06:45:30.000Z</time>
</trkpt>
<trkpt lat="44.3192350" lon="9.1535910">
	<ele>162.40</ele>
	<time>2022-05-14T06:45:32.000Z</time>
</trkpt>
<trkpt lat="44.3192220" lon="9.1535850">
	<ele>162.20</ele>
	<time>2022-05-14T06:45:34.000Z</time>
</trkpt>
<trkpt lat="44.3192030" lon="9.1535760">
	<ele>161.80</ele>
	<time>2022-05-14T06:45:36.000Z</time>
</trkpt>
<trkpt lat="44.3191530" lon="9.1535210">
	<ele>161.40</ele>
	<time>2022-05-14T06:45:44.000Z</time>
</trkpt>
<trkpt lat="44.3191400" lon="9.1535140">
	<ele>161.40</ele>
	<time>2022-05-14T06:45:45.000Z</time>
</trkpt>
<trkpt lat="44.3191320" lon="9.1535160">
	<ele>161.40</ele>
	<time>2022-05-14T06:45:46.000Z</time>
</trkpt>
<trkpt lat="44.3191100" lon="9.1535110">
	<ele>161.20</ele>
	<time>2022-05-14T06:45:47.000Z</time>
</trkpt>
<trkpt lat="44.3190670" lon="9.1535210">
	<ele>161.00</ele>
	<time>2022-05-14T06:45:51.000Z</time>
</trkpt>
<trkpt lat="44.3190150" lon="9.1535260">
	<ele>160.60</ele>
	<time>2022-05-14T06:45:55.000Z</time>
</trkpt>
<trkpt lat="44.3189930" lon="9.1535180">
	<ele>160.40</ele>
	<time>2022-05-14T06:45:58.000Z</time>
</trkpt>
<trkpt lat="44.3189880" lon="9.1535180">
	<ele>160.20</ele>
	<time>2022-05-14T06:45:59.000Z</time>
</trkpt>
<trkpt lat="44.3189580" lon="9.1535230">
	<ele>159.60</ele>
	<time>2022-05-14T06:46:03.000Z</time>
</trkpt>
<trkpt lat="44.3189460" lon="9.1535170">
	<ele>159.20</ele>
	<time>2022-05-14T06:46:05.000Z</time>
</trkpt>
<trkpt lat="44.3189370" lon="9.1535160">
	<ele>159.00</ele>
	<time>2022-05-14T06:46:06.000Z</time>
</trkpt>
<trkpt lat="44.3189170" lon="9.1535090">
	<ele>158.60</ele>
	<time>2022-05-14T06:46:08.000Z</time>
</trkpt>
<trkpt lat="44.3188800" lon="9.1535170">
	<ele>158.20</ele>
	<time>2022-05-14T06:46:12.000Z</time>
</trkpt>
<trkpt lat="44.3188620" lon="9.1535220">
	<ele>158.00</ele>
	<time>2022-05-14T06:46:14.000Z</time>
</trkpt>
<trkpt lat="44.3188260" lon="9.1535620">
	<ele>157.20</ele>
	<time>2022-05-14T06:46:19.000Z</time>
</trkpt>
<trkpt lat="44.3188180" lon="9.1535660">
	<ele>157.00</ele>
	<time>2022-05-14T06:46:20.000Z</time>
</trkpt>
<trkpt lat="44.3188010" lon="9.1535780">
	<ele>156.40</ele>
	<time>2022-05-14T06:46:23.000Z</time>
</trkpt>
<trkpt lat="44.3187940" lon="9.1535860">
	<ele>156.00</ele>
	<time>2022-05-14T06:46:25.000Z</time>
</trkpt>
<trkpt lat="44.3187880" lon="9.1535880">
	<ele>156.00</ele>
	<time>2022-05-14T06:46:26.000Z</time>
</trkpt>
<trkpt lat="44.3187840" lon="9.1535960">
	<ele>155.60</ele>
	<time>2022-05-14T06:46:28.000Z</time>
</trkpt>
<trkpt lat="44.3187610" lon="9.1536100">
	<ele>155.00</ele>
	<time>2022-05-14T06:46:31.000Z</time>
</trkpt>
<trkpt lat="44.3187510" lon="9.1536110">
	<ele>154.60</ele>
	<time>2022-05-14T06:46:32.000Z</time>
</trkpt>
<trkpt lat="44.3187050" lon="9.1536540">
	<ele>153.40</ele>
	<time>2022-05-14T06:46:39.000Z</time>
</trkpt>
<trkpt lat="44.3186710" lon="9.1537100">
	<ele>152.40</ele>
	<time>2022-05-14T06:46:46.000Z</time>
</trkpt>
<trkpt lat="44.3186360" lon="9.1537180">
	<ele>151.20</ele>
	<time>2022-05-14T06:46:52.000Z</time>
</trkpt>
<trkpt lat="44.3186360" lon="9.1537190">
	<ele>151.00</ele>
	<time>2022-05-14T06:46:53.000Z</time>
</trkpt>
<trkpt lat="44.3186410" lon="9.1537370">
	<ele>151.00</ele>
	<time>2022-05-14T06:47:01.000Z</time>
</trkpt>
<trkpt lat="44.3186570" lon="9.1537170">
	<ele>151.00</ele>
	<time>2022-05-14T06:47:09.000Z</time>
</trkpt>
<trkpt lat="44.3186660" lon="9.1537310">
	<ele>150.80</ele>
	<time>2022-05-14T06:47:15.000Z</time>
</trkpt>
<trkpt lat="44.3186660" lon="9.1537310">
	<ele>150.80</ele>
	<time>2022-05-14T06:47:21.000Z</time>
</trkpt>
<trkpt lat="44.3186650" lon="9.1537310">
	<ele>150.80</ele>
	<time>2022-05-14T06:47:22.000Z</time>
</trkpt>
<trkpt lat="44.3186640" lon="9.1537310">
	<ele>150.80</ele>
	<time>2022-05-14T06:47:24.000Z</time>
</trkpt>
<trkpt lat="44.3186600" lon="9.1537280">
	<ele>150.20</ele>
	<time>2022-05-14T06:47:42.000Z</time>
</trkpt>
<trkpt lat="44.3186440" lon="9.1537280">
	<ele>150.00</ele>
	<time>2022-05-14T06:47:48.000Z</time>
</trkpt>
<trkpt lat="44.3186420" lon="9.1537290">
	<ele>149.00</ele>
	<time>2022-05-14T06:47:51.000Z</time>
</trkpt>
<trkpt lat="44.3186290" lon="9.1537320">
	<ele>147.80</ele>
	<time>2022-05-14T06:47:55.000Z</time>
</trkpt>
<trkpt lat="44.3185710" lon="9.1537590">
	<ele>147.00</ele>
	<time>2022-05-14T06:47:59.000Z</time>
</trkpt>
<trkpt lat="44.3185640" lon="9.1537680">
	<ele>146.80</ele>
	<time>2022-05-14T06:48:00.000Z</time>
</trkpt>
<trkpt lat="44.3184880" lon="9.1538110">
	<ele>145.80</ele>
	<time>2022-05-14T06:48:07.000Z</time>
</trkpt>
<trkpt lat="44.3184410" lon="9.1538250">
	<ele>144.60</ele>
	<time>2022-05-14T06:48:13.000Z</time>
</trkpt>
<trkpt lat="44.3184370" lon="9.1538300">
	<ele>144.40</ele>
	<time>2022-05-14T06:48:14.000Z</time>
</trkpt>
<trkpt lat="44.3184140" lon="9.1538730">
	<ele>143.60</ele>
	<time>2022-05-14T06:48:19.000Z</time>
</trkpt>
<trkpt lat="44.3184030" lon="9.1538880">
	<ele>143.20</ele>
	<time>2022-05-14T06:48:21.000Z</time>
</trkpt>
<trkpt lat="44.3183550" lon="9.1538930">
	<ele>142.40</ele>
	<time>2022-05-14T06:48:26.000Z</time>
</trkpt>
<trkpt lat="44.3183480" lon="9.1538970">
	<ele>142.20</ele>
	<time>2022-05-14T06:48:27.000Z</time>
</trkpt>
<trkpt lat="44.3183280" lon="9.1539430">
	<ele>141.40</ele>
	<time>2022-05-14T06:48:32.000Z</time>
</trkpt>
<trkpt lat="44.3183180" lon="9.1539580">
	<ele>141.00</ele>
	<time>2022-05-14T06:48:34.000Z</time>
</trkpt>
<trkpt lat="44.3183140" lon="9.1539660">
	<ele>141.00</ele>
	<time>2022-05-14T06:48:35.000Z</time>
</trkpt>
<trkpt lat="44.3182940" lon="9.1539950">
	<ele>140.40</ele>
	<time>2022-05-14T06:48:39.000Z</time>
</trkpt>
<trkpt lat="44.3182540" lon="9.1540200">
	<ele>139.20</ele>
	<time>2022-05-14T06:48:45.000Z</time>
</trkpt>
<trkpt lat="44.3182130" lon="9.1540600">
	<ele>138.20</ele>
	<time>2022-05-14T06:48:53.000Z</time>
</trkpt>
<trkpt lat="44.3182070" lon="9.1540620">
	<ele>138.00</ele>
	<time>2022-05-14T06:48:54.000Z</time>
</trkpt>
<trkpt lat="44.3181760" lon="9.1540880">
	<ele>137.20</ele>
	<time>2022-05-14T06:48:58.000Z</time>
</trkpt>
<trkpt lat="44.3181380" lon="9.1541270">
	<ele>136.40</ele>
	<time>2022-05-14T06:49:03.000Z</time>
</trkpt>
<trkpt lat="44.3181280" lon="9.1541430">
	<ele>136.00</ele>
	<time>2022-05-14T06:49:05.000Z</time>
</trkpt>
<trkpt lat="44.3180900" lon="9.1541860">
	<ele>135.20</ele>
	<time>2022-05-14T06:49:11.000Z</time>
</trkpt>
<trkpt lat="44.3180660" lon="9.1541980">
	<ele>135.00</ele>
	<time>2022-05-14T06:49:13.000Z</time>
</trkpt>
<trkpt lat="44.3180570" lon="9.1542080">
	<ele>134.80</ele>
	<time>2022-05-14T06:49:14.000Z</time>
</trkpt>
<trkpt lat="44.3180160" lon="9.1542580">
	<ele>134.40</ele>
	<time>2022-05-14T06:49:19.000Z</time>
</trkpt>
<trkpt lat="44.3180090" lon="9.1542720">
	<ele>134.20</ele>
	<time>2022-05-14T06:49:20.000Z</time>
</trkpt>
<trkpt lat="44.3179790" lon="9.1543260">
	<ele>134.00</ele>
	<time>2022-05-14T06:49:27.000Z</time>
</trkpt>
<trkpt lat="44.3179780" lon="9.1543330">
	<ele>133.80</ele>
	<time>2022-05-14T06:49:28.000Z</time>
</trkpt>
<trkpt lat="44.3179730" lon="9.1543420">
	<ele>133.80</ele>
	<time>2022-05-14T06:49:29.000Z</time>
</trkpt>
<trkpt lat="44.3179520" lon="9.1543700">
	<ele>134.00</ele>
	<time>2022-05-14T06:49:33.000Z</time>
</trkpt>
<trkpt lat="44.3179420" lon="9.1543980">
	<ele>134.20</ele>
	<time>2022-05-14T06:49:35.000Z</time>
</trkpt>
<trkpt lat="44.3179330" lon="9.1544200">
	<ele>134.60</ele>
	<time>2022-05-14T06:49:37.000Z</time>
</trkpt>
<trkpt lat="44.3179300" lon="9.1544550">
	<ele>134.80</ele>
	<time>2022-05-14T06:49:40.000Z</time>
</trkpt>
<trkpt lat="44.3179260" lon="9.1544650">
	<ele>134.80</ele>
	<time>2022-05-14T06:49:41.000Z</time>
</trkpt>
<trkpt lat="44.3178870" lon="9.1545000">
	<ele>135.00</ele>
	<time>2022-05-14T06:49:46.000Z</time>
</trkpt>
<trkpt lat="44.3178680" lon="9.1545060">
	<ele>135.20</ele>
	<time>2022-05-14T06:49:48.000Z</time>
</trkpt>
<trkpt lat="44.3178590" lon="9.1545230">
	<ele>135.40</ele>
	<time>2022-05-14T06:49:49.000Z</time>
</trkpt>
<trkpt lat="44.3178540" lon="9.1545390">
	<ele>135.60</ele>
	<time>2022-05-14T06:49:50.000Z</time>
</trkpt>
<trkpt lat="44.3178390" lon="9.1545660">
	<ele>135.80</ele>
	<time>2022-05-14T06:49:52.000Z</time>
</trkpt>
<trkpt lat="44.3178260" lon="9.1545820">
	<ele>135.80</ele>
	<time>2022-05-14T06:49:54.000Z</time>
</trkpt>
<trkpt lat="44.3178030" lon="9.1546020">
	<ele>136.00</ele>
	<time>2022-05-14T06:49:59.000Z</time>
</trkpt>
<trkpt lat="44.3177170" lon="9.1546140">
	<ele>135.60</ele>
	<time>2022-05-14T06:50:08.000Z</time>
</trkpt>
<trkpt lat="44.3176840" lon="9.1546300">
	<ele>135.40</ele>
	<time>2022-05-14T06:50:11.000Z</time>
</trkpt>
<trkpt lat="44.3176610" lon="9.1546330">
	<ele>135.00</ele>
	<time>2022-05-14T06:50:13.000Z</time>
</trkpt>
<trkpt lat="44.3176480" lon="9.1546350">
	<ele>134.80</ele>
	<time>2022-05-14T06:50:14.000Z</time>
</trkpt>
<trkpt lat="44.3176100" lon="9.1546340">
	<ele>133.80</ele>
	<time>2022-05-14T06:50:20.000Z</time>
</trkpt>
<trkpt lat="44.3176090" lon="9.1546360">
	<ele>133.60</ele>
	<time>2022-05-14T06:50:21.000Z</time>
</trkpt>
<trkpt lat="44.3175980" lon="9.1546260">
	<ele>133.40</ele>
	<time>2022-05-14T06:50:22.000Z</time>
</trkpt>
<trkpt lat="44.3175820" lon="9.1545910">
	<ele>133.40</ele>
	<time>2022-05-14T06:50:25.000Z</time>
</trkpt>
<trkpt lat="44.3175840" lon="9.1546000">
	<ele>133.60</ele>
	<time>2022-05-14T06:50:28.000Z</time>
</trkpt>
<trkpt lat="44.3175920" lon="9.1546110">
	<ele>133.40</ele>
	<time>2022-05-14T06:50:40.000Z</time>
</trkpt>
<trkpt lat="44.3175680" lon="9.1546450">
	<ele>133.00</ele>
	<time>2022-05-14T06:51:03.000Z</time>
</trkpt>
<trkpt lat="44.3175880" lon="9.1546500">
	<ele>132.80</ele>
	<time>2022-05-14T06:51:10.000Z</time>
</trkpt>
<trkpt lat="44.3175780" lon="9.1546260">
	<ele>133.00</ele>
	<time>2022-05-14T06:51:16.000Z</time>
</trkpt>
<trkpt lat="44.3175820" lon="9.1546300">
	<ele>133.00</ele>
	<time>2022-05-14T06:51:19.000Z</time>
</trkpt>
<trkpt lat="44.3175850" lon="9.1546380">
	<ele>133.00</ele>
	<time>2022-05-14T06:51:23.000Z</time>
</trkpt>
<trkpt lat="44.3175850" lon="9.1546380">
	<ele>133.00</ele>
	<time>2022-05-14T06:51:28.000Z</time>
</trkpt>
<trkpt lat="44.3175570" lon="9.1546820">
	<ele>133.00</ele>
	<time>2022-05-14T06:51:35.000Z</time>
</trkpt>
<trkpt lat="44.3175570" lon="9.1546890">
	<ele>132.80</ele>
	<time>2022-05-14T06:51:36.000Z</time>
</trkpt>
<trkpt lat="44.3175350" lon="9.1546950">
	<ele>132.60</ele>
	<time>2022-05-14T06:51:38.000Z</time>
</trkpt>
<trkpt lat="44.3175280" lon="9.1547030">
	<ele>132.40</ele>
	<time>2022-05-14T06:51:39.000Z</time>
</trkpt>
<trkpt lat="44.3175240" lon="9.1547150">
	<ele>132.20</ele>
	<time>2022-05-14T06:51:40.000Z</time>
</trkpt>
<trkpt lat="44.3175100" lon="9.1547430">
	<ele>131.80</ele>
	<time>2022-05-14T06:51:43.000Z</time>
</trkpt>
<trkpt lat="44.3174850" lon="9.1547830">
	<ele>131.60</ele>
	<time>2022-05-14T06:51:47.000Z</time>
</trkpt>
<trkpt lat="44.3174750" lon="9.1547930">
	<ele>131.60</ele>
	<time>2022-05-14T06:51:48.000Z</time>
</trkpt>
<trkpt lat="44.3174490" lon="9.1548050">
	<ele>131.40</ele>
	<time>2022-05-14T06:51:51.000Z</time>
</trkpt>
<trkpt lat="44.3174130" lon="9.1548160">
	<ele>131.00</ele>
	<time>2022-05-14T06:51:55.000Z</time>
</trkpt>
<trkpt lat="44.3173980" lon="9.1548210">
	<ele>130.60</ele>
	<time>2022-05-14T06:51:57.000Z</time>
</trkpt>
<trkpt lat="44.3173920" lon="9.1548280">
	<ele>130.60</ele>
	<time>2022-05-14T06:51:58.000Z</time>
</trkpt>
<trkpt lat="44.3173830" lon="9.1548410">
	<ele>129.40</ele>
	<time>2022-05-14T06:52:03.000Z</time>
</trkpt>
<trkpt lat="44.3173540" lon="9.1548240">
	<ele>129.00</ele>
	<time>2022-05-14T06:52:05.000Z</time>
</trkpt>
<trkpt lat="44.3172960" lon="9.1548140">
	<ele>128.60</ele>
	<time>2022-05-14T06:52:10.000Z</time>
</trkpt>
<trkpt lat="44.3172720" lon="9.1548180">
	<ele>128.40</ele>
	<time>2022-05-14T06:52:12.000Z</time>
</trkpt>
<trkpt lat="44.3172090" lon="9.1548070">
	<ele>128.20</ele>
	<time>2022-05-14T06:52:18.000Z</time>
</trkpt>
<trkpt lat="44.3171920" lon="9.1547960">
	<ele>128.00</ele>
	<time>2022-05-14T06:52:20.000Z</time>
</trkpt>
<trkpt lat="44.3171750" lon="9.1547960">
	<ele>127.80</ele>
	<time>2022-05-14T06:52:23.000Z</time>
</trkpt>
<trkpt lat="44.3171690" lon="9.1547920">
	<ele>127.80</ele>
	<time>2022-05-14T06:52:24.000Z</time>
</trkpt>
<trkpt lat="44.3171520" lon="9.1547810">
	<ele>127.40</ele>
	<time>2022-05-14T06:52:26.000Z</time>
</trkpt>
<trkpt lat="44.3171270" lon="9.1547610">
	<ele>127.00</ele>
	<time>2022-05-14T06:52:29.000Z</time>
</trkpt>
<trkpt lat="44.3171100" lon="9.1547510">
	<ele>126.80</ele>
	<time>2022-05-14T06:52:31.000Z</time>
</trkpt>
<trkpt lat="44.3171010" lon="9.1547540">
	<ele>126.60</ele>
	<time>2022-05-14T06:52:33.000Z</time>
</trkpt>
<trkpt lat="44.3171010" lon="9.1547590">
	<ele>126.60</ele>
	<time>2022-05-14T06:52:34.000Z</time>
</trkpt>
<trkpt lat="44.3171040" lon="9.1547580">
	<ele>126.40</ele>
	<time>2022-05-14T06:52:36.000Z</time>
</trkpt>
<trkpt lat="44.3171000" lon="9.1547590">
	<ele>126.40</ele>
	<time>2022-05-14T06:52:39.000Z</time>
</trkpt>
<trkpt lat="44.3171010" lon="9.1547580">
	<ele>126.40</ele>
	<time>2022-05-14T06:52:45.000Z</time>
</trkpt>
<trkpt lat="44.3171010" lon="9.1547580">
	<ele>126.20</ele>
	<time>2022-05-14T06:52:49.000Z</time>
</trkpt>
<trkpt lat="44.3170750" lon="9.1548090">
	<ele>125.20</ele>
	<time>2022-05-14T06:53:09.000Z</time>
</trkpt>
<trkpt lat="44.3170630" lon="9.1548190">
	<ele>125.20</ele>
	<time>2022-05-14T06:53:10.000Z</time>
</trkpt>
<trkpt lat="44.3170380" lon="9.1548470">
	<ele>125.00</ele>
	<time>2022-05-14T06:53:13.000Z</time>
</trkpt>
<trkpt lat="44.3170170" lon="9.1548650">
	<ele>125.00</ele>
	<time>2022-05-14T06:53:15.000Z</time>
</trkpt>
<trkpt lat="44.3170000" lon="9.1548760">
	<ele>124.80</ele>
	<time>2022-05-14T06:53:17.000Z</time>
</trkpt>
<trkpt lat="44.3169960" lon="9.1548820">
	<ele>124.60</ele>
	<time>2022-05-14T06:53:18.000Z</time>
</trkpt>
<trkpt lat="44.3169930" lon="9.1548900">
	<ele>124.40</ele>
	<time>2022-05-14T06:53:19.000Z</time>
</trkpt>
<trkpt lat="44.3169900" lon="9.1548970">
	<ele>124.20</ele>
	<time>2022-05-14T06:53:20.000Z</time>
</trkpt>
<trkpt lat="44.3169810" lon="9.1549110">
	<ele>124.00</ele>
	<time>2022-05-14T06:53:22.000Z</time>
</trkpt>
<trkpt lat="44.3169780" lon="9.1549160">
	<ele>123.60</ele>
	<time>2022-05-14T06:53:25.000Z</time>
</trkpt>
<trkpt lat="44.3169780" lon="9.1549130">
	<ele>123.60</ele>
	<time>2022-05-14T06:53:26.000Z</time>
</trkpt>
<trkpt lat="44.3169790" lon="9.1549110">
	<ele>123.00</ele>
	<time>2022-05-14T06:53:28.000Z</time>
</trkpt>
<trkpt lat="44.3169680" lon="9.1549320">
	<ele>122.60</ele>
	<time>2022-05-14T06:53:33.000Z</time>
</trkpt>
<trkpt lat="44.3169370" lon="9.1549530">
	<ele>122.20</ele>
	<time>2022-05-14T06:53:40.000Z</time>
</trkpt>
<trkpt lat="44.3169370" lon="9.1549530">
	<ele>122.00</ele>
	<time>2022-05-14T06:53:41.000Z</time>
</trkpt>
<trkpt lat="44.3169250" lon="9.1550010">
	<ele>121.20</ele>
	<time>2022-05-14T06:53:58.000Z</time>
</trkpt>
<trkpt lat="44.3169000" lon="9.1550190">
	<ele>121.40</ele>
	<time>2022-05-14T06:54:03.000Z</time>
</trkpt>
<trkpt lat="44.3168930" lon="9.1549770">
	<ele>121.60</ele>
	<time>2022-05-14T06:54:10.000Z</time>
</trkpt>
<trkpt lat="44.3168930" lon="9.1549780">
	<ele>121.00</ele>
	<time>2022-05-14T06:54:30.000Z</time>
</trkpt>
<trkpt lat="44.3168860" lon="9.1550040">
	<ele>120.00</ele>
	<time>2022-05-14T06:54:38.000Z</time>
</trkpt>
<trkpt lat="44.3168610" lon="9.1550560">
	<ele>119.20</ele>
	<time>2022-05-14T06:54:42.000Z</time>
</trkpt>
<trkpt lat="44.3168520" lon="9.1550770">
	<ele>118.60</ele>
	<time>2022-05-14T06:54:44.000Z</time>
</trkpt>
<trkpt lat="44.3168270" lon="9.1551050">
	<ele>117.60</ele>
	<time>2022-05-14T06:54:51.000Z</time>
</trkpt>
<trkpt lat="44.3168390" lon="9.1551130">
	<ele>117.40</ele>
	<time>2022-05-14T06:54:59.000Z</time>
</trkpt>
<trkpt lat="44.3168530" lon="9.1551200">
	<ele>117.40</ele>
	<time>2022-05-14T06:55:13.000Z</time>
</trkpt>
<trkpt lat="44.3168680" lon="9.1551410">
	<ele>117.60</ele>
	<time>2022-05-14T06:55:19.000Z</time>
</trkpt>
<trkpt lat="44.3168660" lon="9.1551400">
	<ele>117.60</ele>
	<time>2022-05-14T06:55:23.000Z</time>
</trkpt>
<trkpt lat="44.3168660" lon="9.1551400">
	<ele>117.60</ele>
	<time>2022-05-14T06:55:27.000Z</time>
</trkpt>
<trkpt lat="44.3168630" lon="9.1551330">
	<ele>117.40</ele>
	<time>2022-05-14T06:55:37.000Z</time>
</trkpt>
<trkpt lat="44.3168630" lon="9.1551330">
	<ele>116.60</ele>
	<time>2022-05-14T06:55:44.000Z</time>
</trkpt>
<trkpt lat="44.3168650" lon="9.1551850">
	<ele>115.40</ele>
	<time>2022-05-14T06:55:51.000Z</time>
</trkpt>
<trkpt lat="44.3168610" lon="9.1552260">
	<ele>114.80</ele>
	<time>2022-05-14T06:55:53.000Z</time>
</trkpt>
<trkpt lat="44.3168600" lon="9.1552850">
	<ele>114.20</ele>
	<time>2022-05-14T06:55:56.000Z</time>
</trkpt>
<trkpt lat="44.3168660" lon="9.1553130">
	<ele>114.20</ele>
	<time>2022-05-14T06:55:58.000Z</time>
</trkpt>
<trkpt lat="44.3168590" lon="9.1553080">
	<ele>114.00</ele>
	<time>2022-05-14T06:56:00.000Z</time>
</trkpt>
<trkpt lat="44.3168400" lon="9.1553100">
	<ele>113.40</ele>
	<time>2022-05-14T06:56:05.000Z</time>
</trkpt>
<trkpt lat="44.3168390" lon="9.1553140">
	<ele>113.40</ele>
	<time>2022-05-14T06:56:06.000Z</time>
</trkpt>
<trkpt lat="44.3168320" lon="9.1553140">
	<ele>113.20</ele>
	<time>2022-05-14T06:56:07.000Z</time>
</trkpt>
<trkpt lat="44.3168300" lon="9.1553390">
	<ele>112.20</ele>
	<time>2022-05-14T06:56:14.000Z</time>
</trkpt>
<trkpt lat="44.3168330" lon="9.1553400">
	<ele>112.00</ele>
	<time>2022-05-14T06:56:15.000Z</time>
</trkpt>
<trkpt lat="44.3168200" lon="9.1553490">
	<ele>111.00</ele>
	<time>2022-05-14T06:56:20.000Z</time>
</trkpt>
<trkpt lat="44.3168090" lon="9.1553680">
	<ele>110.20</ele>
	<time>2022-05-14T06:56:23.000Z</time>
</trkpt>
<trkpt lat="44.3168060" lon="9.1553880">
	<ele>110.00</ele>
	<time>2022-05-14T06:56:25.000Z</time>
</trkpt>
<trkpt lat="44.3167900" lon="9.1554350">
	<ele>109.60</ele>
	<time>2022-05-14T06:56:31.000Z</time>
</trkpt>
<trkpt lat="44.3168070" lon="9.1555110">
	<ele>109.20</ele>
	<time>2022-05-14T06:56:36.000Z</time>
</trkpt>
<trkpt lat="44.3167620" lon="9.1555820">
	<ele>109.40</ele>
	<time>2022-05-14T06:56:44.000Z</time>
</trkpt>
<trkpt lat="44.3167530" lon="9.1555800">
	<ele>109.40</ele>
	<time>2022-05-14T06:56:45.000Z</time>
</trkpt>
<trkpt lat="44.3167410" lon="9.1555830">
	<ele>109.40</ele>
	<time>2022-05-14T06:56:52.000Z</time>
</trkpt>
<trkpt lat="44.3167300" lon="9.1555810">
	<ele>109.20</ele>
	<time>2022-05-14T06:57:01.000Z</time>
</trkpt>
<trkpt lat="44.3167160" lon="9.1556400">
	<ele>109.40</ele>
	<time>2022-05-14T06:57:06.000Z</time>
</trkpt>
<trkpt lat="44.3167070" lon="9.1556620">
	<ele>109.40</ele>
	<time>2022-05-14T06:57:08.000Z</time>
</trkpt>
<trkpt lat="44.3166870" lon="9.1556800">
	<ele>109.00</ele>
	<time>2022-05-14T06:57:10.000Z</time>
</trkpt>
<trkpt lat="44.3166510" lon="9.1557390">
	<ele>108.00</ele>
	<time>2022-05-14T06:57:16.000Z</time>
</trkpt>
<trkpt lat="44.3166460" lon="9.1557580">
	<ele>107.80</ele>
	<time>2022-05-14T06:57:17.000Z</time>
</trkpt>
<trkpt lat="44.3166400" lon="9.1557950">
	<ele>107.60</ele>
	<time>2022-05-14T06:57:19.000Z</time>
</trkpt>
<trkpt lat="44.3166320" lon="9.1558270">
	<ele>107.20</ele>
	<time>2022-05-14T06:57:25.000Z</time>
</trkpt>
<trkpt lat="44.3166250" lon="9.1558230">
	<ele>107.00</ele>
	<time>2022-05-14T06:57:29.000Z</time>
</trkpt>
<trkpt lat="44.3166230" lon="9.1558290">
	<ele>107.00</ele>
	<time>2022-05-14T06:57:31.000Z</time>
</trkpt>
<trkpt lat="44.3166170" lon="9.1558490">
	<ele>107.00</ele>
	<time>2022-05-14T06:57:34.000Z</time>
</trkpt>
<trkpt lat="44.3166110" lon="9.1558530">
	<ele>106.60</ele>
	<time>2022-05-14T06:57:35.000Z</time>
</trkpt>
<trkpt lat="44.3165980" lon="9.1558750">
	<ele>105.60</ele>
	<time>2022-05-14T06:57:42.000Z</time>
</trkpt>
<trkpt lat="44.3166030" lon="9.1558740">
	<ele>105.00</ele>
	<time>2022-05-14T06:57:49.000Z</time>
</trkpt>
<trkpt lat="44.3166030" lon="9.1558740">
	<ele>105.00</ele>
	<time>2022-05-14T06:57:51.000Z</time>
</trkpt>
<trkpt lat="44.3165950" lon="9.1558890">
	<ele>105.00</ele>
	<time>2022-05-14T06:58:03.000Z</time>
</trkpt>
<trkpt lat="44.3165950" lon="9.1558970">
	<ele>105.00</ele>
	<time>2022-05-14T06:58:14.000Z</time>
</trkpt>
<trkpt lat="44.3165950" lon="9.1558990">
	<ele>104.80</ele>
	<time>2022-05-14T06:58:21.000Z</time>
</trkpt>
<trkpt lat="44.3165970" lon="9.1559000">
	<ele>105.00</ele>
	<time>2022-05-14T06:58:31.000Z</time>
</trkpt>
<trkpt lat="44.3165970" lon="9.1559000">
	<ele>105.00</ele>
	<time>2022-05-14T06:58:34.000Z</time>
</trkpt>
<trkpt lat="44.3166090" lon="9.1558940">
	<ele>104.40</ele>
	<time>2022-05-14T06:58:46.000Z</time>
</trkpt>
<trkpt lat="44.3166150" lon="9.1558940">
	<ele>103.80</ele>
	<time>2022-05-14T06:58:50.000Z</time>
</trkpt>
<trkpt lat="44.3166160" lon="9.1558940">
	<ele>103.60</ele>
	<time>2022-05-14T06:58:51.000Z</time>
</trkpt>
<trkpt lat="44.3166160" lon="9.1558940">
	<ele>103.40</ele>
	<time>2022-05-14T06:58:52.000Z</time>
</trkpt>
<trkpt lat="44.3166170" lon="9.1558940">
	<ele>102.80</ele>
	<time>2022-05-14T06:58:54.000Z</time>
</trkpt>
<trkpt lat="44.3166250" lon="9.1559170">
	<ele>102.40</ele>
	<time>2022-05-14T06:58:57.000Z</time>
</trkpt>
<trkpt lat="44.3166280" lon="9.1559230">
	<ele>101.20</ele>
	<time>2022-05-14T06:59:02.000Z</time>
</trkpt>
<trkpt lat="44.3166320" lon="9.1559300">
	<ele>100.00</ele>
	<time>2022-05-14T06:59:08.000Z</time>
</trkpt>
<trkpt lat="44.3166320" lon="9.1559500">
	<ele>98.80</ele>
	<time>2022-05-14T06:59:14.000Z</time>
</trkpt>
<trkpt lat="44.3166280" lon="9.1559780">
	<ele>97.80</ele>
	<time>2022-05-14T06:59:19.000Z</time>
</trkpt>
<trkpt lat="44.3166250" lon="9.1560120">
	<ele>96.80</ele>
	<time>2022-05-14T06:59:27.000Z</time>
</trkpt>
<trkpt lat="44.3166240" lon="9.1560230">
	<ele>95.60</ele>
	<time>2022-05-14T06:59:32.000Z</time>
</trkpt>
<trkpt lat="44.3166240" lon="9.1560460">
	<ele>95.20</ele>
	<time>2022-05-14T06:59:36.000Z</time>
</trkpt>
<trkpt lat="44.3166240" lon="9.1560550">
	<ele>94.60</ele>
	<time>2022-05-14T06:59:39.000Z</time>
</trkpt>
<trkpt lat="44.3166280" lon="9.1560820">
	<ele>93.40</ele>
	<time>2022-05-14T06:59:46.000Z</time>
</trkpt>
<trkpt lat="44.3166380" lon="9.1560940">
	<ele>92.40</ele>
	<time>2022-05-14T06:59:52.000Z</time>
</trkpt>
<trkpt lat="44.3167030" lon="9.1561130">
	<ele>91.60</ele>
	<time>2022-05-14T06:59:59.000Z</time>
</trkpt>
<trkpt lat="44.3167420" lon="9.1561190">
	<ele>91.80</ele>
	<time>2022-05-14T07:00:02.000Z</time>
</trkpt>
<trkpt lat="44.3167830" lon="9.1561270">
	<ele>92.00</ele>
	<time>2022-05-14T07:00:04.000Z</time>
</trkpt>
<trkpt lat="44.3168040" lon="9.1561380">
	<ele>92.40</ele>
	<time>2022-05-14T07:00:08.000Z</time>
</trkpt>
<trkpt lat="44.3167950" lon="9.1561370">
	<ele>92.40</ele>
	<time>2022-05-14T07:00:09.000Z</time>
</trkpt>
<trkpt lat="44.3168250" lon="9.1561800">
	<ele>92.60</ele>
	<time>2022-05-14T07:00:14.000Z</time>
</trkpt>
<trkpt lat="44.3168380" lon="9.1561690">
	<ele>93.40</ele>
	<time>2022-05-14T07:00:22.000Z</time>
</trkpt>
<trkpt lat="44.3168370" lon="9.1561900">
	<ele>93.60</ele>
	<time>2022-05-14T07:00:23.000Z</time>
</trkpt>
<trkpt lat="44.3168580" lon="9.1562410">
	<ele>94.00</ele>
	<time>2022-05-14T07:00:28.000Z</time>
</trkpt>
<trkpt lat="44.3168570" lon="9.1562510">
	<ele>94.20</ele>
	<time>2022-05-14T07:00:29.000Z</time>
</trkpt>
<trkpt lat="44.3168570" lon="9.1562650">
	<ele>94.60</ele>
	<time>2022-05-14T07:00:31.000Z</time>
</trkpt>
<trkpt lat="44.3168660" lon="9.1562900">
	<ele>95.40</ele>
	<time>2022-05-14T07:00:34.000Z</time>
</trkpt>
<trkpt lat="44.3168730" lon="9.1563050">
	<ele>95.60</ele>
	<time>2022-05-14T07:00:36.000Z</time>
</trkpt>
<trkpt lat="44.3168760" lon="9.1563120">
	<ele>95.80</ele>
	<time>2022-05-14T07:00:37.000Z</time>
</trkpt>
<trkpt lat="44.3168840" lon="9.1563270">
	<ele>95.80</ele>
	<time>2022-05-14T07:00:39.000Z</time>
</trkpt>
<trkpt lat="44.3168550" lon="9.1563540">
	<ele>96.20</ele>
	<time>2022-05-14T07:00:46.000Z</time>
</trkpt>
<trkpt lat="44.3168580" lon="9.1563920">
	<ele>96.60</ele>
	<time>2022-05-14T07:00:54.000Z</time>
</trkpt>
<trkpt lat="44.3168560" lon="9.1564420">
	<ele>95.20</ele>
	<time>2022-05-14T07:01:05.000Z</time>
</trkpt>
<trkpt lat="44.3168460" lon="9.1564720">
	<ele>94.60</ele>
	<time>2022-05-14T07:01:12.000Z</time>
</trkpt>
<trkpt lat="44.3168410" lon="9.1564810">
	<ele>94.20</ele>
	<time>2022-05-14T07:01:14.000Z</time>
</trkpt>
<trkpt lat="44.3168340" lon="9.1565070">
	<ele>93.40</ele>
	<time>2022-05-14T07:01:18.000Z</time>
</trkpt>
<trkpt lat="44.3168310" lon="9.1565350">
	<ele>93.20</ele>
	<time>2022-05-14T07:01:23.000Z</time>
</trkpt>
<trkpt lat="44.3168380" lon="9.1565650">
	<ele>92.80</ele>
	<time>2022-05-14T07:01:28.000Z</time>
</trkpt>
<trkpt lat="44.3168360" lon="9.1565940">
	<ele>92.40</ele>
	<time>2022-05-14T07:01:31.000Z</time>
</trkpt>
<trkpt lat="44.3168540" lon="9.1566720">
	<ele>92.40</ele>
	<time>2022-05-14T07:01:37.000Z</time>
</trkpt>
<trkpt lat="44.3168840" lon="9.1567470">
	<ele>92.80</ele>
	<time>2022-05-14T07:01:45.000Z</time>
</trkpt>
<trkpt lat="44.3168860" lon="9.1567810">
	<ele>93.40</ele>
	<time>2022-05-14T07:01:48.000Z</time>
</trkpt>
<trkpt lat="44.3168880" lon="9.1568540">
	<ele>94.40</ele>
	<time>2022-05-14T07:01:52.000Z</time>
</trkpt>
<trkpt lat="44.3168950" lon="9.1568690">
	<ele>94.60</ele>
	<time>2022-05-14T07:01:53.000Z</time>
</trkpt>
<trkpt lat="44.3169170" lon="9.1569680">
	<ele>93.40</ele>
	<time>2022-05-14T07:02:00.000Z</time>
</trkpt>
<trkpt lat="44.3169190" lon="9.1569770">
	<ele>93.40</ele>
	<time>2022-05-14T07:02:01.000Z</time>
</trkpt>
<trkpt lat="44.3169210" lon="9.1569940">
	<ele>93.40</ele>
	<time>2022-05-14T07:02:03.000Z</time>
</trkpt>
<trkpt lat="44.3169200" lon="9.1570070">
	<ele>93.20</ele>
	<time>2022-05-14T07:02:06.000Z</time>
</trkpt>
<trkpt lat="44.3169280" lon="9.1571170">
	<ele>92.60</ele>
	<time>2022-05-14T07:02:14.000Z</time>
</trkpt>
<trkpt lat="44.3169260" lon="9.1571330">
	<ele>92.60</ele>
	<time>2022-05-14T07:02:15.000Z</time>
</trkpt>
<trkpt lat="44.3169220" lon="9.1571500">
	<ele>92.40</ele>
	<time>2022-05-14T07:02:16.000Z</time>
</trkpt>
<trkpt lat="44.3169200" lon="9.1571660">
	<ele>92.20</ele>
	<time>2022-05-14T07:02:17.000Z</time>
</trkpt>
<trkpt lat="44.3169200" lon="9.1572000">
	<ele>92.20</ele>
	<time>2022-05-14T07:02:19.000Z</time>
</trkpt>
<trkpt lat="44.3169430" lon="9.1573120">
	<ele>92.40</ele>
	<time>2022-05-14T07:02:27.000Z</time>
</trkpt>
<trkpt lat="44.3169340" lon="9.1573680">
	<ele>91.80</ele>
	<time>2022-05-14T07:02:32.000Z</time>
</trkpt>
<trkpt lat="44.3169350" lon="9.1573860">
	<ele>91.60</ele>
	<time>2022-05-14T07:02:33.000Z</time>
</trkpt>
<trkpt lat="44.3169400" lon="9.1574010">
	<ele>91.40</ele>
	<time>2022-05-14T07:02:34.000Z</time>
</trkpt>
<trkpt lat="44.3169490" lon="9.1574100">
	<ele>91.20</ele>
	<time>2022-05-14T07:02:35.000Z</time>
</trkpt>
<trkpt lat="44.3169710" lon="9.1574330">
	<ele>91.40</ele>
	<time>2022-05-14T07:02:38.000Z</time>
</trkpt>
<trkpt lat="44.3169770" lon="9.1574430">
	<ele>91.60</ele>
	<time>2022-05-14T07:02:39.000Z</time>
</trkpt>
<trkpt lat="44.3170340" lon="9.1575560">
	<ele>91.60</ele>
	<time>2022-05-14T07:02:47.000Z</time>
</trkpt>
<trkpt lat="44.3170550" lon="9.1575970">
	<ele>91.80</ele>
	<time>2022-05-14T07:02:50.000Z</time>
</trkpt>
<trkpt lat="44.3170630" lon="9.1576250">
	<ele>92.00</ele>
	<time>2022-05-14T07:02:52.000Z</time>
</trkpt>
<trkpt lat="44.3170710" lon="9.1576460">
	<ele>92.00</ele>
	<time>2022-05-14T07:02:54.000Z</time>
</trkpt>
<trkpt lat="44.3170810" lon="9.1576730">
	<ele>92.40</ele>
	<time>2022-05-14T07:02:57.000Z</time>
</trkpt>
<trkpt lat="44.3171090" lon="9.1577430">
	<ele>92.80</ele>
	<time>2022-05-14T07:03:03.000Z</time>
</trkpt>
<trkpt lat="44.3171180" lon="9.1577670">
	<ele>92.80</ele>
	<time>2022-05-14T07:03:05.000Z</time>
</trkpt>
<trkpt lat="44.3171370" lon="9.1577990">
	<ele>93.00</ele>
	<time>2022-05-14T07:03:09.000Z</time>
</trkpt>
<trkpt lat="44.3171490" lon="9.1578170">
	<ele>93.40</ele>
	<time>2022-05-14T07:03:11.000Z</time>
</trkpt>
<trkpt lat="44.3171760" lon="9.1578440">
	<ele>94.20</ele>
	<time>2022-05-14T07:03:16.000Z</time>
</trkpt>
<trkpt lat="44.3171790" lon="9.1578550">
	<ele>94.40</ele>
	<time>2022-05-14T07:03:17.000Z</time>
</trkpt>
<trkpt lat="44.3171840" lon="9.1578660">
	<ele>94.60</ele>
	<time>2022-05-14T07:03:18.000Z</time>
</trkpt>
<trkpt lat="44.3171900" lon="9.1578780">
	<ele>94.60</ele>
	<time>2022-05-14T07:03:19.000Z</time>
</trkpt>
<trkpt lat="44.3172160" lon="9.1579410">
	<ele>95.20</ele>
	<time>2022-05-14T07:03:25.000Z</time>
</trkpt>
<trkpt lat="44.3172210" lon="9.1579480">
	<ele>95.20</ele>
	<time>2022-05-14T07:03:26.000Z</time>
</trkpt>
<trkpt lat="44.3172230" lon="9.1579520">
	<ele>95.40</ele>
	<time>2022-05-14T07:03:27.000Z</time>
</trkpt>
<trkpt lat="44.3172320" lon="9.1579600">
	<ele>95.60</ele>
	<time>2022-05-14T07:03:29.000Z</time>
</trkpt>
<trkpt lat="44.3172480" lon="9.1579720">
	<ele>96.00</ele>
	<time>2022-05-14T07:03:31.000Z</time>
</trkpt>
<trkpt lat="44.3172740" lon="9.1579960">
	<ele>96.80</ele>
	<time>2022-05-14T07:03:34.000Z</time>
</trkpt>
<trkpt lat="44.3173110" lon="9.1580200">
	<ele>97.20</ele>
	<time>2022-05-14T07:03:39.000Z</time>
</trkpt>
<trkpt lat="44.3173590" lon="9.1580260">
	<ele>97.20</ele>
	<time>2022-05-14T07:03:44.000Z</time>
</trkpt>
<trkpt lat="44.3173750" lon="9.1580260">
	<ele>97.20</ele>
	<time>2022-05-14T07:03:46.000Z</time>
</trkpt>
<trkpt lat="44.3174070" lon="9.1580260">
	<ele>97.80</ele>
	<time>2022-05-14T07:03:51.000Z</time>
</trkpt>
<trkpt lat="44.3174110" lon="9.1580270">
	<ele>98.00</ele>
	<time>2022-05-14T07:03:52.000Z</time>
</trkpt>
<trkpt lat="44.3174120" lon="9.1580290">
	<ele>98.00</ele>
	<time>2022-05-14T07:03:54.000Z</time>
</trkpt>
<trkpt lat="44.3174170" lon="9.1580300">
	<ele>98.20</ele>
	<time>2022-05-14T07:03:55.000Z</time>
</trkpt>
<trkpt lat="44.3174210" lon="9.1580330">
	<ele>98.00</ele>
	<time>2022-05-14T07:03:59.000Z</time>
</trkpt>
<trkpt lat="44.3174300" lon="9.1580360">
	<ele>97.80</ele>
	<time>2022-05-14T07:04:01.000Z</time>
</trkpt>
<trkpt lat="44.3174380" lon="9.1580340">
	<ele>97.60</ele>
	<time>2022-05-14T07:04:03.000Z</time>
</trkpt>
<trkpt lat="44.3174820" lon="9.1580420">
	<ele>97.40</ele>
	<time>2022-05-14T07:04:11.000Z</time>
</trkpt>
<trkpt lat="44.3175200" lon="9.1580350">
	<ele>97.40</ele>
	<time>2022-05-14T07:04:16.000Z</time>
</trkpt>
<trkpt lat="44.3175530" lon="9.1580580">
	<ele>97.40</ele>
	<time>2022-05-14T07:04:21.000Z</time>
</trkpt>
<trkpt lat="44.3176140" lon="9.1580860">
	<ele>97.40</ele>
	<time>2022-05-14T07:04:29.000Z</time>
</trkpt>
<trkpt lat="44.3176460" lon="9.1580730">
	<ele>98.80</ele>
	<time>2022-05-14T07:04:33.000Z</time>
</trkpt>
<trkpt lat="44.3176550" lon="9.1580700">
	<ele>100.40</ele>
	<time>2022-05-14T07:04:35.000Z</time>
</trkpt>
<trkpt lat="44.3176650" lon="9.1580700">
	<ele>100.80</ele>
	<time>2022-05-14T07:04:36.000Z</time>
</trkpt>
<trkpt lat="44.3176760" lon="9.1580720">
	<ele>101.00</ele>
	<time>2022-05-14T07:04:37.000Z</time>
</trkpt>
<trkpt lat="44.3176970" lon="9.1580670">
	<ele>101.40</ele>
	<time>2022-05-14T07:04:40.000Z</time>
</trkpt>
<trkpt lat="44.3177200" lon="9.1580580">
	<ele>102.00</ele>
	<time>2022-05-14T07:04:43.000Z</time>
</trkpt>
<trkpt lat="44.3177940" lon="9.1580530">
	<ele>102.40</ele>
	<time>2022-05-14T07:04:51.000Z</time>
</trkpt>
<trkpt lat="44.3177950" lon="9.1580570">
	<ele>102.40</ele>
	<time>2022-05-14T07:04:52.000Z</time>
</trkpt>
<trkpt lat="44.3178010" lon="9.1580910">
	<ele>101.60</ele>
	<time>2022-05-14T07:04:57.000Z</time>
</trkpt>
<trkpt lat="44.3178200" lon="9.1581060">
	<ele>101.40</ele>
	<time>2022-05-14T07:05:00.000Z</time>
</trkpt>
<trkpt lat="44.3178320" lon="9.1581300">
	<ele>101.40</ele>
	<time>2022-05-14T07:05:03.000Z</time>
</trkpt>
<trkpt lat="44.3178290" lon="9.1581410">
	<ele>101.40</ele>
	<time>2022-05-14T07:05:04.000Z</time>
</trkpt>
<trkpt lat="44.3178180" lon="9.1581650">
	<ele>101.40</ele>
	<time>2022-05-14T07:05:06.000Z</time>
</trkpt>
<trkpt lat="44.3178080" lon="9.1581890">
	<ele>101.20</ele>
	<time>2022-05-14T07:05:09.000Z</time>
</trkpt>
<trkpt lat="44.3178150" lon="9.1582040">
	<ele>101.60</ele>
	<time>2022-05-14T07:05:11.000Z</time>
</trkpt>
<trkpt lat="44.3178100" lon="9.1582080">
	<ele>101.80</ele>
	<time>2022-05-14T07:05:12.000Z</time>
</trkpt>
<trkpt lat="44.3177920" lon="9.1582270">
	<ele>101.80</ele>
	<time>2022-05-14T07:05:14.000Z</time>
</trkpt>
<trkpt lat="44.3177790" lon="9.1582680">
	<ele>101.80</ele>
	<time>2022-05-14T07:05:18.000Z</time>
</trkpt>
<trkpt lat="44.3177290" lon="9.1583540">
	<ele>101.60</ele>
	<time>2022-05-14T07:05:24.000Z</time>
</trkpt>
<trkpt lat="44.3177040" lon="9.1584000">
	<ele>101.80</ele>
	<time>2022-05-14T07:05:28.000Z</time>
</trkpt>
<trkpt lat="44.3176820" lon="9.1584350">
	<ele>101.60</ele>
	<time>2022-05-14T07:05:31.000Z</time>
</trkpt>
<trkpt lat="44.3176470" lon="9.1585270">
	<ele>101.00</ele>
	<time>2022-05-14T07:05:39.000Z</time>
</trkpt>
<trkpt lat="44.3176430" lon="9.1585350">
	<ele>101.00</ele>
	<time>2022-05-14T07:05:40.000Z</time>
</trkpt>
<trkpt lat="44.3176280" lon="9.1585680">
	<ele>100.40</ele>
	<time>2022-05-14T07:05:43.000Z</time>
</trkpt>
<trkpt lat="44.3176140" lon="9.1585930">
	<ele>100.20</ele>
	<time>2022-05-14T07:05:45.000Z</time>
</trkpt>
<trkpt lat="44.3175920" lon="9.1586160">
	<ele>100.00</ele>
	<time>2022-05-14T07:05:47.000Z</time>
</trkpt>
<trkpt lat="44.3175740" lon="9.1586450">
	<ele>99.60</ele>
	<time>2022-05-14T07:05:49.000Z</time>
</trkpt>
<trkpt lat="44.3175660" lon="9.1586730">
	<ele>99.40</ele>
	<time>2022-05-14T07:05:51.000Z</time>
</trkpt>
<trkpt lat="44.3175590" lon="9.1586850">
	<ele>99.40</ele>
	<time>2022-05-14T07:05:52.000Z</time>
</trkpt>
<trkpt lat="44.3175520" lon="9.1586960">
	<ele>99.40</ele>
	<time>2022-05-14T07:05:53.000Z</time>
</trkpt>
<trkpt lat="44.3174930" lon="9.1587960">
	<ele>98.60</ele>
	<time>2022-05-14T07:06:02.000Z</time>
</trkpt>
<trkpt lat="44.3174880" lon="9.1588100">
	<ele>98.60</ele>
	<time>2022-05-14T07:06:03.000Z</time>
</trkpt>
<trkpt lat="44.3174880" lon="9.1588400">
	<ele>98.60</ele>
	<time>2022-05-14T07:06:05.000Z</time>
</trkpt>
<trkpt lat="44.3174890" lon="9.1588490">
	<ele>98.40</ele>
	<time>2022-05-14T07:06:06.000Z</time>
</trkpt>
<trkpt lat="44.3174790" lon="9.1588610">
	<ele>98.20</ele>
	<time>2022-05-14T07:06:08.000Z</time>
</trkpt>
<trkpt lat="44.3174650" lon="9.1588710">
	<ele>98.00</ele>
	<time>2022-05-14T07:06:10.000Z</time>
</trkpt>
<trkpt lat="44.3174170" lon="9.1589070">
	<ele>97.20</ele>
	<time>2022-05-14T07:06:14.000Z</time>
</trkpt>
<trkpt lat="44.3173920" lon="9.1589300">
	<ele>97.20</ele>
	<time>2022-05-14T07:06:16.000Z</time>
</trkpt>
<trkpt lat="44.3173700" lon="9.1589810">
	<ele>97.60</ele>
	<time>2022-05-14T07:06:20.000Z</time>
</trkpt>
<trkpt lat="44.3173530" lon="9.1590240">
	<ele>97.80</ele>
	<time>2022-05-14T07:06:24.000Z</time>
</trkpt>
<trkpt lat="44.3173390" lon="9.1590400">
	<ele>98.00</ele>
	<time>2022-05-14T07:06:26.000Z</time>
</trkpt>
<trkpt lat="44.3172880" lon="9.1590980">
	<ele>98.00</ele>
	<time>2022-05-14T07:06:33.000Z</time>
</trkpt>
<trkpt lat="44.3172160" lon="9.1591560">
	<ele>97.40</ele>
	<time>2022-05-14T07:06:40.000Z</time>
</trkpt>
<trkpt lat="44.3172070" lon="9.1591640">
	<ele>97.40</ele>
	<time>2022-05-14T07:06:41.000Z</time>
</trkpt>
<trkpt lat="44.3171730" lon="9.1592280">
	<ele>98.20</ele>
	<time>2022-05-14T07:06:50.000Z</time>
</trkpt>
<trkpt lat="44.3171690" lon="9.1592570">
	<ele>98.40</ele>
	<time>2022-05-14T07:06:52.000Z</time>
</trkpt>
<trkpt lat="44.3171640" lon="9.1592960">
	<ele>98.80</ele>
	<time>2022-05-14T07:06:55.000Z</time>
</trkpt>
<trkpt lat="44.3171260" lon="9.1593280">
	<ele>99.20</ele>
	<time>2022-05-14T07:07:01.000Z</time>
</trkpt>
<trkpt lat="44.3171180" lon="9.1593320">
	<ele>99.20</ele>
	<time>2022-05-14T07:07:02.000Z</time>
</trkpt>
<trkpt lat="44.3170780" lon="9.1593680">
	<ele>98.80</ele>
	<time>2022-05-14T07:07:08.000Z</time>
</trkpt>
<trkpt lat="44.3170720" lon="9.1594120">
	<ele>99.00</ele>
	<time>2022-05-14T07:07:12.000Z</time>
</trkpt>
<trkpt lat="44.3170620" lon="9.1594190">
	<ele>99.20</ele>
	<time>2022-05-14T07:07:14.000Z</time>
</trkpt>
<trkpt lat="44.3170550" lon="9.1594160">
	<ele>99.40</ele>
	<time>2022-05-14T07:07:16.000Z</time>
</trkpt>
<trkpt lat="44.3170470" lon="9.1594260">
	<ele>100.00</ele>
	<time>2022-05-14T07:07:19.000Z</time>
</trkpt>
<trkpt lat="44.3170500" lon="9.1594370">
	<ele>100.20</ele>
	<time>2022-05-14T07:07:21.000Z</time>
</trkpt>
<trkpt lat="44.3170530" lon="9.1594370">
	<ele>100.20</ele>
	<time>2022-05-14T07:07:23.000Z</time>
</trkpt>
<trkpt lat="44.3170480" lon="9.1594390">
	<ele>100.00</ele>
	<time>2022-05-14T07:07:24.000Z</time>
</trkpt>
<trkpt lat="44.3170360" lon="9.1594480">
	<ele>100.40</ele>
	<time>2022-05-14T07:07:28.000Z</time>
</trkpt>
<trkpt lat="44.3170220" lon="9.1594690">
	<ele>101.00</ele>
	<time>2022-05-14T07:07:33.000Z</time>
</trkpt>
<trkpt lat="44.3170150" lon="9.1594810">
	<ele>101.40</ele>
	<time>2022-05-14T07:07:36.000Z</time>
</trkpt>
<trkpt lat="44.3169970" lon="9.1594800">
	<ele>102.40</ele>
	<time>2022-05-14T07:07:40.000Z</time>
</trkpt>
<trkpt lat="44.3169990" lon="9.1594980">
	<ele>102.60</ele>
	<time>2022-05-14T07:07:41.000Z</time>
</trkpt>
<trkpt lat="44.3169950" lon="9.1595010">
	<ele>103.00</ele>
	<time>2022-05-14T07:07:45.000Z</time>
</trkpt>
<trkpt lat="44.3170080" lon="9.1595080">
	<ele>103.00</ele>
	<time>2022-05-14T07:07:46.000Z</time>
</trkpt>
<trkpt lat="44.3170270" lon="9.1595250">
	<ele>103.00</ele>
	<time>2022-05-14T07:07:51.000Z</time>
</trkpt>
<trkpt lat="44.3170090" lon="9.1595160">
	<ele>103.00</ele>
	<time>2022-05-14T07:07:53.000Z</time>
</trkpt>
<trkpt lat="44.3169980" lon="9.1595080">
	<ele>103.00</ele>
	<time>2022-05-14T07:07:59.000Z</time>
</trkpt>
<trkpt lat="44.3169930" lon="9.1594940">
	<ele>103.00</ele>
	<time>2022-05-14T07:08:08.000Z</time>
</trkpt>
<trkpt lat="44.3169850" lon="9.1594740">
	<ele>103.20</ele>
	<time>2022-05-14T07:08:14.000Z</time>
</trkpt>
<trkpt lat="44.3169570" lon="9.1594760">
	<ele>103.00</ele>
	<time>2022-05-14T07:08:26.000Z</time>
</trkpt>
<trkpt lat="44.3169310" lon="9.1595030">
	<ele>103.00</ele>
	<time>2022-05-14T07:08:28.000Z</time>
</trkpt>
<trkpt lat="44.3169100" lon="9.1595230">
	<ele>102.80</ele>
	<time>2022-05-14T07:08:31.000Z</time>
</trkpt>
<trkpt lat="44.3169010" lon="9.1595220">
	<ele>102.80</ele>
	<time>2022-05-14T07:08:33.000Z</time>
</trkpt>
<trkpt lat="44.3168950" lon="9.1595220">
	<ele>102.80</ele>
	<time>2022-05-14T07:08:36.000Z</time>
</trkpt>
<trkpt lat="44.3169060" lon="9.1595370">
	<ele>102.80</ele>
	<time>2022-05-14T07:08:44.000Z</time>
</trkpt>
<trkpt lat="44.3168850" lon="9.1595750">
	<ele>103.00</ele>
	<time>2022-05-14T07:08:50.000Z</time>
</trkpt>
<trkpt lat="44.3168780" lon="9.1595840">
	<ele>103.40</ele>
	<time>2022-05-14T07:08:51.000Z</time>
</trkpt>
<trkpt lat="44.3168700" lon="9.1595860">
	<ele>103.80</ele>
	<time>2022-05-14T07:08:52.000Z</time>
</trkpt>
<trkpt lat="44.3168310" lon="9.1596080">
	<ele>104.40</ele>
	<time>2022-05-14T07:08:56.000Z</time>
</trkpt>
<trkpt lat="44.3168230" lon="9.1596270">
	<ele>104.80</ele>
	<time>2022-05-14T07:08:58.000Z</time>
</trkpt>
<trkpt lat="44.3167900" lon="9.1596670">
	<ele>105.60</ele>
	<time>2022-05-14T07:09:03.000Z</time>
</trkpt>
<trkpt lat="44.3167840" lon="9.1596770">
	<ele>105.80</ele>
	<time>2022-05-14T07:09:05.000Z</time>
</trkpt>
<trkpt lat="44.3167740" lon="9.1597170">
	<ele>106.80</ele>
	<time>2022-05-14T07:09:10.000Z</time>
</trkpt>
<trkpt lat="44.3167600" lon="9.1597340">
	<ele>107.80</ele>
	<time>2022-05-14T07:09:14.000Z</time>
</trkpt>
<trkpt lat="44.3167480" lon="9.1597530">
	<ele>108.80</ele>
	<time>2022-05-14T07:09:18.000Z</time>
</trkpt>
<trkpt lat="44.3167430" lon="9.1597580">
	<ele>109.00</ele>
	<time>2022-05-14T07:09:19.000Z</time>
</trkpt>
<trkpt lat="44.3167350" lon="9.1597720">
	<ele>109.00</ele>
	<time>2022-05-14T07:09:21.000Z</time>
</trkpt>
<trkpt lat="44.3167300" lon="9.1597810">
	<ele>108.80</ele>
	<time>2022-05-14T07:09:23.000Z</time>
</trkpt>
<trkpt lat="44.3167220" lon="9.1598010">
	<ele>108.60</ele>
	<time>2022-05-14T07:09:26.000Z</time>
</trkpt>
<trkpt lat="44.3167180" lon="9.1598090">
	<ele>108.40</ele>
	<time>2022-05-14T07:09:27.000Z</time>
</trkpt>
<trkpt lat="44.3167020" lon="9.1598400">
	<ele>107.80</ele>
	<time>2022-05-14T07:09:30.000Z</time>
</trkpt>
<trkpt lat="44.3167110" lon="9.1598720">
	<ele>107.40</ele>
	<time>2022-05-14T07:09:35.000Z</time>
</trkpt>
<trkpt lat="44.3167220" lon="9.1599390">
	<ele>107.60</ele>
	<time>2022-05-14T07:09:41.000Z</time>
</trkpt>
<trkpt lat="44.3167300" lon="9.1599560">
	<ele>107.80</ele>
	<time>2022-05-14T07:09:43.000Z</time>
</trkpt>
<trkpt lat="44.3167320" lon="9.1599680">
	<ele>108.00</ele>
	<time>2022-05-14T07:09:44.000Z</time>
</trkpt>
<trkpt lat="44.3167360" lon="9.1600120">
	<ele>107.80</ele>
	<time>2022-05-14T07:09:50.000Z</time>
</trkpt>
<trkpt lat="44.3167420" lon="9.1600210">
	<ele>107.60</ele>
	<time>2022-05-14T07:09:51.000Z</time>
</trkpt>
<trkpt lat="44.3167550" lon="9.1600500">
	<ele>107.00</ele>
	<time>2022-05-14T07:09:55.000Z</time>
</trkpt>
<trkpt lat="44.3167580" lon="9.1600530">
	<ele>106.60</ele>
	<time>2022-05-14T07:09:57.000Z</time>
</trkpt>
<trkpt lat="44.3167600" lon="9.1600540">
	<ele>106.40</ele>
	<time>2022-05-14T07:09:58.000Z</time>
</trkpt>
<trkpt lat="44.3167660" lon="9.1600530">
	<ele>106.20</ele>
	<time>2022-05-14T07:10:02.000Z</time>
</trkpt>
<trkpt lat="44.3167660" lon="9.1600580">
	<ele>106.20</ele>
	<time>2022-05-14T07:10:05.000Z</time>
</trkpt>
<trkpt lat="44.3167810" lon="9.1600650">
	<ele>106.20</ele>
	<time>2022-05-14T07:10:09.000Z</time>
</trkpt>
<trkpt lat="44.3167950" lon="9.1600640">
	<ele>106.20</ele>
	<time>2022-05-14T07:10:15.000Z</time>
</trkpt>
<trkpt lat="44.3168190" lon="9.1600550">
	<ele>106.20</ele>
	<time>2022-05-14T07:10:20.000Z</time>
</trkpt>
<trkpt lat="44.3168260" lon="9.1600480">
	<ele>106.20</ele>
	<time>2022-05-14T07:10:22.000Z</time>
</trkpt>
<trkpt lat="44.3168400" lon="9.1600410">
	<ele>104.80</ele>
	<time>2022-05-14T07:10:25.000Z</time>
</trkpt>
<trkpt lat="44.3168470" lon="9.1600350">
	<ele>103.60</ele>
	<time>2022-05-14T07:10:27.000Z</time>
</trkpt>
<trkpt lat="44.3168460" lon="9.1600320">
	<ele>103.20</ele>
	<time>2022-05-14T07:10:28.000Z</time>
</trkpt>
<trkpt lat="44.3168590" lon="9.1600350">
	<ele>102.40</ele>
	<time>2022-05-14T07:10:33.000Z</time>
</trkpt>
<trkpt lat="44.3168700" lon="9.1600400">
	<ele>102.00</ele>
	<time>2022-05-14T07:10:35.000Z</time>
</trkpt>
<trkpt lat="44.3168730" lon="9.1600400">
	<ele>101.60</ele>
	<time>2022-05-14T07:10:40.000Z</time>
</trkpt>
<trkpt lat="44.3168730" lon="9.1600400">
	<ele>101.40</ele>
	<time>2022-05-14T07:10:42.000Z</time>
</trkpt>
<trkpt lat="44.3168730" lon="9.1600400">
	<ele>100.80</ele>
	<time>2022-05-14T07:10:45.000Z</time>
</trkpt>
<trkpt lat="44.3168730" lon="9.1600400">
	<ele>100.20</ele>
	<time>2022-05-14T07:10:48.000Z</time>
</trkpt>
<trkpt lat="44.3168730" lon="9.1600400">
	<ele>100.00</ele>
	<time>2022-05-14T07:10:49.000Z</time>
</trkpt>
<trkpt lat="44.3168790" lon="9.1600540">
	<ele>99.20</ele>
	<time>2022-05-14T07:10:59.000Z</time>
</trkpt>
<trkpt lat="44.3169290" lon="9.1600420">
	<ele>99.20</ele>
	<time>2022-05-14T07:11:02.000Z</time>
</trkpt>
<trkpt lat="44.3169990" lon="9.1600740">
	<ele>98.80</ele>
	<time>2022-05-14T07:11:08.000Z</time>
</trkpt>
<trkpt lat="44.3170170" lon="9.1600860">
	<ele>98.60</ele>
	<time>2022-05-14T07:11:13.000Z</time>
</trkpt>
<trkpt lat="44.3170180" lon="9.1600910">
	<ele>98.20</ele>
	<time>2022-05-14T07:11:17.000Z</time>
</trkpt>
<trkpt lat="44.3170210" lon="9.1600860">
	<ele>98.00</ele>
	<time>2022-05-14T07:11:19.000Z</time>
</trkpt>
<trkpt lat="44.3170380" lon="9.1600870">
	<ele>98.40</ele>
	<time>2022-05-14T07:11:25.000Z</time>
</trkpt>
<trkpt lat="44.3170440" lon="9.1600830">
	<ele>98.40</ele>
	<time>2022-05-14T07:11:26.000Z</time>
</trkpt>
<trkpt lat="44.3170430" lon="9.1600880">
	<ele>97.60</ele>
	<time>2022-05-14T07:11:33.000Z</time>
</trkpt>
<trkpt lat="44.3170430" lon="9.1600880">
	<ele>97.20</ele>
	<time>2022-05-14T07:11:42.000Z</time>
</trkpt>
<trkpt lat="44.3170460" lon="9.1600910">
	<ele>96.00</ele>
	<time>2022-05-14T07:11:47.000Z</time>
</trkpt>
<trkpt lat="44.3170500" lon="9.1601060">
	<ele>95.00</ele>
	<time>2022-05-14T07:11:54.000Z</time>
</trkpt>
<trkpt lat="44.3170620" lon="9.1601500">
	<ele>94.00</ele>
	<time>2022-05-14T07:12:00.000Z</time>
</trkpt>
<trkpt lat="44.3170830" lon="9.1601560">
	<ele>94.00</ele>
	<time>2022-05-14T07:12:06.000Z</time>
</trkpt>
<trkpt lat="44.3170970" lon="9.1601560">
	<ele>93.80</ele>
	<time>2022-05-14T07:12:08.000Z</time>
</trkpt>
<trkpt lat="44.3171430" lon="9.1601590">
	<ele>93.20</ele>
	<time>2022-05-14T07:12:14.000Z</time>
</trkpt>
<trkpt lat="44.3171540" lon="9.1601680">
	<ele>92.80</ele>
	<time>2022-05-14T07:12:15.000Z</time>
</trkpt>
<trkpt lat="44.3171810" lon="9.1601710">
	<ele>91.80</ele>
	<time>2022-05-14T07:12:19.000Z</time>
</trkpt>
<trkpt lat="44.3172110" lon="9.1601430">
	<ele>90.60</ele>
	<time>2022-05-14T07:12:23.000Z</time>
</trkpt>
<trkpt lat="44.3172200" lon="9.1601400">
	<ele>90.40</ele>
	<time>2022-05-14T07:12:24.000Z</time>
</trkpt>
<trkpt lat="44.3172760" lon="9.1601520">
	<ele>89.60</ele>
	<time>2022-05-14T07:12:30.000Z</time>
</trkpt>
<trkpt lat="44.3173110" lon="9.1601410">
	<ele>89.20</ele>
	<time>2022-05-14T07:12:36.000Z</time>
</trkpt>
<trkpt lat="44.3173580" lon="9.1601760">
	<ele>88.40</ele>
	<time>2022-05-14T07:12:41.000Z</time>
</trkpt>
<trkpt lat="44.3173630" lon="9.1601700">
	<ele>88.20</ele>
	<time>2022-05-14T07:12:42.000Z</time>
</trkpt>
<trkpt lat="44.3173960" lon="9.1601690">
	<ele>87.20</ele>
	<time>2022-05-14T07:12:48.000Z</time>
</trkpt>
<trkpt lat="44.3174050" lon="9.1601730">
	<ele>86.60</ele>
	<time>2022-05-14T07:12:50.000Z</time>
</trkpt>
<trkpt lat="44.3174080" lon="9.1601840">
	<ele>86.40</ele>
	<time>2022-05-14T07:12:51.000Z</time>
</trkpt>
<trkpt lat="44.3174190" lon="9.1601970">
	<ele>86.00</ele>
	<time>2022-05-14T07:12:52.000Z</time>
</trkpt>
<trkpt lat="44.3174280" lon="9.1602070">
	<ele>85.80</ele>
	<time>2022-05-14T07:12:53.000Z</time>
</trkpt>
<trkpt lat="44.3174330" lon="9.1602140">
	<ele>85.80</ele>
	<time>2022-05-14T07:12:54.000Z</time>
</trkpt>
<trkpt lat="44.3174470" lon="9.1602330">
	<ele>84.80</ele>
	<time>2022-05-14T07:12:58.000Z</time>
</trkpt>
<trkpt lat="44.3174590" lon="9.1602440">
	<ele>84.40</ele>
	<time>2022-05-14T07:13:01.000Z</time>
</trkpt>
<trkpt lat="44.3174660" lon="9.1602270">
	<ele>84.00</ele>
	<time>2022-05-14T07:13:04.000Z</time>
</trkpt>
<trkpt lat="44.3174690" lon="9.1602230">
	<ele>83.80</ele>
	<time>2022-05-14T07:13:05.000Z</time>
</trkpt>
<trkpt lat="44.3174720" lon="9.1602160">
	<ele>83.60</ele>
	<time>2022-05-14T07:13:07.000Z</time>
</trkpt>
<trkpt lat="44.3174780" lon="9.1602290">
	<ele>83.20</ele>
	<time>2022-05-14T07:13:10.000Z</time>
</trkpt>
<trkpt lat="44.3174800" lon="9.1602330">
	<ele>82.80</ele>
	<time>2022-05-14T07:13:12.000Z</time>
</trkpt>
<trkpt lat="44.3174930" lon="9.1602430">
	<ele>82.40</ele>
	<time>2022-05-14T07:13:14.000Z</time>
</trkpt>
<trkpt lat="44.3174990" lon="9.1602390">
	<ele>81.80</ele>
	<time>2022-05-14T07:13:18.000Z</time>
</trkpt>
<trkpt lat="44.3175060" lon="9.1602340">
	<ele>81.60</ele>
	<time>2022-05-14T07:13:19.000Z</time>
</trkpt>
<trkpt lat="44.3175220" lon="9.1602250">
	<ele>81.40</ele>
	<time>2022-05-14T07:13:21.000Z</time>
</trkpt>
<trkpt lat="44.3175260" lon="9.1602280">
	<ele>81.00</ele>
	<time>2022-05-14T07:13:22.000Z</time>
</trkpt>
<trkpt lat="44.3175300" lon="9.1602240">
	<ele>80.60</ele>
	<time>2022-05-14T07:13:23.000Z</time>
</trkpt>
<trkpt lat="44.3175350" lon="9.1602220">
	<ele>80.40</ele>
	<time>2022-05-14T07:13:24.000Z</time>
</trkpt>
<trkpt lat="44.3175400" lon="9.1602090">
	<ele>79.80</ele>
	<time>2022-05-14T07:13:27.000Z</time>
</trkpt>
<trkpt lat="44.3175460" lon="9.1602100">
	<ele>79.60</ele>
	<time>2022-05-14T07:13:28.000Z</time>
</trkpt>
<trkpt lat="44.3175520" lon="9.1602040">
	<ele>79.40</ele>
	<time>2022-05-14T07:13:29.000Z</time>
</trkpt>
<trkpt lat="44.3175730" lon="9.1602090">
	<ele>78.20</ele>
	<time>2022-05-14T07:13:34.000Z</time>
</trkpt>
<trkpt lat="44.3175890" lon="9.1602270">
	<ele>77.20</ele>
	<time>2022-05-14T07:13:39.000Z</time>
</trkpt>
<trkpt lat="44.3176020" lon="9.1602330">
	<ele>76.80</ele>
	<time>2022-05-14T07:13:41.000Z</time>
</trkpt>
<trkpt lat="44.3176100" lon="9.1602400">
	<ele>76.00</ele>
	<time>2022-05-14T07:13:44.000Z</time>
</trkpt>
<trkpt lat="44.3176160" lon="9.1602580">
	<ele>75.60</ele>
	<time>2022-05-14T07:13:47.000Z</time>
</trkpt>
<trkpt lat="44.3176250" lon="9.1602560">
	<ele>75.60</ele>
	<time>2022-05-14T07:13:52.000Z</time>
</trkpt>
<trkpt lat="44.3176250" lon="9.1602730">
	<ele>74.80</ele>
	<time>2022-05-14T07:13:55.000Z</time>
</trkpt>
<trkpt lat="44.3176300" lon="9.1602780">
	<ele>74.40</ele>
	<time>2022-05-14T07:13:57.000Z</time>
</trkpt>
<trkpt lat="44.3176330" lon="9.1602790">
	<ele>73.80</ele>
	<time>2022-05-14T07:13:59.000Z</time>
</trkpt>
<trkpt lat="44.3176310" lon="9.1602960">
	<ele>73.20</ele>
	<time>2022-05-14T07:14:02.000Z</time>
</trkpt>
<trkpt lat="44.3176350" lon="9.1603050">
	<ele>72.80</ele>
	<time>2022-05-14T07:14:04.000Z</time>
</trkpt>
<trkpt lat="44.3176720" lon="9.1603410">
	<ele>71.60</ele>
	<time>2022-05-14T07:14:10.000Z</time>
</trkpt>
<trkpt lat="44.3176930" lon="9.1603440">
	<ele>70.60</ele>
	<time>2022-05-14T07:14:16.000Z</time>
</trkpt>
<trkpt lat="44.3176950" lon="9.1603400">
	<ele>70.60</ele>
	<time>2022-05-14T07:14:17.000Z</time>
</trkpt>
<trkpt lat="44.3176870" lon="9.1603230">
	<ele>70.60</ele>
	<time>2022-05-14T07:14:23.000Z</time>
</trkpt>
<trkpt lat="44.3176860" lon="9.1603240">
	<ele>70.80</ele>
	<time>2022-05-14T07:14:32.000Z</time>
</trkpt>
<trkpt lat="44.3176860" lon="9.1603240">
	<ele>70.80</ele>
	<time>2022-05-14T07:14:35.000Z</time>
</trkpt>
<trkpt lat="44.3176860" lon="9.1603240">
	<ele>70.60</ele>
	<time>2022-05-14T07:14:39.000Z</time>
</trkpt>
<trkpt lat="44.3176870" lon="9.1603250">
	<ele>70.00</ele>
	<time>2022-05-14T07:14:44.000Z</time>
</trkpt>
<trkpt lat="44.3177260" lon="9.1603230">
	<ele>69.60</ele>
	<time>2022-05-14T07:14:51.000Z</time>
</trkpt>
<trkpt lat="44.3177450" lon="9.1603250">
	<ele>69.20</ele>
	<time>2022-05-14T07:14:53.000Z</time>
</trkpt>
<trkpt lat="44.3178010" lon="9.1603320">
	<ele>68.60</ele>
	<time>2022-05-14T07:14:59.000Z</time>
</trkpt>
<trkpt lat="44.3178330" lon="9.1603360">
	<ele>68.80</ele>
	<time>2022-05-14T07:15:04.000Z</time>
</trkpt>
<trkpt lat="44.3178190" lon="9.1603210">
	<ele>69.80</ele>
	<time>2022-05-14T07:15:09.000Z</time>
</trkpt>
<trkpt lat="44.3178510" lon="9.1603030">
	<ele>70.20</ele>
	<time>2022-05-14T07:15:13.000Z</time>
</trkpt>
<trkpt lat="44.3178860" lon="9.1602900">
	<ele>70.60</ele>
	<time>2022-05-14T07:15:17.000Z</time>
</trkpt>
<trkpt lat="44.3179080" lon="9.1602810">
	<ele>71.20</ele>
	<time>2022-05-14T07:15:20.000Z</time>
</trkpt>
<trkpt lat="44.3178860" lon="9.1602830">
	<ele>71.20</ele>
	<time>2022-05-14T07:15:25.000Z</time>
</trkpt>
<trkpt lat="44.3178880" lon="9.1602850">
	<ele>71.00</ele>
	<time>2022-05-14T07:15:27.000Z</time>
</trkpt>
<trkpt lat="44.3178810" lon="9.1603130">
	<ele>71.00</ele>
	<time>2022-05-14T07:15:31.000Z</time>
</trkpt>
<trkpt lat="44.3178880" lon="9.1603070">
	<ele>70.80</ele>
	<time>2022-05-14T07:15:35.000Z</time>
</trkpt>
<trkpt lat="44.3178870" lon="9.1603110">
	<ele>70.60</ele>
	<time>2022-05-14T07:15:36.000Z</time>
</trkpt>
<trkpt lat="44.3178740" lon="9.1603410">
	<ele>70.20</ele>
	<time>2022-05-14T07:15:39.000Z</time>
</trkpt>
<trkpt lat="44.3178780" lon="9.1603630">
	<ele>69.80</ele>
	<time>2022-05-14T07:15:41.000Z</time>
</trkpt>
<trkpt lat="44.3178790" lon="9.1603670">
	<ele>69.60</ele>
	<time>2022-05-14T07:15:42.000Z</time>
</trkpt>
<trkpt lat="44.3178800" lon="9.1603700">
	<ele>69.40</ele>
	<time>2022-05-14T07:15:43.000Z</time>
</trkpt>
<trkpt lat="44.3178690" lon="9.1604170">
	<ele>68.40</ele>
	<time>2022-05-14T07:15:48.000Z</time>
</trkpt>
<trkpt lat="44.3178630" lon="9.1604260">
	<ele>68.20</ele>
	<time>2022-05-14T07:15:49.000Z</time>
</trkpt>
<trkpt lat="44.3178340" lon="9.1604560">
	<ele>68.00</ele>
	<time>2022-05-14T07:15:54.000Z</time>
</trkpt>
<trkpt lat="44.3178150" lon="9.1604510">
	<ele>68.20</ele>
	<time>2022-05-14T07:16:00.000Z</time>
</trkpt>
<trkpt lat="44.3178260" lon="9.1604730">
	<ele>68.60</ele>
	<time>2022-05-14T07:16:09.000Z</time>
</trkpt>
<trkpt lat="44.3178640" lon="9.1605140">
	<ele>68.60</ele>
	<time>2022-05-14T07:16:17.000Z</time>
</trkpt>
<trkpt lat="44.3178420" lon="9.1605400">
	<ele>68.20</ele>
	<time>2022-05-14T07:16:22.000Z</time>
</trkpt>
<trkpt lat="44.3178140" lon="9.1606240">
	<ele>68.80</ele>
	<time>2022-05-14T07:16:29.000Z</time>
</trkpt>
<trkpt lat="44.3178060" lon="9.1606440">
	<ele>69.40</ele>
	<time>2022-05-14T07:16:32.000Z</time>
</trkpt>
<trkpt lat="44.3177940" lon="9.1606690">
	<ele>70.00</ele>
	<time>2022-05-14T07:16:36.000Z</time>
</trkpt>
<trkpt lat="44.3177880" lon="9.1606800">
	<ele>70.60</ele>
	<time>2022-05-14T07:16:38.000Z</time>
</trkpt>
<trkpt lat="44.3177970" lon="9.1607060">
	<ele>71.40</ele>
	<time>2022-05-14T07:16:43.000Z</time>
</trkpt>
<trkpt lat="44.3177970" lon="9.1607100">
	<ele>71.60</ele>
	<time>2022-05-14T07:16:44.000Z</time>
</trkpt>
<trkpt lat="44.3177960" lon="9.1607090">
	<ele>72.20</ele>
	<time>2022-05-14T07:16:47.000Z</time>
</trkpt>
<trkpt lat="44.3178030" lon="9.1607130">
	<ele>72.80</ele>
	<time>2022-05-14T07:16:51.000Z</time>
</trkpt>
<trkpt lat="44.3178070" lon="9.1607120">
	<ele>73.40</ele>
	<time>2022-05-14T07:16:53.000Z</time>
</trkpt>
<trkpt lat="44.3178090" lon="9.1607110">
	<ele>73.80</ele>
	<time>2022-05-14T07:16:55.000Z</time>
</trkpt>
<trkpt lat="44.3178090" lon="9.1607110">
	<ele>74.20</ele>
	<time>2022-05-14T07:16:58.000Z</time>
</trkpt>
<trkpt lat="44.3178090" lon="9.1607110">
	<ele>74.80</ele>
	<time>2022-05-14T07:17:03.000Z</time>
</trkpt>
<trkpt lat="44.3178160" lon="9.1607140">
	<ele>75.40</ele>
	<time>2022-05-14T07:17:11.000Z</time>
</trkpt>
<trkpt lat="44.3178170" lon="9.1607150">
	<ele>75.40</ele>
	<time>2022-05-14T07:17:12.000Z</time>
</trkpt>
<trkpt lat="44.3178300" lon="9.1607190">
	<ele>75.40</ele>
	<time>2022-05-14T07:17:17.000Z</time>
</trkpt>
<trkpt lat="44.3178340" lon="9.1607250">
	<ele>75.40</ele>
	<time>2022-05-14T07:17:21.000Z</time>
</trkpt>
<trkpt lat="44.3178690" lon="9.1607370">
	<ele>75.40</ele>
	<time>2022-05-14T07:17:50.000Z</time>
</trkpt>
<trkpt lat="44.3178690" lon="9.1607380">
	<ele>75.40</ele>
	<time>2022-05-14T07:17:53.000Z</time>
</trkpt>
<trkpt lat="44.3178690" lon="9.1607380">
	<ele>75.40</ele>
	<time>2022-05-14T07:17:57.000Z</time>
</trkpt>
<trkpt lat="44.3178660" lon="9.1607380">
	<ele>75.20</ele>
	<time>2022-05-14T07:18:00.000Z</time>
</trkpt>
<trkpt lat="44.3178570" lon="9.1607340">
	<ele>75.20</ele>
	<time>2022-05-14T07:18:05.000Z</time>
</trkpt>
<trkpt lat="44.3178180" lon="9.1607290">
	<ele>75.20</ele>
	<time>2022-05-14T07:18:21.000Z</time>
</trkpt>
<trkpt lat="44.3178120" lon="9.1607320">
	<ele>75.20</ele>
	<time>2022-05-14T07:18:31.000Z</time>
</trkpt>
<trkpt lat="44.3178910" lon="9.1608030">
	<ele>75.00</ele>
	<time>2022-05-14T07:18:54.000Z</time>
</trkpt>
<trkpt lat="44.3179480" lon="9.1608670">
	<ele>75.00</ele>
	<time>2022-05-14T07:19:00.000Z</time>
</trkpt>
<trkpt lat="44.3179570" lon="9.1608710">
	<ele>75.00</ele>
	<time>2022-05-14T07:19:01.000Z</time>
</trkpt>
<trkpt lat="44.3179900" lon="9.1608700">
	<ele>76.00</ele>
	<time>2022-05-14T07:19:06.000Z</time>
</trkpt>
<trkpt lat="44.3180090" lon="9.1608720">
	<ele>76.20</ele>
	<time>2022-05-14T07:19:12.000Z</time>
</trkpt>
<trkpt lat="44.3180310" lon="9.1608690">
	<ele>75.80</ele>
	<time>2022-05-14T07:19:15.000Z</time>
</trkpt>
<trkpt lat="44.3180360" lon="9.1608770">
	<ele>75.60</ele>
	<time>2022-05-14T07:19:17.000Z</time>
</trkpt>
<trkpt lat="44.3180400" lon="9.1608880">
	<ele>75.40</ele>
	<time>2022-05-14T07:19:18.000Z</time>
</trkpt>
<trkpt lat="44.3180450" lon="9.1608940">
	<ele>75.60</ele>
	<time>2022-05-14T07:19:19.000Z</time>
</trkpt>
<trkpt lat="44.3180520" lon="9.1609030">
	<ele>75.60</ele>
	<time>2022-05-14T07:19:20.000Z</time>
</trkpt>
<trkpt lat="44.3180510" lon="9.1609140">
	<ele>75.80</ele>
	<time>2022-05-14T07:19:22.000Z</time>
</trkpt>
<trkpt lat="44.3180510" lon="9.1609250">
	<ele>76.00</ele>
	<time>2022-05-14T07:19:23.000Z</time>
</trkpt>
<trkpt lat="44.3180460" lon="9.1609540">
	<ele>76.20</ele>
	<time>2022-05-14T07:19:25.000Z</time>
</trkpt>
<trkpt lat="44.3180520" lon="9.1609720">
	<ele>76.60</ele>
	<time>2022-05-14T07:19:28.000Z</time>
</trkpt>
<trkpt lat="44.3180510" lon="9.1610010">
	<ele>76.60</ele>
	<time>2022-05-14T07:19:31.000Z</time>
</trkpt>
<trkpt lat="44.3180500" lon="9.1610080">
	<ele>76.40</ele>
	<time>2022-05-14T07:19:32.000Z</time>
</trkpt>
<trkpt lat="44.3180320" lon="9.1610970">
	<ele>75.60</ele>
	<time>2022-05-14T07:19:38.000Z</time>
</trkpt>
<trkpt lat="44.3180270" lon="9.1611230">
	<ele>75.40</ele>
	<time>2022-05-14T07:19:41.000Z</time>
</trkpt>
<trkpt lat="44.3180190" lon="9.1611390">
	<ele>75.20</ele>
	<time>2022-05-14T07:19:44.000Z</time>
</trkpt>
<trkpt lat="44.3180230" lon="9.1611670">
	<ele>75.00</ele>
	<time>2022-05-14T07:19:46.000Z</time>
</trkpt>
<trkpt lat="44.3180360" lon="9.1612170">
	<ele>75.20</ele>
	<time>2022-05-14T07:19:50.000Z</time>
</trkpt>
<trkpt lat="44.3180410" lon="9.1612350">
	<ele>76.00</ele>
	<time>2022-05-14T07:19:52.000Z</time>
</trkpt>
<trkpt lat="44.3180430" lon="9.1612410">
	<ele>76.00</ele>
	<time>2022-05-14T07:19:53.000Z</time>
</trkpt>
<trkpt lat="44.3180370" lon="9.1612580">
	<ele>76.20</ele>
	<time>2022-05-14T07:19:55.000Z</time>
</trkpt>
<trkpt lat="44.3180330" lon="9.1612650">
	<ele>76.40</ele>
	<time>2022-05-14T07:19:56.000Z</time>
</trkpt>
<trkpt lat="44.3180210" lon="9.1613030">
	<ele>76.00</ele>
	<time>2022-05-14T07:20:01.000Z</time>
</trkpt>
<trkpt lat="44.3180170" lon="9.1613110">
	<ele>75.80</ele>
	<time>2022-05-14T07:20:03.000Z</time>
</trkpt>
<trkpt lat="44.3180000" lon="9.1613230">
	<ele>75.40</ele>
	<time>2022-05-14T07:20:05.000Z</time>
</trkpt>
<trkpt lat="44.3179830" lon="9.1613780">
	<ele>75.20</ele>
	<time>2022-05-14T07:20:09.000Z</time>
</trkpt>
<trkpt lat="44.3179810" lon="9.1613920">
	<ele>75.40</ele>
	<time>2022-05-14T07:20:10.000Z</time>
</trkpt>
<trkpt lat="44.3179610" lon="9.1614780">
	<ele>76.20</ele>
	<time>2022-05-14T07:20:16.000Z</time>
</trkpt>
<trkpt lat="44.3179540" lon="9.1614900">
	<ele>76.40</ele>
	<time>2022-05-14T07:20:18.000Z</time>
</trkpt>
<trkpt lat="44.3179390" lon="9.1615670">
	<ele>76.20</ele>
	<time>2022-05-14T07:20:25.000Z</time>
</trkpt>
<trkpt lat="44.3179350" lon="9.1616310">
	<ele>76.40</ele>
	<time>2022-05-14T07:20:30.000Z</time>
</trkpt>
<trkpt lat="44.3179300" lon="9.1616570">
	<ele>76.00</ele>
	<time>2022-05-14T07:20:32.000Z</time>
</trkpt>
<trkpt lat="44.3179340" lon="9.1617380">
	<ele>75.40</ele>
	<time>2022-05-14T07:20:40.000Z</time>
</trkpt>
<trkpt lat="44.3179390" lon="9.1617440">
	<ele>75.80</ele>
	<time>2022-05-14T07:20:42.000Z</time>
</trkpt>
<trkpt lat="44.3179400" lon="9.1617520">
	<ele>76.20</ele>
	<time>2022-05-14T07:20:44.000Z</time>
</trkpt>
<trkpt lat="44.3179400" lon="9.1617860">
	<ele>77.00</ele>
	<time>2022-05-14T07:20:51.000Z</time>
</trkpt>
<trkpt lat="44.3179380" lon="9.1617910">
	<ele>77.20</ele>
	<time>2022-05-14T07:20:52.000Z</time>
</trkpt>
<trkpt lat="44.3179290" lon="9.1618220">
	<ele>77.60</ele>
	<time>2022-05-14T07:20:58.000Z</time>
</trkpt>
<trkpt lat="44.3178900" lon="9.1618620">
	<ele>77.80</ele>
	<time>2022-05-14T07:21:04.000Z</time>
</trkpt>
<trkpt lat="44.3178650" lon="9.1618890">
	<ele>77.40</ele>
	<time>2022-05-14T07:21:10.000Z</time>
</trkpt>
<trkpt lat="44.3178570" lon="9.1619090">
	<ele>77.00</ele>
	<time>2022-05-14T07:21:13.000Z</time>
</trkpt>
<trkpt lat="44.3178500" lon="9.1619140">
	<ele>76.80</ele>
	<time>2022-05-14T07:21:14.000Z</time>
</trkpt>
<trkpt lat="44.3178380" lon="9.1619290">
	<ele>76.60</ele>
	<time>2022-05-14T07:21:16.000Z</time>
</trkpt>
<trkpt lat="44.3178230" lon="9.1619890">
	<ele>76.20</ele>
	<time>2022-05-14T07:21:22.000Z</time>
</trkpt>
<trkpt lat="44.3178310" lon="9.1620810">
	<ele>76.80</ele>
	<time>2022-05-14T07:21:29.000Z</time>
</trkpt>
<trkpt lat="44.3178350" lon="9.1621630">
	<ele>77.40</ele>
	<time>2022-05-14T07:21:36.000Z</time>
</trkpt>
<trkpt lat="44.3178340" lon="9.1621860">
	<ele>77.20</ele>
	<time>2022-05-14T07:21:38.000Z</time>
</trkpt>
<trkpt lat="44.3178410" lon="9.1622200">
	<ele>77.40</ele>
	<time>2022-05-14T07:21:42.000Z</time>
</trkpt>
<trkpt lat="44.3178430" lon="9.1622680">
	<ele>77.80</ele>
	<time>2022-05-14T07:21:48.000Z</time>
</trkpt>
<trkpt lat="44.3178390" lon="9.1622820">
	<ele>77.80</ele>
	<time>2022-05-14T07:21:51.000Z</time>
</trkpt>
<trkpt lat="44.3178380" lon="9.1622870">
	<ele>77.60</ele>
	<time>2022-05-14T07:21:52.000Z</time>
</trkpt>
<trkpt lat="44.3178380" lon="9.1622930">
	<ele>77.20</ele>
	<time>2022-05-14T07:21:54.000Z</time>
</trkpt>
<trkpt lat="44.3178360" lon="9.1623150">
	<ele>77.00</ele>
	<time>2022-05-14T07:21:58.000Z</time>
</trkpt>
<trkpt lat="44.3178370" lon="9.1623180">
	<ele>76.60</ele>
	<time>2022-05-14T07:22:05.000Z</time>
</trkpt>
<trkpt lat="44.3178660" lon="9.1623210">
	<ele>76.60</ele>
	<time>2022-05-14T07:22:13.000Z</time>
</trkpt>
<trkpt lat="44.3179100" lon="9.1623380">
	<ele>76.60</ele>
	<time>2022-05-14T07:22:21.000Z</time>
</trkpt>
<trkpt lat="44.3179170" lon="9.1623260">
	<ele>76.60</ele>
	<time>2022-05-14T07:22:24.000Z</time>
</trkpt>
<trkpt lat="44.3179210" lon="9.1623310">
	<ele>76.60</ele>
	<time>2022-05-14T07:22:32.000Z</time>
</trkpt>
<trkpt lat="44.3179160" lon="9.1623330">
	<ele>76.60</ele>
	<time>2022-05-14T07:22:39.000Z</time>
</trkpt>
<trkpt lat="44.3179460" lon="9.1623660">
	<ele>76.60</ele>
	<time>2022-05-14T07:22:58.000Z</time>
</trkpt>
<trkpt lat="44.3179550" lon="9.1623660">
	<ele>76.60</ele>
	<time>2022-05-14T07:22:59.000Z</time>
</trkpt>
<trkpt lat="44.3179850" lon="9.1623730">
	<ele>76.60</ele>
	<time>2022-05-14T07:23:02.000Z</time>
</trkpt>
<trkpt lat="44.3179990" lon="9.1623800">
	<ele>76.60</ele>
	<time>2022-05-14T07:23:04.000Z</time>
</trkpt>
<trkpt lat="44.3180140" lon="9.1623880">
	<ele>76.60</ele>
	<time>2022-05-14T07:23:06.000Z</time>
</trkpt>
<trkpt lat="44.3180270" lon="9.1623930">
	<ele>76.60</ele>
	<time>2022-05-14T07:23:08.000Z</time>
</trkpt>
<trkpt lat="44.3180970" lon="9.1623810">
	<ele>76.60</ele>
	<time>2022-05-14T07:23:16.000Z</time>
</trkpt>
<trkpt lat="44.3181670" lon="9.1623360">
	<ele>76.60</ele>
	<time>2022-05-14T07:23:23.000Z</time>
</trkpt>
<trkpt lat="44.3182190" lon="9.1623000">
	<ele>77.00</ele>
	<time>2022-05-14T07:23:28.000Z</time>
</trkpt>
<trkpt lat="44.3182480" lon="9.1622940">
	<ele>77.20</ele>
	<time>2022-05-14T07:23:31.000Z</time>
</trkpt>
<trkpt lat="44.3182720" lon="9.1623080">
	<ele>77.40</ele>
	<time>2022-05-14T07:23:34.000Z</time>
</trkpt>
<trkpt lat="44.3183390" lon="9.1623290">
	<ele>78.20</ele>
	<time>2022-05-14T07:23:42.000Z</time>
</trkpt>
<trkpt lat="44.3183510" lon="9.1623240">
	<ele>78.20</ele>
	<time>2022-05-14T07:23:43.000Z</time>
</trkpt>
<trkpt lat="44.3183590" lon="9.1623170">
	<ele>78.40</ele>
	<time>2022-05-14T07:23:44.000Z</time>
</trkpt>
<trkpt lat="44.3183720" lon="9.1623150">
	<ele>78.40</ele>
	<time>2022-05-14T07:23:46.000Z</time>
</trkpt>
<trkpt lat="44.3184020" lon="9.1623060">
	<ele>78.40</ele>
	<time>2022-05-14T07:23:49.000Z</time>
</trkpt>
<trkpt lat="44.3184510" lon="9.1623110">
	<ele>78.20</ele>
	<time>2022-05-14T07:23:56.000Z</time>
</trkpt>
<trkpt lat="44.3184660" lon="9.1623210">
	<ele>78.40</ele>
	<time>2022-05-14T07:24:00.000Z</time>
</trkpt>
<trkpt lat="44.3184800" lon="9.1623460">
	<ele>77.60</ele>
	<time>2022-05-14T07:24:04.000Z</time>
</trkpt>
<trkpt lat="44.3185090" lon="9.1623590">
	<ele>76.60</ele>
	<time>2022-05-14T07:24:07.000Z</time>
</trkpt>
<trkpt lat="44.3185200" lon="9.1623610">
	<ele>76.40</ele>
	<time>2022-05-14T07:24:08.000Z</time>
</trkpt>
<trkpt lat="44.3185380" lon="9.1623700">
	<ele>76.00</ele>
	<time>2022-05-14T07:24:10.000Z</time>
</trkpt>
<trkpt lat="44.3185450" lon="9.1624150">
	<ele>75.80</ele>
	<time>2022-05-14T07:24:14.000Z</time>
</trkpt>
<trkpt lat="44.3185480" lon="9.1624300">
	<ele>75.80</ele>
	<time>2022-05-14T07:24:15.000Z</time>
</trkpt>
<trkpt lat="44.3185790" lon="9.1624820">
	<ele>75.80</ele>
	<time>2022-05-14T07:24:19.000Z</time>
</trkpt>
<trkpt lat="44.3185900" lon="9.1625020">
	<ele>76.20</ele>
	<time>2022-05-14T07:24:21.000Z</time>
</trkpt>
<trkpt lat="44.3186210" lon="9.1625380">
	<ele>76.60</ele>
	<time>2022-05-14T07:24:25.000Z</time>
</trkpt>
<trkpt lat="44.3186610" lon="9.1625880">
	<ele>76.40</ele>
	<time>2022-05-14T07:24:29.000Z</time>
</trkpt>
<trkpt lat="44.3186750" lon="9.1625940">
	<ele>76.40</ele>
	<time>2022-05-14T07:24:30.000Z</time>
</trkpt>
<trkpt lat="44.3187290" lon="9.1626280">
	<ele>76.80</ele>
	<time>2022-05-14T07:24:36.000Z</time>
</trkpt>
<trkpt lat="44.3187260" lon="9.1626750">
	<ele>76.80</ele>
	<time>2022-05-14T07:24:40.000Z</time>
</trkpt>
<trkpt lat="44.3187240" lon="9.1626990">
	<ele>76.80</ele>
	<time>2022-05-14T07:24:41.000Z</time>
</trkpt>
<trkpt lat="44.3187180" lon="9.1627240">
	<ele>76.60</ele>
	<time>2022-05-14T07:24:42.000Z</time>
</trkpt>
<trkpt lat="44.3187120" lon="9.1627990">
	<ele>76.40</ele>
	<time>2022-05-14T07:24:46.000Z</time>
</trkpt>
<trkpt lat="44.3187180" lon="9.1628210">
	<ele>76.40</ele>
	<time>2022-05-14T07:24:48.000Z</time>
</trkpt>
<trkpt lat="44.3187260" lon="9.1628650">
	<ele>76.80</ele>
	<time>2022-05-14T07:24:53.000Z</time>
</trkpt>
<trkpt lat="44.3187260" lon="9.1628680">
	<ele>76.80</ele>
	<time>2022-05-14T07:24:54.000Z</time>
</trkpt>
<trkpt lat="44.3187260" lon="9.1628710">
	<ele>77.00</ele>
	<time>2022-05-14T07:24:56.000Z</time>
</trkpt>
<trkpt lat="44.3187270" lon="9.1629000">
	<ele>76.80</ele>
	<time>2022-05-14T07:24:59.000Z</time>
</trkpt>
<trkpt lat="44.3187280" lon="9.1629130">
	<ele>76.80</ele>
	<time>2022-05-14T07:25:00.000Z</time>
</trkpt>
<trkpt lat="44.3187380" lon="9.1629500">
	<ele>77.20</ele>
	<time>2022-05-14T07:25:04.000Z</time>
</trkpt>
<trkpt lat="44.3187370" lon="9.1629550">
	<ele>77.40</ele>
	<time>2022-05-14T07:25:06.000Z</time>
</trkpt>
<trkpt lat="44.3187330" lon="9.1629600">
	<ele>78.00</ele>
	<time>2022-05-14T07:25:08.000Z</time>
</trkpt>
<trkpt lat="44.3187240" lon="9.1629760">
	<ele>79.00</ele>
	<time>2022-05-14T07:25:12.000Z</time>
</trkpt>
<trkpt lat="44.3187250" lon="9.1629930">
	<ele>79.40</ele>
	<time>2022-05-14T07:25:13.000Z</time>
</trkpt>
<trkpt lat="44.3187320" lon="9.1630400">
	<ele>80.20</ele>
	<time>2022-05-14T07:25:18.000Z</time>
</trkpt>
<trkpt lat="44.3187390" lon="9.1630500">
	<ele>80.40</ele>
	<time>2022-05-14T07:25:20.000Z</time>
</trkpt>
<trkpt lat="44.3187440" lon="9.1630840">
	<ele>81.20</ele>
	<time>2022-05-14T07:25:23.000Z</time>
</trkpt>
<trkpt lat="44.3187460" lon="9.1630940">
	<ele>81.40</ele>
	<time>2022-05-14T07:25:24.000Z</time>
</trkpt>
<trkpt lat="44.3187420" lon="9.1630990">
	<ele>81.80</ele>
	<time>2022-05-14T07:25:26.000Z</time>
</trkpt>
<trkpt lat="44.3187400" lon="9.1631000">
	<ele>82.40</ele>
	<time>2022-05-14T07:25:32.000Z</time>
</trkpt>
<trkpt lat="44.3187420" lon="9.1631040">
	<ele>82.40</ele>
	<time>2022-05-14T07:25:36.000Z</time>
</trkpt>
<trkpt lat="44.3187420" lon="9.1631040">
	<ele>82.60</ele>
	<time>2022-05-14T07:25:42.000Z</time>
</trkpt>
<trkpt lat="44.3187310" lon="9.1630910">
	<ele>81.80</ele>
	<time>2022-05-14T07:26:16.000Z</time>
</trkpt>
<trkpt lat="44.3187300" lon="9.1630650">
	<ele>81.60</ele>
	<time>2022-05-14T07:26:27.000Z</time>
</trkpt>
<trkpt lat="44.3187300" lon="9.1630610">
	<ele>81.60</ele>
	<time>2022-05-14T07:26:29.000Z</time>
</trkpt>
<trkpt lat="44.3187330" lon="9.1630600">
	<ele>82.00</ele>
	<time>2022-05-14T07:26:31.000Z</time>
</trkpt>
<trkpt lat="44.3187380" lon="9.1630600">
	<ele>82.00</ele>
	<time>2022-05-14T07:26:42.000Z</time>
</trkpt>
<trkpt lat="44.3187430" lon="9.1630750">
	<ele>82.20</ele>
	<time>2022-05-14T07:26:55.000Z</time>
</trkpt>
<trkpt lat="44.3187430" lon="9.1630750">
	<ele>82.20</ele>
	<time>2022-05-14T07:26:57.000Z</time>
</trkpt>
<trkpt lat="44.3187460" lon="9.1630750">
	<ele>82.20</ele>
	<time>2022-05-14T07:26:59.000Z</time>
</trkpt>
<trkpt lat="44.3187630" lon="9.1630710">
	<ele>82.20</ele>
	<time>2022-05-14T07:27:12.000Z</time>
</trkpt>
<trkpt lat="44.3187640" lon="9.1630710">
	<ele>82.20</ele>
	<time>2022-05-14T07:27:15.000Z</time>
</trkpt>
<trkpt lat="44.3187770" lon="9.1630700">
	<ele>82.20</ele>
	<time>2022-05-14T07:27:29.000Z</time>
</trkpt>
<trkpt lat="44.3187510" lon="9.1630830">
	<ele>82.20</ele>
	<time>2022-05-14T07:27:54.000Z</time>
</trkpt>
<trkpt lat="44.3187760" lon="9.1631700">
	<ele>82.20</ele>
	<time>2022-05-14T07:28:02.000Z</time>
</trkpt>
<trkpt lat="44.3187890" lon="9.1632490">
	<ele>82.20</ele>
	<time>2022-05-14T07:28:09.000Z</time>
</trkpt>
<trkpt lat="44.3187850" lon="9.1632960">
	<ele>82.20</ele>
	<time>2022-05-14T07:28:13.000Z</time>
</trkpt>
<trkpt lat="44.3187890" lon="9.1633280">
	<ele>82.20</ele>
	<time>2022-05-14T07:28:16.000Z</time>
</trkpt>
<trkpt lat="44.3188050" lon="9.1633540">
	<ele>82.20</ele>
	<time>2022-05-14T07:28:21.000Z</time>
</trkpt>
<trkpt lat="44.3188080" lon="9.1633620">
	<ele>82.20</ele>
	<time>2022-05-14T07:28:22.000Z</time>
</trkpt>
<trkpt lat="44.3188150" lon="9.1634060">
	<ele>82.20</ele>
	<time>2022-05-14T07:28:26.000Z</time>
</trkpt>
<trkpt lat="44.3188200" lon="9.1634560">
	<ele>85.00</ele>
	<time>2022-05-14T07:28:31.000Z</time>
</trkpt>
<trkpt lat="44.3188190" lon="9.1634640">
	<ele>86.40</ele>
	<time>2022-05-14T07:28:32.000Z</time>
</trkpt>
<trkpt lat="44.3188210" lon="9.1634730">
	<ele>87.00</ele>
	<time>2022-05-14T07:28:33.000Z</time>
</trkpt>
<trkpt lat="44.3188220" lon="9.1634810">
	<ele>87.40</ele>
	<time>2022-05-14T07:28:34.000Z</time>
</trkpt>
<trkpt lat="44.3188270" lon="9.1634910">
	<ele>87.60</ele>
	<time>2022-05-14T07:28:36.000Z</time>
</trkpt>
<trkpt lat="44.3188290" lon="9.1634960">
	<ele>87.60</ele>
	<time>2022-05-14T07:28:37.000Z</time>
</trkpt>
<trkpt lat="44.3188330" lon="9.1635070">
	<ele>87.20</ele>
	<time>2022-05-14T07:28:39.000Z</time>
</trkpt>
<trkpt lat="44.3188290" lon="9.1635100">
	<ele>87.00</ele>
	<time>2022-05-14T07:28:42.000Z</time>
</trkpt>
<trkpt lat="44.3188360" lon="9.1635310">
	<ele>86.60</ele>
	<time>2022-05-14T07:28:49.000Z</time>
</trkpt>
<trkpt lat="44.3188450" lon="9.1635370">
	<ele>86.20</ele>
	<time>2022-05-14T07:28:53.000Z</time>
</trkpt>
<trkpt lat="44.3188490" lon="9.1635330">
	<ele>85.20</ele>
	<time>2022-05-14T07:28:59.000Z</time>
</trkpt>
<trkpt lat="44.3188490" lon="9.1635330">
	<ele>85.20</ele>
	<time>2022-05-14T07:29:00.000Z</time>
</trkpt>
<trkpt lat="44.3188490" lon="9.1635340">
	<ele>84.60</ele>
	<time>2022-05-14T07:29:06.000Z</time>
</trkpt>
<trkpt lat="44.3188490" lon="9.1635350">
	<ele>84.20</ele>
	<time>2022-05-14T07:29:08.000Z</time>
</trkpt>
<trkpt lat="44.3188520" lon="9.1635650">
	<ele>83.20</ele>
	<time>2022-05-14T07:29:27.000Z</time>
</trkpt>
<trkpt lat="44.3188610" lon="9.1636090">
	<ele>82.00</ele>
	<time>2022-05-14T07:29:30.000Z</time>
</trkpt>
<trkpt lat="44.3188850" lon="9.1636250">
	<ele>81.00</ele>
	<time>2022-05-14T07:29:37.000Z</time>
</trkpt>
<trkpt lat="44.3188910" lon="9.1636250">
	<ele>80.80</ele>
	<time>2022-05-14T07:29:38.000Z</time>
</trkpt>
<trkpt lat="44.3189060" lon="9.1636350">
	<ele>80.40</ele>
	<time>2022-05-14T07:29:44.000Z</time>
</trkpt>
<trkpt lat="44.3189160" lon="9.1636300">
	<ele>79.60</ele>
	<time>2022-05-14T07:29:47.000Z</time>
</trkpt>
<trkpt lat="44.3189250" lon="9.1636340">
	<ele>79.20</ele>
	<time>2022-05-14T07:29:49.000Z</time>
</trkpt>
<trkpt lat="44.3189440" lon="9.1636340">
	<ele>78.40</ele>
	<time>2022-05-14T07:29:53.000Z</time>
</trkpt>
<trkpt lat="44.3189510" lon="9.1636300">
	<ele>78.00</ele>
	<time>2022-05-14T07:29:57.000Z</time>
</trkpt>
<trkpt lat="44.3189390" lon="9.1636470">
	<ele>77.40</ele>
	<time>2022-05-14T07:30:01.000Z</time>
</trkpt>
<trkpt lat="44.3189400" lon="9.1636530">
	<ele>77.00</ele>
	<time>2022-05-14T07:30:03.000Z</time>
</trkpt>
<trkpt lat="44.3189360" lon="9.1636750">
	<ele>76.20</ele>
	<time>2022-05-14T07:30:06.000Z</time>
</trkpt>
<trkpt lat="44.3189280" lon="9.1636890">
	<ele>75.80</ele>
	<time>2022-05-14T07:30:09.000Z</time>
</trkpt>
<trkpt lat="44.3189330" lon="9.1637110">
	<ele>75.00</ele>
	<time>2022-05-14T07:30:11.000Z</time>
</trkpt>
<trkpt lat="44.3189640" lon="9.1637130">
	<ele>74.40</ele>
	<time>2022-05-14T07:30:16.000Z</time>
</trkpt>
<trkpt lat="44.3189700" lon="9.1637210">
	<ele>74.00</ele>
	<time>2022-05-14T07:30:18.000Z</time>
</trkpt>
<trkpt lat="44.3189990" lon="9.1637270">
	<ele>73.00</ele>
	<time>2022-05-14T07:30:22.000Z</time>
</trkpt>
<trkpt lat="44.3190030" lon="9.1637300">
	<ele>72.60</ele>
	<time>2022-05-14T07:30:23.000Z</time>
</trkpt>
<trkpt lat="44.3189840" lon="9.1637380">
	<ele>72.00</ele>
	<time>2022-05-14T07:30:27.000Z</time>
</trkpt>
<trkpt lat="44.3189780" lon="9.1637460">
	<ele>71.60</ele>
	<time>2022-05-14T07:30:29.000Z</time>
</trkpt>
<trkpt lat="44.3189720" lon="9.1637940">
	<ele>70.60</ele>
	<time>2022-05-14T07:30:33.000Z</time>
</trkpt>
<trkpt lat="44.3189740" lon="9.1638020">
	<ele>70.40</ele>
	<time>2022-05-14T07:30:34.000Z</time>
</trkpt>
<trkpt lat="44.3189820" lon="9.1638250">
	<ele>69.20</ele>
	<time>2022-05-14T07:30:39.000Z</time>
</trkpt>
<trkpt lat="44.3190010" lon="9.1638560">
	<ele>67.80</ele>
	<time>2022-05-14T07:30:45.000Z</time>
</trkpt>
<trkpt lat="44.3190230" lon="9.1638590">
	<ele>67.20</ele>
	<time>2022-05-14T07:30:47.000Z</time>
</trkpt>
<trkpt lat="44.3190310" lon="9.1638710">
	<ele>67.00</ele>
	<time>2022-05-14T07:30:48.000Z</time>
</trkpt>
<trkpt lat="44.3190380" lon="9.1638920">
	<ele>66.80</ele>
	<time>2022-05-14T07:30:50.000Z</time>
</trkpt>
<trkpt lat="44.3190400" lon="9.1639120">
	<ele>66.80</ele>
	<time>2022-05-14T07:30:52.000Z</time>
</trkpt>
<trkpt lat="44.3190590" lon="9.1639440">
	<ele>66.40</ele>
	<time>2022-05-14T07:30:55.000Z</time>
</trkpt>
<trkpt lat="44.3190750" lon="9.1639620">
	<ele>66.40</ele>
	<time>2022-05-14T07:30:57.000Z</time>
</trkpt>
<trkpt lat="44.3190840" lon="9.1639830">
	<ele>66.20</ele>
	<time>2022-05-14T07:30:59.000Z</time>
</trkpt>
<trkpt lat="44.3191160" lon="9.1640100">
	<ele>66.00</ele>
	<time>2022-05-14T07:31:02.000Z</time>
</trkpt>
<trkpt lat="44.3191280" lon="9.1640460">
	<ele>65.80</ele>
	<time>2022-05-14T07:31:04.000Z</time>
</trkpt>
<trkpt lat="44.3191410" lon="9.1640610">
	<ele>65.60</ele>
	<time>2022-05-14T07:31:05.000Z</time>
</trkpt>
<trkpt lat="44.3191550" lon="9.1640750">
	<ele>65.60</ele>
	<time>2022-05-14T07:31:06.000Z</time>
</trkpt>
<trkpt lat="44.3191650" lon="9.1640890">
	<ele>65.40</ele>
	<time>2022-05-14T07:31:07.000Z</time>
</trkpt>
<trkpt lat="44.3191920" lon="9.1641720">
	<ele>64.80</ele>
	<time>2022-05-14T07:31:13.000Z</time>
</trkpt>
<trkpt lat="44.3192010" lon="9.1642850">
	<ele>63.80</ele>
	<time>2022-05-14T07:31:21.000Z</time>
</trkpt>
<trkpt lat="44.3192070" lon="9.1642970">
	<ele>63.60</ele>
	<time>2022-05-14T07:31:22.000Z</time>
</trkpt>
<trkpt lat="44.3192170" lon="9.1643140">
	<ele>63.00</ele>
	<time>2022-05-14T07:31:25.000Z</time>
</trkpt>
<trkpt lat="44.3192200" lon="9.1643210">
	<ele>62.80</ele>
	<time>2022-05-14T07:31:26.000Z</time>
</trkpt>
<trkpt lat="44.3192200" lon="9.1643270">
	<ele>62.40</ele>
	<time>2022-05-14T07:31:27.000Z</time>
</trkpt>
<trkpt lat="44.3192140" lon="9.1643610">
	<ele>61.80</ele>
	<time>2022-05-14T07:31:31.000Z</time>
</trkpt>
<trkpt lat="44.3192140" lon="9.1643680">
	<ele>61.80</ele>
	<time>2022-05-14T07:31:32.000Z</time>
</trkpt>
<trkpt lat="44.3192140" lon="9.1643700">
	<ele>61.20</ele>
	<time>2022-05-14T07:31:33.000Z</time>
</trkpt>
<trkpt lat="44.3192150" lon="9.1643700">
	<ele>61.00</ele>
	<time>2022-05-14T07:31:34.000Z</time>
</trkpt>
<trkpt lat="44.3192230" lon="9.1643780">
	<ele>60.60</ele>
	<time>2022-05-14T07:31:37.000Z</time>
</trkpt>
<trkpt lat="44.3192250" lon="9.1643890">
	<ele>60.20</ele>
	<time>2022-05-14T07:31:40.000Z</time>
</trkpt>
<trkpt lat="44.3192290" lon="9.1643980">
	<ele>60.00</ele>
	<time>2022-05-14T07:31:41.000Z</time>
</trkpt>
<trkpt lat="44.3192390" lon="9.1644170">
	<ele>59.00</ele>
	<time>2022-05-14T07:31:43.000Z</time>
</trkpt>
<trkpt lat="44.3192650" lon="9.1644580">
	<ele>58.20</ele>
	<time>2022-05-14T07:31:48.000Z</time>
</trkpt>
<trkpt lat="44.3192680" lon="9.1644610">
	<ele>58.00</ele>
	<time>2022-05-14T07:31:49.000Z</time>
</trkpt>
<trkpt lat="44.3192580" lon="9.1644890">
	<ele>56.60</ele>
	<time>2022-05-14T07:31:54.000Z</time>
</trkpt>
<trkpt lat="44.3192570" lon="9.1645110">
	<ele>56.40</ele>
	<time>2022-05-14T07:31:55.000Z</time>
</trkpt>
<trkpt lat="44.3192760" lon="9.1645780">
	<ele>55.80</ele>
	<time>2022-05-14T07:31:58.000Z</time>
</trkpt>
<trkpt lat="44.3192820" lon="9.1646070">
	<ele>55.80</ele>
	<time>2022-05-14T07:32:00.000Z</time>
</trkpt>
<trkpt lat="44.3192930" lon="9.1646660">
	<ele>56.20</ele>
	<time>2022-05-14T07:32:07.000Z</time>
</trkpt>
<trkpt lat="44.3192840" lon="9.1646800">
	<ele>55.80</ele>
	<time>2022-05-14T07:32:10.000Z</time>
</trkpt>
<trkpt lat="44.3192830" lon="9.1646800">
	<ele>55.60</ele>
	<time>2022-05-14T07:32:11.000Z</time>
</trkpt>
<trkpt lat="44.3192710" lon="9.1646770">
	<ele>55.60</ele>
	<time>2022-05-14T07:32:13.000Z</time>
</trkpt>
<trkpt lat="44.3192590" lon="9.1646840">
	<ele>55.20</ele>
	<time>2022-05-14T07:32:19.000Z</time>
</trkpt>
<trkpt lat="44.3192350" lon="9.1646810">
	<ele>54.60</ele>
	<time>2022-05-14T07:32:23.000Z</time>
</trkpt>
<trkpt lat="44.3191950" lon="9.1646940">
	<ele>53.80</ele>
	<time>2022-05-14T07:32:28.000Z</time>
</trkpt>
<trkpt lat="44.3191810" lon="9.1647170">
	<ele>53.60</ele>
	<time>2022-05-14T07:32:31.000Z</time>
</trkpt>
<trkpt lat="44.3191660" lon="9.1647330">
	<ele>53.40</ele>
	<time>2022-05-14T07:32:34.000Z</time>
</trkpt>
<trkpt lat="44.3191340" lon="9.1647720">
	<ele>54.00</ele>
	<time>2022-05-14T07:32:39.000Z</time>
</trkpt>
<trkpt lat="44.3191290" lon="9.1647750">
	<ele>54.00</ele>
	<time>2022-05-14T07:32:40.000Z</time>
</trkpt>
<trkpt lat="44.3191060" lon="9.1647830">
	<ele>53.60</ele>
	<time>2022-05-14T07:32:45.000Z</time>
</trkpt>
<trkpt lat="44.3190840" lon="9.1647790">
	<ele>53.40</ele>
	<time>2022-05-14T07:32:47.000Z</time>
</trkpt>
<trkpt lat="44.3190770" lon="9.1647800">
	<ele>53.20</ele>
	<time>2022-05-14T07:32:48.000Z</time>
</trkpt>
<trkpt lat="44.3190450" lon="9.1647960">
	<ele>52.40</ele>
	<time>2022-05-14T07:32:52.000Z</time>
</trkpt>
<trkpt lat="44.3190320" lon="9.1648150">
	<ele>52.20</ele>
	<time>2022-05-14T07:32:54.000Z</time>
</trkpt>
<trkpt lat="44.3189900" lon="9.1648530">
	<ele>52.00</ele>
	<time>2022-05-14T07:32:59.000Z</time>
</trkpt>
<trkpt lat="44.3189740" lon="9.1648720">
	<ele>51.80</ele>
	<time>2022-05-14T07:33:01.000Z</time>
</trkpt>
<trkpt lat="44.3189640" lon="9.1649040">
	<ele>51.80</ele>
	<time>2022-05-14T07:33:03.000Z</time>
</trkpt>
<trkpt lat="44.3189750" lon="9.1649350">
	<ele>52.20</ele>
	<time>2022-05-14T07:33:07.000Z</time>
</trkpt>
<trkpt lat="44.3189820" lon="9.1649570">
	<ele>52.40</ele>
	<time>2022-05-14T07:33:10.000Z</time>
</trkpt>
<trkpt lat="44.3189890" lon="9.1649600">
	<ele>53.20</ele>
	<time>2022-05-14T07:33:13.000Z</time>
</trkpt>
<trkpt lat="44.3189970" lon="9.1649630">
	<ele>53.60</ele>
	<time>2022-05-14T07:33:14.000Z</time>
</trkpt>
<trkpt lat="44.3190040" lon="9.1649690">
	<ele>54.00</ele>
	<time>2022-05-14T07:33:16.000Z</time>
</trkpt>
<trkpt lat="44.3190090" lon="9.1649740">
	<ele>54.20</ele>
	<time>2022-05-14T07:33:17.000Z</time>
</trkpt>
<trkpt lat="44.3190200" lon="9.1649800">
	<ele>54.80</ele>
	<time>2022-05-14T07:33:19.000Z</time>
</trkpt>
<trkpt lat="44.3190220" lon="9.1649890">
	<ele>55.20</ele>
	<time>2022-05-14T07:33:21.000Z</time>
</trkpt>
<trkpt lat="44.3190280" lon="9.1649930">
	<ele>56.00</ele>
	<time>2022-05-14T07:33:23.000Z</time>
</trkpt>
<trkpt lat="44.3190290" lon="9.1649940">
	<ele>56.20</ele>
	<time>2022-05-14T07:33:24.000Z</time>
</trkpt>
<trkpt lat="44.3190300" lon="9.1650000">
	<ele>56.20</ele>
	<time>2022-05-14T07:33:25.000Z</time>
</trkpt>
<trkpt lat="44.3190250" lon="9.1650140">
	<ele>56.40</ele>
	<time>2022-05-14T07:33:27.000Z</time>
</trkpt>
<trkpt lat="44.3190220" lon="9.1650310">
	<ele>56.60</ele>
	<time>2022-05-14T07:33:29.000Z</time>
</trkpt>
<trkpt lat="44.3190260" lon="9.1650490">
	<ele>56.80</ele>
	<time>2022-05-14T07:33:31.000Z</time>
</trkpt>
<trkpt lat="44.3190280" lon="9.1650550">
	<ele>57.00</ele>
	<time>2022-05-14T07:33:32.000Z</time>
</trkpt>
<trkpt lat="44.3190270" lon="9.1650590">
	<ele>57.20</ele>
	<time>2022-05-14T07:33:34.000Z</time>
</trkpt>
<trkpt lat="44.3190310" lon="9.1650600">
	<ele>57.40</ele>
	<time>2022-05-14T07:33:39.000Z</time>
</trkpt>
<trkpt lat="44.3190250" lon="9.1650630">
	<ele>57.40</ele>
	<time>2022-05-14T07:34:12.000Z</time>
</trkpt>
<trkpt lat="44.3190250" lon="9.1650640">
	<ele>57.60</ele>
	<time>2022-05-14T07:34:19.000Z</time>
</trkpt>
<trkpt lat="44.3190250" lon="9.1650670">
	<ele>57.40</ele>
	<time>2022-05-14T07:34:25.000Z</time>
</trkpt>
<trkpt lat="44.3190250" lon="9.1650670">
	<ele>57.00</ele>
	<time>2022-05-14T07:34:28.000Z</time>
</trkpt>
<trkpt lat="44.3190210" lon="9.1650800">
	<ele>56.00</ele>
	<time>2022-05-14T07:34:37.000Z</time>
</trkpt>
<trkpt lat="44.3190080" lon="9.1650880">
	<ele>55.60</ele>
	<time>2022-05-14T07:34:46.000Z</time>
</trkpt>
<trkpt lat="44.3190050" lon="9.1650880">
	<ele>55.40</ele>
	<time>2022-05-14T07:34:49.000Z</time>
</trkpt>
<trkpt lat="44.3190040" lon="9.1650870">
	<ele>54.80</ele>
	<time>2022-05-14T07:34:53.000Z</time>
</trkpt>
<trkpt lat="44.3190020" lon="9.1650870">
	<ele>54.40</ele>
	<time>2022-05-14T07:34:56.000Z</time>
</trkpt>
<trkpt lat="44.3189930" lon="9.1650840">
	<ele>53.80</ele>
	<time>2022-05-14T07:35:01.000Z</time>
</trkpt>
<trkpt lat="44.3189660" lon="9.1650760">
	<ele>53.60</ele>
	<time>2022-05-14T07:35:04.000Z</time>
</trkpt>
<trkpt lat="44.3189130" lon="9.1650690">
	<ele>53.40</ele>
	<time>2022-05-14T07:35:11.000Z</time>
</trkpt>
<trkpt lat="44.3189110" lon="9.1650820">
	<ele>53.40</ele>
	<time>2022-05-14T07:35:17.000Z</time>
</trkpt>
<trkpt lat="44.3189080" lon="9.1650790">
	<ele>53.40</ele>
	<time>2022-05-14T07:35:18.000Z</time>
</trkpt>
<trkpt lat="44.3188730" lon="9.1650680">
	<ele>53.00</ele>
	<time>2022-05-14T07:35:26.000Z</time>
</trkpt>
<trkpt lat="44.3188590" lon="9.1651130">
	<ele>53.60</ele>
	<time>2022-05-14T07:35:35.000Z</time>
</trkpt>
<trkpt lat="44.3188570" lon="9.1651160">
	<ele>53.60</ele>
	<time>2022-05-14T07:35:37.000Z</time>
</trkpt>
<trkpt lat="44.3188500" lon="9.1651290">
	<ele>53.80</ele>
	<time>2022-05-14T07:35:39.000Z</time>
</trkpt>
<trkpt lat="44.3188400" lon="9.1651410">
	<ele>53.60</ele>
	<time>2022-05-14T07:35:41.000Z</time>
</trkpt>
<trkpt lat="44.3188280" lon="9.1651520">
	<ele>53.40</ele>
	<time>2022-05-14T07:35:43.000Z</time>
</trkpt>
<trkpt lat="44.3188130" lon="9.1651520">
	<ele>53.00</ele>
	<time>2022-05-14T07:35:45.000Z</time>
</trkpt>
<trkpt lat="44.3187980" lon="9.1651340">
	<ele>52.80</ele>
	<time>2022-05-14T07:35:48.000Z</time>
</trkpt>
<trkpt lat="44.3188000" lon="9.1651330">
	<ele>52.60</ele>
	<time>2022-05-14T07:35:49.000Z</time>
</trkpt>
<trkpt lat="44.3188230" lon="9.1651520">
	<ele>52.80</ele>
	<time>2022-05-14T07:35:57.000Z</time>
</trkpt>
<trkpt lat="44.3188230" lon="9.1651520">
	<ele>52.80</ele>
	<time>2022-05-14T07:36:11.000Z</time>
</trkpt>
<trkpt lat="44.3188220" lon="9.1651570">
	<ele>53.80</ele>
	<time>2022-05-14T07:36:44.000Z</time>
</trkpt>
<trkpt lat="44.3188220" lon="9.1651560">
	<ele>54.00</ele>
	<time>2022-05-14T07:36:46.000Z</time>
</trkpt>
<trkpt lat="44.3188220" lon="9.1651550">
	<ele>54.00</ele>
	<time>2022-05-14T07:36:47.000Z</time>
</trkpt>
<trkpt lat="44.3188520" lon="9.1651510">
	<ele>52.40</ele>
	<time>2022-05-14T07:36:54.000Z</time>
</trkpt>
<trkpt lat="44.3189490" lon="9.1650900">
	<ele>52.40</ele>
	<time>2022-05-14T07:37:03.000Z</time>
</trkpt>
<trkpt lat="44.3189940" lon="9.1650890">
	<ele>52.40</ele>
	<time>2022-05-14T07:37:10.000Z</time>
</trkpt>
<trkpt lat="44.3189910" lon="9.1650630">
	<ele>52.40</ele>
	<time>2022-05-14T07:37:15.000Z</time>
</trkpt>
<trkpt lat="44.3190000" lon="9.1650460">
	<ele>52.40</ele>
	<time>2022-05-14T07:37:17.000Z</time>
</trkpt>
<trkpt lat="44.3190050" lon="9.1649930">
	<ele>52.40</ele>
	<time>2022-05-14T07:37:23.000Z</time>
</trkpt>
<trkpt lat="44.3190180" lon="9.1649710">
	<ele>52.40</ele>
	<time>2022-05-14T07:37:28.000Z</time>
</trkpt>
<trkpt lat="44.3190210" lon="9.1649770">
	<ele>52.40</ele>
	<time>2022-05-14T07:37:32.000Z</time>
</trkpt>
<trkpt lat="44.3190600" lon="9.1650210">
	<ele>52.40</ele>
	<time>2022-05-14T07:37:43.000Z</time>
</trkpt>
<trkpt lat="44.3190630" lon="9.1650260">
	<ele>52.40</ele>
	<time>2022-05-14T07:37:46.000Z</time>
</trkpt>
<trkpt lat="44.3190610" lon="9.1650390">
	<ele>52.40</ele>
	<time>2022-05-14T07:37:48.000Z</time>
</trkpt>
<trkpt lat="44.3190610" lon="9.1650500">
	<ele>52.40</ele>
	<time>2022-05-14T07:37:50.000Z</time>
</trkpt>
<trkpt lat="44.3190580" lon="9.1650670">
	<ele>52.40</ele>
	<time>2022-05-14T07:37:52.000Z</time>
</trkpt>
<trkpt lat="44.3190560" lon="9.1650830">
	<ele>58.60</ele>
	<time>2022-05-14T07:37:55.000Z</time>
</trkpt>
<trkpt lat="44.3190680" lon="9.1651020">
	<ele>58.60</ele>
	<time>2022-05-14T07:37:59.000Z</time>
</trkpt>
<trkpt lat="44.3190690" lon="9.1650800">
	<ele>59.20</ele>
	<time>2022-05-14T07:38:03.000Z</time>
</trkpt>
<trkpt lat="44.3190740" lon="9.1650670">
	<ele>59.40</ele>
	<time>2022-05-14T07:38:05.000Z</time>
</trkpt>
<trkpt lat="44.3190710" lon="9.1650680">
	<ele>59.80</ele>
	<time>2022-05-14T07:38:07.000Z</time>
</trkpt>
<trkpt lat="44.3190740" lon="9.1650730">
	<ele>60.20</ele>
	<time>2022-05-14T07:38:11.000Z</time>
</trkpt>
<trkpt lat="44.3190760" lon="9.1650860">
	<ele>60.80</ele>
	<time>2022-05-14T07:38:14.000Z</time>
</trkpt>
<trkpt lat="44.3190690" lon="9.1651220">
	<ele>61.60</ele>
	<time>2022-05-14T07:38:19.000Z</time>
</trkpt>
<trkpt lat="44.3190590" lon="9.1651280">
	<ele>61.80</ele>
	<time>2022-05-14T07:38:21.000Z</time>
</trkpt>
<trkpt lat="44.3190670" lon="9.1651370">
	<ele>62.00</ele>
	<time>2022-05-14T07:38:23.000Z</time>
</trkpt>
<trkpt lat="44.3190720" lon="9.1651380">
	<ele>62.20</ele>
	<time>2022-05-14T07:38:24.000Z</time>
</trkpt>
<trkpt lat="44.3190780" lon="9.1651610">
	<ele>62.20</ele>
	<time>2022-05-14T07:38:28.000Z</time>
</trkpt>
<trkpt lat="44.3190620" lon="9.1651600">
	<ele>62.20</ele>
	<time>2022-05-14T07:38:37.000Z</time>
</trkpt>
<trkpt lat="44.3190410" lon="9.1651550">
	<ele>62.60</ele>
	<time>2022-05-14T07:38:43.000Z</time>
</trkpt>
<trkpt lat="44.3190440" lon="9.1651510">
	<ele>62.80</ele>
	<time>2022-05-14T07:38:45.000Z</time>
</trkpt>
<trkpt lat="44.3190490" lon="9.1651420">
	<ele>62.60</ele>
	<time>2022-05-14T07:38:49.000Z</time>
</trkpt>
<trkpt lat="44.3190500" lon="9.1651330">
	<ele>62.60</ele>
	<time>2022-05-14T07:38:51.000Z</time>
</trkpt>
<trkpt lat="44.3190650" lon="9.1651250">
	<ele>62.40</ele>
	<time>2022-05-14T07:38:59.000Z</time>
</trkpt>
<trkpt lat="44.3190630" lon="9.1651320">
	<ele>62.20</ele>
	<time>2022-05-14T07:39:09.000Z</time>
</trkpt>
<trkpt lat="44.3190630" lon="9.1651340">
	<ele>62.20</ele>
	<time>2022-05-14T07:39:11.000Z</time>
</trkpt>
<trkpt lat="44.3190630" lon="9.1651340">
	<ele>62.20</ele>
	<time>2022-05-14T07:39:12.000Z</time>
</trkpt>
<trkpt lat="44.3190630" lon="9.1651340">
	<ele>62.20</ele>
	<time>2022-05-14T07:39:13.000Z</time>
</trkpt>
<trkpt lat="44.3190630" lon="9.1651340">
	<ele>62.20</ele>
	<time>2022-05-14T07:39:14.000Z</time>
</trkpt>
<trkpt lat="44.3190630" lon="9.1651340">
	<ele>62.20</ele>
	<time>2022-05-14T07:39:17.000Z</time>
</trkpt>
<trkpt lat="44.3190650" lon="9.1651330">
	<ele>62.20</ele>
	<time>2022-05-14T07:39:20.000Z</time>
</trkpt>
<trkpt lat="44.3190730" lon="9.1651360">
	<ele>63.00</ele>
	<time>2022-05-14T07:39:25.000Z</time>
</trkpt>
<trkpt lat="44.3190820" lon="9.1651420">
	<ele>64.00</ele>
	<time>2022-05-14T07:39:31.000Z</time>
</trkpt>
<trkpt lat="44.3190890" lon="9.1651420">
	<ele>64.80</ele>
	<time>2022-05-14T07:39:34.000Z</time>
</trkpt>
<trkpt lat="44.3190900" lon="9.1651420">
	<ele>65.00</ele>
	<time>2022-05-14T07:39:36.000Z</time>
</trkpt>
<trkpt lat="44.3190900" lon="9.1651420">
	<ele>65.20</ele>
	<time>2022-05-14T07:39:37.000Z</time>
</trkpt>
<trkpt lat="44.3191100" lon="9.1651370">
	<ele>65.60</ele>
	<time>2022-05-14T07:39:44.000Z</time>
</trkpt>
<trkpt lat="44.3191240" lon="9.1651370">
	<ele>66.00</ele>
	<time>2022-05-14T07:39:47.000Z</time>
</trkpt>
<trkpt lat="44.3191460" lon="9.1651370">
	<ele>66.80</ele>
	<time>2022-05-14T07:39:51.000Z</time>
</trkpt>
<trkpt lat="44.3191520" lon="9.1651350">
	<ele>67.00</ele>
	<time>2022-05-14T07:39:52.000Z</time>
</trkpt>
<trkpt lat="44.3191560" lon="9.1651250">
	<ele>67.80</ele>
	<time>2022-05-14T07:39:56.000Z</time>
</trkpt>
<trkpt lat="44.3191600" lon="9.1651160">
	<ele>68.20</ele>
	<time>2022-05-14T07:39:59.000Z</time>
</trkpt>
<trkpt lat="44.3191610" lon="9.1651050">
	<ele>68.40</ele>
	<time>2022-05-14T07:40:01.000Z</time>
</trkpt>
<trkpt lat="44.3192040" lon="9.1650600">
	<ele>69.20</ele>
	<time>2022-05-14T07:40:06.000Z</time>
</trkpt>
<trkpt lat="44.3192190" lon="9.1650410">
	<ele>69.80</ele>
	<time>2022-05-14T07:40:08.000Z</time>
</trkpt>
<trkpt lat="44.3192480" lon="9.1650150">
	<ele>70.40</ele>
	<time>2022-05-14T07:40:11.000Z</time>
</trkpt>
<trkpt lat="44.3192730" lon="9.1650080">
	<ele>70.80</ele>
	<time>2022-05-14T07:40:16.000Z</time>
</trkpt>
<trkpt lat="44.3192790" lon="9.1650110">
	<ele>71.40</ele>
	<time>2022-05-14T07:40:18.000Z</time>
</trkpt>
<trkpt lat="44.3192850" lon="9.1650120">
	<ele>71.40</ele>
	<time>2022-05-14T07:40:19.000Z</time>
</trkpt>
<trkpt lat="44.3193220" lon="9.1650300">
	<ele>72.60</ele>
	<time>2022-05-14T07:40:27.000Z</time>
</trkpt>
<trkpt lat="44.3193240" lon="9.1650330">
	<ele>72.80</ele>
	<time>2022-05-14T07:40:28.000Z</time>
</trkpt>
<trkpt lat="44.3193430" lon="9.1650620">
	<ele>73.60</ele>
	<time>2022-05-14T07:40:34.000Z</time>
</trkpt>
<trkpt lat="44.3193880" lon="9.1650550">
	<ele>74.80</ele>
	<time>2022-05-14T07:40:42.000Z</time>
</trkpt>
<trkpt lat="44.3193960" lon="9.1650490">
	<ele>75.00</ele>
	<time>2022-05-14T07:40:44.000Z</time>
</trkpt>
<trkpt lat="44.3194090" lon="9.1650480">
	<ele>75.80</ele>
	<time>2022-05-14T07:40:50.000Z</time>
</trkpt>
<trkpt lat="44.3194080" lon="9.1650500">
	<ele>76.00</ele>
	<time>2022-05-14T07:40:51.000Z</time>
</trkpt>
<trkpt lat="44.3193740" lon="9.1650780">
	<ele>77.00</ele>
	<time>2022-05-14T07:40:57.000Z</time>
</trkpt>
<trkpt lat="44.3193650" lon="9.1650850">
	<ele>77.40</ele>
	<time>2022-05-14T07:40:59.000Z</time>
</trkpt>
<trkpt lat="44.3193510" lon="9.1650880">
	<ele>78.20</ele>
	<time>2022-05-14T07:41:02.000Z</time>
</trkpt>
<trkpt lat="44.3193210" lon="9.1651070">
	<ele>79.20</ele>
	<time>2022-05-14T07:41:08.000Z</time>
</trkpt>
<trkpt lat="44.3193160" lon="9.1651220">
	<ele>79.40</ele>
	<time>2022-05-14T07:41:10.000Z</time>
</trkpt>
<trkpt lat="44.3193000" lon="9.1651350">
	<ele>80.00</ele>
	<time>2022-05-14T07:41:13.000Z</time>
</trkpt>
<trkpt lat="44.3192960" lon="9.1651420">
	<ele>80.20</ele>
	<time>2022-05-14T07:41:14.000Z</time>
</trkpt>
<trkpt lat="44.3192860" lon="9.1651530">
	<ele>80.80</ele>
	<time>2022-05-14T07:41:17.000Z</time>
</trkpt>
<trkpt lat="44.3192720" lon="9.1651550">
	<ele>81.20</ele>
	<time>2022-05-14T07:41:20.000Z</time>
</trkpt>
<trkpt lat="44.3192490" lon="9.1651720">
	<ele>81.60</ele>
	<time>2022-05-14T07:41:24.000Z</time>
</trkpt>
<trkpt lat="44.3192430" lon="9.1651950">
	<ele>82.20</ele>
	<time>2022-05-14T07:41:28.000Z</time>
</trkpt>
<trkpt lat="44.3192430" lon="9.1652100">
	<ele>83.00</ele>
	<time>2022-05-14T07:41:31.000Z</time>
</trkpt>
<trkpt lat="44.3192430" lon="9.1652250">
	<ele>83.40</ele>
	<time>2022-05-14T07:41:33.000Z</time>
</trkpt>
<trkpt lat="44.3192460" lon="9.1652610">
	<ele>84.40</ele>
	<time>2022-05-14T07:41:38.000Z</time>
</trkpt>
<trkpt lat="44.3192400" lon="9.1652930">
	<ele>84.80</ele>
	<time>2022-05-14T07:41:41.000Z</time>
</trkpt>
<trkpt lat="44.3192560" lon="9.1653470">
	<ele>85.60</ele>
	<time>2022-05-14T07:41:48.000Z</time>
</trkpt>
<trkpt lat="44.3192620" lon="9.1653620">
	<ele>86.00</ele>
	<time>2022-05-14T07:41:50.000Z</time>
</trkpt>
<trkpt lat="44.3192700" lon="9.1653850">
	<ele>86.80</ele>
	<time>2022-05-14T07:41:54.000Z</time>
</trkpt>
<trkpt lat="44.3192670" lon="9.1654120">
	<ele>88.00</ele>
	<time>2022-05-14T07:42:00.000Z</time>
</trkpt>
<trkpt lat="44.3192840" lon="9.1654410">
	<ele>89.40</ele>
	<time>2022-05-14T07:42:07.000Z</time>
</trkpt>
<trkpt lat="44.3192800" lon="9.1654370">
	<ele>89.80</ele>
	<time>2022-05-14T07:42:09.000Z</time>
</trkpt>
<trkpt lat="44.3193060" lon="9.1654180">
	<ele>90.20</ele>
	<time>2022-05-14T07:42:20.000Z</time>
</trkpt>
<trkpt lat="44.3193090" lon="9.1654170">
	<ele>90.40</ele>
	<time>2022-05-14T07:42:21.000Z</time>
</trkpt>
<trkpt lat="44.3193300" lon="9.1654150">
	<ele>91.60</ele>
	<time>2022-05-14T07:42:28.000Z</time>
</trkpt>
<trkpt lat="44.3193290" lon="9.1654110">
	<ele>91.80</ele>
	<time>2022-05-14T07:42:29.000Z</time>
</trkpt>
<trkpt lat="44.3193490" lon="9.1653990">
	<ele>93.00</ele>
	<time>2022-05-14T07:42:35.000Z</time>
</trkpt>
<trkpt lat="44.3193560" lon="9.1654020">
	<ele>93.40</ele>
	<time>2022-05-14T07:42:38.000Z</time>
</trkpt>
<trkpt lat="44.3193500" lon="9.1654200">
	<ele>94.20</ele>
	<time>2022-05-14T07:42:42.000Z</time>
</trkpt>
<trkpt lat="44.3193460" lon="9.1654510">
	<ele>95.20</ele>
	<time>2022-05-14T07:42:47.000Z</time>
</trkpt>
<trkpt lat="44.3193450" lon="9.1654570">
	<ele>95.20</ele>
	<time>2022-05-14T07:42:48.000Z</time>
</trkpt>
<trkpt lat="44.3193230" lon="9.1654980">
	<ele>96.20</ele>
	<time>2022-05-14T07:42:55.000Z</time>
</trkpt>
<trkpt lat="44.3193170" lon="9.1655040">
	<ele>96.40</ele>
	<time>2022-05-14T07:42:57.000Z</time>
</trkpt>
<trkpt lat="44.3192720" lon="9.1655480">
	<ele>97.40</ele>
	<time>2022-05-14T07:43:05.000Z</time>
</trkpt>
<trkpt lat="44.3192700" lon="9.1655570">
	<ele>97.40</ele>
	<time>2022-05-14T07:43:06.000Z</time>
</trkpt>
<trkpt lat="44.3192620" lon="9.1655860">
	<ele>98.40</ele>
	<time>2022-05-14T07:43:11.000Z</time>
</trkpt>
<trkpt lat="44.3192630" lon="9.1655890">
	<ele>98.60</ele>
	<time>2022-05-14T07:43:12.000Z</time>
</trkpt>
<trkpt lat="44.3192840" lon="9.1655990">
	<ele>99.60</ele>
	<time>2022-05-14T07:43:17.000Z</time>
</trkpt>
<trkpt lat="44.3192860" lon="9.1655970">
	<ele>99.80</ele>
	<time>2022-05-14T07:43:18.000Z</time>
</trkpt>
<trkpt lat="44.3193160" lon="9.1655980">
	<ele>100.60</ele>
	<time>2022-05-14T07:43:24.000Z</time>
</trkpt>
<trkpt lat="44.3193360" lon="9.1656060">
	<ele>101.20</ele>
	<time>2022-05-14T07:43:27.000Z</time>
</trkpt>
<trkpt lat="44.3193470" lon="9.1656140">
	<ele>101.80</ele>
	<time>2022-05-14T07:43:29.000Z</time>
</trkpt>
<trkpt lat="44.3193510" lon="9.1656270">
	<ele>102.80</ele>
	<time>2022-05-14T07:43:34.000Z</time>
</trkpt>
<trkpt lat="44.3193450" lon="9.1656270">
	<ele>103.00</ele>
	<time>2022-05-14T07:43:35.000Z</time>
</trkpt>
<trkpt lat="44.3193120" lon="9.1656700">
	<ele>103.80</ele>
	<time>2022-05-14T07:43:43.000Z</time>
</trkpt>
<trkpt lat="44.3193080" lon="9.1656750">
	<ele>104.00</ele>
	<time>2022-05-14T07:43:44.000Z</time>
</trkpt>
<trkpt lat="44.3192980" lon="9.1656860">
	<ele>104.60</ele>
	<time>2022-05-14T07:43:48.000Z</time>
</trkpt>
<trkpt lat="44.3192940" lon="9.1656930">
	<ele>104.80</ele>
	<time>2022-05-14T07:43:49.000Z</time>
</trkpt>
<trkpt lat="44.3192910" lon="9.1657140">
	<ele>105.20</ele>
	<time>2022-05-14T07:43:51.000Z</time>
</trkpt>
<trkpt lat="44.3192940" lon="9.1657210">
	<ele>105.80</ele>
	<time>2022-05-14T07:43:54.000Z</time>
</trkpt>
<trkpt lat="44.3193050" lon="9.1657230">
	<ele>106.20</ele>
	<time>2022-05-14T07:43:56.000Z</time>
</trkpt>
<trkpt lat="44.3193200" lon="9.1657110">
	<ele>107.00</ele>
	<time>2022-05-14T07:44:01.000Z</time>
</trkpt>
<trkpt lat="44.3193330" lon="9.1656930">
	<ele>107.40</ele>
	<time>2022-05-14T07:44:04.000Z</time>
</trkpt>
<trkpt lat="44.3193520" lon="9.1656970">
	<ele>108.00</ele>
	<time>2022-05-14T07:44:08.000Z</time>
</trkpt>
<trkpt lat="44.3193610" lon="9.1657020">
	<ele>108.20</ele>
	<time>2022-05-14T07:44:09.000Z</time>
</trkpt>
<trkpt lat="44.3193900" lon="9.1657140">
	<ele>109.20</ele>
	<time>2022-05-14T07:44:15.000Z</time>
</trkpt>
<trkpt lat="44.3193880" lon="9.1657200">
	<ele>109.60</ele>
	<time>2022-05-14T07:44:17.000Z</time>
</trkpt>
<trkpt lat="44.3193750" lon="9.1657310">
	<ele>110.20</ele>
	<time>2022-05-14T07:44:21.000Z</time>
</trkpt>
<trkpt lat="44.3193680" lon="9.1657460">
	<ele>110.60</ele>
	<time>2022-05-14T07:44:23.000Z</time>
</trkpt>
<trkpt lat="44.3193620" lon="9.1657700">
	<ele>111.20</ele>
	<time>2022-05-14T07:44:29.000Z</time>
</trkpt>
<trkpt lat="44.3193690" lon="9.1657830">
	<ele>112.00</ele>
	<time>2022-05-14T07:44:32.000Z</time>
</trkpt>
<trkpt lat="44.3193660" lon="9.1657900">
	<ele>112.40</ele>
	<time>2022-05-14T07:44:34.000Z</time>
</trkpt>
<trkpt lat="44.3193530" lon="9.1658040">
	<ele>113.00</ele>
	<time>2022-05-14T07:44:37.000Z</time>
</trkpt>
<trkpt lat="44.3193420" lon="9.1658300">
	<ele>113.40</ele>
	<time>2022-05-14T07:44:41.000Z</time>
</trkpt>
<trkpt lat="44.3193340" lon="9.1658450">
	<ele>113.60</ele>
	<time>2022-05-14T07:44:42.000Z</time>
</trkpt>
<trkpt lat="44.3193150" lon="9.1658720">
	<ele>114.40</ele>
	<time>2022-05-14T07:44:48.000Z</time>
</trkpt>
<trkpt lat="44.3193150" lon="9.1658830">
	<ele>114.60</ele>
	<time>2022-05-14T07:44:49.000Z</time>
</trkpt>
<trkpt lat="44.3193000" lon="9.1659170">
	<ele>115.60</ele>
	<time>2022-05-14T07:44:56.000Z</time>
</trkpt>
<trkpt lat="44.3193180" lon="9.1659310">
	<ele>116.40</ele>
	<time>2022-05-14T07:45:01.000Z</time>
</trkpt>
<trkpt lat="44.3193210" lon="9.1659270">
	<ele>116.80</ele>
	<time>2022-05-14T07:45:03.000Z</time>
</trkpt>
<trkpt lat="44.3193410" lon="9.1659290">
	<ele>117.80</ele>
	<time>2022-05-14T07:45:09.000Z</time>
</trkpt>
<trkpt lat="44.3193550" lon="9.1659630">
	<ele>118.80</ele>
	<time>2022-05-14T07:45:16.000Z</time>
</trkpt>
<trkpt lat="44.3193270" lon="9.1660010">
	<ele>120.00</ele>
	<time>2022-05-14T07:45:23.000Z</time>
</trkpt>
<trkpt lat="44.3193260" lon="9.1660450">
	<ele>120.40</ele>
	<time>2022-05-14T07:45:28.000Z</time>
</trkpt>
<trkpt lat="44.3192920" lon="9.1660740">
	<ele>120.80</ele>
	<time>2022-05-14T07:45:34.000Z</time>
</trkpt>
<trkpt lat="44.3192880" lon="9.1660790">
	<ele>121.00</ele>
	<time>2022-05-14T07:45:35.000Z</time>
</trkpt>
<trkpt lat="44.3192610" lon="9.1660590">
	<ele>121.40</ele>
	<time>2022-05-14T07:45:40.000Z</time>
</trkpt>
<trkpt lat="44.3192220" lon="9.1660750">
	<ele>122.00</ele>
	<time>2022-05-14T07:45:45.000Z</time>
</trkpt>
<trkpt lat="44.3192180" lon="9.1660790">
	<ele>122.20</ele>
	<time>2022-05-14T07:45:46.000Z</time>
</trkpt>
<trkpt lat="44.3191940" lon="9.1660970">
	<ele>123.20</ele>
	<time>2022-05-14T07:45:52.000Z</time>
</trkpt>
<trkpt lat="44.3191970" lon="9.1661130">
	<ele>124.20</ele>
	<time>2022-05-14T07:45:56.000Z</time>
</trkpt>
<trkpt lat="44.3192000" lon="9.1661180">
	<ele>124.40</ele>
	<time>2022-05-14T07:45:57.000Z</time>
</trkpt>
<trkpt lat="44.3192050" lon="9.1661430">
	<ele>125.00</ele>
	<time>2022-05-14T07:46:01.000Z</time>
</trkpt>
<trkpt lat="44.3192050" lon="9.1661740">
	<ele>125.80</ele>
	<time>2022-05-14T07:46:06.000Z</time>
</trkpt>
<trkpt lat="44.3192020" lon="9.1661850">
	<ele>126.80</ele>
	<time>2022-05-14T07:46:10.000Z</time>
</trkpt>
<trkpt lat="44.3191940" lon="9.1661930">
	<ele>127.00</ele>
	<time>2022-05-14T07:46:12.000Z</time>
</trkpt>
<trkpt lat="44.3191850" lon="9.1662250">
	<ele>127.80</ele>
	<time>2022-05-14T07:46:18.000Z</time>
</trkpt>
<trkpt lat="44.3191930" lon="9.1662360">
	<ele>128.60</ele>
	<time>2022-05-14T07:46:21.000Z</time>
</trkpt>
<trkpt lat="44.3191950" lon="9.1662370">
	<ele>129.00</ele>
	<time>2022-05-14T07:46:23.000Z</time>
</trkpt>
<trkpt lat="44.3191950" lon="9.1662370">
	<ele>130.20</ele>
	<time>2022-05-14T07:46:30.000Z</time>
</trkpt>
<trkpt lat="44.3191950" lon="9.1662370">
	<ele>130.40</ele>
	<time>2022-05-14T07:46:32.000Z</time>
</trkpt>
<trkpt lat="44.3191950" lon="9.1662370">
	<ele>131.20</ele>
	<time>2022-05-14T07:46:37.000Z</time>
</trkpt>
<trkpt lat="44.3191970" lon="9.1662600">
	<ele>132.20</ele>
	<time>2022-05-14T07:46:43.000Z</time>
</trkpt>
<trkpt lat="44.3191990" lon="9.1663090">
	<ele>133.40</ele>
	<time>2022-05-14T07:46:49.000Z</time>
</trkpt>
<trkpt lat="44.3192100" lon="9.1664090">
	<ele>133.80</ele>
	<time>2022-05-14T07:46:54.000Z</time>
</trkpt>
<trkpt lat="44.3192220" lon="9.1664880">
	<ele>133.80</ele>
	<time>2022-05-14T07:46:57.000Z</time>
</trkpt>
<trkpt lat="44.3192360" lon="9.1665360">
	<ele>133.80</ele>
	<time>2022-05-14T07:47:01.000Z</time>
</trkpt>
<trkpt lat="44.3192500" lon="9.1666300">
	<ele>134.20</ele>
	<time>2022-05-14T07:47:10.000Z</time>
</trkpt>
<trkpt lat="44.3192530" lon="9.1666410">
	<ele>134.40</ele>
	<time>2022-05-14T07:47:11.000Z</time>
</trkpt>
<trkpt lat="44.3192540" lon="9.1667300">
	<ele>135.60</ele>
	<time>2022-05-14T07:47:19.000Z</time>
</trkpt>
<trkpt lat="44.3192490" lon="9.1668000">
	<ele>136.40</ele>
	<time>2022-05-14T07:47:26.000Z</time>
</trkpt>
<trkpt lat="44.3192490" lon="9.1668100">
	<ele>136.60</ele>
	<time>2022-05-14T07:47:27.000Z</time>
</trkpt>
<trkpt lat="44.3192510" lon="9.1668280">
	<ele>137.20</ele>
	<time>2022-05-14T07:47:30.000Z</time>
</trkpt>
<trkpt lat="44.3192510" lon="9.1668680">
	<ele>137.80</ele>
	<time>2022-05-14T07:47:34.000Z</time>
</trkpt>
<trkpt lat="44.3192470" lon="9.1668860">
	<ele>138.20</ele>
	<time>2022-05-14T07:47:36.000Z</time>
</trkpt>
<trkpt lat="44.3192510" lon="9.1669340">
	<ele>139.00</ele>
	<time>2022-05-14T07:47:41.000Z</time>
</trkpt>
<trkpt lat="44.3192520" lon="9.1669500">
	<ele>139.60</ele>
	<time>2022-05-14T07:47:43.000Z</time>
</trkpt>
<trkpt lat="44.3192510" lon="9.1669500">
	<ele>139.80</ele>
	<time>2022-05-14T07:47:44.000Z</time>
</trkpt>
<trkpt lat="44.3192540" lon="9.1669530">
	<ele>140.00</ele>
	<time>2022-05-14T07:47:45.000Z</time>
</trkpt>
<trkpt lat="44.3192580" lon="9.1669700">
	<ele>140.20</ele>
	<time>2022-05-14T07:47:47.000Z</time>
</trkpt>
<trkpt lat="44.3192570" lon="9.1669780">
	<ele>140.40</ele>
	<time>2022-05-14T07:47:48.000Z</time>
</trkpt>
<trkpt lat="44.3192550" lon="9.1669850">
	<ele>140.60</ele>
	<time>2022-05-14T07:47:49.000Z</time>
</trkpt>
<trkpt lat="44.3192540" lon="9.1670070">
	<ele>141.00</ele>
	<time>2022-05-14T07:47:51.000Z</time>
</trkpt>
<trkpt lat="44.3192530" lon="9.1670160">
	<ele>141.20</ele>
	<time>2022-05-14T07:47:52.000Z</time>
</trkpt>
<trkpt lat="44.3192470" lon="9.1670220">
	<ele>141.60</ele>
	<time>2022-05-14T07:47:55.000Z</time>
</trkpt>
<trkpt lat="44.3192360" lon="9.1670410">
	<ele>142.00</ele>
	<time>2022-05-14T07:47:58.000Z</time>
</trkpt>
<trkpt lat="44.3192340" lon="9.1670490">
	<ele>142.20</ele>
	<time>2022-05-14T07:47:59.000Z</time>
</trkpt>
<trkpt lat="44.3192320" lon="9.1670680">
	<ele>142.80</ele>
	<time>2022-05-14T07:48:02.000Z</time>
</trkpt>
<trkpt lat="44.3192290" lon="9.1670730">
	<ele>143.00</ele>
	<time>2022-05-14T07:48:03.000Z</time>
</trkpt>
<trkpt lat="44.3192260" lon="9.1670840">
	<ele>143.20</ele>
	<time>2022-05-14T07:48:05.000Z</time>
</trkpt>
<trkpt lat="44.3192240" lon="9.1671020">
	<ele>143.60</ele>
	<time>2022-05-14T07:48:07.000Z</time>
</trkpt>
<trkpt lat="44.3192250" lon="9.1671080">
	<ele>144.20</ele>
	<time>2022-05-14T07:48:11.000Z</time>
</trkpt>
<trkpt lat="44.3192270" lon="9.1671020">
	<ele>144.40</ele>
	<time>2022-05-14T07:48:12.000Z</time>
</trkpt>
<trkpt lat="44.3192440" lon="9.1670910">
	<ele>145.00</ele>
	<time>2022-05-14T07:48:16.000Z</time>
</trkpt>
<trkpt lat="44.3192450" lon="9.1670870">
	<ele>145.40</ele>
	<time>2022-05-14T07:48:17.000Z</time>
</trkpt>
<trkpt lat="44.3192490" lon="9.1670900">
	<ele>146.20</ele>
	<time>2022-05-14T07:48:22.000Z</time>
</trkpt>
<trkpt lat="44.3192450" lon="9.1670770">
	<ele>146.60</ele>
	<time>2022-05-14T07:48:24.000Z</time>
</trkpt>
<trkpt lat="44.3192600" lon="9.1670790">
	<ele>147.20</ele>
	<time>2022-05-14T07:48:28.000Z</time>
</trkpt>
<trkpt lat="44.3192740" lon="9.1670710">
	<ele>147.80</ele>
	<time>2022-05-14T07:48:31.000Z</time>
</trkpt>
<trkpt lat="44.3192780" lon="9.1671140">
	<ele>148.40</ele>
	<time>2022-05-14T07:48:36.000Z</time>
</trkpt>
<trkpt lat="44.3192810" lon="9.1671250">
	<ele>148.80</ele>
	<time>2022-05-14T07:48:40.000Z</time>
</trkpt>
<trkpt lat="44.3192880" lon="9.1671310">
	<ele>149.20</ele>
	<time>2022-05-14T07:48:42.000Z</time>
</trkpt>
<trkpt lat="44.3192960" lon="9.1671300">
	<ele>150.00</ele>
	<time>2022-05-14T07:48:46.000Z</time>
</trkpt>
<trkpt lat="44.3192950" lon="9.1671410">
	<ele>150.20</ele>
	<time>2022-05-14T07:48:48.000Z</time>
</trkpt>
<trkpt lat="44.3193010" lon="9.1671660">
	<ele>151.20</ele>
	<time>2022-05-14T07:48:54.000Z</time>
</trkpt>
<trkpt lat="44.3193080" lon="9.1671620">
	<ele>151.80</ele>
	<time>2022-05-14T07:48:57.000Z</time>
</trkpt>
<trkpt lat="44.3193040" lon="9.1671800">
	<ele>152.60</ele>
	<time>2022-05-14T07:49:00.000Z</time>
</trkpt>
<trkpt lat="44.3193060" lon="9.1672010">
	<ele>153.00</ele>
	<time>2022-05-14T07:49:04.000Z</time>
</trkpt>
<trkpt lat="44.3193160" lon="9.1672310">
	<ele>153.60</ele>
	<time>2022-05-14T07:49:08.000Z</time>
</trkpt>
<trkpt lat="44.3193050" lon="9.1672390">
	<ele>153.80</ele>
	<time>2022-05-14T07:49:10.000Z</time>
</trkpt>
<trkpt lat="44.3193040" lon="9.1672910">
	<ele>154.60</ele>
	<time>2022-05-14T07:49:15.000Z</time>
</trkpt>
<trkpt lat="44.3193080" lon="9.1673080">
	<ele>154.80</ele>
	<time>2022-05-14T07:49:17.000Z</time>
</trkpt>
<trkpt lat="44.3193000" lon="9.1673680">
	<ele>155.60</ele>
	<time>2022-05-14T07:49:23.000Z</time>
</trkpt>
<trkpt lat="44.3193050" lon="9.1673860">
	<ele>156.40</ele>
	<time>2022-05-14T07:49:26.000Z</time>
</trkpt>
<trkpt lat="44.3192970" lon="9.1673850">
	<ele>156.80</ele>
	<time>2022-05-14T07:49:28.000Z</time>
</trkpt>
<trkpt lat="44.3193080" lon="9.1674330">
	<ele>157.40</ele>
	<time>2022-05-14T07:49:33.000Z</time>
</trkpt>
<trkpt lat="44.3193100" lon="9.1674500">
	<ele>157.80</ele>
	<time>2022-05-14T07:49:36.000Z</time>
</trkpt>
<trkpt lat="44.3193070" lon="9.1674820">
	<ele>158.60</ele>
	<time>2022-05-14T07:49:41.000Z</time>
</trkpt>
<trkpt lat="44.3193190" lon="9.1674970">
	<ele>159.00</ele>
	<time>2022-05-14T07:49:44.000Z</time>
</trkpt>
<trkpt lat="44.3193270" lon="9.1674900">
	<ele>159.80</ele>
	<time>2022-05-14T07:49:49.000Z</time>
</trkpt>
<trkpt lat="44.3193200" lon="9.1674900">
	<ele>160.00</ele>
	<time>2022-05-14T07:49:51.000Z</time>
</trkpt>
<trkpt lat="44.3193210" lon="9.1674980">
	<ele>160.60</ele>
	<time>2022-05-14T07:49:55.000Z</time>
</trkpt>
<trkpt lat="44.3193280" lon="9.1675020">
	<ele>161.00</ele>
	<time>2022-05-14T07:49:57.000Z</time>
</trkpt>
<trkpt lat="44.3193230" lon="9.1675200">
	<ele>162.00</ele>
	<time>2022-05-14T07:50:03.000Z</time>
</trkpt>
<trkpt lat="44.3193160" lon="9.1675390">
	<ele>162.20</ele>
	<time>2022-05-14T07:50:04.000Z</time>
</trkpt>
<trkpt lat="44.3193210" lon="9.1675610">
	<ele>163.00</ele>
	<time>2022-05-14T07:50:09.000Z</time>
</trkpt>
<trkpt lat="44.3193320" lon="9.1675640">
	<ele>163.20</ele>
	<time>2022-05-14T07:50:11.000Z</time>
</trkpt>
<trkpt lat="44.3193540" lon="9.1675490">
	<ele>164.20</ele>
	<time>2022-05-14T07:50:16.000Z</time>
</trkpt>
<trkpt lat="44.3193420" lon="9.1675630">
	<ele>165.00</ele>
	<time>2022-05-14T07:50:21.000Z</time>
</trkpt>
<trkpt lat="44.3193490" lon="9.1675660">
	<ele>165.20</ele>
	<time>2022-05-14T07:50:23.000Z</time>
</trkpt>
<trkpt lat="44.3193510" lon="9.1675790">
	<ele>166.00</ele>
	<time>2022-05-14T07:50:27.000Z</time>
</trkpt>
<trkpt lat="44.3193430" lon="9.1675710">
	<ele>166.20</ele>
	<time>2022-05-14T07:50:32.000Z</time>
</trkpt>
<trkpt lat="44.3193390" lon="9.1675720">
	<ele>166.20</ele>
	<time>2022-05-14T07:50:33.000Z</time>
</trkpt>
<trkpt lat="44.3193280" lon="9.1675820">
	<ele>166.20</ele>
	<time>2022-05-14T07:50:42.000Z</time>
</trkpt>
<trkpt lat="44.3193200" lon="9.1675710">
	<ele>166.80</ele>
	<time>2022-05-14T07:51:04.000Z</time>
</trkpt>
<trkpt lat="44.3193200" lon="9.1675710">
	<ele>167.00</ele>
	<time>2022-05-14T07:51:07.000Z</time>
</trkpt>
<trkpt lat="44.3193200" lon="9.1675710">
	<ele>166.80</ele>
	<time>2022-05-14T07:51:12.000Z</time>
</trkpt>
<trkpt lat="44.3193220" lon="9.1675710">
	<ele>166.40</ele>
	<time>2022-05-14T07:51:18.000Z</time>
</trkpt>
<trkpt lat="44.3193290" lon="9.1675780">
	<ele>166.40</ele>
	<time>2022-05-14T07:51:24.000Z</time>
</trkpt>
<trkpt lat="44.3193420" lon="9.1675940">
	<ele>166.40</ele>
	<time>2022-05-14T07:51:32.000Z</time>
</trkpt>
<trkpt lat="44.3193470" lon="9.1675970">
	<ele>166.40</ele>
	<time>2022-05-14T07:51:35.000Z</time>
</trkpt>
<trkpt lat="44.3193470" lon="9.1675970">
	<ele>166.40</ele>
	<time>2022-05-14T07:51:38.000Z</time>
</trkpt>
<trkpt lat="44.3193470" lon="9.1676020">
	<ele>166.40</ele>
	<time>2022-05-14T07:51:43.000Z</time>
</trkpt>
<trkpt lat="44.3193470" lon="9.1676070">
	<ele>166.40</ele>
	<time>2022-05-14T07:51:48.000Z</time>
</trkpt>
<trkpt lat="44.3193460" lon="9.1676130">
	<ele>166.40</ele>
	<time>2022-05-14T07:52:00.000Z</time>
</trkpt>
<trkpt lat="44.3193790" lon="9.1675830">
	<ele>166.40</ele>
	<time>2022-05-14T07:52:08.000Z</time>
</trkpt>
<trkpt lat="44.3193430" lon="9.1676020">
	<ele>166.40</ele>
	<time>2022-05-14T07:52:15.000Z</time>
</trkpt>
<trkpt lat="44.3193600" lon="9.1675970">
	<ele>166.40</ele>
	<time>2022-05-14T07:52:23.000Z</time>
</trkpt>
<trkpt lat="44.3193600" lon="9.1675970">
	<ele>166.40</ele>
	<time>2022-05-14T07:52:25.000Z</time>
</trkpt>
<trkpt lat="44.3193610" lon="9.1676040">
	<ele>166.40</ele>
	<time>2022-05-14T07:52:40.000Z</time>
</trkpt>
<trkpt lat="44.3193730" lon="9.1676070">
	<ele>166.40</ele>
	<time>2022-05-14T07:52:46.000Z</time>
</trkpt>
<trkpt lat="44.3193810" lon="9.1676070">
	<ele>166.40</ele>
	<time>2022-05-14T07:52:50.000Z</time>
</trkpt>
<trkpt lat="44.3193830" lon="9.1676070">
	<ele>166.40</ele>
	<time>2022-05-14T07:52:53.000Z</time>
</trkpt>
<trkpt lat="44.3193840" lon="9.1676080">
	<ele>166.40</ele>
	<time>2022-05-14T07:52:55.000Z</time>
</trkpt>
<trkpt lat="44.3194050" lon="9.1676170">
	<ele>166.40</ele>
	<time>2022-05-14T07:53:03.000Z</time>
</trkpt>
<trkpt lat="44.3194090" lon="9.1676210">
	<ele>166.40</ele>
	<time>2022-05-14T07:53:07.000Z</time>
</trkpt>
<trkpt lat="44.3194400" lon="9.1676280">
	<ele>166.40</ele>
	<time>2022-05-14T07:53:13.000Z</time>
</trkpt>
<trkpt lat="44.3194490" lon="9.1676300">
	<ele>166.40</ele>
	<time>2022-05-14T07:53:16.000Z</time>
</trkpt>
<trkpt lat="44.3194510" lon="9.1676320">
	<ele>166.40</ele>
	<time>2022-05-14T07:53:19.000Z</time>
</trkpt>
<trkpt lat="44.3194520" lon="9.1676340">
	<ele>166.40</ele>
	<time>2022-05-14T07:53:23.000Z</time>
</trkpt>
<trkpt lat="44.3194210" lon="9.1676780">
	<ele>166.40</ele>
	<time>2022-05-14T07:53:31.000Z</time>
</trkpt>
<trkpt lat="44.3194130" lon="9.1676970">
	<ele>166.40</ele>
	<time>2022-05-14T07:53:33.000Z</time>
</trkpt>
<trkpt lat="44.3194060" lon="9.1677190">
	<ele>172.00</ele>
	<time>2022-05-14T07:53:35.000Z</time>
</trkpt>
<trkpt lat="44.3193890" lon="9.1677360">
	<ele>172.20</ele>
	<time>2022-05-14T07:53:39.000Z</time>
</trkpt>
<trkpt lat="44.3193540" lon="9.1677890">
	<ele>172.80</ele>
	<time>2022-05-14T07:53:45.000Z</time>
</trkpt>
<trkpt lat="44.3193500" lon="9.1677950">
	<ele>173.00</ele>
	<time>2022-05-14T07:53:46.000Z</time>
</trkpt>
<trkpt lat="44.3193400" lon="9.1677990">
	<ele>173.20</ele>
	<time>2022-05-14T07:53:48.000Z</time>
</trkpt>
<trkpt lat="44.3192970" lon="9.1677920">
	<ele>173.80</ele>
	<time>2022-05-14T07:53:54.000Z</time>
</trkpt>
<trkpt lat="44.3192910" lon="9.1677890">
	<ele>173.80</ele>
	<time>2022-05-14T07:53:55.000Z</time>
</trkpt>
<trkpt lat="44.3192690" lon="9.1677790">
	<ele>173.40</ele>
	<time>2022-05-14T07:54:01.000Z</time>
</trkpt>
<trkpt lat="44.3192630" lon="9.1677920">
	<ele>174.20</ele>
	<time>2022-05-14T07:54:05.000Z</time>
</trkpt>
<trkpt lat="44.3192530" lon="9.1677810">
	<ele>174.60</ele>
	<time>2022-05-14T07:54:07.000Z</time>
</trkpt>
<trkpt lat="44.3192120" lon="9.1677500">
	<ele>175.00</ele>
	<time>2022-05-14T07:54:13.000Z</time>
</trkpt>
<trkpt lat="44.3191970" lon="9.1677500">
	<ele>175.40</ele>
	<time>2022-05-14T07:54:15.000Z</time>
</trkpt>
<trkpt lat="44.3191680" lon="9.1677860">
	<ele>175.80</ele>
	<time>2022-05-14T07:54:18.000Z</time>
</trkpt>
<trkpt lat="44.3191330" lon="9.1677700">
	<ele>176.20</ele>
	<time>2022-05-14T07:54:21.000Z</time>
</trkpt>
<trkpt lat="44.3191070" lon="9.1677610">
	<ele>176.40</ele>
	<time>2022-05-14T07:54:24.000Z</time>
</trkpt>
<trkpt lat="44.3191020" lon="9.1677620">
	<ele>176.40</ele>
	<time>2022-05-14T07:54:25.000Z</time>
</trkpt>
<trkpt lat="44.3190990" lon="9.1677560">
	<ele>176.80</ele>
	<time>2022-05-14T07:54:27.000Z</time>
</trkpt>
<trkpt lat="44.3190900" lon="9.1677510">
	<ele>177.00</ele>
	<time>2022-05-14T07:54:29.000Z</time>
</trkpt>
<trkpt lat="44.3190820" lon="9.1677520">
	<ele>177.20</ele>
	<time>2022-05-14T07:54:30.000Z</time>
</trkpt>
<trkpt lat="44.3190660" lon="9.1677590">
	<ele>177.60</ele>
	<time>2022-05-14T07:54:32.000Z</time>
</trkpt>
<trkpt lat="44.3190500" lon="9.1677690">
	<ele>177.80</ele>
	<time>2022-05-14T07:54:34.000Z</time>
</trkpt>
<trkpt lat="44.3190400" lon="9.1678000">
	<ele>178.60</ele>
	<time>2022-05-14T07:54:36.000Z</time>
</trkpt>
<trkpt lat="44.3190410" lon="9.1678460">
	<ele>179.60</ele>
	<time>2022-05-14T07:54:40.000Z</time>
</trkpt>
<trkpt lat="44.3190480" lon="9.1678510">
	<ele>180.00</ele>
	<time>2022-05-14T07:54:42.000Z</time>
</trkpt>
<trkpt lat="44.3190610" lon="9.1678720">
	<ele>180.40</ele>
	<time>2022-05-14T07:54:45.000Z</time>
</trkpt>
<trkpt lat="44.3190670" lon="9.1678940">
	<ele>180.80</ele>
	<time>2022-05-14T07:54:48.000Z</time>
</trkpt>
<trkpt lat="44.3190740" lon="9.1679050">
	<ele>181.00</ele>
	<time>2022-05-14T07:54:50.000Z</time>
</trkpt>
<trkpt lat="44.3190760" lon="9.1679090">
	<ele>181.20</ele>
	<time>2022-05-14T07:54:51.000Z</time>
</trkpt>
<trkpt lat="44.3190790" lon="9.1679150">
	<ele>181.40</ele>
	<time>2022-05-14T07:54:53.000Z</time>
</trkpt>
<trkpt lat="44.3190840" lon="9.1679340">
	<ele>181.80</ele>
	<time>2022-05-14T07:54:56.000Z</time>
</trkpt>
<trkpt lat="44.3190880" lon="9.1679470">
	<ele>182.00</ele>
	<time>2022-05-14T07:54:58.000Z</time>
</trkpt>
<trkpt lat="44.3190980" lon="9.1679500">
	<ele>182.40</ele>
	<time>2022-05-14T07:55:01.000Z</time>
</trkpt>
<trkpt lat="44.3191010" lon="9.1679710">
	<ele>182.80</ele>
	<time>2022-05-14T07:55:04.000Z</time>
</trkpt>
<trkpt lat="44.3191010" lon="9.1679870">
	<ele>183.00</ele>
	<time>2022-05-14T07:55:06.000Z</time>
</trkpt>
<trkpt lat="44.3191010" lon="9.1680140">
	<ele>184.00</ele>
	<time>2022-05-14T07:55:09.000Z</time>
</trkpt>
<trkpt lat="44.3191010" lon="9.1680460">
	<ele>184.60</ele>
	<time>2022-05-14T07:55:14.000Z</time>
</trkpt>
<trkpt lat="44.3190980" lon="9.1680640">
	<ele>185.00</ele>
	<time>2022-05-14T07:55:16.000Z</time>
</trkpt>
<trkpt lat="44.3191000" lon="9.1680900">
	<ele>185.80</ele>
	<time>2022-05-14T07:55:21.000Z</time>
</trkpt>
<trkpt lat="44.3190980" lon="9.1681000">
	<ele>186.20</ele>
	<time>2022-05-14T07:55:23.000Z</time>
</trkpt>
<trkpt lat="44.3190900" lon="9.1681230">
	<ele>187.00</ele>
	<time>2022-05-14T07:55:30.000Z</time>
</trkpt>
<trkpt lat="44.3190890" lon="9.1681250">
	<ele>187.40</ele>
	<time>2022-05-14T07:55:31.000Z</time>
</trkpt>
<trkpt lat="44.3190650" lon="9.1681170">
	<ele>188.20</ele>
	<time>2022-05-14T07:55:37.000Z</time>
</trkpt>
<trkpt lat="44.3190530" lon="9.1681040">
	<ele>188.40</ele>
	<time>2022-05-14T07:55:39.000Z</time>
</trkpt>
<trkpt lat="44.3190560" lon="9.1680950">
	<ele>189.00</ele>
	<time>2022-05-14T07:55:43.000Z</time>
</trkpt>
<trkpt lat="44.3190390" lon="9.1680790">
	<ele>189.60</ele>
	<time>2022-05-14T07:55:46.000Z</time>
</trkpt>
<trkpt lat="44.3190320" lon="9.1680660">
	<ele>190.00</ele>
	<time>2022-05-14T07:55:50.000Z</time>
</trkpt>
<trkpt lat="44.3190260" lon="9.1680670">
	<ele>190.60</ele>
	<time>2022-05-14T07:55:53.000Z</time>
</trkpt>
<trkpt lat="44.3190090" lon="9.1680690">
	<ele>191.40</ele>
	<time>2022-05-14T07:55:57.000Z</time>
</trkpt>
<trkpt lat="44.3190120" lon="9.1680770">
	<ele>191.80</ele>
	<time>2022-05-14T07:55:58.000Z</time>
</trkpt>
<trkpt lat="44.3190190" lon="9.1681210">
	<ele>192.60</ele>
	<time>2022-05-14T07:56:02.000Z</time>
</trkpt>
<trkpt lat="44.3190340" lon="9.1681390">
	<ele>192.80</ele>
	<time>2022-05-14T07:56:05.000Z</time>
</trkpt>
<trkpt lat="44.3190330" lon="9.1681450">
	<ele>193.00</ele>
	<time>2022-05-14T07:56:06.000Z</time>
</trkpt>
<trkpt lat="44.3190330" lon="9.1681570">
	<ele>193.80</ele>
	<time>2022-05-14T07:56:12.000Z</time>
</trkpt>
<trkpt lat="44.3190360" lon="9.1681600">
	<ele>194.00</ele>
	<time>2022-05-14T07:56:13.000Z</time>
</trkpt>
<trkpt lat="44.3190450" lon="9.1681910">
	<ele>194.60</ele>
	<time>2022-05-14T07:56:16.000Z</time>
</trkpt>
<trkpt lat="44.3190470" lon="9.1682190">
	<ele>195.00</ele>
	<time>2022-05-14T07:56:19.000Z</time>
</trkpt>
<trkpt lat="44.3190710" lon="9.1683020">
	<ele>195.60</ele>
	<time>2022-05-14T07:56:28.000Z</time>
</trkpt>
<trkpt lat="44.3191020" lon="9.1683180">
	<ele>196.20</ele>
	<time>2022-05-14T07:56:33.000Z</time>
</trkpt>
<trkpt lat="44.3191080" lon="9.1683150">
	<ele>196.40</ele>
	<time>2022-05-14T07:56:34.000Z</time>
</trkpt>
<trkpt lat="44.3191010" lon="9.1683590">
	<ele>197.20</ele>
	<time>2022-05-14T07:56:40.000Z</time>
</trkpt>
<trkpt lat="44.3190990" lon="9.1683520">
	<ele>197.40</ele>
	<time>2022-05-14T07:56:41.000Z</time>
</trkpt>
<trkpt lat="44.3191040" lon="9.1683670">
	<ele>198.20</ele>
	<time>2022-05-14T07:56:47.000Z</time>
</trkpt>
<trkpt lat="44.3191070" lon="9.1683790">
	<ele>198.40</ele>
	<time>2022-05-14T07:56:48.000Z</time>
</trkpt>
<trkpt lat="44.3190990" lon="9.1683930">
	<ele>199.00</ele>
	<time>2022-05-14T07:56:52.000Z</time>
</trkpt>
<trkpt lat="44.3191050" lon="9.1684020">
	<ele>199.60</ele>
	<time>2022-05-14T07:56:54.000Z</time>
</trkpt>
<trkpt lat="44.3191140" lon="9.1684400">
	<ele>200.40</ele>
	<time>2022-05-14T07:56:59.000Z</time>
</trkpt>
<trkpt lat="44.3191180" lon="9.1684340">
	<ele>200.80</ele>
	<time>2022-05-14T07:57:03.000Z</time>
</trkpt>
<trkpt lat="44.3191230" lon="9.1684100">
	<ele>201.40</ele>
	<time>2022-05-14T07:57:07.000Z</time>
</trkpt>
<trkpt lat="44.3191230" lon="9.1684010">
	<ele>201.80</ele>
	<time>2022-05-14T07:57:09.000Z</time>
</trkpt>
<trkpt lat="44.3190880" lon="9.1683920">
	<ele>202.20</ele>
	<time>2022-05-14T07:57:13.000Z</time>
</trkpt>
<trkpt lat="44.3190500" lon="9.1684050">
	<ele>202.80</ele>
	<time>2022-05-14T07:57:17.000Z</time>
</trkpt>
<trkpt lat="44.3190520" lon="9.1684090">
	<ele>203.00</ele>
	<time>2022-05-14T07:57:19.000Z</time>
</trkpt>
<trkpt lat="44.3190360" lon="9.1683840">
	<ele>203.80</ele>
	<time>2022-05-14T07:57:23.000Z</time>
</trkpt>
<trkpt lat="44.3190290" lon="9.1683750">
	<ele>204.00</ele>
	<time>2022-05-14T07:57:24.000Z</time>
</trkpt>
<trkpt lat="44.3190070" lon="9.1683620">
	<ele>204.80</ele>
	<time>2022-05-14T07:57:30.000Z</time>
</trkpt>
<trkpt lat="44.3189880" lon="9.1683530">
	<ele>205.40</ele>
	<time>2022-05-14T07:57:35.000Z</time>
</trkpt>
<trkpt lat="44.3189920" lon="9.1683680">
	<ele>206.00</ele>
	<time>2022-05-14T07:57:38.000Z</time>
</trkpt>
<trkpt lat="44.3189900" lon="9.1683690">
	<ele>206.40</ele>
	<time>2022-05-14T07:57:40.000Z</time>
</trkpt>
<trkpt lat="44.3189890" lon="9.1683880">
	<ele>207.20</ele>
	<time>2022-05-14T07:57:44.000Z</time>
</trkpt>
<trkpt lat="44.3189810" lon="9.1684010">
	<ele>207.80</ele>
	<time>2022-05-14T07:57:48.000Z</time>
</trkpt>
<trkpt lat="44.3189790" lon="9.1684080">
	<ele>208.20</ele>
	<time>2022-05-14T07:57:50.000Z</time>
</trkpt>
<trkpt lat="44.3189600" lon="9.1684310">
	<ele>209.20</ele>
	<time>2022-05-14T07:57:55.000Z</time>
</trkpt>
<trkpt lat="44.3189540" lon="9.1684610">
	<ele>210.40</ele>
	<time>2022-05-14T07:58:00.000Z</time>
</trkpt>
<trkpt lat="44.3189560" lon="9.1684810">
	<ele>210.80</ele>
	<time>2022-05-14T07:58:03.000Z</time>
</trkpt>
<trkpt lat="44.3189570" lon="9.1684810">
	<ele>211.40</ele>
	<time>2022-05-14T07:58:06.000Z</time>
</trkpt>
<trkpt lat="44.3189470" lon="9.1684750">
	<ele>211.60</ele>
	<time>2022-05-14T07:58:11.000Z</time>
</trkpt>
<trkpt lat="44.3189290" lon="9.1684670">
	<ele>211.60</ele>
	<time>2022-05-14T07:58:17.000Z</time>
</trkpt>
<trkpt lat="44.3189170" lon="9.1685000">
	<ele>212.40</ele>
	<time>2022-05-14T07:58:36.000Z</time>
</trkpt>
<trkpt lat="44.3189210" lon="9.1685120">
	<ele>213.00</ele>
	<time>2022-05-14T07:58:40.000Z</time>
</trkpt>
<trkpt lat="44.3189230" lon="9.1685150">
	<ele>213.40</ele>
	<time>2022-05-14T07:58:42.000Z</time>
</trkpt>
<trkpt lat="44.3189230" lon="9.1685300">
	<ele>214.60</ele>
	<time>2022-05-14T07:58:48.000Z</time>
</trkpt>
<trkpt lat="44.3189260" lon="9.1685630">
	<ele>215.20</ele>
	<time>2022-05-14T07:58:53.000Z</time>
</trkpt>
<trkpt lat="44.3189430" lon="9.1686230">
	<ele>215.60</ele>
	<time>2022-05-14T07:58:56.000Z</time>
</trkpt>
<trkpt lat="44.3189520" lon="9.1686870">
	<ele>216.40</ele>
	<time>2022-05-14T07:58:59.000Z</time>
</trkpt>
<trkpt lat="44.3189630" lon="9.1687140">
	<ele>216.60</ele>
	<time>2022-05-14T07:59:01.000Z</time>
</trkpt>
<trkpt lat="44.3189660" lon="9.1687290">
	<ele>216.80</ele>
	<time>2022-05-14T07:59:02.000Z</time>
</trkpt>
<trkpt lat="44.3189700" lon="9.1687630">
	<ele>217.80</ele>
	<time>2022-05-14T07:59:08.000Z</time>
</trkpt>
<trkpt lat="44.3189520" lon="9.1687340">
	<ele>219.20</ele>
	<time>2022-05-14T07:59:16.000Z</time>
</trkpt>
<trkpt lat="44.3189600" lon="9.1687740">
	<ele>220.40</ele>
	<time>2022-05-14T07:59:22.000Z</time>
</trkpt>
<trkpt lat="44.3189680" lon="9.1687920">
	<ele>221.40</ele>
	<time>2022-05-14T07:59:28.000Z</time>
</trkpt>
<trkpt lat="44.3189640" lon="9.1687980">
	<ele>221.60</ele>
	<time>2022-05-14T07:59:29.000Z</time>
</trkpt>
<trkpt lat="44.3189370" lon="9.1688110">
	<ele>222.40</ele>
	<time>2022-05-14T07:59:34.000Z</time>
</trkpt>
<trkpt lat="44.3189250" lon="9.1688210">
	<ele>223.00</ele>
	<time>2022-05-14T07:59:38.000Z</time>
</trkpt>
<trkpt lat="44.3189170" lon="9.1688220">
	<ele>223.60</ele>
	<time>2022-05-14T07:59:41.000Z</time>
</trkpt>
<trkpt lat="44.3189050" lon="9.1688030">
	<ele>224.00</ele>
	<time>2022-05-14T07:59:44.000Z</time>
</trkpt>
<trkpt lat="44.3188790" lon="9.1688160">
	<ele>224.60</ele>
	<time>2022-05-14T07:59:48.000Z</time>
</trkpt>
<trkpt lat="44.3188820" lon="9.1688250">
	<ele>225.00</ele>
	<time>2022-05-14T07:59:49.000Z</time>
</trkpt>
<trkpt lat="44.3189150" lon="9.1688540">
	<ele>225.80</ele>
	<time>2022-05-14T07:59:55.000Z</time>
</trkpt>
<trkpt lat="44.3189070" lon="9.1688920">
	<ele>226.00</ele>
	<time>2022-05-14T07:59:58.000Z</time>
</trkpt>
<trkpt lat="44.3189160" lon="9.1689230">
	<ele>226.80</ele>
	<time>2022-05-14T08:00:03.000Z</time>
</trkpt>
<trkpt lat="44.3189280" lon="9.1689540">
	<ele>227.40</ele>
	<time>2022-05-14T08:00:08.000Z</time>
</trkpt>
<trkpt lat="44.3189260" lon="9.1689650">
	<ele>228.00</ele>
	<time>2022-05-14T08:00:10.000Z</time>
</trkpt>
<trkpt lat="44.3189410" lon="9.1689890">
	<ele>229.00</ele>
	<time>2022-05-14T08:00:16.000Z</time>
</trkpt>
<trkpt lat="44.3189240" lon="9.1689950">
	<ele>230.20</ele>
	<time>2022-05-14T08:00:21.000Z</time>
</trkpt>
<trkpt lat="44.3189050" lon="9.1689590">
	<ele>231.00</ele>
	<time>2022-05-14T08:00:26.000Z</time>
</trkpt>
<trkpt lat="44.3189080" lon="9.1689470">
	<ele>231.20</ele>
	<time>2022-05-14T08:00:27.000Z</time>
</trkpt>
<trkpt lat="44.3188910" lon="9.1689360">
	<ele>231.40</ele>
	<time>2022-05-14T08:00:32.000Z</time>
</trkpt>
<trkpt lat="44.3188790" lon="9.1689190">
	<ele>232.20</ele>
	<time>2022-05-14T08:00:38.000Z</time>
</trkpt>
<trkpt lat="44.3188390" lon="9.1689240">
	<ele>233.20</ele>
	<time>2022-05-14T08:00:45.000Z</time>
</trkpt>
<trkpt lat="44.3187950" lon="9.1689080">
	<ele>234.20</ele>
	<time>2022-05-14T08:00:52.000Z</time>
</trkpt>
<trkpt lat="44.3187900" lon="9.1689080">
	<ele>234.40</ele>
	<time>2022-05-14T08:00:53.000Z</time>
</trkpt>
<trkpt lat="44.3187720" lon="9.1689000">
	<ele>235.20</ele>
	<time>2022-05-14T08:00:57.000Z</time>
</trkpt>
<trkpt lat="44.3187630" lon="9.1689000">
	<ele>236.20</ele>
	<time>2022-05-14T08:01:01.000Z</time>
</trkpt>
<trkpt lat="44.3187600" lon="9.1688960">
	<ele>236.40</ele>
	<time>2022-05-14T08:01:02.000Z</time>
</trkpt>
<trkpt lat="44.3187470" lon="9.1688770">
	<ele>236.80</ele>
	<time>2022-05-14T08:01:07.000Z</time>
</trkpt>
<trkpt lat="44.3187130" lon="9.1688790">
	<ele>237.40</ele>
	<time>2022-05-14T08:01:12.000Z</time>
</trkpt>
<trkpt lat="44.3187110" lon="9.1689240">
	<ele>238.60</ele>
	<time>2022-05-14T08:01:18.000Z</time>
</trkpt>
<trkpt lat="44.3187110" lon="9.1689280">
	<ele>238.60</ele>
	<time>2022-05-14T08:01:19.000Z</time>
</trkpt>
<trkpt lat="44.3187040" lon="9.1689710">
	<ele>239.40</ele>
	<time>2022-05-14T08:01:25.000Z</time>
</trkpt>
<trkpt lat="44.3187050" lon="9.1689770">
	<ele>239.60</ele>
	<time>2022-05-14T08:01:26.000Z</time>
</trkpt>
<trkpt lat="44.3187080" lon="9.1690070">
	<ele>240.80</ele>
	<time>2022-05-14T08:01:33.000Z</time>
</trkpt>
<trkpt lat="44.3186950" lon="9.1689990">
	<ele>241.00</ele>
	<time>2022-05-14T08:01:35.000Z</time>
</trkpt>
<trkpt lat="44.3186830" lon="9.1689900">
	<ele>242.00</ele>
	<time>2022-05-14T08:01:39.000Z</time>
</trkpt>
<trkpt lat="44.3186820" lon="9.1689950">
	<ele>242.40</ele>
	<time>2022-05-14T08:01:41.000Z</time>
</trkpt>
<trkpt lat="44.3186840" lon="9.1690260">
	<ele>243.00</ele>
	<time>2022-05-14T08:01:45.000Z</time>
</trkpt>
<trkpt lat="44.3186880" lon="9.1690320">
	<ele>243.40</ele>
	<time>2022-05-14T08:01:47.000Z</time>
</trkpt>
<trkpt lat="44.3186950" lon="9.1690680">
	<ele>244.20</ele>
	<time>2022-05-14T08:01:53.000Z</time>
</trkpt>
<trkpt lat="44.3186970" lon="9.1690750">
	<ele>244.20</ele>
	<time>2022-05-14T08:01:55.000Z</time>
</trkpt>
<trkpt lat="44.3186860" lon="9.1690910">
	<ele>244.40</ele>
	<time>2022-05-14T08:02:01.000Z</time>
</trkpt>
<trkpt lat="44.3186840" lon="9.1690940">
	<ele>244.40</ele>
	<time>2022-05-14T08:02:06.000Z</time>
</trkpt>
<trkpt lat="44.3186860" lon="9.1690940">
	<ele>245.20</ele>
	<time>2022-05-14T08:02:14.000Z</time>
</trkpt>
<trkpt lat="44.3186880" lon="9.1691310">
	<ele>246.40</ele>
	<time>2022-05-14T08:02:19.000Z</time>
</trkpt>
<trkpt lat="44.3186880" lon="9.1691440">
	<ele>246.60</ele>
	<time>2022-05-14T08:02:20.000Z</time>
</trkpt>
<trkpt lat="44.3186900" lon="9.1691930">
	<ele>247.20</ele>
	<time>2022-05-14T08:02:25.000Z</time>
</trkpt>
<trkpt lat="44.3186880" lon="9.1692010">
	<ele>247.40</ele>
	<time>2022-05-14T08:02:26.000Z</time>
</trkpt>
<trkpt lat="44.3186830" lon="9.1692170">
	<ele>248.20</ele>
	<time>2022-05-14T08:02:29.000Z</time>
</trkpt>
<trkpt lat="44.3186850" lon="9.1692240">
	<ele>248.40</ele>
	<time>2022-05-14T08:02:30.000Z</time>
</trkpt>
<trkpt lat="44.3187090" lon="9.1692850">
	<ele>249.20</ele>
	<time>2022-05-14T08:02:38.000Z</time>
</trkpt>
<trkpt lat="44.3187110" lon="9.1693080">
	<ele>249.60</ele>
	<time>2022-05-14T08:02:41.000Z</time>
</trkpt>
<trkpt lat="44.3187110" lon="9.1693360">
	<ele>250.60</ele>
	<time>2022-05-14T08:02:45.000Z</time>
</trkpt>
<trkpt lat="44.3187100" lon="9.1693490">
	<ele>251.00</ele>
	<time>2022-05-14T08:02:47.000Z</time>
</trkpt>
<trkpt lat="44.3186990" lon="9.1693870">
	<ele>251.80</ele>
	<time>2022-05-14T08:02:52.000Z</time>
</trkpt>
<trkpt lat="44.3186820" lon="9.1694200">
	<ele>252.40</ele>
	<time>2022-05-14T08:02:57.000Z</time>
</trkpt>
<trkpt lat="44.3186900" lon="9.1694180">
	<ele>252.60</ele>
	<time>2022-05-14T08:03:02.000Z</time>
</trkpt>
<trkpt lat="44.3186910" lon="9.1694270">
	<ele>252.40</ele>
	<time>2022-05-14T08:03:16.000Z</time>
</trkpt>
<trkpt lat="44.3186800" lon="9.1694540">
	<ele>250.80</ele>
	<time>2022-05-14T08:03:27.000Z</time>
</trkpt>
<trkpt lat="44.3186700" lon="9.1694690">
	<ele>250.60</ele>
	<time>2022-05-14T08:03:29.000Z</time>
</trkpt>
<trkpt lat="44.3186170" lon="9.1695170">
	<ele>250.20</ele>
	<time>2022-05-14T08:03:32.000Z</time>
</trkpt>
<trkpt lat="44.3185830" lon="9.1695440">
	<ele>249.80</ele>
	<time>2022-05-14T08:03:34.000Z</time>
</trkpt>
<trkpt lat="44.3185680" lon="9.1695590">
	<ele>249.60</ele>
	<time>2022-05-14T08:03:35.000Z</time>
</trkpt>
<trkpt lat="44.3185540" lon="9.1695750">
	<ele>249.40</ele>
	<time>2022-05-14T08:03:36.000Z</time>
</trkpt>
<trkpt lat="44.3185190" lon="9.1696070">
	<ele>249.20</ele>
	<time>2022-05-14T08:03:39.000Z</time>
</trkpt>
<trkpt lat="44.3185060" lon="9.1696190">
	<ele>248.80</ele>
	<time>2022-05-14T08:03:42.000Z</time>
</trkpt>
<trkpt lat="44.3184970" lon="9.1696190">
	<ele>248.60</ele>
	<time>2022-05-14T08:03:43.000Z</time>
</trkpt>
<trkpt lat="44.3184880" lon="9.1696200">
	<ele>248.40</ele>
	<time>2022-05-14T08:03:44.000Z</time>
</trkpt>
<trkpt lat="44.3184740" lon="9.1696250">
	<ele>248.40</ele>
	<time>2022-05-14T08:03:46.000Z</time>
</trkpt>
<trkpt lat="44.3184650" lon="9.1696290">
	<ele>248.00</ele>
	<time>2022-05-14T08:03:48.000Z</time>
</trkpt>
<trkpt lat="44.3184570" lon="9.1696340">
	<ele>247.80</ele>
	<time>2022-05-14T08:03:49.000Z</time>
</trkpt>
<trkpt lat="44.3184460" lon="9.1696390">
	<ele>247.40</ele>
	<time>2022-05-14T08:03:50.000Z</time>
</trkpt>
<trkpt lat="44.3184230" lon="9.1696430">
	<ele>247.00</ele>
	<time>2022-05-14T08:03:52.000Z</time>
</trkpt>
<trkpt lat="44.3183930" lon="9.1696330">
	<ele>246.60</ele>
	<time>2022-05-14T08:03:55.000Z</time>
</trkpt>
<trkpt lat="44.3183770" lon="9.1696270">
	<ele>246.20</ele>
	<time>2022-05-14T08:03:57.000Z</time>
</trkpt>
<trkpt lat="44.3183310" lon="9.1696280">
	<ele>245.60</ele>
	<time>2022-05-14T08:04:01.000Z</time>
</trkpt>
<trkpt lat="44.3183180" lon="9.1696340">
	<ele>245.40</ele>
	<time>2022-05-14T08:04:03.000Z</time>
</trkpt>
<trkpt lat="44.3183080" lon="9.1696450">
	<ele>245.00</ele>
	<time>2022-05-14T08:04:05.000Z</time>
</trkpt>
<trkpt lat="44.3182900" lon="9.1696550">
	<ele>244.60</ele>
	<time>2022-05-14T08:04:07.000Z</time>
</trkpt>
<trkpt lat="44.3182780" lon="9.1696570">
	<ele>244.40</ele>
	<time>2022-05-14T08:04:09.000Z</time>
</trkpt>
<trkpt lat="44.3182590" lon="9.1696650">
	<ele>244.00</ele>
	<time>2022-05-14T08:04:12.000Z</time>
</trkpt>
<trkpt lat="44.3182220" lon="9.1696820">
	<ele>242.80</ele>
	<time>2022-05-14T08:04:17.000Z</time>
</trkpt>
<trkpt lat="44.3182030" lon="9.1696790">
	<ele>242.40</ele>
	<time>2022-05-14T08:04:20.000Z</time>
</trkpt>
<trkpt lat="44.3181770" lon="9.1696810">
	<ele>242.00</ele>
	<time>2022-05-14T08:04:22.000Z</time>
</trkpt>
<trkpt lat="44.3181670" lon="9.1696770">
	<ele>241.80</ele>
	<time>2022-05-14T08:04:23.000Z</time>
</trkpt>
<trkpt lat="44.3181620" lon="9.1696710">
	<ele>241.60</ele>
	<time>2022-05-14T08:04:24.000Z</time>
</trkpt>
<trkpt lat="44.3181480" lon="9.1696670">
	<ele>241.00</ele>
	<time>2022-05-14T08:04:27.000Z</time>
</trkpt>
<trkpt lat="44.3181450" lon="9.1696890">
	<ele>240.60</ele>
	<time>2022-05-14T08:04:30.000Z</time>
</trkpt>
<trkpt lat="44.3181500" lon="9.1696950">
	<ele>240.40</ele>
	<time>2022-05-14T08:04:31.000Z</time>
</trkpt>
<trkpt lat="44.3181730" lon="9.1697290">
	<ele>239.40</ele>
	<time>2022-05-14T08:04:36.000Z</time>
</trkpt>
<trkpt lat="44.3181770" lon="9.1697360">
	<ele>239.20</ele>
	<time>2022-05-14T08:04:37.000Z</time>
</trkpt>
<trkpt lat="44.3181820" lon="9.1697510">
	<ele>239.00</ele>
	<time>2022-05-14T08:04:39.000Z</time>
</trkpt>
<trkpt lat="44.3182030" lon="9.1697600">
	<ele>238.60</ele>
	<time>2022-05-14T08:04:41.000Z</time>
</trkpt>
<trkpt lat="44.3182110" lon="9.1697640">
	<ele>238.20</ele>
	<time>2022-05-14T08:04:43.000Z</time>
</trkpt>
<trkpt lat="44.3182090" lon="9.1697700">
	<ele>238.20</ele>
	<time>2022-05-14T08:04:44.000Z</time>
</trkpt>
<trkpt lat="44.3181990" lon="9.1697960">
	<ele>237.40</ele>
	<time>2022-05-14T08:04:47.000Z</time>
</trkpt>
<trkpt lat="44.3181910" lon="9.1698230">
	<ele>237.00</ele>
	<time>2022-05-14T08:04:49.000Z</time>
</trkpt>
<trkpt lat="44.3181820" lon="9.1698400">
	<ele>236.60</ele>
	<time>2022-05-14T08:04:51.000Z</time>
</trkpt>
<trkpt lat="44.3181520" lon="9.1698520">
	<ele>235.80</ele>
	<time>2022-05-14T08:04:55.000Z</time>
</trkpt>
<trkpt lat="44.3181230" lon="9.1698510">
	<ele>235.20</ele>
	<time>2022-05-14T08:04:58.000Z</time>
</trkpt>
<trkpt lat="44.3181200" lon="9.1698440">
	<ele>235.00</ele>
	<time>2022-05-14T08:04:59.000Z</time>
</trkpt>
<trkpt lat="44.3181090" lon="9.1698290">
	<ele>234.60</ele>
	<time>2022-05-14T08:05:02.000Z</time>
</trkpt>
<trkpt lat="44.3180940" lon="9.1698180">
	<ele>234.20</ele>
	<time>2022-05-14T08:05:05.000Z</time>
</trkpt>
<trkpt lat="44.3180690" lon="9.1698150">
	<ele>233.60</ele>
	<time>2022-05-14T08:05:08.000Z</time>
</trkpt>
<trkpt lat="44.3180610" lon="9.1698090">
	<ele>233.40</ele>
	<time>2022-05-14T08:05:09.000Z</time>
</trkpt>
<trkpt lat="44.3180320" lon="9.1697940">
	<ele>233.20</ele>
	<time>2022-05-14T08:05:13.000Z</time>
</trkpt>
<trkpt lat="44.3180180" lon="9.1697820">
	<ele>232.60</ele>
	<time>2022-05-14T08:05:16.000Z</time>
</trkpt>
<trkpt lat="44.3180110" lon="9.1697740">
	<ele>232.40</ele>
	<time>2022-05-14T08:05:17.000Z</time>
</trkpt>
<trkpt lat="44.3180020" lon="9.1697670">
	<ele>232.00</ele>
	<time>2022-05-14T08:05:19.000Z</time>
</trkpt>
<trkpt lat="44.3179940" lon="9.1697630">
	<ele>231.80</ele>
	<time>2022-05-14T08:05:20.000Z</time>
</trkpt>
<trkpt lat="44.3179780" lon="9.1697470">
	<ele>231.40</ele>
	<time>2022-05-14T08:05:22.000Z</time>
</trkpt>
<trkpt lat="44.3179790" lon="9.1697370">
	<ele>231.20</ele>
	<time>2022-05-14T08:05:23.000Z</time>
</trkpt>
<trkpt lat="44.3179710" lon="9.1697050">
	<ele>230.80</ele>
	<time>2022-05-14T08:05:26.000Z</time>
</trkpt>
<trkpt lat="44.3179550" lon="9.1697050">
	<ele>230.40</ele>
	<time>2022-05-14T08:05:31.000Z</time>
</trkpt>
<trkpt lat="44.3179480" lon="9.1697080">
	<ele>229.80</ele>
	<time>2022-05-14T08:05:34.000Z</time>
</trkpt>
<trkpt lat="44.3179410" lon="9.1697160">
	<ele>229.20</ele>
	<time>2022-05-14T08:05:37.000Z</time>
</trkpt>
<trkpt lat="44.3179360" lon="9.1697250">
	<ele>228.60</ele>
	<time>2022-05-14T08:05:42.000Z</time>
</trkpt>
<trkpt lat="44.3179290" lon="9.1697300">
	<ele>228.20</ele>
	<time>2022-05-14T08:05:44.000Z</time>
</trkpt>
<trkpt lat="44.3179110" lon="9.1697440">
	<ele>227.40</ele>
	<time>2022-05-14T08:05:50.000Z</time>
</trkpt>
<trkpt lat="44.3179110" lon="9.1697440">
	<ele>227.20</ele>
	<time>2022-05-14T08:05:52.000Z</time>
</trkpt>
<trkpt lat="44.3179110" lon="9.1697440">
	<ele>226.20</ele>
	<time>2022-05-14T08:05:56.000Z</time>
</trkpt>
<trkpt lat="44.3179110" lon="9.1697440">
	<ele>226.00</ele>
	<time>2022-05-14T08:05:57.000Z</time>
</trkpt>
<trkpt lat="44.3179110" lon="9.1697440">
	<ele>225.80</ele>
	<time>2022-05-14T08:05:58.000Z</time>
</trkpt>
<trkpt lat="44.3179110" lon="9.1697440">
	<ele>225.60</ele>
	<time>2022-05-14T08:06:00.000Z</time>
</trkpt>
<trkpt lat="44.3179120" lon="9.1697440">
	<ele>225.40</ele>
	<time>2022-05-14T08:06:02.000Z</time>
</trkpt>
<trkpt lat="44.3179130" lon="9.1697440">
	<ele>224.80</ele>
	<time>2022-05-14T08:06:04.000Z</time>
</trkpt>
<trkpt lat="44.3179130" lon="9.1697500">
	<ele>224.00</ele>
	<time>2022-05-14T08:06:07.000Z</time>
</trkpt>
<trkpt lat="44.3179130" lon="9.1697560">
	<ele>223.60</ele>
	<time>2022-05-14T08:06:08.000Z</time>
</trkpt>
<trkpt lat="44.3179180" lon="9.1698180">
	<ele>222.80</ele>
	<time>2022-05-14T08:06:12.000Z</time>
</trkpt>
<trkpt lat="44.3179050" lon="9.1698690">
	<ele>222.40</ele>
	<time>2022-05-14T08:06:15.000Z</time>
</trkpt>
<trkpt lat="44.3178960" lon="9.1699260">
	<ele>222.20</ele>
	<time>2022-05-14T08:06:18.000Z</time>
</trkpt>
<trkpt lat="44.3178850" lon="9.1699470">
	<ele>222.20</ele>
	<time>2022-05-14T08:06:20.000Z</time>
</trkpt>
<trkpt lat="44.3178760" lon="9.1699300">
	<ele>221.40</ele>
	<time>2022-05-14T08:06:23.000Z</time>
</trkpt>
<trkpt lat="44.3178440" lon="9.1698860">
	<ele>220.40</ele>
	<time>2022-05-14T08:06:31.000Z</time>
</trkpt>
<trkpt lat="44.3178420" lon="9.1698960">
	<ele>219.20</ele>
	<time>2022-05-14T08:06:37.000Z</time>
</trkpt>
<trkpt lat="44.3178370" lon="9.1699210">
	<ele>218.00</ele>
	<time>2022-05-14T08:06:45.000Z</time>
</trkpt>
<trkpt lat="44.3178340" lon="9.1699230">
	<ele>217.00</ele>
	<time>2022-05-14T08:06:49.000Z</time>
</trkpt>
<trkpt lat="44.3178260" lon="9.1699760">
	<ele>216.00</ele>
	<time>2022-05-14T08:06:53.000Z</time>
</trkpt>
<trkpt lat="44.3178290" lon="9.1699880">
	<ele>215.80</ele>
	<time>2022-05-14T08:06:54.000Z</time>
</trkpt>
<trkpt lat="44.3178230" lon="9.1700430">
	<ele>215.00</ele>
	<time>2022-05-14T08:07:00.000Z</time>
</trkpt>
<trkpt lat="44.3178200" lon="9.1700490">
	<ele>214.80</ele>
	<time>2022-05-14T08:07:01.000Z</time>
</trkpt>
<trkpt lat="44.3177980" lon="9.1700120">
	<ele>214.00</ele>
	<time>2022-05-14T08:07:07.000Z</time>
</trkpt>
<trkpt lat="44.3177970" lon="9.1700000">
	<ele>213.80</ele>
	<time>2022-05-14T08:07:08.000Z</time>
</trkpt>
<trkpt lat="44.3177580" lon="9.1699530">
	<ele>213.00</ele>
	<time>2022-05-14T08:07:13.000Z</time>
</trkpt>
<trkpt lat="44.3177380" lon="9.1699390">
	<ele>212.60</ele>
	<time>2022-05-14T08:07:15.000Z</time>
</trkpt>
<trkpt lat="44.3177060" lon="9.1698820">
	<ele>212.00</ele>
	<time>2022-05-14T08:07:20.000Z</time>
</trkpt>
<trkpt lat="44.3177230" lon="9.1698090">
	<ele>211.60</ele>
	<time>2022-05-14T08:07:24.000Z</time>
</trkpt>
<trkpt lat="44.3177060" lon="9.1698050">
	<ele>211.40</ele>
	<time>2022-05-14T08:07:26.000Z</time>
</trkpt>
<trkpt lat="44.3176960" lon="9.1698130">
	<ele>211.40</ele>
	<time>2022-05-14T08:07:27.000Z</time>
</trkpt>
<trkpt lat="44.3176820" lon="9.1698470">
	<ele>211.00</ele>
	<time>2022-05-14T08:07:30.000Z</time>
</trkpt>
<trkpt lat="44.3176830" lon="9.1698560">
	<ele>210.80</ele>
	<time>2022-05-14T08:07:31.000Z</time>
</trkpt>
<trkpt lat="44.3176840" lon="9.1698690">
	<ele>210.60</ele>
	<time>2022-05-14T08:07:32.000Z</time>
</trkpt>
<trkpt lat="44.3176850" lon="9.1698790">
	<ele>210.20</ele>
	<time>2022-05-14T08:07:33.000Z</time>
</trkpt>
<trkpt lat="44.3176970" lon="9.1699120">
	<ele>209.60</ele>
	<time>2022-05-14T08:07:37.000Z</time>
</trkpt>
<trkpt lat="44.3176990" lon="9.1699190">
	<ele>209.40</ele>
	<time>2022-05-14T08:07:38.000Z</time>
</trkpt>
<trkpt lat="44.3177000" lon="9.1699200">
	<ele>209.20</ele>
	<time>2022-05-14T08:07:39.000Z</time>
</trkpt>
<trkpt lat="44.3177080" lon="9.1699540">
	<ele>208.80</ele>
	<time>2022-05-14T08:07:42.000Z</time>
</trkpt>
<trkpt lat="44.3177070" lon="9.1699660">
	<ele>208.60</ele>
	<time>2022-05-14T08:07:43.000Z</time>
</trkpt>
<trkpt lat="44.3177090" lon="9.1699770">
	<ele>208.60</ele>
	<time>2022-05-14T08:07:44.000Z</time>
</trkpt>
<trkpt lat="44.3177110" lon="9.1699950">
	<ele>208.40</ele>
	<time>2022-05-14T08:07:46.000Z</time>
</trkpt>
<trkpt lat="44.3177050" lon="9.1700190">
	<ele>208.20</ele>
	<time>2022-05-14T08:07:48.000Z</time>
</trkpt>
<trkpt lat="44.3177100" lon="9.1700640">
	<ele>207.80</ele>
	<time>2022-05-14T08:07:51.000Z</time>
</trkpt>
<trkpt lat="44.3177030" lon="9.1701230">
	<ele>207.20</ele>
	<time>2022-05-14T08:07:55.000Z</time>
</trkpt>
<trkpt lat="44.3176980" lon="9.1701350">
	<ele>207.00</ele>
	<time>2022-05-14T08:07:56.000Z</time>
</trkpt>
<trkpt lat="44.3176920" lon="9.1701980">
	<ele>206.20</ele>
	<time>2022-05-14T08:08:01.000Z</time>
</trkpt>
<trkpt lat="44.3176960" lon="9.1702680">
	<ele>205.60</ele>
	<time>2022-05-14T08:08:06.000Z</time>
</trkpt>
<trkpt lat="44.3176920" lon="9.1703100">
	<ele>205.20</ele>
	<time>2022-05-14T08:08:09.000Z</time>
</trkpt>
<trkpt lat="44.3176840" lon="9.1703510">
	<ele>204.60</ele>
	<time>2022-05-14T08:08:12.000Z</time>
</trkpt>
<trkpt lat="44.3176880" lon="9.1704010">
	<ele>204.00</ele>
	<time>2022-05-14T08:08:16.000Z</time>
</trkpt>
<trkpt lat="44.3176870" lon="9.1704280">
	<ele>203.60</ele>
	<time>2022-05-14T08:08:20.000Z</time>
</trkpt>
<trkpt lat="44.3176840" lon="9.1704260">
	<ele>203.40</ele>
	<time>2022-05-14T08:08:21.000Z</time>
</trkpt>
<trkpt lat="44.3176730" lon="9.1703990">
	<ele>203.20</ele>
	<time>2022-05-14T08:08:24.000Z</time>
</trkpt>
<trkpt lat="44.3176650" lon="9.1703910">
	<ele>203.00</ele>
	<time>2022-05-14T08:08:25.000Z</time>
</trkpt>
<trkpt lat="44.3176500" lon="9.1703680">
	<ele>202.60</ele>
	<time>2022-05-14T08:08:28.000Z</time>
</trkpt>
<trkpt lat="44.3176350" lon="9.1703390">
	<ele>201.80</ele>
	<time>2022-05-14T08:08:31.000Z</time>
</trkpt>
<trkpt lat="44.3176260" lon="9.1703180">
	<ele>201.60</ele>
	<time>2022-05-14T08:08:33.000Z</time>
</trkpt>
<trkpt lat="44.3176250" lon="9.1702970">
	<ele>201.20</ele>
	<time>2022-05-14T08:08:35.000Z</time>
</trkpt>
<trkpt lat="44.3176190" lon="9.1702510">
	<ele>200.80</ele>
	<time>2022-05-14T08:08:39.000Z</time>
</trkpt>
<trkpt lat="44.3176080" lon="9.1702260">
	<ele>200.40</ele>
	<time>2022-05-14T08:08:43.000Z</time>
</trkpt>
<trkpt lat="44.3175900" lon="9.1702230">
	<ele>199.80</ele>
	<time>2022-05-14T08:08:45.000Z</time>
</trkpt>
<trkpt lat="44.3175930" lon="9.1702520">
	<ele>199.20</ele>
	<time>2022-05-14T08:08:48.000Z</time>
</trkpt>
<trkpt lat="44.3176020" lon="9.1702820">
	<ele>198.80</ele>
	<time>2022-05-14T08:08:51.000Z</time>
</trkpt>
<trkpt lat="44.3175980" lon="9.1703540">
	<ele>197.60</ele>
	<time>2022-05-14T08:08:58.000Z</time>
</trkpt>
<trkpt lat="44.3175980" lon="9.1703980">
	<ele>196.80</ele>
	<time>2022-05-14T08:09:04.000Z</time>
</trkpt>
<trkpt lat="44.3176060" lon="9.1703870">
	<ele>196.60</ele>
	<time>2022-05-14T08:09:07.000Z</time>
</trkpt>
<trkpt lat="44.3175830" lon="9.1703840">
	<ele>195.80</ele>
	<time>2022-05-14T08:09:11.000Z</time>
</trkpt>
<trkpt lat="44.3175640" lon="9.1703750">
	<ele>195.40</ele>
	<time>2022-05-14T08:09:13.000Z</time>
</trkpt>
<trkpt lat="44.3175570" lon="9.1703690">
	<ele>195.20</ele>
	<time>2022-05-14T08:09:14.000Z</time>
</trkpt>
<trkpt lat="44.3175410" lon="9.1703280">
	<ele>194.20</ele>
	<time>2022-05-14T08:09:20.000Z</time>
</trkpt>
<trkpt lat="44.3175320" lon="9.1703120">
	<ele>194.00</ele>
	<time>2022-05-14T08:09:22.000Z</time>
</trkpt>
<trkpt lat="44.3175130" lon="9.1702490">
	<ele>193.20</ele>
	<time>2022-05-14T08:09:29.000Z</time>
</trkpt>
<trkpt lat="44.3175090" lon="9.1702420">
	<ele>193.00</ele>
	<time>2022-05-14T08:09:30.000Z</time>
</trkpt>
<trkpt lat="44.3174990" lon="9.1702640">
	<ele>192.40</ele>
	<time>2022-05-14T08:09:35.000Z</time>
</trkpt>
<trkpt lat="44.3175010" lon="9.1702790">
	<ele>192.00</ele>
	<time>2022-05-14T08:09:37.000Z</time>
</trkpt>
<trkpt lat="44.3174970" lon="9.1703040">
	<ele>191.20</ele>
	<time>2022-05-14T08:09:40.000Z</time>
</trkpt>
<trkpt lat="44.3175010" lon="9.1703150">
	<ele>191.00</ele>
	<time>2022-05-14T08:09:41.000Z</time>
</trkpt>
<trkpt lat="44.3175070" lon="9.1703500">
	<ele>190.60</ele>
	<time>2022-05-14T08:09:44.000Z</time>
</trkpt>
<trkpt lat="44.3174890" lon="9.1703980">
	<ele>189.80</ele>
	<time>2022-05-14T08:09:49.000Z</time>
</trkpt>
<trkpt lat="44.3174960" lon="9.1704290">
	<ele>189.20</ele>
	<time>2022-05-14T08:09:52.000Z</time>
</trkpt>
<trkpt lat="44.3174960" lon="9.1704680">
	<ele>188.80</ele>
	<time>2022-05-14T08:09:55.000Z</time>
</trkpt>
<trkpt lat="44.3174900" lon="9.1704580">
	<ele>188.00</ele>
	<time>2022-05-14T08:09:59.000Z</time>
</trkpt>
<trkpt lat="44.3174850" lon="9.1704340">
	<ele>187.60</ele>
	<time>2022-05-14T08:10:01.000Z</time>
</trkpt>
<trkpt lat="44.3174490" lon="9.1703900">
	<ele>187.00</ele>
	<time>2022-05-14T08:10:07.000Z</time>
</trkpt>
<trkpt lat="44.3174430" lon="9.1703730">
	<ele>186.60</ele>
	<time>2022-05-14T08:10:09.000Z</time>
</trkpt>
<trkpt lat="44.3174380" lon="9.1703560">
	<ele>186.20</ele>
	<time>2022-05-14T08:10:11.000Z</time>
</trkpt>
<trkpt lat="44.3174450" lon="9.1703270">
	<ele>185.60</ele>
	<time>2022-05-14T08:10:14.000Z</time>
</trkpt>
<trkpt lat="44.3174480" lon="9.1703170">
	<ele>185.20</ele>
	<time>2022-05-14T08:10:15.000Z</time>
</trkpt>
<trkpt lat="44.3174280" lon="9.1702850">
	<ele>184.20</ele>
	<time>2022-05-14T08:10:21.000Z</time>
</trkpt>
<trkpt lat="44.3174030" lon="9.1702990">
	<ele>183.20</ele>
	<time>2022-05-14T08:10:28.000Z</time>
</trkpt>
<trkpt lat="44.3174040" lon="9.1703040">
	<ele>183.00</ele>
	<time>2022-05-14T08:10:29.000Z</time>
</trkpt>
<trkpt lat="44.3174010" lon="9.1703500">
	<ele>182.20</ele>
	<time>2022-05-14T08:10:33.000Z</time>
</trkpt>
<trkpt lat="44.3173650" lon="9.1703710">
	<ele>181.80</ele>
	<time>2022-05-14T08:10:35.000Z</time>
</trkpt>
<trkpt lat="44.3173630" lon="9.1703910">
	<ele>181.60</ele>
	<time>2022-05-14T08:10:37.000Z</time>
</trkpt>
<trkpt lat="44.3174010" lon="9.1704210">
	<ele>181.00</ele>
	<time>2022-05-14T08:10:43.000Z</time>
</trkpt>
<trkpt lat="44.3174000" lon="9.1704360">
	<ele>180.60</ele>
	<time>2022-05-14T08:10:45.000Z</time>
</trkpt>
<trkpt lat="44.3174120" lon="9.1704710">
	<ele>180.00</ele>
	<time>2022-05-14T08:10:51.000Z</time>
</trkpt>
<trkpt lat="44.3174110" lon="9.1704810">
	<ele>179.80</ele>
	<time>2022-05-14T08:10:56.000Z</time>
</trkpt>
<trkpt lat="44.3174030" lon="9.1704770">
	<ele>179.40</ele>
	<time>2022-05-14T08:10:58.000Z</time>
</trkpt>
<trkpt lat="44.3173920" lon="9.1704650">
	<ele>178.80</ele>
	<time>2022-05-14T08:11:03.000Z</time>
</trkpt>
<trkpt lat="44.3173810" lon="9.1704630">
	<ele>178.40</ele>
	<time>2022-05-14T08:11:08.000Z</time>
</trkpt>
<trkpt lat="44.3173750" lon="9.1704840">
	<ele>177.60</ele>
	<time>2022-05-14T08:11:10.000Z</time>
</trkpt>
<trkpt lat="44.3173730" lon="9.1704970">
	<ele>177.40</ele>
	<time>2022-05-14T08:11:11.000Z</time>
</trkpt>
<trkpt lat="44.3174050" lon="9.1705220">
	<ele>176.40</ele>
	<time>2022-05-14T08:11:15.000Z</time>
</trkpt>
<trkpt lat="44.3173980" lon="9.1705300">
	<ele>176.40</ele>
	<time>2022-05-14T08:11:16.000Z</time>
</trkpt>
<trkpt lat="44.3173940" lon="9.1705190">
	<ele>176.00</ele>
	<time>2022-05-14T08:11:20.000Z</time>
</trkpt>
<trkpt lat="44.3173740" lon="9.1705160">
	<ele>175.20</ele>
	<time>2022-05-14T08:11:23.000Z</time>
</trkpt>
<trkpt lat="44.3173640" lon="9.1704940">
	<ele>174.80</ele>
	<time>2022-05-14T08:11:25.000Z</time>
</trkpt>
<trkpt lat="44.3173560" lon="9.1704790">
	<ele>174.20</ele>
	<time>2022-05-14T08:11:28.000Z</time>
</trkpt>
<trkpt lat="44.3173560" lon="9.1704790">
	<ele>174.20</ele>
	<time>2022-05-14T08:11:32.000Z</time>
</trkpt>
<trkpt lat="44.3173560" lon="9.1704790">
	<ele>173.80</ele>
	<time>2022-05-14T08:11:36.000Z</time>
</trkpt>
<trkpt lat="44.3173560" lon="9.1704790">
	<ele>173.20</ele>
	<time>2022-05-14T08:11:38.000Z</time>
</trkpt>
<trkpt lat="44.3173550" lon="9.1705260">
	<ele>172.00</ele>
	<time>2022-05-14T08:11:45.000Z</time>
</trkpt>
<trkpt lat="44.3173490" lon="9.1705510">
	<ele>171.20</ele>
	<time>2022-05-14T08:11:51.000Z</time>
</trkpt>
<trkpt lat="44.3173490" lon="9.1705410">
	<ele>170.80</ele>
	<time>2022-05-14T08:11:53.000Z</time>
</trkpt>
<trkpt lat="44.3173470" lon="9.1705330">
	<ele>170.60</ele>
	<time>2022-05-14T08:11:54.000Z</time>
</trkpt>
<trkpt lat="44.3173140" lon="9.1705140">
	<ele>169.80</ele>
	<time>2022-05-14T08:11:59.000Z</time>
</trkpt>
<trkpt lat="44.3173130" lon="9.1705110">
	<ele>169.80</ele>
	<time>2022-05-14T08:12:00.000Z</time>
</trkpt>
<trkpt lat="44.3173060" lon="9.1705250">
	<ele>169.20</ele>
	<time>2022-05-14T08:12:05.000Z</time>
</trkpt>
<trkpt lat="44.3173140" lon="9.1705600">
	<ele>168.60</ele>
	<time>2022-05-14T08:12:09.000Z</time>
</trkpt>
<trkpt lat="44.3173230" lon="9.1705760">
	<ele>168.20</ele>
	<time>2022-05-14T08:12:11.000Z</time>
</trkpt>
<trkpt lat="44.3173290" lon="9.1705970">
	<ele>167.60</ele>
	<time>2022-05-14T08:12:14.000Z</time>
</trkpt>
<trkpt lat="44.3173280" lon="9.1706250">
	<ele>167.00</ele>
	<time>2022-05-14T08:12:19.000Z</time>
</trkpt>
<trkpt lat="44.3173220" lon="9.1706350">
	<ele>166.40</ele>
	<time>2022-05-14T08:12:21.000Z</time>
</trkpt>
<trkpt lat="44.3172630" lon="9.1706230">
	<ele>165.40</ele>
	<time>2022-05-14T08:12:26.000Z</time>
</trkpt>
<trkpt lat="44.3172290" lon="9.1706030">
	<ele>164.60</ele>
	<time>2022-05-14T08:12:33.000Z</time>
</trkpt>
<trkpt lat="44.3172380" lon="9.1706180">
	<ele>163.80</ele>
	<time>2022-05-14T08:12:36.000Z</time>
</trkpt>
<trkpt lat="44.3172420" lon="9.1706250">
	<ele>163.40</ele>
	<time>2022-05-14T08:12:37.000Z</time>
</trkpt>
<trkpt lat="44.3172630" lon="9.1706420">
	<ele>162.60</ele>
	<time>2022-05-14T08:12:41.000Z</time>
</trkpt>
<trkpt lat="44.3172790" lon="9.1706730">
	<ele>161.80</ele>
	<time>2022-05-14T08:12:46.000Z</time>
</trkpt>
<trkpt lat="44.3172860" lon="9.1706780">
	<ele>161.60</ele>
	<time>2022-05-14T08:12:48.000Z</time>
</trkpt>
<trkpt lat="44.3172900" lon="9.1706870">
	<ele>161.20</ele>
	<time>2022-05-14T08:12:52.000Z</time>
</trkpt>
<trkpt lat="44.3172720" lon="9.1706950">
	<ele>160.80</ele>
	<time>2022-05-14T08:12:58.000Z</time>
</trkpt>
<trkpt lat="44.3172640" lon="9.1706940">
	<ele>160.60</ele>
	<time>2022-05-14T08:13:01.000Z</time>
</trkpt>
<trkpt lat="44.3172550" lon="9.1706720">
	<ele>159.80</ele>
	<time>2022-05-14T08:13:06.000Z</time>
</trkpt>
<trkpt lat="44.3172440" lon="9.1706910">
	<ele>159.40</ele>
	<time>2022-05-14T08:13:08.000Z</time>
</trkpt>
<trkpt lat="44.3172410" lon="9.1707140">
	<ele>158.80</ele>
	<time>2022-05-14T08:13:11.000Z</time>
</trkpt>
<trkpt lat="44.3172580" lon="9.1707340">
	<ele>158.20</ele>
	<time>2022-05-14T08:13:15.000Z</time>
</trkpt>
<trkpt lat="44.3172710" lon="9.1707480">
	<ele>157.60</ele>
	<time>2022-05-14T08:13:18.000Z</time>
</trkpt>
<trkpt lat="44.3172530" lon="9.1707780">
	<ele>157.00</ele>
	<time>2022-05-14T08:13:20.000Z</time>
</trkpt>
<trkpt lat="44.3172370" lon="9.1708210">
	<ele>156.00</ele>
	<time>2022-05-14T08:13:26.000Z</time>
</trkpt>
<trkpt lat="44.3172360" lon="9.1707990">
	<ele>155.20</ele>
	<time>2022-05-14T08:13:31.000Z</time>
</trkpt>
<trkpt lat="44.3172310" lon="9.1707930">
	<ele>154.80</ele>
	<time>2022-05-14T08:13:33.000Z</time>
</trkpt>
<trkpt lat="44.3172290" lon="9.1708120">
	<ele>153.60</ele>
	<time>2022-05-14T08:13:38.000Z</time>
</trkpt>
<trkpt lat="44.3172350" lon="9.1708210">
	<ele>153.20</ele>
	<time>2022-05-14T08:13:40.000Z</time>
</trkpt>
<trkpt lat="44.3172320" lon="9.1708710">
	<ele>152.40</ele>
	<time>2022-05-14T08:13:45.000Z</time>
</trkpt>
<trkpt lat="44.3172180" lon="9.1708990">
	<ele>151.80</ele>
	<time>2022-05-14T08:13:48.000Z</time>
</trkpt>
<trkpt lat="44.3172120" lon="9.1709180">
	<ele>151.20</ele>
	<time>2022-05-14T08:13:50.000Z</time>
</trkpt>
<trkpt lat="44.3171990" lon="9.1709760">
	<ele>150.40</ele>
	<time>2022-05-14T08:13:55.000Z</time>
</trkpt>
<trkpt lat="44.3171950" lon="9.1709880">
	<ele>150.20</ele>
	<time>2022-05-14T08:13:56.000Z</time>
</trkpt>
<trkpt lat="44.3171570" lon="9.1710730">
	<ele>149.00</ele>
	<time>2022-05-14T08:14:03.000Z</time>
</trkpt>
<trkpt lat="44.3171510" lon="9.1711030">
	<ele>148.60</ele>
	<time>2022-05-14T08:14:05.000Z</time>
</trkpt>
<trkpt lat="44.3171280" lon="9.1711530">
	<ele>148.00</ele>
	<time>2022-05-14T08:14:09.000Z</time>
</trkpt>
<trkpt lat="44.3170980" lon="9.1712420">
	<ele>147.40</ele>
	<time>2022-05-14T08:14:15.000Z</time>
</trkpt>
<trkpt lat="44.3170830" lon="9.1712920">
	<ele>147.00</ele>
	<time>2022-05-14T08:14:19.000Z</time>
</trkpt>
<trkpt lat="44.3170550" lon="9.1713440">
	<ele>146.20</ele>
	<time>2022-05-14T08:14:24.000Z</time>
</trkpt>
<trkpt lat="44.3170510" lon="9.1713630">
	<ele>146.00</ele>
	<time>2022-05-14T08:14:26.000Z</time>
</trkpt>
<trkpt lat="44.3170460" lon="9.1713800">
	<ele>145.60</ele>
	<time>2022-05-14T08:14:28.000Z</time>
</trkpt>
<trkpt lat="44.3170300" lon="9.1714020">
	<ele>145.20</ele>
	<time>2022-05-14T08:14:32.000Z</time>
</trkpt>
<trkpt lat="44.3170330" lon="9.1714070">
	<ele>145.00</ele>
	<time>2022-05-14T08:14:33.000Z</time>
</trkpt>
<trkpt lat="44.3170330" lon="9.1714130">
	<ele>144.40</ele>
	<time>2022-05-14T08:14:36.000Z</time>
</trkpt>
<trkpt lat="44.3170300" lon="9.1714140">
	<ele>144.40</ele>
	<time>2022-05-14T08:14:37.000Z</time>
</trkpt>
<trkpt lat="44.3170230" lon="9.1714020">
	<ele>143.80</ele>
	<time>2022-05-14T08:14:40.000Z</time>
</trkpt>
<trkpt lat="44.3170220" lon="9.1713920">
	<ele>143.40</ele>
	<time>2022-05-14T08:14:41.000Z</time>
</trkpt>
<trkpt lat="44.3170230" lon="9.1713870">
	<ele>143.40</ele>
	<time>2022-05-14T08:14:42.000Z</time>
</trkpt>
<trkpt lat="44.3170260" lon="9.1713630">
	<ele>142.80</ele>
	<time>2022-05-14T08:14:45.000Z</time>
</trkpt>
<trkpt lat="44.3170270" lon="9.1713560">
	<ele>142.60</ele>
	<time>2022-05-14T08:14:46.000Z</time>
</trkpt>
<trkpt lat="44.3170260" lon="9.1713450">
	<ele>142.40</ele>
	<time>2022-05-14T08:14:48.000Z</time>
</trkpt>
<trkpt lat="44.3170250" lon="9.1713350">
	<ele>142.40</ele>
	<time>2022-05-14T08:14:50.000Z</time>
</trkpt>
<trkpt lat="44.3170150" lon="9.1713060">
	<ele>141.60</ele>
	<time>2022-05-14T08:14:56.000Z</time>
</trkpt>
<trkpt lat="44.3170150" lon="9.1713060">
	<ele>141.40</ele>
	<time>2022-05-14T08:14:57.000Z</time>
</trkpt>
<trkpt lat="44.3170020" lon="9.1713150">
	<ele>140.40</ele>
	<time>2022-05-14T08:15:00.000Z</time>
</trkpt>
<trkpt lat="44.3169910" lon="9.1713290">
	<ele>139.80</ele>
	<time>2022-05-14T08:15:02.000Z</time>
</trkpt>
<trkpt lat="44.3169830" lon="9.1713480">
	<ele>139.20</ele>
	<time>2022-05-14T08:15:04.000Z</time>
</trkpt>
<trkpt lat="44.3169750" lon="9.1713980">
	<ele>138.60</ele>
	<time>2022-05-14T08:15:09.000Z</time>
</trkpt>
<trkpt lat="44.3169730" lon="9.1714060">
	<ele>138.40</ele>
	<time>2022-05-14T08:15:10.000Z</time>
</trkpt>
<trkpt lat="44.3169710" lon="9.1714110">
	<ele>138.20</ele>
	<time>2022-05-14T08:15:11.000Z</time>
</trkpt>
<trkpt lat="44.3169700" lon="9.1714170">
	<ele>138.20</ele>
	<time>2022-05-14T08:15:12.000Z</time>
</trkpt>
<trkpt lat="44.3169620" lon="9.1714330">
	<ele>137.80</ele>
	<time>2022-05-14T08:15:15.000Z</time>
</trkpt>
<trkpt lat="44.3169550" lon="9.1714420">
	<ele>137.60</ele>
	<time>2022-05-14T08:15:16.000Z</time>
</trkpt>
<trkpt lat="44.3169460" lon="9.1714520">
	<ele>137.20</ele>
	<time>2022-05-14T08:15:18.000Z</time>
</trkpt>
<trkpt lat="44.3169410" lon="9.1714530">
	<ele>137.20</ele>
	<time>2022-05-14T08:15:19.000Z</time>
</trkpt>
<trkpt lat="44.3169300" lon="9.1714520">
	<ele>136.20</ele>
	<time>2022-05-14T08:15:24.000Z</time>
</trkpt>
<trkpt lat="44.3169300" lon="9.1714540">
	<ele>136.00</ele>
	<time>2022-05-14T08:15:25.000Z</time>
</trkpt>
<trkpt lat="44.3169350" lon="9.1714490">
	<ele>135.60</ele>
	<time>2022-05-14T08:15:27.000Z</time>
</trkpt>
<trkpt lat="44.3169320" lon="9.1714480">
	<ele>135.20</ele>
	<time>2022-05-14T08:15:29.000Z</time>
</trkpt>
<trkpt lat="44.3169470" lon="9.1714380">
	<ele>135.00</ele>
	<time>2022-05-14T08:15:34.000Z</time>
</trkpt>
<trkpt lat="44.3169440" lon="9.1714400">
	<ele>135.00</ele>
	<time>2022-05-14T08:15:39.000Z</time>
</trkpt>
<trkpt lat="44.3169440" lon="9.1714400">
	<ele>134.00</ele>
	<time>2022-05-14T08:15:45.000Z</time>
</trkpt>
<trkpt lat="44.3169160" lon="9.1714710">
	<ele>133.40</ele>
	<time>2022-05-14T08:15:48.000Z</time>
</trkpt>
<trkpt lat="44.3168990" lon="9.1714900">
	<ele>133.40</ele>
	<time>2022-05-14T08:15:50.000Z</time>
</trkpt>
<trkpt lat="44.3168830" lon="9.1715330">
	<ele>133.00</ele>
	<time>2022-05-14T08:15:53.000Z</time>
</trkpt>
<trkpt lat="44.3168540" lon="9.1716020">
	<ele>132.20</ele>
	<time>2022-05-14T08:15:59.000Z</time>
</trkpt>
<trkpt lat="44.3168520" lon="9.1716150">
	<ele>132.00</ele>
	<time>2022-05-14T08:16:01.000Z</time>
</trkpt>
<trkpt lat="44.3168470" lon="9.1716490">
	<ele>131.40</ele>
	<time>2022-05-14T08:16:05.000Z</time>
</trkpt>
<trkpt lat="44.3168430" lon="9.1716550">
	<ele>131.20</ele>
	<time>2022-05-14T08:16:06.000Z</time>
</trkpt>
<trkpt lat="44.3168350" lon="9.1716670">
	<ele>131.00</ele>
	<time>2022-05-14T08:16:08.000Z</time>
</trkpt>
<trkpt lat="44.3168300" lon="9.1716750">
	<ele>130.80</ele>
	<time>2022-05-14T08:16:09.000Z</time>
</trkpt>
<trkpt lat="44.3168310" lon="9.1716720">
	<ele>130.20</ele>
	<time>2022-05-14T08:16:12.000Z</time>
</trkpt>
<trkpt lat="44.3168310" lon="9.1716640">
	<ele>130.00</ele>
	<time>2022-05-14T08:16:13.000Z</time>
</trkpt>
<trkpt lat="44.3168380" lon="9.1716240">
	<ele>129.80</ele>
	<time>2022-05-14T08:16:15.000Z</time>
</trkpt>
<trkpt lat="44.3168360" lon="9.1715880">
	<ele>128.80</ele>
	<time>2022-05-14T08:16:21.000Z</time>
</trkpt>
<trkpt lat="44.3168340" lon="9.1715840">
	<ele>128.60</ele>
	<time>2022-05-14T08:16:22.000Z</time>
</trkpt>
<trkpt lat="44.3168040" lon="9.1715940">
	<ele>127.60</ele>
	<time>2022-05-14T08:16:27.000Z</time>
</trkpt>
<trkpt lat="44.3168000" lon="9.1716000">
	<ele>127.40</ele>
	<time>2022-05-14T08:16:28.000Z</time>
</trkpt>
<trkpt lat="44.3167910" lon="9.1716620">
	<ele>126.40</ele>
	<time>2022-05-14T08:16:33.000Z</time>
</trkpt>
<trkpt lat="44.3167710" lon="9.1716940">
	<ele>126.00</ele>
	<time>2022-05-14T08:16:37.000Z</time>
</trkpt>
<trkpt lat="44.3167450" lon="9.1717150">
	<ele>125.20</ele>
	<time>2022-05-14T08:16:41.000Z</time>
</trkpt>
<trkpt lat="44.3167240" lon="9.1717460">
	<ele>125.00</ele>
	<time>2022-05-14T08:16:44.000Z</time>
</trkpt>
<trkpt lat="44.3166920" lon="9.1717920">
	<ele>124.20</ele>
	<time>2022-05-14T08:16:49.000Z</time>
</trkpt>
<trkpt lat="44.3166800" lon="9.1718140">
	<ele>123.60</ele>
	<time>2022-05-14T08:16:52.000Z</time>
</trkpt>
<trkpt lat="44.3166470" lon="9.1718300">
	<ele>123.00</ele>
	<time>2022-05-14T08:16:55.000Z</time>
</trkpt>
<trkpt lat="44.3166270" lon="9.1718740">
	<ele>122.40</ele>
	<time>2022-05-14T08:16:59.000Z</time>
</trkpt>
<trkpt lat="44.3166060" lon="9.1719040">
	<ele>122.00</ele>
	<time>2022-05-14T08:17:03.000Z</time>
</trkpt>
<trkpt lat="44.3165940" lon="9.1719180">
	<ele>121.60</ele>
	<time>2022-05-14T08:17:05.000Z</time>
</trkpt>
<trkpt lat="44.3165740" lon="9.1719370">
	<ele>121.00</ele>
	<time>2022-05-14T08:17:08.000Z</time>
</trkpt>
<trkpt lat="44.3165690" lon="9.1719490">
	<ele>120.60</ele>
	<time>2022-05-14T08:17:09.000Z</time>
</trkpt>
<trkpt lat="44.3165610" lon="9.1719710">
	<ele>120.20</ele>
	<time>2022-05-14T08:17:11.000Z</time>
</trkpt>
<trkpt lat="44.3165470" lon="9.1720110">
	<ele>119.80</ele>
	<time>2022-05-14T08:17:14.000Z</time>
</trkpt>
<trkpt lat="44.3165290" lon="9.1720390">
	<ele>119.20</ele>
	<time>2022-05-14T08:17:18.000Z</time>
</trkpt>
<trkpt lat="44.3165240" lon="9.1720470">
	<ele>119.20</ele>
	<time>2022-05-14T08:17:20.000Z</time>
</trkpt>
<trkpt lat="44.3165200" lon="9.1720550">
	<ele>118.80</ele>
	<time>2022-05-14T08:17:22.000Z</time>
</trkpt>
<trkpt lat="44.3165170" lon="9.1720600">
	<ele>118.60</ele>
	<time>2022-05-14T08:17:23.000Z</time>
</trkpt>
<trkpt lat="44.3165160" lon="9.1720650">
	<ele>118.40</ele>
	<time>2022-05-14T08:17:24.000Z</time>
</trkpt>
<trkpt lat="44.3165140" lon="9.1720760">
	<ele>118.00</ele>
	<time>2022-05-14T08:17:27.000Z</time>
</trkpt>
<trkpt lat="44.3165250" lon="9.1720540">
	<ele>117.60</ele>
	<time>2022-05-14T08:17:30.000Z</time>
</trkpt>
<trkpt lat="44.3165240" lon="9.1720440">
	<ele>117.60</ele>
	<time>2022-05-14T08:17:31.000Z</time>
</trkpt>
<trkpt lat="44.3165290" lon="9.1720350">
	<ele>117.40</ele>
	<time>2022-05-14T08:17:32.000Z</time>
</trkpt>
<trkpt lat="44.3165290" lon="9.1720100">
	<ele>117.00</ele>
	<time>2022-05-14T08:17:34.000Z</time>
</trkpt>
<trkpt lat="44.3165280" lon="9.1720010">
	<ele>116.60</ele>
	<time>2022-05-14T08:17:35.000Z</time>
</trkpt>
<trkpt lat="44.3165280" lon="9.1719730">
	<ele>116.40</ele>
	<time>2022-05-14T08:17:37.000Z</time>
</trkpt>
<trkpt lat="44.3165190" lon="9.1719730">
	<ele>116.20</ele>
	<time>2022-05-14T08:17:38.000Z</time>
</trkpt>
<trkpt lat="44.3165040" lon="9.1719920">
	<ele>115.40</ele>
	<time>2022-05-14T08:17:41.000Z</time>
</trkpt>
<trkpt lat="44.3164980" lon="9.1720020">
	<ele>115.20</ele>
	<time>2022-05-14T08:17:42.000Z</time>
</trkpt>
<trkpt lat="44.3164660" lon="9.1720890">
	<ele>114.00</ele>
	<time>2022-05-14T08:17:49.000Z</time>
</trkpt>
<trkpt lat="44.3164620" lon="9.1721040">
	<ele>114.00</ele>
	<time>2022-05-14T08:17:50.000Z</time>
</trkpt>
<trkpt lat="44.3164460" lon="9.1721480">
	<ele>113.80</ele>
	<time>2022-05-14T08:17:53.000Z</time>
</trkpt>
<trkpt lat="44.3164220" lon="9.1721960">
	<ele>113.00</ele>
	<time>2022-05-14T08:17:58.000Z</time>
</trkpt>
<trkpt lat="44.3164170" lon="9.1722140">
	<ele>112.80</ele>
	<time>2022-05-14T08:18:00.000Z</time>
</trkpt>
<trkpt lat="44.3164050" lon="9.1722590">
	<ele>112.00</ele>
	<time>2022-05-14T08:18:05.000Z</time>
</trkpt>
<trkpt lat="44.3164040" lon="9.1722640">
	<ele>111.60</ele>
	<time>2022-05-14T08:18:06.000Z</time>
</trkpt>
<trkpt lat="44.3164040" lon="9.1722740">
	<ele>111.40</ele>
	<time>2022-05-14T08:18:08.000Z</time>
</trkpt>
<trkpt lat="44.3164020" lon="9.1722700">
	<ele>111.20</ele>
	<time>2022-05-14T08:18:10.000Z</time>
</trkpt>
<trkpt lat="44.3163960" lon="9.1722570">
	<ele>110.80</ele>
	<time>2022-05-14T08:18:13.000Z</time>
</trkpt>
<trkpt lat="44.3163900" lon="9.1722550">
	<ele>110.60</ele>
	<time>2022-05-14T08:18:14.000Z</time>
</trkpt>
<trkpt lat="44.3163890" lon="9.1722500">
	<ele>109.80</ele>
	<time>2022-05-14T08:18:18.000Z</time>
</trkpt>
<trkpt lat="44.3163970" lon="9.1722480">
	<ele>109.60</ele>
	<time>2022-05-14T08:18:22.000Z</time>
</trkpt>
<trkpt lat="44.3163780" lon="9.1722560">
	<ele>109.00</ele>
	<time>2022-05-14T08:18:31.000Z</time>
</trkpt>
<trkpt lat="44.3163640" lon="9.1722620">
	<ele>108.80</ele>
	<time>2022-05-14T08:18:33.000Z</time>
</trkpt>
<trkpt lat="44.3163420" lon="9.1722740">
	<ele>108.20</ele>
	<time>2022-05-14T08:18:37.000Z</time>
</trkpt>
<trkpt lat="44.3163350" lon="9.1722980">
	<ele>107.60</ele>
	<time>2022-05-14T08:18:39.000Z</time>
</trkpt>
<trkpt lat="44.3163360" lon="9.1723460">
	<ele>107.00</ele>
	<time>2022-05-14T08:18:44.000Z</time>
</trkpt>
<trkpt lat="44.3163720" lon="9.1723640">
	<ele>106.60</ele>
	<time>2022-05-14T08:18:50.000Z</time>
</trkpt>
<trkpt lat="44.3163750" lon="9.1723710">
	<ele>106.60</ele>
	<time>2022-05-14T08:18:51.000Z</time>
</trkpt>
<trkpt lat="44.3163910" lon="9.1724040">
	<ele>105.40</ele>
	<time>2022-05-14T08:18:56.000Z</time>
</trkpt>
<trkpt lat="44.3163960" lon="9.1724430">
	<ele>104.80</ele>
	<time>2022-05-14T08:19:01.000Z</time>
</trkpt>
<trkpt lat="44.3163800" lon="9.1724540">
	<ele>104.40</ele>
	<time>2022-05-14T08:19:05.000Z</time>
</trkpt>
<trkpt lat="44.3163760" lon="9.1724420">
	<ele>103.80</ele>
	<time>2022-05-14T08:19:07.000Z</time>
</trkpt>
<trkpt lat="44.3163560" lon="9.1724680">
	<ele>103.40</ele>
	<time>2022-05-14T08:19:12.000Z</time>
</trkpt>
<trkpt lat="44.3163650" lon="9.1724730">
	<ele>103.00</ele>
	<time>2022-05-14T08:19:13.000Z</time>
</trkpt>
<trkpt lat="44.3163830" lon="9.1724840">
	<ele>101.80</ele>
	<time>2022-05-14T08:19:18.000Z</time>
</trkpt>
<trkpt lat="44.3163730" lon="9.1725080">
	<ele>100.40</ele>
	<time>2022-05-14T08:19:24.000Z</time>
</trkpt>
<trkpt lat="44.3163980" lon="9.1725170">
	<ele>99.40</ele>
	<time>2022-05-14T08:19:28.000Z</time>
</trkpt>
<trkpt lat="44.3164080" lon="9.1725250">
	<ele>99.20</ele>
	<time>2022-05-14T08:19:29.000Z</time>
</trkpt>
<trkpt lat="44.3164500" lon="9.1725520">
	<ele>98.60</ele>
	<time>2022-05-14T08:19:34.000Z</time>
</trkpt>
<trkpt lat="44.3164570" lon="9.1725600">
	<ele>98.40</ele>
	<time>2022-05-14T08:19:35.000Z</time>
</trkpt>
<trkpt lat="44.3164640" lon="9.1725700">
	<ele>98.40</ele>
	<time>2022-05-14T08:19:36.000Z</time>
</trkpt>
<trkpt lat="44.3164720" lon="9.1725760">
	<ele>98.20</ele>
	<time>2022-05-14T08:19:37.000Z</time>
</trkpt>
<trkpt lat="44.3164730" lon="9.1725850">
	<ele>98.20</ele>
	<time>2022-05-14T08:19:38.000Z</time>
</trkpt>
<trkpt lat="44.3164900" lon="9.1726020">
	<ele>97.40</ele>
	<time>2022-05-14T08:19:41.000Z</time>
</trkpt>
<trkpt lat="44.3164980" lon="9.1726050">
	<ele>97.20</ele>
	<time>2022-05-14T08:19:42.000Z</time>
</trkpt>
<trkpt lat="44.3165100" lon="9.1726100">
	<ele>97.20</ele>
	<time>2022-05-14T08:19:43.000Z</time>
</trkpt>
<trkpt lat="44.3165260" lon="9.1726510">
	<ele>96.80</ele>
	<time>2022-05-14T08:19:46.000Z</time>
</trkpt>
<trkpt lat="44.3165210" lon="9.1726650">
	<ele>96.80</ele>
	<time>2022-05-14T08:19:47.000Z</time>
</trkpt>
<trkpt lat="44.3165020" lon="9.1726920">
	<ele>96.60</ele>
	<time>2022-05-14T08:19:49.000Z</time>
</trkpt>
<trkpt lat="44.3164940" lon="9.1727010">
	<ele>96.40</ele>
	<time>2022-05-14T08:19:50.000Z</time>
</trkpt>
<trkpt lat="44.3164830" lon="9.1727030">
	<ele>96.20</ele>
	<time>2022-05-14T08:19:51.000Z</time>
</trkpt>
<trkpt lat="44.3164530" lon="9.1726910">
	<ele>95.40</ele>
	<time>2022-05-14T08:19:55.000Z</time>
</trkpt>
<trkpt lat="44.3164440" lon="9.1726890">
	<ele>95.20</ele>
	<time>2022-05-14T08:19:56.000Z</time>
</trkpt>
<trkpt lat="44.3164370" lon="9.1726850">
	<ele>95.00</ele>
	<time>2022-05-14T08:19:57.000Z</time>
</trkpt>
<trkpt lat="44.3164130" lon="9.1726800">
	<ele>94.60</ele>
	<time>2022-05-14T08:20:00.000Z</time>
</trkpt>
<trkpt lat="44.3163690" lon="9.1726850">
	<ele>94.00</ele>
	<time>2022-05-14T08:20:03.000Z</time>
</trkpt>
<trkpt lat="44.3163560" lon="9.1726810">
	<ele>93.80</ele>
	<time>2022-05-14T08:20:04.000Z</time>
</trkpt>
<trkpt lat="44.3163360" lon="9.1726790">
	<ele>93.00</ele>
	<time>2022-05-14T08:20:09.000Z</time>
</trkpt>
<trkpt lat="44.3163360" lon="9.1726740">
	<ele>92.80</ele>
	<time>2022-05-14T08:20:10.000Z</time>
</trkpt>
<trkpt lat="44.3163170" lon="9.1726570">
	<ele>92.40</ele>
	<time>2022-05-14T08:20:13.000Z</time>
</trkpt>
<trkpt lat="44.3163100" lon="9.1726510">
	<ele>92.20</ele>
	<time>2022-05-14T08:20:14.000Z</time>
</trkpt>
<trkpt lat="44.3162930" lon="9.1726460">
	<ele>91.80</ele>
	<time>2022-05-14T08:20:16.000Z</time>
</trkpt>
<trkpt lat="44.3162870" lon="9.1726420">
	<ele>91.60</ele>
	<time>2022-05-14T08:20:17.000Z</time>
</trkpt>
<trkpt lat="44.3162590" lon="9.1726300">
	<ele>90.80</ele>
	<time>2022-05-14T08:20:22.000Z</time>
</trkpt>
<trkpt lat="44.3162520" lon="9.1726220">
	<ele>90.60</ele>
	<time>2022-05-14T08:20:23.000Z</time>
</trkpt>
<trkpt lat="44.3162130" lon="9.1726030">
	<ele>89.60</ele>
	<time>2022-05-14T08:20:28.000Z</time>
</trkpt>
<trkpt lat="44.3161950" lon="9.1725990">
	<ele>89.00</ele>
	<time>2022-05-14T08:20:31.000Z</time>
</trkpt>
<trkpt lat="44.3161890" lon="9.1726030">
	<ele>88.40</ele>
	<time>2022-05-14T08:20:33.000Z</time>
</trkpt>
<trkpt lat="44.3161560" lon="9.1725790">
	<ele>87.60</ele>
	<time>2022-05-14T08:20:38.000Z</time>
</trkpt>
<trkpt lat="44.3161500" lon="9.1725730">
	<ele>87.40</ele>
	<time>2022-05-14T08:20:39.000Z</time>
</trkpt>
<trkpt lat="44.3161340" lon="9.1725410">
	<ele>86.80</ele>
	<time>2022-05-14T08:20:43.000Z</time>
</trkpt>
<trkpt lat="44.3161370" lon="9.1725220">
	<ele>86.40</ele>
	<time>2022-05-14T08:20:45.000Z</time>
</trkpt>
<trkpt lat="44.3161320" lon="9.1724840">
	<ele>85.80</ele>
	<time>2022-05-14T08:20:49.000Z</time>
</trkpt>
<trkpt lat="44.3161370" lon="9.1724470">
	<ele>85.20</ele>
	<time>2022-05-14T08:20:52.000Z</time>
</trkpt>
<trkpt lat="44.3161210" lon="9.1724210">
	<ele>84.40</ele>
	<time>2022-05-14T08:20:57.000Z</time>
</trkpt>
<trkpt lat="44.3161130" lon="9.1724140">
	<ele>84.20</ele>
	<time>2022-05-14T08:20:58.000Z</time>
</trkpt>
<trkpt lat="44.3161110" lon="9.1723650">
	<ele>83.40</ele>
	<time>2022-05-14T08:21:03.000Z</time>
</trkpt>
<trkpt lat="44.3161030" lon="9.1723460">
	<ele>83.00</ele>
	<time>2022-05-14T08:21:05.000Z</time>
</trkpt>
<trkpt lat="44.3161030" lon="9.1722790">
	<ele>82.40</ele>
	<time>2022-05-14T08:21:11.000Z</time>
</trkpt>
<trkpt lat="44.3160950" lon="9.1722560">
	<ele>81.80</ele>
	<time>2022-05-14T08:21:14.000Z</time>
</trkpt>
<trkpt lat="44.3160990" lon="9.1722300">
	<ele>81.40</ele>
	<time>2022-05-14T08:21:17.000Z</time>
</trkpt>
<trkpt lat="44.3160860" lon="9.1722070">
	<ele>80.60</ele>
	<time>2022-05-14T08:21:21.000Z</time>
</trkpt>
<trkpt lat="44.3160690" lon="9.1722200">
	<ele>80.20</ele>
	<time>2022-05-14T08:21:23.000Z</time>
</trkpt>
<trkpt lat="44.3160600" lon="9.1722470">
	<ele>79.60</ele>
	<time>2022-05-14T08:21:27.000Z</time>
</trkpt>
<trkpt lat="44.3160490" lon="9.1722580">
	<ele>79.20</ele>
	<time>2022-05-14T08:21:30.000Z</time>
</trkpt>
<trkpt lat="44.3160350" lon="9.1722870">
	<ele>78.60</ele>
	<time>2022-05-14T08:21:33.000Z</time>
</trkpt>
<trkpt lat="44.3160130" lon="9.1723550">
	<ele>77.80</ele>
	<time>2022-05-14T08:21:39.000Z</time>
</trkpt>
<trkpt lat="44.3160090" lon="9.1723760">
	<ele>77.40</ele>
	<time>2022-05-14T08:21:41.000Z</time>
</trkpt>
<trkpt lat="44.3159970" lon="9.1724210">
	<ele>76.40</ele>
	<time>2022-05-14T08:21:45.000Z</time>
</trkpt>
<trkpt lat="44.3159860" lon="9.1724420">
	<ele>76.20</ele>
	<time>2022-05-14T08:21:47.000Z</time>
</trkpt>
<trkpt lat="44.3159820" lon="9.1724630">
	<ele>76.00</ele>
	<time>2022-05-14T08:21:49.000Z</time>
</trkpt>
<trkpt lat="44.3159720" lon="9.1724950">
	<ele>75.40</ele>
	<time>2022-05-14T08:21:52.000Z</time>
</trkpt>
<trkpt lat="44.3159690" lon="9.1725040">
	<ele>75.20</ele>
	<time>2022-05-14T08:21:53.000Z</time>
</trkpt>
<trkpt lat="44.3159640" lon="9.1725140">
	<ele>75.00</ele>
	<time>2022-05-14T08:21:54.000Z</time>
</trkpt>
<trkpt lat="44.3159520" lon="9.1725530">
	<ele>74.40</ele>
	<time>2022-05-14T08:21:59.000Z</time>
</trkpt>
<trkpt lat="44.3159310" lon="9.1726150">
	<ele>73.40</ele>
	<time>2022-05-14T08:22:05.000Z</time>
</trkpt>
<trkpt lat="44.3159190" lon="9.1726390">
	<ele>72.80</ele>
	<time>2022-05-14T08:22:08.000Z</time>
</trkpt>
<trkpt lat="44.3159120" lon="9.1726540">
	<ele>72.20</ele>
	<time>2022-05-14T08:22:10.000Z</time>
</trkpt>
<trkpt lat="44.3159050" lon="9.1727150">
	<ele>71.40</ele>
	<time>2022-05-14T08:22:15.000Z</time>
</trkpt>
<trkpt lat="44.3158920" lon="9.1727530">
	<ele>71.00</ele>
	<time>2022-05-14T08:22:17.000Z</time>
</trkpt>
<trkpt lat="44.3158700" lon="9.1727960">
	<ele>70.60</ele>
	<time>2022-05-14T08:22:21.000Z</time>
</trkpt>
<trkpt lat="44.3158560" lon="9.1728060">
	<ele>70.40</ele>
	<time>2022-05-14T08:22:22.000Z</time>
</trkpt>
<trkpt lat="44.3158430" lon="9.1728280">
	<ele>70.00</ele>
	<time>2022-05-14T08:22:24.000Z</time>
</trkpt>
<trkpt lat="44.3158400" lon="9.1728430">
	<ele>69.60</ele>
	<time>2022-05-14T08:22:26.000Z</time>
</trkpt>
<trkpt lat="44.3158280" lon="9.1728560">
	<ele>69.40</ele>
	<time>2022-05-14T08:22:28.000Z</time>
</trkpt>
<trkpt lat="44.3158210" lon="9.1728720">
	<ele>68.80</ele>
	<time>2022-05-14T08:22:31.000Z</time>
</trkpt>
<trkpt lat="44.3158200" lon="9.1728750">
	<ele>68.60</ele>
	<time>2022-05-14T08:22:32.000Z</time>
</trkpt>
<trkpt lat="44.3158170" lon="9.1728840">
	<ele>68.60</ele>
	<time>2022-05-14T08:22:34.000Z</time>
</trkpt>
<trkpt lat="44.3158100" lon="9.1728930">
	<ele>67.80</ele>
	<time>2022-05-14T08:22:38.000Z</time>
</trkpt>
<trkpt lat="44.3158020" lon="9.1729080">
	<ele>67.40</ele>
	<time>2022-05-14T08:22:40.000Z</time>
</trkpt>
<trkpt lat="44.3158010" lon="9.1729860">
	<ele>67.00</ele>
	<time>2022-05-14T08:22:47.000Z</time>
</trkpt>
<trkpt lat="44.3158240" lon="9.1730390">
	<ele>66.60</ele>
	<time>2022-05-14T08:22:51.000Z</time>
</trkpt>
<trkpt lat="44.3158370" lon="9.1730620">
	<ele>66.60</ele>
	<time>2022-05-14T08:22:54.000Z</time>
</trkpt>
<trkpt lat="44.3158630" lon="9.1730620">
	<ele>66.20</ele>
	<time>2022-05-14T08:22:58.000Z</time>
</trkpt>
<trkpt lat="44.3158680" lon="9.1730640">
	<ele>65.80</ele>
	<time>2022-05-14T08:23:00.000Z</time>
</trkpt>
<trkpt lat="44.3158670" lon="9.1730660">
	<ele>65.40</ele>
	<time>2022-05-14T08:23:01.000Z</time>
</trkpt>
<trkpt lat="44.3158740" lon="9.1730840">
	<ele>64.40</ele>
	<time>2022-05-14T08:23:04.000Z</time>
</trkpt>
<trkpt lat="44.3158930" lon="9.1730900">
	<ele>63.80</ele>
	<time>2022-05-14T08:23:06.000Z</time>
</trkpt>
<trkpt lat="44.3159050" lon="9.1731010">
	<ele>63.20</ele>
	<time>2022-05-14T08:23:08.000Z</time>
</trkpt>
<trkpt lat="44.3158920" lon="9.1731280">
	<ele>62.40</ele>
	<time>2022-05-14T08:23:11.000Z</time>
</trkpt>
<trkpt lat="44.3158950" lon="9.1731370">
	<ele>62.20</ele>
	<time>2022-05-14T08:23:12.000Z</time>
</trkpt>
<trkpt lat="44.3159320" lon="9.1731590">
	<ele>61.20</ele>
	<time>2022-05-14T08:23:16.000Z</time>
</trkpt>
<trkpt lat="44.3159400" lon="9.1731660">
	<ele>61.00</ele>
	<time>2022-05-14T08:23:17.000Z</time>
</trkpt>
<trkpt lat="44.3159500" lon="9.1731790">
	<ele>60.60</ele>
	<time>2022-05-14T08:23:23.000Z</time>
</trkpt>
<trkpt lat="44.3159620" lon="9.1731830">
	<ele>60.20</ele>
	<time>2022-05-14T08:23:28.000Z</time>
</trkpt>
<trkpt lat="44.3159610" lon="9.1731880">
	<ele>60.20</ele>
	<time>2022-05-14T08:23:29.000Z</time>
</trkpt>
<trkpt lat="44.3159500" lon="9.1732080">
	<ele>60.00</ele>
	<time>2022-05-14T08:23:33.000Z</time>
</trkpt>
<trkpt lat="44.3159440" lon="9.1732190">
	<ele>60.20</ele>
	<time>2022-05-14T08:23:35.000Z</time>
</trkpt>
<trkpt lat="44.3159440" lon="9.1732190">
	<ele>59.40</ele>
	<time>2022-05-14T08:23:46.000Z</time>
</trkpt>
<trkpt lat="44.3159600" lon="9.1732290">
	<ele>59.00</ele>
	<time>2022-05-14T08:23:49.000Z</time>
</trkpt>
<trkpt lat="44.3159900" lon="9.1732560">
	<ele>58.60</ele>
	<time>2022-05-14T08:23:52.000Z</time>
</trkpt>
<trkpt lat="44.3160180" lon="9.1732880">
	<ele>58.00</ele>
	<time>2022-05-14T08:23:55.000Z</time>
</trkpt>
<trkpt lat="44.3160300" lon="9.1732990">
	<ele>57.80</ele>
	<time>2022-05-14T08:23:56.000Z</time>
</trkpt>
<trkpt lat="44.3160410" lon="9.1733080">
	<ele>57.80</ele>
	<time>2022-05-14T08:23:57.000Z</time>
</trkpt>
<trkpt lat="44.3160480" lon="9.1733100">
	<ele>57.60</ele>
	<time>2022-05-14T08:23:58.000Z</time>
</trkpt>
<trkpt lat="44.3160850" lon="9.1733340">
	<ele>56.80</ele>
	<time>2022-05-14T08:24:03.000Z</time>
</trkpt>
<trkpt lat="44.3160970" lon="9.1733410">
	<ele>56.60</ele>
	<time>2022-05-14T08:24:04.000Z</time>
</trkpt>
<trkpt lat="44.3161060" lon="9.1733490">
	<ele>56.40</ele>
	<time>2022-05-14T08:24:05.000Z</time>
</trkpt>
<trkpt lat="44.3161630" lon="9.1734050">
	<ele>55.80</ele>
	<time>2022-05-14T08:24:12.000Z</time>
</trkpt>
<trkpt lat="44.3161620" lon="9.1734140">
	<ele>55.80</ele>
	<time>2022-05-14T08:24:13.000Z</time>
</trkpt>
<trkpt lat="44.3161680" lon="9.1734140">
	<ele>55.80</ele>
	<time>2022-05-14T08:24:14.000Z</time>
</trkpt>
<trkpt lat="44.3161570" lon="9.1734360">
	<ele>55.60</ele>
	<time>2022-05-14T08:24:16.000Z</time>
</trkpt>
<trkpt lat="44.3161640" lon="9.1734090">
	<ele>55.20</ele>
	<time>2022-05-14T08:24:20.000Z</time>
</trkpt>
<trkpt lat="44.3161570" lon="9.1734040">
	<ele>54.80</ele>
	<time>2022-05-14T08:24:23.000Z</time>
</trkpt>
<trkpt lat="44.3161570" lon="9.1734070">
	<ele>54.80</ele>
	<time>2022-05-14T08:24:25.000Z</time>
</trkpt>
<trkpt lat="44.3161410" lon="9.1733880">
	<ele>54.20</ele>
	<time>2022-05-14T08:24:34.000Z</time>
</trkpt>
<trkpt lat="44.3160780" lon="9.1733320">
	<ele>54.00</ele>
	<time>2022-05-14T08:24:38.000Z</time>
</trkpt>
<trkpt lat="44.3160670" lon="9.1733220">
	<ele>54.00</ele>
	<time>2022-05-14T08:24:39.000Z</time>
</trkpt>
<trkpt lat="44.3160520" lon="9.1732950">
	<ele>53.80</ele>
	<time>2022-05-14T08:24:42.000Z</time>
</trkpt>
<trkpt lat="44.3160480" lon="9.1732950">
	<ele>53.60</ele>
	<time>2022-05-14T08:24:43.000Z</time>
</trkpt>
<trkpt lat="44.3160410" lon="9.1732940">
	<ele>53.40</ele>
	<time>2022-05-14T08:24:44.000Z</time>
</trkpt>
<trkpt lat="44.3160010" lon="9.1732890">
	<ele>52.60</ele>
	<time>2022-05-14T08:24:47.000Z</time>
</trkpt>
<trkpt lat="44.3159820" lon="9.1733010">
	<ele>52.40</ele>
	<time>2022-05-14T08:24:49.000Z</time>
</trkpt>
<trkpt lat="44.3159760" lon="9.1733360">
	<ele>52.00</ele>
	<time>2022-05-14T08:24:51.000Z</time>
</trkpt>
<trkpt lat="44.3159760" lon="9.1733490">
	<ele>51.80</ele>
	<time>2022-05-14T08:24:52.000Z</time>
</trkpt>
<trkpt lat="44.3159850" lon="9.1733540">
	<ele>51.60</ele>
	<time>2022-05-14T08:24:53.000Z</time>
</trkpt>
<trkpt lat="44.3160180" lon="9.1733560">
	<ele>50.80</ele>
	<time>2022-05-14T08:24:56.000Z</time>
</trkpt>
<trkpt lat="44.3160250" lon="9.1733620">
	<ele>50.60</ele>
	<time>2022-05-14T08:24:57.000Z</time>
</trkpt>
<trkpt lat="44.3160260" lon="9.1733750">
	<ele>50.60</ele>
	<time>2022-05-14T08:24:59.000Z</time>
</trkpt>
<trkpt lat="44.3160150" lon="9.1733770">
	<ele>50.40</ele>
	<time>2022-05-14T08:25:00.000Z</time>
</trkpt>
<trkpt lat="44.3159730" lon="9.1733900">
	<ele>49.60</ele>
	<time>2022-05-14T08:25:05.000Z</time>
</trkpt>
<trkpt lat="44.3159620" lon="9.1733940">
	<ele>49.40</ele>
	<time>2022-05-14T08:25:06.000Z</time>
</trkpt>
<trkpt lat="44.3159320" lon="9.1733920">
	<ele>48.60</ele>
	<time>2022-05-14T08:25:10.000Z</time>
</trkpt>
<trkpt lat="44.3159260" lon="9.1733900">
	<ele>48.40</ele>
	<time>2022-05-14T08:25:11.000Z</time>
</trkpt>
<trkpt lat="44.3159010" lon="9.1734190">
	<ele>47.60</ele>
	<time>2022-05-14T08:25:14.000Z</time>
</trkpt>
<trkpt lat="44.3159060" lon="9.1734360">
	<ele>47.20</ele>
	<time>2022-05-14T08:25:16.000Z</time>
</trkpt>
<trkpt lat="44.3159410" lon="9.1734560">
	<ele>46.40</ele>
	<time>2022-05-14T08:25:20.000Z</time>
</trkpt>
<trkpt lat="44.3159330" lon="9.1734790">
	<ele>46.20</ele>
	<time>2022-05-14T08:25:22.000Z</time>
</trkpt>
<trkpt lat="44.3159340" lon="9.1734960">
	<ele>46.00</ele>
	<time>2022-05-14T08:25:23.000Z</time>
</trkpt>
<trkpt lat="44.3159480" lon="9.1735370">
	<ele>45.80</ele>
	<time>2022-05-14T08:25:25.000Z</time>
</trkpt>
<trkpt lat="44.3159670" lon="9.1735380">
	<ele>45.00</ele>
	<time>2022-05-14T08:25:30.000Z</time>
</trkpt>
<trkpt lat="44.3159620" lon="9.1735340">
	<ele>45.00</ele>
	<time>2022-05-14T08:25:31.000Z</time>
</trkpt>
<trkpt lat="44.3159550" lon="9.1735290">
	<ele>44.80</ele>
	<time>2022-05-14T08:25:32.000Z</time>
</trkpt>
<trkpt lat="44.3159440" lon="9.1735360">
	<ele>44.20</ele>
	<time>2022-05-14T08:25:37.000Z</time>
</trkpt>
<trkpt lat="44.3159360" lon="9.1735380">
	<ele>44.00</ele>
	<time>2022-05-14T08:25:38.000Z</time>
</trkpt>
<trkpt lat="44.3159140" lon="9.1735260">
	<ele>43.20</ele>
	<time>2022-05-14T08:25:42.000Z</time>
</trkpt>
<trkpt lat="44.3158980" lon="9.1735320">
	<ele>43.00</ele>
	<time>2022-05-14T08:25:44.000Z</time>
</trkpt>
<trkpt lat="44.3158690" lon="9.1735630">
	<ele>41.80</ele>
	<time>2022-05-14T08:25:47.000Z</time>
</trkpt>
<trkpt lat="44.3158750" lon="9.1735620">
	<ele>41.60</ele>
	<time>2022-05-14T08:25:48.000Z</time>
</trkpt>
<trkpt lat="44.3159140" lon="9.1735790">
	<ele>40.60</ele>
	<time>2022-05-14T08:25:52.000Z</time>
</trkpt>
<trkpt lat="44.3159280" lon="9.1735980">
	<ele>40.20</ele>
	<time>2022-05-14T08:25:54.000Z</time>
</trkpt>
<trkpt lat="44.3159240" lon="9.1736100">
	<ele>40.00</ele>
	<time>2022-05-14T08:25:56.000Z</time>
</trkpt>
<trkpt lat="44.3159190" lon="9.1736100">
	<ele>39.60</ele>
	<time>2022-05-14T08:25:58.000Z</time>
</trkpt>
<trkpt lat="44.3159170" lon="9.1736100">
	<ele>39.40</ele>
	<time>2022-05-14T08:25:59.000Z</time>
</trkpt>
<trkpt lat="44.3159060" lon="9.1736130">
	<ele>39.40</ele>
	<time>2022-05-14T08:26:00.000Z</time>
</trkpt>
<trkpt lat="44.3158850" lon="9.1736210">
	<ele>38.40</ele>
	<time>2022-05-14T08:26:03.000Z</time>
</trkpt>
<trkpt lat="44.3158560" lon="9.1736250">
	<ele>38.00</ele>
	<time>2022-05-14T08:26:05.000Z</time>
</trkpt>
<trkpt lat="44.3158200" lon="9.1736330">
	<ele>37.80</ele>
	<time>2022-05-14T08:26:08.000Z</time>
</trkpt>
<trkpt lat="44.3158010" lon="9.1736280">
	<ele>37.40</ele>
	<time>2022-05-14T08:26:10.000Z</time>
</trkpt>
<trkpt lat="44.3157920" lon="9.1736300">
	<ele>37.20</ele>
	<time>2022-05-14T08:26:11.000Z</time>
</trkpt>
<trkpt lat="44.3157820" lon="9.1736370">
	<ele>37.00</ele>
	<time>2022-05-14T08:26:12.000Z</time>
</trkpt>
<trkpt lat="44.3157870" lon="9.1736680">
	<ele>36.20</ele>
	<time>2022-05-14T08:26:15.000Z</time>
</trkpt>
<trkpt lat="44.3157940" lon="9.1736700">
	<ele>36.00</ele>
	<time>2022-05-14T08:26:16.000Z</time>
</trkpt>
<trkpt lat="44.3158310" lon="9.1736980">
	<ele>35.00</ele>
	<time>2022-05-14T08:26:22.000Z</time>
</trkpt>
<trkpt lat="44.3158850" lon="9.1737260">
	<ele>34.00</ele>
	<time>2022-05-14T08:26:29.000Z</time>
</trkpt>
<trkpt lat="44.3158910" lon="9.1737390">
	<ele>33.80</ele>
	<time>2022-05-14T08:26:30.000Z</time>
</trkpt>
<trkpt lat="44.3159050" lon="9.1737590">
	<ele>33.60</ele>
	<time>2022-05-14T08:26:32.000Z</time>
</trkpt>
<trkpt lat="44.3159110" lon="9.1737780">
	<ele>33.40</ele>
	<time>2022-05-14T08:26:33.000Z</time>
</trkpt>
<trkpt lat="44.3159180" lon="9.1738070">
	<ele>33.20</ele>
	<time>2022-05-14T08:26:35.000Z</time>
</trkpt>
<trkpt lat="44.3159170" lon="9.1738150">
	<ele>33.00</ele>
	<time>2022-05-14T08:26:36.000Z</time>
</trkpt>
<trkpt lat="44.3159230" lon="9.1738240">
	<ele>33.00</ele>
	<time>2022-05-14T08:26:37.000Z</time>
</trkpt>
<trkpt lat="44.3159390" lon="9.1738580">
	<ele>32.40</ele>
	<time>2022-05-14T08:26:40.000Z</time>
</trkpt>
<trkpt lat="44.3159350" lon="9.1738860">
	<ele>32.00</ele>
	<time>2022-05-14T08:26:42.000Z</time>
</trkpt>
<trkpt lat="44.3159360" lon="9.1738940">
	<ele>31.60</ele>
	<time>2022-05-14T08:26:43.000Z</time>
</trkpt>
<trkpt lat="44.3159620" lon="9.1739130">
	<ele>31.00</ele>
	<time>2022-05-14T08:26:47.000Z</time>
</trkpt>
<trkpt lat="44.3159640" lon="9.1739180">
	<ele>30.80</ele>
	<time>2022-05-14T08:26:48.000Z</time>
</trkpt>
<trkpt lat="44.3160090" lon="9.1739490">
	<ele>29.80</ele>
	<time>2022-05-14T08:26:54.000Z</time>
</trkpt>
<trkpt lat="44.3160130" lon="9.1739680">
	<ele>29.40</ele>
	<time>2022-05-14T08:26:57.000Z</time>
</trkpt>
<trkpt lat="44.3160160" lon="9.1739860">
	<ele>29.20</ele>
	<time>2022-05-14T08:26:59.000Z</time>
</trkpt>
<trkpt lat="44.3160230" lon="9.1739860">
	<ele>29.20</ele>
	<time>2022-05-14T08:27:00.000Z</time>
</trkpt>
<trkpt lat="44.3160190" lon="9.1739920">
	<ele>28.80</ele>
	<time>2022-05-14T08:27:03.000Z</time>
</trkpt>
<trkpt lat="44.3160240" lon="9.1739940">
	<ele>28.80</ele>
	<time>2022-05-14T08:27:04.000Z</time>
</trkpt>
<trkpt lat="44.3160060" lon="9.1739840">
	<ele>28.20</ele>
	<time>2022-05-14T08:27:12.000Z</time>
</trkpt>
<trkpt lat="44.3159840" lon="9.1739700">
	<ele>27.60</ele>
	<time>2022-05-14T08:27:15.000Z</time>
</trkpt>
<trkpt lat="44.3159790" lon="9.1739760">
	<ele>26.60</ele>
	<time>2022-05-14T08:27:18.000Z</time>
</trkpt>
<trkpt lat="44.3159790" lon="9.1739790">
	<ele>26.60</ele>
	<time>2022-05-14T08:27:19.000Z</time>
</trkpt>
<trkpt lat="44.3159620" lon="9.1740200">
	<ele>25.40</ele>
	<time>2022-05-14T08:27:24.000Z</time>
</trkpt>
<trkpt lat="44.3159650" lon="9.1740490">
	<ele>24.80</ele>
	<time>2022-05-14T08:27:27.000Z</time>
</trkpt>
<trkpt lat="44.3159670" lon="9.1740550">
	<ele>24.20</ele>
	<time>2022-05-14T08:27:29.000Z</time>
</trkpt>
<trkpt lat="44.3159670" lon="9.1740810">
	<ele>23.00</ele>
	<time>2022-05-14T08:27:35.000Z</time>
</trkpt>
<trkpt lat="44.3159530" lon="9.1741000">
	<ele>22.60</ele>
	<time>2022-05-14T08:27:40.000Z</time>
</trkpt>
<trkpt lat="44.3159470" lon="9.1741040">
	<ele>22.00</ele>
	<time>2022-05-14T08:27:42.000Z</time>
</trkpt>
<trkpt lat="44.3159340" lon="9.1740950">
	<ele>21.00</ele>
	<time>2022-05-14T08:27:47.000Z</time>
</trkpt>
<trkpt lat="44.3159210" lon="9.1740870">
	<ele>20.60</ele>
	<time>2022-05-14T08:27:48.000Z</time>
</trkpt>
<trkpt lat="44.3159050" lon="9.1740880">
	<ele>20.00</ele>
	<time>2022-05-14T08:27:53.000Z</time>
</trkpt>
<trkpt lat="44.3159050" lon="9.1741070">
	<ele>19.40</ele>
	<time>2022-05-14T08:27:55.000Z</time>
</trkpt>
<trkpt lat="44.3159150" lon="9.1741400">
	<ele>18.60</ele>
	<time>2022-05-14T08:27:58.000Z</time>
</trkpt>
<trkpt lat="44.3159240" lon="9.1741450">
	<ele>18.40</ele>
	<time>2022-05-14T08:27:59.000Z</time>
</trkpt>
<trkpt lat="44.3159330" lon="9.1741870">
	<ele>17.80</ele>
	<time>2022-05-14T08:28:03.000Z</time>
</trkpt>
<trkpt lat="44.3159320" lon="9.1742060">
	<ele>17.60</ele>
	<time>2022-05-14T08:28:06.000Z</time>
</trkpt>
<trkpt lat="44.3159300" lon="9.1742160">
	<ele>17.40</ele>
	<time>2022-05-14T08:28:08.000Z</time>
</trkpt>
<trkpt lat="44.3159340" lon="9.1742190">
	<ele>17.40</ele>
	<time>2022-05-14T08:28:09.000Z</time>
</trkpt>
<trkpt lat="44.3159170" lon="9.1742170">
	<ele>16.80</ele>
	<time>2022-05-14T08:28:13.000Z</time>
</trkpt>
<trkpt lat="44.3159010" lon="9.1742180">
	<ele>16.20</ele>
	<time>2022-05-14T08:28:15.000Z</time>
</trkpt>
<trkpt lat="44.3158940" lon="9.1742220">
	<ele>15.60</ele>
	<time>2022-05-14T08:28:18.000Z</time>
</trkpt>
<trkpt lat="44.3158930" lon="9.1742260">
	<ele>15.20</ele>
	<time>2022-05-14T08:28:19.000Z</time>
</trkpt>
<trkpt lat="44.3158890" lon="9.1742290">
	<ele>15.00</ele>
	<time>2022-05-14T08:28:20.000Z</time>
</trkpt>
<trkpt lat="44.3158810" lon="9.1742330">
	<ele>14.80</ele>
	<time>2022-05-14T08:28:21.000Z</time>
</trkpt>
<trkpt lat="44.3158700" lon="9.1742630">
	<ele>14.00</ele>
	<time>2022-05-14T08:28:24.000Z</time>
</trkpt>
<trkpt lat="44.3158710" lon="9.1742900">
	<ele>13.60</ele>
	<time>2022-05-14T08:28:26.000Z</time>
</trkpt>
<trkpt lat="44.3158560" lon="9.1743400">
	<ele>13.00</ele>
	<time>2022-05-14T08:28:30.000Z</time>
</trkpt>
<trkpt lat="44.3158550" lon="9.1743440">
	<ele>12.80</ele>
	<time>2022-05-14T08:28:31.000Z</time>
</trkpt>
<trkpt lat="44.3158480" lon="9.1743250">
	<ele>12.20</ele>
	<time>2022-05-14T08:28:36.000Z</time>
</trkpt>
<trkpt lat="44.3158260" lon="9.1743160">
	<ele>11.60</ele>
	<time>2022-05-14T08:28:39.000Z</time>
</trkpt>
<trkpt lat="44.3158090" lon="9.1743040">
	<ele>11.20</ele>
	<time>2022-05-14T08:28:42.000Z</time>
</trkpt>
<trkpt lat="44.3158280" lon="9.1743090">
	<ele>10.40</ele>
	<time>2022-05-14T08:28:45.000Z</time>
</trkpt>
<trkpt lat="44.3158410" lon="9.1743220">
	<ele>10.00</ele>
	<time>2022-05-14T08:28:47.000Z</time>
</trkpt>
<trkpt lat="44.3158510" lon="9.1743290">
	<ele>9.80</ele>
	<time>2022-05-14T08:28:49.000Z</time>
</trkpt>
<trkpt lat="44.3158460" lon="9.1743470">
	<ele>9.40</ele>
	<time>2022-05-14T08:28:52.000Z</time>
</trkpt>
<trkpt lat="44.3158470" lon="9.1743430">
	<ele>8.80</ele>
	<time>2022-05-14T08:28:55.000Z</time>
</trkpt>
<trkpt lat="44.3158070" lon="9.1743200">
	<ele>8.20</ele>
	<time>2022-05-14T08:29:00.000Z</time>
</trkpt>
<trkpt lat="44.3157950" lon="9.1742560">
	<ele>7.60</ele>
	<time>2022-05-14T08:29:06.000Z</time>
</trkpt>
<trkpt lat="44.3157850" lon="9.1742400">
	<ele>7.20</ele>
	<time>2022-05-14T08:29:08.000Z</time>
</trkpt>
<trkpt lat="44.3157650" lon="9.1742120">
	<ele>6.40</ele>
	<time>2022-05-14T08:29:14.000Z</time>
</trkpt>
<trkpt lat="44.3157620" lon="9.1742210">
	<ele>6.20</ele>
	<time>2022-05-14T08:29:15.000Z</time>
</trkpt>
<trkpt lat="44.3157550" lon="9.1742780">
	<ele>5.00</ele>
	<time>2022-05-14T08:29:21.000Z</time>
</trkpt>
<trkpt lat="44.3157430" lon="9.1743320">
	<ele>4.00</ele>
	<time>2022-05-14T08:29:27.000Z</time>
</trkpt>
<trkpt lat="44.3157460" lon="9.1743450">
	<ele>3.60</ele>
	<time>2022-05-14T08:29:30.000Z</time>
</trkpt>
<trkpt lat="44.3157430" lon="9.1743580">
	<ele>3.20</ele>
	<time>2022-05-14T08:29:32.000Z</time>
</trkpt>
<trkpt lat="44.3157460" lon="9.1743620">
	<ele>2.80</ele>
	<time>2022-05-14T08:29:35.000Z</time>
</trkpt>
<trkpt lat="44.3157360" lon="9.1743890">
	<ele>2.80</ele>
	<time>2022-05-14T08:29:37.000Z</time>
</trkpt>
<trkpt lat="44.3157420" lon="9.1744200">
	<ele>1.80</ele>
	<time>2022-05-14T08:29:42.000Z</time>
</trkpt>
<trkpt lat="44.3157620" lon="9.1744340">
	<ele>1.20</ele>
	<time>2022-05-14T08:29:46.000Z</time>
</trkpt>
<trkpt lat="44.3157560" lon="9.1744320">
	<ele>1.20</ele>
	<time>2022-05-14T08:29:48.000Z</time>
</trkpt>
<trkpt lat="44.3157640" lon="9.1744480">
	<ele>0.80</ele>
	<time>2022-05-14T08:29:51.000Z</time>
</trkpt>
<trkpt lat="44.3157800" lon="9.1744520">
	<ele>0.40</ele>
	<time>2022-05-14T08:29:53.000Z</time>
</trkpt>
<trkpt lat="44.3157940" lon="9.1744690">
	<ele>-0.40</ele>
	<time>2022-05-14T08:29:58.000Z</time>
</trkpt>
<trkpt lat="44.3158080" lon="9.1744740">
	<ele>-0.80</ele>
	<time>2022-05-14T08:30:00.000Z</time>
</trkpt>
<trkpt lat="44.3158220" lon="9.1744740">
	<ele>-1.60</ele>
	<time>2022-05-14T08:30:03.000Z</time>
</trkpt>
<trkpt lat="44.3158420" lon="9.1744840">
	<ele>-2.20</ele>
	<time>2022-05-14T08:30:07.000Z</time>
</trkpt>
<trkpt lat="44.3158570" lon="9.1745340">
	<ele>-2.20</ele>
	<time>2022-05-14T08:30:18.000Z</time>
</trkpt>
<trkpt lat="44.3158560" lon="9.1745340">
	<ele>-2.60</ele>
	<time>2022-05-14T08:30:25.000Z</time>
</trkpt>
<trkpt lat="44.3158690" lon="9.1745610">
	<ele>-3.60</ele>
	<time>2022-05-14T08:30:35.000Z</time>
</trkpt>
<trkpt lat="44.3158700" lon="9.1745700">
	<ele>-3.80</ele>
	<time>2022-05-14T08:30:36.000Z</time>
</trkpt>
<trkpt lat="44.3158770" lon="9.1746090">
	<ele>-4.40</ele>
	<time>2022-05-14T08:30:39.000Z</time>
</trkpt>
<trkpt lat="44.3158950" lon="9.1746470">
	<ele>-4.80</ele>
	<time>2022-05-14T08:30:44.000Z</time>
</trkpt>
<trkpt lat="44.3158910" lon="9.1746530">
	<ele>-4.80</ele>
	<time>2022-05-14T08:30:45.000Z</time>
</trkpt>
<trkpt lat="44.3158590" lon="9.1746850">
	<ele>-5.80</ele>
	<time>2022-05-14T08:30:50.000Z</time>
</trkpt>
<trkpt lat="44.3158600" lon="9.1747060">
	<ele>-6.00</ele>
	<time>2022-05-14T08:30:52.000Z</time>
</trkpt>
<trkpt lat="44.3158760" lon="9.1747150">
	<ele>-6.80</ele>
	<time>2022-05-14T08:30:54.000Z</time>
</trkpt>
<trkpt lat="44.3158740" lon="9.1747210">
	<ele>-7.20</ele>
	<time>2022-05-14T08:30:56.000Z</time>
</trkpt>
<trkpt lat="44.3158490" lon="9.1747320">
	<ele>-8.00</ele>
	<time>2022-05-14T08:31:00.000Z</time>
</trkpt>
<trkpt lat="44.3158340" lon="9.1747320">
	<ele>-8.60</ele>
	<time>2022-05-14T08:31:02.000Z</time>
</trkpt>
<trkpt lat="44.3158350" lon="9.1747200">
	<ele>-9.20</ele>
	<time>2022-05-14T08:31:07.000Z</time>
</trkpt>
<trkpt lat="44.3158160" lon="9.1747290">
	<ele>-9.60</ele>
	<time>2022-05-14T08:31:10.000Z</time>
</trkpt>
<trkpt lat="44.3158110" lon="9.1747330">
	<ele>-9.80</ele>
	<time>2022-05-14T08:31:11.000Z</time>
</trkpt>
<trkpt lat="44.3158100" lon="9.1747480">
	<ele>-11.00</ele>
	<time>2022-05-14T08:31:15.000Z</time>
</trkpt>
<trkpt lat="44.3158050" lon="9.1747560">
	<ele>-11.40</ele>
	<time>2022-05-14T08:31:16.000Z</time>
</trkpt>
<trkpt lat="44.3157720" lon="9.1747960">
	<ele>-12.20</ele>
	<time>2022-05-14T08:31:19.000Z</time>
</trkpt>
<trkpt lat="44.3157690" lon="9.1747950">
	<ele>-12.20</ele>
	<time>2022-05-14T08:31:23.000Z</time>
</trkpt>
<trkpt lat="44.3157730" lon="9.1748190">
	<ele>-12.00</ele>
	<time>2022-05-14T08:31:26.000Z</time>
</trkpt>
<trkpt lat="44.3157960" lon="9.1748350">
	<ele>-11.60</ele>
	<time>2022-05-14T08:31:31.000Z</time>
</trkpt>
<trkpt lat="44.3158270" lon="9.1747920">
	<ele>-11.60</ele>
	<time>2022-05-14T08:31:35.000Z</time>
</trkpt>
<trkpt lat="44.3158570" lon="9.1747740">
	<ele>-11.80</ele>
	<time>2022-05-14T08:31:39.000Z</time>
</trkpt>
<trkpt lat="44.3158470" lon="9.1747470">
	<ele>-12.00</ele>
	<time>2022-05-14T08:31:44.000Z</time>
</trkpt>
<trkpt lat="44.3158930" lon="9.1747680">
	<ele>-11.80</ele>
	<time>2022-05-14T08:31:49.000Z</time>
</trkpt>
<trkpt lat="44.3159060" lon="9.1747580">
	<ele>-11.40</ele>
	<time>2022-05-14T08:31:57.000Z</time>
</trkpt>
<trkpt lat="44.3158890" lon="9.1747730">
	<ele>-11.20</ele>
	<time>2022-05-14T08:32:00.000Z</time>
</trkpt>
<trkpt lat="44.3158990" lon="9.1747850">
	<ele>-11.00</ele>
	<time>2022-05-14T08:32:02.000Z</time>
</trkpt>
<trkpt lat="44.3159170" lon="9.1749310">
	<ele>-12.20</ele>
	<time>2022-05-14T08:32:07.000Z</time>
</trkpt>
<trkpt lat="44.3159210" lon="9.1749320">
	<ele>-12.20</ele>
	<time>2022-05-14T08:32:08.000Z</time>
</trkpt>
<trkpt lat="44.3159300" lon="9.1749290">
	<ele>-12.40</ele>
	<time>2022-05-14T08:32:09.000Z</time>
</trkpt>
<trkpt lat="44.3159670" lon="9.1749300">
	<ele>-13.20</ele>
	<time>2022-05-14T08:32:13.000Z</time>
</trkpt>
<trkpt lat="44.3159760" lon="9.1749280">
	<ele>-13.20</ele>
	<time>2022-05-14T08:32:14.000Z</time>
</trkpt>
<trkpt lat="44.3159860" lon="9.1749340">
	<ele>-13.40</ele>
	<time>2022-05-14T08:32:16.000Z</time>
</trkpt>
<trkpt lat="44.3160350" lon="9.1749850">
	<ele>-14.20</ele>
	<time>2022-05-14T08:32:20.000Z</time>
</trkpt>
<trkpt lat="44.3161020" lon="9.1750400">
	<ele>-14.60</ele>
	<time>2022-05-14T08:32:26.000Z</time>
</trkpt>
<trkpt lat="44.3161040" lon="9.1750640">
	<ele>-14.60</ele>
	<time>2022-05-14T08:32:29.000Z</time>
</trkpt>
<trkpt lat="44.3161150" lon="9.1750680">
	<ele>-14.60</ele>
	<time>2022-05-14T08:32:30.000Z</time>
</trkpt>
<trkpt lat="44.3161770" lon="9.1750180">
	<ele>-14.60</ele>
	<time>2022-05-14T08:32:37.000Z</time>
</trkpt>
<trkpt lat="44.3157000" lon="9.1753280">
	<ele>-10.60</ele>
	<time>2022-05-14T08:33:27.000Z</time>
</trkpt>
<trkpt lat="44.3155800" lon="9.1754850">
	<ele>-10.60</ele>
	<time>2022-05-14T08:33:29.000Z</time>
</trkpt>
<trkpt lat="44.3156040" lon="9.1755310">
	<ele>-10.60</ele>
	<time>2022-05-14T08:33:30.000Z</time>
</trkpt>
<trkpt lat="44.3156570" lon="9.1755430">
	<ele>-10.60</ele>
	<time>2022-05-14T08:33:31.000Z</time>
</trkpt>
<trkpt lat="44.3157370" lon="9.1755450">
	<ele>-10.60</ele>
	<time>2022-05-14T08:33:33.000Z</time>
</trkpt>
<trkpt lat="44.3157560" lon="9.1755500">
	<ele>-10.60</ele>
	<time>2022-05-14T08:33:36.000Z</time>
</trkpt>
<trkpt lat="44.3157550" lon="9.1755460">
	<ele>-10.60</ele>
	<time>2022-05-14T08:33:38.000Z</time>
</trkpt>
<trkpt lat="44.3157080" lon="9.1755830">
	<ele>-10.80</ele>
	<time>2022-05-14T08:33:40.000Z</time>
</trkpt>
<trkpt lat="44.3156670" lon="9.1756110">
	<ele>-10.60</ele>
	<time>2022-05-14T08:33:44.000Z</time>
</trkpt>
<trkpt lat="44.3156680" lon="9.1756080">
	<ele>-10.40</ele>
	<time>2022-05-14T08:33:45.000Z</time>
</trkpt>
<trkpt lat="44.3156820" lon="9.1755980">
	<ele>-10.40</ele>
	<time>2022-05-14T08:33:50.000Z</time>
</trkpt>
<trkpt lat="44.3156840" lon="9.1755960">
	<ele>-10.40</ele>
	<time>2022-05-14T08:33:51.000Z</time>
</trkpt>
<trkpt lat="44.3156740" lon="9.1755970">
	<ele>-10.60</ele>
	<time>2022-05-14T08:33:55.000Z</time>
</trkpt>
<trkpt lat="44.3156700" lon="9.1755940">
	<ele>-10.80</ele>
	<time>2022-05-14T08:33:57.000Z</time>
</trkpt>
<trkpt lat="44.3156950" lon="9.1755580">
	<ele>-11.00</ele>
	<time>2022-05-14T08:34:02.000Z</time>
</trkpt>
<trkpt lat="44.3157010" lon="9.1755530">
	<ele>-11.00</ele>
	<time>2022-05-14T08:34:03.000Z</time>
</trkpt>
<trkpt lat="44.3157570" lon="9.1755050">
	<ele>-10.80</ele>
	<time>2022-05-14T08:34:06.000Z</time>
</trkpt>
<trkpt lat="44.3157670" lon="9.1755020">
	<ele>-10.80</ele>
	<time>2022-05-14T08:34:07.000Z</time>
</trkpt>
<trkpt lat="44.3157750" lon="9.1754890">
	<ele>-10.60</ele>
	<time>2022-05-14T08:34:09.000Z</time>
</trkpt>
<trkpt lat="44.3157720" lon="9.1754900">
	<ele>-10.60</ele>
	<time>2022-05-14T08:34:11.000Z</time>
</trkpt>
<trkpt lat="44.3157640" lon="9.1755160">
	<ele>-10.40</ele>
	<time>2022-05-14T08:34:15.000Z</time>
</trkpt>
<trkpt lat="44.3157820" lon="9.1755140">
	<ele>-10.40</ele>
	<time>2022-05-14T08:34:19.000Z</time>
</trkpt>
<trkpt lat="44.3157810" lon="9.1755070">
	<ele>-10.60</ele>
	<time>2022-05-14T08:34:20.000Z</time>
</trkpt>
<trkpt lat="44.3157630" lon="9.1755230">
	<ele>-10.60</ele>
	<time>2022-05-14T08:34:22.000Z</time>
</trkpt>
<trkpt lat="44.3157700" lon="9.1755210">
	<ele>-10.60</ele>
	<time>2022-05-14T08:34:25.000Z</time>
</trkpt>
<trkpt lat="44.3162550" lon="9.1753830">
	<ele>-10.20</ele>
	<time>2022-05-14T08:42:25.000Z</time>
</trkpt>
<trkpt lat="44.3157200" lon="9.1739590">
	<ele>-10.20</ele>
	<time>2022-05-14T08:45:35.000Z</time>
</trkpt>
<trkpt lat="44.3157350" lon="9.1737590">
	<ele>-10.20</ele>
	<time>2022-05-14T08:45:38.000Z</time>
</trkpt>
<trkpt lat="44.3157830" lon="9.1737830">
	<ele>-10.20</ele>
	<time>2022-05-14T08:45:39.000Z</time>
</trkpt>
<trkpt lat="44.3158220" lon="9.1737890">
	<ele>-10.20</ele>
	<time>2022-05-14T08:45:43.000Z</time>
</trkpt>
<trkpt lat="44.3158220" lon="9.1737480">
	<ele>-10.20</ele>
	<time>2022-05-14T08:46:17.000Z</time>
</trkpt>
<trkpt lat="44.3157570" lon="9.1738600">
	<ele>-10.20</ele>
	<time>2022-05-14T08:46:25.000Z</time>
</trkpt>
<trkpt lat="44.3157500" lon="9.1739350">
	<ele>-10.20</ele>
	<time>2022-05-14T08:46:30.000Z</time>
</trkpt>
<trkpt lat="44.3157590" lon="9.1739910">
	<ele>-10.20</ele>
	<time>2022-05-14T08:46:35.000Z</time>
</trkpt>
<trkpt lat="44.3157840" lon="9.1742560">
	<ele>-10.20</ele>
	<time>2022-05-14T08:46:41.000Z</time>
</trkpt>
<trkpt lat="44.3157540" lon="9.1746290">
	<ele>-10.20</ele>
	<time>2022-05-14T08:46:47.000Z</time>
</trkpt>
<trkpt lat="44.3160060" lon="9.1746930">
	<ele>-10.20</ele>
	<time>2022-05-14T08:46:58.000Z</time>
</trkpt>
<trkpt lat="44.3160730" lon="9.1747080">
	<ele>-10.20</ele>
	<time>2022-05-14T08:47:01.000Z</time>
</trkpt>
<trkpt lat="44.3160650" lon="9.1747280">
	<ele>-10.20</ele>
	<time>2022-05-14T08:47:09.000Z</time>
</trkpt>
<trkpt lat="44.3158610" lon="9.1757210">
	<ele>-10.20</ele>
	<time>2022-05-14T08:49:38.000Z</time>
</trkpt>
<trkpt lat="44.3159720" lon="9.1754380">
	<ele>-10.20</ele>
	<time>2022-05-14T08:49:49.000Z</time>
</trkpt>
<trkpt lat="44.3159730" lon="9.1753840">
	<ele>-10.20</ele>
	<time>2022-05-14T08:49:50.000Z</time>
</trkpt>
<trkpt lat="44.3159870" lon="9.1751490">
	<ele>-10.20</ele>
	<time>2022-05-14T08:49:52.000Z</time>
</trkpt>
<trkpt lat="44.3160000" lon="9.1750550">
	<ele>-10.20</ele>
	<time>2022-05-14T08:49:54.000Z</time>
</trkpt>
<trkpt lat="44.3160280" lon="9.1748660">
	<ele>-9.60</ele>
	<time>2022-05-14T08:50:15.000Z</time>
</trkpt>
<trkpt lat="44.3160450" lon="9.1750910">
	<ele>-8.20</ele>
	<time>2022-05-14T08:50:48.000Z</time>
</trkpt>
<trkpt lat="44.3160900" lon="9.1750710">
	<ele>-8.80</ele>
	<time>2022-05-14T08:50:52.000Z</time>
</trkpt>
<trkpt lat="44.3160940" lon="9.1750900">
	<ele>-8.80</ele>
	<time>2022-05-14T08:50:53.000Z</time>
</trkpt>
<trkpt lat="44.3160960" lon="9.1750950">
	<ele>-9.00</ele>
	<time>2022-05-14T08:50:54.000Z</time>
</trkpt>
<trkpt lat="44.3162260" lon="9.1749460">
	<ele>-9.00</ele>
	<time>2022-05-14T08:50:56.000Z</time>
</trkpt>
<trkpt lat="44.3162560" lon="9.1749240">
	<ele>-8.80</ele>
	<time>2022-05-14T08:50:57.000Z</time>
</trkpt>
<trkpt lat="44.3162800" lon="9.1749050">
	<ele>-8.80</ele>
	<time>2022-05-14T08:50:58.000Z</time>
</trkpt>
<trkpt lat="44.3163490" lon="9.1748710">
	<ele>-9.00</ele>
	<time>2022-05-14T08:51:01.000Z</time>
</trkpt>
<trkpt lat="44.3163860" lon="9.1748630">
	<ele>-9.00</ele>
	<time>2022-05-14T08:51:03.000Z</time>
</trkpt>
<trkpt lat="44.3164600" lon="9.1748400">
	<ele>-9.00</ele>
	<time>2022-05-14T08:51:08.000Z</time>
</trkpt>
<trkpt lat="44.3164630" lon="9.1748330">
	<ele>-9.00</ele>
	<time>2022-05-14T08:51:13.000Z</time>
</trkpt>
<trkpt lat="44.3165300" lon="9.1747930">
	<ele>-9.00</ele>
	<time>2022-05-14T08:51:20.000Z</time>
</trkpt>
<trkpt lat="44.3165030" lon="9.1748070">
	<ele>-9.00</ele>
	<time>2022-05-14T08:51:23.000Z</time>
</trkpt>
<trkpt lat="44.3164960" lon="9.1748420">
	<ele>-9.00</ele>
	<time>2022-05-14T08:51:25.000Z</time>
</trkpt>
<trkpt lat="44.3165400" lon="9.1748270">
	<ele>-9.00</ele>
	<time>2022-05-14T08:51:30.000Z</time>
</trkpt>
<trkpt lat="44.3166010" lon="9.1748350">
	<ele>-9.00</ele>
	<time>2022-05-14T08:51:35.000Z</time>
</trkpt>
<trkpt lat="44.3166280" lon="9.1748250">
	<ele>-9.00</ele>
	<time>2022-05-14T08:51:40.000Z</time>
</trkpt>
<trkpt lat="44.3166310" lon="9.1748310">
	<ele>-9.00</ele>
	<time>2022-05-14T08:51:42.000Z</time>
</trkpt>
<trkpt lat="44.3166250" lon="9.1748330">
	<ele>-9.00</ele>
	<time>2022-05-14T08:51:43.000Z</time>
</trkpt>
<trkpt lat="44.3165370" lon="9.1747570">
	<ele>-9.00</ele>
	<time>2022-05-14T08:52:09.000Z</time>
</trkpt>
<trkpt lat="44.3165280" lon="9.1747980">
	<ele>-9.80</ele>
	<time>2022-05-14T08:52:11.000Z</time>
</trkpt>
<trkpt lat="44.3165290" lon="9.1748120">
	<ele>-10.00</ele>
	<time>2022-05-14T08:52:13.000Z</time>
</trkpt>
<trkpt lat="44.3165320" lon="9.1748180">
	<ele>-10.20</ele>
	<time>2022-05-14T08:52:16.000Z</time>
</trkpt>
<trkpt lat="44.3165110" lon="9.1747680">
	<ele>-11.00</ele>
	<time>2022-05-14T08:52:19.000Z</time>
</trkpt>
<trkpt lat="44.3160680" lon="9.1753340">
	<ele>-16.60</ele>
	<time>2022-05-14T08:53:42.000Z</time>
</trkpt>
<trkpt lat="44.3160680" lon="9.1752840">
	<ele>-16.60</ele>
	<time>2022-05-14T08:53:44.000Z</time>
</trkpt>
<trkpt lat="44.3160700" lon="9.1752440">
	<ele>-16.80</ele>
	<time>2022-05-14T08:53:45.000Z</time>
</trkpt>
<trkpt lat="44.3160170" lon="9.1752830">
	<ele>-16.80</ele>
	<time>2022-05-14T08:53:46.000Z</time>
</trkpt>
<trkpt lat="44.3159920" lon="9.1753400">
	<ele>-16.80</ele>
	<time>2022-05-14T08:53:47.000Z</time>
</trkpt>
<trkpt lat="44.3160150" lon="9.1753410">
	<ele>-16.80</ele>
	<time>2022-05-14T08:53:50.000Z</time>
</trkpt>
<trkpt lat="44.3160190" lon="9.1753250">
	<ele>-16.60</ele>
	<time>2022-05-14T08:53:51.000Z</time>
</trkpt>
<trkpt lat="44.3159960" lon="9.1753580">
	<ele>-16.60</ele>
	<time>2022-05-14T08:53:53.000Z</time>
</trkpt>
<trkpt lat="44.3160510" lon="9.1752520">
	<ele>-16.60</ele>
	<time>2022-05-14T08:53:57.000Z</time>
</trkpt>
<trkpt lat="44.3160460" lon="9.1752410">
	<ele>-16.60</ele>
	<time>2022-05-14T08:53:58.000Z</time>
</trkpt>
<trkpt lat="44.3160680" lon="9.1752190">
	<ele>-16.80</ele>
	<time>2022-05-14T08:54:00.000Z</time>
</trkpt>
<trkpt lat="44.3160500" lon="9.1752280">
	<ele>-17.20</ele>
	<time>2022-05-14T08:54:04.000Z</time>
</trkpt>
<trkpt lat="44.3160720" lon="9.1752170">
	<ele>-17.40</ele>
	<time>2022-05-14T08:54:06.000Z</time>
</trkpt>
<trkpt lat="44.3160880" lon="9.1751950">
	<ele>-17.60</ele>
	<time>2022-05-14T08:54:08.000Z</time>
</trkpt>
<trkpt lat="44.3160940" lon="9.1751900">
	<ele>-17.60</ele>
	<time>2022-05-14T08:54:09.000Z</time>
</trkpt>
<trkpt lat="44.3160880" lon="9.1751450">
	<ele>-17.60</ele>
	<time>2022-05-14T08:54:12.000Z</time>
</trkpt>
<trkpt lat="44.3160880" lon="9.1751250">
	<ele>-17.80</ele>
	<time>2022-05-14T08:54:13.000Z</time>
</trkpt>
<trkpt lat="44.3161020" lon="9.1750920">
	<ele>-17.80</ele>
	<time>2022-05-14T08:54:15.000Z</time>
</trkpt>
<trkpt lat="44.3161270" lon="9.1750340">
	<ele>-18.80</ele>
	<time>2022-05-14T08:54:20.000Z</time>
</trkpt>
<trkpt lat="44.3161490" lon="9.1749880">
	<ele>-19.00</ele>
	<time>2022-05-14T08:54:25.000Z</time>
</trkpt>
<trkpt lat="44.3161520" lon="9.1749590">
	<ele>-19.20</ele>
	<time>2022-05-14T08:54:26.000Z</time>
</trkpt>
<trkpt lat="44.3161780" lon="9.1749480">
	<ele>-19.00</ele>
	<time>2022-05-14T08:54:34.000Z</time>
</trkpt>
<trkpt lat="44.3161640" lon="9.1749100">
	<ele>-18.80</ele>
	<time>2022-05-14T08:54:39.000Z</time>
</trkpt>
<trkpt lat="44.3161760" lon="9.1748950">
	<ele>-19.00</ele>
	<time>2022-05-14T08:54:44.000Z</time>
</trkpt>
<trkpt lat="44.3161950" lon="9.1749190">
	<ele>-19.20</ele>
	<time>2022-05-14T08:55:06.000Z</time>
</trkpt>
<trkpt lat="44.3162020" lon="9.1749230">
	<ele>-18.40</ele>
	<time>2022-05-14T08:55:12.000Z</time>
</trkpt>
<trkpt lat="44.3162110" lon="9.1749310">
	<ele>-18.20</ele>
	<time>2022-05-14T08:55:18.000Z</time>
</trkpt>
<trkpt lat="44.3162340" lon="9.1749320">
	<ele>-18.20</ele>
	<time>2022-05-14T08:55:25.000Z</time>
</trkpt>
<trkpt lat="44.3162420" lon="9.1749320">
	<ele>-18.20</ele>
	<time>2022-05-14T08:55:31.000Z</time>
</trkpt>
<trkpt lat="44.3162730" lon="9.1749720">
	<ele>-18.40</ele>
	<time>2022-05-14T08:55:52.000Z</time>
</trkpt>
<trkpt lat="44.3162940" lon="9.1750190">
	<ele>-18.40</ele>
	<time>2022-05-14T08:56:10.000Z</time>
</trkpt>
<trkpt lat="44.3162950" lon="9.1750240">
	<ele>-18.40</ele>
	<time>2022-05-14T08:56:15.000Z</time>
</trkpt>
<trkpt lat="44.3163100" lon="9.1751290">
	<ele>-18.40</ele>
	<time>2022-05-14T08:56:29.000Z</time>
</trkpt>
<trkpt lat="44.3163080" lon="9.1751530">
	<ele>-18.40</ele>
	<time>2022-05-14T08:56:30.000Z</time>
</trkpt>
<trkpt lat="44.3163070" lon="9.1751780">
	<ele>-18.40</ele>
	<time>2022-05-14T08:56:31.000Z</time>
</trkpt>
<trkpt lat="44.3163060" lon="9.1752000">
	<ele>-18.40</ele>
	<time>2022-05-14T08:56:32.000Z</time>
</trkpt>
<trkpt lat="44.3162910" lon="9.1752430">
	<ele>-18.40</ele>
	<time>2022-05-14T08:56:34.000Z</time>
</trkpt>
<trkpt lat="44.3162850" lon="9.1752620">
	<ele>-18.40</ele>
	<time>2022-05-14T08:56:35.000Z</time>
</trkpt>
<trkpt lat="44.3162860" lon="9.1752700">
	<ele>-18.40</ele>
	<time>2022-05-14T08:56:36.000Z</time>
</trkpt>
<trkpt lat="44.3162720" lon="9.1752730">
	<ele>-17.60</ele>
	<time>2022-05-14T08:56:39.000Z</time>
</trkpt>
<trkpt lat="44.3162310" lon="9.1752470">
	<ele>-16.80</ele>
	<time>2022-05-14T08:56:42.000Z</time>
</trkpt>
<trkpt lat="44.3162010" lon="9.1752160">
	<ele>-16.80</ele>
	<time>2022-05-14T08:56:44.000Z</time>
</trkpt>
<trkpt lat="44.3161790" lon="9.1752160">
	<ele>-16.40</ele>
	<time>2022-05-14T08:56:47.000Z</time>
</trkpt>
<trkpt lat="44.3161740" lon="9.1752290">
	<ele>-16.20</ele>
	<time>2022-05-14T08:56:48.000Z</time>
</trkpt>
<trkpt lat="44.3161640" lon="9.1752320">
	<ele>-16.00</ele>
	<time>2022-05-14T08:56:49.000Z</time>
</trkpt>
<trkpt lat="44.3161400" lon="9.1752440">
	<ele>-15.40</ele>
	<time>2022-05-14T08:56:54.000Z</time>
</trkpt>
<trkpt lat="44.3161310" lon="9.1752450">
	<ele>-15.40</ele>
	<time>2022-05-14T08:56:55.000Z</time>
</trkpt>
<trkpt lat="44.3161280" lon="9.1752510">
	<ele>-15.40</ele>
	<time>2022-05-14T08:56:56.000Z</time>
</trkpt>
<trkpt lat="44.3161050" lon="9.1752630">
	<ele>-14.60</ele>
	<time>2022-05-14T08:57:00.000Z</time>
</trkpt>
<trkpt lat="44.3160920" lon="9.1752530">
	<ele>-14.20</ele>
	<time>2022-05-14T08:57:02.000Z</time>
</trkpt>
<trkpt lat="44.3160970" lon="9.1752690">
	<ele>-13.00</ele>
	<time>2022-05-14T08:57:06.000Z</time>
</trkpt>
<trkpt lat="44.3160940" lon="9.1752610">
	<ele>-12.40</ele>
	<time>2022-05-14T08:57:08.000Z</time>
</trkpt>
<trkpt lat="44.3161020" lon="9.1752910">
	<ele>-12.00</ele>
	<time>2022-05-14T08:57:12.000Z</time>
</trkpt>
<trkpt lat="44.3161090" lon="9.1753370">
	<ele>-11.40</ele>
	<time>2022-05-14T08:57:14.000Z</time>
</trkpt>
<trkpt lat="44.3161210" lon="9.1753350">
	<ele>-11.20</ele>
	<time>2022-05-14T08:57:17.000Z</time>
</trkpt>
<trkpt lat="44.3161390" lon="9.1753380">
	<ele>-11.00</ele>
	<time>2022-05-14T08:57:19.000Z</time>
</trkpt>
<trkpt lat="44.3161460" lon="9.1753370">
	<ele>-10.80</ele>
	<time>2022-05-14T08:57:20.000Z</time>
</trkpt>
<trkpt lat="44.3161760" lon="9.1753170">
	<ele>-10.60</ele>
	<time>2022-05-14T08:57:24.000Z</time>
</trkpt>
<trkpt lat="44.3161830" lon="9.1753460">
	<ele>-9.60</ele>
	<time>2022-05-14T08:57:28.000Z</time>
</trkpt>
<trkpt lat="44.3161870" lon="9.1753500">
	<ele>-9.40</ele>
	<time>2022-05-14T08:57:30.000Z</time>
</trkpt>
<trkpt lat="44.3161930" lon="9.1753870">
	<ele>-8.60</ele>
	<time>2022-05-14T08:57:35.000Z</time>
</trkpt>
<trkpt lat="44.3161960" lon="9.1753930">
	<ele>-8.40</ele>
	<time>2022-05-14T08:57:36.000Z</time>
</trkpt>
<trkpt lat="44.3162160" lon="9.1754030">
	<ele>-7.40</ele>
	<time>2022-05-14T08:57:39.000Z</time>
</trkpt>
<trkpt lat="44.3162220" lon="9.1754270">
	<ele>-7.00</ele>
	<time>2022-05-14T08:57:43.000Z</time>
</trkpt>
<trkpt lat="44.3162440" lon="9.1754570">
	<ele>-6.20</ele>
	<time>2022-05-14T08:57:47.000Z</time>
</trkpt>
<trkpt lat="44.3162450" lon="9.1754620">
	<ele>-5.60</ele>
	<time>2022-05-14T08:57:49.000Z</time>
</trkpt>
<trkpt lat="44.3162460" lon="9.1754750">
	<ele>-5.00</ele>
	<time>2022-05-14T08:57:52.000Z</time>
</trkpt>
<trkpt lat="44.3162390" lon="9.1754790">
	<ele>-5.00</ele>
	<time>2022-05-14T08:57:55.000Z</time>
</trkpt>
<trkpt lat="44.3162190" lon="9.1754740">
	<ele>-5.00</ele>
	<time>2022-05-14T08:58:02.000Z</time>
</trkpt>
<trkpt lat="44.3162450" lon="9.1755020">
	<ele>-5.00</ele>
	<time>2022-05-14T08:58:07.000Z</time>
</trkpt>
<trkpt lat="44.3162500" lon="9.1754920">
	<ele>-5.00</ele>
	<time>2022-05-14T08:58:14.000Z</time>
</trkpt>
<trkpt lat="44.3162490" lon="9.1754920">
	<ele>-5.00</ele>
	<time>2022-05-14T08:58:18.000Z</time>
</trkpt>
<trkpt lat="44.3162510" lon="9.1754920">
	<ele>-4.00</ele>
	<time>2022-05-14T08:58:31.000Z</time>
</trkpt>
<trkpt lat="44.3162510" lon="9.1754920">
	<ele>-4.00</ele>
	<time>2022-05-14T08:58:32.000Z</time>
</trkpt>
<trkpt lat="44.3162790" lon="9.1754900">
	<ele>-4.20</ele>
	<time>2022-05-14T08:58:36.000Z</time>
</trkpt>
<trkpt lat="44.3162900" lon="9.1754870">
	<ele>-4.20</ele>
	<time>2022-05-14T08:58:37.000Z</time>
</trkpt>
<trkpt lat="44.3163270" lon="9.1754820">
	<ele>-4.80</ele>
	<time>2022-05-14T08:58:41.000Z</time>
</trkpt>
<trkpt lat="44.3163350" lon="9.1754840">
	<ele>-5.00</ele>
	<time>2022-05-14T08:58:42.000Z</time>
</trkpt>
<trkpt lat="44.3163410" lon="9.1754890">
	<ele>-5.20</ele>
	<time>2022-05-14T08:58:43.000Z</time>
</trkpt>
<trkpt lat="44.3163280" lon="9.1754900">
	<ele>-5.00</ele>
	<time>2022-05-14T08:58:48.000Z</time>
</trkpt>
<trkpt lat="44.3163280" lon="9.1754960">
	<ele>-4.80</ele>
	<time>2022-05-14T08:58:49.000Z</time>
</trkpt>
<trkpt lat="44.3163310" lon="9.1755200">
	<ele>-4.00</ele>
	<time>2022-05-14T08:58:53.000Z</time>
</trkpt>
<trkpt lat="44.3163170" lon="9.1755060">
	<ele>-2.80</ele>
	<time>2022-05-14T08:58:58.000Z</time>
</trkpt>
<trkpt lat="44.3163130" lon="9.1755110">
	<ele>-2.60</ele>
	<time>2022-05-14T08:58:59.000Z</time>
</trkpt>
<trkpt lat="44.3163210" lon="9.1755330">
	<ele>-2.00</ele>
	<time>2022-05-14T08:59:04.000Z</time>
</trkpt>
<trkpt lat="44.3163210" lon="9.1755330">
	<ele>-1.60</ele>
	<time>2022-05-14T08:59:10.000Z</time>
</trkpt>
<trkpt lat="44.3163120" lon="9.1755330">
	<ele>-0.40</ele>
	<time>2022-05-14T08:59:15.000Z</time>
</trkpt>
<trkpt lat="44.3163050" lon="9.1755330">
	<ele>-0.20</ele>
	<time>2022-05-14T08:59:16.000Z</time>
</trkpt>
<trkpt lat="44.3162890" lon="9.1755400">
	<ele>0.80</ele>
	<time>2022-05-14T08:59:20.000Z</time>
</trkpt>
<trkpt lat="44.3162840" lon="9.1755700">
	<ele>1.40</ele>
	<time>2022-05-14T08:59:23.000Z</time>
</trkpt>
<trkpt lat="44.3162810" lon="9.1755920">
	<ele>1.80</ele>
	<time>2022-05-14T08:59:25.000Z</time>
</trkpt>
<trkpt lat="44.3162780" lon="9.1756180">
	<ele>2.60</ele>
	<time>2022-05-14T08:59:29.000Z</time>
</trkpt>
<trkpt lat="44.3162710" lon="9.1756240">
	<ele>2.80</ele>
	<time>2022-05-14T08:59:31.000Z</time>
</trkpt>
<trkpt lat="44.3162630" lon="9.1756380">
	<ele>3.40</ele>
	<time>2022-05-14T08:59:33.000Z</time>
</trkpt>
<trkpt lat="44.3162500" lon="9.1756330">
	<ele>3.80</ele>
	<time>2022-05-14T08:59:36.000Z</time>
</trkpt>
<trkpt lat="44.3162440" lon="9.1756330">
	<ele>4.20</ele>
	<time>2022-05-14T08:59:37.000Z</time>
</trkpt>
<trkpt lat="44.3162220" lon="9.1756370">
	<ele>5.20</ele>
	<time>2022-05-14T08:59:42.000Z</time>
</trkpt>
<trkpt lat="44.3162180" lon="9.1756430">
	<ele>5.40</ele>
	<time>2022-05-14T08:59:43.000Z</time>
</trkpt>
<trkpt lat="44.3162030" lon="9.1756510">
	<ele>6.20</ele>
	<time>2022-05-14T08:59:48.000Z</time>
</trkpt>
<trkpt lat="44.3162090" lon="9.1756590">
	<ele>6.80</ele>
	<time>2022-05-14T08:59:50.000Z</time>
</trkpt>
<trkpt lat="44.3162250" lon="9.1756580">
	<ele>7.20</ele>
	<time>2022-05-14T08:59:53.000Z</time>
</trkpt>
<trkpt lat="44.3162090" lon="9.1756370">
	<ele>8.00</ele>
	<time>2022-05-14T08:59:58.000Z</time>
</trkpt>
<trkpt lat="44.3161990" lon="9.1756290">
	<ele>8.40</ele>
	<time>2022-05-14T09:00:00.000Z</time>
</trkpt>
<trkpt lat="44.3161880" lon="9.1756120">
	<ele>9.20</ele>
	<time>2022-05-14T09:00:04.000Z</time>
</trkpt>
<trkpt lat="44.3161820" lon="9.1756160">
	<ele>9.40</ele>
	<time>2022-05-14T09:00:06.000Z</time>
</trkpt>
<trkpt lat="44.3161550" lon="9.1756680">
	<ele>10.00</ele>
	<time>2022-05-14T09:00:14.000Z</time>
</trkpt>
<trkpt lat="44.3161590" lon="9.1756790">
	<ele>10.60</ele>
	<time>2022-05-14T09:00:27.000Z</time>
</trkpt>
<trkpt lat="44.3161600" lon="9.1756790">
	<ele>11.80</ele>
	<time>2022-05-14T09:00:34.000Z</time>
</trkpt>
<trkpt lat="44.3161600" lon="9.1756790">
	<ele>12.00</ele>
	<time>2022-05-14T09:00:35.000Z</time>
</trkpt>
<trkpt lat="44.3161620" lon="9.1756790">
	<ele>13.00</ele>
	<time>2022-05-14T09:00:39.000Z</time>
</trkpt>
<trkpt lat="44.3161620" lon="9.1756790">
	<ele>13.20</ele>
	<time>2022-05-14T09:00:40.000Z</time>
</trkpt>
<trkpt lat="44.3161620" lon="9.1756810">
	<ele>13.60</ele>
	<time>2022-05-14T09:00:41.000Z</time>
</trkpt>
<trkpt lat="44.3161620" lon="9.1756880">
	<ele>14.00</ele>
	<time>2022-05-14T09:00:43.000Z</time>
</trkpt>
<trkpt lat="44.3161630" lon="9.1757000">
	<ele>15.00</ele>
	<time>2022-05-14T09:00:46.000Z</time>
</trkpt>
<trkpt lat="44.3161930" lon="9.1757200">
	<ele>16.20</ele>
	<time>2022-05-14T09:00:53.000Z</time>
</trkpt>
<trkpt lat="44.3161980" lon="9.1757300">
	<ele>17.20</ele>
	<time>2022-05-14T09:00:56.000Z</time>
</trkpt>
<trkpt lat="44.3162000" lon="9.1757690">
	<ele>18.40</ele>
	<time>2022-05-14T09:01:00.000Z</time>
</trkpt>
<trkpt lat="44.3162060" lon="9.1757970">
	<ele>18.80</ele>
	<time>2022-05-14T09:01:04.000Z</time>
</trkpt>
<trkpt lat="44.3162460" lon="9.1758340">
	<ele>19.00</ele>
	<time>2022-05-14T09:01:10.000Z</time>
</trkpt>
<trkpt lat="44.3162820" lon="9.1758670">
	<ele>19.20</ele>
	<time>2022-05-14T09:01:13.000Z</time>
</trkpt>
<trkpt lat="44.3163030" lon="9.1758950">
	<ele>19.20</ele>
	<time>2022-05-14T09:01:16.000Z</time>
</trkpt>
<trkpt lat="44.3163080" lon="9.1759040">
	<ele>19.20</ele>
	<time>2022-05-14T09:01:17.000Z</time>
</trkpt>
<trkpt lat="44.3163120" lon="9.1759130">
	<ele>19.40</ele>
	<time>2022-05-14T09:01:18.000Z</time>
</trkpt>
<trkpt lat="44.3163250" lon="9.1759240">
	<ele>19.60</ele>
	<time>2022-05-14T09:01:20.000Z</time>
</trkpt>
<trkpt lat="44.3163450" lon="9.1759330">
	<ele>19.80</ele>
	<time>2022-05-14T09:01:22.000Z</time>
</trkpt>
<trkpt lat="44.3163590" lon="9.1759410">
	<ele>20.20</ele>
	<time>2022-05-14T09:01:23.000Z</time>
</trkpt>
<trkpt lat="44.3163830" lon="9.1759460">
	<ele>20.60</ele>
	<time>2022-05-14T09:01:25.000Z</time>
</trkpt>
<trkpt lat="44.3163900" lon="9.1759500">
	<ele>20.80</ele>
	<time>2022-05-14T09:01:26.000Z</time>
</trkpt>
<trkpt lat="44.3164070" lon="9.1759630">
	<ele>21.20</ele>
	<time>2022-05-14T09:01:29.000Z</time>
</trkpt>
<trkpt lat="44.3164540" lon="9.1759580">
	<ele>21.60</ele>
	<time>2022-05-14T09:01:35.000Z</time>
</trkpt>
<trkpt lat="44.3165110" lon="9.1759920">
	<ele>22.40</ele>
	<time>2022-05-14T09:01:42.000Z</time>
</trkpt>
<trkpt lat="44.3165330" lon="9.1759970">
	<ele>22.40</ele>
	<time>2022-05-14T09:01:44.000Z</time>
</trkpt>
<trkpt lat="44.3165430" lon="9.1760140">
	<ele>22.60</ele>
	<time>2022-05-14T09:01:45.000Z</time>
</trkpt>
<trkpt lat="44.3165480" lon="9.1760270">
	<ele>22.60</ele>
	<time>2022-05-14T09:01:46.000Z</time>
</trkpt>
<trkpt lat="44.3165510" lon="9.1760410">
	<ele>22.80</ele>
	<time>2022-05-14T09:01:47.000Z</time>
</trkpt>
<trkpt lat="44.3165800" lon="9.1760930">
	<ele>23.60</ele>
	<time>2022-05-14T09:01:53.000Z</time>
</trkpt>
<trkpt lat="44.3165850" lon="9.1761040">
	<ele>23.80</ele>
	<time>2022-05-14T09:01:54.000Z</time>
</trkpt>
<trkpt lat="44.3166170" lon="9.1761810">
	<ele>24.80</ele>
	<time>2022-05-14T09:02:01.000Z</time>
</trkpt>
<trkpt lat="44.3166150" lon="9.1762010">
	<ele>25.00</ele>
	<time>2022-05-14T09:02:03.000Z</time>
</trkpt>
<trkpt lat="44.3166040" lon="9.1762550">
	<ele>25.80</ele>
	<time>2022-05-14T09:02:11.000Z</time>
</trkpt>
<trkpt lat="44.3166130" lon="9.1762760">
	<ele>26.40</ele>
	<time>2022-05-14T09:02:16.000Z</time>
</trkpt>
<trkpt lat="44.3166110" lon="9.1762800">
	<ele>26.60</ele>
	<time>2022-05-14T09:02:17.000Z</time>
</trkpt>
<trkpt lat="44.3166180" lon="9.1763070">
	<ele>26.80</ele>
	<time>2022-05-14T09:02:19.000Z</time>
</trkpt>
<trkpt lat="44.3166470" lon="9.1763310">
	<ele>27.60</ele>
	<time>2022-05-14T09:02:24.000Z</time>
</trkpt>
<trkpt lat="44.3166600" lon="9.1763500">
	<ele>27.80</ele>
	<time>2022-05-14T09:02:26.000Z</time>
</trkpt>
<trkpt lat="44.3166810" lon="9.1763180">
	<ele>28.40</ele>
	<time>2022-05-14T09:02:30.000Z</time>
</trkpt>
<trkpt lat="44.3166880" lon="9.1762730">
	<ele>28.80</ele>
	<time>2022-05-14T09:02:34.000Z</time>
</trkpt>
<trkpt lat="44.3167010" lon="9.1762280">
	<ele>29.60</ele>
	<time>2022-05-14T09:02:39.000Z</time>
</trkpt>
<trkpt lat="44.3167010" lon="9.1762010">
	<ele>30.00</ele>
	<time>2022-05-14T09:02:42.000Z</time>
</trkpt>
<trkpt lat="44.3167040" lon="9.1761500">
	<ele>31.00</ele>
	<time>2022-05-14T09:02:48.000Z</time>
</trkpt>
<trkpt lat="44.3167270" lon="9.1761950">
	<ele>32.20</ele>
	<time>2022-05-14T09:02:54.000Z</time>
</trkpt>
<trkpt lat="44.3167700" lon="9.1762690">
	<ele>33.00</ele>
	<time>2022-05-14T09:03:03.000Z</time>
</trkpt>
<trkpt lat="44.3167750" lon="9.1762710">
	<ele>33.20</ele>
	<time>2022-05-14T09:03:04.000Z</time>
</trkpt>
<trkpt lat="44.3167910" lon="9.1762930">
	<ele>33.80</ele>
	<time>2022-05-14T09:03:08.000Z</time>
</trkpt>
<trkpt lat="44.3168070" lon="9.1763090">
	<ele>34.60</ele>
	<time>2022-05-14T09:03:11.000Z</time>
</trkpt>
<trkpt lat="44.3168230" lon="9.1763350">
	<ele>35.20</ele>
	<time>2022-05-14T09:03:14.000Z</time>
</trkpt>
<trkpt lat="44.3168380" lon="9.1763520">
	<ele>35.60</ele>
	<time>2022-05-14T09:03:17.000Z</time>
</trkpt>
<trkpt lat="44.3168380" lon="9.1764000">
	<ele>36.40</ele>
	<time>2022-05-14T09:03:23.000Z</time>
</trkpt>
<trkpt lat="44.3168440" lon="9.1764140">
	<ele>36.60</ele>
	<time>2022-05-14T09:03:24.000Z</time>
</trkpt>
<trkpt lat="44.3168770" lon="9.1764590">
	<ele>37.80</ele>
	<time>2022-05-14T09:03:29.000Z</time>
</trkpt>
<trkpt lat="44.3169020" lon="9.1764730">
	<ele>38.60</ele>
	<time>2022-05-14T09:03:33.000Z</time>
</trkpt>
<trkpt lat="44.3169130" lon="9.1764760">
	<ele>38.80</ele>
	<time>2022-05-14T09:03:35.000Z</time>
</trkpt>
<trkpt lat="44.3169240" lon="9.1764490">
	<ele>39.80</ele>
	<time>2022-05-14T09:03:39.000Z</time>
</trkpt>
<trkpt lat="44.3169220" lon="9.1764380">
	<ele>40.00</ele>
	<time>2022-05-14T09:03:40.000Z</time>
</trkpt>
<trkpt lat="44.3169110" lon="9.1763530">
	<ele>41.00</ele>
	<time>2022-05-14T09:03:47.000Z</time>
</trkpt>
<trkpt lat="44.3169060" lon="9.1763480">
	<ele>41.00</ele>
	<time>2022-05-14T09:03:48.000Z</time>
</trkpt>
<trkpt lat="44.3169000" lon="9.1763330">
	<ele>41.20</ele>
	<time>2022-05-14T09:03:50.000Z</time>
</trkpt>
<trkpt lat="44.3169010" lon="9.1762980">
	<ele>41.60</ele>
	<time>2022-05-14T09:03:56.000Z</time>
</trkpt>
<trkpt lat="44.3169180" lon="9.1763220">
	<ele>42.00</ele>
	<time>2022-05-14T09:04:02.000Z</time>
</trkpt>
<trkpt lat="44.3169340" lon="9.1763490">
	<ele>42.60</ele>
	<time>2022-05-14T09:04:05.000Z</time>
</trkpt>
<trkpt lat="44.3169380" lon="9.1763840">
	<ele>43.00</ele>
	<time>2022-05-14T09:04:10.000Z</time>
</trkpt>
<trkpt lat="44.3169380" lon="9.1763930">
	<ele>43.20</ele>
	<time>2022-05-14T09:04:11.000Z</time>
</trkpt>
<trkpt lat="44.3169790" lon="9.1764480">
	<ele>44.20</ele>
	<time>2022-05-14T09:04:17.000Z</time>
</trkpt>
<trkpt lat="44.3169820" lon="9.1764490">
	<ele>44.60</ele>
	<time>2022-05-14T09:04:20.000Z</time>
</trkpt>
<trkpt lat="44.3169910" lon="9.1764680">
	<ele>45.40</ele>
	<time>2022-05-14T09:04:24.000Z</time>
</trkpt>
<trkpt lat="44.3170100" lon="9.1764690">
	<ele>45.80</ele>
	<time>2022-05-14T09:04:26.000Z</time>
</trkpt>
<trkpt lat="44.3170300" lon="9.1764850">
	<ele>46.20</ele>
	<time>2022-05-14T09:04:30.000Z</time>
</trkpt>
<trkpt lat="44.3170370" lon="9.1764790">
	<ele>46.40</ele>
	<time>2022-05-14T09:04:31.000Z</time>
</trkpt>
<trkpt lat="44.3170640" lon="9.1764930">
	<ele>47.40</ele>
	<time>2022-05-14T09:04:38.000Z</time>
</trkpt>
<trkpt lat="44.3170680" lon="9.1764970">
	<ele>47.60</ele>
	<time>2022-05-14T09:04:39.000Z</time>
</trkpt>
<trkpt lat="44.3170890" lon="9.1765470">
	<ele>48.80</ele>
	<time>2022-05-14T09:04:45.000Z</time>
</trkpt>
<trkpt lat="44.3170980" lon="9.1765890">
	<ele>49.80</ele>
	<time>2022-05-14T09:04:51.000Z</time>
</trkpt>
<trkpt lat="44.3170960" lon="9.1765780">
	<ele>50.20</ele>
	<time>2022-05-14T09:04:53.000Z</time>
</trkpt>
<trkpt lat="44.3170810" lon="9.1765220">
	<ele>50.80</ele>
	<time>2022-05-14T09:04:59.000Z</time>
</trkpt>
<trkpt lat="44.3170890" lon="9.1765210">
	<ele>50.80</ele>
	<time>2022-05-14T09:05:00.000Z</time>
</trkpt>
<trkpt lat="44.3171260" lon="9.1765540">
	<ele>51.80</ele>
	<time>2022-05-14T09:05:07.000Z</time>
</trkpt>
<trkpt lat="44.3171230" lon="9.1765720">
	<ele>52.00</ele>
	<time>2022-05-14T09:05:08.000Z</time>
</trkpt>
<trkpt lat="44.3171340" lon="9.1766110">
	<ele>52.80</ele>
	<time>2022-05-14T09:05:12.000Z</time>
</trkpt>
<trkpt lat="44.3171330" lon="9.1766250">
	<ele>53.00</ele>
	<time>2022-05-14T09:05:14.000Z</time>
</trkpt>
<trkpt lat="44.3171370" lon="9.1766360">
	<ele>53.20</ele>
	<time>2022-05-14T09:05:15.000Z</time>
</trkpt>
<trkpt lat="44.3171550" lon="9.1766950">
	<ele>54.00</ele>
	<time>2022-05-14T09:05:21.000Z</time>
</trkpt>
<trkpt lat="44.3171580" lon="9.1767010">
	<ele>54.40</ele>
	<time>2022-05-14T09:05:22.000Z</time>
</trkpt>
<trkpt lat="44.3171690" lon="9.1767350">
	<ele>55.00</ele>
	<time>2022-05-14T09:05:26.000Z</time>
</trkpt>
<trkpt lat="44.3171900" lon="9.1767490">
	<ele>55.60</ele>
	<time>2022-05-14T09:05:29.000Z</time>
</trkpt>
<trkpt lat="44.3172080" lon="9.1767840">
	<ele>56.20</ele>
	<time>2022-05-14T09:05:33.000Z</time>
</trkpt>
<trkpt lat="44.3171990" lon="9.1768070">
	<ele>56.80</ele>
	<time>2022-05-14T09:05:37.000Z</time>
</trkpt>
<trkpt lat="44.3172000" lon="9.1768200">
	<ele>57.40</ele>
	<time>2022-05-14T09:05:39.000Z</time>
</trkpt>
<trkpt lat="44.3172210" lon="9.1768640">
	<ele>58.00</ele>
	<time>2022-05-14T09:05:44.000Z</time>
</trkpt>
<trkpt lat="44.3172290" lon="9.1768590">
	<ele>58.60</ele>
	<time>2022-05-14T09:05:46.000Z</time>
</trkpt>
<trkpt lat="44.3172580" lon="9.1768200">
	<ele>59.20</ele>
	<time>2022-05-14T09:05:51.000Z</time>
</trkpt>
<trkpt lat="44.3172700" lon="9.1767790">
	<ele>59.60</ele>
	<time>2022-05-14T09:05:56.000Z</time>
</trkpt>
<trkpt lat="44.3172540" lon="9.1767820">
	<ele>60.20</ele>
	<time>2022-05-14T09:05:59.000Z</time>
</trkpt>
<trkpt lat="44.3172500" lon="9.1767990">
	<ele>60.40</ele>
	<time>2022-05-14T09:06:06.000Z</time>
</trkpt>
<trkpt lat="44.3172500" lon="9.1767930">
	<ele>60.20</ele>
	<time>2022-05-14T09:06:07.000Z</time>
</trkpt>
<trkpt lat="44.3172540" lon="9.1767610">
	<ele>60.00</ele>
	<time>2022-05-14T09:06:12.000Z</time>
</trkpt>
<trkpt lat="44.3172620" lon="9.1767540">
	<ele>60.20</ele>
	<time>2022-05-14T09:06:14.000Z</time>
</trkpt>
<trkpt lat="44.3172800" lon="9.1767840">
	<ele>60.60</ele>
	<time>2022-05-14T09:06:19.000Z</time>
</trkpt>
<trkpt lat="44.3172900" lon="9.1767950">
	<ele>61.20</ele>
	<time>2022-05-14T09:06:22.000Z</time>
</trkpt>
<trkpt lat="44.3172940" lon="9.1768220">
	<ele>61.80</ele>
	<time>2022-05-14T09:06:26.000Z</time>
</trkpt>
<trkpt lat="44.3172980" lon="9.1768390">
	<ele>62.20</ele>
	<time>2022-05-14T09:06:29.000Z</time>
</trkpt>
<trkpt lat="44.3173030" lon="9.1768650">
	<ele>63.00</ele>
	<time>2022-05-14T09:06:34.000Z</time>
</trkpt>
<trkpt lat="44.3173120" lon="9.1768660">
	<ele>63.40</ele>
	<time>2022-05-14T09:06:36.000Z</time>
</trkpt>
<trkpt lat="44.3173310" lon="9.1768520">
	<ele>64.00</ele>
	<time>2022-05-14T09:06:39.000Z</time>
</trkpt>
<trkpt lat="44.3173450" lon="9.1768170">
	<ele>64.60</ele>
	<time>2022-05-14T09:06:44.000Z</time>
</trkpt>
<trkpt lat="44.3173470" lon="9.1768370">
	<ele>65.00</ele>
	<time>2022-05-14T09:06:46.000Z</time>
</trkpt>
<trkpt lat="44.3173230" lon="9.1768820">
	<ele>65.80</ele>
	<time>2022-05-14T09:06:52.000Z</time>
</trkpt>
<trkpt lat="44.3173220" lon="9.1768890">
	<ele>66.20</ele>
	<time>2022-05-14T09:06:53.000Z</time>
</trkpt>
<trkpt lat="44.3173140" lon="9.1769140">
	<ele>67.00</ele>
	<time>2022-05-14T09:06:59.000Z</time>
</trkpt>
<trkpt lat="44.3173130" lon="9.1769170">
	<ele>67.20</ele>
	<time>2022-05-14T09:07:00.000Z</time>
</trkpt>
<trkpt lat="44.3173360" lon="9.1769590">
	<ele>68.20</ele>
	<time>2022-05-14T09:07:07.000Z</time>
</trkpt>
<trkpt lat="44.3173390" lon="9.1769630">
	<ele>68.60</ele>
	<time>2022-05-14T09:07:08.000Z</time>
</trkpt>
<trkpt lat="44.3173520" lon="9.1769490">
	<ele>69.40</ele>
	<time>2022-05-14T09:07:12.000Z</time>
</trkpt>
<trkpt lat="44.3173670" lon="9.1769430">
	<ele>69.80</ele>
	<time>2022-05-14T09:07:14.000Z</time>
</trkpt>
<trkpt lat="44.3173950" lon="9.1769220">
	<ele>70.40</ele>
	<time>2022-05-14T09:07:19.000Z</time>
</trkpt>
<trkpt lat="44.3174180" lon="9.1769290">
	<ele>70.80</ele>
	<time>2022-05-14T09:07:23.000Z</time>
</trkpt>
<trkpt lat="44.3174120" lon="9.1769450">
	<ele>71.20</ele>
	<time>2022-05-14T09:07:26.000Z</time>
</trkpt>
<trkpt lat="44.3174060" lon="9.1769830">
	<ele>72.00</ele>
	<time>2022-05-14T09:07:30.000Z</time>
</trkpt>
<trkpt lat="44.3174080" lon="9.1770040">
	<ele>72.60</ele>
	<time>2022-05-14T09:07:33.000Z</time>
</trkpt>
<trkpt lat="44.3174110" lon="9.1770250">
	<ele>73.00</ele>
	<time>2022-05-14T09:07:35.000Z</time>
</trkpt>
<trkpt lat="44.3174220" lon="9.1770610">
	<ele>74.20</ele>
	<time>2022-05-14T09:07:41.000Z</time>
</trkpt>
<trkpt lat="44.3174400" lon="9.1770770">
	<ele>75.20</ele>
	<time>2022-05-14T09:07:46.000Z</time>
</trkpt>
<trkpt lat="44.3174370" lon="9.1770900">
	<ele>75.60</ele>
	<time>2022-05-14T09:07:48.000Z</time>
</trkpt>
<trkpt lat="44.3174430" lon="9.1770910">
	<ele>76.40</ele>
	<time>2022-05-14T09:07:52.000Z</time>
</trkpt>
<trkpt lat="44.3174480" lon="9.1771110">
	<ele>76.80</ele>
	<time>2022-05-14T09:07:54.000Z</time>
</trkpt>
<trkpt lat="44.3174420" lon="9.1771370">
	<ele>77.40</ele>
	<time>2022-05-14T09:07:58.000Z</time>
</trkpt>
<trkpt lat="44.3174460" lon="9.1771800">
	<ele>78.60</ele>
	<time>2022-05-14T09:08:03.000Z</time>
</trkpt>
<trkpt lat="44.3174450" lon="9.1772110">
	<ele>79.20</ele>
	<time>2022-05-14T09:08:07.000Z</time>
</trkpt>
<trkpt lat="44.3174220" lon="9.1772470">
	<ele>79.60</ele>
	<time>2022-05-14T09:08:09.000Z</time>
</trkpt>
<trkpt lat="44.3174190" lon="9.1772710">
	<ele>79.60</ele>
	<time>2022-05-14T09:08:12.000Z</time>
</trkpt>
<trkpt lat="44.3174250" lon="9.1773070">
	<ele>79.60</ele>
	<time>2022-05-14T09:08:16.000Z</time>
</trkpt>
<trkpt lat="44.3174160" lon="9.1773240">
	<ele>79.60</ele>
	<time>2022-05-14T09:08:18.000Z</time>
</trkpt>
<trkpt lat="44.3173950" lon="9.1773160">
	<ele>80.40</ele>
	<time>2022-05-14T09:08:24.000Z</time>
</trkpt>
<trkpt lat="44.3173750" lon="9.1772880">
	<ele>80.60</ele>
	<time>2022-05-14T09:08:26.000Z</time>
</trkpt>
<trkpt lat="44.3173350" lon="9.1772440">
	<ele>81.40</ele>
	<time>2022-05-14T09:08:30.000Z</time>
</trkpt>
<trkpt lat="44.3173260" lon="9.1772670">
	<ele>81.80</ele>
	<time>2022-05-14T09:08:33.000Z</time>
</trkpt>
<trkpt lat="44.3173450" lon="9.1772720">
	<ele>82.20</ele>
	<time>2022-05-14T09:08:35.000Z</time>
</trkpt>
<trkpt lat="44.3173660" lon="9.1772980">
	<ele>83.00</ele>
	<time>2022-05-14T09:08:39.000Z</time>
</trkpt>
<trkpt lat="44.3173700" lon="9.1773130">
	<ele>83.20</ele>
	<time>2022-05-14T09:08:41.000Z</time>
</trkpt>
<trkpt lat="44.3173600" lon="9.1773570">
	<ele>84.00</ele>
	<time>2022-05-14T09:08:45.000Z</time>
</trkpt>
<trkpt lat="44.3173980" lon="9.1774400">
	<ele>85.20</ele>
	<time>2022-05-14T09:08:51.000Z</time>
</trkpt>
<trkpt lat="44.3174040" lon="9.1774650">
	<ele>85.80</ele>
	<time>2022-05-14T09:08:56.000Z</time>
</trkpt>
<trkpt lat="44.3174130" lon="9.1774770">
	<ele>86.40</ele>
	<time>2022-05-14T09:08:59.000Z</time>
</trkpt>
<trkpt lat="44.3174320" lon="9.1774900">
	<ele>86.80</ele>
	<time>2022-05-14T09:09:01.000Z</time>
</trkpt>
<trkpt lat="44.3174410" lon="9.1774990">
	<ele>87.40</ele>
	<time>2022-05-14T09:09:05.000Z</time>
</trkpt>
<trkpt lat="44.3174380" lon="9.1775070">
	<ele>87.40</ele>
	<time>2022-05-14T09:09:06.000Z</time>
</trkpt>
<trkpt lat="44.3174390" lon="9.1775280">
	<ele>88.60</ele>
	<time>2022-05-14T09:09:11.000Z</time>
</trkpt>
<trkpt lat="44.3174400" lon="9.1775240">
	<ele>89.00</ele>
	<time>2022-05-14T09:09:13.000Z</time>
</trkpt>
<trkpt lat="44.3174120" lon="9.1775120">
	<ele>89.80</ele>
	<time>2022-05-14T09:09:19.000Z</time>
</trkpt>
<trkpt lat="44.3174120" lon="9.1775130">
	<ele>90.00</ele>
	<time>2022-05-14T09:09:20.000Z</time>
</trkpt>
<trkpt lat="44.3174160" lon="9.1775530">
	<ele>90.80</ele>
	<time>2022-05-14T09:09:25.000Z</time>
</trkpt>
<trkpt lat="44.3174220" lon="9.1775680">
	<ele>91.00</ele>
	<time>2022-05-14T09:09:26.000Z</time>
</trkpt>
<trkpt lat="44.3174470" lon="9.1775960">
	<ele>91.80</ele>
	<time>2022-05-14T09:09:32.000Z</time>
</trkpt>
<trkpt lat="44.3174530" lon="9.1775940">
	<ele>92.00</ele>
	<time>2022-05-14T09:09:33.000Z</time>
</trkpt>
<trkpt lat="44.3174580" lon="9.1776370">
	<ele>92.60</ele>
	<time>2022-05-14T09:09:38.000Z</time>
</trkpt>
<trkpt lat="44.3174970" lon="9.1776740">
	<ele>93.00</ele>
	<time>2022-05-14T09:09:42.000Z</time>
</trkpt>
<trkpt lat="44.3175080" lon="9.1776870">
	<ele>93.60</ele>
	<time>2022-05-14T09:09:44.000Z</time>
</trkpt>
<trkpt lat="44.3175160" lon="9.1777030">
	<ele>94.20</ele>
	<time>2022-05-14T09:09:49.000Z</time>
</trkpt>
<trkpt lat="44.3175130" lon="9.1776990">
	<ele>94.40</ele>
	<time>2022-05-14T09:09:51.000Z</time>
</trkpt>
<trkpt lat="44.3175210" lon="9.1777530">
	<ele>95.20</ele>
	<time>2022-05-14T09:09:56.000Z</time>
</trkpt>
<trkpt lat="44.3175310" lon="9.1777880">
	<ele>95.80</ele>
	<time>2022-05-14T09:10:01.000Z</time>
</trkpt>
<trkpt lat="44.3175410" lon="9.1777950">
	<ele>96.40</ele>
	<time>2022-05-14T09:10:04.000Z</time>
</trkpt>
<trkpt lat="44.3175380" lon="9.1778190">
	<ele>96.80</ele>
	<time>2022-05-14T09:10:07.000Z</time>
</trkpt>
<trkpt lat="44.3175670" lon="9.1778340">
	<ele>97.40</ele>
	<time>2022-05-14T09:10:11.000Z</time>
</trkpt>
<trkpt lat="44.3175710" lon="9.1778330">
	<ele>97.40</ele>
	<time>2022-05-14T09:10:12.000Z</time>
</trkpt>
<trkpt lat="44.3175910" lon="9.1778580">
	<ele>98.40</ele>
	<time>2022-05-14T09:10:17.000Z</time>
</trkpt>
<trkpt lat="44.3175920" lon="9.1778650">
	<ele>98.60</ele>
	<time>2022-05-14T09:10:18.000Z</time>
</trkpt>
<trkpt lat="44.3175900" lon="9.1778810">
	<ele>99.00</ele>
	<time>2022-05-14T09:10:21.000Z</time>
</trkpt>
<trkpt lat="44.3176030" lon="9.1779190">
	<ele>99.60</ele>
	<time>2022-05-14T09:10:24.000Z</time>
</trkpt>
<trkpt lat="44.3176170" lon="9.1779350">
	<ele>100.00</ele>
	<time>2022-05-14T09:10:26.000Z</time>
</trkpt>
<trkpt lat="44.3176750" lon="9.1779670">
	<ele>100.60</ele>
	<time>2022-05-14T09:10:29.000Z</time>
</trkpt>
<trkpt lat="44.3176800" lon="9.1779790">
	<ele>100.80</ele>
	<time>2022-05-14T09:10:30.000Z</time>
</trkpt>
<trkpt lat="44.3176950" lon="9.1780150">
	<ele>101.60</ele>
	<time>2022-05-14T09:10:36.000Z</time>
</trkpt>
<trkpt lat="44.3177150" lon="9.1780310">
	<ele>102.40</ele>
	<time>2022-05-14T09:10:41.000Z</time>
</trkpt>
<trkpt lat="44.3177010" lon="9.1780490">
	<ele>102.80</ele>
	<time>2022-05-14T09:10:43.000Z</time>
</trkpt>
<trkpt lat="44.3177040" lon="9.1780670">
	<ele>103.20</ele>
	<time>2022-05-14T09:10:46.000Z</time>
</trkpt>
<trkpt lat="44.3176980" lon="9.1780930">
	<ele>104.00</ele>
	<time>2022-05-14T09:10:49.000Z</time>
</trkpt>
<trkpt lat="44.3177070" lon="9.1781040">
	<ele>104.20</ele>
	<time>2022-05-14T09:10:51.000Z</time>
</trkpt>
<trkpt lat="44.3177070" lon="9.1781310">
	<ele>105.00</ele>
	<time>2022-05-14T09:10:56.000Z</time>
</trkpt>
<trkpt lat="44.3177010" lon="9.1781330">
	<ele>105.20</ele>
	<time>2022-05-14T09:10:57.000Z</time>
</trkpt>
<trkpt lat="44.3177060" lon="9.1781570">
	<ele>105.80</ele>
	<time>2022-05-14T09:11:01.000Z</time>
</trkpt>
<trkpt lat="44.3177160" lon="9.1781700">
	<ele>106.20</ele>
	<time>2022-05-14T09:11:03.000Z</time>
</trkpt>
<trkpt lat="44.3177380" lon="9.1781770">
	<ele>106.40</ele>
	<time>2022-05-14T09:11:05.000Z</time>
</trkpt>
<trkpt lat="44.3177720" lon="9.1782120">
	<ele>107.20</ele>
	<time>2022-05-14T09:11:10.000Z</time>
</trkpt>
<trkpt lat="44.3177860" lon="9.1782150">
	<ele>107.40</ele>
	<time>2022-05-14T09:11:11.000Z</time>
</trkpt>
<trkpt lat="44.3178400" lon="9.1782280">
	<ele>108.20</ele>
	<time>2022-05-14T09:11:16.000Z</time>
</trkpt>
<trkpt lat="44.3178510" lon="9.1782350">
	<ele>108.20</ele>
	<time>2022-05-14T09:11:17.000Z</time>
</trkpt>
<trkpt lat="44.3178820" lon="9.1781990">
	<ele>108.60</ele>
	<time>2022-05-14T09:11:21.000Z</time>
</trkpt>
<trkpt lat="44.3179050" lon="9.1781630">
	<ele>109.00</ele>
	<time>2022-05-14T09:11:24.000Z</time>
</trkpt>
<trkpt lat="44.3179270" lon="9.1781550">
	<ele>109.40</ele>
	<time>2022-05-14T09:11:26.000Z</time>
</trkpt>
<trkpt lat="44.3179320" lon="9.1781480">
	<ele>109.60</ele>
	<time>2022-05-14T09:11:27.000Z</time>
</trkpt>
<trkpt lat="44.3179370" lon="9.1781170">
	<ele>110.00</ele>
	<time>2022-05-14T09:11:31.000Z</time>
</trkpt>
<trkpt lat="44.3179320" lon="9.1781060">
	<ele>110.40</ele>
	<time>2022-05-14T09:11:32.000Z</time>
</trkpt>
<trkpt lat="44.3179450" lon="9.1780910">
	<ele>110.60</ele>
	<time>2022-05-14T09:11:33.000Z</time>
</trkpt>
<trkpt lat="44.3179470" lon="9.1780650">
	<ele>110.80</ele>
	<time>2022-05-14T09:11:36.000Z</time>
</trkpt>
<trkpt lat="44.3179500" lon="9.1780710">
	<ele>111.40</ele>
	<time>2022-05-14T09:11:39.000Z</time>
</trkpt>
<trkpt lat="44.3179500" lon="9.1780730">
	<ele>111.60</ele>
	<time>2022-05-14T09:11:40.000Z</time>
</trkpt>
<trkpt lat="44.3179440" lon="9.1780720">
	<ele>112.00</ele>
	<time>2022-05-14T09:11:42.000Z</time>
</trkpt>
<trkpt lat="44.3179380" lon="9.1780840">
	<ele>112.20</ele>
	<time>2022-05-14T09:11:44.000Z</time>
</trkpt>
<trkpt lat="44.3179460" lon="9.1781100">
	<ele>112.80</ele>
	<time>2022-05-14T09:11:47.000Z</time>
</trkpt>
<trkpt lat="44.3179520" lon="9.1781350">
	<ele>113.20</ele>
	<time>2022-05-14T09:11:50.000Z</time>
</trkpt>
<trkpt lat="44.3179390" lon="9.1781540">
	<ele>113.80</ele>
	<time>2022-05-14T09:11:53.000Z</time>
</trkpt>
<trkpt lat="44.3179480" lon="9.1781630">
	<ele>114.00</ele>
	<time>2022-05-14T09:11:54.000Z</time>
</trkpt>
<trkpt lat="44.3179550" lon="9.1781670">
	<ele>114.00</ele>
	<time>2022-05-14T09:11:55.000Z</time>
</trkpt>
<trkpt lat="44.3179560" lon="9.1781710">
	<ele>114.20</ele>
	<time>2022-05-14T09:11:56.000Z</time>
</trkpt>
<trkpt lat="44.3179550" lon="9.1781980">
	<ele>114.60</ele>
	<time>2022-05-14T09:11:59.000Z</time>
</trkpt>
<trkpt lat="44.3179740" lon="9.1782220">
	<ele>115.20</ele>
	<time>2022-05-14T09:12:01.000Z</time>
</trkpt>
<trkpt lat="44.3179780" lon="9.1782340">
	<ele>115.20</ele>
	<time>2022-05-14T09:12:02.000Z</time>
</trkpt>
<trkpt lat="44.3179790" lon="9.1782450">
	<ele>115.60</ele>
	<time>2022-05-14T09:12:03.000Z</time>
</trkpt>
<trkpt lat="44.3179850" lon="9.1782650">
	<ele>115.80</ele>
	<time>2022-05-14T09:12:05.000Z</time>
</trkpt>
<trkpt lat="44.3179820" lon="9.1782870">
	<ele>116.20</ele>
	<time>2022-05-14T09:12:07.000Z</time>
</trkpt>
<trkpt lat="44.3179910" lon="9.1783090">
	<ele>116.60</ele>
	<time>2022-05-14T09:12:09.000Z</time>
</trkpt>
<trkpt lat="44.3179950" lon="9.1783640">
	<ele>117.40</ele>
	<time>2022-05-14T09:12:14.000Z</time>
</trkpt>
<trkpt lat="44.3179980" lon="9.1783680">
	<ele>117.60</ele>
	<time>2022-05-14T09:12:16.000Z</time>
</trkpt>
<trkpt lat="44.3180170" lon="9.1783430">
	<ele>118.20</ele>
	<time>2022-05-14T09:12:18.000Z</time>
</trkpt>
<trkpt lat="44.3180210" lon="9.1783300">
	<ele>118.40</ele>
	<time>2022-05-14T09:12:19.000Z</time>
</trkpt>
<trkpt lat="44.3180180" lon="9.1783180">
	<ele>118.60</ele>
	<time>2022-05-14T09:12:20.000Z</time>
</trkpt>
<trkpt lat="44.3180050" lon="9.1782890">
	<ele>119.00</ele>
	<time>2022-05-14T09:12:23.000Z</time>
</trkpt>
<trkpt lat="44.3180010" lon="9.1782650">
	<ele>119.20</ele>
	<time>2022-05-14T09:12:25.000Z</time>
</trkpt>
<trkpt lat="44.3180000" lon="9.1782450">
	<ele>119.40</ele>
	<time>2022-05-14T09:12:26.000Z</time>
</trkpt>
<trkpt lat="44.3180070" lon="9.1782290">
	<ele>119.60</ele>
	<time>2022-05-14T09:12:27.000Z</time>
</trkpt>
<trkpt lat="44.3180090" lon="9.1782080">
	<ele>119.80</ele>
	<time>2022-05-14T09:12:29.000Z</time>
</trkpt>
<trkpt lat="44.3180010" lon="9.1781620">
	<ele>120.60</ele>
	<time>2022-05-14T09:12:34.000Z</time>
</trkpt>
<trkpt lat="44.3179860" lon="9.1781620">
	<ele>120.80</ele>
	<time>2022-05-14T09:12:35.000Z</time>
</trkpt>
<trkpt lat="44.3179830" lon="9.1782090">
	<ele>121.40</ele>
	<time>2022-05-14T09:12:40.000Z</time>
</trkpt>
<trkpt lat="44.3179830" lon="9.1782230">
	<ele>121.80</ele>
	<time>2022-05-14T09:12:41.000Z</time>
</trkpt>
<trkpt lat="44.3179790" lon="9.1782690">
	<ele>122.40</ele>
	<time>2022-05-14T09:12:47.000Z</time>
</trkpt>
<trkpt lat="44.3179810" lon="9.1782910">
	<ele>122.80</ele>
	<time>2022-05-14T09:12:49.000Z</time>
</trkpt>
<trkpt lat="44.3179890" lon="9.1783110">
	<ele>123.20</ele>
	<time>2022-05-14T09:12:51.000Z</time>
</trkpt>
<trkpt lat="44.3179870" lon="9.1783350">
	<ele>123.60</ele>
	<time>2022-05-14T09:12:53.000Z</time>
</trkpt>
<trkpt lat="44.3179720" lon="9.1783430">
	<ele>124.00</ele>
	<time>2022-05-14T09:12:56.000Z</time>
</trkpt>
<trkpt lat="44.3179650" lon="9.1783500">
	<ele>124.00</ele>
	<time>2022-05-14T09:12:57.000Z</time>
</trkpt>
<trkpt lat="44.3179440" lon="9.1783520">
	<ele>124.20</ele>
	<time>2022-05-14T09:12:59.000Z</time>
</trkpt>
<trkpt lat="44.3179460" lon="9.1783690">
	<ele>124.60</ele>
	<time>2022-05-14T09:13:02.000Z</time>
</trkpt>
<trkpt lat="44.3179470" lon="9.1783680">
	<ele>125.00</ele>
	<time>2022-05-14T09:13:03.000Z</time>
</trkpt>
<trkpt lat="44.3179570" lon="9.1783520">
	<ele>125.20</ele>
	<time>2022-05-14T09:13:05.000Z</time>
</trkpt>
<trkpt lat="44.3179690" lon="9.1783440">
	<ele>125.60</ele>
	<time>2022-05-14T09:13:08.000Z</time>
</trkpt>
<trkpt lat="44.3179970" lon="9.1782960">
	<ele>126.00</ele>
	<time>2022-05-14T09:13:13.000Z</time>
</trkpt>
<trkpt lat="44.3180030" lon="9.1782940">
	<ele>126.00</ele>
	<time>2022-05-14T09:13:14.000Z</time>
</trkpt>
<trkpt lat="44.3180480" lon="9.1782660">
	<ele>126.80</ele>
	<time>2022-05-14T09:13:21.000Z</time>
</trkpt>
<trkpt lat="44.3180510" lon="9.1782580">
	<ele>127.00</ele>
	<time>2022-05-14T09:13:22.000Z</time>
</trkpt>
<trkpt lat="44.3180650" lon="9.1782500">
	<ele>127.20</ele>
	<time>2022-05-14T09:13:24.000Z</time>
</trkpt>
<trkpt lat="44.3180670" lon="9.1782370">
	<ele>127.40</ele>
	<time>2022-05-14T09:13:26.000Z</time>
</trkpt>
<trkpt lat="44.3180730" lon="9.1782320">
	<ele>127.60</ele>
	<time>2022-05-14T09:13:27.000Z</time>
</trkpt>
<trkpt lat="44.3180810" lon="9.1782330">
	<ele>128.00</ele>
	<time>2022-05-14T09:13:30.000Z</time>
</trkpt>
<trkpt lat="44.3180850" lon="9.1782230">
	<ele>128.00</ele>
	<time>2022-05-14T09:13:31.000Z</time>
</trkpt>
<trkpt lat="44.3181070" lon="9.1781920">
	<ele>128.60</ele>
	<time>2022-05-14T09:13:35.000Z</time>
</trkpt>
<trkpt lat="44.3181260" lon="9.1781780">
	<ele>128.80</ele>
	<time>2022-05-14T09:13:37.000Z</time>
</trkpt>
<trkpt lat="44.3181310" lon="9.1781680">
	<ele>129.00</ele>
	<time>2022-05-14T09:13:38.000Z</time>
</trkpt>
<trkpt lat="44.3181360" lon="9.1781560">
	<ele>129.20</ele>
	<time>2022-05-14T09:13:40.000Z</time>
</trkpt>
<trkpt lat="44.3181370" lon="9.1781580">
	<ele>129.60</ele>
	<time>2022-05-14T09:13:43.000Z</time>
</trkpt>
<trkpt lat="44.3181360" lon="9.1781650">
	<ele>129.60</ele>
	<time>2022-05-14T09:13:44.000Z</time>
</trkpt>
<trkpt lat="44.3181380" lon="9.1781750">
	<ele>130.00</ele>
	<time>2022-05-14T09:13:46.000Z</time>
</trkpt>
<trkpt lat="44.3181360" lon="9.1781850">
	<ele>130.20</ele>
	<time>2022-05-14T09:13:48.000Z</time>
</trkpt>
<trkpt lat="44.3181340" lon="9.1781930">
	<ele>130.20</ele>
	<time>2022-05-14T09:13:49.000Z</time>
</trkpt>
<trkpt lat="44.3181260" lon="9.1782140">
	<ele>130.60</ele>
	<time>2022-05-14T09:13:51.000Z</time>
</trkpt>
<trkpt lat="44.3181240" lon="9.1782290">
	<ele>130.60</ele>
	<time>2022-05-14T09:13:52.000Z</time>
</trkpt>
<trkpt lat="44.3181240" lon="9.1783050">
	<ele>131.20</ele>
	<time>2022-05-14T09:13:58.000Z</time>
</trkpt>
<trkpt lat="44.3181420" lon="9.1783660">
	<ele>132.00</ele>
	<time>2022-05-14T09:14:05.000Z</time>
</trkpt>
<trkpt lat="44.3181450" lon="9.1783800">
	<ele>132.20</ele>
	<time>2022-05-14T09:14:07.000Z</time>
</trkpt>
<trkpt lat="44.3181450" lon="9.1783930">
	<ele>132.40</ele>
	<time>2022-05-14T09:14:09.000Z</time>
</trkpt>
<trkpt lat="44.3181510" lon="9.1783970">
	<ele>132.40</ele>
	<time>2022-05-14T09:14:10.000Z</time>
</trkpt>
<trkpt lat="44.3181810" lon="9.1783770">
	<ele>133.20</ele>
	<time>2022-05-14T09:14:15.000Z</time>
</trkpt>
<trkpt lat="44.3181760" lon="9.1783590">
	<ele>133.40</ele>
	<time>2022-05-14T09:14:16.000Z</time>
</trkpt>
<trkpt lat="44.3182160" lon="9.1783310">
	<ele>134.00</ele>
	<time>2022-05-14T09:14:20.000Z</time>
</trkpt>
<trkpt lat="44.3182270" lon="9.1782700">
	<ele>134.60</ele>
	<time>2022-05-14T09:14:24.000Z</time>
</trkpt>
<trkpt lat="44.3182420" lon="9.1782530">
	<ele>135.00</ele>
	<time>2022-05-14T09:14:28.000Z</time>
</trkpt>
<trkpt lat="44.3182820" lon="9.1782320">
	<ele>135.60</ele>
	<time>2022-05-14T09:14:34.000Z</time>
</trkpt>
<trkpt lat="44.3182890" lon="9.1782260">
	<ele>136.00</ele>
	<time>2022-05-14T09:14:36.000Z</time>
</trkpt>
<trkpt lat="44.3183090" lon="9.1782490">
	<ele>136.80</ele>
	<time>2022-05-14T09:14:41.000Z</time>
</trkpt>
<trkpt lat="44.3183110" lon="9.1782700">
	<ele>137.00</ele>
	<time>2022-05-14T09:14:43.000Z</time>
</trkpt>
<trkpt lat="44.3182810" lon="9.1783060">
	<ele>137.40</ele>
	<time>2022-05-14T09:14:47.000Z</time>
</trkpt>
<trkpt lat="44.3182690" lon="9.1783190">
	<ele>137.80</ele>
	<time>2022-05-14T09:14:49.000Z</time>
</trkpt>
<trkpt lat="44.3182640" lon="9.1783260">
	<ele>138.00</ele>
	<time>2022-05-14T09:14:50.000Z</time>
</trkpt>
<trkpt lat="44.3182280" lon="9.1783730">
	<ele>138.60</ele>
	<time>2022-05-14T09:14:57.000Z</time>
</trkpt>
<trkpt lat="44.3182220" lon="9.1783930">
	<ele>138.80</ele>
	<time>2022-05-14T09:14:59.000Z</time>
</trkpt>
<trkpt lat="44.3182140" lon="9.1784230">
	<ele>139.40</ele>
	<time>2022-05-14T09:15:03.000Z</time>
</trkpt>
<trkpt lat="44.3181890" lon="9.1784490">
	<ele>139.80</ele>
	<time>2022-05-14T09:15:06.000Z</time>
</trkpt>
<trkpt lat="44.3181900" lon="9.1784630">
	<ele>139.80</ele>
	<time>2022-05-14T09:15:07.000Z</time>
</trkpt>
<trkpt lat="44.3181720" lon="9.1784760">
	<ele>140.20</ele>
	<time>2022-05-14T09:15:09.000Z</time>
</trkpt>
<trkpt lat="44.3181730" lon="9.1785050">
	<ele>140.80</ele>
	<time>2022-05-14T09:15:12.000Z</time>
</trkpt>
<trkpt lat="44.3181760" lon="9.1785180">
	<ele>141.00</ele>
	<time>2022-05-14T09:15:13.000Z</time>
</trkpt>
<trkpt lat="44.3181770" lon="9.1785290">
	<ele>141.20</ele>
	<time>2022-05-14T09:15:14.000Z</time>
</trkpt>
<trkpt lat="44.3181740" lon="9.1785510">
	<ele>141.40</ele>
	<time>2022-05-14T09:15:16.000Z</time>
</trkpt>
<trkpt lat="44.3181910" lon="9.1785800">
	<ele>141.80</ele>
	<time>2022-05-14T09:15:19.000Z</time>
</trkpt>
<trkpt lat="44.3181960" lon="9.1785730">
	<ele>142.00</ele>
	<time>2022-05-14T09:15:21.000Z</time>
</trkpt>
<trkpt lat="44.3181930" lon="9.1785650">
	<ele>142.20</ele>
	<time>2022-05-14T09:15:22.000Z</time>
</trkpt>
<trkpt lat="44.3182060" lon="9.1785480">
	<ele>142.60</ele>
	<time>2022-05-14T09:15:25.000Z</time>
</trkpt>
<trkpt lat="44.3182170" lon="9.1785140">
	<ele>142.80</ele>
	<time>2022-05-14T09:15:27.000Z</time>
</trkpt>
<trkpt lat="44.3182720" lon="9.1784720">
	<ele>143.40</ele>
	<time>2022-05-14T09:15:32.000Z</time>
</trkpt>
<trkpt lat="44.3182810" lon="9.1784560">
	<ele>143.60</ele>
	<time>2022-05-14T09:15:34.000Z</time>
</trkpt>
<trkpt lat="44.3182880" lon="9.1784510">
	<ele>143.80</ele>
	<time>2022-05-14T09:15:35.000Z</time>
</trkpt>
<trkpt lat="44.3182930" lon="9.1784400">
	<ele>144.40</ele>
	<time>2022-05-14T09:15:38.000Z</time>
</trkpt>
<trkpt lat="44.3183030" lon="9.1784330">
	<ele>144.40</ele>
	<time>2022-05-14T09:15:39.000Z</time>
</trkpt>
<trkpt lat="44.3183190" lon="9.1784050">
	<ele>145.00</ele>
	<time>2022-05-14T09:15:43.000Z</time>
</trkpt>
<trkpt lat="44.3183290" lon="9.1783930">
	<ele>145.40</ele>
	<time>2022-05-14T09:15:45.000Z</time>
</trkpt>
<trkpt lat="44.3183360" lon="9.1783870">
	<ele>145.40</ele>
	<time>2022-05-14T09:15:46.000Z</time>
</trkpt>
<trkpt lat="44.3183760" lon="9.1783670">
	<ele>146.40</ele>
	<time>2022-05-14T09:15:53.000Z</time>
</trkpt>
<trkpt lat="44.3183850" lon="9.1783650">
	<ele>146.40</ele>
	<time>2022-05-14T09:15:54.000Z</time>
</trkpt>
<trkpt lat="44.3184270" lon="9.1783410">
	<ele>147.20</ele>
	<time>2022-05-14T09:15:59.000Z</time>
</trkpt>
<trkpt lat="44.3184500" lon="9.1783210">
	<ele>147.60</ele>
	<time>2022-05-14T09:16:02.000Z</time>
</trkpt>
<trkpt lat="44.3184590" lon="9.1782960">
	<ele>148.00</ele>
	<time>2022-05-14T09:16:06.000Z</time>
</trkpt>
<trkpt lat="44.3184740" lon="9.1782840">
	<ele>148.60</ele>
	<time>2022-05-14T09:16:10.000Z</time>
</trkpt>
<trkpt lat="44.3184770" lon="9.1782910">
	<ele>149.00</ele>
	<time>2022-05-14T09:16:11.000Z</time>
</trkpt>
<trkpt lat="44.3184770" lon="9.1783230">
	<ele>149.80</ele>
	<time>2022-05-14T09:16:16.000Z</time>
</trkpt>
<trkpt lat="44.3184770" lon="9.1783340">
	<ele>150.00</ele>
	<time>2022-05-14T09:16:17.000Z</time>
</trkpt>
<trkpt lat="44.3184730" lon="9.1783590">
	<ele>150.80</ele>
	<time>2022-05-14T09:16:21.000Z</time>
</trkpt>
<trkpt lat="44.3184750" lon="9.1783710">
	<ele>151.20</ele>
	<time>2022-05-14T09:16:23.000Z</time>
</trkpt>
<trkpt lat="44.3185130" lon="9.1784250">
	<ele>152.00</ele>
	<time>2022-05-14T09:16:29.000Z</time>
</trkpt>
<trkpt lat="44.3185070" lon="9.1784510">
	<ele>153.00</ele>
	<time>2022-05-14T09:16:35.000Z</time>
</trkpt>
<trkpt lat="44.3185060" lon="9.1784510">
	<ele>153.00</ele>
	<time>2022-05-14T09:16:36.000Z</time>
</trkpt>
<trkpt lat="44.3184880" lon="9.1784580">
	<ele>154.20</ele>
	<time>2022-05-14T09:16:41.000Z</time>
</trkpt>
<trkpt lat="44.3184460" lon="9.1785120">
	<ele>155.40</ele>
	<time>2022-05-14T09:16:48.000Z</time>
</trkpt>
<trkpt lat="44.3184690" lon="9.1784990">
	<ele>156.20</ele>
	<time>2022-05-14T09:16:54.000Z</time>
</trkpt>
<trkpt lat="44.3184750" lon="9.1784960">
	<ele>156.40</ele>
	<time>2022-05-14T09:16:55.000Z</time>
</trkpt>
<trkpt lat="44.3185230" lon="9.1785160">
	<ele>157.40</ele>
	<time>2022-05-14T09:17:01.000Z</time>
</trkpt>
<trkpt lat="44.3185300" lon="9.1785200">
	<ele>157.40</ele>
	<time>2022-05-14T09:17:02.000Z</time>
</trkpt>
<trkpt lat="44.3185330" lon="9.1785240">
	<ele>158.20</ele>
	<time>2022-05-14T09:17:06.000Z</time>
</trkpt>
<trkpt lat="44.3185630" lon="9.1785040">
	<ele>158.60</ele>
	<time>2022-05-14T09:17:10.000Z</time>
</trkpt>
<trkpt lat="44.3185700" lon="9.1784980">
	<ele>158.80</ele>
	<time>2022-05-14T09:17:11.000Z</time>
</trkpt>
<trkpt lat="44.3185890" lon="9.1784850">
	<ele>159.60</ele>
	<time>2022-05-14T09:17:16.000Z</time>
</trkpt>
<trkpt lat="44.3185980" lon="9.1784730">
	<ele>160.00</ele>
	<time>2022-05-14T09:17:18.000Z</time>
</trkpt>
<trkpt lat="44.3185980" lon="9.1784700">
	<ele>160.60</ele>
	<time>2022-05-14T09:17:22.000Z</time>
</trkpt>
<trkpt lat="44.3185990" lon="9.1784740">
	<ele>160.80</ele>
	<time>2022-05-14T09:17:23.000Z</time>
</trkpt>
<trkpt lat="44.3186030" lon="9.1785160">
	<ele>161.80</ele>
	<time>2022-05-14T09:17:29.000Z</time>
</trkpt>
<trkpt lat="44.3186020" lon="9.1785240">
	<ele>162.00</ele>
	<time>2022-05-14T09:17:30.000Z</time>
</trkpt>
<trkpt lat="44.3185920" lon="9.1785600">
	<ele>162.80</ele>
	<time>2022-05-14T09:17:36.000Z</time>
</trkpt>
<trkpt lat="44.3185850" lon="9.1785700">
	<ele>163.00</ele>
	<time>2022-05-14T09:17:38.000Z</time>
</trkpt>
<trkpt lat="44.3186090" lon="9.1785820">
	<ele>164.00</ele>
	<time>2022-05-14T09:17:43.000Z</time>
</trkpt>
<trkpt lat="44.3186280" lon="9.1785350">
	<ele>165.00</ele>
	<time>2022-05-14T09:17:50.000Z</time>
</trkpt>
<trkpt lat="44.3186320" lon="9.1785320">
	<ele>165.60</ele>
	<time>2022-05-14T09:17:52.000Z</time>
</trkpt>
<trkpt lat="44.3186480" lon="9.1785190">
	<ele>166.00</ele>
	<time>2022-05-14T09:17:55.000Z</time>
</trkpt>
<trkpt lat="44.3186820" lon="9.1785090">
	<ele>166.60</ele>
	<time>2022-05-14T09:18:00.000Z</time>
</trkpt>
<trkpt lat="44.3187040" lon="9.1784910">
	<ele>167.20</ele>
	<time>2022-05-14T09:18:04.000Z</time>
</trkpt>
<trkpt lat="44.3187200" lon="9.1785000">
	<ele>167.60</ele>
	<time>2022-05-14T09:18:07.000Z</time>
</trkpt>
<trkpt lat="44.3187200" lon="9.1785160">
	<ele>168.20</ele>
	<time>2022-05-14T09:18:12.000Z</time>
</trkpt>
<trkpt lat="44.3187210" lon="9.1785240">
	<ele>168.20</ele>
	<time>2022-05-14T09:18:13.000Z</time>
</trkpt>
<trkpt lat="44.3186860" lon="9.1785750">
	<ele>169.20</ele>
	<time>2022-05-14T09:18:20.000Z</time>
</trkpt>
<trkpt lat="44.3186810" lon="9.1785980">
	<ele>169.80</ele>
	<time>2022-05-14T09:18:22.000Z</time>
</trkpt>
<trkpt lat="44.3186660" lon="9.1786350">
	<ele>170.40</ele>
	<time>2022-05-14T09:18:26.000Z</time>
</trkpt>
<trkpt lat="44.3186630" lon="9.1786670">
	<ele>171.00</ele>
	<time>2022-05-14T09:18:29.000Z</time>
</trkpt>
<trkpt lat="44.3186730" lon="9.1786740">
	<ele>171.40</ele>
	<time>2022-05-14T09:18:32.000Z</time>
</trkpt>
<trkpt lat="44.3186810" lon="9.1786520">
	<ele>172.00</ele>
	<time>2022-05-14T09:18:35.000Z</time>
</trkpt>
<trkpt lat="44.3186920" lon="9.1786300">
	<ele>172.40</ele>
	<time>2022-05-14T09:18:39.000Z</time>
</trkpt>
<trkpt lat="44.3186950" lon="9.1786270">
	<ele>172.60</ele>
	<time>2022-05-14T09:18:41.000Z</time>
</trkpt>
<trkpt lat="44.3187130" lon="9.1786490">
	<ele>172.60</ele>
	<time>2022-05-14T09:18:46.000Z</time>
</trkpt>
<trkpt lat="44.3187080" lon="9.1786380">
	<ele>172.40</ele>
	<time>2022-05-14T09:19:00.000Z</time>
</trkpt>
<trkpt lat="44.3187030" lon="9.1786360">
	<ele>172.40</ele>
	<time>2022-05-14T09:19:08.000Z</time>
</trkpt>
<trkpt lat="44.3187050" lon="9.1786380">
	<ele>172.40</ele>
	<time>2022-05-14T09:19:13.000Z</time>
</trkpt>
<trkpt lat="44.3187040" lon="9.1786380">
	<ele>172.60</ele>
	<time>2022-05-14T09:19:18.000Z</time>
</trkpt>
<trkpt lat="44.3187040" lon="9.1786380">
	<ele>172.60</ele>
	<time>2022-05-14T09:19:21.000Z</time>
</trkpt>
<trkpt lat="44.3187050" lon="9.1786380">
	<ele>172.80</ele>
	<time>2022-05-14T09:19:25.000Z</time>
</trkpt>
<trkpt lat="44.3187030" lon="9.1786760">
	<ele>173.60</ele>
	<time>2022-05-14T09:19:32.000Z</time>
</trkpt>
<trkpt lat="44.3187040" lon="9.1786890">
	<ele>173.80</ele>
	<time>2022-05-14T09:19:33.000Z</time>
</trkpt>
<trkpt lat="44.3187160" lon="9.1787120">
	<ele>174.60</ele>
	<time>2022-05-14T09:19:38.000Z</time>
</trkpt>
<trkpt lat="44.3187560" lon="9.1786510">
	<ele>175.80</ele>
	<time>2022-05-14T09:19:45.000Z</time>
</trkpt>
<trkpt lat="44.3187620" lon="9.1786420">
	<ele>176.00</ele>
	<time>2022-05-14T09:19:46.000Z</time>
</trkpt>
<trkpt lat="44.3187780" lon="9.1786110">
	<ele>176.20</ele>
	<time>2022-05-14T09:19:50.000Z</time>
</trkpt>
<trkpt lat="44.3187970" lon="9.1785770">
	<ele>176.60</ele>
	<time>2022-05-14T09:19:53.000Z</time>
</trkpt>
<trkpt lat="44.3188030" lon="9.1785720">
	<ele>176.80</ele>
	<time>2022-05-14T09:19:54.000Z</time>
</trkpt>
<trkpt lat="44.3188350" lon="9.1785520">
	<ele>177.60</ele>
	<time>2022-05-14T09:20:00.000Z</time>
</trkpt>
<trkpt lat="44.3188400" lon="9.1785420">
	<ele>177.80</ele>
	<time>2022-05-14T09:20:01.000Z</time>
</trkpt>
<trkpt lat="44.3188740" lon="9.1784890">
	<ele>179.00</ele>
	<time>2022-05-14T09:20:08.000Z</time>
</trkpt>
<trkpt lat="44.3188810" lon="9.1784810">
	<ele>179.00</ele>
	<time>2022-05-14T09:20:09.000Z</time>
</trkpt>
<trkpt lat="44.3189080" lon="9.1784540">
	<ele>180.20</ele>
	<time>2022-05-14T09:20:16.000Z</time>
</trkpt>
<trkpt lat="44.3189040" lon="9.1784910">
	<ele>181.00</ele>
	<time>2022-05-14T09:20:21.000Z</time>
</trkpt>
<trkpt lat="44.3189080" lon="9.1785240">
	<ele>181.20</ele>
	<time>2022-05-14T09:20:24.000Z</time>
</trkpt>
<trkpt lat="44.3188970" lon="9.1785410">
	<ele>181.60</ele>
	<time>2022-05-14T09:20:27.000Z</time>
</trkpt>
<trkpt lat="44.3188790" lon="9.1785330">
	<ele>182.20</ele>
	<time>2022-05-14T09:20:31.000Z</time>
</trkpt>
<trkpt lat="44.3188690" lon="9.1785450">
	<ele>182.40</ele>
	<time>2022-05-14T09:20:33.000Z</time>
</trkpt>
<trkpt lat="44.3188800" lon="9.1785850">
	<ele>183.40</ele>
	<time>2022-05-14T09:20:39.000Z</time>
</trkpt>
<trkpt lat="44.3189040" lon="9.1785490">
	<ele>184.40</ele>
	<time>2022-05-14T09:20:45.000Z</time>
</trkpt>
<trkpt lat="44.3189080" lon="9.1785460">
	<ele>184.60</ele>
	<time>2022-05-14T09:20:46.000Z</time>
</trkpt>
<trkpt lat="44.3189340" lon="9.1785280">
	<ele>185.60</ele>
	<time>2022-05-14T09:20:51.000Z</time>
</trkpt>
<trkpt lat="44.3189400" lon="9.1785240">
	<ele>185.80</ele>
	<time>2022-05-14T09:20:52.000Z</time>
</trkpt>
<trkpt lat="44.3189690" lon="9.1785280">
	<ele>186.80</ele>
	<time>2022-05-14T09:20:58.000Z</time>
</trkpt>
<trkpt lat="44.3189970" lon="9.1785150">
	<ele>187.40</ele>
	<time>2022-05-14T09:21:04.000Z</time>
</trkpt>
<trkpt lat="44.3190190" lon="9.1785280">
	<ele>187.80</ele>
	<time>2022-05-14T09:21:08.000Z</time>
</trkpt>
<trkpt lat="44.3190420" lon="9.1785300">
	<ele>188.40</ele>
	<time>2022-05-14T09:21:12.000Z</time>
</trkpt>
<trkpt lat="44.3190390" lon="9.1785360">
	<ele>188.80</ele>
	<time>2022-05-14T09:21:14.000Z</time>
</trkpt>
<trkpt lat="44.3190330" lon="9.1785660">
	<ele>189.60</ele>
	<time>2022-05-14T09:21:19.000Z</time>
</trkpt>
<trkpt lat="44.3190210" lon="9.1785840">
	<ele>190.00</ele>
	<time>2022-05-14T09:21:22.000Z</time>
</trkpt>
<trkpt lat="44.3190130" lon="9.1785980">
	<ele>190.20</ele>
	<time>2022-05-14T09:21:25.000Z</time>
</trkpt>
<trkpt lat="44.3190100" lon="9.1786140">
	<ele>190.60</ele>
	<time>2022-05-14T09:21:27.000Z</time>
</trkpt>
<trkpt lat="44.3190170" lon="9.1786600">
	<ele>191.00</ele>
	<time>2022-05-14T09:21:31.000Z</time>
</trkpt>
<trkpt lat="44.3190190" lon="9.1786790">
	<ele>191.40</ele>
	<time>2022-05-14T09:21:34.000Z</time>
</trkpt>
<trkpt lat="44.3189970" lon="9.1787070">
	<ele>191.80</ele>
	<time>2022-05-14T09:21:38.000Z</time>
</trkpt>
<trkpt lat="44.3190090" lon="9.1787460">
	<ele>192.20</ele>
	<time>2022-05-14T09:21:41.000Z</time>
</trkpt>
<trkpt lat="44.3190010" lon="9.1787770">
	<ele>192.80</ele>
	<time>2022-05-14T09:21:45.000Z</time>
</trkpt>
<trkpt lat="44.3189950" lon="9.1787980">
	<ele>193.40</ele>
	<time>2022-05-14T09:21:48.000Z</time>
</trkpt>
<trkpt lat="44.3189990" lon="9.1788080">
	<ele>193.80</ele>
	<time>2022-05-14T09:21:51.000Z</time>
</trkpt>
<trkpt lat="44.3190280" lon="9.1788110">
	<ele>194.40</ele>
	<time>2022-05-14T09:21:54.000Z</time>
</trkpt>
<trkpt lat="44.3190520" lon="9.1788020">
	<ele>195.00</ele>
	<time>2022-05-14T09:21:58.000Z</time>
</trkpt>
<trkpt lat="44.3190720" lon="9.1788080">
	<ele>195.60</ele>
	<time>2022-05-14T09:22:01.000Z</time>
</trkpt>
<trkpt lat="44.3190720" lon="9.1788020">
	<ele>195.60</ele>
	<time>2022-05-14T09:22:02.000Z</time>
</trkpt>
<trkpt lat="44.3191100" lon="9.1787690">
	<ele>196.80</ele>
	<time>2022-05-14T09:22:08.000Z</time>
</trkpt>
<trkpt lat="44.3191520" lon="9.1787790">
	<ele>197.80</ele>
	<time>2022-05-14T09:22:15.000Z</time>
</trkpt>
<trkpt lat="44.3191460" lon="9.1787750">
	<ele>197.80</ele>
	<time>2022-05-14T09:22:16.000Z</time>
</trkpt>
<trkpt lat="44.3191530" lon="9.1787810">
	<ele>198.20</ele>
	<time>2022-05-14T09:22:20.000Z</time>
</trkpt>
<trkpt lat="44.3191860" lon="9.1787550">
	<ele>198.60</ele>
	<time>2022-05-14T09:22:27.000Z</time>
</trkpt>
<trkpt lat="44.3191970" lon="9.1787480">
	<ele>199.00</ele>
	<time>2022-05-14T09:22:29.000Z</time>
</trkpt>
<trkpt lat="44.3192110" lon="9.1787270">
	<ele>199.80</ele>
	<time>2022-05-14T09:22:34.000Z</time>
</trkpt>
<trkpt lat="44.3192220" lon="9.1787240">
	<ele>200.00</ele>
	<time>2022-05-14T09:22:36.000Z</time>
</trkpt>
<trkpt lat="44.3192530" lon="9.1787250">
	<ele>200.40</ele>
	<time>2022-05-14T09:22:41.000Z</time>
</trkpt>
<trkpt lat="44.3192710" lon="9.1787200">
	<ele>201.20</ele>
	<time>2022-05-14T09:22:45.000Z</time>
</trkpt>
<trkpt lat="44.3192790" lon="9.1787190">
	<ele>201.40</ele>
	<time>2022-05-14T09:22:47.000Z</time>
</trkpt>
<trkpt lat="44.3192670" lon="9.1787290">
	<ele>202.20</ele>
	<time>2022-05-14T09:22:53.000Z</time>
</trkpt>
<trkpt lat="44.3192630" lon="9.1787280">
	<ele>202.20</ele>
	<time>2022-05-14T09:22:54.000Z</time>
</trkpt>
<trkpt lat="44.3192470" lon="9.1787370">
	<ele>203.00</ele>
	<time>2022-05-14T09:22:59.000Z</time>
</trkpt>
<trkpt lat="44.3192430" lon="9.1787470">
	<ele>203.40</ele>
	<time>2022-05-14T09:23:01.000Z</time>
</trkpt>
<trkpt lat="44.3192640" lon="9.1787720">
	<ele>204.40</ele>
	<time>2022-05-14T09:23:06.000Z</time>
</trkpt>
<trkpt lat="44.3192870" lon="9.1787420">
	<ele>204.80</ele>
	<time>2022-05-14T09:23:12.000Z</time>
</trkpt>
<trkpt lat="44.3192990" lon="9.1787660">
	<ele>205.20</ele>
	<time>2022-05-14T09:23:16.000Z</time>
</trkpt>
<trkpt lat="44.3192970" lon="9.1787690">
	<ele>205.60</ele>
	<time>2022-05-14T09:23:17.000Z</time>
</trkpt>
<trkpt lat="44.3192800" lon="9.1787940">
	<ele>206.60</ele>
	<time>2022-05-14T09:23:22.000Z</time>
</trkpt>
<trkpt lat="44.3192300" lon="9.1788180">
	<ele>207.40</ele>
	<time>2022-05-14T09:23:31.000Z</time>
</trkpt>
<trkpt lat="44.3192400" lon="9.1788420">
	<ele>207.60</ele>
	<time>2022-05-14T09:23:33.000Z</time>
</trkpt>
<trkpt lat="44.3192860" lon="9.1788580">
	<ele>208.60</ele>
	<time>2022-05-14T09:23:38.000Z</time>
</trkpt>
<trkpt lat="44.3192960" lon="9.1788630">
	<ele>208.80</ele>
	<time>2022-05-14T09:23:40.000Z</time>
</trkpt>
<trkpt lat="44.3193420" lon="9.1788770">
	<ele>209.80</ele>
	<time>2022-05-14T09:23:45.000Z</time>
</trkpt>
<trkpt lat="44.3193510" lon="9.1788830">
	<ele>209.80</ele>
	<time>2022-05-14T09:23:46.000Z</time>
</trkpt>
<trkpt lat="44.3193930" lon="9.1788990">
	<ele>210.80</ele>
	<time>2022-05-14T09:23:52.000Z</time>
</trkpt>
<trkpt lat="44.3194020" lon="9.1788970">
	<ele>211.00</ele>
	<time>2022-05-14T09:23:53.000Z</time>
</trkpt>
<trkpt lat="44.3194360" lon="9.1788680">
	<ele>211.60</ele>
	<time>2022-05-14T09:23:59.000Z</time>
</trkpt>
<trkpt lat="44.3194290" lon="9.1788750">
	<ele>212.00</ele>
	<time>2022-05-14T09:24:01.000Z</time>
</trkpt>
<trkpt lat="44.3194120" lon="9.1788900">
	<ele>212.40</ele>
	<time>2022-05-14T09:24:04.000Z</time>
</trkpt>
<trkpt lat="44.3193740" lon="9.1788880">
	<ele>213.00</ele>
	<time>2022-05-14T09:24:09.000Z</time>
</trkpt>
<trkpt lat="44.3193710" lon="9.1788930">
	<ele>213.20</ele>
	<time>2022-05-14T09:24:11.000Z</time>
</trkpt>
<trkpt lat="44.3193510" lon="9.1789000">
	<ele>214.20</ele>
	<time>2022-05-14T09:24:16.000Z</time>
</trkpt>
<trkpt lat="44.3193580" lon="9.1789060">
	<ele>214.20</ele>
	<time>2022-05-14T09:24:17.000Z</time>
</trkpt>
<trkpt lat="44.3193940" lon="9.1788970">
	<ele>215.40</ele>
	<time>2022-05-14T09:24:24.000Z</time>
</trkpt>
<trkpt lat="44.3194300" lon="9.1789000">
	<ele>215.80</ele>
	<time>2022-05-14T09:24:27.000Z</time>
</trkpt>
<trkpt lat="44.3194510" lon="9.1789070">
	<ele>216.20</ele>
	<time>2022-05-14T09:24:32.000Z</time>
</trkpt>
<trkpt lat="44.3194710" lon="9.1789170">
	<ele>216.60</ele>
	<time>2022-05-14T09:24:34.000Z</time>
</trkpt>
<trkpt lat="44.3194840" lon="9.1789510">
	<ele>217.20</ele>
	<time>2022-05-14T09:24:39.000Z</time>
</trkpt>
<trkpt lat="44.3194910" lon="9.1789690">
	<ele>217.60</ele>
	<time>2022-05-14T09:24:41.000Z</time>
</trkpt>
<trkpt lat="44.3194800" lon="9.1789850">
	<ele>218.20</ele>
	<time>2022-05-14T09:24:45.000Z</time>
</trkpt>
<trkpt lat="44.3194750" lon="9.1789860">
	<ele>218.40</ele>
	<time>2022-05-14T09:24:46.000Z</time>
</trkpt>
<trkpt lat="44.3194720" lon="9.1789930">
	<ele>218.60</ele>
	<time>2022-05-14T09:24:47.000Z</time>
</trkpt>
<trkpt lat="44.3194450" lon="9.1789880">
	<ele>219.60</ele>
	<time>2022-05-14T09:24:52.000Z</time>
</trkpt>
<trkpt lat="44.3194360" lon="9.1789980">
	<ele>219.80</ele>
	<time>2022-05-14T09:24:54.000Z</time>
</trkpt>
<trkpt lat="44.3194160" lon="9.1790020">
	<ele>220.20</ele>
	<time>2022-05-14T09:24:57.000Z</time>
</trkpt>
<trkpt lat="44.3193830" lon="9.1790130">
	<ele>221.00</ele>
	<time>2022-05-14T09:25:02.000Z</time>
</trkpt>
<trkpt lat="44.3193350" lon="9.1790060">
	<ele>221.60</ele>
	<time>2022-05-14T09:25:08.000Z</time>
</trkpt>
<trkpt lat="44.3193280" lon="9.1790210">
	<ele>222.00</ele>
	<time>2022-05-14T09:25:10.000Z</time>
</trkpt>
<trkpt lat="44.3193230" lon="9.1790490">
	<ele>223.00</ele>
	<time>2022-05-14T09:25:15.000Z</time>
</trkpt>
<trkpt lat="44.3193270" lon="9.1790590">
	<ele>223.20</ele>
	<time>2022-05-14T09:25:17.000Z</time>
</trkpt>
<trkpt lat="44.3193360" lon="9.1790750">
	<ele>223.20</ele>
	<time>2022-05-14T09:25:21.000Z</time>
</trkpt>
<trkpt lat="44.3193370" lon="9.1790910">
	<ele>223.40</ele>
	<time>2022-05-14T09:25:30.000Z</time>
</trkpt>
<trkpt lat="44.3193150" lon="9.1790910">
	<ele>223.40</ele>
	<time>2022-05-14T09:25:36.000Z</time>
</trkpt>
<trkpt lat="44.3193210" lon="9.1791000">
	<ele>223.60</ele>
	<time>2022-05-14T09:25:40.000Z</time>
</trkpt>
<trkpt lat="44.3193210" lon="9.1791000">
	<ele>223.40</ele>
	<time>2022-05-14T09:25:43.000Z</time>
</trkpt>
<trkpt lat="44.3193210" lon="9.1791000">
	<ele>223.40</ele>
	<time>2022-05-14T09:25:45.000Z</time>
</trkpt>
<trkpt lat="44.3193210" lon="9.1791000">
	<ele>223.40</ele>
	<time>2022-05-14T09:25:49.000Z</time>
</trkpt>
<trkpt lat="44.3193210" lon="9.1791000">
	<ele>223.40</ele>
	<time>2022-05-14T09:25:50.000Z</time>
</trkpt>
<trkpt lat="44.3193330" lon="9.1791100">
	<ele>223.60</ele>
	<time>2022-05-14T09:26:03.000Z</time>
</trkpt>
<trkpt lat="44.3193460" lon="9.1791150">
	<ele>224.20</ele>
	<time>2022-05-14T09:26:06.000Z</time>
</trkpt>
<trkpt lat="44.3193960" lon="9.1791320">
	<ele>224.80</ele>
	<time>2022-05-14T09:26:11.000Z</time>
</trkpt>
<trkpt lat="44.3194300" lon="9.1791560">
	<ele>225.20</ele>
	<time>2022-05-14T09:26:14.000Z</time>
</trkpt>
<trkpt lat="44.3194600" lon="9.1791590">
	<ele>225.60</ele>
	<time>2022-05-14T09:26:16.000Z</time>
</trkpt>
<trkpt lat="44.3194910" lon="9.1791560">
	<ele>226.40</ele>
	<time>2022-05-14T09:26:21.000Z</time>
</trkpt>
<trkpt lat="44.3195030" lon="9.1791530">
	<ele>226.80</ele>
	<time>2022-05-14T09:26:23.000Z</time>
</trkpt>
<trkpt lat="44.3195280" lon="9.1791580">
	<ele>227.20</ele>
	<time>2022-05-14T09:26:26.000Z</time>
</trkpt>
<trkpt lat="44.3195560" lon="9.1791540">
	<ele>227.60</ele>
	<time>2022-05-14T09:26:28.000Z</time>
</trkpt>
<trkpt lat="44.3195840" lon="9.1791540">
	<ele>228.60</ele>
	<time>2022-05-14T09:26:33.000Z</time>
</trkpt>
<trkpt lat="44.3195860" lon="9.1791420">
	<ele>228.80</ele>
	<time>2022-05-14T09:26:34.000Z</time>
</trkpt>
<trkpt lat="44.3196100" lon="9.1791550">
	<ele>229.60</ele>
	<time>2022-05-14T09:26:38.000Z</time>
</trkpt>
<trkpt lat="44.3196310" lon="9.1791550">
	<ele>230.20</ele>
	<time>2022-05-14T09:26:40.000Z</time>
</trkpt>
<trkpt lat="44.3196480" lon="9.1791440">
	<ele>230.80</ele>
	<time>2022-05-14T09:26:43.000Z</time>
</trkpt>
<trkpt lat="44.3196610" lon="9.1791340">
	<ele>231.40</ele>
	<time>2022-05-14T09:26:47.000Z</time>
</trkpt>
<trkpt lat="44.3196710" lon="9.1791240">
	<ele>232.00</ele>
	<time>2022-05-14T09:26:50.000Z</time>
</trkpt>
<trkpt lat="44.3196800" lon="9.1791210">
	<ele>232.60</ele>
	<time>2022-05-14T09:26:53.000Z</time>
</trkpt>
<trkpt lat="44.3196890" lon="9.1791200">
	<ele>233.00</ele>
	<time>2022-05-14T09:26:55.000Z</time>
</trkpt>
<trkpt lat="44.3197210" lon="9.1791230">
	<ele>234.00</ele>
	<time>2022-05-14T09:27:01.000Z</time>
</trkpt>
<trkpt lat="44.3197300" lon="9.1791180">
	<ele>234.20</ele>
	<time>2022-05-14T09:27:02.000Z</time>
</trkpt>
<trkpt lat="44.3197680" lon="9.1790550">
	<ele>235.00</ele>
	<time>2022-05-14T09:27:08.000Z</time>
</trkpt>
<trkpt lat="44.3197760" lon="9.1790510">
	<ele>235.40</ele>
	<time>2022-05-14T09:27:09.000Z</time>
</trkpt>
<trkpt lat="44.3197730" lon="9.1790380">
	<ele>235.80</ele>
	<time>2022-05-14T09:27:12.000Z</time>
</trkpt>
<trkpt lat="44.3197760" lon="9.1790220">
	<ele>236.00</ele>
	<time>2022-05-14T09:27:14.000Z</time>
</trkpt>
<trkpt lat="44.3197850" lon="9.1789980">
	<ele>236.40</ele>
	<time>2022-05-14T09:27:17.000Z</time>
</trkpt>
<trkpt lat="44.3197940" lon="9.1789920">
	<ele>236.80</ele>
	<time>2022-05-14T09:27:19.000Z</time>
</trkpt>
<trkpt lat="44.3198110" lon="9.1789620">
	<ele>237.60</ele>
	<time>2022-05-14T09:27:23.000Z</time>
</trkpt>
<trkpt lat="44.3198190" lon="9.1789460">
	<ele>237.80</ele>
	<time>2022-05-14T09:27:26.000Z</time>
</trkpt>
<trkpt lat="44.3198210" lon="9.1788920">
	<ele>238.80</ele>
	<time>2022-05-14T09:27:31.000Z</time>
</trkpt>
<trkpt lat="44.3198550" lon="9.1788690">
	<ele>239.80</ele>
	<time>2022-05-14T09:27:37.000Z</time>
</trkpt>
<trkpt lat="44.3198690" lon="9.1787860">
	<ele>240.80</ele>
	<time>2022-05-14T09:27:42.000Z</time>
</trkpt>
<trkpt lat="44.3198680" lon="9.1787680">
	<ele>241.20</ele>
	<time>2022-05-14T09:27:44.000Z</time>
</trkpt>
<trkpt lat="44.3198730" lon="9.1787380">
	<ele>242.00</ele>
	<time>2022-05-14T09:27:48.000Z</time>
</trkpt>
<trkpt lat="44.3198920" lon="9.1787350">
	<ele>242.80</ele>
	<time>2022-05-14T09:27:51.000Z</time>
</trkpt>
<trkpt lat="44.3199120" lon="9.1787380">
	<ele>243.00</ele>
	<time>2022-05-14T09:27:53.000Z</time>
</trkpt>
<trkpt lat="44.3199280" lon="9.1787160">
	<ele>244.20</ele>
	<time>2022-05-14T09:27:58.000Z</time>
</trkpt>
<trkpt lat="44.3199580" lon="9.1786980">
	<ele>244.80</ele>
	<time>2022-05-14T09:28:03.000Z</time>
</trkpt>
<trkpt lat="44.3199640" lon="9.1786950">
	<ele>245.40</ele>
	<time>2022-05-14T09:28:05.000Z</time>
</trkpt>
<trkpt lat="44.3199750" lon="9.1786800">
	<ele>246.60</ele>
	<time>2022-05-14T09:28:10.000Z</time>
</trkpt>
<trkpt lat="44.3199860" lon="9.1786430">
	<ele>247.60</ele>
	<time>2022-05-14T09:28:15.000Z</time>
</trkpt>
<trkpt lat="44.3199870" lon="9.1786430">
	<ele>247.60</ele>
	<time>2022-05-14T09:28:16.000Z</time>
</trkpt>
<trkpt lat="44.3200090" lon="9.1786430">
	<ele>248.40</ele>
	<time>2022-05-14T09:28:20.000Z</time>
</trkpt>
<trkpt lat="44.3200300" lon="9.1786280">
	<ele>248.60</ele>
	<time>2022-05-14T09:28:22.000Z</time>
</trkpt>
<trkpt lat="44.3200730" lon="9.1786090">
	<ele>249.60</ele>
	<time>2022-05-14T09:28:27.000Z</time>
</trkpt>
<trkpt lat="44.3200890" lon="9.1785390">
	<ele>250.60</ele>
	<time>2022-05-14T09:28:34.000Z</time>
</trkpt>
<trkpt lat="44.3200930" lon="9.1785300">
	<ele>250.80</ele>
	<time>2022-05-14T09:28:35.000Z</time>
</trkpt>
<trkpt lat="44.3201250" lon="9.1785170">
	<ele>251.40</ele>
	<time>2022-05-14T09:28:39.000Z</time>
</trkpt>
<trkpt lat="44.3201290" lon="9.1785070">
	<ele>251.40</ele>
	<time>2022-05-14T09:28:40.000Z</time>
</trkpt>
<trkpt lat="44.3201480" lon="9.1784870">
	<ele>251.80</ele>
	<time>2022-05-14T09:28:43.000Z</time>
</trkpt>
<trkpt lat="44.3201480" lon="9.1784500">
	<ele>252.40</ele>
	<time>2022-05-14T09:28:47.000Z</time>
</trkpt>
<trkpt lat="44.3201520" lon="9.1784350">
	<ele>252.80</ele>
	<time>2022-05-14T09:28:49.000Z</time>
</trkpt>
<trkpt lat="44.3201750" lon="9.1784220">
	<ele>253.00</ele>
	<time>2022-05-14T09:28:52.000Z</time>
</trkpt>
<trkpt lat="44.3201980" lon="9.1784110">
	<ele>254.00</ele>
	<time>2022-05-14T09:28:56.000Z</time>
</trkpt>
<trkpt lat="44.3202010" lon="9.1784090">
	<ele>254.20</ele>
	<time>2022-05-14T09:28:57.000Z</time>
</trkpt>
<trkpt lat="44.3202340" lon="9.1783750">
	<ele>254.40</ele>
	<time>2022-05-14T09:29:02.000Z</time>
</trkpt>
<trkpt lat="44.3202350" lon="9.1783480">
	<ele>254.60</ele>
	<time>2022-05-14T09:29:06.000Z</time>
</trkpt>
<trkpt lat="44.3202340" lon="9.1783540">
	<ele>255.00</ele>
	<time>2022-05-14T09:29:11.000Z</time>
</trkpt>
<trkpt lat="44.3202350" lon="9.1783180">
	<ele>255.20</ele>
	<time>2022-05-14T09:29:17.000Z</time>
</trkpt>
<trkpt lat="44.3202380" lon="9.1783320">
	<ele>255.20</ele>
	<time>2022-05-14T09:29:24.000Z</time>
</trkpt>
<trkpt lat="44.3202290" lon="9.1783360">
	<ele>255.20</ele>
	<time>2022-05-14T09:29:30.000Z</time>
</trkpt>
<trkpt lat="44.3202200" lon="9.1783350">
	<ele>255.20</ele>
	<time>2022-05-14T09:29:37.000Z</time>
</trkpt>
<trkpt lat="44.3202250" lon="9.1783450">
	<ele>255.20</ele>
	<time>2022-05-14T09:29:46.000Z</time>
</trkpt>
<trkpt lat="44.3202120" lon="9.1782700">
	<ele>255.00</ele>
	<time>2022-05-14T09:29:51.000Z</time>
</trkpt>
<trkpt lat="44.3202150" lon="9.1782710">
	<ele>254.80</ele>
	<time>2022-05-14T09:29:53.000Z</time>
</trkpt>
<trkpt lat="44.3202050" lon="9.1782860">
	<ele>254.80</ele>
	<time>2022-05-14T09:29:58.000Z</time>
</trkpt>
<trkpt lat="44.3202030" lon="9.1782850">
	<ele>254.80</ele>
	<time>2022-05-14T09:29:59.000Z</time>
</trkpt>
<trkpt lat="44.3202010" lon="9.1782780">
	<ele>254.80</ele>
	<time>2022-05-14T09:30:02.000Z</time>
</trkpt>
<trkpt lat="44.3201930" lon="9.1782680">
	<ele>254.60</ele>
	<time>2022-05-14T09:30:07.000Z</time>
</trkpt>
<trkpt lat="44.3201990" lon="9.1782650">
	<ele>254.60</ele>
	<time>2022-05-14T09:30:10.000Z</time>
</trkpt>
<trkpt lat="44.3201980" lon="9.1782590">
	<ele>255.00</ele>
	<time>2022-05-14T09:30:11.000Z</time>
</trkpt>
<trkpt lat="44.3201910" lon="9.1782900">
	<ele>254.80</ele>
	<time>2022-05-14T09:30:16.000Z</time>
</trkpt>
<trkpt lat="44.3201930" lon="9.1783110">
	<ele>254.80</ele>
	<time>2022-05-14T09:30:17.000Z</time>
</trkpt>
<trkpt lat="44.3201660" lon="9.1783460">
	<ele>254.80</ele>
	<time>2022-05-14T09:30:23.000Z</time>
</trkpt>
<trkpt lat="44.3201730" lon="9.1783240">
	<ele>254.80</ele>
	<time>2022-05-14T09:30:29.000Z</time>
</trkpt>
<trkpt lat="44.3201600" lon="9.1783160">
	<ele>254.80</ele>
	<time>2022-05-14T09:30:35.000Z</time>
</trkpt>
<trkpt lat="44.3201720" lon="9.1782770">
	<ele>254.80</ele>
	<time>2022-05-14T09:30:43.000Z</time>
</trkpt>
<trkpt lat="44.3201730" lon="9.1782560">
	<ele>254.80</ele>
	<time>2022-05-14T09:30:50.000Z</time>
</trkpt>
<trkpt lat="44.3201700" lon="9.1782770">
	<ele>254.80</ele>
	<time>2022-05-14T09:31:00.000Z</time>
</trkpt>
<trkpt lat="44.3202110" lon="9.1782500">
	<ele>254.80</ele>
	<time>2022-05-14T09:31:07.000Z</time>
</trkpt>
<trkpt lat="44.3202500" lon="9.1782700">
	<ele>254.80</ele>
	<time>2022-05-14T09:31:13.000Z</time>
</trkpt>
<trkpt lat="44.3202520" lon="9.1782770">
	<ele>257.40</ele>
	<time>2022-05-14T09:31:14.000Z</time>
</trkpt>
<trkpt lat="44.3202600" lon="9.1783040">
	<ele>257.40</ele>
	<time>2022-05-14T09:31:19.000Z</time>
</trkpt>
<trkpt lat="44.3203050" lon="9.1783050">
	<ele>258.40</ele>
	<time>2022-05-14T09:31:25.000Z</time>
</trkpt>
<trkpt lat="44.3203290" lon="9.1782990">
	<ele>259.20</ele>
	<time>2022-05-14T09:31:28.000Z</time>
</trkpt>
<trkpt lat="44.3203280" lon="9.1782890">
	<ele>259.60</ele>
	<time>2022-05-14T09:31:30.000Z</time>
</trkpt>
<trkpt lat="44.3203410" lon="9.1782900">
	<ele>260.00</ele>
	<time>2022-05-14T09:31:34.000Z</time>
</trkpt>
<trkpt lat="44.3203820" lon="9.1783050">
	<ele>260.20</ele>
	<time>2022-05-14T09:31:37.000Z</time>
</trkpt>
<trkpt lat="44.3204030" lon="9.1783020">
	<ele>260.60</ele>
	<time>2022-05-14T09:31:39.000Z</time>
</trkpt>
<trkpt lat="44.3204420" lon="9.1783120">
	<ele>261.40</ele>
	<time>2022-05-14T09:31:44.000Z</time>
</trkpt>
<trkpt lat="44.3204430" lon="9.1783030">
	<ele>261.80</ele>
	<time>2022-05-14T09:31:46.000Z</time>
</trkpt>
<trkpt lat="44.3204790" lon="9.1782610">
	<ele>263.00</ele>
	<time>2022-05-14T09:31:53.000Z</time>
</trkpt>
<trkpt lat="44.3204860" lon="9.1782530">
	<ele>263.20</ele>
	<time>2022-05-14T09:31:54.000Z</time>
</trkpt>
<trkpt lat="44.3205100" lon="9.1782680">
	<ele>263.80</ele>
	<time>2022-05-14T09:31:58.000Z</time>
</trkpt>
<trkpt lat="44.3205200" lon="9.1782680">
	<ele>264.00</ele>
	<time>2022-05-14T09:31:59.000Z</time>
</trkpt>
<trkpt lat="44.3205430" lon="9.1782630">
	<ele>264.40</ele>
	<time>2022-05-14T09:32:01.000Z</time>
</trkpt>
<trkpt lat="44.3205610" lon="9.1782380">
	<ele>265.00</ele>
	<time>2022-05-14T09:32:04.000Z</time>
</trkpt>
<trkpt lat="44.3205520" lon="9.1782090">
	<ele>265.60</ele>
	<time>2022-05-14T09:32:07.000Z</time>
</trkpt>
<trkpt lat="44.3205500" lon="9.1782040">
	<ele>265.80</ele>
	<time>2022-05-14T09:32:13.000Z</time>
</trkpt>
<trkpt lat="44.3205110" lon="9.1782180">
	<ele>265.80</ele>
	<time>2022-05-14T09:32:20.000Z</time>
</trkpt>
<trkpt lat="44.3205010" lon="9.1782040">
	<ele>266.00</ele>
	<time>2022-05-14T09:32:22.000Z</time>
</trkpt>
<trkpt lat="44.3204880" lon="9.1781920">
	<ele>266.00</ele>
	<time>2022-05-14T09:32:23.000Z</time>
</trkpt>
<trkpt lat="44.3204980" lon="9.1781850">
	<ele>266.20</ele>
	<time>2022-05-14T09:32:28.000Z</time>
</trkpt>
<trkpt lat="44.3205280" lon="9.1781450">
	<ele>265.80</ele>
	<time>2022-05-14T09:32:34.000Z</time>
</trkpt>
<trkpt lat="44.3205240" lon="9.1781470">
	<ele>265.80</ele>
	<time>2022-05-14T09:32:37.000Z</time>
</trkpt>
<trkpt lat="44.3205240" lon="9.1781470">
	<ele>265.60</ele>
	<time>2022-05-14T09:32:40.000Z</time>
</trkpt>
<trkpt lat="44.3205240" lon="9.1781470">
	<ele>264.80</ele>
	<time>2022-05-14T09:32:41.000Z</time>
</trkpt>
<trkpt lat="44.3205240" lon="9.1781470">
	<ele>264.40</ele>
	<time>2022-05-14T09:32:45.000Z</time>
</trkpt>
<trkpt lat="44.3205210" lon="9.1781500">
	<ele>264.20</ele>
	<time>2022-05-14T09:32:48.000Z</time>
</trkpt>
<trkpt lat="44.3205230" lon="9.1781490">
	<ele>264.00</ele>
	<time>2022-05-14T09:32:49.000Z</time>
</trkpt>
<trkpt lat="44.3205230" lon="9.1781430">
	<ele>263.00</ele>
	<time>2022-05-14T09:32:52.000Z</time>
</trkpt>
<trkpt lat="44.3205230" lon="9.1781430">
	<ele>264.20</ele>
	<time>2022-05-14T09:32:59.000Z</time>
</trkpt>
<trkpt lat="44.3205230" lon="9.1781430">
	<ele>264.60</ele>
	<time>2022-05-14T09:33:00.000Z</time>
</trkpt>
<trkpt lat="44.3205240" lon="9.1781480">
	<ele>265.00</ele>
	<time>2022-05-14T09:33:04.000Z</time>
</trkpt>
<trkpt lat="44.3205260" lon="9.1781540">
	<ele>265.20</ele>
	<time>2022-05-14T09:33:07.000Z</time>
</trkpt>
<trkpt lat="44.3205370" lon="9.1781540">
	<ele>266.60</ele>
	<time>2022-05-14T09:33:09.000Z</time>
</trkpt>
<trkpt lat="44.3205480" lon="9.1781550">
	<ele>267.60</ele>
	<time>2022-05-14T09:33:12.000Z</time>
</trkpt>
<trkpt lat="44.3205540" lon="9.1781710">
	<ele>266.20</ele>
	<time>2022-05-14T09:33:18.000Z</time>
</trkpt>
<trkpt lat="44.3205640" lon="9.1781800">
	<ele>267.40</ele>
	<time>2022-05-14T09:33:21.000Z</time>
</trkpt>
<trkpt lat="44.3206000" lon="9.1782050">
	<ele>266.40</ele>
	<time>2022-05-14T09:33:30.000Z</time>
</trkpt>
<trkpt lat="44.3206010" lon="9.1782080">
	<ele>266.20</ele>
	<time>2022-05-14T09:33:31.000Z</time>
</trkpt>
<trkpt lat="44.3205980" lon="9.1782120">
	<ele>265.00</ele>
	<time>2022-05-14T09:33:38.000Z</time>
</trkpt>
<trkpt lat="44.3205980" lon="9.1782090">
	<ele>263.80</ele>
	<time>2022-05-14T09:33:40.000Z</time>
</trkpt>
<trkpt lat="44.3205980" lon="9.1782050">
	<ele>264.20</ele>
	<time>2022-05-14T09:33:43.000Z</time>
</trkpt>
<trkpt lat="44.3206000" lon="9.1781960">
	<ele>264.00</ele>
	<time>2022-05-14T09:33:52.000Z</time>
</trkpt>
<trkpt lat="44.3206000" lon="9.1781960">
	<ele>265.40</ele>
	<time>2022-05-14T09:33:54.000Z</time>
</trkpt>
<trkpt lat="44.3206000" lon="9.1781960">
	<ele>266.40</ele>
	<time>2022-05-14T09:33:56.000Z</time>
</trkpt>
<trkpt lat="44.3205960" lon="9.1781960">
	<ele>266.60</ele>
	<time>2022-05-14T09:34:00.000Z</time>
</trkpt>
<trkpt lat="44.3205840" lon="9.1781960">
	<ele>264.60</ele>
	<time>2022-05-14T09:34:03.000Z</time>
</trkpt>
<trkpt lat="44.3205830" lon="9.1782250">
	<ele>263.60</ele>
	<time>2022-05-14T09:34:14.000Z</time>
</trkpt>
<trkpt lat="44.3205830" lon="9.1782280">
	<ele>263.40</ele>
	<time>2022-05-14T09:34:16.000Z</time>
</trkpt>
<trkpt lat="44.3205840" lon="9.1782300">
	<ele>263.40</ele>
	<time>2022-05-14T09:34:19.000Z</time>
</trkpt>
<trkpt lat="44.3205880" lon="9.1782330">
	<ele>265.00</ele>
	<time>2022-05-14T09:34:24.000Z</time>
</trkpt>
<trkpt lat="44.3205900" lon="9.1782320">
	<ele>266.20</ele>
	<time>2022-05-14T09:34:27.000Z</time>
</trkpt>
<trkpt lat="44.3205920" lon="9.1782300">
	<ele>266.20</ele>
	<time>2022-05-14T09:34:31.000Z</time>
</trkpt>
<trkpt lat="44.3205920" lon="9.1782300">
	<ele>264.20</ele>
	<time>2022-05-14T09:34:33.000Z</time>
</trkpt>
<trkpt lat="44.3205930" lon="9.1782290">
	<ele>263.00</ele>
	<time>2022-05-14T09:34:37.000Z</time>
</trkpt>
<trkpt lat="44.3205960" lon="9.1782240">
	<ele>262.60</ele>
	<time>2022-05-14T09:34:41.000Z</time>
</trkpt>
<trkpt lat="44.3206030" lon="9.1782210">
	<ele>262.00</ele>
	<time>2022-05-14T09:34:50.000Z</time>
</trkpt>
<trkpt lat="44.3206160" lon="9.1782290">
	<ele>262.00</ele>
	<time>2022-05-14T09:34:52.000Z</time>
</trkpt>
<trkpt lat="44.3206390" lon="9.1782460">
	<ele>262.00</ele>
	<time>2022-05-14T09:34:54.000Z</time>
</trkpt>
<trkpt lat="44.3206430" lon="9.1782510">
	<ele>262.00</ele>
	<time>2022-05-14T09:34:55.000Z</time>
</trkpt>
<trkpt lat="44.3206460" lon="9.1782530">
	<ele>262.00</ele>
	<time>2022-05-14T09:34:56.000Z</time>
</trkpt>
<trkpt lat="44.3206640" lon="9.1782570">
	<ele>265.80</ele>
	<time>2022-05-14T09:34:58.000Z</time>
</trkpt>
<trkpt lat="44.3206740" lon="9.1782610">
	<ele>267.60</ele>
	<time>2022-05-14T09:34:59.000Z</time>
</trkpt>
<trkpt lat="44.3206900" lon="9.1782610">
	<ele>268.60</ele>
	<time>2022-05-14T09:35:02.000Z</time>
</trkpt>
<trkpt lat="44.3206940" lon="9.1781790">
	<ele>269.80</ele>
	<time>2022-05-14T09:35:10.000Z</time>
</trkpt>
<trkpt lat="44.3206680" lon="9.1781330">
	<ele>270.20</ele>
	<time>2022-05-14T09:35:17.000Z</time>
</trkpt>
<trkpt lat="44.3206760" lon="9.1781150">
	<ele>270.40</ele>
	<time>2022-05-14T09:35:22.000Z</time>
</trkpt>
<trkpt lat="44.3206800" lon="9.1781230">
	<ele>270.40</ele>
	<time>2022-05-14T09:35:24.000Z</time>
</trkpt>
<trkpt lat="44.3206890" lon="9.1781270">
	<ele>270.40</ele>
	<time>2022-05-14T09:35:27.000Z</time>
</trkpt>
<trkpt lat="44.3206960" lon="9.1781420">
	<ele>271.40</ele>
	<time>2022-05-14T09:35:31.000Z</time>
</trkpt>
<trkpt lat="44.3207040" lon="9.1781500">
	<ele>271.60</ele>
	<time>2022-05-14T09:35:33.000Z</time>
</trkpt>
<trkpt lat="44.3207260" lon="9.1781530">
	<ele>271.80</ele>
	<time>2022-05-14T09:35:39.000Z</time>
</trkpt>
<trkpt lat="44.3207250" lon="9.1781520">
	<ele>272.40</ele>
	<time>2022-05-14T09:35:40.000Z</time>
</trkpt>
<trkpt lat="44.3207320" lon="9.1781280">
	<ele>272.80</ele>
	<time>2022-05-14T09:35:43.000Z</time>
</trkpt>
<trkpt lat="44.3207170" lon="9.1780860">
	<ele>273.40</ele>
	<time>2022-05-14T09:35:49.000Z</time>
</trkpt>
<trkpt lat="44.3207260" lon="9.1780740">
	<ele>273.40</ele>
	<time>2022-05-14T09:35:52.000Z</time>
</trkpt>
<trkpt lat="44.3207230" lon="9.1780840">
	<ele>273.60</ele>
	<time>2022-05-14T09:35:55.000Z</time>
</trkpt>
<trkpt lat="44.3207030" lon="9.1780620">
	<ele>273.80</ele>
	<time>2022-05-14T09:36:00.000Z</time>
</trkpt>
<trkpt lat="44.3207350" lon="9.1780800">
	<ele>276.40</ele>
	<time>2022-05-14T09:36:07.000Z</time>
</trkpt>
<trkpt lat="44.3207370" lon="9.1780820">
	<ele>278.60</ele>
	<time>2022-05-14T09:36:08.000Z</time>
</trkpt>
<trkpt lat="44.3207410" lon="9.1780850">
	<ele>280.00</ele>
	<time>2022-05-14T09:36:09.000Z</time>
</trkpt>
<trkpt lat="44.3207510" lon="9.1780670">
	<ele>281.20</ele>
	<time>2022-05-14T09:36:12.000Z</time>
</trkpt>
<trkpt lat="44.3207550" lon="9.1780610">
	<ele>281.80</ele>
	<time>2022-05-14T09:36:13.000Z</time>
</trkpt>
<trkpt lat="44.3207580" lon="9.1780400">
	<ele>282.40</ele>
	<time>2022-05-14T09:36:15.000Z</time>
</trkpt>
<trkpt lat="44.3207630" lon="9.1780340">
	<ele>283.00</ele>
	<time>2022-05-14T09:36:18.000Z</time>
</trkpt>
<trkpt lat="44.3207740" lon="9.1780200">
	<ele>283.60</ele>
	<time>2022-05-14T09:36:20.000Z</time>
</trkpt>
<trkpt lat="44.3207670" lon="9.1779800">
	<ele>284.40</ele>
	<time>2022-05-14T09:36:25.000Z</time>
</trkpt>
<trkpt lat="44.3207700" lon="9.1779720">
	<ele>284.60</ele>
	<time>2022-05-14T09:36:26.000Z</time>
</trkpt>
<trkpt lat="44.3207590" lon="9.1779500">
	<ele>285.80</ele>
	<time>2022-05-14T09:36:30.000Z</time>
</trkpt>
<trkpt lat="44.3207540" lon="9.1779400">
	<ele>286.00</ele>
	<time>2022-05-14T09:36:33.000Z</time>
</trkpt>
<trkpt lat="44.3207550" lon="9.1779530">
	<ele>286.60</ele>
	<time>2022-05-14T09:36:39.000Z</time>
</trkpt>
<trkpt lat="44.3207530" lon="9.1779530">
	<ele>286.80</ele>
	<time>2022-05-14T09:36:40.000Z</time>
</trkpt>
<trkpt lat="44.3207540" lon="9.1779530">
	<ele>288.00</ele>
	<time>2022-05-14T09:36:47.000Z</time>
</trkpt>
<trkpt lat="44.3207610" lon="9.1779540">
	<ele>288.20</ele>
	<time>2022-05-14T09:36:49.000Z</time>
</trkpt>
<trkpt lat="44.3207500" lon="9.1779270">
	<ele>289.00</ele>
	<time>2022-05-14T09:36:54.000Z</time>
</trkpt>
<trkpt lat="44.3207490" lon="9.1779000">
	<ele>290.00</ele>
	<time>2022-05-14T09:37:00.000Z</time>
</trkpt>
<trkpt lat="44.3207480" lon="9.1779070">
	<ele>290.20</ele>
	<time>2022-05-14T09:37:01.000Z</time>
</trkpt>
<trkpt lat="44.3207660" lon="9.1779420">
	<ele>291.00</ele>
	<time>2022-05-14T09:37:06.000Z</time>
</trkpt>
<trkpt lat="44.3207720" lon="9.1779480">
	<ele>291.20</ele>
	<time>2022-05-14T09:37:07.000Z</time>
</trkpt>
<trkpt lat="44.3208090" lon="9.1779540">
	<ele>292.40</ele>
	<time>2022-05-14T09:37:12.000Z</time>
</trkpt>
<trkpt lat="44.3208470" lon="9.1779850">
	<ele>293.40</ele>
	<time>2022-05-14T09:37:16.000Z</time>
</trkpt>
<trkpt lat="44.3208470" lon="9.1779890">
	<ele>293.80</ele>
	<time>2022-05-14T09:37:18.000Z</time>
</trkpt>
<trkpt lat="44.3208730" lon="9.1779910">
	<ele>294.60</ele>
	<time>2022-05-14T09:37:23.000Z</time>
</trkpt>
<trkpt lat="44.3208740" lon="9.1779770">
	<ele>295.20</ele>
	<time>2022-05-14T09:37:28.000Z</time>
</trkpt>
<trkpt lat="44.3208720" lon="9.1779650">
	<ele>295.60</ele>
	<time>2022-05-14T09:37:30.000Z</time>
</trkpt>
<trkpt lat="44.3208960" lon="9.1779300">
	<ele>296.20</ele>
	<time>2022-05-14T09:37:34.000Z</time>
</trkpt>
<trkpt lat="44.3209070" lon="9.1779050">
	<ele>296.60</ele>
	<time>2022-05-14T09:37:37.000Z</time>
</trkpt>
<trkpt lat="44.3209300" lon="9.1778680">
	<ele>297.20</ele>
	<time>2022-05-14T09:37:39.000Z</time>
</trkpt>
<trkpt lat="44.3209320" lon="9.1778430">
	<ele>297.80</ele>
	<time>2022-05-14T09:37:43.000Z</time>
</trkpt>
<trkpt lat="44.3209380" lon="9.1778160">
	<ele>298.00</ele>
	<time>2022-05-14T09:37:45.000Z</time>
</trkpt>
<trkpt lat="44.3209390" lon="9.1777770">
	<ele>298.80</ele>
	<time>2022-05-14T09:37:50.000Z</time>
</trkpt>
<trkpt lat="44.3209490" lon="9.1777750">
	<ele>299.00</ele>
	<time>2022-05-14T09:37:52.000Z</time>
</trkpt>
<trkpt lat="44.3209600" lon="9.1777670">
	<ele>299.60</ele>
	<time>2022-05-14T09:37:56.000Z</time>
</trkpt>
<trkpt lat="44.3209620" lon="9.1777790">
	<ele>299.80</ele>
	<time>2022-05-14T09:37:59.000Z</time>
</trkpt>
<trkpt lat="44.3209630" lon="9.1777780">
	<ele>300.20</ele>
	<time>2022-05-14T09:38:01.000Z</time>
</trkpt>
<trkpt lat="44.3209730" lon="9.1777930">
	<ele>300.80</ele>
	<time>2022-05-14T09:38:05.000Z</time>
</trkpt>
<trkpt lat="44.3209700" lon="9.1777940">
	<ele>301.00</ele>
	<time>2022-05-14T09:38:06.000Z</time>
</trkpt>
<trkpt lat="44.3209930" lon="9.1778380">
	<ele>301.60</ele>
	<time>2022-05-14T09:38:13.000Z</time>
</trkpt>
<trkpt lat="44.3210110" lon="9.1778680">
	<ele>301.80</ele>
	<time>2022-05-14T09:38:16.000Z</time>
</trkpt>
<trkpt lat="44.3210400" lon="9.1778860">
	<ele>302.40</ele>
	<time>2022-05-14T09:38:19.000Z</time>
</trkpt>
<trkpt lat="44.3210860" lon="9.1778920">
	<ele>303.00</ele>
	<time>2022-05-14T09:38:26.000Z</time>
</trkpt>
<trkpt lat="44.3210890" lon="9.1779020">
	<ele>303.20</ele>
	<time>2022-05-14T09:38:27.000Z</time>
</trkpt>
<trkpt lat="44.3211270" lon="9.1779480">
	<ele>303.80</ele>
	<time>2022-05-14T09:38:33.000Z</time>
</trkpt>
<trkpt lat="44.3211470" lon="9.1779660">
	<ele>304.20</ele>
	<time>2022-05-14T09:38:36.000Z</time>
</trkpt>
<trkpt lat="44.3211500" lon="9.1779740">
	<ele>304.80</ele>
	<time>2022-05-14T09:38:39.000Z</time>
</trkpt>
<trkpt lat="44.3211560" lon="9.1779770">
	<ele>305.20</ele>
	<time>2022-05-14T09:38:43.000Z</time>
</trkpt>
<trkpt lat="44.3211740" lon="9.1779740">
	<ele>305.40</ele>
	<time>2022-05-14T09:38:45.000Z</time>
</trkpt>
<trkpt lat="44.3212220" lon="9.1779810">
	<ele>306.40</ele>
	<time>2022-05-14T09:38:51.000Z</time>
</trkpt>
<trkpt lat="44.3212260" lon="9.1779800">
	<ele>306.40</ele>
	<time>2022-05-14T09:38:52.000Z</time>
</trkpt>
<trkpt lat="44.3212600" lon="9.1780210">
	<ele>307.20</ele>
	<time>2022-05-14T09:38:59.000Z</time>
</trkpt>
<trkpt lat="44.3212680" lon="9.1780260">
	<ele>307.40</ele>
	<time>2022-05-14T09:39:00.000Z</time>
</trkpt>
<trkpt lat="44.3213220" lon="9.1780160">
	<ele>308.40</ele>
	<time>2022-05-14T09:39:07.000Z</time>
</trkpt>
<trkpt lat="44.3213470" lon="9.1780520">
	<ele>309.60</ele>
	<time>2022-05-14T09:39:14.000Z</time>
</trkpt>
<trkpt lat="44.3213900" lon="9.1780860">
	<ele>310.20</ele>
	<time>2022-05-14T09:39:20.000Z</time>
</trkpt>
<trkpt lat="44.3214000" lon="9.1780920">
	<ele>310.60</ele>
	<time>2022-05-14T09:39:22.000Z</time>
</trkpt>
<trkpt lat="44.3214400" lon="9.1780920">
	<ele>311.60</ele>
	<time>2022-05-14T09:39:27.000Z</time>
</trkpt>
<trkpt lat="44.3214600" lon="9.1780840">
	<ele>311.80</ele>
	<time>2022-05-14T09:39:29.000Z</time>
</trkpt>
<trkpt lat="44.3214810" lon="9.1780790">
	<ele>312.60</ele>
	<time>2022-05-14T09:39:32.000Z</time>
</trkpt>
<trkpt lat="44.3215070" lon="9.1780890">
	<ele>313.00</ele>
	<time>2022-05-14T09:39:36.000Z</time>
</trkpt>
<trkpt lat="44.3215210" lon="9.1780920">
	<ele>313.00</ele>
	<time>2022-05-14T09:39:38.000Z</time>
</trkpt>
<trkpt lat="44.3215200" lon="9.1780970">
	<ele>313.00</ele>
	<time>2022-05-14T09:39:40.000Z</time>
</trkpt>
<trkpt lat="44.3215150" lon="9.1781220">
	<ele>313.60</ele>
	<time>2022-05-14T09:39:44.000Z</time>
</trkpt>
<trkpt lat="44.3214950" lon="9.1781520">
	<ele>314.60</ele>
	<time>2022-05-14T09:39:50.000Z</time>
</trkpt>
<trkpt lat="44.3215000" lon="9.1781500">
	<ele>314.80</ele>
	<time>2022-05-14T09:39:52.000Z</time>
</trkpt>
<trkpt lat="44.3215170" lon="9.1781460">
	<ele>315.20</ele>
	<time>2022-05-14T09:39:56.000Z</time>
</trkpt>
<trkpt lat="44.3215320" lon="9.1781420">
	<ele>315.80</ele>
	<time>2022-05-14T09:39:59.000Z</time>
</trkpt>
<trkpt lat="44.3215520" lon="9.1781460">
	<ele>316.40</ele>
	<time>2022-05-14T09:40:02.000Z</time>
</trkpt>
<trkpt lat="44.3215700" lon="9.1781530">
	<ele>317.00</ele>
	<time>2022-05-14T09:40:05.000Z</time>
</trkpt>
<trkpt lat="44.3215900" lon="9.1781610">
	<ele>317.60</ele>
	<time>2022-05-14T09:40:09.000Z</time>
</trkpt>
<trkpt lat="44.3215900" lon="9.1781700">
	<ele>318.00</ele>
	<time>2022-05-14T09:40:12.000Z</time>
</trkpt>
<trkpt lat="44.3215870" lon="9.1781770">
	<ele>318.40</ele>
	<time>2022-05-14T09:40:14.000Z</time>
</trkpt>
<trkpt lat="44.3215980" lon="9.1781990">
	<ele>319.20</ele>
	<time>2022-05-14T09:40:19.000Z</time>
</trkpt>
<trkpt lat="44.3215950" lon="9.1782090">
	<ele>319.40</ele>
	<time>2022-05-14T09:40:21.000Z</time>
</trkpt>
<trkpt lat="44.3215810" lon="9.1782140">
	<ele>320.20</ele>
	<time>2022-05-14T09:40:26.000Z</time>
</trkpt>
<trkpt lat="44.3215860" lon="9.1782110">
	<ele>320.40</ele>
	<time>2022-05-14T09:40:27.000Z</time>
</trkpt>
<trkpt lat="44.3216070" lon="9.1782640">
	<ele>321.40</ele>
	<time>2022-05-14T09:40:32.000Z</time>
</trkpt>
<trkpt lat="44.3216010" lon="9.1783260">
	<ele>322.60</ele>
	<time>2022-05-14T09:40:39.000Z</time>
</trkpt>
<trkpt lat="44.3216120" lon="9.1783630">
	<ele>323.60</ele>
	<time>2022-05-14T09:40:45.000Z</time>
</trkpt>
<trkpt lat="44.3216160" lon="9.1783560">
	<ele>323.80</ele>
	<time>2022-05-14T09:40:46.000Z</time>
</trkpt>
<trkpt lat="44.3216160" lon="9.1783420">
	<ele>324.60</ele>
	<time>2022-05-14T09:40:51.000Z</time>
</trkpt>
<trkpt lat="44.3216210" lon="9.1783390">
	<ele>324.80</ele>
	<time>2022-05-14T09:40:52.000Z</time>
</trkpt>
<trkpt lat="44.3216330" lon="9.1783290">
	<ele>325.40</ele>
	<time>2022-05-14T09:40:56.000Z</time>
</trkpt>
<trkpt lat="44.3216530" lon="9.1783160">
	<ele>325.80</ele>
	<time>2022-05-14T09:41:00.000Z</time>
</trkpt>
<trkpt lat="44.3216600" lon="9.1783200">
	<ele>326.00</ele>
	<time>2022-05-14T09:41:01.000Z</time>
</trkpt>
<trkpt lat="44.3216730" lon="9.1783270">
	<ele>327.00</ele>
	<time>2022-05-14T09:41:07.000Z</time>
</trkpt>
<trkpt lat="44.3216610" lon="9.1782900">
	<ele>327.40</ele>
	<time>2022-05-14T09:41:13.000Z</time>
</trkpt>
<trkpt lat="44.3216530" lon="9.1782310">
	<ele>327.00</ele>
	<time>2022-05-14T09:41:22.000Z</time>
</trkpt>
<trkpt lat="44.3216110" lon="9.1781840">
	<ele>327.20</ele>
	<time>2022-05-14T09:41:29.000Z</time>
</trkpt>
<trkpt lat="44.3215940" lon="9.1781740">
	<ele>327.20</ele>
	<time>2022-05-14T09:41:40.000Z</time>
</trkpt>
<trkpt lat="44.3215940" lon="9.1781740">
	<ele>327.20</ele>
	<time>2022-05-14T09:41:48.000Z</time>
</trkpt>
<trkpt lat="44.3215940" lon="9.1781740">
	<ele>327.20</ele>
	<time>2022-05-14T09:41:51.000Z</time>
</trkpt>
<trkpt lat="44.3215960" lon="9.1781680">
	<ele>327.20</ele>
	<time>2022-05-14T09:41:57.000Z</time>
</trkpt>
<trkpt lat="44.3216010" lon="9.1781440">
	<ele>327.20</ele>
	<time>2022-05-14T09:42:06.000Z</time>
</trkpt>
<trkpt lat="44.3216020" lon="9.1781440">
	<ele>327.40</ele>
	<time>2022-05-14T09:42:08.000Z</time>
</trkpt>
<trkpt lat="44.3216030" lon="9.1781440">
	<ele>327.40</ele>
	<time>2022-05-14T09:42:10.000Z</time>
</trkpt>
<trkpt lat="44.3216340" lon="9.1781390">
	<ele>327.60</ele>
	<time>2022-05-14T09:42:19.000Z</time>
</trkpt>
<trkpt lat="44.3216390" lon="9.1781370">
	<ele>327.80</ele>
	<time>2022-05-14T09:42:22.000Z</time>
</trkpt>
<trkpt lat="44.3216140" lon="9.1781060">
	<ele>327.80</ele>
	<time>2022-05-14T09:42:27.000Z</time>
</trkpt>
<trkpt lat="44.3216720" lon="9.1781450">
	<ele>327.60</ele>
	<time>2022-05-14T09:42:37.000Z</time>
</trkpt>
<trkpt lat="44.3216880" lon="9.1781440">
	<ele>327.60</ele>
	<time>2022-05-14T09:42:39.000Z</time>
</trkpt>
<trkpt lat="44.3217030" lon="9.1781500">
	<ele>327.80</ele>
	<time>2022-05-14T09:42:43.000Z</time>
</trkpt>
<trkpt lat="44.3217130" lon="9.1781570">
	<ele>328.00</ele>
	<time>2022-05-14T09:42:47.000Z</time>
</trkpt>
<trkpt lat="44.3217160" lon="9.1781840">
	<ele>328.80</ele>
	<time>2022-05-14T09:42:51.000Z</time>
</trkpt>
<trkpt lat="44.3217250" lon="9.1781940">
	<ele>329.00</ele>
	<time>2022-05-14T09:42:54.000Z</time>
</trkpt>
<trkpt lat="44.3217590" lon="9.1782010">
	<ele>329.60</ele>
	<time>2022-05-14T09:42:57.000Z</time>
</trkpt>
<trkpt lat="44.3217600" lon="9.1782060">
	<ele>330.20</ele>
	<time>2022-05-14T09:43:00.000Z</time>
</trkpt>
<trkpt lat="44.3217420" lon="9.1781970">
	<ele>330.80</ele>
	<time>2022-05-14T09:43:03.000Z</time>
</trkpt>
<trkpt lat="44.3217510" lon="9.1782020">
	<ele>331.60</ele>
	<time>2022-05-14T09:43:06.000Z</time>
</trkpt>
<trkpt lat="44.3217510" lon="9.1781860">
	<ele>332.00</ele>
	<time>2022-05-14T09:43:09.000Z</time>
</trkpt>
<trkpt lat="44.3217600" lon="9.1781890">
	<ele>332.60</ele>
	<time>2022-05-14T09:43:12.000Z</time>
</trkpt>
<trkpt lat="44.3217870" lon="9.1782000">
	<ele>333.60</ele>
	<time>2022-05-14T09:43:17.000Z</time>
</trkpt>
<trkpt lat="44.3217940" lon="9.1781980">
	<ele>333.80</ele>
	<time>2022-05-14T09:43:18.000Z</time>
</trkpt>
<trkpt lat="44.3218060" lon="9.1782000">
	<ele>334.40</ele>
	<time>2022-05-14T09:43:22.000Z</time>
</trkpt>
<trkpt lat="44.3218090" lon="9.1782000">
	<ele>334.80</ele>
	<time>2022-05-14T09:43:23.000Z</time>
</trkpt>
<trkpt lat="44.3218090" lon="9.1782060">
	<ele>335.20</ele>
	<time>2022-05-14T09:43:26.000Z</time>
</trkpt>
<trkpt lat="44.3217970" lon="9.1782090">
	<ele>335.80</ele>
	<time>2022-05-14T09:43:30.000Z</time>
</trkpt>
<trkpt lat="44.3217720" lon="9.1782070">
	<ele>336.40</ele>
	<time>2022-05-14T09:43:33.000Z</time>
</trkpt>
<trkpt lat="44.3217570" lon="9.1782070">
	<ele>336.80</ele>
	<time>2022-05-14T09:43:36.000Z</time>
</trkpt>
<trkpt lat="44.3217550" lon="9.1782080">
	<ele>337.20</ele>
	<time>2022-05-14T09:43:39.000Z</time>
</trkpt>
<trkpt lat="44.3217550" lon="9.1782080">
	<ele>338.00</ele>
	<time>2022-05-14T09:43:42.000Z</time>
</trkpt>
<trkpt lat="44.3217570" lon="9.1782090">
	<ele>339.00</ele>
	<time>2022-05-14T09:43:49.000Z</time>
</trkpt>
<trkpt lat="44.3217570" lon="9.1782150">
	<ele>340.00</ele>
	<time>2022-05-14T09:43:55.000Z</time>
</trkpt>
<trkpt lat="44.3217550" lon="9.1782720">
	<ele>341.00</ele>
	<time>2022-05-14T09:44:01.000Z</time>
</trkpt>
<trkpt lat="44.3217360" lon="9.1783020">
	<ele>342.20</ele>
	<time>2022-05-14T09:44:07.000Z</time>
</trkpt>
<trkpt lat="44.3217330" lon="9.1783480">
	<ele>343.20</ele>
	<time>2022-05-14T09:44:15.000Z</time>
</trkpt>
<trkpt lat="44.3217740" lon="9.1784380">
	<ele>344.20</ele>
	<time>2022-05-14T09:44:21.000Z</time>
</trkpt>
<trkpt lat="44.3217790" lon="9.1784520">
	<ele>344.40</ele>
	<time>2022-05-14T09:44:22.000Z</time>
</trkpt>
<trkpt lat="44.3218400" lon="9.1785400">
	<ele>345.20</ele>
	<time>2022-05-14T09:44:27.000Z</time>
</trkpt>
<trkpt lat="44.3218470" lon="9.1785460">
	<ele>345.60</ele>
	<time>2022-05-14T09:44:29.000Z</time>
</trkpt>
<trkpt lat="44.3218870" lon="9.1785440">
	<ele>346.40</ele>
	<time>2022-05-14T09:44:34.000Z</time>
</trkpt>
<trkpt lat="44.3218990" lon="9.1785440">
	<ele>346.80</ele>
	<time>2022-05-14T09:44:36.000Z</time>
</trkpt>
<trkpt lat="44.3219320" lon="9.1785220">
	<ele>347.60</ele>
	<time>2022-05-14T09:44:42.000Z</time>
</trkpt>
<trkpt lat="44.3219400" lon="9.1785190">
	<ele>347.80</ele>
	<time>2022-05-14T09:44:44.000Z</time>
</trkpt>
<trkpt lat="44.3219520" lon="9.1785190">
	<ele>348.20</ele>
	<time>2022-05-14T09:44:47.000Z</time>
</trkpt>
<trkpt lat="44.3219760" lon="9.1785200">
	<ele>349.00</ele>
	<time>2022-05-14T09:44:52.000Z</time>
</trkpt>
<trkpt lat="44.3219780" lon="9.1785350">
	<ele>349.80</ele>
	<time>2022-05-14T09:44:56.000Z</time>
</trkpt>
<trkpt lat="44.3219830" lon="9.1785540">
	<ele>350.20</ele>
	<time>2022-05-14T09:44:59.000Z</time>
</trkpt>
<trkpt lat="44.3220020" lon="9.1785700">
	<ele>351.20</ele>
	<time>2022-05-14T09:45:03.000Z</time>
</trkpt>
<trkpt lat="44.3220030" lon="9.1785580">
	<ele>351.40</ele>
	<time>2022-05-14T09:45:04.000Z</time>
</trkpt>
<trkpt lat="44.3220180" lon="9.1785420">
	<ele>352.40</ele>
	<time>2022-05-14T09:45:09.000Z</time>
</trkpt>
<trkpt lat="44.3220360" lon="9.1785560">
	<ele>352.80</ele>
	<time>2022-05-14T09:45:12.000Z</time>
</trkpt>
<trkpt lat="44.3220680" lon="9.1785370">
	<ele>353.60</ele>
	<time>2022-05-14T09:45:16.000Z</time>
</trkpt>
<trkpt lat="44.3220760" lon="9.1785220">
	<ele>354.20</ele>
	<time>2022-05-14T09:45:20.000Z</time>
</trkpt>
<trkpt lat="44.3220830" lon="9.1784940">
	<ele>354.60</ele>
	<time>2022-05-14T09:45:23.000Z</time>
</trkpt>
<trkpt lat="44.3220860" lon="9.1784600">
	<ele>355.20</ele>
	<time>2022-05-14T09:45:26.000Z</time>
</trkpt>
<trkpt lat="44.3221030" lon="9.1784560">
	<ele>355.80</ele>
	<time>2022-05-14T09:45:30.000Z</time>
</trkpt>
<trkpt lat="44.3221080" lon="9.1784600">
	<ele>356.20</ele>
	<time>2022-05-14T09:45:33.000Z</time>
</trkpt>
<trkpt lat="44.3221320" lon="9.1784790">
	<ele>356.80</ele>
	<time>2022-05-14T09:45:37.000Z</time>
</trkpt>
<trkpt lat="44.3221390" lon="9.1784770">
	<ele>357.00</ele>
	<time>2022-05-14T09:45:38.000Z</time>
</trkpt>
<trkpt lat="44.3221700" lon="9.1784770">
	<ele>358.00</ele>
	<time>2022-05-14T09:45:43.000Z</time>
</trkpt>
<trkpt lat="44.3221830" lon="9.1784660">
	<ele>358.40</ele>
	<time>2022-05-14T09:45:45.000Z</time>
</trkpt>
<trkpt lat="44.3221970" lon="9.1784580">
	<ele>359.20</ele>
	<time>2022-05-14T09:45:49.000Z</time>
</trkpt>
<trkpt lat="44.3222140" lon="9.1784570">
	<ele>359.60</ele>
	<time>2022-05-14T09:45:52.000Z</time>
</trkpt>
<trkpt lat="44.3222140" lon="9.1784610">
	<ele>360.20</ele>
	<time>2022-05-14T09:45:56.000Z</time>
</trkpt>
<trkpt lat="44.3222010" lon="9.1784460">
	<ele>360.40</ele>
	<time>2022-05-14T09:45:58.000Z</time>
</trkpt>
<trkpt lat="44.3221930" lon="9.1784260">
	<ele>361.40</ele>
	<time>2022-05-14T09:46:04.000Z</time>
</trkpt>
<trkpt lat="44.3221730" lon="9.1784730">
	<ele>362.20</ele>
	<time>2022-05-14T09:46:10.000Z</time>
</trkpt>
<trkpt lat="44.3221660" lon="9.1784890">
	<ele>362.40</ele>
	<time>2022-05-14T09:46:12.000Z</time>
</trkpt>
<trkpt lat="44.3221630" lon="9.1784910">
	<ele>362.60</ele>
	<time>2022-05-14T09:46:13.000Z</time>
</trkpt>
<trkpt lat="44.3221760" lon="9.1785540">
	<ele>363.60</ele>
	<time>2022-05-14T09:46:19.000Z</time>
</trkpt>
<trkpt lat="44.3221790" lon="9.1785670">
	<ele>363.80</ele>
	<time>2022-05-14T09:46:20.000Z</time>
</trkpt>
<trkpt lat="44.3221990" lon="9.1786050">
	<ele>364.40</ele>
	<time>2022-05-14T09:46:25.000Z</time>
</trkpt>
<trkpt lat="44.3222060" lon="9.1785970">
	<ele>364.60</ele>
	<time>2022-05-14T09:46:27.000Z</time>
</trkpt>
<trkpt lat="44.3222120" lon="9.1785930">
	<ele>365.20</ele>
	<time>2022-05-14T09:46:30.000Z</time>
</trkpt>
<trkpt lat="44.3222280" lon="9.1785690">
	<ele>365.60</ele>
	<time>2022-05-14T09:46:34.000Z</time>
</trkpt>
<trkpt lat="44.3222430" lon="9.1785600">
	<ele>366.00</ele>
	<time>2022-05-14T09:46:37.000Z</time>
</trkpt>
<trkpt lat="44.3222720" lon="9.1785610">
	<ele>366.80</ele>
	<time>2022-05-14T09:46:42.000Z</time>
</trkpt>
<trkpt lat="44.3222890" lon="9.1785580">
	<ele>367.20</ele>
	<time>2022-05-14T09:46:45.000Z</time>
</trkpt>
<trkpt lat="44.3223100" lon="9.1785500">
	<ele>368.00</ele>
	<time>2022-05-14T09:46:52.000Z</time>
</trkpt>
<trkpt lat="44.3223150" lon="9.1785410">
	<ele>368.40</ele>
	<time>2022-05-14T09:46:54.000Z</time>
</trkpt>
<trkpt lat="44.3223410" lon="9.1785540">
	<ele>369.00</ele>
	<time>2022-05-14T09:46:59.000Z</time>
</trkpt>
<trkpt lat="44.3223590" lon="9.1785310">
	<ele>370.20</ele>
	<time>2022-05-14T09:47:05.000Z</time>
</trkpt>
<trkpt lat="44.3223890" lon="9.1785070">
	<ele>371.00</ele>
	<time>2022-05-14T09:47:12.000Z</time>
</trkpt>
<trkpt lat="44.3223920" lon="9.1785040">
	<ele>371.40</ele>
	<time>2022-05-14T09:47:14.000Z</time>
</trkpt>
<trkpt lat="44.3223970" lon="9.1785080">
	<ele>372.00</ele>
	<time>2022-05-14T09:47:19.000Z</time>
</trkpt>
<trkpt lat="44.3224160" lon="9.1785310">
	<ele>372.40</ele>
	<time>2022-05-14T09:47:22.000Z</time>
</trkpt>
<trkpt lat="44.3224180" lon="9.1785570">
	<ele>372.80</ele>
	<time>2022-05-14T09:47:26.000Z</time>
</trkpt>
<trkpt lat="44.3224070" lon="9.1785700">
	<ele>373.60</ele>
	<time>2022-05-14T09:47:30.000Z</time>
</trkpt>
<trkpt lat="44.3224030" lon="9.1785740">
	<ele>373.60</ele>
	<time>2022-05-14T09:47:31.000Z</time>
</trkpt>
<trkpt lat="44.3223940" lon="9.1785980">
	<ele>374.40</ele>
	<time>2022-05-14T09:47:37.000Z</time>
</trkpt>
<trkpt lat="44.3223860" lon="9.1786000">
	<ele>374.60</ele>
	<time>2022-05-14T09:47:38.000Z</time>
</trkpt>
<trkpt lat="44.3223800" lon="9.1786450">
	<ele>375.80</ele>
	<time>2022-05-14T09:47:45.000Z</time>
</trkpt>
<trkpt lat="44.3223650" lon="9.1786750">
	<ele>376.80</ele>
	<time>2022-05-14T09:47:50.000Z</time>
</trkpt>
<trkpt lat="44.3223580" lon="9.1786820">
	<ele>377.00</ele>
	<time>2022-05-14T09:47:52.000Z</time>
</trkpt>
<trkpt lat="44.3223580" lon="9.1787160">
	<ele>377.80</ele>
	<time>2022-05-14T09:47:57.000Z</time>
</trkpt>
<trkpt lat="44.3223710" lon="9.1787420">
	<ele>378.00</ele>
	<time>2022-05-14T09:47:59.000Z</time>
</trkpt>
<trkpt lat="44.3223940" lon="9.1787310">
	<ele>378.80</ele>
	<time>2022-05-14T09:48:05.000Z</time>
</trkpt>
<trkpt lat="44.3223990" lon="9.1787230">
	<ele>379.00</ele>
	<time>2022-05-14T09:48:06.000Z</time>
</trkpt>
<trkpt lat="44.3224230" lon="9.1787040">
	<ele>379.60</ele>
	<time>2022-05-14T09:48:10.000Z</time>
</trkpt>
<trkpt lat="44.3224360" lon="9.1787160">
	<ele>380.00</ele>
	<time>2022-05-14T09:48:13.000Z</time>
</trkpt>
<trkpt lat="44.3224620" lon="9.1787110">
	<ele>380.40</ele>
	<time>2022-05-14T09:48:16.000Z</time>
</trkpt>
<trkpt lat="44.3224940" lon="9.1786680">
	<ele>381.00</ele>
	<time>2022-05-14T09:48:21.000Z</time>
</trkpt>
<trkpt lat="44.3225000" lon="9.1786730">
	<ele>381.40</ele>
	<time>2022-05-14T09:48:23.000Z</time>
</trkpt>
<trkpt lat="44.3225340" lon="9.1786510">
	<ele>382.00</ele>
	<time>2022-05-14T09:48:29.000Z</time>
</trkpt>
<trkpt lat="44.3225870" lon="9.1786370">
	<ele>382.60</ele>
	<time>2022-05-14T09:48:35.000Z</time>
</trkpt>
<trkpt lat="44.3226330" lon="9.1785810">
	<ele>383.00</ele>
	<time>2022-05-14T09:48:42.000Z</time>
</trkpt>
<trkpt lat="44.3226450" lon="9.1785700">
	<ele>383.20</ele>
	<time>2022-05-14T09:48:44.000Z</time>
</trkpt>
<trkpt lat="44.3226810" lon="9.1785480">
	<ele>383.60</ele>
	<time>2022-05-14T09:48:48.000Z</time>
</trkpt>
<trkpt lat="44.3227340" lon="9.1785630">
	<ele>384.20</ele>
	<time>2022-05-14T09:48:54.000Z</time>
</trkpt>
<trkpt lat="44.3227410" lon="9.1785450">
	<ele>384.40</ele>
	<time>2022-05-14T09:48:55.000Z</time>
</trkpt>
<trkpt lat="44.3227840" lon="9.1785320">
	<ele>384.80</ele>
	<time>2022-05-14T09:49:00.000Z</time>
</trkpt>
<trkpt lat="44.3227870" lon="9.1785340">
	<ele>385.00</ele>
	<time>2022-05-14T09:49:01.000Z</time>
</trkpt>
<trkpt lat="44.3227920" lon="9.1785040">
	<ele>385.40</ele>
	<time>2022-05-14T09:49:04.000Z</time>
</trkpt>
<trkpt lat="44.3227990" lon="9.1784900">
	<ele>385.60</ele>
	<time>2022-05-14T09:49:06.000Z</time>
</trkpt>
<trkpt lat="44.3227980" lon="9.1784650">
	<ele>386.20</ele>
	<time>2022-05-14T09:49:09.000Z</time>
</trkpt>
<trkpt lat="44.3228130" lon="9.1784520">
	<ele>386.40</ele>
	<time>2022-05-14T09:49:11.000Z</time>
</trkpt>
<trkpt lat="44.3228310" lon="9.1784540">
	<ele>386.80</ele>
	<time>2022-05-14T09:49:13.000Z</time>
</trkpt>
<trkpt lat="44.3228610" lon="9.1784460">
	<ele>387.20</ele>
	<time>2022-05-14T09:49:16.000Z</time>
</trkpt>
<trkpt lat="44.3228790" lon="9.1784430">
	<ele>387.40</ele>
	<time>2022-05-14T09:49:19.000Z</time>
</trkpt>
<trkpt lat="44.3228880" lon="9.1784350">
	<ele>387.40</ele>
	<time>2022-05-14T09:49:20.000Z</time>
</trkpt>
<trkpt lat="44.3228970" lon="9.1784400">
	<ele>387.60</ele>
	<time>2022-05-14T09:49:21.000Z</time>
</trkpt>
<trkpt lat="44.3229270" lon="9.1784530">
	<ele>388.40</ele>
	<time>2022-05-14T09:49:25.000Z</time>
</trkpt>
<trkpt lat="44.3229260" lon="9.1784380">
	<ele>388.80</ele>
	<time>2022-05-14T09:49:28.000Z</time>
</trkpt>
<trkpt lat="44.3229340" lon="9.1784320">
	<ele>389.00</ele>
	<time>2022-05-14T09:49:29.000Z</time>
</trkpt>
<trkpt lat="44.3229440" lon="9.1784290">
	<ele>389.20</ele>
	<time>2022-05-14T09:49:30.000Z</time>
</trkpt>
<trkpt lat="44.3229520" lon="9.1784130">
	<ele>389.60</ele>
	<time>2022-05-14T09:49:33.000Z</time>
</trkpt>
<trkpt lat="44.3229570" lon="9.1784070">
	<ele>389.80</ele>
	<time>2022-05-14T09:49:34.000Z</time>
</trkpt>
<trkpt lat="44.3229790" lon="9.1783870">
	<ele>390.60</ele>
	<time>2022-05-14T09:49:38.000Z</time>
</trkpt>
<trkpt lat="44.3229800" lon="9.1783730">
	<ele>390.80</ele>
	<time>2022-05-14T09:49:40.000Z</time>
</trkpt>
<trkpt lat="44.3229830" lon="9.1783690">
	<ele>391.00</ele>
	<time>2022-05-14T09:49:41.000Z</time>
</trkpt>
<trkpt lat="44.3229880" lon="9.1783640">
	<ele>391.20</ele>
	<time>2022-05-14T09:49:42.000Z</time>
</trkpt>
<trkpt lat="44.3230110" lon="9.1783500">
	<ele>392.00</ele>
	<time>2022-05-14T09:49:47.000Z</time>
</trkpt>
<trkpt lat="44.3230230" lon="9.1783460">
	<ele>392.60</ele>
	<time>2022-05-14T09:49:50.000Z</time>
</trkpt>
<trkpt lat="44.3230460" lon="9.1783190">
	<ele>393.20</ele>
	<time>2022-05-14T09:49:54.000Z</time>
</trkpt>
<trkpt lat="44.3230630" lon="9.1782960">
	<ele>393.80</ele>
	<time>2022-05-14T09:49:58.000Z</time>
</trkpt>
<trkpt lat="44.3230760" lon="9.1782810">
	<ele>394.20</ele>
	<time>2022-05-14T09:50:01.000Z</time>
</trkpt>
<trkpt lat="44.3230860" lon="9.1782730">
	<ele>394.40</ele>
	<time>2022-05-14T09:50:04.000Z</time>
</trkpt>
<trkpt lat="44.3231060" lon="9.1782660">
	<ele>395.20</ele>
	<time>2022-05-14T09:50:08.000Z</time>
</trkpt>
<trkpt lat="44.3231370" lon="9.1782410">
	<ele>396.00</ele>
	<time>2022-05-14T09:50:13.000Z</time>
</trkpt>
<trkpt lat="44.3231440" lon="9.1782360">
	<ele>396.20</ele>
	<time>2022-05-14T09:50:14.000Z</time>
</trkpt>
<trkpt lat="44.3231520" lon="9.1782310">
	<ele>396.20</ele>
	<time>2022-05-14T09:50:15.000Z</time>
</trkpt>
<trkpt lat="44.3231580" lon="9.1782240">
	<ele>396.20</ele>
	<time>2022-05-14T09:50:16.000Z</time>
</trkpt>
<trkpt lat="44.3231720" lon="9.1782120">
	<ele>396.40</ele>
	<time>2022-05-14T09:50:18.000Z</time>
</trkpt>
<trkpt lat="44.3231930" lon="9.1781950">
	<ele>397.00</ele>
	<time>2022-05-14T09:50:21.000Z</time>
</trkpt>
<trkpt lat="44.3232030" lon="9.1781810">
	<ele>397.20</ele>
	<time>2022-05-14T09:50:23.000Z</time>
</trkpt>
<trkpt lat="44.3232210" lon="9.1781500">
	<ele>397.60</ele>
	<time>2022-05-14T09:50:27.000Z</time>
</trkpt>
<trkpt lat="44.3232400" lon="9.1781270">
	<ele>397.80</ele>
	<time>2022-05-14T09:50:30.000Z</time>
</trkpt>
<trkpt lat="44.3232470" lon="9.1781190">
	<ele>398.00</ele>
	<time>2022-05-14T09:50:31.000Z</time>
</trkpt>
<trkpt lat="44.3232440" lon="9.1781060">
	<ele>398.40</ele>
	<time>2022-05-14T09:50:33.000Z</time>
</trkpt>
<trkpt lat="44.3232590" lon="9.1781040">
	<ele>398.60</ele>
	<time>2022-05-14T09:50:35.000Z</time>
</trkpt>
<trkpt lat="44.3232670" lon="9.1781000">
	<ele>398.60</ele>
	<time>2022-05-14T09:50:36.000Z</time>
</trkpt>
<trkpt lat="44.3232730" lon="9.1780960">
	<ele>398.80</ele>
	<time>2022-05-14T09:50:37.000Z</time>
</trkpt>
<trkpt lat="44.3233040" lon="9.1780440">
	<ele>399.40</ele>
	<time>2022-05-14T09:50:43.000Z</time>
</trkpt>
<trkpt lat="44.3233000" lon="9.1780360">
	<ele>399.80</ele>
	<time>2022-05-14T09:50:46.000Z</time>
</trkpt>
<trkpt lat="44.3232890" lon="9.1780310">
	<ele>400.40</ele>
	<time>2022-05-14T09:50:51.000Z</time>
</trkpt>
<trkpt lat="44.3232930" lon="9.1780460">
	<ele>400.60</ele>
	<time>2022-05-14T09:50:54.000Z</time>
</trkpt>
<trkpt lat="44.3232810" lon="9.1780690">
	<ele>401.20</ele>
	<time>2022-05-14T09:50:58.000Z</time>
</trkpt>
<trkpt lat="44.3232750" lon="9.1780830">
	<ele>401.60</ele>
	<time>2022-05-14T09:51:01.000Z</time>
</trkpt>
<trkpt lat="44.3232670" lon="9.1781320">
	<ele>402.00</ele>
	<time>2022-05-14T09:51:05.000Z</time>
</trkpt>
<trkpt lat="44.3232500" lon="9.1781470">
	<ele>402.60</ele>
	<time>2022-05-14T09:51:11.000Z</time>
</trkpt>
<trkpt lat="44.3232420" lon="9.1781590">
	<ele>403.00</ele>
	<time>2022-05-14T09:51:15.000Z</time>
</trkpt>
<trkpt lat="44.3232650" lon="9.1782130">
	<ele>403.40</ele>
	<time>2022-05-14T09:51:21.000Z</time>
</trkpt>
<trkpt lat="44.3232750" lon="9.1782210">
	<ele>403.60</ele>
	<time>2022-05-14T09:51:22.000Z</time>
</trkpt>
<trkpt lat="44.3233020" lon="9.1782210">
	<ele>404.20</ele>
	<time>2022-05-14T09:51:26.000Z</time>
</trkpt>
<trkpt lat="44.3233210" lon="9.1782020">
	<ele>404.80</ele>
	<time>2022-05-14T09:51:30.000Z</time>
</trkpt>
<trkpt lat="44.3233310" lon="9.1781930">
	<ele>405.20</ele>
	<time>2022-05-14T09:51:33.000Z</time>
</trkpt>
<trkpt lat="44.3233760" lon="9.1781880">
	<ele>405.80</ele>
	<time>2022-05-14T09:51:40.000Z</time>
</trkpt>
<trkpt lat="44.3234170" lon="9.1781620">
	<ele>406.80</ele>
	<time>2022-05-14T09:51:48.000Z</time>
</trkpt>
<trkpt lat="44.3234210" lon="9.1781580">
	<ele>407.00</ele>
	<time>2022-05-14T09:51:49.000Z</time>
</trkpt>
<trkpt lat="44.3234520" lon="9.1781250">
	<ele>407.60</ele>
	<time>2022-05-14T09:51:54.000Z</time>
</trkpt>
<trkpt lat="44.3234630" lon="9.1781190">
	<ele>408.00</ele>
	<time>2022-05-14T09:51:57.000Z</time>
</trkpt>
<trkpt lat="44.3234760" lon="9.1780920">
	<ele>408.40</ele>
	<time>2022-05-14T09:52:01.000Z</time>
</trkpt>
<trkpt lat="44.3234810" lon="9.1780580">
	<ele>409.00</ele>
	<time>2022-05-14T09:52:07.000Z</time>
</trkpt>
<trkpt lat="44.3234790" lon="9.1780600">
	<ele>409.00</ele>
	<time>2022-05-14T09:52:08.000Z</time>
</trkpt>
<trkpt lat="44.3235050" lon="9.1780160">
	<ele>409.60</ele>
	<time>2022-05-14T09:52:15.000Z</time>
</trkpt>
<trkpt lat="44.3235220" lon="9.1780010">
	<ele>410.20</ele>
	<time>2022-05-14T09:52:20.000Z</time>
</trkpt>
<trkpt lat="44.3235240" lon="9.1779990">
	<ele>410.20</ele>
	<time>2022-05-14T09:52:21.000Z</time>
</trkpt>
<trkpt lat="44.3235680" lon="9.1779930">
	<ele>411.00</ele>
	<time>2022-05-14T09:52:27.000Z</time>
</trkpt>
<trkpt lat="44.3235740" lon="9.1779910">
	<ele>411.20</ele>
	<time>2022-05-14T09:52:28.000Z</time>
</trkpt>
<trkpt lat="44.3236050" lon="9.1779820">
	<ele>412.00</ele>
	<time>2022-05-14T09:52:35.000Z</time>
</trkpt>
<trkpt lat="44.3236070" lon="9.1779820">
	<ele>412.20</ele>
	<time>2022-05-14T09:52:36.000Z</time>
</trkpt>
<trkpt lat="44.3236140" lon="9.1779680">
	<ele>412.40</ele>
	<time>2022-05-14T09:52:40.000Z</time>
</trkpt>
<trkpt lat="44.3236130" lon="9.1779780">
	<ele>412.40</ele>
	<time>2022-05-14T09:52:47.000Z</time>
</trkpt>
<trkpt lat="44.3236130" lon="9.1779830">
	<ele>412.40</ele>
	<time>2022-05-14T09:53:16.000Z</time>
</trkpt>
<trkpt lat="44.3236130" lon="9.1779830">
	<ele>412.60</ele>
	<time>2022-05-14T09:53:17.000Z</time>
</trkpt>
<trkpt lat="44.3236130" lon="9.1779820">
	<ele>412.80</ele>
	<time>2022-05-14T09:53:24.000Z</time>
</trkpt>
<trkpt lat="44.3236130" lon="9.1779820">
	<ele>413.40</ele>
	<time>2022-05-14T09:53:29.000Z</time>
</trkpt>
<trkpt lat="44.3236270" lon="9.1779540">
	<ele>414.40</ele>
	<time>2022-05-14T09:53:35.000Z</time>
</trkpt>
<trkpt lat="44.3236750" lon="9.1778830">
	<ele>414.80</ele>
	<time>2022-05-14T09:53:39.000Z</time>
</trkpt>
<trkpt lat="44.3237340" lon="9.1778130">
	<ele>415.20</ele>
	<time>2022-05-14T09:53:43.000Z</time>
</trkpt>
<trkpt lat="44.3237470" lon="9.1777940">
	<ele>415.40</ele>
	<time>2022-05-14T09:53:44.000Z</time>
</trkpt>
<trkpt lat="44.3237580" lon="9.1777570">
	<ele>415.80</ele>
	<time>2022-05-14T09:53:47.000Z</time>
</trkpt>
<trkpt lat="44.3238100" lon="9.1777280">
	<ele>416.40</ele>
	<time>2022-05-14T09:53:53.000Z</time>
</trkpt>
<trkpt lat="44.3238220" lon="9.1777220">
	<ele>416.40</ele>
	<time>2022-05-14T09:53:54.000Z</time>
</trkpt>
<trkpt lat="44.3238620" lon="9.1776970">
	<ele>417.00</ele>
	<time>2022-05-14T09:53:59.000Z</time>
</trkpt>
<trkpt lat="44.3238780" lon="9.1776840">
	<ele>417.20</ele>
	<time>2022-05-14T09:54:02.000Z</time>
</trkpt>
<trkpt lat="44.3238870" lon="9.1776640">
	<ele>417.60</ele>
	<time>2022-05-14T09:54:04.000Z</time>
</trkpt>
<trkpt lat="44.3238880" lon="9.1776560">
	<ele>417.80</ele>
	<time>2022-05-14T09:54:05.000Z</time>
</trkpt>
<trkpt lat="44.3239290" lon="9.1776180">
	<ele>418.60</ele>
	<time>2022-05-14T09:54:11.000Z</time>
</trkpt>
<trkpt lat="44.3239470" lon="9.1776020">
	<ele>419.00</ele>
	<time>2022-05-14T09:54:14.000Z</time>
</trkpt>
<trkpt lat="44.3239560" lon="9.1775960">
	<ele>419.00</ele>
	<time>2022-05-14T09:54:15.000Z</time>
</trkpt>
<trkpt lat="44.3239770" lon="9.1775830">
	<ele>419.40</ele>
	<time>2022-05-14T09:54:17.000Z</time>
</trkpt>
<trkpt lat="44.3239970" lon="9.1775830">
	<ele>419.80</ele>
	<time>2022-05-14T09:54:19.000Z</time>
</trkpt>
<trkpt lat="44.3240120" lon="9.1775590">
	<ele>420.00</ele>
	<time>2022-05-14T09:54:22.000Z</time>
</trkpt>
<trkpt lat="44.3240540" lon="9.1775260">
	<ele>420.60</ele>
	<time>2022-05-14T09:54:28.000Z</time>
</trkpt>
<trkpt lat="44.3240700" lon="9.1775150">
	<ele>421.00</ele>
	<time>2022-05-14T09:54:30.000Z</time>
</trkpt>
<trkpt lat="44.3240850" lon="9.1774900">
	<ele>421.40</ele>
	<time>2022-05-14T09:54:33.000Z</time>
</trkpt>
<trkpt lat="44.3241030" lon="9.1774670">
	<ele>422.00</ele>
	<time>2022-05-14T09:54:38.000Z</time>
</trkpt>
<trkpt lat="44.3241080" lon="9.1774610">
	<ele>422.00</ele>
	<time>2022-05-14T09:54:39.000Z</time>
</trkpt>
<trkpt lat="44.3241170" lon="9.1774520">
	<ele>422.20</ele>
	<time>2022-05-14T09:54:40.000Z</time>
</trkpt>
<trkpt lat="44.3241370" lon="9.1774350">
	<ele>422.60</ele>
	<time>2022-05-14T09:54:43.000Z</time>
</trkpt>
<trkpt lat="44.3241350" lon="9.1774320">
	<ele>423.00</ele>
	<time>2022-05-14T09:54:45.000Z</time>
</trkpt>
<trkpt lat="44.3241420" lon="9.1774470">
	<ele>423.20</ele>
	<time>2022-05-14T09:54:47.000Z</time>
</trkpt>
<trkpt lat="44.3241460" lon="9.1774460">
	<ele>423.40</ele>
	<time>2022-05-14T09:54:48.000Z</time>
</trkpt>
<trkpt lat="44.3241540" lon="9.1774340">
	<ele>424.00</ele>
	<time>2022-05-14T09:54:51.000Z</time>
</trkpt>
<trkpt lat="44.3241550" lon="9.1774290">
	<ele>424.20</ele>
	<time>2022-05-14T09:54:52.000Z</time>
</trkpt>
<trkpt lat="44.3241710" lon="9.1774190">
	<ele>424.40</ele>
	<time>2022-05-14T09:54:55.000Z</time>
</trkpt>
<trkpt lat="44.3241790" lon="9.1774130">
	<ele>424.60</ele>
	<time>2022-05-14T09:54:56.000Z</time>
</trkpt>
<trkpt lat="44.3241870" lon="9.1773860">
	<ele>424.80</ele>
	<time>2022-05-14T09:54:59.000Z</time>
</trkpt>
<trkpt lat="44.3241890" lon="9.1773770">
	<ele>425.20</ele>
	<time>2022-05-14T09:55:01.000Z</time>
</trkpt>
<trkpt lat="44.3241920" lon="9.1773760">
	<ele>425.20</ele>
	<time>2022-05-14T09:55:02.000Z</time>
</trkpt>
<trkpt lat="44.3241990" lon="9.1773340">
	<ele>425.20</ele>
	<time>2022-05-14T09:55:06.000Z</time>
</trkpt>
<trkpt lat="44.3242020" lon="9.1773400">
	<ele>425.20</ele>
	<time>2022-05-14T09:55:08.000Z</time>
</trkpt>
<trkpt lat="44.3241780" lon="9.1772840">
	<ele>425.40</ele>
	<time>2022-05-14T09:55:15.000Z</time>
</trkpt>
<trkpt lat="44.3241880" lon="9.1772480">
	<ele>425.40</ele>
	<time>2022-05-14T09:55:23.000Z</time>
</trkpt>
<trkpt lat="44.3241900" lon="9.1772360">
	<ele>425.20</ele>
	<time>2022-05-14T09:55:29.000Z</time>
</trkpt>
<trkpt lat="44.3241910" lon="9.1772200">
	<ele>425.20</ele>
	<time>2022-05-14T09:55:35.000Z</time>
</trkpt>
<trkpt lat="44.3241910" lon="9.1772200">
	<ele>425.20</ele>
	<time>2022-05-14T09:55:43.000Z</time>
</trkpt>
<trkpt lat="44.3241930" lon="9.1772150">
	<ele>425.40</ele>
	<time>2022-05-14T09:55:48.000Z</time>
</trkpt>
<trkpt lat="44.3242120" lon="9.1772030">
	<ele>425.80</ele>
	<time>2022-05-14T09:55:53.000Z</time>
</trkpt>
<trkpt lat="44.3242130" lon="9.1772000">
	<ele>426.20</ele>
	<time>2022-05-14T09:55:56.000Z</time>
</trkpt>
<trkpt lat="44.3242150" lon="9.1771990">
	<ele>426.60</ele>
	<time>2022-05-14T09:56:00.000Z</time>
</trkpt>
<trkpt lat="44.3242280" lon="9.1771940">
	<ele>427.40</ele>
	<time>2022-05-14T09:56:05.000Z</time>
</trkpt>
<trkpt lat="44.3242320" lon="9.1771880">
	<ele>428.60</ele>
	<time>2022-05-14T09:56:12.000Z</time>
</trkpt>
<trkpt lat="44.3242520" lon="9.1772740">
	<ele>429.60</ele>
	<time>2022-05-14T09:56:23.000Z</time>
</trkpt>
<trkpt lat="44.3242510" lon="9.1772910">
	<ele>429.80</ele>
	<time>2022-05-14T09:56:24.000Z</time>
</trkpt>
<trkpt lat="44.3242580" lon="9.1774150">
	<ele>430.80</ele>
	<time>2022-05-14T09:56:31.000Z</time>
</trkpt>
<trkpt lat="44.3243260" lon="9.1774760">
	<ele>430.80</ele>
	<time>2022-05-14T09:56:34.000Z</time>
</trkpt>
<trkpt lat="44.3244070" lon="9.1775470">
	<ele>430.80</ele>
	<time>2022-05-14T09:56:41.000Z</time>
</trkpt>
<trkpt lat="44.3244440" lon="9.1776350">
	<ele>430.80</ele>
	<time>2022-05-14T09:56:44.000Z</time>
</trkpt>
<trkpt lat="44.3244140" lon="9.1777320">
	<ele>430.80</ele>
	<time>2022-05-14T09:56:50.000Z</time>
</trkpt>
<trkpt lat="44.3242670" lon="9.1776030">
	<ele>428.60</ele>
	<time>2022-05-14T09:57:08.000Z</time>
</trkpt>
<trkpt lat="44.3242690" lon="9.1775780">
	<ele>428.60</ele>
	<time>2022-05-14T09:57:09.000Z</time>
</trkpt>
<trkpt lat="44.3242680" lon="9.1775440">
	<ele>428.40</ele>
	<time>2022-05-14T09:57:10.000Z</time>
</trkpt>
<trkpt lat="44.3242630" lon="9.1775080">
	<ele>428.40</ele>
	<time>2022-05-14T09:57:11.000Z</time>
</trkpt>
<trkpt lat="44.3242650" lon="9.1774440">
	<ele>428.40</ele>
	<time>2022-05-14T09:57:13.000Z</time>
</trkpt>
<trkpt lat="44.3242660" lon="9.1774120">
	<ele>428.40</ele>
	<time>2022-05-14T09:57:15.000Z</time>
</trkpt>
<trkpt lat="44.3242700" lon="9.1773960">
	<ele>428.40</ele>
	<time>2022-05-14T09:57:16.000Z</time>
</trkpt>
<trkpt lat="44.3242990" lon="9.1772840">
	<ele>428.00</ele>
	<time>2022-05-14T09:57:23.000Z</time>
</trkpt>
<trkpt lat="44.3242400" lon="9.1771040">
	<ele>427.80</ele>
	<time>2022-05-14T09:57:28.000Z</time>
</trkpt>
<trkpt lat="44.3242230" lon="9.1770870">
	<ele>427.80</ele>
	<time>2022-05-14T09:57:30.000Z</time>
</trkpt>
<trkpt lat="44.3242210" lon="9.1770760">
	<ele>427.80</ele>
	<time>2022-05-14T09:57:31.000Z</time>
</trkpt>
<trkpt lat="44.3242630" lon="9.1770360">
	<ele>427.80</ele>
	<time>2022-05-14T09:57:40.000Z</time>
</trkpt>
<trkpt lat="44.3242880" lon="9.1770180">
	<ele>428.00</ele>
	<time>2022-05-14T09:57:46.000Z</time>
</trkpt>
<trkpt lat="44.3242890" lon="9.1770000">
	<ele>428.40</ele>
	<time>2022-05-14T09:57:50.000Z</time>
</trkpt>
<trkpt lat="44.3242920" lon="9.1770180">
	<ele>428.40</ele>
	<time>2022-05-14T09:57:51.000Z</time>
</trkpt>
<trkpt lat="44.3242740" lon="9.1770970">
	<ele>428.20</ele>
	<time>2022-05-14T09:57:57.000Z</time>
</trkpt>
<trkpt lat="44.3242880" lon="9.1772000">
	<ele>427.80</ele>
	<time>2022-05-14T09:58:03.000Z</time>
</trkpt>
<trkpt lat="44.3242910" lon="9.1772870">
	<ele>428.40</ele>
	<time>2022-05-14T09:58:10.000Z</time>
</trkpt>
<trkpt lat="44.3242580" lon="9.1773550">
	<ele>428.80</ele>
	<time>2022-05-14T09:58:15.000Z</time>
</trkpt>
<trkpt lat="44.3242470" lon="9.1774090">
	<ele>429.20</ele>
	<time>2022-05-14T09:58:20.000Z</time>
</trkpt>
<trkpt lat="44.3242450" lon="9.1774660">
	<ele>429.60</ele>
	<time>2022-05-14T09:58:25.000Z</time>
</trkpt>
<trkpt lat="44.3242460" lon="9.1775110">
	<ele>429.80</ele>
	<time>2022-05-14T09:58:28.000Z</time>
</trkpt>
<trkpt lat="44.3242480" lon="9.1775330">
	<ele>430.00</ele>
	<time>2022-05-14T09:58:31.000Z</time>
</trkpt>
<trkpt lat="44.3242500" lon="9.1775190">
	<ele>430.00</ele>
	<time>2022-05-14T09:58:33.000Z</time>
</trkpt>
<trkpt lat="44.3242840" lon="9.1775200">
	<ele>430.20</ele>
	<time>2022-05-14T09:58:38.000Z</time>
</trkpt>
<trkpt lat="44.3243420" lon="9.1774840">
	<ele>430.40</ele>
	<time>2022-05-14T09:58:46.000Z</time>
</trkpt>
<trkpt lat="44.3243840" lon="9.1774920">
	<ele>430.40</ele>
	<time>2022-05-14T09:58:51.000Z</time>
</trkpt>
<trkpt lat="44.3244390" lon="9.1774550">
	<ele>430.60</ele>
	<time>2022-05-14T09:58:57.000Z</time>
</trkpt>
<trkpt lat="44.3244750" lon="9.1774510">
	<ele>430.60</ele>
	<time>2022-05-14T09:59:00.000Z</time>
</trkpt>
<trkpt lat="44.3245550" lon="9.1774430">
	<ele>430.40</ele>
	<time>2022-05-14T09:59:08.000Z</time>
</trkpt>
<trkpt lat="44.3246110" lon="9.1774160">
	<ele>429.60</ele>
	<time>2022-05-14T09:59:14.000Z</time>
</trkpt>
<trkpt lat="44.3246350" lon="9.1774090">
	<ele>429.40</ele>
	<time>2022-05-14T09:59:16.000Z</time>
</trkpt>
<trkpt lat="44.3247050" lon="9.1773600">
	<ele>429.20</ele>
	<time>2022-05-14T09:59:23.000Z</time>
</trkpt>
<trkpt lat="44.3247800" lon="9.1772940">
	<ele>429.00</ele>
	<time>2022-05-14T09:59:30.000Z</time>
</trkpt>
<trkpt lat="44.3247910" lon="9.1772890">
	<ele>428.80</ele>
	<time>2022-05-14T09:59:31.000Z</time>
</trkpt>
<trkpt lat="44.3248220" lon="9.1772340">
	<ele>428.80</ele>
	<time>2022-05-14T09:59:36.000Z</time>
</trkpt>
<trkpt lat="44.3248310" lon="9.1772250">
	<ele>428.80</ele>
	<time>2022-05-14T09:59:37.000Z</time>
</trkpt>
<trkpt lat="44.3248530" lon="9.1772150">
	<ele>428.60</ele>
	<time>2022-05-14T09:59:39.000Z</time>
</trkpt>
<trkpt lat="44.3248600" lon="9.1772030">
	<ele>428.60</ele>
	<time>2022-05-14T09:59:40.000Z</time>
</trkpt>
<trkpt lat="44.3248820" lon="9.1771710">
	<ele>428.60</ele>
	<time>2022-05-14T09:59:43.000Z</time>
</trkpt>
<trkpt lat="44.3249820" lon="9.1770720">
	<ele>428.80</ele>
	<time>2022-05-14T09:59:52.000Z</time>
</trkpt>
<trkpt lat="44.3250090" lon="9.1770320">
	<ele>428.80</ele>
	<time>2022-05-14T09:59:55.000Z</time>
</trkpt>
<trkpt lat="44.3250140" lon="9.1770180">
	<ele>428.80</ele>
	<time>2022-05-14T09:59:57.000Z</time>
</trkpt>
<trkpt lat="44.3250360" lon="9.1769980">
	<ele>428.80</ele>
	<time>2022-05-14T09:59:59.000Z</time>
</trkpt>
<trkpt lat="44.3250630" lon="9.1769710">
	<ele>428.80</ele>
	<time>2022-05-14T10:00:02.000Z</time>
</trkpt>
<trkpt lat="44.3251600" lon="9.1768700">
	<ele>428.80</ele>
	<time>2022-05-14T10:00:10.000Z</time>
</trkpt>
<trkpt lat="44.3252010" lon="9.1768540">
	<ele>428.80</ele>
	<time>2022-05-14T10:00:12.000Z</time>
</trkpt>
<trkpt lat="44.3252770" lon="9.1768340">
	<ele>429.00</ele>
	<time>2022-05-14T10:00:16.000Z</time>
</trkpt>
<trkpt lat="44.3252900" lon="9.1768060">
	<ele>428.80</ele>
	<time>2022-05-14T10:00:18.000Z</time>
</trkpt>
<trkpt lat="44.3253610" lon="9.1767110">
	<ele>428.80</ele>
	<time>2022-05-14T10:00:26.000Z</time>
</trkpt>
<trkpt lat="44.3253680" lon="9.1766970">
	<ele>428.80</ele>
	<time>2022-05-14T10:00:27.000Z</time>
</trkpt>
<trkpt lat="44.3253970" lon="9.1766560">
	<ele>428.80</ele>
	<time>2022-05-14T10:00:30.000Z</time>
</trkpt>
<trkpt lat="44.3254070" lon="9.1766460">
	<ele>428.80</ele>
	<time>2022-05-14T10:00:31.000Z</time>
</trkpt>
<trkpt lat="44.3254260" lon="9.1766290">
	<ele>428.60</ele>
	<time>2022-05-14T10:00:34.000Z</time>
</trkpt>
<trkpt lat="44.3254600" lon="9.1765580">
	<ele>428.60</ele>
	<time>2022-05-14T10:00:40.000Z</time>
</trkpt>
<trkpt lat="44.3254810" lon="9.1765590">
	<ele>428.60</ele>
	<time>2022-05-14T10:00:42.000Z</time>
</trkpt>
<trkpt lat="44.3255720" lon="9.1764840">
	<ele>428.60</ele>
	<time>2022-05-14T10:00:51.000Z</time>
</trkpt>
<trkpt lat="44.3256250" lon="9.1763870">
	<ele>428.20</ele>
	<time>2022-05-14T10:01:00.000Z</time>
</trkpt>
<trkpt lat="44.3256360" lon="9.1763730">
	<ele>428.00</ele>
	<time>2022-05-14T10:01:01.000Z</time>
</trkpt>
<trkpt lat="44.3256510" lon="9.1763630">
	<ele>428.00</ele>
	<time>2022-05-14T10:01:02.000Z</time>
</trkpt>
<trkpt lat="44.3257140" lon="9.1762890">
	<ele>427.80</ele>
	<time>2022-05-14T10:01:07.000Z</time>
</trkpt>
<trkpt lat="44.3257700" lon="9.1762380">
	<ele>427.60</ele>
	<time>2022-05-14T10:01:14.000Z</time>
</trkpt>
<trkpt lat="44.3257800" lon="9.1762330">
	<ele>427.60</ele>
	<time>2022-05-14T10:01:15.000Z</time>
</trkpt>
<trkpt lat="44.3257860" lon="9.1762230">
	<ele>427.40</ele>
	<time>2022-05-14T10:01:16.000Z</time>
</trkpt>
<trkpt lat="44.3257890" lon="9.1762120">
	<ele>427.40</ele>
	<time>2022-05-14T10:01:17.000Z</time>
</trkpt>
<trkpt lat="44.3258200" lon="9.1761430">
	<ele>427.40</ele>
	<time>2022-05-14T10:01:22.000Z</time>
</trkpt>
<trkpt lat="44.3258940" lon="9.1761130">
	<ele>427.40</ele>
	<time>2022-05-14T10:01:28.000Z</time>
</trkpt>
<trkpt lat="44.3259330" lon="9.1760830">
	<ele>427.40</ele>
	<time>2022-05-14T10:01:32.000Z</time>
</trkpt>
<trkpt lat="44.3259580" lon="9.1760560">
	<ele>427.60</ele>
	<time>2022-05-14T10:01:36.000Z</time>
</trkpt>
<trkpt lat="44.3259750" lon="9.1760270">
	<ele>427.60</ele>
	<time>2022-05-14T10:01:39.000Z</time>
</trkpt>
<trkpt lat="44.3259880" lon="9.1760130">
	<ele>427.60</ele>
	<time>2022-05-14T10:01:41.000Z</time>
</trkpt>
<trkpt lat="44.3259950" lon="9.1760010">
	<ele>427.60</ele>
	<time>2022-05-14T10:01:42.000Z</time>
</trkpt>
<trkpt lat="44.3260430" lon="9.1759460">
	<ele>427.60</ele>
	<time>2022-05-14T10:01:47.000Z</time>
</trkpt>
<trkpt lat="44.3260520" lon="9.1759410">
	<ele>427.60</ele>
	<time>2022-05-14T10:01:48.000Z</time>
</trkpt>
<trkpt lat="44.3261190" lon="9.1758780">
	<ele>427.60</ele>
	<time>2022-05-14T10:01:54.000Z</time>
</trkpt>
<trkpt lat="44.3261450" lon="9.1758430">
	<ele>427.80</ele>
	<time>2022-05-14T10:01:57.000Z</time>
</trkpt>
<trkpt lat="44.3261630" lon="9.1758030">
	<ele>427.80</ele>
	<time>2022-05-14T10:02:00.000Z</time>
</trkpt>
<trkpt lat="44.3261880" lon="9.1757760">
	<ele>427.60</ele>
	<time>2022-05-14T10:02:03.000Z</time>
</trkpt>
<trkpt lat="44.3262360" lon="9.1757470">
	<ele>427.60</ele>
	<time>2022-05-14T10:02:07.000Z</time>
</trkpt>
<trkpt lat="44.3262620" lon="9.1757330">
	<ele>427.60</ele>
	<time>2022-05-14T10:02:09.000Z</time>
</trkpt>
<trkpt lat="44.3262990" lon="9.1757050">
	<ele>427.60</ele>
	<time>2022-05-14T10:02:12.000Z</time>
</trkpt>
<trkpt lat="44.3263480" lon="9.1757040">
	<ele>427.80</ele>
	<time>2022-05-14T10:02:16.000Z</time>
</trkpt>
<trkpt lat="44.3263630" lon="9.1756990">
	<ele>427.80</ele>
	<time>2022-05-14T10:02:17.000Z</time>
</trkpt>
<trkpt lat="44.3264410" lon="9.1756420">
	<ele>427.80</ele>
	<time>2022-05-14T10:02:23.000Z</time>
</trkpt>
<trkpt lat="44.3264870" lon="9.1755570">
	<ele>427.60</ele>
	<time>2022-05-14T10:02:29.000Z</time>
</trkpt>
<trkpt lat="44.3264960" lon="9.1755450">
	<ele>427.60</ele>
	<time>2022-05-14T10:02:30.000Z</time>
</trkpt>
<trkpt lat="44.3265060" lon="9.1755350">
	<ele>427.40</ele>
	<time>2022-05-14T10:02:31.000Z</time>
</trkpt>
<trkpt lat="44.3265980" lon="9.1753930">
	<ele>427.20</ele>
	<time>2022-05-14T10:02:41.000Z</time>
</trkpt>
<trkpt lat="44.3266120" lon="9.1753710">
	<ele>427.20</ele>
	<time>2022-05-14T10:02:43.000Z</time>
</trkpt>
<trkpt lat="44.3266320" lon="9.1753180">
	<ele>427.40</ele>
	<time>2022-05-14T10:02:46.000Z</time>
</trkpt>
<trkpt lat="44.3266810" lon="9.1752160">
	<ele>427.20</ele>
	<time>2022-05-14T10:02:52.000Z</time>
</trkpt>
<trkpt lat="44.3266890" lon="9.1751990">
	<ele>427.20</ele>
	<time>2022-05-14T10:02:54.000Z</time>
</trkpt>
<trkpt lat="44.3267060" lon="9.1751410">
	<ele>427.20</ele>
	<time>2022-05-14T10:02:58.000Z</time>
</trkpt>
<trkpt lat="44.3267120" lon="9.1751300">
	<ele>427.40</ele>
	<time>2022-05-14T10:02:59.000Z</time>
</trkpt>
<trkpt lat="44.3267670" lon="9.1750730">
	<ele>427.20</ele>
	<time>2022-05-14T10:03:05.000Z</time>
</trkpt>
<trkpt lat="44.3267750" lon="9.1749710">
	<ele>427.60</ele>
	<time>2022-05-14T10:03:12.000Z</time>
</trkpt>
<trkpt lat="44.3267810" lon="9.1749190">
	<ele>427.00</ele>
	<time>2022-05-14T10:03:16.000Z</time>
</trkpt>
<trkpt lat="44.3267870" lon="9.1748790">
	<ele>427.00</ele>
	<time>2022-05-14T10:03:19.000Z</time>
</trkpt>
<trkpt lat="44.3268240" lon="9.1747780">
	<ele>427.00</ele>
	<time>2022-05-14T10:03:26.000Z</time>
</trkpt>
<trkpt lat="44.3268210" lon="9.1746990">
	<ele>426.80</ele>
	<time>2022-05-14T10:03:30.000Z</time>
</trkpt>
<trkpt lat="44.3268010" lon="9.1746620">
	<ele>426.40</ele>
	<time>2022-05-14T10:03:32.000Z</time>
</trkpt>
<trkpt lat="44.3267960" lon="9.1746450">
	<ele>426.40</ele>
	<time>2022-05-14T10:03:33.000Z</time>
</trkpt>
<trkpt lat="44.3267940" lon="9.1746300">
	<ele>426.20</ele>
	<time>2022-05-14T10:03:34.000Z</time>
</trkpt>
<trkpt lat="44.3268010" lon="9.1746170">
	<ele>426.00</ele>
	<time>2022-05-14T10:03:36.000Z</time>
</trkpt>
<trkpt lat="44.3268100" lon="9.1746160">
	<ele>426.00</ele>
	<time>2022-05-14T10:03:37.000Z</time>
</trkpt>
<trkpt lat="44.3268240" lon="9.1746220">
	<ele>426.20</ele>
	<time>2022-05-14T10:03:40.000Z</time>
</trkpt>
<trkpt lat="44.3268280" lon="9.1746170">
	<ele>426.20</ele>
	<time>2022-05-14T10:03:43.000Z</time>
</trkpt>
<trkpt lat="44.3268230" lon="9.1745950">
	<ele>426.20</ele>
	<time>2022-05-14T10:03:47.000Z</time>
</trkpt>
<trkpt lat="44.3268330" lon="9.1745780">
	<ele>426.00</ele>
	<time>2022-05-14T10:03:51.000Z</time>
</trkpt>
<trkpt lat="44.3268540" lon="9.1745400">
	<ele>426.00</ele>
	<time>2022-05-14T10:04:07.000Z</time>
</trkpt>
<trkpt lat="44.3268680" lon="9.1745110">
	<ele>425.80</ele>
	<time>2022-05-14T10:04:09.000Z</time>
</trkpt>
<trkpt lat="44.3268800" lon="9.1744800">
	<ele>425.40</ele>
	<time>2022-05-14T10:04:12.000Z</time>
</trkpt>
<trkpt lat="44.3268900" lon="9.1744600">
	<ele>425.40</ele>
	<time>2022-05-14T10:04:13.000Z</time>
</trkpt>
<trkpt lat="44.3269140" lon="9.1744420">
	<ele>425.40</ele>
	<time>2022-05-14T10:04:15.000Z</time>
</trkpt>
<trkpt lat="44.3269430" lon="9.1744320">
	<ele>425.00</ele>
	<time>2022-05-14T10:04:18.000Z</time>
</trkpt>
<trkpt lat="44.3269480" lon="9.1744160">
	<ele>424.80</ele>
	<time>2022-05-14T10:04:21.000Z</time>
</trkpt>
<trkpt lat="44.3269920" lon="9.1744090">
	<ele>424.80</ele>
	<time>2022-05-14T10:04:25.000Z</time>
</trkpt>
<trkpt lat="44.3270170" lon="9.1743700">
	<ele>424.80</ele>
	<time>2022-05-14T10:04:28.000Z</time>
</trkpt>
<trkpt lat="44.3270780" lon="9.1743000">
	<ele>424.60</ele>
	<time>2022-05-14T10:04:35.000Z</time>
</trkpt>
<trkpt lat="44.3270810" lon="9.1742750">
	<ele>424.60</ele>
	<time>2022-05-14T10:04:36.000Z</time>
</trkpt>
<trkpt lat="44.3270840" lon="9.1742610">
	<ele>424.60</ele>
	<time>2022-05-14T10:04:37.000Z</time>
</trkpt>
<trkpt lat="44.3270990" lon="9.1742080">
	<ele>424.80</ele>
	<time>2022-05-14T10:04:40.000Z</time>
</trkpt>
<trkpt lat="44.3271130" lon="9.1741790">
	<ele>424.80</ele>
	<time>2022-05-14T10:04:42.000Z</time>
</trkpt>
<trkpt lat="44.3271820" lon="9.1741400">
	<ele>424.80</ele>
	<time>2022-05-14T10:04:48.000Z</time>
</trkpt>
<trkpt lat="44.3272600" lon="9.1741030">
	<ele>424.60</ele>
	<time>2022-05-14T10:04:54.000Z</time>
</trkpt>
<trkpt lat="44.3272900" lon="9.1740860">
	<ele>424.40</ele>
	<time>2022-05-14T10:04:58.000Z</time>
</trkpt>
<trkpt lat="44.3273010" lon="9.1740830">
	<ele>424.40</ele>
	<time>2022-05-14T10:05:00.000Z</time>
</trkpt>
<trkpt lat="44.3273100" lon="9.1740660">
	<ele>424.20</ele>
	<time>2022-05-14T10:05:02.000Z</time>
</trkpt>
<trkpt lat="44.3273400" lon="9.1740160">
	<ele>424.00</ele>
	<time>2022-05-14T10:05:06.000Z</time>
</trkpt>
<trkpt lat="44.3274250" lon="9.1739130">
	<ele>423.60</ele>
	<time>2022-05-14T10:05:15.000Z</time>
</trkpt>
<trkpt lat="44.3274420" lon="9.1738980">
	<ele>423.40</ele>
	<time>2022-05-14T10:05:17.000Z</time>
</trkpt>
<trkpt lat="44.3274600" lon="9.1738750">
	<ele>423.20</ele>
	<time>2022-05-14T10:05:19.000Z</time>
</trkpt>
<trkpt lat="44.3274740" lon="9.1738570">
	<ele>423.00</ele>
	<time>2022-05-14T10:05:21.000Z</time>
</trkpt>
<trkpt lat="44.3274910" lon="9.1738520">
	<ele>422.80</ele>
	<time>2022-05-14T10:05:23.000Z</time>
</trkpt>
<trkpt lat="44.3275290" lon="9.1738040">
	<ele>422.20</ele>
	<time>2022-05-14T10:05:27.000Z</time>
</trkpt>
<trkpt lat="44.3275360" lon="9.1737570">
	<ele>421.80</ele>
	<time>2022-05-14T10:05:31.000Z</time>
</trkpt>
<trkpt lat="44.3275460" lon="9.1736970">
	<ele>421.40</ele>
	<time>2022-05-14T10:05:36.000Z</time>
</trkpt>
<trkpt lat="44.3275520" lon="9.1736900">
	<ele>421.40</ele>
	<time>2022-05-14T10:05:37.000Z</time>
</trkpt>
<trkpt lat="44.3275710" lon="9.1736730">
	<ele>421.20</ele>
	<time>2022-05-14T10:05:40.000Z</time>
</trkpt>
<trkpt lat="44.3275810" lon="9.1736510">
	<ele>421.00</ele>
	<time>2022-05-14T10:05:42.000Z</time>
</trkpt>
<trkpt lat="44.3276260" lon="9.1735210">
	<ele>420.40</ele>
	<time>2022-05-14T10:05:50.000Z</time>
</trkpt>
<trkpt lat="44.3276420" lon="9.1734870">
	<ele>420.20</ele>
	<time>2022-05-14T10:05:53.000Z</time>
</trkpt>
<trkpt lat="44.3276560" lon="9.1734340">
	<ele>419.80</ele>
	<time>2022-05-14T10:05:57.000Z</time>
</trkpt>
<trkpt lat="44.3276970" lon="9.1733700">
	<ele>419.40</ele>
	<time>2022-05-14T10:06:02.000Z</time>
</trkpt>
<trkpt lat="44.3277220" lon="9.1733290">
	<ele>419.00</ele>
	<time>2022-05-14T10:06:05.000Z</time>
</trkpt>
<trkpt lat="44.3277390" lon="9.1732260">
	<ele>418.20</ele>
	<time>2022-05-14T10:06:13.000Z</time>
</trkpt>
<trkpt lat="44.3277570" lon="9.1732000">
	<ele>418.00</ele>
	<time>2022-05-14T10:06:15.000Z</time>
</trkpt>
<trkpt lat="44.3278140" lon="9.1731540">
	<ele>417.80</ele>
	<time>2022-05-14T10:06:20.000Z</time>
</trkpt>
<trkpt lat="44.3278350" lon="9.1730910">
	<ele>417.40</ele>
	<time>2022-05-14T10:06:24.000Z</time>
</trkpt>
<trkpt lat="44.3278320" lon="9.1730280">
	<ele>417.00</ele>
	<time>2022-05-14T10:06:27.000Z</time>
</trkpt>
<trkpt lat="44.3278700" lon="9.1729800">
	<ele>416.60</ele>
	<time>2022-05-14T10:06:33.000Z</time>
</trkpt>
<trkpt lat="44.3278670" lon="9.1728960">
	<ele>416.00</ele>
	<time>2022-05-14T10:06:39.000Z</time>
</trkpt>
<trkpt lat="44.3278630" lon="9.1728280">
	<ele>415.60</ele>
	<time>2022-05-14T10:06:42.000Z</time>
</trkpt>
<trkpt lat="44.3278820" lon="9.1727430">
	<ele>415.20</ele>
	<time>2022-05-14T10:06:47.000Z</time>
</trkpt>
<trkpt lat="44.3278830" lon="9.1726770">
	<ele>415.00</ele>
	<time>2022-05-14T10:06:50.000Z</time>
</trkpt>
<trkpt lat="44.3278820" lon="9.1726480">
	<ele>415.00</ele>
	<time>2022-05-14T10:06:51.000Z</time>
</trkpt>
<trkpt lat="44.3278750" lon="9.1726110">
	<ele>414.80</ele>
	<time>2022-05-14T10:06:53.000Z</time>
</trkpt>
<trkpt lat="44.3278670" lon="9.1725790">
	<ele>414.80</ele>
	<time>2022-05-14T10:06:56.000Z</time>
</trkpt>
<trkpt lat="44.3278610" lon="9.1725370">
	<ele>414.60</ele>
	<time>2022-05-14T10:06:59.000Z</time>
</trkpt>
<trkpt lat="44.3278670" lon="9.1725100">
	<ele>414.40</ele>
	<time>2022-05-14T10:07:02.000Z</time>
</trkpt>
<trkpt lat="44.3278970" lon="9.1725230">
	<ele>414.20</ele>
	<time>2022-05-14T10:07:05.000Z</time>
</trkpt>
<trkpt lat="44.3279360" lon="9.1725140">
	<ele>414.20</ele>
	<time>2022-05-14T10:07:11.000Z</time>
</trkpt>
<trkpt lat="44.3279560" lon="9.1724850">
	<ele>413.80</ele>
	<time>2022-05-14T10:07:13.000Z</time>
</trkpt>
<trkpt lat="44.3279850" lon="9.1724340">
	<ele>413.00</ele>
	<time>2022-05-14T10:07:17.000Z</time>
</trkpt>
<trkpt lat="44.3279940" lon="9.1724290">
	<ele>412.80</ele>
	<time>2022-05-14T10:07:18.000Z</time>
</trkpt>
<trkpt lat="44.3280030" lon="9.1724300">
	<ele>412.60</ele>
	<time>2022-05-14T10:07:19.000Z</time>
</trkpt>
<trkpt lat="44.3280370" lon="9.1724180">
	<ele>412.60</ele>
	<time>2022-05-14T10:07:22.000Z</time>
</trkpt>
<trkpt lat="44.3280540" lon="9.1724280">
	<ele>412.20</ele>
	<time>2022-05-14T10:07:23.000Z</time>
</trkpt>
<trkpt lat="44.3280860" lon="9.1724240">
	<ele>412.00</ele>
	<time>2022-05-14T10:07:25.000Z</time>
</trkpt>
<trkpt lat="44.3281150" lon="9.1723970">
	<ele>411.80</ele>
	<time>2022-05-14T10:07:29.000Z</time>
</trkpt>
<trkpt lat="44.3281260" lon="9.1723900">
	<ele>411.80</ele>
	<time>2022-05-14T10:07:30.000Z</time>
</trkpt>
<trkpt lat="44.3281380" lon="9.1723780">
	<ele>411.60</ele>
	<time>2022-05-14T10:07:31.000Z</time>
</trkpt>
<trkpt lat="44.3282170" lon="9.1722900">
	<ele>411.20</ele>
	<time>2022-05-14T10:07:37.000Z</time>
</trkpt>
<trkpt lat="44.3282520" lon="9.1722360">
	<ele>410.60</ele>
	<time>2022-05-14T10:07:41.000Z</time>
</trkpt>
<trkpt lat="44.3282610" lon="9.1722230">
	<ele>410.60</ele>
	<time>2022-05-14T10:07:42.000Z</time>
</trkpt>
<trkpt lat="44.3282640" lon="9.1722060">
	<ele>410.40</ele>
	<time>2022-05-14T10:07:43.000Z</time>
</trkpt>
<trkpt lat="44.3282630" lon="9.1721730">
	<ele>410.20</ele>
	<time>2022-05-14T10:07:45.000Z</time>
</trkpt>
<trkpt lat="44.3282790" lon="9.1720500">
	<ele>409.80</ele>
	<time>2022-05-14T10:07:52.000Z</time>
</trkpt>
<trkpt lat="44.3282870" lon="9.1720320">
	<ele>410.00</ele>
	<time>2022-05-14T10:07:54.000Z</time>
</trkpt>
<trkpt lat="44.3283110" lon="9.1720050">
	<ele>410.00</ele>
	<time>2022-05-14T10:07:57.000Z</time>
</trkpt>
<trkpt lat="44.3283120" lon="9.1719910">
	<ele>410.00</ele>
	<time>2022-05-14T10:07:59.000Z</time>
</trkpt>
<trkpt lat="44.3283050" lon="9.1719790">
	<ele>410.00</ele>
	<time>2022-05-14T10:08:01.000Z</time>
</trkpt>
<trkpt lat="44.3283040" lon="9.1719730">
	<ele>410.20</ele>
	<time>2022-05-14T10:08:03.000Z</time>
</trkpt>
<trkpt lat="44.3283090" lon="9.1719710">
	<ele>410.20</ele>
	<time>2022-05-14T10:08:04.000Z</time>
</trkpt>
<trkpt lat="44.3283130" lon="9.1719650">
	<ele>410.00</ele>
	<time>2022-05-14T10:08:09.000Z</time>
</trkpt>
<trkpt lat="44.3283210" lon="9.1719660">
	<ele>410.00</ele>
	<time>2022-05-14T10:08:10.000Z</time>
</trkpt>
<trkpt lat="44.3283280" lon="9.1719670">
	<ele>409.80</ele>
	<time>2022-05-14T10:08:11.000Z</time>
</trkpt>
<trkpt lat="44.3283460" lon="9.1719870">
	<ele>409.60</ele>
	<time>2022-05-14T10:08:14.000Z</time>
</trkpt>
<trkpt lat="44.3283570" lon="9.1719930">
	<ele>409.20</ele>
	<time>2022-05-14T10:08:16.000Z</time>
</trkpt>
<trkpt lat="44.3284070" lon="9.1719690">
	<ele>408.60</ele>
	<time>2022-05-14T10:08:21.000Z</time>
</trkpt>
<trkpt lat="44.3284170" lon="9.1719660">
	<ele>408.20</ele>
	<time>2022-05-14T10:08:23.000Z</time>
</trkpt>
<trkpt lat="44.3284300" lon="9.1719600">
	<ele>408.20</ele>
	<time>2022-05-14T10:08:25.000Z</time>
</trkpt>
<trkpt lat="44.3284500" lon="9.1719560">
	<ele>407.80</ele>
	<time>2022-05-14T10:08:27.000Z</time>
</trkpt>
<trkpt lat="44.3284590" lon="9.1719610">
	<ele>407.80</ele>
	<time>2022-05-14T10:08:28.000Z</time>
</trkpt>
<trkpt lat="44.3284960" lon="9.1719650">
	<ele>407.40</ele>
	<time>2022-05-14T10:08:31.000Z</time>
</trkpt>
<trkpt lat="44.3285280" lon="9.1719770">
	<ele>407.20</ele>
	<time>2022-05-14T10:08:37.000Z</time>
</trkpt>
<trkpt lat="44.3285440" lon="9.1719820">
	<ele>407.00</ele>
	<time>2022-05-14T10:08:38.000Z</time>
</trkpt>
<trkpt lat="44.3285680" lon="9.1719740">
	<ele>407.00</ele>
	<time>2022-05-14T10:08:40.000Z</time>
</trkpt>
<trkpt lat="44.3286180" lon="9.1719690">
	<ele>406.40</ele>
	<time>2022-05-14T10:08:44.000Z</time>
</trkpt>
<trkpt lat="44.3287390" lon="9.1718790">
	<ele>406.00</ele>
	<time>2022-05-14T10:08:52.000Z</time>
</trkpt>
<trkpt lat="44.3288000" lon="9.1718500">
	<ele>405.60</ele>
	<time>2022-05-14T10:08:59.000Z</time>
</trkpt>
<trkpt lat="44.3288150" lon="9.1718440">
	<ele>405.40</ele>
	<time>2022-05-14T10:09:01.000Z</time>
</trkpt>
<trkpt lat="44.3288480" lon="9.1718290">
	<ele>404.80</ele>
	<time>2022-05-14T10:09:05.000Z</time>
</trkpt>
<trkpt lat="44.3288860" lon="9.1718300">
	<ele>404.40</ele>
	<time>2022-05-14T10:09:08.000Z</time>
</trkpt>
<trkpt lat="44.3289050" lon="9.1718140">
	<ele>404.00</ele>
	<time>2022-05-14T10:09:10.000Z</time>
</trkpt>
<trkpt lat="44.3289240" lon="9.1718030">
	<ele>403.80</ele>
	<time>2022-05-14T10:09:12.000Z</time>
</trkpt>
<trkpt lat="44.3289590" lon="9.1717330">
	<ele>403.40</ele>
	<time>2022-05-14T10:09:15.000Z</time>
</trkpt>
<trkpt lat="44.3290070" lon="9.1717310">
	<ele>402.80</ele>
	<time>2022-05-14T10:09:19.000Z</time>
</trkpt>
<trkpt lat="44.3290480" lon="9.1717070">
	<ele>402.40</ele>
	<time>2022-05-14T10:09:23.000Z</time>
</trkpt>
<trkpt lat="44.3290770" lon="9.1716880">
	<ele>401.80</ele>
	<time>2022-05-14T10:09:26.000Z</time>
</trkpt>
<trkpt lat="44.3291080" lon="9.1716700">
	<ele>401.20</ele>
	<time>2022-05-14T10:09:30.000Z</time>
</trkpt>
<trkpt lat="44.3291310" lon="9.1716640">
	<ele>401.00</ele>
	<time>2022-05-14T10:09:33.000Z</time>
</trkpt>
<trkpt lat="44.3291430" lon="9.1716600">
	<ele>400.60</ele>
	<time>2022-05-14T10:09:35.000Z</time>
</trkpt>
<trkpt lat="44.3291660" lon="9.1716560">
	<ele>400.40</ele>
	<time>2022-05-14T10:09:38.000Z</time>
</trkpt>
<trkpt lat="44.3291770" lon="9.1716510">
	<ele>400.20</ele>
	<time>2022-05-14T10:09:39.000Z</time>
</trkpt>
<trkpt lat="44.3292040" lon="9.1716510">
	<ele>400.00</ele>
	<time>2022-05-14T10:09:41.000Z</time>
</trkpt>
<trkpt lat="44.3292290" lon="9.1716470">
	<ele>399.80</ele>
	<time>2022-05-14T10:09:43.000Z</time>
</trkpt>
<trkpt lat="44.3292710" lon="9.1716170">
	<ele>399.20</ele>
	<time>2022-05-14T10:09:47.000Z</time>
</trkpt>
<trkpt lat="44.3292860" lon="9.1716090">
	<ele>399.00</ele>
	<time>2022-05-14T10:09:48.000Z</time>
</trkpt>
<trkpt lat="44.3292980" lon="9.1716010">
	<ele>399.00</ele>
	<time>2022-05-14T10:09:49.000Z</time>
</trkpt>
<trkpt lat="44.3293070" lon="9.1715980">
	<ele>398.80</ele>
	<time>2022-05-14T10:09:50.000Z</time>
</trkpt>
<trkpt lat="44.3293440" lon="9.1715890">
	<ele>398.40</ele>
	<time>2022-05-14T10:09:53.000Z</time>
</trkpt>
<trkpt lat="44.3293800" lon="9.1715860">
	<ele>398.00</ele>
	<time>2022-05-14T10:09:55.000Z</time>
</trkpt>
<trkpt lat="44.3293950" lon="9.1715850">
	<ele>397.80</ele>
	<time>2022-05-14T10:09:56.000Z</time>
</trkpt>
<trkpt lat="44.3294520" lon="9.1715610">
	<ele>397.60</ele>
	<time>2022-05-14T10:10:02.000Z</time>
</trkpt>
<trkpt lat="44.3294860" lon="9.1715500">
	<ele>397.20</ele>
	<time>2022-05-14T10:10:05.000Z</time>
</trkpt>
<trkpt lat="44.3294980" lon="9.1715420">
	<ele>396.80</ele>
	<time>2022-05-14T10:10:07.000Z</time>
</trkpt>
<trkpt lat="44.3295730" lon="9.1715190">
	<ele>396.00</ele>
	<time>2022-05-14T10:10:13.000Z</time>
</trkpt>
<trkpt lat="44.3295850" lon="9.1715130">
	<ele>396.00</ele>
	<time>2022-05-14T10:10:14.000Z</time>
</trkpt>
<trkpt lat="44.3295980" lon="9.1715050">
	<ele>395.60</ele>
	<time>2022-05-14T10:10:15.000Z</time>
</trkpt>
<trkpt lat="44.3296730" lon="9.1714030">
	<ele>395.00</ele>
	<time>2022-05-14T10:10:23.000Z</time>
</trkpt>
<trkpt lat="44.3296990" lon="9.1713580">
	<ele>394.60</ele>
	<time>2022-05-14T10:10:26.000Z</time>
</trkpt>
<trkpt lat="44.3297610" lon="9.1713400">
	<ele>394.40</ele>
	<time>2022-05-14T10:10:30.000Z</time>
</trkpt>
<trkpt lat="44.3297790" lon="9.1713320">
	<ele>394.40</ele>
	<time>2022-05-14T10:10:31.000Z</time>
</trkpt>
<trkpt lat="44.3298010" lon="9.1713110">
	<ele>394.40</ele>
	<time>2022-05-14T10:10:33.000Z</time>
</trkpt>
<trkpt lat="44.3298380" lon="9.1712380">
	<ele>394.20</ele>
	<time>2022-05-14T10:10:38.000Z</time>
</trkpt>
<trkpt lat="44.3299260" lon="9.1711630">
	<ele>393.80</ele>
	<time>2022-05-14T10:10:45.000Z</time>
</trkpt>
<trkpt lat="44.3299310" lon="9.1711500">
	<ele>393.80</ele>
	<time>2022-05-14T10:10:46.000Z</time>
</trkpt>
<trkpt lat="44.3299610" lon="9.1710920">
	<ele>393.60</ele>
	<time>2022-05-14T10:10:51.000Z</time>
</trkpt>
<trkpt lat="44.3299680" lon="9.1710830">
	<ele>393.60</ele>
	<time>2022-05-14T10:10:52.000Z</time>
</trkpt>
<trkpt lat="44.3300300" lon="9.1709970">
	<ele>393.40</ele>
	<time>2022-05-14T10:11:00.000Z</time>
</trkpt>
<trkpt lat="44.3300380" lon="9.1709940">
	<ele>393.40</ele>
	<time>2022-05-14T10:11:01.000Z</time>
</trkpt>
<trkpt lat="44.3300470" lon="9.1709790">
	<ele>393.40</ele>
	<time>2022-05-14T10:11:03.000Z</time>
</trkpt>
<trkpt lat="44.3300780" lon="9.1709390">
	<ele>393.40</ele>
	<time>2022-05-14T10:11:07.000Z</time>
</trkpt>
<trkpt lat="44.3301150" lon="9.1709000">
	<ele>393.20</ele>
	<time>2022-05-14T10:11:13.000Z</time>
</trkpt>
<trkpt lat="44.3301330" lon="9.1708890">
	<ele>393.00</ele>
	<time>2022-05-14T10:11:15.000Z</time>
</trkpt>
<trkpt lat="44.3301710" lon="9.1708670">
	<ele>392.60</ele>
	<time>2022-05-14T10:11:19.000Z</time>
</trkpt>
<trkpt lat="44.3301920" lon="9.1708540">
	<ele>392.60</ele>
	<time>2022-05-14T10:11:21.000Z</time>
</trkpt>
<trkpt lat="44.3302000" lon="9.1708550">
	<ele>392.60</ele>
	<time>2022-05-14T10:11:23.000Z</time>
</trkpt>
<trkpt lat="44.3302200" lon="9.1708430">
	<ele>392.40</ele>
	<time>2022-05-14T10:11:27.000Z</time>
</trkpt>
<trkpt lat="44.3302300" lon="9.1708390">
	<ele>392.40</ele>
	<time>2022-05-14T10:11:31.000Z</time>
</trkpt>
<trkpt lat="44.3302270" lon="9.1708340">
	<ele>392.40</ele>
	<time>2022-05-14T10:11:34.000Z</time>
</trkpt>
<trkpt lat="44.3302360" lon="9.1708330">
	<ele>392.20</ele>
	<time>2022-05-14T10:11:36.000Z</time>
</trkpt>
<trkpt lat="44.3302290" lon="9.1707930">
	<ele>391.80</ele>
	<time>2022-05-14T10:11:39.000Z</time>
</trkpt>
<trkpt lat="44.3302390" lon="9.1707820">
	<ele>391.60</ele>
	<time>2022-05-14T10:11:41.000Z</time>
</trkpt>
<trkpt lat="44.3302800" lon="9.1707850">
	<ele>391.20</ele>
	<time>2022-05-14T10:11:45.000Z</time>
</trkpt>
<trkpt lat="44.3302890" lon="9.1707770">
	<ele>391.20</ele>
	<time>2022-05-14T10:11:46.000Z</time>
</trkpt>
<trkpt lat="44.3303090" lon="9.1707390">
	<ele>390.80</ele>
	<time>2022-05-14T10:11:50.000Z</time>
</trkpt>
<trkpt lat="44.3303410" lon="9.1707290">
	<ele>390.40</ele>
	<time>2022-05-14T10:11:53.000Z</time>
</trkpt>
<trkpt lat="44.3303510" lon="9.1707210">
	<ele>390.20</ele>
	<time>2022-05-14T10:11:54.000Z</time>
</trkpt>
<trkpt lat="44.3303680" lon="9.1707050">
	<ele>390.00</ele>
	<time>2022-05-14T10:11:56.000Z</time>
</trkpt>
<trkpt lat="44.3304200" lon="9.1706720">
	<ele>389.40</ele>
	<time>2022-05-14T10:12:01.000Z</time>
</trkpt>
<trkpt lat="44.3304380" lon="9.1706650">
	<ele>389.00</ele>
	<time>2022-05-14T10:12:03.000Z</time>
</trkpt>
<trkpt lat="44.3304700" lon="9.1706590">
	<ele>388.40</ele>
	<time>2022-05-14T10:12:07.000Z</time>
</trkpt>
<trkpt lat="44.3304830" lon="9.1706600">
	<ele>388.20</ele>
	<time>2022-05-14T10:12:09.000Z</time>
</trkpt>
<trkpt lat="44.3304920" lon="9.1706600">
	<ele>388.20</ele>
	<time>2022-05-14T10:12:10.000Z</time>
</trkpt>
<trkpt lat="44.3304990" lon="9.1706600">
	<ele>388.20</ele>
	<time>2022-05-14T10:12:11.000Z</time>
</trkpt>
<trkpt lat="44.3305380" lon="9.1706410">
	<ele>388.00</ele>
	<time>2022-05-14T10:12:14.000Z</time>
</trkpt>
<trkpt lat="44.3305660" lon="9.1706570">
	<ele>387.40</ele>
	<time>2022-05-14T10:12:16.000Z</time>
</trkpt>
<trkpt lat="44.3305770" lon="9.1706610">
	<ele>387.40</ele>
	<time>2022-05-14T10:12:18.000Z</time>
</trkpt>
<trkpt lat="44.3306360" lon="9.1706660">
	<ele>386.60</ele>
	<time>2022-05-14T10:12:24.000Z</time>
</trkpt>
<trkpt lat="44.3306480" lon="9.1706640">
	<ele>386.60</ele>
	<time>2022-05-14T10:12:25.000Z</time>
</trkpt>
<trkpt lat="44.3306600" lon="9.1706610">
	<ele>386.20</ele>
	<time>2022-05-14T10:12:27.000Z</time>
</trkpt>
<trkpt lat="44.3306900" lon="9.1706660">
	<ele>385.80</ele>
	<time>2022-05-14T10:12:31.000Z</time>
</trkpt>
<trkpt lat="44.3307180" lon="9.1706860">
	<ele>385.40</ele>
	<time>2022-05-14T10:12:33.000Z</time>
</trkpt>
<trkpt lat="44.3307350" lon="9.1706890">
	<ele>385.20</ele>
	<time>2022-05-14T10:12:35.000Z</time>
</trkpt>
<trkpt lat="44.3307730" lon="9.1707170">
	<ele>385.00</ele>
	<time>2022-05-14T10:12:40.000Z</time>
</trkpt>
<trkpt lat="44.3307780" lon="9.1707160">
	<ele>384.80</ele>
	<time>2022-05-14T10:12:42.000Z</time>
</trkpt>
<trkpt lat="44.3307810" lon="9.1707170">
	<ele>384.60</ele>
	<time>2022-05-14T10:12:43.000Z</time>
</trkpt>
<trkpt lat="44.3307830" lon="9.1707170">
	<ele>384.60</ele>
	<time>2022-05-14T10:12:44.000Z</time>
</trkpt>
<trkpt lat="44.3307810" lon="9.1707150">
	<ele>384.60</ele>
	<time>2022-05-14T10:12:46.000Z</time>
</trkpt>
<trkpt lat="44.3307820" lon="9.1707060">
	<ele>384.60</ele>
	<time>2022-05-14T10:12:49.000Z</time>
</trkpt>
<trkpt lat="44.3307860" lon="9.1707000">
	<ele>384.60</ele>
	<time>2022-05-14T10:12:52.000Z</time>
</trkpt>
<trkpt lat="44.3307980" lon="9.1707020">
	<ele>384.20</ele>
	<time>2022-05-14T10:13:04.000Z</time>
</trkpt>
<trkpt lat="44.3307740" lon="9.1706580">
	<ele>383.60</ele>
	<time>2022-05-14T10:13:07.000Z</time>
</trkpt>
<trkpt lat="44.3307670" lon="9.1706480">
	<ele>383.60</ele>
	<time>2022-05-14T10:13:08.000Z</time>
</trkpt>
<trkpt lat="44.3307600" lon="9.1706260">
	<ele>383.00</ele>
	<time>2022-05-14T10:13:10.000Z</time>
</trkpt>
<trkpt lat="44.3307550" lon="9.1705940">
	<ele>382.80</ele>
	<time>2022-05-14T10:13:13.000Z</time>
</trkpt>
<trkpt lat="44.3307360" lon="9.1705740">
	<ele>382.60</ele>
	<time>2022-05-14T10:13:15.000Z</time>
</trkpt>
<trkpt lat="44.3307280" lon="9.1705630">
	<ele>382.40</ele>
	<time>2022-05-14T10:13:16.000Z</time>
</trkpt>
<trkpt lat="44.3307150" lon="9.1705390">
	<ele>382.20</ele>
	<time>2022-05-14T10:13:19.000Z</time>
</trkpt>
<trkpt lat="44.3307110" lon="9.1705340">
	<ele>382.00</ele>
	<time>2022-05-14T10:13:20.000Z</time>
</trkpt>
<trkpt lat="44.3307080" lon="9.1705280">
	<ele>381.60</ele>
	<time>2022-05-14T10:13:21.000Z</time>
</trkpt>
<trkpt lat="44.3307020" lon="9.1705200">
	<ele>381.40</ele>
	<time>2022-05-14T10:13:22.000Z</time>
</trkpt>
<trkpt lat="44.3306940" lon="9.1705100">
	<ele>381.40</ele>
	<time>2022-05-14T10:13:23.000Z</time>
</trkpt>
<trkpt lat="44.3306830" lon="9.1704990">
	<ele>381.00</ele>
	<time>2022-05-14T10:13:24.000Z</time>
</trkpt>
<trkpt lat="44.3306740" lon="9.1704880">
	<ele>380.80</ele>
	<time>2022-05-14T10:13:25.000Z</time>
</trkpt>
<trkpt lat="44.3306640" lon="9.1704480">
	<ele>380.40</ele>
	<time>2022-05-14T10:13:29.000Z</time>
</trkpt>
<trkpt lat="44.3306320" lon="9.1704380">
	<ele>379.80</ele>
	<time>2022-05-14T10:13:32.000Z</time>
</trkpt>
<trkpt lat="44.3306070" lon="9.1704130">
	<ele>379.40</ele>
	<time>2022-05-14T10:13:36.000Z</time>
</trkpt>
<trkpt lat="44.3305900" lon="9.1704360">
	<ele>378.80</ele>
	<time>2022-05-14T10:13:39.000Z</time>
</trkpt>
<trkpt lat="44.3305550" lon="9.1704280">
	<ele>378.00</ele>
	<time>2022-05-14T10:13:43.000Z</time>
</trkpt>
<trkpt lat="44.3305290" lon="9.1704200">
	<ele>377.80</ele>
	<time>2022-05-14T10:13:45.000Z</time>
</trkpt>
<trkpt lat="44.3304990" lon="9.1703820">
	<ele>376.80</ele>
	<time>2022-05-14T10:13:50.000Z</time>
</trkpt>
<trkpt lat="44.3304760" lon="9.1703430">
	<ele>376.20</ele>
	<time>2022-05-14T10:13:56.000Z</time>
</trkpt>
<trkpt lat="44.3304540" lon="9.1703310">
	<ele>375.80</ele>
	<time>2022-05-14T10:13:58.000Z</time>
</trkpt>
<trkpt lat="44.3304330" lon="9.1703170">
	<ele>375.20</ele>
	<time>2022-05-14T10:14:01.000Z</time>
</trkpt>
<trkpt lat="44.3304210" lon="9.1702990">
	<ele>374.80</ele>
	<time>2022-05-14T10:14:04.000Z</time>
</trkpt>
<trkpt lat="44.3304160" lon="9.1702970">
	<ele>374.80</ele>
	<time>2022-05-14T10:14:05.000Z</time>
</trkpt>
<trkpt lat="44.3304110" lon="9.1702950">
	<ele>374.60</ele>
	<time>2022-05-14T10:14:06.000Z</time>
</trkpt>
<trkpt lat="44.3304060" lon="9.1702910">
	<ele>374.40</ele>
	<time>2022-05-14T10:14:07.000Z</time>
</trkpt>
<trkpt lat="44.3303860" lon="9.1702870">
	<ele>374.20</ele>
	<time>2022-05-14T10:14:09.000Z</time>
</trkpt>
<trkpt lat="44.3303770" lon="9.1702780">
	<ele>374.00</ele>
	<time>2022-05-14T10:14:11.000Z</time>
</trkpt>
<trkpt lat="44.3303620" lon="9.1702670">
	<ele>373.60</ele>
	<time>2022-05-14T10:14:13.000Z</time>
</trkpt>
<trkpt lat="44.3303600" lon="9.1702640">
	<ele>373.40</ele>
	<time>2022-05-14T10:14:14.000Z</time>
</trkpt>
<trkpt lat="44.3303500" lon="9.1702150">
	<ele>373.00</ele>
	<time>2022-05-14T10:14:18.000Z</time>
</trkpt>
<trkpt lat="44.3303300" lon="9.1702010">
	<ele>372.60</ele>
	<time>2022-05-14T10:14:20.000Z</time>
</trkpt>
<trkpt lat="44.3303220" lon="9.1702000">
	<ele>372.40</ele>
	<time>2022-05-14T10:14:21.000Z</time>
</trkpt>
<trkpt lat="44.3302920" lon="9.1701830">
	<ele>371.80</ele>
	<time>2022-05-14T10:14:25.000Z</time>
</trkpt>
<trkpt lat="44.3302630" lon="9.1702060">
	<ele>371.20</ele>
	<time>2022-05-14T10:14:31.000Z</time>
</trkpt>
<trkpt lat="44.3302560" lon="9.1701900">
	<ele>371.00</ele>
	<time>2022-05-14T10:14:33.000Z</time>
</trkpt>
<trkpt lat="44.3302450" lon="9.1701450">
	<ele>370.20</ele>
	<time>2022-05-14T10:14:38.000Z</time>
</trkpt>
<trkpt lat="44.3302380" lon="9.1701360">
	<ele>370.00</ele>
	<time>2022-05-14T10:14:39.000Z</time>
</trkpt>
<trkpt lat="44.3301930" lon="9.1701050">
	<ele>369.20</ele>
	<time>2022-05-14T10:14:45.000Z</time>
</trkpt>
<trkpt lat="44.3301800" lon="9.1700880">
	<ele>368.60</ele>
	<time>2022-05-14T10:14:48.000Z</time>
</trkpt>
<trkpt lat="44.3301530" lon="9.1700690">
	<ele>368.00</ele>
	<time>2022-05-14T10:14:53.000Z</time>
</trkpt>
<trkpt lat="44.3301390" lon="9.1700580">
	<ele>367.80</ele>
	<time>2022-05-14T10:14:55.000Z</time>
</trkpt>
<trkpt lat="44.3301110" lon="9.1700260">
	<ele>367.20</ele>
	<time>2022-05-14T10:15:00.000Z</time>
</trkpt>
<trkpt lat="44.3300920" lon="9.1699710">
	<ele>367.00</ele>
	<time>2022-05-14T10:15:03.000Z</time>
</trkpt>
<trkpt lat="44.3300850" lon="9.1699190">
	<ele>366.40</ele>
	<time>2022-05-14T10:15:08.000Z</time>
</trkpt>
<trkpt lat="44.3300620" lon="9.1698800">
	<ele>365.80</ele>
	<time>2022-05-14T10:15:12.000Z</time>
</trkpt>
<trkpt lat="44.3300440" lon="9.1698670">
	<ele>365.80</ele>
	<time>2022-05-14T10:15:14.000Z</time>
</trkpt>
<trkpt lat="44.3299780" lon="9.1698070">
	<ele>365.20</ele>
	<time>2022-05-14T10:15:22.000Z</time>
</trkpt>
<trkpt lat="44.3299670" lon="9.1697800">
	<ele>365.00</ele>
	<time>2022-05-14T10:15:24.000Z</time>
</trkpt>
<trkpt lat="44.3299560" lon="9.1697420">
	<ele>364.80</ele>
	<time>2022-05-14T10:15:27.000Z</time>
</trkpt>
<trkpt lat="44.3299530" lon="9.1697240">
	<ele>364.80</ele>
	<time>2022-05-14T10:15:28.000Z</time>
</trkpt>
<trkpt lat="44.3299350" lon="9.1696170">
	<ele>364.20</ele>
	<time>2022-05-14T10:15:35.000Z</time>
</trkpt>
<trkpt lat="44.3299240" lon="9.1695990">
	<ele>363.80</ele>
	<time>2022-05-14T10:15:37.000Z</time>
</trkpt>
<trkpt lat="44.3299320" lon="9.1695690">
	<ele>363.40</ele>
	<time>2022-05-14T10:15:41.000Z</time>
</trkpt>
<trkpt lat="44.3299300" lon="9.1695590">
	<ele>363.20</ele>
	<time>2022-05-14T10:15:42.000Z</time>
</trkpt>
<trkpt lat="44.3299220" lon="9.1695410">
	<ele>363.00</ele>
	<time>2022-05-14T10:15:43.000Z</time>
</trkpt>
<trkpt lat="44.3299120" lon="9.1695080">
	<ele>362.60</ele>
	<time>2022-05-14T10:15:45.000Z</time>
</trkpt>
<trkpt lat="44.3298990" lon="9.1694700">
	<ele>362.20</ele>
	<time>2022-05-14T10:15:47.000Z</time>
</trkpt>
<trkpt lat="44.3298970" lon="9.1694580">
	<ele>362.00</ele>
	<time>2022-05-14T10:15:48.000Z</time>
</trkpt>
<trkpt lat="44.3298970" lon="9.1694480">
	<ele>361.40</ele>
	<time>2022-05-14T10:15:52.000Z</time>
</trkpt>
<trkpt lat="44.3298930" lon="9.1694400">
	<ele>361.20</ele>
	<time>2022-05-14T10:15:54.000Z</time>
</trkpt>
<trkpt lat="44.3298930" lon="9.1694370">
	<ele>361.00</ele>
	<time>2022-05-14T10:15:55.000Z</time>
</trkpt>
<trkpt lat="44.3298730" lon="9.1693830">
	<ele>360.40</ele>
	<time>2022-05-14T10:15:59.000Z</time>
</trkpt>
<trkpt lat="44.3298670" lon="9.1693680">
	<ele>360.20</ele>
	<time>2022-05-14T10:16:00.000Z</time>
</trkpt>
<trkpt lat="44.3298640" lon="9.1693560">
	<ele>360.00</ele>
	<time>2022-05-14T10:16:01.000Z</time>
</trkpt>
<trkpt lat="44.3298530" lon="9.1693330">
	<ele>359.80</ele>
	<time>2022-05-14T10:16:03.000Z</time>
</trkpt>
<trkpt lat="44.3298360" lon="9.1693200">
	<ele>359.60</ele>
	<time>2022-05-14T10:16:05.000Z</time>
</trkpt>
<trkpt lat="44.3298270" lon="9.1692990">
	<ele>359.20</ele>
	<time>2022-05-14T10:16:07.000Z</time>
</trkpt>
<trkpt lat="44.3298220" lon="9.1692770">
	<ele>358.80</ele>
	<time>2022-05-14T10:16:09.000Z</time>
</trkpt>
<trkpt lat="44.3298150" lon="9.1692620">
	<ele>358.60</ele>
	<time>2022-05-14T10:16:10.000Z</time>
</trkpt>
<trkpt lat="44.3297950" lon="9.1692320">
	<ele>358.60</ele>
	<time>2022-05-14T10:16:12.000Z</time>
</trkpt>
<trkpt lat="44.3297790" lon="9.1692070">
	<ele>358.20</ele>
	<time>2022-05-14T10:16:15.000Z</time>
</trkpt>
<trkpt lat="44.3297770" lon="9.1692030">
	<ele>358.00</ele>
	<time>2022-05-14T10:16:16.000Z</time>
</trkpt>
<trkpt lat="44.3297650" lon="9.1691850">
	<ele>357.80</ele>
	<time>2022-05-14T10:16:18.000Z</time>
</trkpt>
<trkpt lat="44.3297650" lon="9.1691790">
	<ele>357.60</ele>
	<time>2022-05-14T10:16:19.000Z</time>
</trkpt>
<trkpt lat="44.3297460" lon="9.1691610">
	<ele>357.00</ele>
	<time>2022-05-14T10:16:22.000Z</time>
</trkpt>
<trkpt lat="44.3297320" lon="9.1691500">
	<ele>357.00</ele>
	<time>2022-05-14T10:16:23.000Z</time>
</trkpt>
<trkpt lat="44.3297090" lon="9.1690960">
	<ele>356.60</ele>
	<time>2022-05-14T10:16:27.000Z</time>
</trkpt>
<trkpt lat="44.3296850" lon="9.1690900">
	<ele>356.40</ele>
	<time>2022-05-14T10:16:31.000Z</time>
</trkpt>
<trkpt lat="44.3297050" lon="9.1690740">
	<ele>356.20</ele>
	<time>2022-05-14T10:16:33.000Z</time>
</trkpt>
<trkpt lat="44.3297120" lon="9.1690670">
	<ele>356.00</ele>
	<time>2022-05-14T10:16:35.000Z</time>
</trkpt>
<trkpt lat="44.3297170" lon="9.1690560">
	<ele>355.80</ele>
	<time>2022-05-14T10:16:38.000Z</time>
</trkpt>
<trkpt lat="44.3297190" lon="9.1690390">
	<ele>355.80</ele>
	<time>2022-05-14T10:16:40.000Z</time>
</trkpt>
<trkpt lat="44.3297340" lon="9.1690310">
	<ele>355.40</ele>
	<time>2022-05-14T10:16:43.000Z</time>
</trkpt>
<trkpt lat="44.3297400" lon="9.1690320">
	<ele>355.00</ele>
	<time>2022-05-14T10:16:45.000Z</time>
</trkpt>
<trkpt lat="44.3297420" lon="9.1690340">
	<ele>354.60</ele>
	<time>2022-05-14T10:16:47.000Z</time>
</trkpt>
<trkpt lat="44.3297440" lon="9.1690340">
	<ele>354.40</ele>
	<time>2022-05-14T10:16:48.000Z</time>
</trkpt>
<trkpt lat="44.3297760" lon="9.1690420">
	<ele>353.80</ele>
	<time>2022-05-14T10:16:52.000Z</time>
</trkpt>
<trkpt lat="44.3297910" lon="9.1690440">
	<ele>353.80</ele>
	<time>2022-05-14T10:16:53.000Z</time>
</trkpt>
<trkpt lat="44.3298130" lon="9.1690400">
	<ele>353.40</ele>
	<time>2022-05-14T10:16:55.000Z</time>
</trkpt>
<trkpt lat="44.3298310" lon="9.1690420">
	<ele>352.80</ele>
	<time>2022-05-14T10:16:58.000Z</time>
</trkpt>
<trkpt lat="44.3298470" lon="9.1690180">
	<ele>352.40</ele>
	<time>2022-05-14T10:17:01.000Z</time>
</trkpt>
<trkpt lat="44.3298660" lon="9.1689650">
	<ele>351.60</ele>
	<time>2022-05-14T10:17:05.000Z</time>
</trkpt>
<trkpt lat="44.3298680" lon="9.1689550">
	<ele>351.40</ele>
	<time>2022-05-14T10:17:07.000Z</time>
</trkpt>
<trkpt lat="44.3298620" lon="9.1688580">
	<ele>350.60</ele>
	<time>2022-05-14T10:17:13.000Z</time>
</trkpt>
<trkpt lat="44.3298850" lon="9.1687990">
	<ele>350.20</ele>
	<time>2022-05-14T10:17:19.000Z</time>
</trkpt>
<trkpt lat="44.3298910" lon="9.1687820">
	<ele>350.00</ele>
	<time>2022-05-14T10:17:20.000Z</time>
</trkpt>
<trkpt lat="44.3299050" lon="9.1687450">
	<ele>349.60</ele>
	<time>2022-05-14T10:17:22.000Z</time>
</trkpt>
<trkpt lat="44.3299110" lon="9.1687250">
	<ele>349.60</ele>
	<time>2022-05-14T10:17:23.000Z</time>
</trkpt>
<trkpt lat="44.3299150" lon="9.1687060">
	<ele>349.40</ele>
	<time>2022-05-14T10:17:24.000Z</time>
</trkpt>
<trkpt lat="44.3299320" lon="9.1686670">
	<ele>349.20</ele>
	<time>2022-05-14T10:17:27.000Z</time>
</trkpt>
<trkpt lat="44.3299180" lon="9.1686160">
	<ele>349.20</ele>
	<time>2022-05-14T10:17:31.000Z</time>
</trkpt>
<trkpt lat="44.3299240" lon="9.1685790">
	<ele>349.40</ele>
	<time>2022-05-14T10:17:33.000Z</time>
</trkpt>
<trkpt lat="44.3299320" lon="9.1685150">
	<ele>349.40</ele>
	<time>2022-05-14T10:17:38.000Z</time>
</trkpt>
<trkpt lat="44.3299330" lon="9.1684280">
	<ele>348.80</ele>
	<time>2022-05-14T10:17:44.000Z</time>
</trkpt>
<trkpt lat="44.3299340" lon="9.1684150">
	<ele>348.60</ele>
	<time>2022-05-14T10:17:45.000Z</time>
</trkpt>
<trkpt lat="44.3299270" lon="9.1683430">
	<ele>348.40</ele>
	<time>2022-05-14T10:17:49.000Z</time>
</trkpt>
<trkpt lat="44.3299250" lon="9.1683070">
	<ele>348.40</ele>
	<time>2022-05-14T10:17:51.000Z</time>
</trkpt>
<trkpt lat="44.3299070" lon="9.1682560">
	<ele>348.20</ele>
	<time>2022-05-14T10:17:54.000Z</time>
</trkpt>
<trkpt lat="44.3298990" lon="9.1682040">
	<ele>347.80</ele>
	<time>2022-05-14T10:17:57.000Z</time>
</trkpt>
<trkpt lat="44.3298860" lon="9.1681700">
	<ele>347.40</ele>
	<time>2022-05-14T10:18:00.000Z</time>
</trkpt>
<trkpt lat="44.3298720" lon="9.1681260">
	<ele>347.20</ele>
	<time>2022-05-14T10:18:04.000Z</time>
</trkpt>
<trkpt lat="44.3298530" lon="9.1680340">
	<ele>347.20</ele>
	<time>2022-05-14T10:18:10.000Z</time>
</trkpt>
<trkpt lat="44.3298690" lon="9.1679320">
	<ele>348.20</ele>
	<time>2022-05-14T10:18:20.000Z</time>
</trkpt>
<trkpt lat="44.3298800" lon="9.1678830">
	<ele>348.20</ele>
	<time>2022-05-14T10:18:25.000Z</time>
</trkpt>
<trkpt lat="44.3298900" lon="9.1678740">
	<ele>348.40</ele>
	<time>2022-05-14T10:18:26.000Z</time>
</trkpt>
<trkpt lat="44.3298990" lon="9.1678650">
	<ele>348.40</ele>
	<time>2022-05-14T10:18:27.000Z</time>
</trkpt>
<trkpt lat="44.3299070" lon="9.1678420">
	<ele>348.60</ele>
	<time>2022-05-14T10:18:29.000Z</time>
</trkpt>
<trkpt lat="44.3299150" lon="9.1678230">
	<ele>348.40</ele>
	<time>2022-05-14T10:18:33.000Z</time>
</trkpt>
<trkpt lat="44.3299480" lon="9.1677770">
	<ele>348.20</ele>
	<time>2022-05-14T10:18:38.000Z</time>
</trkpt>
<trkpt lat="44.3299520" lon="9.1677390">
	<ele>348.00</ele>
	<time>2022-05-14T10:18:40.000Z</time>
</trkpt>
<trkpt lat="44.3299630" lon="9.1676660">
	<ele>347.40</ele>
	<time>2022-05-14T10:18:45.000Z</time>
</trkpt>
<trkpt lat="44.3299650" lon="9.1676570">
	<ele>347.20</ele>
	<time>2022-05-14T10:18:46.000Z</time>
</trkpt>
<trkpt lat="44.3299630" lon="9.1676180">
	<ele>346.60</ele>
	<time>2022-05-14T10:18:50.000Z</time>
</trkpt>
<trkpt lat="44.3299650" lon="9.1675940">
	<ele>346.20</ele>
	<time>2022-05-14T10:18:52.000Z</time>
</trkpt>
<trkpt lat="44.3299640" lon="9.1675810">
	<ele>346.00</ele>
	<time>2022-05-14T10:18:53.000Z</time>
</trkpt>
<trkpt lat="44.3299580" lon="9.1675660">
	<ele>345.80</ele>
	<time>2022-05-14T10:18:54.000Z</time>
</trkpt>
<trkpt lat="44.3299580" lon="9.1675150">
	<ele>345.60</ele>
	<time>2022-05-14T10:18:57.000Z</time>
</trkpt>
<trkpt lat="44.3299600" lon="9.1674810">
	<ele>345.40</ele>
	<time>2022-05-14T10:18:59.000Z</time>
</trkpt>
<trkpt lat="44.3299610" lon="9.1674750">
	<ele>345.40</ele>
	<time>2022-05-14T10:19:00.000Z</time>
</trkpt>
<trkpt lat="44.3299570" lon="9.1674660">
	<ele>345.00</ele>
	<time>2022-05-14T10:19:01.000Z</time>
</trkpt>
<trkpt lat="44.3299580" lon="9.1674570">
	<ele>344.80</ele>
	<time>2022-05-14T10:19:02.000Z</time>
</trkpt>
<trkpt lat="44.3299670" lon="9.1674000">
	<ele>344.40</ele>
	<time>2022-05-14T10:19:05.000Z</time>
</trkpt>
<trkpt lat="44.3299620" lon="9.1673840">
	<ele>344.40</ele>
	<time>2022-05-14T10:19:06.000Z</time>
</trkpt>
<trkpt lat="44.3299480" lon="9.1673160">
	<ele>344.20</ele>
	<time>2022-05-14T10:19:12.000Z</time>
</trkpt>
<trkpt lat="44.3299520" lon="9.1673090">
	<ele>344.40</ele>
	<time>2022-05-14T10:19:13.000Z</time>
</trkpt>
<trkpt lat="44.3299470" lon="9.1672560">
	<ele>344.80</ele>
	<time>2022-05-14T10:19:16.000Z</time>
</trkpt>
<trkpt lat="44.3299460" lon="9.1672470">
	<ele>344.80</ele>
	<time>2022-05-14T10:19:19.000Z</time>
</trkpt>
<trkpt lat="44.3299440" lon="9.1672390">
	<ele>344.80</ele>
	<time>2022-05-14T10:19:20.000Z</time>
</trkpt>
<trkpt lat="44.3299430" lon="9.1672130">
	<ele>344.40</ele>
	<time>2022-05-14T10:19:22.000Z</time>
</trkpt>
<trkpt lat="44.3299360" lon="9.1671770">
	<ele>344.00</ele>
	<time>2022-05-14T10:19:25.000Z</time>
</trkpt>
<trkpt lat="44.3299260" lon="9.1671580">
	<ele>343.60</ele>
	<time>2022-05-14T10:19:26.000Z</time>
</trkpt>
<trkpt lat="44.3299100" lon="9.1671150">
	<ele>343.00</ele>
	<time>2022-05-14T10:19:29.000Z</time>
</trkpt>
<trkpt lat="44.3298760" lon="9.1670360">
	<ele>342.60</ele>
	<time>2022-05-14T10:19:33.000Z</time>
</trkpt>
<trkpt lat="44.3298630" lon="9.1669840">
	<ele>342.40</ele>
	<time>2022-05-14T10:19:36.000Z</time>
</trkpt>
<trkpt lat="44.3298600" lon="9.1669810">
	<ele>342.00</ele>
	<time>2022-05-14T10:19:38.000Z</time>
</trkpt>
<trkpt lat="44.3298690" lon="9.1669880">
	<ele>342.00</ele>
	<time>2022-05-14T10:19:39.000Z</time>
</trkpt>
<trkpt lat="44.3298740" lon="9.1669830">
	<ele>341.80</ele>
	<time>2022-05-14T10:19:40.000Z</time>
</trkpt>
<trkpt lat="44.3298900" lon="9.1669540">
	<ele>341.60</ele>
	<time>2022-05-14T10:19:44.000Z</time>
</trkpt>
<trkpt lat="44.3299040" lon="9.1669220">
	<ele>341.20</ele>
	<time>2022-05-14T10:19:47.000Z</time>
</trkpt>
<trkpt lat="44.3299100" lon="9.1669010">
	<ele>341.00</ele>
	<time>2022-05-14T10:19:49.000Z</time>
</trkpt>
<trkpt lat="44.3299160" lon="9.1668790">
	<ele>340.60</ele>
	<time>2022-05-14T10:19:51.000Z</time>
</trkpt>
<trkpt lat="44.3299180" lon="9.1668430">
	<ele>340.40</ele>
	<time>2022-05-14T10:19:53.000Z</time>
</trkpt>
<trkpt lat="44.3299180" lon="9.1668040">
	<ele>340.40</ele>
	<time>2022-05-14T10:19:55.000Z</time>
</trkpt>
<trkpt lat="44.3299090" lon="9.1667390">
	<ele>340.40</ele>
	<time>2022-05-14T10:19:59.000Z</time>
</trkpt>
<trkpt lat="44.3299140" lon="9.1667250">
	<ele>340.40</ele>
	<time>2022-05-14T10:20:00.000Z</time>
</trkpt>
<trkpt lat="44.3299520" lon="9.1666360">
	<ele>340.20</ele>
	<time>2022-05-14T10:20:06.000Z</time>
</trkpt>
<trkpt lat="44.3299900" lon="9.1666170">
	<ele>340.00</ele>
	<time>2022-05-14T10:20:11.000Z</time>
</trkpt>
<trkpt lat="44.3300130" lon="9.1666080">
	<ele>340.00</ele>
	<time>2022-05-14T10:20:13.000Z</time>
</trkpt>
<trkpt lat="44.3300770" lon="9.1665570">
	<ele>340.00</ele>
	<time>2022-05-14T10:20:19.000Z</time>
</trkpt>
<trkpt lat="44.3300990" lon="9.1665040">
	<ele>339.60</ele>
	<time>2022-05-14T10:20:24.000Z</time>
</trkpt>
<trkpt lat="44.3301060" lon="9.1664860">
	<ele>339.60</ele>
	<time>2022-05-14T10:20:25.000Z</time>
</trkpt>
<trkpt lat="44.3301420" lon="9.1663920">
	<ele>339.40</ele>
	<time>2022-05-14T10:20:31.000Z</time>
</trkpt>
<trkpt lat="44.3301580" lon="9.1662470">
	<ele>338.80</ele>
	<time>2022-05-14T10:20:38.000Z</time>
</trkpt>
<trkpt lat="44.3301470" lon="9.1662110">
	<ele>338.40</ele>
	<time>2022-05-14T10:20:40.000Z</time>
</trkpt>
<trkpt lat="44.3301380" lon="9.1661800">
	<ele>338.40</ele>
	<time>2022-05-14T10:20:42.000Z</time>
</trkpt>
<trkpt lat="44.3301340" lon="9.1661710">
	<ele>338.20</ele>
	<time>2022-05-14T10:20:43.000Z</time>
</trkpt>
<trkpt lat="44.3301180" lon="9.1661360">
	<ele>337.40</ele>
	<time>2022-05-14T10:20:48.000Z</time>
</trkpt>
<trkpt lat="44.3301110" lon="9.1661090">
	<ele>337.00</ele>
	<time>2022-05-14T10:20:50.000Z</time>
</trkpt>
<trkpt lat="44.3301100" lon="9.1660960">
	<ele>336.80</ele>
	<time>2022-05-14T10:20:51.000Z</time>
</trkpt>
<trkpt lat="44.3301030" lon="9.1660310">
	<ele>336.20</ele>
	<time>2022-05-14T10:20:55.000Z</time>
</trkpt>
<trkpt lat="44.3300960" lon="9.1660130">
	<ele>336.00</ele>
	<time>2022-05-14T10:20:56.000Z</time>
</trkpt>
<trkpt lat="44.3300870" lon="9.1659880">
	<ele>335.80</ele>
	<time>2022-05-14T10:20:57.000Z</time>
</trkpt>
<trkpt lat="44.3300770" lon="9.1659380">
	<ele>335.00</ele>
	<time>2022-05-14T10:21:01.000Z</time>
</trkpt>
<trkpt lat="44.3300720" lon="9.1659280">
	<ele>334.80</ele>
	<time>2022-05-14T10:21:02.000Z</time>
</trkpt>
<trkpt lat="44.3300740" lon="9.1658720">
	<ele>334.00</ele>
	<time>2022-05-14T10:21:06.000Z</time>
</trkpt>
<trkpt lat="44.3300730" lon="9.1658150">
	<ele>333.40</ele>
	<time>2022-05-14T10:21:10.000Z</time>
</trkpt>
<trkpt lat="44.3300610" lon="9.1658050">
	<ele>333.00</ele>
	<time>2022-05-14T10:21:13.000Z</time>
</trkpt>
<trkpt lat="44.3300520" lon="9.1658030">
	<ele>332.80</ele>
	<time>2022-05-14T10:21:15.000Z</time>
</trkpt>
<trkpt lat="44.3300460" lon="9.1657810">
	<ele>332.80</ele>
	<time>2022-05-14T10:21:17.000Z</time>
</trkpt>
<trkpt lat="44.3300360" lon="9.1657740">
	<ele>332.80</ele>
	<time>2022-05-14T10:21:19.000Z</time>
</trkpt>
<trkpt lat="44.3300250" lon="9.1657980">
	<ele>332.40</ele>
	<time>2022-05-14T10:21:23.000Z</time>
</trkpt>
<trkpt lat="44.3300250" lon="9.1658020">
	<ele>332.40</ele>
	<time>2022-05-14T10:21:24.000Z</time>
</trkpt>
<trkpt lat="44.3300330" lon="9.1657920">
	<ele>332.60</ele>
	<time>2022-05-14T10:21:28.000Z</time>
</trkpt>
<trkpt lat="44.3300410" lon="9.1657900">
	<ele>332.80</ele>
	<time>2022-05-14T10:21:31.000Z</time>
</trkpt>
<trkpt lat="44.3300410" lon="9.1657860">
	<ele>332.60</ele>
	<time>2022-05-14T10:21:41.000Z</time>
</trkpt>
<trkpt lat="44.3300400" lon="9.1657860">
	<ele>332.40</ele>
	<time>2022-05-14T10:21:43.000Z</time>
</trkpt>
<trkpt lat="44.3300390" lon="9.1657860">
	<ele>332.20</ele>
	<time>2022-05-14T10:21:44.000Z</time>
</trkpt>
<trkpt lat="44.3300350" lon="9.1657780">
	<ele>332.20</ele>
	<time>2022-05-14T10:21:45.000Z</time>
</trkpt>
<trkpt lat="44.3299930" lon="9.1656900">
	<ele>331.80</ele>
	<time>2022-05-14T10:21:49.000Z</time>
</trkpt>
<trkpt lat="44.3299580" lon="9.1656450">
	<ele>331.80</ele>
	<time>2022-05-14T10:21:52.000Z</time>
</trkpt>
<trkpt lat="44.3299470" lon="9.1656320">
	<ele>332.00</ele>
	<time>2022-05-14T10:21:53.000Z</time>
</trkpt>
<trkpt lat="44.3299270" lon="9.1655860">
	<ele>331.80</ele>
	<time>2022-05-14T10:21:56.000Z</time>
</trkpt>
<trkpt lat="44.3299180" lon="9.1655810">
	<ele>331.60</ele>
	<time>2022-05-14T10:21:58.000Z</time>
</trkpt>
<trkpt lat="44.3299070" lon="9.1655840">
	<ele>331.60</ele>
	<time>2022-05-14T10:21:59.000Z</time>
</trkpt>
<trkpt lat="44.3298870" lon="9.1655620">
	<ele>331.60</ele>
	<time>2022-05-14T10:22:01.000Z</time>
</trkpt>
<trkpt lat="44.3299000" lon="9.1654910">
	<ele>331.40</ele>
	<time>2022-05-14T10:22:05.000Z</time>
</trkpt>
<trkpt lat="44.3299080" lon="9.1654530">
	<ele>330.60</ele>
	<time>2022-05-14T10:22:07.000Z</time>
</trkpt>
<trkpt lat="44.3299210" lon="9.1653920">
	<ele>330.00</ele>
	<time>2022-05-14T10:22:10.000Z</time>
</trkpt>
<trkpt lat="44.3299480" lon="9.1653430">
	<ele>329.60</ele>
	<time>2022-05-14T10:22:13.000Z</time>
</trkpt>
<trkpt lat="44.3299490" lon="9.1653320">
	<ele>329.40</ele>
	<time>2022-05-14T10:22:14.000Z</time>
</trkpt>
<trkpt lat="44.3299490" lon="9.1652830">
	<ele>328.60</ele>
	<time>2022-05-14T10:22:19.000Z</time>
</trkpt>
<trkpt lat="44.3299560" lon="9.1652540">
	<ele>328.00</ele>
	<time>2022-05-14T10:22:22.000Z</time>
</trkpt>
<trkpt lat="44.3299620" lon="9.1652240">
	<ele>327.60</ele>
	<time>2022-05-14T10:22:24.000Z</time>
</trkpt>
<trkpt lat="44.3299800" lon="9.1651750">
	<ele>326.40</ele>
	<time>2022-05-14T10:22:28.000Z</time>
</trkpt>
<trkpt lat="44.3299870" lon="9.1651670">
	<ele>326.20</ele>
	<time>2022-05-14T10:22:29.000Z</time>
</trkpt>
<trkpt lat="44.3300310" lon="9.1651250">
	<ele>325.80</ele>
	<time>2022-05-14T10:22:35.000Z</time>
</trkpt>
<trkpt lat="44.3300550" lon="9.1651190">
	<ele>325.40</ele>
	<time>2022-05-14T10:22:37.000Z</time>
</trkpt>
<trkpt lat="44.3300630" lon="9.1651120">
	<ele>325.20</ele>
	<time>2022-05-14T10:22:38.000Z</time>
</trkpt>
<trkpt lat="44.3300670" lon="9.1651010">
	<ele>325.00</ele>
	<time>2022-05-14T10:22:39.000Z</time>
</trkpt>
<trkpt lat="44.3300870" lon="9.1650690">
	<ele>324.80</ele>
	<time>2022-05-14T10:22:42.000Z</time>
</trkpt>
<trkpt lat="44.3301060" lon="9.1650500">
	<ele>324.20</ele>
	<time>2022-05-14T10:22:45.000Z</time>
</trkpt>
<trkpt lat="44.3301400" lon="9.1650280">
	<ele>323.60</ele>
	<time>2022-05-14T10:22:49.000Z</time>
</trkpt>
<trkpt lat="44.3301660" lon="9.1650120">
	<ele>323.00</ele>
	<time>2022-05-14T10:22:52.000Z</time>
</trkpt>
<trkpt lat="44.3302200" lon="9.1649690">
	<ele>321.80</ele>
	<time>2022-05-14T10:22:58.000Z</time>
</trkpt>
<trkpt lat="44.3302700" lon="9.1649400">
	<ele>321.40</ele>
	<time>2022-05-14T10:23:03.000Z</time>
</trkpt>
<trkpt lat="44.3302720" lon="9.1649130">
	<ele>321.40</ele>
	<time>2022-05-14T10:23:05.000Z</time>
</trkpt>
<trkpt lat="44.3302800" lon="9.1648560">
	<ele>321.40</ele>
	<time>2022-05-14T10:23:08.000Z</time>
</trkpt>
<trkpt lat="44.3302810" lon="9.1648450">
	<ele>321.20</ele>
	<time>2022-05-14T10:23:09.000Z</time>
</trkpt>
<trkpt lat="44.3302890" lon="9.1648320">
	<ele>321.20</ele>
	<time>2022-05-14T10:23:10.000Z</time>
</trkpt>
<trkpt lat="44.3303060" lon="9.1648070">
	<ele>321.20</ele>
	<time>2022-05-14T10:23:12.000Z</time>
</trkpt>
<trkpt lat="44.3303210" lon="9.1647850">
	<ele>321.00</ele>
	<time>2022-05-14T10:23:14.000Z</time>
</trkpt>
<trkpt lat="44.3303450" lon="9.1647810">
	<ele>320.80</ele>
	<time>2022-05-14T10:23:16.000Z</time>
</trkpt>
<trkpt lat="44.3303480" lon="9.1647660">
	<ele>320.80</ele>
	<time>2022-05-14T10:23:17.000Z</time>
</trkpt>
<trkpt lat="44.3303460" lon="9.1647480">
	<ele>320.60</ele>
	<time>2022-05-14T10:23:18.000Z</time>
</trkpt>
<trkpt lat="44.3303670" lon="9.1646940">
	<ele>320.20</ele>
	<time>2022-05-14T10:23:21.000Z</time>
</trkpt>
<trkpt lat="44.3304100" lon="9.1646570">
	<ele>319.80</ele>
	<time>2022-05-14T10:23:25.000Z</time>
</trkpt>
<trkpt lat="44.3304360" lon="9.1646270">
	<ele>319.40</ele>
	<time>2022-05-14T10:23:28.000Z</time>
</trkpt>
<trkpt lat="44.3304860" lon="9.1645330">
	<ele>319.20</ele>
	<time>2022-05-14T10:23:35.000Z</time>
</trkpt>
<trkpt lat="44.3305140" lon="9.1644940">
	<ele>319.00</ele>
	<time>2022-05-14T10:23:39.000Z</time>
</trkpt>
<trkpt lat="44.3305420" lon="9.1644570">
	<ele>318.60</ele>
	<time>2022-05-14T10:23:42.000Z</time>
</trkpt>
<trkpt lat="44.3305510" lon="9.1644440">
	<ele>318.40</ele>
	<time>2022-05-14T10:23:43.000Z</time>
</trkpt>
<trkpt lat="44.3305550" lon="9.1644230">
	<ele>318.40</ele>
	<time>2022-05-14T10:23:44.000Z</time>
</trkpt>
<trkpt lat="44.3306080" lon="9.1643580">
	<ele>317.60</ele>
	<time>2022-05-14T10:23:49.000Z</time>
</trkpt>
<trkpt lat="44.3306240" lon="9.1643330">
	<ele>317.40</ele>
	<time>2022-05-14T10:23:51.000Z</time>
</trkpt>
<trkpt lat="44.3306290" lon="9.1643190">
	<ele>317.20</ele>
	<time>2022-05-14T10:23:52.000Z</time>
</trkpt>
<trkpt lat="44.3306570" lon="9.1642950">
	<ele>316.80</ele>
	<time>2022-05-14T10:23:55.000Z</time>
</trkpt>
<trkpt lat="44.3306690" lon="9.1642860">
	<ele>316.60</ele>
	<time>2022-05-14T10:23:56.000Z</time>
</trkpt>
<trkpt lat="44.3306760" lon="9.1642670">
	<ele>316.40</ele>
	<time>2022-05-14T10:23:57.000Z</time>
</trkpt>
<trkpt lat="44.3306790" lon="9.1642570">
	<ele>316.20</ele>
	<time>2022-05-14T10:23:58.000Z</time>
</trkpt>
<trkpt lat="44.3306780" lon="9.1642480">
	<ele>316.20</ele>
	<time>2022-05-14T10:23:59.000Z</time>
</trkpt>
<trkpt lat="44.3307180" lon="9.1642100">
	<ele>315.60</ele>
	<time>2022-05-14T10:24:05.000Z</time>
</trkpt>
<trkpt lat="44.3307230" lon="9.1642070">
	<ele>315.40</ele>
	<time>2022-05-14T10:24:06.000Z</time>
</trkpt>
<trkpt lat="44.3307670" lon="9.1641550">
	<ele>314.80</ele>
	<time>2022-05-14T10:24:11.000Z</time>
</trkpt>
<trkpt lat="44.3307930" lon="9.1641340">
	<ele>314.80</ele>
	<time>2022-05-14T10:24:14.000Z</time>
</trkpt>
<trkpt lat="44.3308550" lon="9.1641260">
	<ele>314.40</ele>
	<time>2022-05-14T10:24:20.000Z</time>
</trkpt>
<trkpt lat="44.3308650" lon="9.1641210">
	<ele>314.40</ele>
	<time>2022-05-14T10:24:21.000Z</time>
</trkpt>
<trkpt lat="44.3309360" lon="9.1640720">
	<ele>314.40</ele>
	<time>2022-05-14T10:24:30.000Z</time>
</trkpt>
<trkpt lat="44.3309440" lon="9.1640710">
	<ele>314.60</ele>
	<time>2022-05-14T10:24:31.000Z</time>
</trkpt>
<trkpt lat="44.3310090" lon="9.1640350">
	<ele>314.60</ele>
	<time>2022-05-14T10:24:37.000Z</time>
</trkpt>
<trkpt lat="44.3310830" lon="9.1639530">
	<ele>314.40</ele>
	<time>2022-05-14T10:24:45.000Z</time>
</trkpt>
<trkpt lat="44.3310920" lon="9.1639360">
	<ele>314.40</ele>
	<time>2022-05-14T10:24:46.000Z</time>
</trkpt>
<trkpt lat="44.3311120" lon="9.1638580">
	<ele>315.60</ele>
	<time>2022-05-14T10:24:52.000Z</time>
</trkpt>
<trkpt lat="44.3311220" lon="9.1638380">
	<ele>315.80</ele>
	<time>2022-05-14T10:24:54.000Z</time>
</trkpt>
<trkpt lat="44.3311300" lon="9.1638240">
	<ele>315.80</ele>
	<time>2022-05-14T10:24:55.000Z</time>
</trkpt>
<trkpt lat="44.3311450" lon="9.1637780">
	<ele>316.00</ele>
	<time>2022-05-14T10:24:58.000Z</time>
</trkpt>
<trkpt lat="44.3311540" lon="9.1637340">
	<ele>316.00</ele>
	<time>2022-05-14T10:25:01.000Z</time>
</trkpt>
<trkpt lat="44.3311600" lon="9.1637150">
	<ele>316.00</ele>
	<time>2022-05-14T10:25:02.000Z</time>
</trkpt>
<trkpt lat="44.3311980" lon="9.1636030">
	<ele>316.20</ele>
	<time>2022-05-14T10:25:09.000Z</time>
</trkpt>
<trkpt lat="44.3312480" lon="9.1635160">
	<ele>316.20</ele>
	<time>2022-05-14T10:25:17.000Z</time>
</trkpt>
<trkpt lat="44.3312550" lon="9.1635080">
	<ele>316.20</ele>
	<time>2022-05-14T10:25:18.000Z</time>
</trkpt>
<trkpt lat="44.3312790" lon="9.1634700">
	<ele>316.20</ele>
	<time>2022-05-14T10:25:22.000Z</time>
</trkpt>
<trkpt lat="44.3313180" lon="9.1634530">
	<ele>316.40</ele>
	<time>2022-05-14T10:25:26.000Z</time>
</trkpt>
<trkpt lat="44.3313450" lon="9.1634380">
	<ele>316.60</ele>
	<time>2022-05-14T10:25:29.000Z</time>
</trkpt>
<trkpt lat="44.3313830" lon="9.1634180">
	<ele>316.80</ele>
	<time>2022-05-14T10:25:33.000Z</time>
</trkpt>
<trkpt lat="44.3313950" lon="9.1634030">
	<ele>317.00</ele>
	<time>2022-05-14T10:25:35.000Z</time>
</trkpt>
<trkpt lat="44.3314120" lon="9.1633720">
	<ele>317.40</ele>
	<time>2022-05-14T10:25:39.000Z</time>
</trkpt>
<trkpt lat="44.3314190" lon="9.1633660">
	<ele>317.40</ele>
	<time>2022-05-14T10:25:40.000Z</time>
</trkpt>
<trkpt lat="44.3314420" lon="9.1633550">
	<ele>317.40</ele>
	<time>2022-05-14T10:25:42.000Z</time>
</trkpt>
<trkpt lat="44.3314680" lon="9.1633310">
	<ele>317.40</ele>
	<time>2022-05-14T10:25:46.000Z</time>
</trkpt>
<trkpt lat="44.3314790" lon="9.1632920">
	<ele>317.20</ele>
	<time>2022-05-14T10:25:50.000Z</time>
</trkpt>
<trkpt lat="44.3314970" lon="9.1632680">
	<ele>316.60</ele>
	<time>2022-05-14T10:25:52.000Z</time>
</trkpt>
<trkpt lat="44.3315390" lon="9.1632350">
	<ele>316.20</ele>
	<time>2022-05-14T10:25:57.000Z</time>
</trkpt>
<trkpt lat="44.3316100" lon="9.1631910">
	<ele>315.60</ele>
	<time>2022-05-14T10:26:05.000Z</time>
</trkpt>
<trkpt lat="44.3316230" lon="9.1631000">
	<ele>315.20</ele>
	<time>2022-05-14T10:26:12.000Z</time>
</trkpt>
<trkpt lat="44.3316180" lon="9.1630850">
	<ele>315.00</ele>
	<time>2022-05-14T10:26:13.000Z</time>
</trkpt>
<trkpt lat="44.3316260" lon="9.1630230">
	<ele>314.60</ele>
	<time>2022-05-14T10:26:18.000Z</time>
</trkpt>
<trkpt lat="44.3316180" lon="9.1629920">
	<ele>314.20</ele>
	<time>2022-05-14T10:26:21.000Z</time>
</trkpt>
<trkpt lat="44.3316260" lon="9.1629770">
	<ele>314.00</ele>
	<time>2022-05-14T10:26:24.000Z</time>
</trkpt>
<trkpt lat="44.3316110" lon="9.1629030">
	<ele>314.40</ele>
	<time>2022-05-14T10:26:32.000Z</time>
</trkpt>
<trkpt lat="44.3316070" lon="9.1628630">
	<ele>314.20</ele>
	<time>2022-05-14T10:26:40.000Z</time>
</trkpt>
<trkpt lat="44.3316030" lon="9.1628580">
	<ele>313.80</ele>
	<time>2022-05-14T10:26:43.000Z</time>
</trkpt>
<trkpt lat="44.3315970" lon="9.1628430">
	<ele>313.60</ele>
	<time>2022-05-14T10:26:45.000Z</time>
</trkpt>
<trkpt lat="44.3316020" lon="9.1628190">
	<ele>313.60</ele>
	<time>2022-05-14T10:26:47.000Z</time>
</trkpt>
<trkpt lat="44.3315920" lon="9.1628010">
	<ele>313.40</ele>
	<time>2022-05-14T10:26:49.000Z</time>
</trkpt>
<trkpt lat="44.3315770" lon="9.1627300">
	<ele>312.60</ele>
	<time>2022-05-14T10:26:57.000Z</time>
</trkpt>
<trkpt lat="44.3315730" lon="9.1627090">
	<ele>312.40</ele>
	<time>2022-05-14T10:26:59.000Z</time>
</trkpt>
<trkpt lat="44.3315390" lon="9.1626620">
	<ele>312.00</ele>
	<time>2022-05-14T10:27:04.000Z</time>
</trkpt>
<trkpt lat="44.3315310" lon="9.1626470">
	<ele>311.80</ele>
	<time>2022-05-14T10:27:05.000Z</time>
</trkpt>
<trkpt lat="44.3314970" lon="9.1625770">
	<ele>311.20</ele>
	<time>2022-05-14T10:27:11.000Z</time>
</trkpt>
<trkpt lat="44.3314880" lon="9.1625570">
	<ele>310.80</ele>
	<time>2022-05-14T10:27:13.000Z</time>
</trkpt>
<trkpt lat="44.3314750" lon="9.1625160">
	<ele>310.40</ele>
	<time>2022-05-14T10:27:16.000Z</time>
</trkpt>
<trkpt lat="44.3314670" lon="9.1624990">
	<ele>310.20</ele>
	<time>2022-05-14T10:27:18.000Z</time>
</trkpt>
<trkpt lat="44.3314730" lon="9.1624730">
	<ele>310.00</ele>
	<time>2022-05-14T10:27:20.000Z</time>
</trkpt>
<trkpt lat="44.3314750" lon="9.1624460">
	<ele>310.00</ele>
	<time>2022-05-14T10:27:22.000Z</time>
</trkpt>
<trkpt lat="44.3314730" lon="9.1623880">
	<ele>309.40</ele>
	<time>2022-05-14T10:27:28.000Z</time>
</trkpt>
<trkpt lat="44.3314660" lon="9.1623550">
	<ele>309.20</ele>
	<time>2022-05-14T10:27:31.000Z</time>
</trkpt>
<trkpt lat="44.3314780" lon="9.1622840">
	<ele>308.60</ele>
	<time>2022-05-14T10:27:37.000Z</time>
</trkpt>
<trkpt lat="44.3314800" lon="9.1622700">
	<ele>308.60</ele>
	<time>2022-05-14T10:27:38.000Z</time>
</trkpt>
<trkpt lat="44.3314900" lon="9.1622280">
	<ele>308.20</ele>
	<time>2022-05-14T10:27:41.000Z</time>
</trkpt>
<trkpt lat="44.3314850" lon="9.1622060">
	<ele>308.00</ele>
	<time>2022-05-14T10:27:43.000Z</time>
</trkpt>
<trkpt lat="44.3314830" lon="9.1621910">
	<ele>307.80</ele>
	<time>2022-05-14T10:27:44.000Z</time>
</trkpt>
<trkpt lat="44.3314910" lon="9.1621440">
	<ele>307.80</ele>
	<time>2022-05-14T10:27:47.000Z</time>
</trkpt>
<trkpt lat="44.3315030" lon="9.1621110">
	<ele>307.20</ele>
	<time>2022-05-14T10:27:50.000Z</time>
</trkpt>
<trkpt lat="44.3315040" lon="9.1620670">
	<ele>306.60</ele>
	<time>2022-05-14T10:27:54.000Z</time>
</trkpt>
<trkpt lat="44.3315280" lon="9.1619870">
	<ele>306.20</ele>
	<time>2022-05-14T10:27:59.000Z</time>
</trkpt>
<trkpt lat="44.3315510" lon="9.1618950">
	<ele>305.40</ele>
	<time>2022-05-14T10:28:06.000Z</time>
</trkpt>
<trkpt lat="44.3315550" lon="9.1618820">
	<ele>305.20</ele>
	<time>2022-05-14T10:28:07.000Z</time>
</trkpt>
<trkpt lat="44.3315570" lon="9.1618740">
	<ele>305.20</ele>
	<time>2022-05-14T10:28:08.000Z</time>
</trkpt>
<trkpt lat="44.3315580" lon="9.1618620">
	<ele>305.00</ele>
	<time>2022-05-14T10:28:09.000Z</time>
</trkpt>
<trkpt lat="44.3315620" lon="9.1618040">
	<ele>304.40</ele>
	<time>2022-05-14T10:28:14.000Z</time>
</trkpt>
<trkpt lat="44.3315770" lon="9.1617540">
	<ele>304.00</ele>
	<time>2022-05-14T10:28:18.000Z</time>
</trkpt>
<trkpt lat="44.3315870" lon="9.1617040">
	<ele>303.80</ele>
	<time>2022-05-14T10:28:22.000Z</time>
</trkpt>
<trkpt lat="44.3315890" lon="9.1616980">
	<ele>303.60</ele>
	<time>2022-05-14T10:28:23.000Z</time>
</trkpt>
<trkpt lat="44.3316000" lon="9.1616540">
	<ele>303.00</ele>
	<time>2022-05-14T10:28:27.000Z</time>
</trkpt>
<trkpt lat="44.3316020" lon="9.1616420">
	<ele>303.00</ele>
	<time>2022-05-14T10:28:28.000Z</time>
</trkpt>
<trkpt lat="44.3316150" lon="9.1616050">
	<ele>302.40</ele>
	<time>2022-05-14T10:28:32.000Z</time>
</trkpt>
<trkpt lat="44.3316220" lon="9.1615880">
	<ele>302.00</ele>
	<time>2022-05-14T10:28:34.000Z</time>
</trkpt>
<trkpt lat="44.3316310" lon="9.1615660">
	<ele>302.00</ele>
	<time>2022-05-14T10:28:36.000Z</time>
</trkpt>
<trkpt lat="44.3316580" lon="9.1615080">
	<ele>301.20</ele>
	<time>2022-05-14T10:28:41.000Z</time>
</trkpt>
<trkpt lat="44.3316580" lon="9.1614740">
	<ele>300.80</ele>
	<time>2022-05-14T10:28:43.000Z</time>
</trkpt>
<trkpt lat="44.3316720" lon="9.1613920">
	<ele>299.80</ele>
	<time>2022-05-14T10:28:49.000Z</time>
</trkpt>
<trkpt lat="44.3316800" lon="9.1613860">
	<ele>299.80</ele>
	<time>2022-05-14T10:28:50.000Z</time>
</trkpt>
<trkpt lat="44.3317070" lon="9.1613290">
	<ele>299.40</ele>
	<time>2022-05-14T10:28:56.000Z</time>
</trkpt>
<trkpt lat="44.3317330" lon="9.1612860">
	<ele>298.80</ele>
	<time>2022-05-14T10:29:00.000Z</time>
</trkpt>
<trkpt lat="44.3317510" lon="9.1612410">
	<ele>298.20</ele>
	<time>2022-05-14T10:29:04.000Z</time>
</trkpt>
<trkpt lat="44.3317810" lon="9.1611940">
	<ele>297.60</ele>
	<time>2022-05-14T10:29:09.000Z</time>
</trkpt>
<trkpt lat="44.3318020" lon="9.1611700">
	<ele>297.20</ele>
	<time>2022-05-14T10:29:12.000Z</time>
</trkpt>
<trkpt lat="44.3318400" lon="9.1611310">
	<ele>296.60</ele>
	<time>2022-05-14T10:29:16.000Z</time>
</trkpt>
<trkpt lat="44.3318610" lon="9.1611130">
	<ele>296.20</ele>
	<time>2022-05-14T10:29:18.000Z</time>
</trkpt>
<trkpt lat="44.3318780" lon="9.1611080">
	<ele>295.80</ele>
	<time>2022-05-14T10:29:19.000Z</time>
</trkpt>
<trkpt lat="44.3318770" lon="9.1610960">
	<ele>295.80</ele>
	<time>2022-05-14T10:29:20.000Z</time>
</trkpt>
<trkpt lat="44.3318770" lon="9.1610870">
	<ele>295.60</ele>
	<time>2022-05-14T10:29:21.000Z</time>
</trkpt>
<trkpt lat="44.3318810" lon="9.1610820">
	<ele>295.60</ele>
	<time>2022-05-14T10:29:22.000Z</time>
</trkpt>
<trkpt lat="44.3319040" lon="9.1610660">
	<ele>294.80</ele>
	<time>2022-05-14T10:29:25.000Z</time>
</trkpt>
<trkpt lat="44.3319170" lon="9.1610590">
	<ele>294.60</ele>
	<time>2022-05-14T10:29:26.000Z</time>
</trkpt>
<trkpt lat="44.3319330" lon="9.1610530">
	<ele>294.40</ele>
	<time>2022-05-14T10:29:27.000Z</time>
</trkpt>
<trkpt lat="44.3320160" lon="9.1609920">
	<ele>293.80</ele>
	<time>2022-05-14T10:29:35.000Z</time>
</trkpt>
<trkpt lat="44.3320220" lon="9.1609860">
	<ele>293.60</ele>
	<time>2022-05-14T10:29:36.000Z</time>
</trkpt>
<trkpt lat="44.3320280" lon="9.1609830">
	<ele>293.60</ele>
	<time>2022-05-14T10:29:37.000Z</time>
</trkpt>
<trkpt lat="44.3320560" lon="9.1609920">
	<ele>293.00</ele>
	<time>2022-05-14T10:29:40.000Z</time>
</trkpt>
<trkpt lat="44.3320720" lon="9.1609980">
	<ele>292.80</ele>
	<time>2022-05-14T10:29:42.000Z</time>
</trkpt>
<trkpt lat="44.3320930" lon="9.1609940">
	<ele>292.60</ele>
	<time>2022-05-14T10:29:44.000Z</time>
</trkpt>
<trkpt lat="44.3321110" lon="9.1609840">
	<ele>292.40</ele>
	<time>2022-05-14T10:29:46.000Z</time>
</trkpt>
<trkpt lat="44.3321550" lon="9.1609590">
	<ele>291.40</ele>
	<time>2022-05-14T10:29:49.000Z</time>
</trkpt>
<trkpt lat="44.3321710" lon="9.1609400">
	<ele>291.00</ele>
	<time>2022-05-14T10:29:51.000Z</time>
</trkpt>
<trkpt lat="44.3321950" lon="9.1609200">
	<ele>290.80</ele>
	<time>2022-05-14T10:29:53.000Z</time>
</trkpt>
<trkpt lat="44.3322260" lon="9.1608820">
	<ele>290.20</ele>
	<time>2022-05-14T10:29:57.000Z</time>
</trkpt>
<trkpt lat="44.3322520" lon="9.1608580">
	<ele>289.80</ele>
	<time>2022-05-14T10:30:00.000Z</time>
</trkpt>
<trkpt lat="44.3322950" lon="9.1608100">
	<ele>289.20</ele>
	<time>2022-05-14T10:30:05.000Z</time>
</trkpt>
<trkpt lat="44.3323280" lon="9.1607690">
	<ele>289.20</ele>
	<time>2022-05-14T10:30:09.000Z</time>
</trkpt>
<trkpt lat="44.3323660" lon="9.1607080">
	<ele>288.60</ele>
	<time>2022-05-14T10:30:15.000Z</time>
</trkpt>
<trkpt lat="44.3323850" lon="9.1606830">
	<ele>288.20</ele>
	<time>2022-05-14T10:30:17.000Z</time>
</trkpt>
<trkpt lat="44.3323930" lon="9.1606720">
	<ele>288.20</ele>
	<time>2022-05-14T10:30:18.000Z</time>
</trkpt>
<trkpt lat="44.3324200" lon="9.1606400">
	<ele>287.80</ele>
	<time>2022-05-14T10:30:21.000Z</time>
</trkpt>
<trkpt lat="44.3324710" lon="9.1605750">
	<ele>287.60</ele>
	<time>2022-05-14T10:30:27.000Z</time>
</trkpt>
<trkpt lat="44.3325460" lon="9.1605010">
	<ele>287.00</ele>
	<time>2022-05-14T10:30:35.000Z</time>
</trkpt>
<trkpt lat="44.3325630" lon="9.1604840">
	<ele>287.00</ele>
	<time>2022-05-14T10:30:37.000Z</time>
</trkpt>
<trkpt lat="44.3326060" lon="9.1604270">
	<ele>286.20</ele>
	<time>2022-05-14T10:30:43.000Z</time>
</trkpt>
<trkpt lat="44.3326250" lon="9.1604040">
	<ele>286.00</ele>
	<time>2022-05-14T10:30:46.000Z</time>
</trkpt>
<trkpt lat="44.3326480" lon="9.1603560">
	<ele>284.60</ele>
	<time>2022-05-14T10:30:51.000Z</time>
</trkpt>
<trkpt lat="44.3326720" lon="9.1603250">
	<ele>283.60</ele>
	<time>2022-05-14T10:30:55.000Z</time>
</trkpt>
<trkpt lat="44.3326890" lon="9.1603090">
	<ele>283.20</ele>
	<time>2022-05-14T10:30:57.000Z</time>
</trkpt>
<trkpt lat="44.3327000" lon="9.1602840">
	<ele>282.40</ele>
	<time>2022-05-14T10:31:00.000Z</time>
</trkpt>
<trkpt lat="44.3326990" lon="9.1602650">
	<ele>282.20</ele>
	<time>2022-05-14T10:31:01.000Z</time>
</trkpt>
<trkpt lat="44.3326960" lon="9.1602500">
	<ele>282.00</ele>
	<time>2022-05-14T10:31:02.000Z</time>
</trkpt>
<trkpt lat="44.3326990" lon="9.1602300">
	<ele>281.60</ele>
	<time>2022-05-14T10:31:04.000Z</time>
</trkpt>
<trkpt lat="44.3327020" lon="9.1602180">
	<ele>281.40</ele>
	<time>2022-05-14T10:31:05.000Z</time>
</trkpt>
<trkpt lat="44.3327320" lon="9.1601450">
	<ele>280.40</ele>
	<time>2022-05-14T10:31:12.000Z</time>
</trkpt>
<trkpt lat="44.3327370" lon="9.1601360">
	<ele>280.20</ele>
	<time>2022-05-14T10:31:13.000Z</time>
</trkpt>
<trkpt lat="44.3327690" lon="9.1601100">
	<ele>279.20</ele>
	<time>2022-05-14T10:31:18.000Z</time>
</trkpt>
<trkpt lat="44.3327750" lon="9.1601020">
	<ele>278.80</ele>
	<time>2022-05-14T10:31:19.000Z</time>
</trkpt>
<trkpt lat="44.3327960" lon="9.1600730">
	<ele>278.00</ele>
	<time>2022-05-14T10:31:23.000Z</time>
</trkpt>
<trkpt lat="44.3328160" lon="9.1600430">
	<ele>276.80</ele>
	<time>2022-05-14T10:31:26.000Z</time>
</trkpt>
<trkpt lat="44.3328220" lon="9.1600370">
	<ele>276.60</ele>
	<time>2022-05-14T10:31:27.000Z</time>
</trkpt>
<trkpt lat="44.3328680" lon="9.1599650">
	<ele>275.60</ele>
	<time>2022-05-14T10:31:33.000Z</time>
</trkpt>
<trkpt lat="44.3328890" lon="9.1599370">
	<ele>275.20</ele>
	<time>2022-05-14T10:31:35.000Z</time>
</trkpt>
<trkpt lat="44.3329100" lon="9.1599160">
	<ele>274.80</ele>
	<time>2022-05-14T10:31:38.000Z</time>
</trkpt>
<trkpt lat="44.3329180" lon="9.1599120">
	<ele>274.60</ele>
	<time>2022-05-14T10:31:39.000Z</time>
</trkpt>
<trkpt lat="44.3329250" lon="9.1598970">
	<ele>274.40</ele>
	<time>2022-05-14T10:31:40.000Z</time>
</trkpt>
<trkpt lat="44.3329410" lon="9.1598640">
	<ele>274.20</ele>
	<time>2022-05-14T10:31:42.000Z</time>
</trkpt>
<trkpt lat="44.3329520" lon="9.1598080">
	<ele>274.00</ele>
	<time>2022-05-14T10:31:46.000Z</time>
</trkpt>
<trkpt lat="44.3329600" lon="9.1597800">
	<ele>273.80</ele>
	<time>2022-05-14T10:31:48.000Z</time>
</trkpt>
<trkpt lat="44.3329660" lon="9.1597590">
	<ele>273.40</ele>
	<time>2022-05-14T10:31:50.000Z</time>
</trkpt>
<trkpt lat="44.3330090" lon="9.1597030">
	<ele>272.40</ele>
	<time>2022-05-14T10:31:57.000Z</time>
</trkpt>
<trkpt lat="44.3330420" lon="9.1596360">
	<ele>271.40</ele>
	<time>2022-05-14T10:32:04.000Z</time>
</trkpt>
<trkpt lat="44.3330650" lon="9.1596060">
	<ele>271.00</ele>
	<time>2022-05-14T10:32:07.000Z</time>
</trkpt>
<trkpt lat="44.3330770" lon="9.1595670">
	<ele>270.20</ele>
	<time>2022-05-14T10:32:11.000Z</time>
</trkpt>
<trkpt lat="44.3330930" lon="9.1595410">
	<ele>269.40</ele>
	<time>2022-05-14T10:32:15.000Z</time>
</trkpt>
<trkpt lat="44.3330930" lon="9.1595270">
	<ele>269.00</ele>
	<time>2022-05-14T10:32:16.000Z</time>
</trkpt>
<trkpt lat="44.3331220" lon="9.1595150">
	<ele>268.20</ele>
	<time>2022-05-14T10:32:20.000Z</time>
</trkpt>
<trkpt lat="44.3331340" lon="9.1595090">
	<ele>267.80</ele>
	<time>2022-05-14T10:32:22.000Z</time>
</trkpt>
<trkpt lat="44.3331380" lon="9.1595040">
	<ele>267.60</ele>
	<time>2022-05-14T10:32:23.000Z</time>
</trkpt>
<trkpt lat="44.3331660" lon="9.1594810">
	<ele>266.60</ele>
	<time>2022-05-14T10:32:28.000Z</time>
</trkpt>
<trkpt lat="44.3331910" lon="9.1594670">
	<ele>266.00</ele>
	<time>2022-05-14T10:32:31.000Z</time>
</trkpt>
<trkpt lat="44.3332210" lon="9.1594570">
	<ele>265.60</ele>
	<time>2022-05-14T10:32:34.000Z</time>
</trkpt>
<trkpt lat="44.3332360" lon="9.1594460">
	<ele>265.20</ele>
	<time>2022-05-14T10:32:36.000Z</time>
</trkpt>
<trkpt lat="44.3332630" lon="9.1594300">
	<ele>265.20</ele>
	<time>2022-05-14T10:32:39.000Z</time>
</trkpt>
<trkpt lat="44.3332960" lon="9.1594110">
	<ele>264.20</ele>
	<time>2022-05-14T10:32:43.000Z</time>
</trkpt>
<trkpt lat="44.3333330" lon="9.1593810">
	<ele>263.20</ele>
	<time>2022-05-14T10:32:48.000Z</time>
</trkpt>
<trkpt lat="44.3333490" lon="9.1593750">
	<ele>262.80</ele>
	<time>2022-05-14T10:32:50.000Z</time>
</trkpt>
<trkpt lat="44.3333830" lon="9.1593600">
	<ele>262.20</ele>
	<time>2022-05-14T10:32:54.000Z</time>
</trkpt>
<trkpt lat="44.3334190" lon="9.1593540">
	<ele>261.40</ele>
	<time>2022-05-14T10:32:59.000Z</time>
</trkpt>
<trkpt lat="44.3334380" lon="9.1593550">
	<ele>261.20</ele>
	<time>2022-05-14T10:33:01.000Z</time>
</trkpt>
<trkpt lat="44.3334850" lon="9.1593510">
	<ele>260.40</ele>
	<time>2022-05-14T10:33:06.000Z</time>
</trkpt>
<trkpt lat="44.3335010" lon="9.1593590">
	<ele>260.00</ele>
	<time>2022-05-14T10:33:08.000Z</time>
</trkpt>
<trkpt lat="44.3335400" lon="9.1593630">
	<ele>259.40</ele>
	<time>2022-05-14T10:33:12.000Z</time>
</trkpt>
<trkpt lat="44.3335590" lon="9.1593640">
	<ele>258.80</ele>
	<time>2022-05-14T10:33:14.000Z</time>
</trkpt>
<trkpt lat="44.3336200" lon="9.1593460">
	<ele>257.80</ele>
	<time>2022-05-14T10:33:21.000Z</time>
</trkpt>
<trkpt lat="44.3336240" lon="9.1593480">
	<ele>257.80</ele>
	<time>2022-05-14T10:33:22.000Z</time>
</trkpt>
<trkpt lat="44.3336350" lon="9.1593500">
	<ele>257.60</ele>
	<time>2022-05-14T10:33:24.000Z</time>
</trkpt>
<trkpt lat="44.3336850" lon="9.1593490">
	<ele>256.80</ele>
	<time>2022-05-14T10:33:29.000Z</time>
</trkpt>
<trkpt lat="44.3337000" lon="9.1593460">
	<ele>256.60</ele>
	<time>2022-05-14T10:33:30.000Z</time>
</trkpt>
<trkpt lat="44.3337070" lon="9.1593410">
	<ele>256.60</ele>
	<time>2022-05-14T10:33:31.000Z</time>
</trkpt>
<trkpt lat="44.3337400" lon="9.1593330">
	<ele>255.60</ele>
	<time>2022-05-14T10:33:36.000Z</time>
</trkpt>
<trkpt lat="44.3337700" lon="9.1593260">
	<ele>255.00</ele>
	<time>2022-05-14T10:33:40.000Z</time>
</trkpt>
<trkpt lat="44.3337850" lon="9.1593260">
	<ele>254.40</ele>
	<time>2022-05-14T10:33:42.000Z</time>
</trkpt>
<trkpt lat="44.3338040" lon="9.1593290">
	<ele>254.00</ele>
	<time>2022-05-14T10:33:44.000Z</time>
</trkpt>
<trkpt lat="44.3338170" lon="9.1593270">
	<ele>253.60</ele>
	<time>2022-05-14T10:33:47.000Z</time>
</trkpt>
<trkpt lat="44.3338210" lon="9.1593260">
	<ele>253.40</ele>
	<time>2022-05-14T10:33:48.000Z</time>
</trkpt>
<trkpt lat="44.3338270" lon="9.1593230">
	<ele>252.80</ele>
	<time>2022-05-14T10:33:50.000Z</time>
</trkpt>
<trkpt lat="44.3338690" lon="9.1593000">
	<ele>252.20</ele>
	<time>2022-05-14T10:33:55.000Z</time>
</trkpt>
<trkpt lat="44.3339240" lon="9.1592600">
	<ele>251.40</ele>
	<time>2022-05-14T10:34:00.000Z</time>
</trkpt>
<trkpt lat="44.3339400" lon="9.1592310">
	<ele>251.20</ele>
	<time>2022-05-14T10:34:02.000Z</time>
</trkpt>
<trkpt lat="44.3339590" lon="9.1592060">
	<ele>251.00</ele>
	<time>2022-05-14T10:34:05.000Z</time>
</trkpt>
<trkpt lat="44.3339650" lon="9.1591950">
	<ele>250.60</ele>
	<time>2022-05-14T10:34:07.000Z</time>
</trkpt>
<trkpt lat="44.3339660" lon="9.1591960">
	<ele>250.60</ele>
	<time>2022-05-14T10:34:08.000Z</time>
</trkpt>
<trkpt lat="44.3339660" lon="9.1592000">
	<ele>250.40</ele>
	<time>2022-05-14T10:34:11.000Z</time>
</trkpt>
<trkpt lat="44.3339640" lon="9.1592020">
	<ele>250.20</ele>
	<time>2022-05-14T10:34:12.000Z</time>
</trkpt>
<trkpt lat="44.3339650" lon="9.1592050">
	<ele>250.20</ele>
	<time>2022-05-14T10:34:13.000Z</time>
</trkpt>
<trkpt lat="44.3339770" lon="9.1592260">
	<ele>250.20</ele>
	<time>2022-05-14T10:34:18.000Z</time>
</trkpt>
<trkpt lat="44.3339980" lon="9.1592100">
	<ele>250.40</ele>
	<time>2022-05-14T10:34:26.000Z</time>
</trkpt>
<trkpt lat="44.3340200" lon="9.1592270">
	<ele>250.20</ele>
	<time>2022-05-14T10:34:34.000Z</time>
</trkpt>
<trkpt lat="44.3340080" lon="9.1592420">
	<ele>250.00</ele>
	<time>2022-05-14T10:34:41.000Z</time>
</trkpt>
<trkpt lat="44.3340180" lon="9.1592730">
	<ele>249.80</ele>
	<time>2022-05-14T10:34:45.000Z</time>
</trkpt>
<trkpt lat="44.3340490" lon="9.1593210">
	<ele>249.40</ele>
	<time>2022-05-14T10:34:52.000Z</time>
</trkpt>
<trkpt lat="44.3340540" lon="9.1593270">
	<ele>249.00</ele>
	<time>2022-05-14T10:34:53.000Z</time>
</trkpt>
<trkpt lat="44.3340820" lon="9.1593630">
	<ele>248.00</ele>
	<time>2022-05-14T10:34:59.000Z</time>
</trkpt>
<trkpt lat="44.3341030" lon="9.1593860">
	<ele>247.00</ele>
	<time>2022-05-14T10:35:03.000Z</time>
</trkpt>
<trkpt lat="44.3341130" lon="9.1593910">
	<ele>246.60</ele>
	<time>2022-05-14T10:35:04.000Z</time>
</trkpt>
<trkpt lat="44.3341430" lon="9.1593940">
	<ele>246.00</ele>
	<time>2022-05-14T10:35:07.000Z</time>
</trkpt>
<trkpt lat="44.3341930" lon="9.1593950">
	<ele>244.80</ele>
	<time>2022-05-14T10:35:13.000Z</time>
</trkpt>
<trkpt lat="44.3342040" lon="9.1593900">
	<ele>244.40</ele>
	<time>2022-05-14T10:35:15.000Z</time>
</trkpt>
<trkpt lat="44.3342300" lon="9.1593950">
	<ele>243.60</ele>
	<time>2022-05-14T10:35:18.000Z</time>
</trkpt>
<trkpt lat="44.3342390" lon="9.1593960">
	<ele>243.40</ele>
	<time>2022-05-14T10:35:19.000Z</time>
</trkpt>
<trkpt lat="44.3342720" lon="9.1594000">
	<ele>242.60</ele>
	<time>2022-05-14T10:35:23.000Z</time>
</trkpt>
<trkpt lat="44.3342950" lon="9.1594020">
	<ele>242.00</ele>
	<time>2022-05-14T10:35:27.000Z</time>
</trkpt>
<trkpt lat="44.3343140" lon="9.1593940">
	<ele>241.40</ele>
	<time>2022-05-14T10:35:29.000Z</time>
</trkpt>
<trkpt lat="44.3343280" lon="9.1593970">
	<ele>241.20</ele>
	<time>2022-05-14T10:35:30.000Z</time>
</trkpt>
<trkpt lat="44.3343630" lon="9.1594090">
	<ele>240.40</ele>
	<time>2022-05-14T10:35:34.000Z</time>
</trkpt>
<trkpt lat="44.3343880" lon="9.1594240">
	<ele>240.00</ele>
	<time>2022-05-14T10:35:37.000Z</time>
</trkpt>
<trkpt lat="44.3344220" lon="9.1594260">
	<ele>239.00</ele>
	<time>2022-05-14T10:35:40.000Z</time>
</trkpt>
<trkpt lat="44.3344510" lon="9.1594330">
	<ele>238.00</ele>
	<time>2022-05-14T10:35:44.000Z</time>
</trkpt>
<trkpt lat="44.3344710" lon="9.1594350">
	<ele>237.60</ele>
	<time>2022-05-14T10:35:46.000Z</time>
</trkpt>
<trkpt lat="44.3344810" lon="9.1594350">
	<ele>237.20</ele>
	<time>2022-05-14T10:35:47.000Z</time>
</trkpt>
<trkpt lat="44.3344920" lon="9.1594320">
	<ele>236.80</ele>
	<time>2022-05-14T10:35:49.000Z</time>
</trkpt>
<trkpt lat="44.3345120" lon="9.1594480">
	<ele>235.80</ele>
	<time>2022-05-14T10:35:52.000Z</time>
</trkpt>
<trkpt lat="44.3345240" lon="9.1594520">
	<ele>235.00</ele>
	<time>2022-05-14T10:35:54.000Z</time>
</trkpt>
<trkpt lat="44.3345290" lon="9.1594540">
	<ele>234.80</ele>
	<time>2022-05-14T10:35:55.000Z</time>
</trkpt>
<trkpt lat="44.3345330" lon="9.1594600">
	<ele>234.60</ele>
	<time>2022-05-14T10:35:56.000Z</time>
</trkpt>
<trkpt lat="44.3345430" lon="9.1594720">
	<ele>233.40</ele>
	<time>2022-05-14T10:35:59.000Z</time>
</trkpt>
<trkpt lat="44.3345680" lon="9.1594930">
	<ele>232.20</ele>
	<time>2022-05-14T10:36:04.000Z</time>
</trkpt>
<trkpt lat="44.3345850" lon="9.1595260">
	<ele>231.20</ele>
	<time>2022-05-14T10:36:08.000Z</time>
</trkpt>
<trkpt lat="44.3345840" lon="9.1595500">
	<ele>230.40</ele>
	<time>2022-05-14T10:36:11.000Z</time>
</trkpt>
<trkpt lat="44.3345900" lon="9.1595520">
	<ele>230.20</ele>
	<time>2022-05-14T10:36:12.000Z</time>
</trkpt>
<trkpt lat="44.3345990" lon="9.1595830">
	<ele>229.20</ele>
	<time>2022-05-14T10:36:17.000Z</time>
</trkpt>
<trkpt lat="44.3346000" lon="9.1595940">
	<ele>229.00</ele>
	<time>2022-05-14T10:36:18.000Z</time>
</trkpt>
<trkpt lat="44.3346250" lon="9.1596170">
	<ele>227.80</ele>
	<time>2022-05-14T10:36:22.000Z</time>
</trkpt>
<trkpt lat="44.3346360" lon="9.1596480">
	<ele>227.00</ele>
	<time>2022-05-14T10:36:25.000Z</time>
</trkpt>
<trkpt lat="44.3346240" lon="9.1596600">
	<ele>226.80</ele>
	<time>2022-05-14T10:36:26.000Z</time>
</trkpt>
<trkpt lat="44.3346360" lon="9.1597040">
	<ele>225.80</ele>
	<time>2022-05-14T10:36:29.000Z</time>
</trkpt>
<trkpt lat="44.3346410" lon="9.1597210">
	<ele>225.20</ele>
	<time>2022-05-14T10:36:31.000Z</time>
</trkpt>
<trkpt lat="44.3346440" lon="9.1597430">
	<ele>224.40</ele>
	<time>2022-05-14T10:36:34.000Z</time>
</trkpt>
<trkpt lat="44.3346510" lon="9.1597790">
	<ele>223.60</ele>
	<time>2022-05-14T10:36:37.000Z</time>
</trkpt>
<trkpt lat="44.3346570" lon="9.1598060">
	<ele>223.20</ele>
	<time>2022-05-14T10:36:39.000Z</time>
</trkpt>
<trkpt lat="44.3346630" lon="9.1598550">
	<ele>222.00</ele>
	<time>2022-05-14T10:36:43.000Z</time>
</trkpt>
<trkpt lat="44.3346690" lon="9.1598800">
	<ele>221.60</ele>
	<time>2022-05-14T10:36:45.000Z</time>
</trkpt>
<trkpt lat="44.3346830" lon="9.1599120">
	<ele>221.00</ele>
	<time>2022-05-14T10:36:48.000Z</time>
</trkpt>
<trkpt lat="44.3346940" lon="9.1599220">
	<ele>220.40</ele>
	<time>2022-05-14T10:36:50.000Z</time>
</trkpt>
<trkpt lat="44.3347060" lon="9.1599390">
	<ele>220.00</ele>
	<time>2022-05-14T10:36:52.000Z</time>
</trkpt>
<trkpt lat="44.3347130" lon="9.1599550">
	<ele>219.40</ele>
	<time>2022-05-14T10:36:54.000Z</time>
</trkpt>
<trkpt lat="44.3347300" lon="9.1599790">
	<ele>218.80</ele>
	<time>2022-05-14T10:36:57.000Z</time>
</trkpt>
<trkpt lat="44.3347530" lon="9.1600090">
	<ele>217.40</ele>
	<time>2022-05-14T10:37:01.000Z</time>
</trkpt>
<trkpt lat="44.3347640" lon="9.1600290">
	<ele>216.40</ele>
	<time>2022-05-14T10:37:04.000Z</time>
</trkpt>
<trkpt lat="44.3347710" lon="9.1600340">
	<ele>216.00</ele>
	<time>2022-05-14T10:37:05.000Z</time>
</trkpt>
<trkpt lat="44.3347770" lon="9.1600410">
	<ele>215.80</ele>
	<time>2022-05-14T10:37:06.000Z</time>
</trkpt>
<trkpt lat="44.3347860" lon="9.1600580">
	<ele>215.00</ele>
	<time>2022-05-14T10:37:08.000Z</time>
</trkpt>
<trkpt lat="44.3347990" lon="9.1600870">
	<ele>214.00</ele>
	<time>2022-05-14T10:37:11.000Z</time>
</trkpt>
<trkpt lat="44.3348160" lon="9.1601120">
	<ele>213.20</ele>
	<time>2022-05-14T10:37:14.000Z</time>
</trkpt>
<trkpt lat="44.3348220" lon="9.1601210">
	<ele>212.80</ele>
	<time>2022-05-14T10:37:15.000Z</time>
</trkpt>
<trkpt lat="44.3348480" lon="9.1601570">
	<ele>211.40</ele>
	<time>2022-05-14T10:37:20.000Z</time>
</trkpt>
<trkpt lat="44.3348700" lon="9.1601850">
	<ele>210.40</ele>
	<time>2022-05-14T10:37:24.000Z</time>
</trkpt>
<trkpt lat="44.3348760" lon="9.1601900">
	<ele>210.20</ele>
	<time>2022-05-14T10:37:25.000Z</time>
</trkpt>
<trkpt lat="44.3348830" lon="9.1601890">
	<ele>210.00</ele>
	<time>2022-05-14T10:37:26.000Z</time>
</trkpt>
<trkpt lat="44.3348940" lon="9.1602030">
	<ele>209.20</ele>
	<time>2022-05-14T10:37:29.000Z</time>
</trkpt>
<trkpt lat="44.3349080" lon="9.1602160">
	<ele>208.20</ele>
	<time>2022-05-14T10:37:33.000Z</time>
</trkpt>
<trkpt lat="44.3349140" lon="9.1602150">
	<ele>208.00</ele>
	<time>2022-05-14T10:37:34.000Z</time>
</trkpt>
<trkpt lat="44.3349380" lon="9.1602470">
	<ele>207.20</ele>
	<time>2022-05-14T10:37:38.000Z</time>
</trkpt>
<trkpt lat="44.3349500" lon="9.1602420">
	<ele>206.80</ele>
	<time>2022-05-14T10:37:40.000Z</time>
</trkpt>
<trkpt lat="44.3349640" lon="9.1602630">
	<ele>206.00</ele>
	<time>2022-05-14T10:37:44.000Z</time>
</trkpt>
<trkpt lat="44.3349830" lon="9.1602650">
	<ele>205.40</ele>
	<time>2022-05-14T10:37:46.000Z</time>
</trkpt>
<trkpt lat="44.3350220" lon="9.1602700">
	<ele>204.40</ele>
	<time>2022-05-14T10:37:50.000Z</time>
</trkpt>
<trkpt lat="44.3350420" lon="9.1602820">
	<ele>203.80</ele>
	<time>2022-05-14T10:37:52.000Z</time>
</trkpt>
<trkpt lat="44.3350630" lon="9.1603060">
	<ele>203.20</ele>
	<time>2022-05-14T10:37:54.000Z</time>
</trkpt>
<trkpt lat="44.3350910" lon="9.1603170">
	<ele>202.00</ele>
	<time>2022-05-14T10:37:59.000Z</time>
</trkpt>
<trkpt lat="44.3351250" lon="9.1603450">
	<ele>201.00</ele>
	<time>2022-05-14T10:38:04.000Z</time>
</trkpt>
<trkpt lat="44.3351460" lon="9.1603430">
	<ele>200.40</ele>
	<time>2022-05-14T10:38:06.000Z</time>
</trkpt>
<trkpt lat="44.3351690" lon="9.1603570">
	<ele>199.80</ele>
	<time>2022-05-14T10:38:11.000Z</time>
</trkpt>
<trkpt lat="44.3351870" lon="9.1603480">
	<ele>198.60</ele>
	<time>2022-05-14T10:38:17.000Z</time>
</trkpt>
<trkpt lat="44.3352260" lon="9.1603580">
	<ele>197.60</ele>
	<time>2022-05-14T10:38:21.000Z</time>
</trkpt>
<trkpt lat="44.3352520" lon="9.1603360">
	<ele>197.40</ele>
	<time>2022-05-14T10:38:23.000Z</time>
</trkpt>
<trkpt lat="44.3353200" lon="9.1602930">
	<ele>197.00</ele>
	<time>2022-05-14T10:38:29.000Z</time>
</trkpt>
<trkpt lat="44.3353390" lon="9.1602780">
	<ele>196.80</ele>
	<time>2022-05-14T10:38:31.000Z</time>
</trkpt>
<trkpt lat="44.3353630" lon="9.1602640">
	<ele>196.80</ele>
	<time>2022-05-14T10:38:33.000Z</time>
</trkpt>
<trkpt lat="44.3353700" lon="9.1602500">
	<ele>196.60</ele>
	<time>2022-05-14T10:38:34.000Z</time>
</trkpt>
<trkpt lat="44.3353980" lon="9.1602050">
	<ele>196.60</ele>
	<time>2022-05-14T10:38:38.000Z</time>
</trkpt>
<trkpt lat="44.3354080" lon="9.1601940">
	<ele>196.60</ele>
	<time>2022-05-14T10:38:39.000Z</time>
</trkpt>
<trkpt lat="44.3354830" lon="9.1601280">
	<ele>196.00</ele>
	<time>2022-05-14T10:38:47.000Z</time>
</trkpt>
<trkpt lat="44.3355330" lon="9.1600660">
	<ele>196.00</ele>
	<time>2022-05-14T10:38:53.000Z</time>
</trkpt>
<trkpt lat="44.3355390" lon="9.1600540">
	<ele>195.80</ele>
	<time>2022-05-14T10:38:54.000Z</time>
</trkpt>
<trkpt lat="44.3356060" lon="9.1599690">
	<ele>195.80</ele>
	<time>2022-05-14T10:39:01.000Z</time>
</trkpt>
<trkpt lat="44.3356360" lon="9.1599520">
	<ele>195.80</ele>
	<time>2022-05-14T10:39:04.000Z</time>
</trkpt>
<trkpt lat="44.3356940" lon="9.1598980">
	<ele>195.60</ele>
	<time>2022-05-14T10:39:09.000Z</time>
</trkpt>
<trkpt lat="44.3357110" lon="9.1598850">
	<ele>195.40</ele>
	<time>2022-05-14T10:39:11.000Z</time>
</trkpt>
<trkpt lat="44.3357150" lon="9.1598730">
	<ele>195.40</ele>
	<time>2022-05-14T10:39:12.000Z</time>
</trkpt>
<trkpt lat="44.3357290" lon="9.1598420">
	<ele>195.40</ele>
	<time>2022-05-14T10:39:15.000Z</time>
</trkpt>
<trkpt lat="44.3357350" lon="9.1598350">
	<ele>195.40</ele>
	<time>2022-05-14T10:39:16.000Z</time>
</trkpt>
<trkpt lat="44.3357510" lon="9.1598280">
	<ele>195.40</ele>
	<time>2022-05-14T10:39:22.000Z</time>
</trkpt>
<trkpt lat="44.3357540" lon="9.1598270">
	<ele>195.40</ele>
	<time>2022-05-14T10:39:23.000Z</time>
</trkpt>
<trkpt lat="44.3357540" lon="9.1598360">
	<ele>195.40</ele>
	<time>2022-05-14T10:39:25.000Z</time>
</trkpt>
<trkpt lat="44.3357530" lon="9.1598280">
	<ele>195.40</ele>
	<time>2022-05-14T10:39:27.000Z</time>
</trkpt>
<trkpt lat="44.3357480" lon="9.1598070">
	<ele>195.40</ele>
	<time>2022-05-14T10:39:29.000Z</time>
</trkpt>
<trkpt lat="44.3358660" lon="9.1597690">
	<ele>195.40</ele>
	<time>2022-05-14T10:42:02.000Z</time>
</trkpt>
<trkpt lat="44.3356040" lon="9.1597350">
	<ele>195.40</ele>
	<time>2022-05-14T10:42:04.000Z</time>
</trkpt>
<trkpt lat="44.3357170" lon="9.1599160">
	<ele>195.40</ele>
	<time>2022-05-14T10:42:07.000Z</time>
</trkpt>
<trkpt lat="44.3357880" lon="9.1600180">
	<ele>195.60</ele>
	<time>2022-05-14T10:42:10.000Z</time>
</trkpt>
<trkpt lat="44.3357990" lon="9.1600580">
	<ele>195.60</ele>
	<time>2022-05-14T10:42:12.000Z</time>
</trkpt>
<trkpt lat="44.3358130" lon="9.1600370">
	<ele>195.20</ele>
	<time>2022-05-14T10:42:16.000Z</time>
</trkpt>
<trkpt lat="44.3358000" lon="9.1599910">
	<ele>195.00</ele>
	<time>2022-05-14T10:42:18.000Z</time>
</trkpt>
<trkpt lat="44.3357970" lon="9.1599860">
	<ele>195.00</ele>
	<time>2022-05-14T10:42:19.000Z</time>
</trkpt>
<trkpt lat="44.3357830" lon="9.1599380">
	<ele>195.60</ele>
	<time>2022-05-14T10:42:24.000Z</time>
</trkpt>
<trkpt lat="44.3357890" lon="9.1599340">
	<ele>195.60</ele>
	<time>2022-05-14T10:42:25.000Z</time>
</trkpt>
<trkpt lat="44.3357940" lon="9.1599330">
	<ele>195.60</ele>
	<time>2022-05-14T10:42:28.000Z</time>
</trkpt>
<trkpt lat="44.3357860" lon="9.1599220">
	<ele>195.60</ele>
	<time>2022-05-14T10:42:29.000Z</time>
</trkpt>
<trkpt lat="44.3357790" lon="9.1599240">
	<ele>195.40</ele>
	<time>2022-05-14T10:42:35.000Z</time>
</trkpt>
<trkpt lat="44.3358100" lon="9.1598970">
	<ele>196.40</ele>
	<time>2022-05-14T10:42:41.000Z</time>
</trkpt>
<trkpt lat="44.3358110" lon="9.1598930">
	<ele>195.40</ele>
	<time>2022-05-14T10:42:48.000Z</time>
</trkpt>
<trkpt lat="44.3357940" lon="9.1598670">
	<ele>195.40</ele>
	<time>2022-05-14T10:43:06.000Z</time>
</trkpt>
<trkpt lat="44.3357880" lon="9.1598650">
	<ele>195.40</ele>
	<time>2022-05-14T10:43:07.000Z</time>
</trkpt>
<trkpt lat="44.3357640" lon="9.1598520">
	<ele>195.40</ele>
	<time>2022-05-14T10:43:13.000Z</time>
</trkpt>
<trkpt lat="44.3357730" lon="9.1598660">
	<ele>196.00</ele>
	<time>2022-05-14T10:43:17.000Z</time>
</trkpt>
<trkpt lat="44.3357760" lon="9.1598840">
	<ele>195.80</ele>
	<time>2022-05-14T10:43:24.000Z</time>
</trkpt>
<trkpt lat="44.3357760" lon="9.1598840">
	<ele>195.80</ele>
	<time>2022-05-14T10:43:36.000Z</time>
</trkpt>
<trkpt lat="44.3357750" lon="9.1598860">
	<ele>195.60</ele>
	<time>2022-05-14T10:43:40.000Z</time>
</trkpt>
<trkpt lat="44.3357930" lon="9.1599830">
	<ele>195.00</ele>
	<time>2022-05-14T10:44:10.000Z</time>
</trkpt>
<trkpt lat="44.3357930" lon="9.1599850">
	<ele>195.00</ele>
	<time>2022-05-14T10:44:11.000Z</time>
</trkpt>
<trkpt lat="44.3357960" lon="9.1599910">
	<ele>195.00</ele>
	<time>2022-05-14T10:44:49.000Z</time>
</trkpt>
<trkpt lat="44.3358120" lon="9.1599790">
	<ele>195.20</ele>
	<time>2022-05-14T10:45:08.000Z</time>
</trkpt>
<trkpt lat="44.3358090" lon="9.1599480">
	<ele>195.40</ele>
	<time>2022-05-14T10:45:13.000Z</time>
</trkpt>
<trkpt lat="44.3358070" lon="9.1599450">
	<ele>195.40</ele>
	<time>2022-05-14T10:45:20.000Z</time>
</trkpt>
<trkpt lat="44.3358000" lon="9.1599440">
	<ele>195.40</ele>
	<time>2022-05-14T10:45:26.000Z</time>
</trkpt>
<trkpt lat="44.3357930" lon="9.1599490">
	<ele>195.40</ele>
	<time>2022-05-14T10:45:28.000Z</time>
</trkpt>
<trkpt lat="44.3357910" lon="9.1599750">
	<ele>195.60</ele>
	<time>2022-05-14T10:45:35.000Z</time>
</trkpt>
<trkpt lat="44.3357920" lon="9.1599620">
	<ele>195.60</ele>
	<time>2022-05-14T10:45:36.000Z</time>
</trkpt>
<trkpt lat="44.3357940" lon="9.1599530">
	<ele>195.60</ele>
	<time>2022-05-14T10:45:38.000Z</time>
</trkpt>
<trkpt lat="44.3357880" lon="9.1599200">
	<ele>195.60</ele>
	<time>2022-05-14T10:45:44.000Z</time>
</trkpt>
<trkpt lat="44.3357640" lon="9.1597390">
	<ele>195.60</ele>
	<time>2022-05-14T10:45:48.000Z</time>
</trkpt>
<trkpt lat="44.3357440" lon="9.1597240">
	<ele>195.60</ele>
	<time>2022-05-14T10:45:51.000Z</time>
</trkpt>
<trkpt lat="44.3357280" lon="9.1597250">
	<ele>195.60</ele>
	<time>2022-05-14T10:45:56.000Z</time>
</trkpt>
<trkpt lat="44.3357360" lon="9.1597070">
	<ele>195.60</ele>
	<time>2022-05-14T10:46:01.000Z</time>
</trkpt>
<trkpt lat="44.3357730" lon="9.1598240">
	<ele>195.60</ele>
	<time>2022-05-14T10:46:20.000Z</time>
</trkpt>
<trkpt lat="44.3357930" lon="9.1597670">
	<ele>195.60</ele>
	<time>2022-05-14T10:46:24.000Z</time>
</trkpt>
<trkpt lat="44.3357750" lon="9.1598570">
	<ele>195.80</ele>
	<time>2022-05-14T10:46:28.000Z</time>
</trkpt>
<trkpt lat="44.3357660" lon="9.1598620">
	<ele>196.00</ele>
	<time>2022-05-14T10:46:32.000Z</time>
</trkpt>
<trkpt lat="44.3357750" lon="9.1598470">
	<ele>196.00</ele>
	<time>2022-05-14T10:46:34.000Z</time>
</trkpt>
<trkpt lat="44.3357820" lon="9.1598230">
	<ele>196.00</ele>
	<time>2022-05-14T10:46:37.000Z</time>
</trkpt>
<trkpt lat="44.3357620" lon="9.1598530">
	<ele>195.80</ele>
	<time>2022-05-14T10:46:44.000Z</time>
</trkpt>
<trkpt lat="44.3357580" lon="9.1598060">
	<ele>196.00</ele>
	<time>2022-05-14T10:46:50.000Z</time>
</trkpt>
<trkpt lat="44.3357590" lon="9.1598000">
	<ele>196.00</ele>
	<time>2022-05-14T10:46:51.000Z</time>
</trkpt>
<trkpt lat="44.3357630" lon="9.1597630">
	<ele>196.00</ele>
	<time>2022-05-14T10:47:00.000Z</time>
</trkpt>
<trkpt lat="44.3357680" lon="9.1597610">
	<ele>196.00</ele>
	<time>2022-05-14T10:47:06.000Z</time>
</trkpt>
<trkpt lat="44.3357630" lon="9.1597520">
	<ele>196.00</ele>
	<time>2022-05-14T10:47:10.000Z</time>
</trkpt>
<trkpt lat="44.3357620" lon="9.1597400">
	<ele>196.00</ele>
	<time>2022-05-14T10:47:12.000Z</time>
</trkpt>
<trkpt lat="44.3357820" lon="9.1596690">
	<ele>195.40</ele>
	<time>2022-05-14T10:47:19.000Z</time>
</trkpt>
<trkpt lat="44.3357680" lon="9.1597020">
	<ele>195.40</ele>
	<time>2022-05-14T10:47:22.000Z</time>
</trkpt>
<trkpt lat="44.3357820" lon="9.1596860">
	<ele>195.40</ele>
	<time>2022-05-14T10:47:26.000Z</time>
</trkpt>
<trkpt lat="44.3357930" lon="9.1596820">
	<ele>195.20</ele>
	<time>2022-05-14T10:47:32.000Z</time>
</trkpt>
<trkpt lat="44.3357820" lon="9.1596430">
	<ele>195.20</ele>
	<time>2022-05-14T10:47:38.000Z</time>
</trkpt>
<trkpt lat="44.3358970" lon="9.1598470">
	<ele>194.60</ele>
	<time>2022-05-14T10:49:02.000Z</time>
</trkpt>
<trkpt lat="44.3357770" lon="9.1597670">
	<ele>194.60</ele>
	<time>2022-05-14T10:49:21.000Z</time>
</trkpt>
<trkpt lat="44.3357710" lon="9.1597320">
	<ele>194.60</ele>
	<time>2022-05-14T10:49:27.000Z</time>
</trkpt>
<trkpt lat="44.3358150" lon="9.1598950">
	<ele>194.60</ele>
	<time>2022-05-14T10:49:32.000Z</time>
</trkpt>
<trkpt lat="44.3358130" lon="9.1599070">
	<ele>194.60</ele>
	<time>2022-05-14T10:49:36.000Z</time>
</trkpt>
<trkpt lat="44.3358140" lon="9.1599230">
	<ele>194.60</ele>
	<time>2022-05-14T10:49:41.000Z</time>
</trkpt>
<trkpt lat="44.3358160" lon="9.1599080">
	<ele>194.60</ele>
	<time>2022-05-14T10:49:47.000Z</time>
</trkpt>
<trkpt lat="44.3358140" lon="9.1599230">
	<ele>194.60</ele>
	<time>2022-05-14T10:49:52.000Z</time>
</trkpt>
<trkpt lat="44.3358140" lon="9.1599710">
	<ele>194.60</ele>
	<time>2022-05-14T10:50:00.000Z</time>
</trkpt>
<trkpt lat="44.3358160" lon="9.1598900">
	<ele>194.60</ele>
	<time>2022-05-14T10:50:08.000Z</time>
</trkpt>
<trkpt lat="44.3358580" lon="9.1598760">
	<ele>194.60</ele>
	<time>2022-05-14T10:51:14.000Z</time>
</trkpt>
<trkpt lat="44.3358740" lon="9.1599040">
	<ele>194.60</ele>
	<time>2022-05-14T10:51:17.000Z</time>
</trkpt>
<trkpt lat="44.3358940" lon="9.1598870">
	<ele>194.80</ele>
	<time>2022-05-14T10:51:24.000Z</time>
</trkpt>
<trkpt lat="44.3359090" lon="9.1598460">
	<ele>195.00</ele>
	<time>2022-05-14T10:51:29.000Z</time>
</trkpt>
<trkpt lat="44.3358950" lon="9.1598490">
	<ele>195.00</ele>
	<time>2022-05-14T10:51:30.000Z</time>
</trkpt>
<trkpt lat="44.3358370" lon="9.1599540">
	<ele>195.00</ele>
	<time>2022-05-14T10:51:35.000Z</time>
</trkpt>
<trkpt lat="44.3358370" lon="9.1599540">
	<ele>195.20</ele>
	<time>2022-05-14T10:51:42.000Z</time>
</trkpt>
<trkpt lat="44.3358330" lon="9.1599620">
	<ele>195.40</ele>
	<time>2022-05-14T10:51:50.000Z</time>
</trkpt>
<trkpt lat="44.3357800" lon="9.1600010">
	<ele>195.40</ele>
	<time>2022-05-14T10:52:08.000Z</time>
</trkpt>
<trkpt lat="44.3357550" lon="9.1599620">
	<ele>195.40</ele>
	<time>2022-05-14T10:52:26.000Z</time>
</trkpt>
<trkpt lat="44.3357560" lon="9.1599190">
	<ele>195.40</ele>
	<time>2022-05-14T10:52:36.000Z</time>
</trkpt>
<trkpt lat="44.3357630" lon="9.1598640">
	<ele>195.40</ele>
	<time>2022-05-14T10:52:42.000Z</time>
</trkpt>
<trkpt lat="44.3357690" lon="9.1598610">
	<ele>195.40</ele>
	<time>2022-05-14T10:52:47.000Z</time>
</trkpt>
<trkpt lat="44.3357660" lon="9.1598520">
	<ele>195.40</ele>
	<time>2022-05-14T10:52:51.000Z</time>
</trkpt>
<trkpt lat="44.3357520" lon="9.1598110">
	<ele>195.40</ele>
	<time>2022-05-14T10:52:54.000Z</time>
</trkpt>
<trkpt lat="44.3357470" lon="9.1597930">
	<ele>195.40</ele>
	<time>2022-05-14T10:52:55.000Z</time>
</trkpt>
<trkpt lat="44.3357390" lon="9.1597360">
	<ele>195.40</ele>
	<time>2022-05-14T10:53:02.000Z</time>
</trkpt>
<trkpt lat="44.3357590" lon="9.1596950">
	<ele>195.40</ele>
	<time>2022-05-14T10:53:07.000Z</time>
</trkpt>
<trkpt lat="44.3357690" lon="9.1596720">
	<ele>195.40</ele>
	<time>2022-05-14T10:53:13.000Z</time>
</trkpt>
<trkpt lat="44.3357580" lon="9.1597100">
	<ele>195.40</ele>
	<time>2022-05-14T10:53:20.000Z</time>
</trkpt>
<trkpt lat="44.3357590" lon="9.1597290">
	<ele>195.40</ele>
	<time>2022-05-14T10:53:27.000Z</time>
</trkpt>
<trkpt lat="44.3357620" lon="9.1597820">
	<ele>195.40</ele>
	<time>2022-05-14T10:53:32.000Z</time>
</trkpt>
<trkpt lat="44.3357720" lon="9.1597890">
	<ele>195.40</ele>
	<time>2022-05-14T10:53:39.000Z</time>
</trkpt>
<trkpt lat="44.3357810" lon="9.1597670">
	<ele>195.40</ele>
	<time>2022-05-14T10:53:44.000Z</time>
</trkpt>
<trkpt lat="44.3357820" lon="9.1597650">
	<ele>195.40</ele>
	<time>2022-05-14T10:53:51.000Z</time>
</trkpt>
<trkpt lat="44.3357900" lon="9.1597640">
	<ele>195.40</ele>
	<time>2022-05-14T10:54:20.000Z</time>
</trkpt>
<trkpt lat="44.3357930" lon="9.1597710">
	<ele>195.40</ele>
	<time>2022-05-14T10:54:27.000Z</time>
</trkpt>
<trkpt lat="44.3357920" lon="9.1598010">
	<ele>195.40</ele>
	<time>2022-05-14T10:54:35.000Z</time>
</trkpt>
<trkpt lat="44.3357910" lon="9.1598370">
	<ele>195.40</ele>
	<time>2022-05-14T10:54:50.000Z</time>
</trkpt>
<trkpt lat="44.3357680" lon="9.1598470">
	<ele>195.40</ele>
	<time>2022-05-14T10:55:10.000Z</time>
</trkpt>
<trkpt lat="44.3357620" lon="9.1598670">
	<ele>195.40</ele>
	<time>2022-05-14T10:55:55.000Z</time>
</trkpt>
<trkpt lat="44.3357910" lon="9.1598400">
	<ele>195.40</ele>
	<time>2022-05-14T10:56:08.000Z</time>
</trkpt>
<trkpt lat="44.3358110" lon="9.1598440">
	<ele>195.40</ele>
	<time>2022-05-14T10:56:13.000Z</time>
</trkpt>
<trkpt lat="44.3358140" lon="9.1598460">
	<ele>195.40</ele>
	<time>2022-05-14T10:56:21.000Z</time>
</trkpt>
<trkpt lat="44.3358140" lon="9.1598460">
	<ele>195.40</ele>
	<time>2022-05-14T10:56:22.000Z</time>
</trkpt>
<trkpt lat="44.3358140" lon="9.1598460">
	<ele>195.40</ele>
	<time>2022-05-14T10:56:28.000Z</time>
</trkpt>
<trkpt lat="44.3358120" lon="9.1598580">
	<ele>195.40</ele>
	<time>2022-05-14T10:56:33.000Z</time>
</trkpt>
<trkpt lat="44.3358130" lon="9.1598580">
	<ele>195.40</ele>
	<time>2022-05-14T10:56:38.000Z</time>
</trkpt>
<trkpt lat="44.3358080" lon="9.1598310">
	<ele>195.40</ele>
	<time>2022-05-14T10:56:44.000Z</time>
</trkpt>
<trkpt lat="44.3358180" lon="9.1597780">
	<ele>195.40</ele>
	<time>2022-05-14T10:56:51.000Z</time>
</trkpt>
<trkpt lat="44.3357830" lon="9.1597500">
	<ele>195.40</ele>
	<time>2022-05-14T10:56:57.000Z</time>
</trkpt>
<trkpt lat="44.3357720" lon="9.1597110">
	<ele>195.40</ele>
	<time>2022-05-14T10:57:00.000Z</time>
</trkpt>
<trkpt lat="44.3357670" lon="9.1597050">
	<ele>195.40</ele>
	<time>2022-05-14T10:57:02.000Z</time>
</trkpt>
<trkpt lat="44.3357650" lon="9.1597060">
	<ele>195.40</ele>
	<time>2022-05-14T10:57:03.000Z</time>
</trkpt>
<trkpt lat="44.3357950" lon="9.1596620">
	<ele>195.40</ele>
	<time>2022-05-14T10:57:09.000Z</time>
</trkpt>
<trkpt lat="44.3358090" lon="9.1596530">
	<ele>195.40</ele>
	<time>2022-05-14T10:57:14.000Z</time>
</trkpt>
<trkpt lat="44.3358130" lon="9.1596530">
	<ele>195.40</ele>
	<time>2022-05-14T10:57:16.000Z</time>
</trkpt>
<trkpt lat="44.3358150" lon="9.1596650">
	<ele>195.40</ele>
	<time>2022-05-14T10:57:20.000Z</time>
</trkpt>
<trkpt lat="44.3358170" lon="9.1596560">
	<ele>195.40</ele>
	<time>2022-05-14T10:57:35.000Z</time>
</trkpt>
<trkpt lat="44.3358180" lon="9.1596560">
	<ele>195.40</ele>
	<time>2022-05-14T10:57:37.000Z</time>
</trkpt>
<trkpt lat="44.3358180" lon="9.1596900">
	<ele>195.40</ele>
	<time>2022-05-14T10:57:48.000Z</time>
</trkpt>
<trkpt lat="44.3358120" lon="9.1597220">
	<ele>195.40</ele>
	<time>2022-05-14T10:58:11.000Z</time>
</trkpt>
<trkpt lat="44.3358140" lon="9.1597360">
	<ele>195.40</ele>
	<time>2022-05-14T10:58:19.000Z</time>
</trkpt>
<trkpt lat="44.3358150" lon="9.1597380">
	<ele>195.40</ele>
	<time>2022-05-14T10:58:22.000Z</time>
</trkpt>
<trkpt lat="44.3358160" lon="9.1597390">
	<ele>195.40</ele>
	<time>2022-05-14T10:58:25.000Z</time>
</trkpt>
<trkpt lat="44.3358210" lon="9.1598300">
	<ele>195.40</ele>
	<time>2022-05-14T10:58:49.000Z</time>
</trkpt>
<trkpt lat="44.3357860" lon="9.1598420">
	<ele>195.40</ele>
	<time>2022-05-14T10:59:13.000Z</time>
</trkpt>
<trkpt lat="44.3357560" lon="9.1598480">
	<ele>195.40</ele>
	<time>2022-05-14T10:59:24.000Z</time>
</trkpt>
<trkpt lat="44.3357560" lon="9.1598530">
	<ele>195.40</ele>
	<time>2022-05-14T10:59:35.000Z</time>
</trkpt>
<trkpt lat="44.3357670" lon="9.1598680">
	<ele>195.40</ele>
	<time>2022-05-14T10:59:46.000Z</time>
</trkpt>
<trkpt lat="44.3357680" lon="9.1598770">
	<ele>195.40</ele>
	<time>2022-05-14T10:59:54.000Z</time>
</trkpt>
<trkpt lat="44.3357540" lon="9.1598870">
	<ele>195.40</ele>
	<time>2022-05-14T11:00:11.000Z</time>
</trkpt>
<trkpt lat="44.3357530" lon="9.1598870">
	<ele>195.40</ele>
	<time>2022-05-14T11:00:13.000Z</time>
</trkpt>
<trkpt lat="44.3357500" lon="9.1598860">
	<ele>195.40</ele>
	<time>2022-05-14T11:00:17.000Z</time>
</trkpt>
<trkpt lat="44.3357470" lon="9.1598770">
	<ele>195.40</ele>
	<time>2022-05-14T11:00:24.000Z</time>
</trkpt>
<trkpt lat="44.3357470" lon="9.1598760">
	<ele>195.40</ele>
	<time>2022-05-14T11:00:26.000Z</time>
</trkpt>
<trkpt lat="44.3357370" lon="9.1598740">
	<ele>195.40</ele>
	<time>2022-05-14T11:00:44.000Z</time>
</trkpt>
<trkpt lat="44.3357220" lon="9.1598660">
	<ele>195.40</ele>
	<time>2022-05-14T11:00:49.000Z</time>
</trkpt>
<trkpt lat="44.3357190" lon="9.1598590">
	<ele>195.40</ele>
	<time>2022-05-14T11:00:56.000Z</time>
</trkpt>
<trkpt lat="44.3357590" lon="9.1598500">
	<ele>195.40</ele>
	<time>2022-05-14T11:01:21.000Z</time>
</trkpt>
<trkpt lat="44.3357750" lon="9.1598470">
	<ele>195.40</ele>
	<time>2022-05-14T11:01:24.000Z</time>
</trkpt>
<trkpt lat="44.3357860" lon="9.1598380">
	<ele>195.40</ele>
	<time>2022-05-14T11:01:29.000Z</time>
</trkpt>
<trkpt lat="44.3357900" lon="9.1598430">
	<ele>195.40</ele>
	<time>2022-05-14T11:01:33.000Z</time>
</trkpt>
<trkpt lat="44.3357730" lon="9.1598340">
	<ele>195.40</ele>
	<time>2022-05-14T11:01:36.000Z</time>
</trkpt>
<trkpt lat="44.3357750" lon="9.1598310">
	<ele>195.40</ele>
	<time>2022-05-14T11:01:38.000Z</time>
</trkpt>
<trkpt lat="44.3357760" lon="9.1597820">
	<ele>195.40</ele>
	<time>2022-05-14T11:01:43.000Z</time>
</trkpt>
<trkpt lat="44.3357820" lon="9.1597580">
	<ele>195.40</ele>
	<time>2022-05-14T11:01:49.000Z</time>
</trkpt>
<trkpt lat="44.3357800" lon="9.1597530">
	<ele>195.40</ele>
	<time>2022-05-14T11:01:57.000Z</time>
</trkpt>
<trkpt lat="44.3357780" lon="9.1597620">
	<ele>195.40</ele>
	<time>2022-05-14T11:02:12.000Z</time>
</trkpt>
<trkpt lat="44.3357770" lon="9.1597570">
	<ele>195.40</ele>
	<time>2022-05-14T11:02:26.000Z</time>
</trkpt>
<trkpt lat="44.3357520" lon="9.1597540">
	<ele>195.40</ele>
	<time>2022-05-14T11:02:32.000Z</time>
</trkpt>
<trkpt lat="44.3357620" lon="9.1597230">
	<ele>195.40</ele>
	<time>2022-05-14T11:02:37.000Z</time>
</trkpt>
<trkpt lat="44.3357740" lon="9.1596910">
	<ele>195.40</ele>
	<time>2022-05-14T11:02:41.000Z</time>
</trkpt>
<trkpt lat="44.3357750" lon="9.1596780">
	<ele>195.40</ele>
	<time>2022-05-14T11:02:43.000Z</time>
</trkpt>
<trkpt lat="44.3357810" lon="9.1596760">
	<ele>195.40</ele>
	<time>2022-05-14T11:02:47.000Z</time>
</trkpt>
<trkpt lat="44.3357740" lon="9.1596740">
	<ele>195.40</ele>
	<time>2022-05-14T11:02:51.000Z</time>
</trkpt>
<trkpt lat="44.3357730" lon="9.1596710">
	<ele>195.40</ele>
	<time>2022-05-14T11:03:00.000Z</time>
</trkpt>
<trkpt lat="44.3357590" lon="9.1597190">
	<ele>195.40</ele>
	<time>2022-05-14T11:03:03.000Z</time>
</trkpt>
<trkpt lat="44.3357690" lon="9.1597680">
	<ele>195.40</ele>
	<time>2022-05-14T11:03:09.000Z</time>
</trkpt>
<trkpt lat="44.3359200" lon="9.1595420">
	<ele>195.40</ele>
	<time>2022-05-14T11:03:17.000Z</time>
</trkpt>
<trkpt lat="44.3360090" lon="9.1591690">
	<ele>195.40</ele>
	<time>2022-05-14T11:03:30.000Z</time>
</trkpt>
<trkpt lat="44.3360370" lon="9.1591610">
	<ele>195.40</ele>
	<time>2022-05-14T11:03:37.000Z</time>
</trkpt>
<trkpt lat="44.3359980" lon="9.1592680">
	<ele>195.40</ele>
	<time>2022-05-14T11:03:40.000Z</time>
</trkpt>
<trkpt lat="44.3359860" lon="9.1592870">
	<ele>195.40</ele>
	<time>2022-05-14T11:03:41.000Z</time>
</trkpt>
<trkpt lat="44.3359600" lon="9.1593260">
	<ele>195.40</ele>
	<time>2022-05-14T11:03:42.000Z</time>
</trkpt>
<trkpt lat="44.3359690" lon="9.1593060">
	<ele>197.20</ele>
	<time>2022-05-14T11:03:44.000Z</time>
</trkpt>
<trkpt lat="44.3359400" lon="9.1594020">
	<ele>197.80</ele>
	<time>2022-05-14T11:03:46.000Z</time>
</trkpt>
<trkpt lat="44.3359300" lon="9.1598410">
	<ele>198.00</ele>
	<time>2022-05-14T11:04:48.000Z</time>
</trkpt>
<trkpt lat="44.3359050" lon="9.1598130">
	<ele>197.80</ele>
	<time>2022-05-14T11:04:54.000Z</time>
</trkpt>
<trkpt lat="44.3357790" lon="9.1598550">
	<ele>197.60</ele>
	<time>2022-05-14T11:05:02.000Z</time>
</trkpt>
<trkpt lat="44.3357880" lon="9.1598400">
	<ele>197.60</ele>
	<time>2022-05-14T11:05:05.000Z</time>
</trkpt>
<trkpt lat="44.3357630" lon="9.1598830">
	<ele>197.60</ele>
	<time>2022-05-14T11:05:10.000Z</time>
</trkpt>
<trkpt lat="44.3357540" lon="9.1598980">
	<ele>197.80</ele>
	<time>2022-05-14T11:05:13.000Z</time>
</trkpt>
<trkpt lat="44.3357540" lon="9.1599020">
	<ele>197.80</ele>
	<time>2022-05-14T11:05:15.000Z</time>
</trkpt>
<trkpt lat="44.3357540" lon="9.1598870">
	<ele>197.80</ele>
	<time>2022-05-14T11:05:20.000Z</time>
</trkpt>
<trkpt lat="44.3359310" lon="9.1596650">
	<ele>197.40</ele>
	<time>2022-05-14T11:05:53.000Z</time>
</trkpt>
<trkpt lat="44.3357990" lon="9.1597220">
	<ele>197.40</ele>
	<time>2022-05-14T11:05:55.000Z</time>
</trkpt>
<trkpt lat="44.3357690" lon="9.1597550">
	<ele>197.40</ele>
	<time>2022-05-14T11:05:56.000Z</time>
</trkpt>
<trkpt lat="44.3357280" lon="9.1598300">
	<ele>197.40</ele>
	<time>2022-05-14T11:05:58.000Z</time>
</trkpt>
<trkpt lat="44.3357180" lon="9.1598280">
	<ele>197.40</ele>
	<time>2022-05-14T11:05:59.000Z</time>
</trkpt>
<trkpt lat="44.3357260" lon="9.1598310">
	<ele>197.40</ele>
	<time>2022-05-14T11:06:01.000Z</time>
</trkpt>
<trkpt lat="44.3357300" lon="9.1598440">
	<ele>197.60</ele>
	<time>2022-05-14T11:06:02.000Z</time>
</trkpt>
<trkpt lat="44.3357380" lon="9.1598560">
	<ele>197.80</ele>
	<time>2022-05-14T11:06:03.000Z</time>
</trkpt>
<trkpt lat="44.3357590" lon="9.1598400">
	<ele>197.40</ele>
	<time>2022-05-14T11:06:09.000Z</time>
</trkpt>
<trkpt lat="44.3357720" lon="9.1597950">
	<ele>197.40</ele>
	<time>2022-05-14T11:06:14.000Z</time>
</trkpt>
<trkpt lat="44.3357170" lon="9.1597820">
	<ele>197.40</ele>
	<time>2022-05-14T11:06:20.000Z</time>
</trkpt>
<trkpt lat="44.3357110" lon="9.1597750">
	<ele>197.40</ele>
	<time>2022-05-14T11:06:22.000Z</time>
</trkpt>
<trkpt lat="44.3356980" lon="9.1597570">
	<ele>197.40</ele>
	<time>2022-05-14T11:06:25.000Z</time>
</trkpt>
<trkpt lat="44.3356980" lon="9.1597650">
	<ele>197.40</ele>
	<time>2022-05-14T11:06:30.000Z</time>
</trkpt>
<trkpt lat="44.3357000" lon="9.1597700">
	<ele>197.40</ele>
	<time>2022-05-14T11:06:31.000Z</time>
</trkpt>
<trkpt lat="44.3356920" lon="9.1598060">
	<ele>197.40</ele>
	<time>2022-05-14T11:06:38.000Z</time>
</trkpt>
<trkpt lat="44.3357080" lon="9.1597820">
	<ele>197.40</ele>
	<time>2022-05-14T11:06:46.000Z</time>
</trkpt>
<trkpt lat="44.3357270" lon="9.1598000">
	<ele>197.40</ele>
	<time>2022-05-14T11:06:51.000Z</time>
</trkpt>
<trkpt lat="44.3357360" lon="9.1597960">
	<ele>197.40</ele>
	<time>2022-05-14T11:06:53.000Z</time>
</trkpt>
<trkpt lat="44.3357380" lon="9.1598240">
	<ele>197.40</ele>
	<time>2022-05-14T11:06:58.000Z</time>
</trkpt>
<trkpt lat="44.3357420" lon="9.1598360">
	<ele>197.40</ele>
	<time>2022-05-14T11:07:03.000Z</time>
</trkpt>
<trkpt lat="44.3357310" lon="9.1598300">
	<ele>197.40</ele>
	<time>2022-05-14T11:07:05.000Z</time>
</trkpt>
<trkpt lat="44.3357300" lon="9.1598290">
	<ele>197.40</ele>
	<time>2022-05-14T11:07:09.000Z</time>
</trkpt>
<trkpt lat="44.3357220" lon="9.1598330">
	<ele>197.40</ele>
	<time>2022-05-14T11:07:14.000Z</time>
</trkpt>
<trkpt lat="44.3357220" lon="9.1598330">
	<ele>197.40</ele>
	<time>2022-05-14T11:07:17.000Z</time>
</trkpt>
<trkpt lat="44.3357290" lon="9.1598330">
	<ele>197.40</ele>
	<time>2022-05-14T11:07:30.000Z</time>
</trkpt>
<trkpt lat="44.3357290" lon="9.1598330">
	<ele>197.40</ele>
	<time>2022-05-14T11:07:34.000Z</time>
</trkpt>
<trkpt lat="44.3357290" lon="9.1598330">
	<ele>197.40</ele>
	<time>2022-05-14T11:07:37.000Z</time>
</trkpt>
<trkpt lat="44.3357270" lon="9.1598270">
	<ele>197.40</ele>
	<time>2022-05-14T11:07:46.000Z</time>
</trkpt>
<trkpt lat="44.3357270" lon="9.1598250">
	<ele>197.40</ele>
	<time>2022-05-14T11:07:49.000Z</time>
</trkpt>
<trkpt lat="44.3357230" lon="9.1598100">
	<ele>197.40</ele>
	<time>2022-05-14T11:07:54.000Z</time>
</trkpt>
<trkpt lat="44.3357240" lon="9.1598000">
	<ele>197.40</ele>
	<time>2022-05-14T11:07:56.000Z</time>
</trkpt>
<trkpt lat="44.3357230" lon="9.1597970">
	<ele>197.40</ele>
	<time>2022-05-14T11:07:57.000Z</time>
</trkpt>
<trkpt lat="44.3357210" lon="9.1597930">
	<ele>197.40</ele>
	<time>2022-05-14T11:07:58.000Z</time>
</trkpt>
<trkpt lat="44.3357200" lon="9.1597980">
	<ele>197.40</ele>
	<time>2022-05-14T11:08:00.000Z</time>
</trkpt>
<trkpt lat="44.3357310" lon="9.1598230">
	<ele>197.40</ele>
	<time>2022-05-14T11:08:08.000Z</time>
</trkpt>
<trkpt lat="44.3357460" lon="9.1598260">
	<ele>197.40</ele>
	<time>2022-05-14T11:08:13.000Z</time>
</trkpt>
<trkpt lat="44.3357620" lon="9.1598020">
	<ele>197.40</ele>
	<time>2022-05-14T11:08:18.000Z</time>
</trkpt>
<trkpt lat="44.3357630" lon="9.1598040">
	<ele>197.40</ele>
	<time>2022-05-14T11:08:24.000Z</time>
</trkpt>
<trkpt lat="44.3357660" lon="9.1598020">
	<ele>197.40</ele>
	<time>2022-05-14T11:08:29.000Z</time>
</trkpt>
<trkpt lat="44.3358380" lon="9.1597380">
	<ele>197.40</ele>
	<time>2022-05-14T11:08:36.000Z</time>
</trkpt>
<trkpt lat="44.3358510" lon="9.1597320">
	<ele>197.40</ele>
	<time>2022-05-14T11:08:37.000Z</time>
</trkpt>
<trkpt lat="44.3359130" lon="9.1596950">
	<ele>198.40</ele>
	<time>2022-05-14T11:08:43.000Z</time>
</trkpt>
<trkpt lat="44.3359270" lon="9.1596600">
	<ele>198.20</ele>
	<time>2022-05-14T11:08:46.000Z</time>
</trkpt>
<trkpt lat="44.3359280" lon="9.1596510">
	<ele>198.20</ele>
	<time>2022-05-14T11:08:47.000Z</time>
</trkpt>
<trkpt lat="44.3359760" lon="9.1595700">
	<ele>197.60</ele>
	<time>2022-05-14T11:08:54.000Z</time>
</trkpt>
<trkpt lat="44.3360090" lon="9.1594420">
	<ele>197.80</ele>
	<time>2022-05-14T11:09:02.000Z</time>
</trkpt>
<trkpt lat="44.3360150" lon="9.1593960">
	<ele>197.80</ele>
	<time>2022-05-14T11:09:06.000Z</time>
</trkpt>
<trkpt lat="44.3360310" lon="9.1593510">
	<ele>197.80</ele>
	<time>2022-05-14T11:09:10.000Z</time>
</trkpt>
<trkpt lat="44.3360500" lon="9.1592880">
	<ele>198.00</ele>
	<time>2022-05-14T11:09:14.000Z</time>
</trkpt>
<trkpt lat="44.3360540" lon="9.1592740">
	<ele>198.00</ele>
	<time>2022-05-14T11:09:15.000Z</time>
</trkpt>
<trkpt lat="44.3360590" lon="9.1592640">
	<ele>198.00</ele>
	<time>2022-05-14T11:09:16.000Z</time>
</trkpt>
<trkpt lat="44.3360670" lon="9.1592380">
	<ele>197.80</ele>
	<time>2022-05-14T11:09:18.000Z</time>
</trkpt>
<trkpt lat="44.3360770" lon="9.1591690">
	<ele>197.60</ele>
	<time>2022-05-14T11:09:22.000Z</time>
</trkpt>
<trkpt lat="44.3360800" lon="9.1591590">
	<ele>197.60</ele>
	<time>2022-05-14T11:09:23.000Z</time>
</trkpt>
<trkpt lat="44.3360910" lon="9.1591240">
	<ele>197.60</ele>
	<time>2022-05-14T11:09:26.000Z</time>
</trkpt>
<trkpt lat="44.3361030" lon="9.1590970">
	<ele>197.60</ele>
	<time>2022-05-14T11:09:28.000Z</time>
</trkpt>
<trkpt lat="44.3361170" lon="9.1590700">
	<ele>197.60</ele>
	<time>2022-05-14T11:09:30.000Z</time>
</trkpt>
<trkpt lat="44.3361470" lon="9.1590230">
	<ele>197.60</ele>
	<time>2022-05-14T11:09:34.000Z</time>
</trkpt>
<trkpt lat="44.3362340" lon="9.1588500">
	<ele>198.00</ele>
	<time>2022-05-14T11:09:45.000Z</time>
</trkpt>
<trkpt lat="44.3362810" lon="9.1587620">
	<ele>198.40</ele>
	<time>2022-05-14T11:09:52.000Z</time>
</trkpt>
<trkpt lat="44.3362870" lon="9.1587560">
	<ele>198.40</ele>
	<time>2022-05-14T11:09:53.000Z</time>
</trkpt>
<trkpt lat="44.3363150" lon="9.1587210">
	<ele>198.00</ele>
	<time>2022-05-14T11:09:56.000Z</time>
</trkpt>
<trkpt lat="44.3363420" lon="9.1586680">
	<ele>198.00</ele>
	<time>2022-05-14T11:10:00.000Z</time>
</trkpt>
<trkpt lat="44.3363670" lon="9.1586310">
	<ele>198.00</ele>
	<time>2022-05-14T11:10:03.000Z</time>
</trkpt>
<trkpt lat="44.3363980" lon="9.1586090">
	<ele>198.00</ele>
	<time>2022-05-14T11:10:05.000Z</time>
</trkpt>
<trkpt lat="44.3364520" lon="9.1585240">
	<ele>198.00</ele>
	<time>2022-05-14T11:10:13.000Z</time>
</trkpt>
<trkpt lat="44.3364620" lon="9.1585090">
	<ele>198.20</ele>
	<time>2022-05-14T11:10:15.000Z</time>
</trkpt>
<trkpt lat="44.3364980" lon="9.1584770">
	<ele>198.20</ele>
	<time>2022-05-14T11:10:19.000Z</time>
</trkpt>
<trkpt lat="44.3365320" lon="9.1584560">
	<ele>198.40</ele>
	<time>2022-05-14T11:10:24.000Z</time>
</trkpt>
<trkpt lat="44.3365440" lon="9.1584550">
	<ele>198.40</ele>
	<time>2022-05-14T11:10:26.000Z</time>
</trkpt>
<trkpt lat="44.3365540" lon="9.1584450">
	<ele>198.40</ele>
	<time>2022-05-14T11:10:27.000Z</time>
</trkpt>
<trkpt lat="44.3365760" lon="9.1584410">
	<ele>198.40</ele>
	<time>2022-05-14T11:10:31.000Z</time>
</trkpt>
<trkpt lat="44.3365980" lon="9.1584330">
	<ele>198.20</ele>
	<time>2022-05-14T11:10:33.000Z</time>
</trkpt>
<trkpt lat="44.3366260" lon="9.1584320">
	<ele>198.40</ele>
	<time>2022-05-14T11:10:36.000Z</time>
</trkpt>
<trkpt lat="44.3366480" lon="9.1584390">
	<ele>198.60</ele>
	<time>2022-05-14T11:10:38.000Z</time>
</trkpt>
<trkpt lat="44.3366570" lon="9.1584410">
	<ele>198.40</ele>
	<time>2022-05-14T11:10:41.000Z</time>
</trkpt>
<trkpt lat="44.3366640" lon="9.1584440">
	<ele>198.40</ele>
	<time>2022-05-14T11:10:43.000Z</time>
</trkpt>
<trkpt lat="44.3366690" lon="9.1584440">
	<ele>198.40</ele>
	<time>2022-05-14T11:10:44.000Z</time>
</trkpt>
<trkpt lat="44.3366730" lon="9.1584410">
	<ele>198.40</ele>
	<time>2022-05-14T11:10:45.000Z</time>
</trkpt>
<trkpt lat="44.3367030" lon="9.1584340">
	<ele>198.40</ele>
	<time>2022-05-14T11:10:48.000Z</time>
</trkpt>
<trkpt lat="44.3367350" lon="9.1584050">
	<ele>198.40</ele>
	<time>2022-05-14T11:10:51.000Z</time>
</trkpt>
<trkpt lat="44.3367660" lon="9.1583570">
	<ele>198.40</ele>
	<time>2022-05-14T11:10:55.000Z</time>
</trkpt>
<trkpt lat="44.3367940" lon="9.1583350">
	<ele>198.40</ele>
	<time>2022-05-14T11:10:57.000Z</time>
</trkpt>
<trkpt lat="44.3368540" lon="9.1582880">
	<ele>198.00</ele>
	<time>2022-05-14T11:11:03.000Z</time>
</trkpt>
<trkpt lat="44.3368600" lon="9.1582840">
	<ele>198.00</ele>
	<time>2022-05-14T11:11:04.000Z</time>
</trkpt>
<trkpt lat="44.3368580" lon="9.1582910">
	<ele>197.60</ele>
	<time>2022-05-14T11:11:06.000Z</time>
</trkpt>
<trkpt lat="44.3368590" lon="9.1582920">
	<ele>197.00</ele>
	<time>2022-05-14T11:11:08.000Z</time>
</trkpt>
<trkpt lat="44.3368630" lon="9.1582840">
	<ele>196.80</ele>
	<time>2022-05-14T11:11:09.000Z</time>
</trkpt>
<trkpt lat="44.3368650" lon="9.1582840">
	<ele>196.60</ele>
	<time>2022-05-14T11:11:10.000Z</time>
</trkpt>
<trkpt lat="44.3368670" lon="9.1582600">
	<ele>195.80</ele>
	<time>2022-05-14T11:11:12.000Z</time>
</trkpt>
<trkpt lat="44.3368780" lon="9.1582560">
	<ele>195.40</ele>
	<time>2022-05-14T11:11:14.000Z</time>
</trkpt>
<trkpt lat="44.3368920" lon="9.1582590">
	<ele>195.20</ele>
	<time>2022-05-14T11:11:15.000Z</time>
</trkpt>
<trkpt lat="44.3369520" lon="9.1582580">
	<ele>195.20</ele>
	<time>2022-05-14T11:11:20.000Z</time>
</trkpt>
<trkpt lat="44.3369600" lon="9.1582490">
	<ele>195.20</ele>
	<time>2022-05-14T11:11:21.000Z</time>
</trkpt>
<trkpt lat="44.3369690" lon="9.1582170">
	<ele>195.00</ele>
	<time>2022-05-14T11:11:23.000Z</time>
</trkpt>
<trkpt lat="44.3369710" lon="9.1582110">
	<ele>194.80</ele>
	<time>2022-05-14T11:11:24.000Z</time>
</trkpt>
<trkpt lat="44.3369790" lon="9.1582170">
	<ele>194.80</ele>
	<time>2022-05-14T11:11:25.000Z</time>
</trkpt>
<trkpt lat="44.3370450" lon="9.1582240">
	<ele>194.80</ele>
	<time>2022-05-14T11:11:28.000Z</time>
</trkpt>
<trkpt lat="44.3370660" lon="9.1581900">
	<ele>194.80</ele>
	<time>2022-05-14T11:11:32.000Z</time>
</trkpt>
<trkpt lat="44.3370940" lon="9.1582070">
	<ele>194.40</ele>
	<time>2022-05-14T11:11:35.000Z</time>
</trkpt>
<trkpt lat="44.3371190" lon="9.1582000">
	<ele>194.20</ele>
	<time>2022-05-14T11:11:38.000Z</time>
</trkpt>
<trkpt lat="44.3371880" lon="9.1581990">
	<ele>194.00</ele>
	<time>2022-05-14T11:11:42.000Z</time>
</trkpt>
<trkpt lat="44.3372010" lon="9.1581950">
	<ele>194.00</ele>
	<time>2022-05-14T11:11:43.000Z</time>
</trkpt>
<trkpt lat="44.3372160" lon="9.1581890">
	<ele>193.80</ele>
	<time>2022-05-14T11:11:44.000Z</time>
</trkpt>
<trkpt lat="44.3373030" lon="9.1581700">
	<ele>192.60</ele>
	<time>2022-05-14T11:11:50.000Z</time>
</trkpt>
<trkpt lat="44.3373260" lon="9.1581670">
	<ele>192.00</ele>
	<time>2022-05-14T11:11:52.000Z</time>
</trkpt>
<trkpt lat="44.3373530" lon="9.1581710">
	<ele>191.40</ele>
	<time>2022-05-14T11:11:54.000Z</time>
</trkpt>
<trkpt lat="44.3373850" lon="9.1581840">
	<ele>190.40</ele>
	<time>2022-05-14T11:11:59.000Z</time>
</trkpt>
<trkpt lat="44.3373890" lon="9.1581800">
	<ele>190.00</ele>
	<time>2022-05-14T11:12:00.000Z</time>
</trkpt>
<trkpt lat="44.3373860" lon="9.1581890">
	<ele>189.60</ele>
	<time>2022-05-14T11:12:02.000Z</time>
</trkpt>
<trkpt lat="44.3373790" lon="9.1581990">
	<ele>189.40</ele>
	<time>2022-05-14T11:12:03.000Z</time>
</trkpt>
<trkpt lat="44.3373710" lon="9.1582180">
	<ele>189.00</ele>
	<time>2022-05-14T11:12:05.000Z</time>
</trkpt>
<trkpt lat="44.3373660" lon="9.1582270">
	<ele>188.80</ele>
	<time>2022-05-14T11:12:06.000Z</time>
</trkpt>
<trkpt lat="44.3373630" lon="9.1582320">
	<ele>188.60</ele>
	<time>2022-05-14T11:12:07.000Z</time>
</trkpt>
<trkpt lat="44.3373560" lon="9.1582350">
	<ele>188.40</ele>
	<time>2022-05-14T11:12:08.000Z</time>
</trkpt>
<trkpt lat="44.3373530" lon="9.1582430">
	<ele>188.00</ele>
	<time>2022-05-14T11:12:09.000Z</time>
</trkpt>
<trkpt lat="44.3373420" lon="9.1582700">
	<ele>187.20</ele>
	<time>2022-05-14T11:12:12.000Z</time>
</trkpt>
<trkpt lat="44.3373410" lon="9.1582780">
	<ele>187.20</ele>
	<time>2022-05-14T11:12:13.000Z</time>
</trkpt>
<trkpt lat="44.3373390" lon="9.1582860">
	<ele>187.00</ele>
	<time>2022-05-14T11:12:14.000Z</time>
</trkpt>
<trkpt lat="44.3373390" lon="9.1582930">
	<ele>186.80</ele>
	<time>2022-05-14T11:12:15.000Z</time>
</trkpt>
<trkpt lat="44.3373290" lon="9.1583290">
	<ele>185.80</ele>
	<time>2022-05-14T11:12:19.000Z</time>
</trkpt>
<trkpt lat="44.3373320" lon="9.1583590">
	<ele>185.20</ele>
	<time>2022-05-14T11:12:21.000Z</time>
</trkpt>
<trkpt lat="44.3373480" lon="9.1583880">
	<ele>184.60</ele>
	<time>2022-05-14T11:12:24.000Z</time>
</trkpt>
<trkpt lat="44.3373450" lon="9.1583970">
	<ele>184.20</ele>
	<time>2022-05-14T11:12:25.000Z</time>
</trkpt>
<trkpt lat="44.3373390" lon="9.1584100">
	<ele>184.00</ele>
	<time>2022-05-14T11:12:26.000Z</time>
</trkpt>
<trkpt lat="44.3373310" lon="9.1584340">
	<ele>183.60</ele>
	<time>2022-05-14T11:12:28.000Z</time>
</trkpt>
<trkpt lat="44.3373260" lon="9.1584490">
	<ele>183.00</ele>
	<time>2022-05-14T11:12:30.000Z</time>
</trkpt>
<trkpt lat="44.3373150" lon="9.1584630">
	<ele>182.60</ele>
	<time>2022-05-14T11:12:32.000Z</time>
</trkpt>
<trkpt lat="44.3373130" lon="9.1584710">
	<ele>182.40</ele>
	<time>2022-05-14T11:12:33.000Z</time>
</trkpt>
<trkpt lat="44.3373000" lon="9.1585260">
	<ele>181.60</ele>
	<time>2022-05-14T11:12:37.000Z</time>
</trkpt>
<trkpt lat="44.3372980" lon="9.1585410">
	<ele>181.40</ele>
	<time>2022-05-14T11:12:38.000Z</time>
</trkpt>
<trkpt lat="44.3372940" lon="9.1585490">
	<ele>181.20</ele>
	<time>2022-05-14T11:12:39.000Z</time>
</trkpt>
<trkpt lat="44.3372810" lon="9.1585890">
	<ele>180.20</ele>
	<time>2022-05-14T11:12:44.000Z</time>
</trkpt>
<trkpt lat="44.3372670" lon="9.1586210">
	<ele>179.80</ele>
	<time>2022-05-14T11:12:47.000Z</time>
</trkpt>
<trkpt lat="44.3372430" lon="9.1586390">
	<ele>179.00</ele>
	<time>2022-05-14T11:12:52.000Z</time>
</trkpt>
<trkpt lat="44.3372380" lon="9.1586340">
	<ele>178.60</ele>
	<time>2022-05-14T11:12:54.000Z</time>
</trkpt>
<trkpt lat="44.3372210" lon="9.1586390">
	<ele>178.00</ele>
	<time>2022-05-14T11:12:56.000Z</time>
</trkpt>
<trkpt lat="44.3372110" lon="9.1586480">
	<ele>177.60</ele>
	<time>2022-05-14T11:12:57.000Z</time>
</trkpt>
<trkpt lat="44.3371990" lon="9.1586630">
	<ele>177.00</ele>
	<time>2022-05-14T11:12:59.000Z</time>
</trkpt>
<trkpt lat="44.3372000" lon="9.1586700">
	<ele>177.00</ele>
	<time>2022-05-14T11:13:00.000Z</time>
</trkpt>
<trkpt lat="44.3371990" lon="9.1586840">
	<ele>176.60</ele>
	<time>2022-05-14T11:13:02.000Z</time>
</trkpt>
<trkpt lat="44.3371930" lon="9.1587030">
	<ele>176.20</ele>
	<time>2022-05-14T11:13:04.000Z</time>
</trkpt>
<trkpt lat="44.3371930" lon="9.1587140">
	<ele>175.80</ele>
	<time>2022-05-14T11:13:05.000Z</time>
</trkpt>
<trkpt lat="44.3371880" lon="9.1587240">
	<ele>175.40</ele>
	<time>2022-05-14T11:13:06.000Z</time>
</trkpt>
<trkpt lat="44.3371820" lon="9.1587530">
	<ele>174.60</ele>
	<time>2022-05-14T11:13:09.000Z</time>
</trkpt>
<trkpt lat="44.3371970" lon="9.1587570">
	<ele>174.20</ele>
	<time>2022-05-14T11:13:11.000Z</time>
</trkpt>
<trkpt lat="44.3372070" lon="9.1587590">
	<ele>174.00</ele>
	<time>2022-05-14T11:13:12.000Z</time>
</trkpt>
<trkpt lat="44.3372120" lon="9.1587610">
	<ele>173.80</ele>
	<time>2022-05-14T11:13:13.000Z</time>
</trkpt>
<trkpt lat="44.3372160" lon="9.1587630">
	<ele>173.40</ele>
	<time>2022-05-14T11:13:14.000Z</time>
</trkpt>
<trkpt lat="44.3372340" lon="9.1587710">
	<ele>172.40</ele>
	<time>2022-05-14T11:13:18.000Z</time>
</trkpt>
<trkpt lat="44.3372370" lon="9.1587740">
	<ele>172.20</ele>
	<time>2022-05-14T11:13:19.000Z</time>
</trkpt>
<trkpt lat="44.3372920" lon="9.1587760">
	<ele>170.80</ele>
	<time>2022-05-14T11:13:24.000Z</time>
</trkpt>
<trkpt lat="44.3373020" lon="9.1587800">
	<ele>170.60</ele>
	<time>2022-05-14T11:13:25.000Z</time>
</trkpt>
<trkpt lat="44.3373120" lon="9.1587830">
	<ele>170.40</ele>
	<time>2022-05-14T11:13:26.000Z</time>
</trkpt>
<trkpt lat="44.3373240" lon="9.1587840">
	<ele>170.20</ele>
	<time>2022-05-14T11:13:27.000Z</time>
</trkpt>
<trkpt lat="44.3373380" lon="9.1587840">
	<ele>170.00</ele>
	<time>2022-05-14T11:13:28.000Z</time>
</trkpt>
<trkpt lat="44.3373480" lon="9.1587800">
	<ele>169.80</ele>
	<time>2022-05-14T11:13:29.000Z</time>
</trkpt>
<trkpt lat="44.3373890" lon="9.1587690">
	<ele>168.80</ele>
	<time>2022-05-14T11:13:34.000Z</time>
</trkpt>
<trkpt lat="44.3374260" lon="9.1588170">
	<ele>167.40</ele>
	<time>2022-05-14T11:13:40.000Z</time>
</trkpt>
<trkpt lat="44.3374510" lon="9.1588280">
	<ele>167.00</ele>
	<time>2022-05-14T11:13:42.000Z</time>
</trkpt>
<trkpt lat="44.3374680" lon="9.1588270">
	<ele>166.80</ele>
	<time>2022-05-14T11:13:43.000Z</time>
</trkpt>
<trkpt lat="44.3374950" lon="9.1588230">
	<ele>166.40</ele>
	<time>2022-05-14T11:13:45.000Z</time>
</trkpt>
<trkpt lat="44.3375180" lon="9.1588380">
	<ele>165.20</ele>
	<time>2022-05-14T11:13:49.000Z</time>
</trkpt>
<trkpt lat="44.3375180" lon="9.1588460">
	<ele>165.00</ele>
	<time>2022-05-14T11:13:50.000Z</time>
</trkpt>
<trkpt lat="44.3375530" lon="9.1588520">
	<ele>164.00</ele>
	<time>2022-05-14T11:13:53.000Z</time>
</trkpt>
<trkpt lat="44.3375710" lon="9.1588850">
	<ele>162.80</ele>
	<time>2022-05-14T11:13:58.000Z</time>
</trkpt>
<trkpt lat="44.3375740" lon="9.1588990">
	<ele>162.20</ele>
	<time>2022-05-14T11:14:00.000Z</time>
</trkpt>
<trkpt lat="44.3375730" lon="9.1589410">
	<ele>161.60</ele>
	<time>2022-05-14T11:14:03.000Z</time>
</trkpt>
<trkpt lat="44.3375760" lon="9.1589520">
	<ele>161.40</ele>
	<time>2022-05-14T11:14:04.000Z</time>
</trkpt>
<trkpt lat="44.3375760" lon="9.1589790">
	<ele>161.20</ele>
	<time>2022-05-14T11:14:06.000Z</time>
</trkpt>
<trkpt lat="44.3375790" lon="9.1590010">
	<ele>161.00</ele>
	<time>2022-05-14T11:14:08.000Z</time>
</trkpt>
<trkpt lat="44.3375790" lon="9.1590280">
	<ele>160.40</ele>
	<time>2022-05-14T11:14:10.000Z</time>
</trkpt>
<trkpt lat="44.3375790" lon="9.1590540">
	<ele>160.20</ele>
	<time>2022-05-14T11:14:12.000Z</time>
</trkpt>
<trkpt lat="44.3375840" lon="9.1590650">
	<ele>160.00</ele>
	<time>2022-05-14T11:14:13.000Z</time>
</trkpt>
<trkpt lat="44.3375960" lon="9.1590850">
	<ele>159.60</ele>
	<time>2022-05-14T11:14:15.000Z</time>
</trkpt>
<trkpt lat="44.3376040" lon="9.1590890">
	<ele>159.40</ele>
	<time>2022-05-14T11:14:16.000Z</time>
</trkpt>
<trkpt lat="44.3376320" lon="9.1590830">
	<ele>159.00</ele>
	<time>2022-05-14T11:14:19.000Z</time>
</trkpt>
<trkpt lat="44.3376500" lon="9.1590580">
	<ele>158.60</ele>
	<time>2022-05-14T11:14:21.000Z</time>
</trkpt>
<trkpt lat="44.3376690" lon="9.1590480">
	<ele>158.20</ele>
	<time>2022-05-14T11:14:23.000Z</time>
</trkpt>
<trkpt lat="44.3376750" lon="9.1590440">
	<ele>157.80</ele>
	<time>2022-05-14T11:14:24.000Z</time>
</trkpt>
<trkpt lat="44.3376850" lon="9.1590370">
	<ele>157.60</ele>
	<time>2022-05-14T11:14:25.000Z</time>
</trkpt>
<trkpt lat="44.3377050" lon="9.1590300">
	<ele>157.00</ele>
	<time>2022-05-14T11:14:27.000Z</time>
</trkpt>
<trkpt lat="44.3377160" lon="9.1590220">
	<ele>156.60</ele>
	<time>2022-05-14T11:14:29.000Z</time>
</trkpt>
<trkpt lat="44.3377340" lon="9.1590170">
	<ele>156.20</ele>
	<time>2022-05-14T11:14:31.000Z</time>
</trkpt>
<trkpt lat="44.3377400" lon="9.1590160">
	<ele>155.80</ele>
	<time>2022-05-14T11:14:32.000Z</time>
</trkpt>
<trkpt lat="44.3377590" lon="9.1590170">
	<ele>155.20</ele>
	<time>2022-05-14T11:14:34.000Z</time>
</trkpt>
<trkpt lat="44.3377770" lon="9.1590070">
	<ele>154.80</ele>
	<time>2022-05-14T11:14:36.000Z</time>
</trkpt>
<trkpt lat="44.3377850" lon="9.1590080">
	<ele>154.60</ele>
	<time>2022-05-14T11:14:37.000Z</time>
</trkpt>
<trkpt lat="44.3378130" lon="9.1590200">
	<ele>153.80</ele>
	<time>2022-05-14T11:14:41.000Z</time>
</trkpt>
<trkpt lat="44.3378220" lon="9.1590210">
	<ele>153.20</ele>
	<time>2022-05-14T11:14:43.000Z</time>
</trkpt>
<trkpt lat="44.3378430" lon="9.1590210">
	<ele>152.60</ele>
	<time>2022-05-14T11:14:46.000Z</time>
</trkpt>
<trkpt lat="44.3378850" lon="9.1590380">
	<ele>151.20</ele>
	<time>2022-05-14T11:14:51.000Z</time>
</trkpt>
<trkpt lat="44.3378930" lon="9.1590410">
	<ele>151.00</ele>
	<time>2022-05-14T11:14:52.000Z</time>
</trkpt>
<trkpt lat="44.3379030" lon="9.1590450">
	<ele>150.40</ele>
	<time>2022-05-14T11:14:55.000Z</time>
</trkpt>
<trkpt lat="44.3379050" lon="9.1590470">
	<ele>150.00</ele>
	<time>2022-05-14T11:14:56.000Z</time>
</trkpt>
<trkpt lat="44.3379360" lon="9.1590770">
	<ele>148.80</ele>
	<time>2022-05-14T11:15:00.000Z</time>
</trkpt>
<trkpt lat="44.3379380" lon="9.1590800">
	<ele>148.60</ele>
	<time>2022-05-14T11:15:01.000Z</time>
</trkpt>
<trkpt lat="44.3379450" lon="9.1591070">
	<ele>147.60</ele>
	<time>2022-05-14T11:15:04.000Z</time>
</trkpt>
<trkpt lat="44.3379610" lon="9.1591270">
	<ele>146.60</ele>
	<time>2022-05-14T11:15:08.000Z</time>
</trkpt>
<trkpt lat="44.3379780" lon="9.1591640">
	<ele>145.20</ele>
	<time>2022-05-14T11:15:12.000Z</time>
</trkpt>
<trkpt lat="44.3379840" lon="9.1591720">
	<ele>145.00</ele>
	<time>2022-05-14T11:15:13.000Z</time>
</trkpt>
<trkpt lat="44.3380080" lon="9.1592070">
	<ele>144.00</ele>
	<time>2022-05-14T11:15:17.000Z</time>
</trkpt>
<trkpt lat="44.3380240" lon="9.1592230">
	<ele>143.20</ele>
	<time>2022-05-14T11:15:20.000Z</time>
</trkpt>
<trkpt lat="44.3380280" lon="9.1592260">
	<ele>142.80</ele>
	<time>2022-05-14T11:15:21.000Z</time>
</trkpt>
<trkpt lat="44.3380200" lon="9.1592540">
	<ele>142.00</ele>
	<time>2022-05-14T11:15:25.000Z</time>
</trkpt>
<trkpt lat="44.3380230" lon="9.1592660">
	<ele>141.80</ele>
	<time>2022-05-14T11:15:26.000Z</time>
</trkpt>
<trkpt lat="44.3380080" lon="9.1593180">
	<ele>140.60</ele>
	<time>2022-05-14T11:15:31.000Z</time>
</trkpt>
<trkpt lat="44.3380080" lon="9.1593270">
	<ele>140.60</ele>
	<time>2022-05-14T11:15:32.000Z</time>
</trkpt>
<trkpt lat="44.3379800" lon="9.1593790">
	<ele>139.40</ele>
	<time>2022-05-14T11:15:37.000Z</time>
</trkpt>
<trkpt lat="44.3379710" lon="9.1594080">
	<ele>139.00</ele>
	<time>2022-05-14T11:15:40.000Z</time>
</trkpt>
<trkpt lat="44.3379550" lon="9.1594270">
	<ele>138.40</ele>
	<time>2022-05-14T11:15:42.000Z</time>
</trkpt>
<trkpt lat="44.3379300" lon="9.1594630">
	<ele>137.80</ele>
	<time>2022-05-14T11:15:46.000Z</time>
</trkpt>
<trkpt lat="44.3379250" lon="9.1594700">
	<ele>137.60</ele>
	<time>2022-05-14T11:15:47.000Z</time>
</trkpt>
<trkpt lat="44.3379210" lon="9.1594750">
	<ele>137.40</ele>
	<time>2022-05-14T11:15:48.000Z</time>
</trkpt>
<trkpt lat="44.3379060" lon="9.1594830">
	<ele>137.40</ele>
	<time>2022-05-14T11:15:49.000Z</time>
</trkpt>
<trkpt lat="44.3378990" lon="9.1594860">
	<ele>137.00</ele>
	<time>2022-05-14T11:15:50.000Z</time>
</trkpt>
<trkpt lat="44.3378800" lon="9.1595040">
	<ele>136.60</ele>
	<time>2022-05-14T11:15:52.000Z</time>
</trkpt>
<trkpt lat="44.3378680" lon="9.1595090">
	<ele>136.40</ele>
	<time>2022-05-14T11:15:54.000Z</time>
</trkpt>
<trkpt lat="44.3378590" lon="9.1595190">
	<ele>136.00</ele>
	<time>2022-05-14T11:15:56.000Z</time>
</trkpt>
<trkpt lat="44.3378530" lon="9.1595330">
	<ele>135.40</ele>
	<time>2022-05-14T11:16:00.000Z</time>
</trkpt>
<trkpt lat="44.3378510" lon="9.1595340">
	<ele>135.40</ele>
	<time>2022-05-14T11:16:01.000Z</time>
</trkpt>
<trkpt lat="44.3378830" lon="9.1595110">
	<ele>134.40</ele>
	<time>2022-05-14T11:16:07.000Z</time>
</trkpt>
<trkpt lat="44.3378910" lon="9.1595040">
	<ele>134.20</ele>
	<time>2022-05-14T11:16:08.000Z</time>
</trkpt>
<trkpt lat="44.3379560" lon="9.1594730">
	<ele>133.20</ele>
	<time>2022-05-14T11:16:15.000Z</time>
</trkpt>
<trkpt lat="44.3379630" lon="9.1594670">
	<ele>133.20</ele>
	<time>2022-05-14T11:16:16.000Z</time>
</trkpt>
<trkpt lat="44.3379670" lon="9.1594620">
	<ele>133.00</ele>
	<time>2022-05-14T11:16:17.000Z</time>
</trkpt>
<trkpt lat="44.3380130" lon="9.1594590">
	<ele>132.40</ele>
	<time>2022-05-14T11:16:21.000Z</time>
</trkpt>
<trkpt lat="44.3380380" lon="9.1594510">
	<ele>132.00</ele>
	<time>2022-05-14T11:16:24.000Z</time>
</trkpt>
<trkpt lat="44.3380420" lon="9.1594460">
	<ele>131.80</ele>
	<time>2022-05-14T11:16:25.000Z</time>
</trkpt>
<trkpt lat="44.3380470" lon="9.1594430">
	<ele>131.60</ele>
	<time>2022-05-14T11:16:26.000Z</time>
</trkpt>
<trkpt lat="44.3380620" lon="9.1594460">
	<ele>131.20</ele>
	<time>2022-05-14T11:16:28.000Z</time>
</trkpt>
<trkpt lat="44.3380790" lon="9.1594500">
	<ele>131.00</ele>
	<time>2022-05-14T11:16:29.000Z</time>
</trkpt>
<trkpt lat="44.3381010" lon="9.1594510">
	<ele>130.40</ele>
	<time>2022-05-14T11:16:31.000Z</time>
</trkpt>
<trkpt lat="44.3380930" lon="9.1594490">
	<ele>130.20</ele>
	<time>2022-05-14T11:16:32.000Z</time>
</trkpt>
<trkpt lat="44.3380570" lon="9.1594490">
	<ele>129.80</ele>
	<time>2022-05-14T11:16:34.000Z</time>
</trkpt>
<trkpt lat="44.3380750" lon="9.1594450">
	<ele>128.40</ele>
	<time>2022-05-14T11:16:38.000Z</time>
</trkpt>
<trkpt lat="44.3380780" lon="9.1594500">
	<ele>128.20</ele>
	<time>2022-05-14T11:16:39.000Z</time>
</trkpt>
<trkpt lat="44.3380820" lon="9.1594630">
	<ele>127.40</ele>
	<time>2022-05-14T11:16:42.000Z</time>
</trkpt>
<trkpt lat="44.3380970" lon="9.1594760">
	<ele>126.80</ele>
	<time>2022-05-14T11:16:45.000Z</time>
</trkpt>
<trkpt lat="44.3381140" lon="9.1594840">
	<ele>126.40</ele>
	<time>2022-05-14T11:16:47.000Z</time>
</trkpt>
<trkpt lat="44.3381310" lon="9.1594960">
	<ele>126.20</ele>
	<time>2022-05-14T11:16:49.000Z</time>
</trkpt>
<trkpt lat="44.3381640" lon="9.1595130">
	<ele>125.40</ele>
	<time>2022-05-14T11:16:52.000Z</time>
</trkpt>
<trkpt lat="44.3382090" lon="9.1595090">
	<ele>125.00</ele>
	<time>2022-05-14T11:16:55.000Z</time>
</trkpt>
<trkpt lat="44.3382380" lon="9.1595250">
	<ele>124.60</ele>
	<time>2022-05-14T11:16:59.000Z</time>
</trkpt>
<trkpt lat="44.3382570" lon="9.1595110">
	<ele>124.40</ele>
	<time>2022-05-14T11:17:01.000Z</time>
</trkpt>
<trkpt lat="44.3382690" lon="9.1595110">
	<ele>124.20</ele>
	<time>2022-05-14T11:17:02.000Z</time>
</trkpt>
<trkpt lat="44.3383000" lon="9.1595050">
	<ele>123.80</ele>
	<time>2022-05-14T11:17:05.000Z</time>
</trkpt>
<trkpt lat="44.3383160" lon="9.1595150">
	<ele>123.60</ele>
	<time>2022-05-14T11:17:07.000Z</time>
</trkpt>
<trkpt lat="44.3383380" lon="9.1595200">
	<ele>123.40</ele>
	<time>2022-05-14T11:17:09.000Z</time>
</trkpt>
<trkpt lat="44.3383510" lon="9.1595150">
	<ele>123.20</ele>
	<time>2022-05-14T11:17:10.000Z</time>
</trkpt>
<trkpt lat="44.3383720" lon="9.1595200">
	<ele>123.20</ele>
	<time>2022-05-14T11:17:12.000Z</time>
</trkpt>
<trkpt lat="44.3383790" lon="9.1595220">
	<ele>123.00</ele>
	<time>2022-05-14T11:17:13.000Z</time>
</trkpt>
<trkpt lat="44.3383840" lon="9.1595300">
	<ele>123.00</ele>
	<time>2022-05-14T11:17:14.000Z</time>
</trkpt>
<trkpt lat="44.3384250" lon="9.1595260">
	<ele>122.40</ele>
	<time>2022-05-14T11:17:19.000Z</time>
</trkpt>
<trkpt lat="44.3384330" lon="9.1595290">
	<ele>122.20</ele>
	<time>2022-05-14T11:17:20.000Z</time>
</trkpt>
<trkpt lat="44.3384460" lon="9.1595400">
	<ele>122.20</ele>
	<time>2022-05-14T11:17:22.000Z</time>
</trkpt>
<trkpt lat="44.3384680" lon="9.1595490">
	<ele>121.40</ele>
	<time>2022-05-14T11:17:24.000Z</time>
</trkpt>
<trkpt lat="44.3384830" lon="9.1595450">
	<ele>121.20</ele>
	<time>2022-05-14T11:17:25.000Z</time>
</trkpt>
<trkpt lat="44.3384950" lon="9.1595510">
	<ele>120.80</ele>
	<time>2022-05-14T11:17:26.000Z</time>
</trkpt>
<trkpt lat="44.3385240" lon="9.1595690">
	<ele>120.00</ele>
	<time>2022-05-14T11:17:29.000Z</time>
</trkpt>
<trkpt lat="44.3385320" lon="9.1595700">
	<ele>119.80</ele>
	<time>2022-05-14T11:17:30.000Z</time>
</trkpt>
<trkpt lat="44.3385480" lon="9.1595780">
	<ele>119.00</ele>
	<time>2022-05-14T11:17:33.000Z</time>
</trkpt>
<trkpt lat="44.3385510" lon="9.1595800">
	<ele>118.80</ele>
	<time>2022-05-14T11:17:34.000Z</time>
</trkpt>
<trkpt lat="44.3385680" lon="9.1596000">
	<ele>117.80</ele>
	<time>2022-05-14T11:17:37.000Z</time>
</trkpt>
<trkpt lat="44.3385740" lon="9.1596050">
	<ele>117.60</ele>
	<time>2022-05-14T11:17:38.000Z</time>
</trkpt>
<trkpt lat="44.3385820" lon="9.1596260">
	<ele>117.00</ele>
	<time>2022-05-14T11:17:40.000Z</time>
</trkpt>
<trkpt lat="44.3385870" lon="9.1596360">
	<ele>116.60</ele>
	<time>2022-05-14T11:17:41.000Z</time>
</trkpt>
<trkpt lat="44.3385940" lon="9.1596420">
	<ele>116.20</ele>
	<time>2022-05-14T11:17:42.000Z</time>
</trkpt>
<trkpt lat="44.3386150" lon="9.1596500">
	<ele>115.60</ele>
	<time>2022-05-14T11:17:44.000Z</time>
</trkpt>
<trkpt lat="44.3386350" lon="9.1596750">
	<ele>115.00</ele>
	<time>2022-05-14T11:17:47.000Z</time>
</trkpt>
<trkpt lat="44.3386450" lon="9.1596880">
	<ele>114.40</ele>
	<time>2022-05-14T11:17:49.000Z</time>
</trkpt>
<trkpt lat="44.3386520" lon="9.1597120">
	<ele>113.60</ele>
	<time>2022-05-14T11:17:52.000Z</time>
</trkpt>
<trkpt lat="44.3386610" lon="9.1597180">
	<ele>113.40</ele>
	<time>2022-05-14T11:17:53.000Z</time>
</trkpt>
<trkpt lat="44.3386690" lon="9.1597250">
	<ele>113.00</ele>
	<time>2022-05-14T11:17:54.000Z</time>
</trkpt>
<trkpt lat="44.3386910" lon="9.1597140">
	<ele>112.40</ele>
	<time>2022-05-14T11:17:59.000Z</time>
</trkpt>
<trkpt lat="44.3386970" lon="9.1597040">
	<ele>112.20</ele>
	<time>2022-05-14T11:18:00.000Z</time>
</trkpt>
<trkpt lat="44.3387200" lon="9.1596920">
	<ele>111.40</ele>
	<time>2022-05-14T11:18:03.000Z</time>
</trkpt>
<trkpt lat="44.3387460" lon="9.1596670">
	<ele>110.40</ele>
	<time>2022-05-14T11:18:06.000Z</time>
</trkpt>
<trkpt lat="44.3387510" lon="9.1596670">
	<ele>110.20</ele>
	<time>2022-05-14T11:18:07.000Z</time>
</trkpt>
<trkpt lat="44.3387840" lon="9.1596540">
	<ele>109.60</ele>
	<time>2022-05-14T11:18:10.000Z</time>
</trkpt>
<trkpt lat="44.3387820" lon="9.1596070">
	<ele>109.20</ele>
	<time>2022-05-14T11:18:13.000Z</time>
</trkpt>
<trkpt lat="44.3387800" lon="9.1595940">
	<ele>109.00</ele>
	<time>2022-05-14T11:18:14.000Z</time>
</trkpt>
<trkpt lat="44.3388000" lon="9.1595730">
	<ele>108.60</ele>
	<time>2022-05-14T11:18:16.000Z</time>
</trkpt>
<trkpt lat="44.3388180" lon="9.1595380">
	<ele>108.20</ele>
	<time>2022-05-14T11:18:18.000Z</time>
</trkpt>
<trkpt lat="44.3388420" lon="9.1595110">
	<ele>108.00</ele>
	<time>2022-05-14T11:18:19.000Z</time>
</trkpt>
<trkpt lat="44.3389140" lon="9.1594840">
	<ele>107.00</ele>
	<time>2022-05-14T11:18:25.000Z</time>
</trkpt>
<trkpt lat="44.3389390" lon="9.1594810">
	<ele>106.80</ele>
	<time>2022-05-14T11:18:27.000Z</time>
</trkpt>
<trkpt lat="44.3389380" lon="9.1594760">
	<ele>106.80</ele>
	<time>2022-05-14T11:18:28.000Z</time>
</trkpt>
<trkpt lat="44.3389420" lon="9.1594780">
	<ele>106.40</ele>
	<time>2022-05-14T11:18:31.000Z</time>
</trkpt>
<trkpt lat="44.3389590" lon="9.1594560">
	<ele>106.20</ele>
	<time>2022-05-14T11:18:33.000Z</time>
</trkpt>
<trkpt lat="44.3389930" lon="9.1594490">
	<ele>106.20</ele>
	<time>2022-05-14T11:18:35.000Z</time>
</trkpt>
<trkpt lat="44.3390050" lon="9.1594550">
	<ele>106.00</ele>
	<time>2022-05-14T11:18:37.000Z</time>
</trkpt>
<trkpt lat="44.3390100" lon="9.1594450">
	<ele>106.00</ele>
	<time>2022-05-14T11:18:38.000Z</time>
</trkpt>
<trkpt lat="44.3390080" lon="9.1594420">
	<ele>106.00</ele>
	<time>2022-05-14T11:18:39.000Z</time>
</trkpt>
<trkpt lat="44.3390090" lon="9.1594290">
	<ele>105.80</ele>
	<time>2022-05-14T11:18:41.000Z</time>
</trkpt>
<trkpt lat="44.3390160" lon="9.1594170">
	<ele>105.80</ele>
	<time>2022-05-14T11:18:42.000Z</time>
</trkpt>
<trkpt lat="44.3390030" lon="9.1594120">
	<ele>105.80</ele>
	<time>2022-05-14T11:18:43.000Z</time>
</trkpt>
<trkpt lat="44.3389840" lon="9.1594230">
	<ele>105.60</ele>
	<time>2022-05-14T11:18:46.000Z</time>
</trkpt>
<trkpt lat="44.3389740" lon="9.1594390">
	<ele>105.40</ele>
	<time>2022-05-14T11:18:52.000Z</time>
</trkpt>
<trkpt lat="44.3390140" lon="9.1594170">
	<ele>105.20</ele>
	<time>2022-05-14T11:18:59.000Z</time>
</trkpt>
<trkpt lat="44.3390490" lon="9.1593770">
	<ele>104.80</ele>
	<time>2022-05-14T11:19:03.000Z</time>
</trkpt>
<trkpt lat="44.3390600" lon="9.1593710">
	<ele>104.60</ele>
	<time>2022-05-14T11:19:04.000Z</time>
</trkpt>
<trkpt lat="44.3390710" lon="9.1593640">
	<ele>104.60</ele>
	<time>2022-05-14T11:19:05.000Z</time>
</trkpt>
<trkpt lat="44.3390980" lon="9.1593510">
	<ele>104.20</ele>
	<time>2022-05-14T11:19:08.000Z</time>
</trkpt>
<trkpt lat="44.3391370" lon="9.1593540">
	<ele>103.60</ele>
	<time>2022-05-14T11:19:11.000Z</time>
</trkpt>
<trkpt lat="44.3391490" lon="9.1593540">
	<ele>103.40</ele>
	<time>2022-05-14T11:19:13.000Z</time>
</trkpt>
<trkpt lat="44.3391660" lon="9.1593410">
	<ele>102.60</ele>
	<time>2022-05-14T11:19:16.000Z</time>
</trkpt>
<trkpt lat="44.3391710" lon="9.1593380">
	<ele>102.40</ele>
	<time>2022-05-14T11:19:17.000Z</time>
</trkpt>
<trkpt lat="44.3391770" lon="9.1593360">
	<ele>102.20</ele>
	<time>2022-05-14T11:19:18.000Z</time>
</trkpt>
<trkpt lat="44.3392270" lon="9.1593400">
	<ele>101.60</ele>
	<time>2022-05-14T11:19:21.000Z</time>
</trkpt>
<trkpt lat="44.3392410" lon="9.1593460">
	<ele>101.40</ele>
	<time>2022-05-14T11:19:22.000Z</time>
</trkpt>
<trkpt lat="44.3392660" lon="9.1593570">
	<ele>101.00</ele>
	<time>2022-05-14T11:19:24.000Z</time>
</trkpt>
<trkpt lat="44.3392850" lon="9.1593980">
	<ele>100.40</ele>
	<time>2022-05-14T11:19:28.000Z</time>
</trkpt>
<trkpt lat="44.3392900" lon="9.1594080">
	<ele>100.20</ele>
	<time>2022-05-14T11:19:29.000Z</time>
</trkpt>
<trkpt lat="44.3393160" lon="9.1594190">
	<ele>99.60</ele>
	<time>2022-05-14T11:19:32.000Z</time>
</trkpt>
<trkpt lat="44.3393290" lon="9.1594140">
	<ele>99.40</ele>
	<time>2022-05-14T11:19:33.000Z</time>
</trkpt>
<trkpt lat="44.3393440" lon="9.1594130">
	<ele>99.20</ele>
	<time>2022-05-14T11:19:34.000Z</time>
</trkpt>
<trkpt lat="44.3393560" lon="9.1594130">
	<ele>99.00</ele>
	<time>2022-05-14T11:19:35.000Z</time>
</trkpt>
<trkpt lat="44.3393890" lon="9.1594000">
	<ele>98.60</ele>
	<time>2022-05-14T11:19:38.000Z</time>
</trkpt>
<trkpt lat="44.3394160" lon="9.1593850">
	<ele>98.20</ele>
	<time>2022-05-14T11:19:42.000Z</time>
</trkpt>
<trkpt lat="44.3394380" lon="9.1593600">
	<ele>97.40</ele>
	<time>2022-05-14T11:19:45.000Z</time>
</trkpt>
<trkpt lat="44.3394560" lon="9.1593400">
	<ele>97.00</ele>
	<time>2022-05-14T11:19:47.000Z</time>
</trkpt>
<trkpt lat="44.3394750" lon="9.1593320">
	<ele>96.80</ele>
	<time>2022-05-14T11:19:49.000Z</time>
</trkpt>
<trkpt lat="44.3394780" lon="9.1593320">
	<ele>96.60</ele>
	<time>2022-05-14T11:19:50.000Z</time>
</trkpt>
<trkpt lat="44.3394880" lon="9.1593300">
	<ele>96.20</ele>
	<time>2022-05-14T11:19:54.000Z</time>
</trkpt>
<trkpt lat="44.3394930" lon="9.1593420">
	<ele>96.00</ele>
	<time>2022-05-14T11:19:56.000Z</time>
</trkpt>
<trkpt lat="44.3394970" lon="9.1593450">
	<ele>95.80</ele>
	<time>2022-05-14T11:19:57.000Z</time>
</trkpt>
<trkpt lat="44.3394960" lon="9.1593540">
	<ele>95.40</ele>
	<time>2022-05-14T11:19:58.000Z</time>
</trkpt>
<trkpt lat="44.3394970" lon="9.1593690">
	<ele>95.00</ele>
	<time>2022-05-14T11:20:00.000Z</time>
</trkpt>
<trkpt lat="44.3395070" lon="9.1593780">
	<ele>94.60</ele>
	<time>2022-05-14T11:20:02.000Z</time>
</trkpt>
<trkpt lat="44.3395260" lon="9.1593850">
	<ele>94.00</ele>
	<time>2022-05-14T11:20:04.000Z</time>
</trkpt>
<trkpt lat="44.3395510" lon="9.1594050">
	<ele>93.40</ele>
	<time>2022-05-14T11:20:07.000Z</time>
</trkpt>
<trkpt lat="44.3395550" lon="9.1594090">
	<ele>93.20</ele>
	<time>2022-05-14T11:20:08.000Z</time>
</trkpt>
<trkpt lat="44.3395720" lon="9.1593970">
	<ele>92.80</ele>
	<time>2022-05-14T11:20:10.000Z</time>
</trkpt>
<trkpt lat="44.3395790" lon="9.1593920">
	<ele>92.60</ele>
	<time>2022-05-14T11:20:11.000Z</time>
</trkpt>
<trkpt lat="44.3395890" lon="9.1593870">
	<ele>92.40</ele>
	<time>2022-05-14T11:20:12.000Z</time>
</trkpt>
<trkpt lat="44.3396150" lon="9.1593670">
	<ele>92.00</ele>
	<time>2022-05-14T11:20:15.000Z</time>
</trkpt>
<trkpt lat="44.3396290" lon="9.1593480">
	<ele>91.80</ele>
	<time>2022-05-14T11:20:17.000Z</time>
</trkpt>
<trkpt lat="44.3396400" lon="9.1593490">
	<ele>91.60</ele>
	<time>2022-05-14T11:20:18.000Z</time>
</trkpt>
<trkpt lat="44.3396840" lon="9.1593230">
	<ele>91.40</ele>
	<time>2022-05-14T11:20:22.000Z</time>
</trkpt>
<trkpt lat="44.3396960" lon="9.1593160">
	<ele>91.20</ele>
	<time>2022-05-14T11:20:23.000Z</time>
</trkpt>
<trkpt lat="44.3397080" lon="9.1593050">
	<ele>91.00</ele>
	<time>2022-05-14T11:20:24.000Z</time>
</trkpt>
<trkpt lat="44.3397170" lon="9.1592960">
	<ele>91.00</ele>
	<time>2022-05-14T11:20:25.000Z</time>
</trkpt>
<trkpt lat="44.3397210" lon="9.1592880">
	<ele>90.80</ele>
	<time>2022-05-14T11:20:26.000Z</time>
</trkpt>
<trkpt lat="44.3397250" lon="9.1592760">
	<ele>90.60</ele>
	<time>2022-05-14T11:20:27.000Z</time>
</trkpt>
<trkpt lat="44.3397260" lon="9.1592670">
	<ele>90.40</ele>
	<time>2022-05-14T11:20:28.000Z</time>
</trkpt>
<trkpt lat="44.3397360" lon="9.1592650">
	<ele>90.40</ele>
	<time>2022-05-14T11:20:29.000Z</time>
</trkpt>
<trkpt lat="44.3397470" lon="9.1592590">
	<ele>90.40</ele>
	<time>2022-05-14T11:20:30.000Z</time>
</trkpt>
<trkpt lat="44.3397530" lon="9.1592500">
	<ele>90.40</ele>
	<time>2022-05-14T11:20:31.000Z</time>
</trkpt>
<trkpt lat="44.3397600" lon="9.1592430">
	<ele>90.40</ele>
	<time>2022-05-14T11:20:32.000Z</time>
</trkpt>
<trkpt lat="44.3397830" lon="9.1592280">
	<ele>90.20</ele>
	<time>2022-05-14T11:20:35.000Z</time>
</trkpt>
<trkpt lat="44.3397890" lon="9.1592240">
	<ele>90.00</ele>
	<time>2022-05-14T11:20:36.000Z</time>
</trkpt>
<trkpt lat="44.3398060" lon="9.1592170">
	<ele>89.80</ele>
	<time>2022-05-14T11:20:37.000Z</time>
</trkpt>
<trkpt lat="44.3398690" lon="9.1591790">
	<ele>89.20</ele>
	<time>2022-05-14T11:20:41.000Z</time>
</trkpt>
<trkpt lat="44.3398970" lon="9.1591580">
	<ele>89.00</ele>
	<time>2022-05-14T11:20:43.000Z</time>
</trkpt>
<trkpt lat="44.3399330" lon="9.1591180">
	<ele>88.60</ele>
	<time>2022-05-14T11:20:48.000Z</time>
</trkpt>
<trkpt lat="44.3399530" lon="9.1591070">
	<ele>88.00</ele>
	<time>2022-05-14T11:20:50.000Z</time>
</trkpt>
<trkpt lat="44.3399640" lon="9.1590990">
	<ele>87.80</ele>
	<time>2022-05-14T11:20:52.000Z</time>
</trkpt>
<trkpt lat="44.3399700" lon="9.1590950">
	<ele>87.40</ele>
	<time>2022-05-14T11:20:54.000Z</time>
</trkpt>
<trkpt lat="44.3399870" lon="9.1590940">
	<ele>87.00</ele>
	<time>2022-05-14T11:20:55.000Z</time>
</trkpt>
<trkpt lat="44.3400080" lon="9.1590930">
	<ele>87.00</ele>
	<time>2022-05-14T11:20:56.000Z</time>
</trkpt>
<trkpt lat="44.3400400" lon="9.1591130">
	<ele>86.40</ele>
	<time>2022-05-14T11:21:03.000Z</time>
</trkpt>
<trkpt lat="44.3400230" lon="9.1591160">
	<ele>86.40</ele>
	<time>2022-05-14T11:21:04.000Z</time>
</trkpt>
<trkpt lat="44.3400370" lon="9.1590970">
	<ele>86.80</ele>
	<time>2022-05-14T11:21:13.000Z</time>
</trkpt>
<trkpt lat="44.3400500" lon="9.1590940">
	<ele>86.60</ele>
	<time>2022-05-14T11:21:20.000Z</time>
</trkpt>
<trkpt lat="44.3400650" lon="9.1590610">
	<ele>85.80</ele>
	<time>2022-05-14T11:21:26.000Z</time>
</trkpt>
<trkpt lat="44.3400700" lon="9.1590620">
	<ele>85.80</ele>
	<time>2022-05-14T11:21:27.000Z</time>
</trkpt>
<trkpt lat="44.3401080" lon="9.1590400">
	<ele>84.80</ele>
	<time>2022-05-14T11:21:33.000Z</time>
</trkpt>
<trkpt lat="44.3401040" lon="9.1590370">
	<ele>84.80</ele>
	<time>2022-05-14T11:21:34.000Z</time>
</trkpt>
<trkpt lat="44.3401260" lon="9.1590330">
	<ele>84.60</ele>
	<time>2022-05-14T11:21:37.000Z</time>
</trkpt>
<trkpt lat="44.3401170" lon="9.1590280">
	<ele>84.40</ele>
	<time>2022-05-14T11:21:38.000Z</time>
</trkpt>
<trkpt lat="44.3401060" lon="9.1590200">
	<ele>84.60</ele>
	<time>2022-05-14T11:21:40.000Z</time>
</trkpt>
<trkpt lat="44.3400940" lon="9.1590170">
	<ele>84.40</ele>
	<time>2022-05-14T11:21:41.000Z</time>
</trkpt>
<trkpt lat="44.3400820" lon="9.1590130">
	<ele>84.60</ele>
	<time>2022-05-14T11:21:43.000Z</time>
</trkpt>
<trkpt lat="44.3400910" lon="9.1590250">
	<ele>84.60</ele>
	<time>2022-05-14T11:21:45.000Z</time>
</trkpt>
<trkpt lat="44.3400910" lon="9.1590250">
	<ele>84.60</ele>
	<time>2022-05-14T11:21:46.000Z</time>
</trkpt>
<trkpt lat="44.3400910" lon="9.1590250">
	<ele>84.00</ele>
	<time>2022-05-14T11:21:52.000Z</time>
</trkpt>
<trkpt lat="44.3400910" lon="9.1590250">
	<ele>83.80</ele>
	<time>2022-05-14T11:21:53.000Z</time>
</trkpt>
<trkpt lat="44.3400940" lon="9.1590250">
	<ele>83.60</ele>
	<time>2022-05-14T11:21:54.000Z</time>
</trkpt>
<trkpt lat="44.3401370" lon="9.1590370">
	<ele>82.60</ele>
	<time>2022-05-14T11:21:58.000Z</time>
</trkpt>
<trkpt lat="44.3401500" lon="9.1590400">
	<ele>82.40</ele>
	<time>2022-05-14T11:21:59.000Z</time>
</trkpt>
<trkpt lat="44.3401690" lon="9.1590510">
	<ele>82.00</ele>
	<time>2022-05-14T11:22:02.000Z</time>
</trkpt>
<trkpt lat="44.3402080" lon="9.1590870">
	<ele>82.00</ele>
	<time>2022-05-14T11:22:11.000Z</time>
</trkpt>
<trkpt lat="44.3402090" lon="9.1590880">
	<ele>82.00</ele>
	<time>2022-05-14T11:22:13.000Z</time>
</trkpt>
<trkpt lat="44.3402090" lon="9.1590880">
	<ele>81.80</ele>
	<time>2022-05-14T11:22:15.000Z</time>
</trkpt>
<trkpt lat="44.3402090" lon="9.1590880">
	<ele>81.20</ele>
	<time>2022-05-14T11:22:19.000Z</time>
</trkpt>
<trkpt lat="44.3402090" lon="9.1590880">
	<ele>80.20</ele>
	<time>2022-05-14T11:22:24.000Z</time>
</trkpt>
<trkpt lat="44.3402160" lon="9.1590880">
	<ele>79.00</ele>
	<time>2022-05-14T11:22:30.000Z</time>
</trkpt>
<trkpt lat="44.3402260" lon="9.1590600">
	<ele>77.80</ele>
	<time>2022-05-14T11:22:34.000Z</time>
</trkpt>
<trkpt lat="44.3402580" lon="9.1590400">
	<ele>76.80</ele>
	<time>2022-05-14T11:22:40.000Z</time>
</trkpt>
<trkpt lat="44.3402530" lon="9.1590380">
	<ele>76.60</ele>
	<time>2022-05-14T11:22:41.000Z</time>
</trkpt>
<trkpt lat="44.3402470" lon="9.1590450">
	<ele>75.60</ele>
	<time>2022-05-14T11:22:44.000Z</time>
</trkpt>
<trkpt lat="44.3402690" lon="9.1590400">
	<ele>75.00</ele>
	<time>2022-05-14T11:22:46.000Z</time>
</trkpt>
<trkpt lat="44.3402850" lon="9.1590370">
	<ele>74.40</ele>
	<time>2022-05-14T11:22:48.000Z</time>
</trkpt>
<trkpt lat="44.3402940" lon="9.1590360">
	<ele>74.20</ele>
	<time>2022-05-14T11:22:49.000Z</time>
</trkpt>
<trkpt lat="44.3403140" lon="9.1590530">
	<ele>73.20</ele>
	<time>2022-05-14T11:22:52.000Z</time>
</trkpt>
<trkpt lat="44.3403580" lon="9.1590290">
	<ele>72.40</ele>
	<time>2022-05-14T11:22:55.000Z</time>
</trkpt>
<trkpt lat="44.3403680" lon="9.1590200">
	<ele>72.20</ele>
	<time>2022-05-14T11:22:56.000Z</time>
</trkpt>
<trkpt lat="44.3404060" lon="9.1589960">
	<ele>71.60</ele>
	<time>2022-05-14T11:23:00.000Z</time>
</trkpt>
<trkpt lat="44.3404310" lon="9.1589730">
	<ele>71.00</ele>
	<time>2022-05-14T11:23:03.000Z</time>
</trkpt>
<trkpt lat="44.3404610" lon="9.1589530">
	<ele>70.80</ele>
	<time>2022-05-14T11:23:05.000Z</time>
</trkpt>
<trkpt lat="44.3404820" lon="9.1589380">
	<ele>70.40</ele>
	<time>2022-05-14T11:23:07.000Z</time>
</trkpt>
<trkpt lat="44.3404930" lon="9.1589330">
	<ele>70.20</ele>
	<time>2022-05-14T11:23:08.000Z</time>
</trkpt>
<trkpt lat="44.3405320" lon="9.1589210">
	<ele>70.00</ele>
	<time>2022-05-14T11:23:10.000Z</time>
</trkpt>
<trkpt lat="44.3405930" lon="9.1588860">
	<ele>69.00</ele>
	<time>2022-05-14T11:23:16.000Z</time>
</trkpt>
<trkpt lat="44.3405990" lon="9.1588820">
	<ele>68.80</ele>
	<time>2022-05-14T11:23:17.000Z</time>
</trkpt>
<trkpt lat="44.3406470" lon="9.1588470">
	<ele>68.00</ele>
	<time>2022-05-14T11:23:23.000Z</time>
</trkpt>
<trkpt lat="44.3406980" lon="9.1588630">
	<ele>66.80</ele>
	<time>2022-05-14T11:23:29.000Z</time>
</trkpt>
<trkpt lat="44.3407220" lon="9.1588890">
	<ele>65.80</ele>
	<time>2022-05-14T11:23:33.000Z</time>
</trkpt>
<trkpt lat="44.3407440" lon="9.1588830">
	<ele>65.20</ele>
	<time>2022-05-14T11:23:35.000Z</time>
</trkpt>
<trkpt lat="44.3407540" lon="9.1588660">
	<ele>65.00</ele>
	<time>2022-05-14T11:23:37.000Z</time>
</trkpt>
<trkpt lat="44.3407590" lon="9.1588460">
	<ele>64.60</ele>
	<time>2022-05-14T11:23:39.000Z</time>
</trkpt>
<trkpt lat="44.3407660" lon="9.1588390">
	<ele>64.60</ele>
	<time>2022-05-14T11:23:40.000Z</time>
</trkpt>
<trkpt lat="44.3407710" lon="9.1588290">
	<ele>64.40</ele>
	<time>2022-05-14T11:23:41.000Z</time>
</trkpt>
<trkpt lat="44.3407800" lon="9.1587950">
	<ele>64.20</ele>
	<time>2022-05-14T11:23:44.000Z</time>
</trkpt>
<trkpt lat="44.3407930" lon="9.1587720">
	<ele>64.20</ele>
	<time>2022-05-14T11:23:46.000Z</time>
</trkpt>
<trkpt lat="44.3408050" lon="9.1587640">
	<ele>64.00</ele>
	<time>2022-05-14T11:23:47.000Z</time>
</trkpt>
<trkpt lat="44.3408060" lon="9.1587410">
	<ele>64.00</ele>
	<time>2022-05-14T11:23:48.000Z</time>
</trkpt>
<trkpt lat="44.3408230" lon="9.1587110">
	<ele>63.80</ele>
	<time>2022-05-14T11:23:50.000Z</time>
</trkpt>
<trkpt lat="44.3408370" lon="9.1587130">
	<ele>63.60</ele>
	<time>2022-05-14T11:23:51.000Z</time>
</trkpt>
<trkpt lat="44.3408750" lon="9.1587000">
	<ele>63.20</ele>
	<time>2022-05-14T11:23:54.000Z</time>
</trkpt>
<trkpt lat="44.3408830" lon="9.1586900">
	<ele>63.00</ele>
	<time>2022-05-14T11:23:55.000Z</time>
</trkpt>
<trkpt lat="44.3409030" lon="9.1586480">
	<ele>62.80</ele>
	<time>2022-05-14T11:23:57.000Z</time>
</trkpt>
<trkpt lat="44.3409330" lon="9.1585990">
	<ele>62.40</ele>
	<time>2022-05-14T11:24:00.000Z</time>
</trkpt>
<trkpt lat="44.3409830" lon="9.1585820">
	<ele>62.20</ele>
	<time>2022-05-14T11:24:03.000Z</time>
</trkpt>
<trkpt lat="44.3409900" lon="9.1585770">
	<ele>62.00</ele>
	<time>2022-05-14T11:24:04.000Z</time>
</trkpt>
<trkpt lat="44.3409960" lon="9.1585670">
	<ele>62.00</ele>
	<time>2022-05-14T11:24:06.000Z</time>
</trkpt>
<trkpt lat="44.3410020" lon="9.1585690">
	<ele>61.80</ele>
	<time>2022-05-14T11:24:08.000Z</time>
</trkpt>
<trkpt lat="44.3410150" lon="9.1585600">
	<ele>61.80</ele>
	<time>2022-05-14T11:24:09.000Z</time>
</trkpt>
<trkpt lat="44.3410790" lon="9.1585180">
	<ele>61.40</ele>
	<time>2022-05-14T11:24:13.000Z</time>
</trkpt>
<trkpt lat="44.3410870" lon="9.1585140">
	<ele>61.40</ele>
	<time>2022-05-14T11:24:14.000Z</time>
</trkpt>
<trkpt lat="44.3411260" lon="9.1585060">
	<ele>61.20</ele>
	<time>2022-05-14T11:24:17.000Z</time>
</trkpt>
<trkpt lat="44.3411740" lon="9.1584760">
	<ele>61.00</ele>
	<time>2022-05-14T11:24:21.000Z</time>
</trkpt>
<trkpt lat="44.3412520" lon="9.1584550">
	<ele>60.40</ele>
	<time>2022-05-14T11:24:28.000Z</time>
</trkpt>
<trkpt lat="44.3412630" lon="9.1584550">
	<ele>60.00</ele>
	<time>2022-05-14T11:24:30.000Z</time>
</trkpt>
<trkpt lat="44.3412840" lon="9.1584490">
	<ele>59.60</ele>
	<time>2022-05-14T11:24:32.000Z</time>
</trkpt>
<trkpt lat="44.3413090" lon="9.1584280">
	<ele>59.40</ele>
	<time>2022-05-14T11:24:35.000Z</time>
</trkpt>
<trkpt lat="44.3413170" lon="9.1584310">
	<ele>59.20</ele>
	<time>2022-05-14T11:24:36.000Z</time>
</trkpt>
<trkpt lat="44.3413410" lon="9.1584240">
	<ele>59.00</ele>
	<time>2022-05-14T11:24:38.000Z</time>
</trkpt>
<trkpt lat="44.3413620" lon="9.1584280">
	<ele>58.40</ele>
	<time>2022-05-14T11:24:40.000Z</time>
</trkpt>
<trkpt lat="44.3413750" lon="9.1584260">
	<ele>58.20</ele>
	<time>2022-05-14T11:24:41.000Z</time>
</trkpt>
<trkpt lat="44.3413870" lon="9.1584250">
	<ele>57.80</ele>
	<time>2022-05-14T11:24:42.000Z</time>
</trkpt>
<trkpt lat="44.3414150" lon="9.1584340">
	<ele>57.00</ele>
	<time>2022-05-14T11:24:45.000Z</time>
</trkpt>
<trkpt lat="44.3414460" lon="9.1584440">
	<ele>56.20</ele>
	<time>2022-05-14T11:24:48.000Z</time>
</trkpt>
<trkpt lat="44.3414550" lon="9.1584510">
	<ele>56.00</ele>
	<time>2022-05-14T11:24:49.000Z</time>
</trkpt>
<trkpt lat="44.3414680" lon="9.1584810">
	<ele>55.00</ele>
	<time>2022-05-14T11:24:52.000Z</time>
</trkpt>
<trkpt lat="44.3414980" lon="9.1584810">
	<ele>54.00</ele>
	<time>2022-05-14T11:24:56.000Z</time>
</trkpt>
<trkpt lat="44.3415080" lon="9.1584760">
	<ele>53.80</ele>
	<time>2022-05-14T11:24:57.000Z</time>
</trkpt>
<trkpt lat="44.3415380" lon="9.1584800">
	<ele>53.00</ele>
	<time>2022-05-14T11:25:01.000Z</time>
</trkpt>
<trkpt lat="44.3415450" lon="9.1584860">
	<ele>52.80</ele>
	<time>2022-05-14T11:25:02.000Z</time>
</trkpt>
<trkpt lat="44.3415530" lon="9.1584970">
	<ele>52.20</ele>
	<time>2022-05-14T11:25:04.000Z</time>
</trkpt>
<trkpt lat="44.3415750" lon="9.1585070">
	<ele>51.40</ele>
	<time>2022-05-14T11:25:07.000Z</time>
</trkpt>
<trkpt lat="44.3415880" lon="9.1585400">
	<ele>50.80</ele>
	<time>2022-05-14T11:25:10.000Z</time>
</trkpt>
<trkpt lat="44.3415980" lon="9.1585480">
	<ele>50.40</ele>
	<time>2022-05-14T11:25:11.000Z</time>
</trkpt>
<trkpt lat="44.3416110" lon="9.1585720">
	<ele>49.40</ele>
	<time>2022-05-14T11:25:15.000Z</time>
</trkpt>
<trkpt lat="44.3416200" lon="9.1585650">
	<ele>49.20</ele>
	<time>2022-05-14T11:25:16.000Z</time>
</trkpt>
<trkpt lat="44.3416300" lon="9.1585570">
	<ele>48.80</ele>
	<time>2022-05-14T11:25:19.000Z</time>
</trkpt>
<trkpt lat="44.3416440" lon="9.1585620">
	<ele>48.40</ele>
	<time>2022-05-14T11:25:21.000Z</time>
</trkpt>
<trkpt lat="44.3416600" lon="9.1585700">
	<ele>48.40</ele>
	<time>2022-05-14T11:25:22.000Z</time>
</trkpt>
<trkpt lat="44.3416750" lon="9.1585800">
	<ele>48.00</ele>
	<time>2022-05-14T11:25:23.000Z</time>
</trkpt>
<trkpt lat="44.3416870" lon="9.1586070">
	<ele>47.40</ele>
	<time>2022-05-14T11:25:26.000Z</time>
</trkpt>
<trkpt lat="44.3416910" lon="9.1586260">
	<ele>47.00</ele>
	<time>2022-05-14T11:25:28.000Z</time>
</trkpt>
<trkpt lat="44.3416930" lon="9.1586340">
	<ele>46.80</ele>
	<time>2022-05-14T11:25:29.000Z</time>
</trkpt>
<trkpt lat="44.3417000" lon="9.1586410">
	<ele>46.60</ele>
	<time>2022-05-14T11:25:30.000Z</time>
</trkpt>
<trkpt lat="44.3417130" lon="9.1586670">
	<ele>46.00</ele>
	<time>2022-05-14T11:25:33.000Z</time>
</trkpt>
<trkpt lat="44.3417270" lon="9.1586790">
	<ele>45.60</ele>
	<time>2022-05-14T11:25:34.000Z</time>
</trkpt>
<trkpt lat="44.3417410" lon="9.1586950">
	<ele>45.40</ele>
	<time>2022-05-14T11:25:35.000Z</time>
</trkpt>
<trkpt lat="44.3417610" lon="9.1587280">
	<ele>44.80</ele>
	<time>2022-05-14T11:25:37.000Z</time>
</trkpt>
<trkpt lat="44.3417760" lon="9.1587370">
	<ele>44.60</ele>
	<time>2022-05-14T11:25:38.000Z</time>
</trkpt>
<trkpt lat="44.3418230" lon="9.1587730">
	<ele>43.40</ele>
	<time>2022-05-14T11:25:44.000Z</time>
</trkpt>
<trkpt lat="44.3418340" lon="9.1587690">
	<ele>43.20</ele>
	<time>2022-05-14T11:25:45.000Z</time>
</trkpt>
<trkpt lat="44.3419090" lon="9.1587290">
	<ele>43.00</ele>
	<time>2022-05-14T11:25:51.000Z</time>
</trkpt>
<trkpt lat="44.3419310" lon="9.1587040">
	<ele>43.00</ele>
	<time>2022-05-14T11:25:53.000Z</time>
</trkpt>
<trkpt lat="44.3419390" lon="9.1586900">
	<ele>43.00</ele>
	<time>2022-05-14T11:25:54.000Z</time>
</trkpt>
<trkpt lat="44.3419500" lon="9.1586800">
	<ele>43.00</ele>
	<time>2022-05-14T11:25:55.000Z</time>
</trkpt>
<trkpt lat="44.3419810" lon="9.1586570">
	<ele>42.80</ele>
	<time>2022-05-14T11:25:58.000Z</time>
</trkpt>
<trkpt lat="44.3420930" lon="9.1585610">
	<ele>42.80</ele>
	<time>2022-05-14T11:26:09.000Z</time>
</trkpt>
<trkpt lat="44.3422300" lon="9.1584820">
	<ele>42.60</ele>
	<time>2022-05-14T11:26:20.000Z</time>
</trkpt>
<trkpt lat="44.3422430" lon="9.1584800">
	<ele>42.60</ele>
	<time>2022-05-14T11:26:22.000Z</time>
</trkpt>
<trkpt lat="44.3423060" lon="9.1584590">
	<ele>42.20</ele>
	<time>2022-05-14T11:26:28.000Z</time>
</trkpt>
<trkpt lat="44.3423470" lon="9.1584700">
	<ele>41.20</ele>
	<time>2022-05-14T11:26:33.000Z</time>
</trkpt>
<trkpt lat="44.3423710" lon="9.1584730">
	<ele>40.40</ele>
	<time>2022-05-14T11:26:36.000Z</time>
</trkpt>
<trkpt lat="44.3423740" lon="9.1584800">
	<ele>40.20</ele>
	<time>2022-05-14T11:26:37.000Z</time>
</trkpt>
<trkpt lat="44.3423690" lon="9.1584840">
	<ele>39.40</ele>
	<time>2022-05-14T11:26:40.000Z</time>
</trkpt>
<trkpt lat="44.3423790" lon="9.1584810">
	<ele>39.00</ele>
	<time>2022-05-14T11:26:42.000Z</time>
</trkpt>
<trkpt lat="44.3424140" lon="9.1584600">
	<ele>38.40</ele>
	<time>2022-05-14T11:26:45.000Z</time>
</trkpt>
<trkpt lat="44.3424320" lon="9.1584430">
	<ele>38.20</ele>
	<time>2022-05-14T11:26:47.000Z</time>
</trkpt>
<trkpt lat="44.3424370" lon="9.1584330">
	<ele>38.00</ele>
	<time>2022-05-14T11:26:48.000Z</time>
</trkpt>
<trkpt lat="44.3424550" lon="9.1584130">
	<ele>37.80</ele>
	<time>2022-05-14T11:26:50.000Z</time>
</trkpt>
<trkpt lat="44.3425310" lon="9.1583730">
	<ele>37.20</ele>
	<time>2022-05-14T11:26:57.000Z</time>
</trkpt>
<trkpt lat="44.3425580" lon="9.1583770">
	<ele>37.00</ele>
	<time>2022-05-14T11:26:59.000Z</time>
</trkpt>
<trkpt lat="44.3426420" lon="9.1583980">
	<ele>36.40</ele>
	<time>2022-05-14T11:27:05.000Z</time>
</trkpt>
<trkpt lat="44.3426620" lon="9.1583930">
	<ele>36.20</ele>
	<time>2022-05-14T11:27:07.000Z</time>
</trkpt>
<trkpt lat="44.3426740" lon="9.1583930">
	<ele>36.20</ele>
	<time>2022-05-14T11:27:09.000Z</time>
</trkpt>
<trkpt lat="44.3426820" lon="9.1583930">
	<ele>36.00</ele>
	<time>2022-05-14T11:27:11.000Z</time>
</trkpt>
<trkpt lat="44.3426830" lon="9.1583920">
	<ele>36.00</ele>
	<time>2022-05-14T11:27:12.000Z</time>
</trkpt>
<trkpt lat="44.3426890" lon="9.1583940">
	<ele>35.40</ele>
	<time>2022-05-14T11:27:14.000Z</time>
</trkpt>
<trkpt lat="44.3426950" lon="9.1583940">
	<ele>34.80</ele>
	<time>2022-05-14T11:27:16.000Z</time>
</trkpt>
<trkpt lat="44.3426950" lon="9.1583970">
	<ele>34.80</ele>
	<time>2022-05-14T11:27:17.000Z</time>
</trkpt>
<trkpt lat="44.3427030" lon="9.1584040">
	<ele>34.60</ele>
	<time>2022-05-14T11:27:18.000Z</time>
</trkpt>
<trkpt lat="44.3427010" lon="9.1584050">
	<ele>34.20</ele>
	<time>2022-05-14T11:27:19.000Z</time>
</trkpt>
<trkpt lat="44.3427070" lon="9.1584030">
	<ele>33.80</ele>
	<time>2022-05-14T11:27:20.000Z</time>
</trkpt>
<trkpt lat="44.3427410" lon="9.1584200">
	<ele>32.60</ele>
	<time>2022-05-14T11:27:24.000Z</time>
</trkpt>
<trkpt lat="44.3427760" lon="9.1584210">
	<ele>32.00</ele>
	<time>2022-05-14T11:27:27.000Z</time>
</trkpt>
<trkpt lat="44.3428090" lon="9.1584330">
	<ele>31.60</ele>
	<time>2022-05-14T11:27:29.000Z</time>
</trkpt>
<trkpt lat="44.3428340" lon="9.1584500">
	<ele>31.20</ele>
	<time>2022-05-14T11:27:31.000Z</time>
</trkpt>
<trkpt lat="44.3428550" lon="9.1584400">
	<ele>30.80</ele>
	<time>2022-05-14T11:27:32.000Z</time>
</trkpt>
<trkpt lat="44.3428660" lon="9.1584360">
	<ele>30.60</ele>
	<time>2022-05-14T11:27:33.000Z</time>
</trkpt>
<trkpt lat="44.3428910" lon="9.1584230">
	<ele>30.00</ele>
	<time>2022-05-14T11:27:36.000Z</time>
</trkpt>
<trkpt lat="44.3429270" lon="9.1584230">
	<ele>29.60</ele>
	<time>2022-05-14T11:27:39.000Z</time>
</trkpt>
<trkpt lat="44.3429540" lon="9.1584180">
	<ele>29.20</ele>
	<time>2022-05-14T11:27:41.000Z</time>
</trkpt>
<trkpt lat="44.3429700" lon="9.1584260">
	<ele>28.80</ele>
	<time>2022-05-14T11:27:43.000Z</time>
</trkpt>
<trkpt lat="44.3429840" lon="9.1584340">
	<ele>28.40</ele>
	<time>2022-05-14T11:27:45.000Z</time>
</trkpt>
<trkpt lat="44.3429930" lon="9.1584320">
	<ele>28.40</ele>
	<time>2022-05-14T11:27:46.000Z</time>
</trkpt>
<trkpt lat="44.3430070" lon="9.1584280">
	<ele>28.20</ele>
	<time>2022-05-14T11:27:47.000Z</time>
</trkpt>
<trkpt lat="44.3430500" lon="9.1584490">
	<ele>27.60</ele>
	<time>2022-05-14T11:27:51.000Z</time>
</trkpt>
<trkpt lat="44.3430590" lon="9.1584610">
	<ele>27.40</ele>
	<time>2022-05-14T11:27:52.000Z</time>
</trkpt>
<trkpt lat="44.3430720" lon="9.1584730">
	<ele>27.00</ele>
	<time>2022-05-14T11:27:54.000Z</time>
</trkpt>
<trkpt lat="44.3431170" lon="9.1584770">
	<ele>26.20</ele>
	<time>2022-05-14T11:27:57.000Z</time>
</trkpt>
<trkpt lat="44.3431320" lon="9.1584680">
	<ele>26.00</ele>
	<time>2022-05-14T11:27:58.000Z</time>
</trkpt>
<trkpt lat="44.3431650" lon="9.1584550">
	<ele>25.20</ele>
	<time>2022-05-14T11:28:01.000Z</time>
</trkpt>
<trkpt lat="44.3431830" lon="9.1584630">
	<ele>25.20</ele>
	<time>2022-05-14T11:28:04.000Z</time>
</trkpt>
<trkpt lat="44.3432020" lon="9.1584520">
	<ele>25.40</ele>
	<time>2022-05-14T11:28:06.000Z</time>
</trkpt>
<trkpt lat="44.3432150" lon="9.1584390">
	<ele>25.40</ele>
	<time>2022-05-14T11:28:07.000Z</time>
</trkpt>
<trkpt lat="44.3432310" lon="9.1584320">
	<ele>25.40</ele>
	<time>2022-05-14T11:28:08.000Z</time>
</trkpt>
<trkpt lat="44.3432540" lon="9.1584300">
	<ele>25.40</ele>
	<time>2022-05-14T11:28:09.000Z</time>
</trkpt>
<trkpt lat="44.3432750" lon="9.1584320">
	<ele>25.40</ele>
	<time>2022-05-14T11:28:10.000Z</time>
</trkpt>
<trkpt lat="44.3433070" lon="9.1584230">
	<ele>25.60</ele>
	<time>2022-05-14T11:28:12.000Z</time>
</trkpt>
<trkpt lat="44.3433180" lon="9.1584140">
	<ele>25.60</ele>
	<time>2022-05-14T11:28:13.000Z</time>
</trkpt>
<trkpt lat="44.3433350" lon="9.1583860">
	<ele>25.60</ele>
	<time>2022-05-14T11:28:15.000Z</time>
</trkpt>
<trkpt lat="44.3433370" lon="9.1583740">
	<ele>25.40</ele>
	<time>2022-05-14T11:28:16.000Z</time>
</trkpt>
<trkpt lat="44.3433990" lon="9.1583450">
	<ele>25.00</ele>
	<time>2022-05-14T11:28:20.000Z</time>
</trkpt>
<trkpt lat="44.3434250" lon="9.1583490">
	<ele>24.80</ele>
	<time>2022-05-14T11:28:22.000Z</time>
</trkpt>
<trkpt lat="44.3434300" lon="9.1583470">
	<ele>24.80</ele>
	<time>2022-05-14T11:28:23.000Z</time>
</trkpt>
<trkpt lat="44.3434850" lon="9.1583270">
	<ele>24.20</ele>
	<time>2022-05-14T11:28:28.000Z</time>
</trkpt>
<trkpt lat="44.3434970" lon="9.1583240">
	<ele>24.20</ele>
	<time>2022-05-14T11:28:29.000Z</time>
</trkpt>
<trkpt lat="44.3435040" lon="9.1583140">
	<ele>24.00</ele>
	<time>2022-05-14T11:28:30.000Z</time>
</trkpt>
<trkpt lat="44.3435330" lon="9.1582850">
	<ele>23.60</ele>
	<time>2022-05-14T11:28:33.000Z</time>
</trkpt>
<trkpt lat="44.3435430" lon="9.1582770">
	<ele>23.40</ele>
	<time>2022-05-14T11:28:34.000Z</time>
</trkpt>
<trkpt lat="44.3435680" lon="9.1582720">
	<ele>22.80</ele>
	<time>2022-05-14T11:28:37.000Z</time>
</trkpt>
<trkpt lat="44.3436160" lon="9.1582580">
	<ele>21.80</ele>
	<time>2022-05-14T11:28:42.000Z</time>
</trkpt>
<trkpt lat="44.3436280" lon="9.1582690">
	<ele>21.60</ele>
	<time>2022-05-14T11:28:43.000Z</time>
</trkpt>
<trkpt lat="44.3436400" lon="9.1582880">
	<ele>21.40</ele>
	<time>2022-05-14T11:28:44.000Z</time>
</trkpt>
<trkpt lat="44.3436490" lon="9.1583050">
	<ele>21.40</ele>
	<time>2022-05-14T11:28:45.000Z</time>
</trkpt>
<trkpt lat="44.3436690" lon="9.1583190">
	<ele>21.00</ele>
	<time>2022-05-14T11:28:47.000Z</time>
</trkpt>
<trkpt lat="44.3436690" lon="9.1583210">
	<ele>20.80</ele>
	<time>2022-05-14T11:28:48.000Z</time>
</trkpt>
<trkpt lat="44.3436680" lon="9.1583190">
	<ele>20.60</ele>
	<time>2022-05-14T11:28:49.000Z</time>
</trkpt>
<trkpt lat="44.3436600" lon="9.1583260">
	<ele>20.40</ele>
	<time>2022-05-14T11:28:50.000Z</time>
</trkpt>
<trkpt lat="44.3436660" lon="9.1583230">
	<ele>20.00</ele>
	<time>2022-05-14T11:28:52.000Z</time>
</trkpt>
<trkpt lat="44.3436760" lon="9.1583240">
	<ele>19.60</ele>
	<time>2022-05-14T11:28:53.000Z</time>
</trkpt>
<trkpt lat="44.3436850" lon="9.1583300">
	<ele>19.20</ele>
	<time>2022-05-14T11:28:54.000Z</time>
</trkpt>
<trkpt lat="44.3437000" lon="9.1583130">
	<ele>18.80</ele>
	<time>2022-05-14T11:28:57.000Z</time>
</trkpt>
<trkpt lat="44.3437190" lon="9.1583100">
	<ele>18.80</ele>
	<time>2022-05-14T11:28:58.000Z</time>
</trkpt>
<trkpt lat="44.3437460" lon="9.1583100">
	<ele>18.80</ele>
	<time>2022-05-14T11:28:59.000Z</time>
</trkpt>
<trkpt lat="44.3438010" lon="9.1583150">
	<ele>18.20</ele>
	<time>2022-05-14T11:29:03.000Z</time>
</trkpt>
<trkpt lat="44.3438310" lon="9.1583010">
	<ele>18.00</ele>
	<time>2022-05-14T11:29:06.000Z</time>
</trkpt>
<trkpt lat="44.3438610" lon="9.1582860">
	<ele>17.80</ele>
	<time>2022-05-14T11:29:09.000Z</time>
</trkpt>
<trkpt lat="44.3438690" lon="9.1582730">
	<ele>17.80</ele>
	<time>2022-05-14T11:29:11.000Z</time>
</trkpt>
<trkpt lat="44.3438740" lon="9.1582780">
	<ele>17.60</ele>
	<time>2022-05-14T11:29:12.000Z</time>
</trkpt>
<trkpt lat="44.3439020" lon="9.1582870">
	<ele>17.00</ele>
	<time>2022-05-14T11:29:15.000Z</time>
</trkpt>
<trkpt lat="44.3439220" lon="9.1582760">
	<ele>16.80</ele>
	<time>2022-05-14T11:29:16.000Z</time>
</trkpt>
<trkpt lat="44.3439290" lon="9.1582690">
	<ele>16.60</ele>
	<time>2022-05-14T11:29:17.000Z</time>
</trkpt>
<trkpt lat="44.3439370" lon="9.1582600">
	<ele>16.00</ele>
	<time>2022-05-14T11:29:19.000Z</time>
</trkpt>
<trkpt lat="44.3439390" lon="9.1582580">
	<ele>15.80</ele>
	<time>2022-05-14T11:29:20.000Z</time>
</trkpt>
<trkpt lat="44.3439520" lon="9.1582500">
	<ele>15.40</ele>
	<time>2022-05-14T11:29:23.000Z</time>
</trkpt>
<trkpt lat="44.3439570" lon="9.1582390">
	<ele>15.20</ele>
	<time>2022-05-14T11:29:25.000Z</time>
</trkpt>
<trkpt lat="44.3439660" lon="9.1582380">
	<ele>15.00</ele>
	<time>2022-05-14T11:29:26.000Z</time>
</trkpt>
<trkpt lat="44.3440400" lon="9.1582420">
	<ele>14.00</ele>
	<time>2022-05-14T11:29:30.000Z</time>
</trkpt>
<trkpt lat="44.3440620" lon="9.1582420">
	<ele>13.80</ele>
	<time>2022-05-14T11:29:31.000Z</time>
</trkpt>
<trkpt lat="44.3440800" lon="9.1582480">
	<ele>13.60</ele>
	<time>2022-05-14T11:29:32.000Z</time>
</trkpt>
<trkpt lat="44.3441110" lon="9.1582570">
	<ele>13.40</ele>
	<time>2022-05-14T11:29:34.000Z</time>
</trkpt>
<trkpt lat="44.3441210" lon="9.1582570">
	<ele>12.80</ele>
	<time>2022-05-14T11:29:36.000Z</time>
</trkpt>
<trkpt lat="44.3441190" lon="9.1582620">
	<ele>12.40</ele>
	<time>2022-05-14T11:29:38.000Z</time>
</trkpt>
<trkpt lat="44.3441290" lon="9.1582670">
	<ele>11.80</ele>
	<time>2022-05-14T11:29:41.000Z</time>
</trkpt>
<trkpt lat="44.3441430" lon="9.1582720">
	<ele>11.40</ele>
	<time>2022-05-14T11:29:42.000Z</time>
</trkpt>
<trkpt lat="44.3441570" lon="9.1582740">
	<ele>11.20</ele>
	<time>2022-05-14T11:29:43.000Z</time>
</trkpt>
<trkpt lat="44.3441880" lon="9.1582720">
	<ele>10.60</ele>
	<time>2022-05-14T11:29:46.000Z</time>
</trkpt>
<trkpt lat="44.3442040" lon="9.1582700">
	<ele>10.40</ele>
	<time>2022-05-14T11:29:48.000Z</time>
</trkpt>
<trkpt lat="44.3442300" lon="9.1582620">
	<ele>10.00</ele>
	<time>2022-05-14T11:29:50.000Z</time>
</trkpt>
<trkpt lat="44.3442450" lon="9.1582590">
	<ele>10.00</ele>
	<time>2022-05-14T11:29:51.000Z</time>
</trkpt>
<trkpt lat="44.3443000" lon="9.1582510">
	<ele>9.60</ele>
	<time>2022-05-14T11:29:55.000Z</time>
</trkpt>
<trkpt lat="44.3443690" lon="9.1582360">
	<ele>9.40</ele>
	<time>2022-05-14T11:30:00.000Z</time>
</trkpt>
<trkpt lat="44.3444870" lon="9.1581920">
	<ele>9.00</ele>
	<time>2022-05-14T11:30:11.000Z</time>
</trkpt>
<trkpt lat="44.3446080" lon="9.1581710">
	<ele>8.80</ele>
	<time>2022-05-14T11:30:20.000Z</time>
</trkpt>
<trkpt lat="44.3446780" lon="9.1582280">
	<ele>8.60</ele>
	<time>2022-05-14T11:30:27.000Z</time>
</trkpt>
<trkpt lat="44.3446900" lon="9.1582330">
	<ele>8.60</ele>
	<time>2022-05-14T11:30:28.000Z</time>
</trkpt>
<trkpt lat="44.3447530" lon="9.1582270">
	<ele>8.20</ele>
	<time>2022-05-14T11:30:32.000Z</time>
</trkpt>
<trkpt lat="44.3447970" lon="9.1582290">
	<ele>7.80</ele>
	<time>2022-05-14T11:30:35.000Z</time>
</trkpt>
<trkpt lat="44.3447970" lon="9.1582180">
	<ele>7.60</ele>
	<time>2022-05-14T11:30:36.000Z</time>
</trkpt>
<trkpt lat="44.3448010" lon="9.1581980">
	<ele>7.60</ele>
	<time>2022-05-14T11:30:38.000Z</time>
</trkpt>
<trkpt lat="44.3448040" lon="9.1581850">
	<ele>7.40</ele>
	<time>2022-05-14T11:30:40.000Z</time>
</trkpt>
<trkpt lat="44.3448140" lon="9.1581810">
	<ele>7.20</ele>
	<time>2022-05-14T11:30:41.000Z</time>
</trkpt>
<trkpt lat="44.3448150" lon="9.1581720">
	<ele>7.20</ele>
	<time>2022-05-14T11:30:42.000Z</time>
</trkpt>
<trkpt lat="44.3448690" lon="9.1581540">
	<ele>7.00</ele>
	<time>2022-05-14T11:30:44.000Z</time>
</trkpt>
<trkpt lat="44.3448810" lon="9.1581540">
	<ele>6.80</ele>
	<time>2022-05-14T11:30:45.000Z</time>
</trkpt>
<trkpt lat="44.3449230" lon="9.1581440">
	<ele>6.60</ele>
	<time>2022-05-14T11:30:48.000Z</time>
</trkpt>
<trkpt lat="44.3449440" lon="9.1581330">
	<ele>6.40</ele>
	<time>2022-05-14T11:30:49.000Z</time>
</trkpt>
<trkpt lat="44.3450110" lon="9.1580910">
	<ele>6.20</ele>
	<time>2022-05-14T11:30:53.000Z</time>
</trkpt>
<trkpt lat="44.3450360" lon="9.1580670">
	<ele>6.00</ele>
	<time>2022-05-14T11:30:56.000Z</time>
</trkpt>
<trkpt lat="44.3450590" lon="9.1580510">
	<ele>5.80</ele>
	<time>2022-05-14T11:30:59.000Z</time>
</trkpt>
<trkpt lat="44.3450730" lon="9.1580260">
	<ele>5.80</ele>
	<time>2022-05-14T11:31:01.000Z</time>
</trkpt>
<trkpt lat="44.3450950" lon="9.1579910">
	<ele>5.80</ele>
	<time>2022-05-14T11:31:03.000Z</time>
</trkpt>
<trkpt lat="44.3451080" lon="9.1579890">
	<ele>5.80</ele>
	<time>2022-05-14T11:31:04.000Z</time>
</trkpt>
<trkpt lat="44.3451250" lon="9.1579700">
	<ele>5.60</ele>
	<time>2022-05-14T11:31:06.000Z</time>
</trkpt>
<trkpt lat="44.3451220" lon="9.1579170">
	<ele>5.60</ele>
	<time>2022-05-14T11:31:08.000Z</time>
</trkpt>
<trkpt lat="44.3451260" lon="9.1578920">
	<ele>5.80</ele>
	<time>2022-05-14T11:31:09.000Z</time>
</trkpt>
<trkpt lat="44.3451620" lon="9.1578390">
	<ele>5.60</ele>
	<time>2022-05-14T11:31:12.000Z</time>
</trkpt>
<trkpt lat="44.3451790" lon="9.1578090">
	<ele>5.60</ele>
	<time>2022-05-14T11:31:14.000Z</time>
</trkpt>
<trkpt lat="44.3451830" lon="9.1577830">
	<ele>5.20</ele>
	<time>2022-05-14T11:31:15.000Z</time>
</trkpt>
<trkpt lat="44.3451870" lon="9.1577650">
	<ele>5.20</ele>
	<time>2022-05-14T11:31:16.000Z</time>
</trkpt>
<trkpt lat="44.3451950" lon="9.1577500">
	<ele>5.00</ele>
	<time>2022-05-14T11:31:17.000Z</time>
</trkpt>
<trkpt lat="44.3452090" lon="9.1577420">
	<ele>5.00</ele>
	<time>2022-05-14T11:31:18.000Z</time>
</trkpt>
<trkpt lat="44.3452390" lon="9.1577290">
	<ele>4.80</ele>
	<time>2022-05-14T11:31:20.000Z</time>
</trkpt>
<trkpt lat="44.3452670" lon="9.1577190">
	<ele>4.80</ele>
	<time>2022-05-14T11:31:22.000Z</time>
</trkpt>
<trkpt lat="44.3453420" lon="9.1576910">
	<ele>4.40</ele>
	<time>2022-05-14T11:31:26.000Z</time>
</trkpt>
<trkpt lat="44.3453810" lon="9.1577100">
	<ele>4.20</ele>
	<time>2022-05-14T11:31:29.000Z</time>
</trkpt>
<trkpt lat="44.3454190" lon="9.1576450">
	<ele>4.00</ele>
	<time>2022-05-14T11:31:33.000Z</time>
</trkpt>
<trkpt lat="44.3454330" lon="9.1576320">
	<ele>4.00</ele>
	<time>2022-05-14T11:31:34.000Z</time>
</trkpt>
<trkpt lat="44.3454940" lon="9.1576170">
	<ele>3.80</ele>
	<time>2022-05-14T11:31:39.000Z</time>
</trkpt>
<trkpt lat="44.3455180" lon="9.1575990">
	<ele>3.80</ele>
	<time>2022-05-14T11:31:41.000Z</time>
</trkpt>
<trkpt lat="44.3455300" lon="9.1575950">
	<ele>3.60</ele>
	<time>2022-05-14T11:31:42.000Z</time>
</trkpt>
<trkpt lat="44.3455980" lon="9.1575550">
	<ele>3.40</ele>
	<time>2022-05-14T11:31:47.000Z</time>
</trkpt>
<trkpt lat="44.3456280" lon="9.1575170">
	<ele>3.40</ele>
	<time>2022-05-14T11:31:51.000Z</time>
</trkpt>
<trkpt lat="44.3456360" lon="9.1575360">
	<ele>3.40</ele>
	<time>2022-05-14T11:31:53.000Z</time>
</trkpt>
<trkpt lat="44.3456490" lon="9.1575410">
	<ele>3.20</ele>
	<time>2022-05-14T11:31:55.000Z</time>
</trkpt>
<trkpt lat="44.3456610" lon="9.1575300">
	<ele>3.20</ele>
	<time>2022-05-14T11:31:57.000Z</time>
</trkpt>
<trkpt lat="44.3456720" lon="9.1575250">
	<ele>3.00</ele>
	<time>2022-05-14T11:31:59.000Z</time>
</trkpt>
<trkpt lat="44.3457020" lon="9.1575670">
	<ele>3.00</ele>
	<time>2022-05-14T11:32:01.000Z</time>
</trkpt>
<trkpt lat="44.3457230" lon="9.1575890">
	<ele>2.80</ele>
	<time>2022-05-14T11:32:03.000Z</time>
</trkpt>
<trkpt lat="44.3457350" lon="9.1575930">
	<ele>2.80</ele>
	<time>2022-05-14T11:32:04.000Z</time>
</trkpt>
<trkpt lat="44.3457530" lon="9.1575990">
	<ele>2.80</ele>
	<time>2022-05-14T11:32:06.000Z</time>
</trkpt>
<trkpt lat="44.3457640" lon="9.1575960">
	<ele>2.80</ele>
	<time>2022-05-14T11:32:07.000Z</time>
</trkpt>
<trkpt lat="44.3457850" lon="9.1575900">
	<ele>2.60</ele>
	<time>2022-05-14T11:32:09.000Z</time>
</trkpt>
<trkpt lat="44.3458020" lon="9.1576140">
	<ele>2.60</ele>
	<time>2022-05-14T11:32:11.000Z</time>
</trkpt>
<trkpt lat="44.3458130" lon="9.1576310">
	<ele>2.60</ele>
	<time>2022-05-14T11:32:12.000Z</time>
</trkpt>
<trkpt lat="44.3458290" lon="9.1576490">
	<ele>2.60</ele>
	<time>2022-05-14T11:32:14.000Z</time>
</trkpt>
<trkpt lat="44.3458540" lon="9.1576730">
	<ele>2.40</ele>
	<time>2022-05-14T11:32:17.000Z</time>
</trkpt>
<trkpt lat="44.3458600" lon="9.1576760">
	<ele>2.40</ele>
	<time>2022-05-14T11:32:18.000Z</time>
</trkpt>
<trkpt lat="44.3458610" lon="9.1576920">
	<ele>2.20</ele>
	<time>2022-05-14T11:32:20.000Z</time>
</trkpt>
<trkpt lat="44.3458610" lon="9.1576880">
	<ele>2.20</ele>
	<time>2022-05-14T11:32:21.000Z</time>
</trkpt>
<trkpt lat="44.3458610" lon="9.1576810">
	<ele>2.20</ele>
	<time>2022-05-14T11:32:22.000Z</time>
</trkpt>
<trkpt lat="44.3458620" lon="9.1576680">
	<ele>2.20</ele>
	<time>2022-05-14T11:32:27.000Z</time>
</trkpt>
<trkpt lat="44.3458600" lon="9.1576550">
	<ele>2.20</ele>
	<time>2022-05-14T11:32:28.000Z</time>
</trkpt>
<trkpt lat="44.3458280" lon="9.1576630">
	<ele>2.20</ele>
	<time>2022-05-14T11:32:33.000Z</time>
</trkpt>
<trkpt lat="44.3458050" lon="9.1576610">
	<ele>2.60</ele>
	<time>2022-05-14T11:32:36.000Z</time>
</trkpt>
<trkpt lat="44.3457880" lon="9.1576630">
	<ele>3.00</ele>
	<time>2022-05-14T11:32:38.000Z</time>
</trkpt>
<trkpt lat="44.3458030" lon="9.1576930">
	<ele>3.20</ele>
	<time>2022-05-14T11:32:40.000Z</time>
</trkpt>
<trkpt lat="44.3458270" lon="9.1577060">
	<ele>3.60</ele>
	<time>2022-05-14T11:32:42.000Z</time>
</trkpt>
<trkpt lat="44.3458750" lon="9.1577110">
	<ele>4.40</ele>
	<time>2022-05-14T11:32:45.000Z</time>
</trkpt>
<trkpt lat="44.3458830" lon="9.1577430">
	<ele>4.60</ele>
	<time>2022-05-14T11:32:47.000Z</time>
</trkpt>
<trkpt lat="44.3458800" lon="9.1577590">
	<ele>4.80</ele>
	<time>2022-05-14T11:32:48.000Z</time>
</trkpt>
<trkpt lat="44.3458880" lon="9.1577900">
	<ele>5.20</ele>
	<time>2022-05-14T11:32:50.000Z</time>
</trkpt>
<trkpt lat="44.3458940" lon="9.1578040">
	<ele>5.40</ele>
	<time>2022-05-14T11:32:51.000Z</time>
</trkpt>
<trkpt lat="44.3459050" lon="9.1578180">
	<ele>5.80</ele>
	<time>2022-05-14T11:32:53.000Z</time>
</trkpt>
<trkpt lat="44.3458980" lon="9.1578460">
	<ele>6.20</ele>
	<time>2022-05-14T11:32:55.000Z</time>
</trkpt>
<trkpt lat="44.3458890" lon="9.1578760">
	<ele>6.60</ele>
	<time>2022-05-14T11:32:57.000Z</time>
</trkpt>
<trkpt lat="44.3458650" lon="9.1579060">
	<ele>7.00</ele>
	<time>2022-05-14T11:33:00.000Z</time>
</trkpt>
<trkpt lat="44.3458520" lon="9.1579090">
	<ele>7.20</ele>
	<time>2022-05-14T11:33:02.000Z</time>
</trkpt>
<trkpt lat="44.3458470" lon="9.1579230">
	<ele>7.60</ele>
	<time>2022-05-14T11:33:04.000Z</time>
</trkpt>
<trkpt lat="44.3458490" lon="9.1579330">
	<ele>7.60</ele>
	<time>2022-05-14T11:33:05.000Z</time>
</trkpt>
<trkpt lat="44.3458400" lon="9.1579270">
	<ele>7.80</ele>
	<time>2022-05-14T11:33:06.000Z</time>
</trkpt>
<trkpt lat="44.3458310" lon="9.1579260">
	<ele>7.80</ele>
	<time>2022-05-14T11:33:07.000Z</time>
</trkpt>
<trkpt lat="44.3458140" lon="9.1579210">
	<ele>8.00</ele>
	<time>2022-05-14T11:33:09.000Z</time>
</trkpt>
<trkpt lat="44.3457950" lon="9.1579200">
	<ele>8.20</ele>
	<time>2022-05-14T11:33:11.000Z</time>
</trkpt>
<trkpt lat="44.3457860" lon="9.1579160">
	<ele>8.20</ele>
	<time>2022-05-14T11:33:12.000Z</time>
</trkpt>
<trkpt lat="44.3457780" lon="9.1579170">
	<ele>8.40</ele>
	<time>2022-05-14T11:33:13.000Z</time>
</trkpt>
<trkpt lat="44.3457720" lon="9.1579250">
	<ele>8.80</ele>
	<time>2022-05-14T11:33:15.000Z</time>
</trkpt>
<trkpt lat="44.3457760" lon="9.1579400">
	<ele>8.80</ele>
	<time>2022-05-14T11:33:16.000Z</time>
</trkpt>
<trkpt lat="44.3457780" lon="9.1579580">
	<ele>9.00</ele>
	<time>2022-05-14T11:33:18.000Z</time>
</trkpt>
<trkpt lat="44.3457610" lon="9.1579700">
	<ele>9.20</ele>
	<time>2022-05-14T11:33:20.000Z</time>
</trkpt>
<trkpt lat="44.3457450" lon="9.1579770">
	<ele>9.60</ele>
	<time>2022-05-14T11:33:22.000Z</time>
</trkpt>
<trkpt lat="44.3457330" lon="9.1579790">
	<ele>9.80</ele>
	<time>2022-05-14T11:33:23.000Z</time>
</trkpt>
<trkpt lat="44.3457190" lon="9.1579900">
	<ele>10.00</ele>
	<time>2022-05-14T11:33:25.000Z</time>
</trkpt>
<trkpt lat="44.3456590" lon="9.1580080">
	<ele>11.00</ele>
	<time>2022-05-14T11:33:32.000Z</time>
</trkpt>
<trkpt lat="44.3456520" lon="9.1580120">
	<ele>11.20</ele>
	<time>2022-05-14T11:33:33.000Z</time>
</trkpt>
<trkpt lat="44.3456420" lon="9.1579960">
	<ele>11.40</ele>
	<time>2022-05-14T11:33:36.000Z</time>
</trkpt>
<trkpt lat="44.3456480" lon="9.1580020">
	<ele>11.60</ele>
	<time>2022-05-14T11:33:37.000Z</time>
</trkpt>
<trkpt lat="44.3456690" lon="9.1579890">
	<ele>12.00</ele>
	<time>2022-05-14T11:33:41.000Z</time>
</trkpt>
<trkpt lat="44.3456820" lon="9.1579480">
	<ele>12.80</ele>
	<time>2022-05-14T11:33:45.000Z</time>
</trkpt>
<trkpt lat="44.3456880" lon="9.1579270">
	<ele>13.00</ele>
	<time>2022-05-14T11:33:46.000Z</time>
</trkpt>
<trkpt lat="44.3456940" lon="9.1579090">
	<ele>13.20</ele>
	<time>2022-05-14T11:33:47.000Z</time>
</trkpt>
<trkpt lat="44.3457080" lon="9.1579050">
	<ele>13.80</ele>
	<time>2022-05-14T11:33:50.000Z</time>
</trkpt>
<trkpt lat="44.3457150" lon="9.1579100">
	<ele>14.00</ele>
	<time>2022-05-14T11:33:51.000Z</time>
</trkpt>
<trkpt lat="44.3457300" lon="9.1579310">
	<ele>14.40</ele>
	<time>2022-05-14T11:33:53.000Z</time>
</trkpt>
<trkpt lat="44.3457360" lon="9.1579390">
	<ele>14.60</ele>
	<time>2022-05-14T11:33:54.000Z</time>
</trkpt>
<trkpt lat="44.3457340" lon="9.1579610">
	<ele>14.60</ele>
	<time>2022-05-14T11:33:56.000Z</time>
</trkpt>
<trkpt lat="44.3457330" lon="9.1579820">
	<ele>14.80</ele>
	<time>2022-05-14T11:33:58.000Z</time>
</trkpt>
<trkpt lat="44.3457450" lon="9.1579990">
	<ele>15.00</ele>
	<time>2022-05-14T11:34:00.000Z</time>
</trkpt>
<trkpt lat="44.3457660" lon="9.1580030">
	<ele>15.00</ele>
	<time>2022-05-14T11:34:02.000Z</time>
</trkpt>
<trkpt lat="44.3457760" lon="9.1580070">
	<ele>14.80</ele>
	<time>2022-05-14T11:34:03.000Z</time>
</trkpt>
<trkpt lat="44.3458590" lon="9.1580120">
	<ele>14.60</ele>
	<time>2022-05-14T11:34:09.000Z</time>
</trkpt>
<trkpt lat="44.3459070" lon="9.1579880">
	<ele>14.20</ele>
	<time>2022-05-14T11:34:13.000Z</time>
</trkpt>
<trkpt lat="44.3459420" lon="9.1579540">
	<ele>13.80</ele>
	<time>2022-05-14T11:34:16.000Z</time>
</trkpt>
<trkpt lat="44.3459510" lon="9.1579450">
	<ele>13.80</ele>
	<time>2022-05-14T11:34:17.000Z</time>
</trkpt>
<trkpt lat="44.3459670" lon="9.1579250">
	<ele>13.60</ele>
	<time>2022-05-14T11:34:18.000Z</time>
</trkpt>
<trkpt lat="44.3459920" lon="9.1579080">
	<ele>13.60</ele>
	<time>2022-05-14T11:34:20.000Z</time>
</trkpt>
<trkpt lat="44.3460040" lon="9.1578970">
	<ele>13.60</ele>
	<time>2022-05-14T11:34:21.000Z</time>
</trkpt>
<trkpt lat="44.3460230" lon="9.1579120">
	<ele>13.60</ele>
	<time>2022-05-14T11:34:24.000Z</time>
</trkpt>
<trkpt lat="44.3460320" lon="9.1579320">
	<ele>13.60</ele>
	<time>2022-05-14T11:34:25.000Z</time>
</trkpt>
<trkpt lat="44.3460530" lon="9.1579480">
	<ele>13.40</ele>
	<time>2022-05-14T11:34:27.000Z</time>
</trkpt>
<trkpt lat="44.3460870" lon="9.1579880">
	<ele>13.40</ele>
	<time>2022-05-14T11:34:30.000Z</time>
</trkpt>
<trkpt lat="44.3461030" lon="9.1580100">
	<ele>13.20</ele>
	<time>2022-05-14T11:34:31.000Z</time>
</trkpt>
<trkpt lat="44.3461440" lon="9.1580410">
	<ele>13.00</ele>
	<time>2022-05-14T11:34:33.000Z</time>
</trkpt>
<trkpt lat="44.3461640" lon="9.1580400">
	<ele>13.00</ele>
	<time>2022-05-14T11:34:34.000Z</time>
</trkpt>
<trkpt lat="44.3462440" lon="9.1580420">
	<ele>12.80</ele>
	<time>2022-05-14T11:34:40.000Z</time>
</trkpt>
<trkpt lat="44.3462520" lon="9.1580330">
	<ele>12.80</ele>
	<time>2022-05-14T11:34:41.000Z</time>
</trkpt>
<trkpt lat="44.3462840" lon="9.1580200">
	<ele>12.80</ele>
	<time>2022-05-14T11:34:43.000Z</time>
</trkpt>
<trkpt lat="44.3463000" lon="9.1579980">
	<ele>12.80</ele>
	<time>2022-05-14T11:34:44.000Z</time>
</trkpt>
<trkpt lat="44.3463310" lon="9.1579630">
	<ele>12.60</ele>
	<time>2022-05-14T11:34:46.000Z</time>
</trkpt>
<trkpt lat="44.3463370" lon="9.1579370">
	<ele>12.60</ele>
	<time>2022-05-14T11:34:47.000Z</time>
</trkpt>
<trkpt lat="44.3463410" lon="9.1579220">
	<ele>12.60</ele>
	<time>2022-05-14T11:34:48.000Z</time>
</trkpt>
<trkpt lat="44.3463690" lon="9.1578840">
	<ele>12.40</ele>
	<time>2022-05-14T11:34:51.000Z</time>
</trkpt>
<trkpt lat="44.3464030" lon="9.1578580">
	<ele>12.40</ele>
	<time>2022-05-14T11:34:54.000Z</time>
</trkpt>
<trkpt lat="44.3464700" lon="9.1579040">
	<ele>12.40</ele>
	<time>2022-05-14T11:34:59.000Z</time>
</trkpt>
<trkpt lat="44.3465230" lon="9.1579190">
	<ele>12.20</ele>
	<time>2022-05-14T11:35:02.000Z</time>
</trkpt>
<trkpt lat="44.3465530" lon="9.1579340">
	<ele>12.20</ele>
	<time>2022-05-14T11:35:04.000Z</time>
</trkpt>
<trkpt lat="44.3465850" lon="9.1579910">
	<ele>12.20</ele>
	<time>2022-05-14T11:35:08.000Z</time>
</trkpt>
<trkpt lat="44.3465720" lon="9.1580960">
	<ele>12.60</ele>
	<time>2022-05-14T11:35:12.000Z</time>
</trkpt>
<trkpt lat="44.3465810" lon="9.1581400">
	<ele>12.80</ele>
	<time>2022-05-14T11:35:14.000Z</time>
</trkpt>
<trkpt lat="44.3466050" lon="9.1582510">
	<ele>13.00</ele>
	<time>2022-05-14T11:35:20.000Z</time>
</trkpt>
<trkpt lat="44.3466270" lon="9.1583250">
	<ele>13.20</ele>
	<time>2022-05-14T11:35:25.000Z</time>
</trkpt>
<trkpt lat="44.3466460" lon="9.1583090">
	<ele>13.20</ele>
	<time>2022-05-14T11:35:27.000Z</time>
</trkpt>
<trkpt lat="44.3466670" lon="9.1583020">
	<ele>13.20</ele>
	<time>2022-05-14T11:35:29.000Z</time>
</trkpt>
<trkpt lat="44.3467210" lon="9.1583390">
	<ele>13.20</ele>
	<time>2022-05-14T11:35:33.000Z</time>
</trkpt>
<trkpt lat="44.3467800" lon="9.1583840">
	<ele>13.20</ele>
	<time>2022-05-14T11:35:38.000Z</time>
</trkpt>
<trkpt lat="44.3468190" lon="9.1583760">
	<ele>13.20</ele>
	<time>2022-05-14T11:35:42.000Z</time>
</trkpt>
<trkpt lat="44.3468490" lon="9.1583730">
	<ele>13.20</ele>
	<time>2022-05-14T11:35:46.000Z</time>
</trkpt>
<trkpt lat="44.3468510" lon="9.1583740">
	<ele>13.20</ele>
	<time>2022-05-14T11:35:47.000Z</time>
</trkpt>
</trkseg>
</trk>
</gpx>
